<?xml version='1.0' encoding='UTF-8'?><gpx version="1.1" creator="JPX - https://github.com/jenetics/jpx" xmlns="http://www.topografix.com/GPX/1/1"><trk><trkseg><trkpt lat="44.34514125270462" lon="9.912461437956251"><ele>190.0</ele><time>2026-05-03T07:16:14.897Z</time></trkpt><trkpt lat="44.345203435338014" lon="9.912394878529726"><ele>190.0</ele><time>2026-05-03T07:16:15.897Z</time></trkpt><trkpt lat="44.345268662583784" lon="9.912333315740655"><ele>190.0</ele><time>2026-05-03T07:16:16.897Z</time></trkpt><trkpt lat="44.34533010729457" lon="9.912254703770543"><ele>190.0</ele><time>2026-05-03T07:16:17.897Z</time></trkpt><trkpt lat="44.34538190773501" lon="9.91218436252715"><ele>190.0</ele><time>2026-05-03T07:16:18.897Z</time></trkpt><trkpt lat="44.34545084946573" lon="9.912080549251595"><ele>190.0</ele><time>2026-05-03T07:16:20.897Z</time></trkpt><trkpt lat="44.34551703449675" lon="9.911948952777914"><ele>190.0</ele><time>2026-05-03T07:16:22.897Z</time></trkpt><trkpt lat="44.34554897766852" lon="9.911852027951584"><ele>190.0</ele><time>2026-05-03T07:16:24.897Z</time></trkpt><trkpt lat="44.34552159451246" lon="9.9117669292462"><ele>190.0</ele><time>2026-05-03T07:16:26.897Z</time></trkpt><trkpt lat="44.345406691851466" lon="9.911744938709248"><ele>190.0</ele><time>2026-05-03T07:16:28.897Z</time></trkpt><trkpt lat="44.34532245159939" lon="9.911750049440965"><ele>190.0</ele><time>2026-05-03T07:16:29.897Z</time></trkpt><trkpt lat="44.34522969257879" lon="9.911758077410418"><ele>190.0</ele><time>2026-05-03T07:16:30.897Z</time></trkpt><trkpt lat="44.345132174186205" lon="9.91176486291261"><ele>190.0</ele><time>2026-05-03T07:16:31.897Z</time></trkpt><trkpt lat="44.34502306895049" lon="9.911765835914425"><ele>190.0</ele><time>2026-05-03T07:16:32.897Z</time></trkpt><trkpt lat="44.344899756505235" lon="9.911766366075257"><ele>190.0</ele><time>2026-05-03T07:16:33.897Z</time></trkpt><trkpt lat="44.34477085873569" lon="9.911755148781559"><ele>190.0</ele><time>2026-05-03T07:16:34.897Z</time></trkpt><trkpt lat="44.34463495235718" lon="9.911735417900157"><ele>189.0</ele><time>2026-05-03T07:16:35.897Z</time></trkpt><trkpt lat="44.34448496587745" lon="9.91170873565763"><ele>188.0</ele><time>2026-05-03T07:16:36.897Z</time></trkpt><trkpt lat="44.3443295116347" lon="9.911671248974866"><ele>187.0</ele><time>2026-05-03T07:16:37.897Z</time></trkpt><trkpt lat="44.3441753909235" lon="9.911625819062095"><ele>187.0</ele><time>2026-05-03T07:16:38.897Z</time></trkpt><trkpt lat="44.34402039329353" lon="9.911572852790536"><ele>187.0</ele><time>2026-05-03T07:16:39.897Z</time></trkpt><trkpt lat="44.34386877843277" lon="9.911523945774993"><ele>187.0</ele><time>2026-05-03T07:16:40.897Z</time></trkpt><trkpt lat="44.34371465722905" lon="9.911473176899243"><ele>186.0</ele><time>2026-05-03T07:16:41.897Z</time></trkpt><trkpt lat="44.3435592087112" lon="9.911430143093112"><ele>185.0</ele><time>2026-05-03T07:16:42.897Z</time></trkpt><trkpt lat="44.343402280859046" lon="9.911382580978419"><ele>184.0</ele><time>2026-05-03T07:16:43.897Z</time></trkpt><trkpt lat="44.34324279278779" lon="9.911325239086828"><ele>184.0</ele><time>2026-05-03T07:16:44.897Z</time></trkpt><trkpt lat="44.34308566237646" lon="9.911271253918763"><ele>184.0</ele><time>2026-05-03T07:16:45.897Z</time></trkpt><trkpt lat="44.342925021962316" lon="9.91122423765851"><ele>184.0</ele><time>2026-05-03T07:16:46.897Z</time></trkpt><trkpt lat="44.34275963376231" lon="9.911177041640473"><ele>184.0</ele><time>2026-05-03T07:16:47.897Z</time></trkpt><trkpt lat="44.342592073921864" lon="9.911139930940323"><ele>184.0</ele><time>2026-05-03T07:16:48.897Z</time></trkpt><trkpt lat="44.34242493624067" lon="9.911116452065277"><ele>184.0</ele><time>2026-05-03T07:16:49.897Z</time></trkpt><trkpt lat="44.3422558785809" lon="9.91110189878802"><ele>183.33333333333334</ele><time>2026-05-03T07:16:50.897Z</time></trkpt><trkpt lat="44.342089254828586" lon="9.911101452350477"><ele>182.66666666666666</ele><time>2026-05-03T07:16:51.897Z</time></trkpt><trkpt lat="44.341922644498915" lon="9.911112944895118"><ele>182.0</ele><time>2026-05-03T07:16:52.897Z</time></trkpt><trkpt lat="44.34175377719494" lon="9.911131949163387"><ele>182.0</ele><time>2026-05-03T07:16:53.897Z</time></trkpt><trkpt lat="44.34158586145857" lon="9.911162550124677"><ele>182.0</ele><time>2026-05-03T07:16:54.897Z</time></trkpt><trkpt lat="44.34141747495986" lon="9.91119828617178"><ele>182.0</ele><time>2026-05-03T07:16:55.897Z</time></trkpt><trkpt lat="44.34125320411397" lon="9.911240582878756"><ele>182.0</ele><time>2026-05-03T07:16:56.897Z</time></trkpt><trkpt lat="44.34108736105717" lon="9.911292078501683"><ele>182.0</ele><time>2026-05-03T07:16:57.897Z</time></trkpt><trkpt lat="44.34092211891694" lon="9.91135584641688"><ele>182.0</ele><time>2026-05-03T07:16:58.897Z</time></trkpt><trkpt lat="44.34075624069148" lon="9.911427475885857"><ele>182.0</ele><time>2026-05-03T07:16:59.897Z</time></trkpt><trkpt lat="44.34059124694995" lon="9.91150507177661"><ele>182.0</ele><time>2026-05-03T07:17:00.897Z</time></trkpt><trkpt lat="44.34042924651807" lon="9.911584728495384"><ele>182.0</ele><time>2026-05-03T07:17:01.897Z</time></trkpt><trkpt lat="44.340267630583334" lon="9.911674534246467"><ele>182.33333333333331</ele><time>2026-05-03T07:17:02.897Z</time></trkpt><trkpt lat="44.34010746272654" lon="9.91177204336768"><ele>182.66666666666666</ele><time>2026-05-03T07:17:03.897Z</time></trkpt><trkpt lat="44.339952594231896" lon="9.91188090560769"><ele>183.0</ele><time>2026-05-03T07:17:04.897Z</time></trkpt><trkpt lat="44.339799485980414" lon="9.911998758549249"><ele>182.0</ele><time>2026-05-03T07:17:05.897Z</time></trkpt><trkpt lat="44.3396502701984" lon="9.912121201973715"><ele>181.0</ele><time>2026-05-03T07:17:06.897Z</time></trkpt><trkpt lat="44.33950557492807" lon="9.912250582154298"><ele>180.0</ele><time>2026-05-03T07:17:07.896Z</time></trkpt><trkpt lat="44.33936332128442" lon="9.912388125862888"><ele>180.0</ele><time>2026-05-03T07:17:08.896Z</time></trkpt><trkpt lat="44.339223863997994" lon="9.912528506956528"><ele>180.0</ele><time>2026-05-03T07:17:09.896Z</time></trkpt><trkpt lat="44.339095856275" lon="9.912694277544581"><ele>180.0</ele><time>2026-05-03T07:17:10.896Z</time></trkpt><trkpt lat="44.33897771508159" lon="9.91287431195774"><ele>178.33333333333334</ele><time>2026-05-03T07:17:11.895Z</time></trkpt><trkpt lat="44.33886503894652" lon="9.913086004942956"><ele>176.66666666666669</ele><time>2026-05-03T07:17:12.895Z</time></trkpt><trkpt lat="44.338757391817786" lon="9.913305453047496"><ele>175.0</ele><time>2026-05-03T07:17:13.895Z</time></trkpt><trkpt lat="44.33864032251601" lon="9.913518264962033"><ele>175.0</ele><time>2026-05-03T07:17:14.896Z</time></trkpt><trkpt lat="44.338522850880146" lon="9.913733327599651"><ele>175.0</ele><time>2026-05-03T07:17:15.896Z</time></trkpt><trkpt lat="44.33840398691706" lon="9.913944876626582"><ele>175.0</ele><time>2026-05-03T07:17:16.895Z</time></trkpt><trkpt lat="44.33828024298353" lon="9.914156129865129"><ele>174.66666666666669</ele><time>2026-05-03T07:17:17.896Z</time></trkpt><trkpt lat="44.33816520526698" lon="9.914370427188464"><ele>174.33333333333334</ele><time>2026-05-03T07:17:18.895Z</time></trkpt><trkpt lat="44.338044926771246" lon="9.914585043733734"><ele>174.0</ele><time>2026-05-03T07:17:19.896Z</time></trkpt><trkpt lat="44.337923330528966" lon="9.914800970143368"><ele>172.66666666666666</ele><time>2026-05-03T07:17:20.896Z</time></trkpt><trkpt lat="44.3378039325084" lon="9.915023583903592"><ele>171.33333333333331</ele><time>2026-05-03T07:17:21.896Z</time></trkpt><trkpt lat="44.33768361235777" lon="9.915240391729544"><ele>170.0</ele><time>2026-05-03T07:17:22.896Z</time></trkpt><trkpt lat="44.337563248418896" lon="9.915454397890821"><ele>169.66666666666666</ele><time>2026-05-03T07:17:23.896Z</time></trkpt><trkpt lat="44.33744192252575" lon="9.915674644602271"><ele>169.33333333333334</ele><time>2026-05-03T07:17:24.896Z</time></trkpt><trkpt lat="44.33732254232415" lon="9.915894326955213"><ele>169.0</ele><time>2026-05-03T07:17:25.896Z</time></trkpt><trkpt lat="44.33720885481756" lon="9.916113691048645"><ele>168.0</ele><time>2026-05-03T07:17:26.896Z</time></trkpt><trkpt lat="44.33710383164943" lon="9.916341890458362"><ele>167.0</ele><time>2026-05-03T07:17:27.896Z</time></trkpt><trkpt lat="44.33701220554175" lon="9.916578444467909"><ele>166.0</ele><time>2026-05-03T07:17:28.896Z</time></trkpt><trkpt lat="44.33693090850744" lon="9.916824378350315"><ele>165.66666666666669</ele><time>2026-05-03T07:17:29.896Z</time></trkpt><trkpt lat="44.33685114381683" lon="9.91707224052956"><ele>165.33333333333334</ele><time>2026-05-03T07:17:30.896Z</time></trkpt><trkpt lat="44.33677015283176" lon="9.9173172671024"><ele>165.0</ele><time>2026-05-03T07:17:31.896Z</time></trkpt><trkpt lat="44.33668749764757" lon="9.91756750463706"><ele>164.66666666666666</ele><time>2026-05-03T07:17:32.896Z</time></trkpt><trkpt lat="44.33660296878886" lon="9.917815911797879"><ele>164.33333333333331</ele><time>2026-05-03T07:17:33.896Z</time></trkpt><trkpt lat="44.33652151017169" lon="9.918059972013177"><ele>164.0</ele><time>2026-05-03T07:17:34.896Z</time></trkpt><trkpt lat="44.336440131467405" lon="9.91830686772207"><ele>163.66666666666666</ele><time>2026-05-03T07:17:35.896Z</time></trkpt><trkpt lat="44.33635722266475" lon="9.918552855488379"><ele>163.33333333333334</ele><time>2026-05-03T07:17:36.896Z</time></trkpt><trkpt lat="44.336273274998405" lon="9.918800415336618"><ele>163.0</ele><time>2026-05-03T07:17:37.896Z</time></trkpt><trkpt lat="44.33618968203569" lon="9.919048967357067"><ele>163.0</ele><time>2026-05-03T07:17:38.895Z</time></trkpt><trkpt lat="44.33610607405358" lon="9.919298252144573"><ele>163.0</ele><time>2026-05-03T07:17:39.895Z</time></trkpt><trkpt lat="44.336021177576384" lon="9.919549813996221"><ele>163.0</ele><time>2026-05-03T07:17:40.895Z</time></trkpt><trkpt lat="44.33594084919944" lon="9.91979286090476"><ele>163.0</ele><time>2026-05-03T07:17:41.895Z</time></trkpt><trkpt lat="44.335860688137814" lon="9.92003582856422"><ele>163.0</ele><time>2026-05-03T07:17:42.895Z</time></trkpt><trkpt lat="44.33577649002389" lon="9.920273838835843"><ele>163.0</ele><time>2026-05-03T07:17:43.895Z</time></trkpt><trkpt lat="44.335685443146716" lon="9.920506584529054"><ele>163.33333333333334</ele><time>2026-05-03T07:17:44.895Z</time></trkpt><trkpt lat="44.335585074928346" lon="9.920732590717806"><ele>163.66666666666666</ele><time>2026-05-03T07:17:45.895Z</time></trkpt><trkpt lat="44.33547921163842" lon="9.92094917985482"><ele>164.0</ele><time>2026-05-03T07:17:46.895Z</time></trkpt><trkpt lat="44.33536608499853" lon="9.921158910659713"><ele>164.0</ele><time>2026-05-03T07:17:47.895Z</time></trkpt><trkpt lat="44.3352455460796" lon="9.921362946025232"><ele>164.0</ele><time>2026-05-03T07:17:48.895Z</time></trkpt><trkpt lat="44.3351187560678" lon="9.921569175013463"><ele>164.0</ele><time>2026-05-03T07:17:49.895Z</time></trkpt><trkpt lat="44.33498595856984" lon="9.92178340218814"><ele>164.0</ele><time>2026-05-03T07:17:50.895Z</time></trkpt><trkpt lat="44.334848991528425" lon="9.921999228038015"><ele>164.0</ele><time>2026-05-03T07:17:51.895Z</time></trkpt><trkpt lat="44.334712300076966" lon="9.922213831484184"><ele>164.0</ele><time>2026-05-03T07:17:52.895Z</time></trkpt><trkpt lat="44.334578668988264" lon="9.922431954744654"><ele>164.0</ele><time>2026-05-03T07:17:53.895Z</time></trkpt><trkpt lat="44.334449584483785" lon="9.922640453180989"><ele>164.0</ele><time>2026-05-03T07:17:54.895Z</time></trkpt><trkpt lat="44.334332975444575" lon="9.922838503632846"><ele>164.0</ele><time>2026-05-03T07:17:55.895Z</time></trkpt><trkpt lat="44.33421619063799" lon="9.923013252047069"><ele>164.0</ele><time>2026-05-03T07:17:56.895Z</time></trkpt><trkpt lat="44.334091750460814" lon="9.923171646272019"><ele>164.0</ele><time>2026-05-03T07:17:57.895Z</time></trkpt><trkpt lat="44.33396428313091" lon="9.923318983877383"><ele>164.0</ele><time>2026-05-03T07:17:58.895Z</time></trkpt><trkpt lat="44.33384104806372" lon="9.923470928713888"><ele>162.66666666666666</ele><time>2026-05-03T07:17:59.895Z</time></trkpt><trkpt lat="44.33374380421598" lon="9.923649967486782"><ele>161.33333333333334</ele><time>2026-05-03T07:18:00.895Z</time></trkpt><trkpt lat="44.3336789307806" lon="9.923870000292382"><ele>160.0</ele><time>2026-05-03T07:18:01.895Z</time></trkpt><trkpt lat="44.33361251764574" lon="9.924109754619181"><ele>159.33333333333334</ele><time>2026-05-03T07:18:02.895Z</time></trkpt><trkpt lat="44.33352880143741" lon="9.92434821103502"><ele>158.66666666666666</ele><time>2026-05-03T07:18:03.895Z</time></trkpt><trkpt lat="44.33343960665365" lon="9.924579199570752"><ele>158.0</ele><time>2026-05-03T07:18:04.895Z</time></trkpt><trkpt lat="44.33334116458356" lon="9.924805601813793"><ele>158.0</ele><time>2026-05-03T07:18:05.895Z</time></trkpt><trkpt lat="44.33324973329431" lon="9.925029002330291"><ele>158.0</ele><time>2026-05-03T07:18:06.895Z</time></trkpt><trkpt lat="44.333172762884054" lon="9.925250738518379"><ele>158.0</ele><time>2026-05-03T07:18:07.895Z</time></trkpt><trkpt lat="44.333115821447095" lon="9.925475985893392"><ele>158.66666666666666</ele><time>2026-05-03T07:18:08.895Z</time></trkpt><trkpt lat="44.33307634238841" lon="9.925704151427977"><ele>159.33333333333334</ele><time>2026-05-03T07:18:09.895Z</time></trkpt><trkpt lat="44.33306084858639" lon="9.92594339235959"><ele>160.0</ele><time>2026-05-03T07:18:10.895Z</time></trkpt><trkpt lat="44.33305692957088" lon="9.926190417814492"><ele>158.66666666666669</ele><time>2026-05-03T07:18:11.895Z</time></trkpt><trkpt lat="44.33305140724867" lon="9.926438993191294"><ele>157.33333333333334</ele><time>2026-05-03T07:18:12.895Z</time></trkpt><trkpt lat="44.33304401901329" lon="9.926684574201875"><ele>156.0</ele><time>2026-05-03T07:18:13.895Z</time></trkpt><trkpt lat="44.333034060629345" lon="9.926922222839751"><ele>156.0</ele><time>2026-05-03T07:18:14.895Z</time></trkpt><trkpt lat="44.33302332745656" lon="9.927149405850324"><ele>156.0</ele><time>2026-05-03T07:18:15.895Z</time></trkpt><trkpt lat="44.333001198051775" lon="9.927375051949978"><ele>156.0</ele><time>2026-05-03T07:18:16.895Z</time></trkpt><trkpt lat="44.332947836110776" lon="9.927597110353192"><ele>156.66666666666666</ele><time>2026-05-03T07:18:17.895Z</time></trkpt><trkpt lat="44.33286743316252" lon="9.927814887638533"><ele>157.33333333333331</ele><time>2026-05-03T07:18:18.895Z</time></trkpt><trkpt lat="44.33278146013271" lon="9.92803627922213"><ele>158.0</ele><time>2026-05-03T07:18:19.895Z</time></trkpt><trkpt lat="44.33269718171495" lon="9.928262265593435"><ele>158.33333333333331</ele><time>2026-05-03T07:18:20.895Z</time></trkpt><trkpt lat="44.33261305976379" lon="9.928491286799423"><ele>158.66666666666666</ele><time>2026-05-03T07:18:21.895Z</time></trkpt><trkpt lat="44.3325247354496" lon="9.92871800924152"><ele>159.0</ele><time>2026-05-03T07:18:22.895Z</time></trkpt><trkpt lat="44.33243734255652" lon="9.928937514910112"><ele>159.0</ele><time>2026-05-03T07:18:23.895Z</time></trkpt><trkpt lat="44.33235068634915" lon="9.929144418265519"><ele>159.0</ele><time>2026-05-03T07:18:24.895Z</time></trkpt><trkpt lat="44.332265149603" lon="9.929330448218652"><ele>159.0</ele><time>2026-05-03T07:18:25.895Z</time></trkpt><trkpt lat="44.332182092714284" lon="9.929502497013564"><ele>158.0</ele><time>2026-05-03T07:18:26.895Z</time></trkpt><trkpt lat="44.33210414696876" lon="9.9296663885443"><ele>157.0</ele><time>2026-05-03T07:18:27.895Z</time></trkpt><trkpt lat="44.332032559308566" lon="9.929800867974446"><ele>156.0</ele><time>2026-05-03T07:18:28.895Z</time></trkpt><trkpt lat="44.33198028916427" lon="9.929902838828669"><ele>155.0</ele><time>2026-05-03T07:18:29.895Z</time></trkpt><trkpt lat="44.33191982488471" lon="9.929996743517583"><ele>154.0</ele><time>2026-05-03T07:18:34.895Z</time></trkpt><trkpt lat="44.331838594085596" lon="9.93015251654629"><ele>154.0</ele><time>2026-05-03T07:18:36.895Z</time></trkpt><trkpt lat="44.33179809901875" lon="9.930265746795639"><ele>154.0</ele><time>2026-05-03T07:18:37.895Z</time></trkpt><trkpt lat="44.331744210326285" lon="9.930417150453524"><ele>154.0</ele><time>2026-05-03T07:18:38.895Z</time></trkpt><trkpt lat="44.33168228446947" lon="9.930561485095685"><ele>154.0</ele><time>2026-05-03T07:18:39.895Z</time></trkpt><trkpt lat="44.331621388899606" lon="9.93070230712905"><ele>154.0</ele><time>2026-05-03T07:18:40.895Z</time></trkpt><trkpt lat="44.331547987099164" lon="9.930849124496477"><ele>154.0</ele><time>2026-05-03T07:18:41.895Z</time></trkpt><trkpt lat="44.331467312599194" lon="9.931034650137693"><ele>154.0</ele><time>2026-05-03T07:18:42.895Z</time></trkpt><trkpt lat="44.33136805743562" lon="9.931221874804285"><ele>154.0</ele><time>2026-05-03T07:18:43.895Z</time></trkpt><trkpt lat="44.33126811859531" lon="9.931426022381196"><ele>154.0</ele><time>2026-05-03T07:18:44.895Z</time></trkpt><trkpt lat="44.33116882433642" lon="9.931642309502992"><ele>154.0</ele><time>2026-05-03T07:18:45.895Z</time></trkpt><trkpt lat="44.331060532728124" lon="9.931860550913914"><ele>154.33333333333334</ele><time>2026-05-03T07:18:46.895Z</time></trkpt><trkpt lat="44.330951132321395" lon="9.932082887012337"><ele>154.66666666666666</ele><time>2026-05-03T07:18:47.895Z</time></trkpt><trkpt lat="44.33084545445444" lon="9.932311254407852"><ele>155.0</ele><time>2026-05-03T07:18:48.894Z</time></trkpt><trkpt lat="44.33073990245886" lon="9.932538223759472"><ele>154.66666666666666</ele><time>2026-05-03T07:18:49.894Z</time></trkpt><trkpt lat="44.33063358057153" lon="9.932764310640117"><ele>154.33333333333334</ele><time>2026-05-03T07:18:50.894Z</time></trkpt><trkpt lat="44.33052492719908" lon="9.932984484298375"><ele>154.0</ele><time>2026-05-03T07:18:51.894Z</time></trkpt><trkpt lat="44.33041439317535" lon="9.933206883727943"><ele>154.66666666666669</ele><time>2026-05-03T07:18:52.894Z</time></trkpt><trkpt lat="44.33030457556465" lon="9.933441786788313"><ele>155.33333333333334</ele><time>2026-05-03T07:18:53.894Z</time></trkpt><trkpt lat="44.3301959618511" lon="9.93367799826306"><ele>156.0</ele><time>2026-05-03T07:18:54.894Z</time></trkpt><trkpt lat="44.33008520840042" lon="9.933918149845274"><ele>156.0</ele><time>2026-05-03T07:18:55.894Z</time></trkpt><trkpt lat="44.329969501789826" lon="9.934157686383315"><ele>156.0</ele><time>2026-05-03T07:18:56.894Z</time></trkpt><trkpt lat="44.32984736893831" lon="9.934398740415142"><ele>156.0</ele><time>2026-05-03T07:18:57.894Z</time></trkpt><trkpt lat="44.32972505612632" lon="9.934645729384178"><ele>155.0</ele><time>2026-05-03T07:18:58.894Z</time></trkpt><trkpt lat="44.32958895820072" lon="9.934893492178619"><ele>154.0</ele><time>2026-05-03T07:18:59.894Z</time></trkpt><trkpt lat="44.32944735048268" lon="9.935138228657765"><ele>153.0</ele><time>2026-05-03T07:19:00.894Z</time></trkpt><trkpt lat="44.32930520386537" lon="9.935385132223228"><ele>153.0</ele><time>2026-05-03T07:19:01.894Z</time></trkpt><trkpt lat="44.32916814844021" lon="9.935628717865653"><ele>153.0</ele><time>2026-05-03T07:19:02.894Z</time></trkpt><trkpt lat="44.32903153636554" lon="9.935866541032096"><ele>153.0</ele><time>2026-05-03T07:19:03.894Z</time></trkpt><trkpt lat="44.3288950744044" lon="9.936106425532088"><ele>152.66666666666666</ele><time>2026-05-03T07:19:04.894Z</time></trkpt><trkpt lat="44.32876192234083" lon="9.936345090441412"><ele>152.33333333333331</ele><time>2026-05-03T07:19:05.894Z</time></trkpt><trkpt lat="44.32863166954981" lon="9.936578032654301"><ele>152.0</ele><time>2026-05-03T07:19:06.894Z</time></trkpt><trkpt lat="44.328502184667194" lon="9.936811101257536"><ele>152.66666666666666</ele><time>2026-05-03T07:19:07.894Z</time></trkpt><trkpt lat="44.32836989750856" lon="9.937036778185124"><ele>153.33333333333334</ele><time>2026-05-03T07:19:08.894Z</time></trkpt><trkpt lat="44.328240254565266" lon="9.937263206537729"><ele>154.0</ele><time>2026-05-03T07:19:09.894Z</time></trkpt><trkpt lat="44.32811667269653" lon="9.937489512823324"><ele>153.33333333333334</ele><time>2026-05-03T07:19:10.894Z</time></trkpt><trkpt lat="44.32799379048015" lon="9.937712521367212"><ele>152.66666666666666</ele><time>2026-05-03T07:19:11.894Z</time></trkpt><trkpt lat="44.32787319967099" lon="9.937927815640197"><ele>152.0</ele><time>2026-05-03T07:19:12.894Z</time></trkpt><trkpt lat="44.32775438137183" lon="9.93813156098853"><ele>152.0</ele><time>2026-05-03T07:19:13.892Z</time></trkpt><trkpt lat="44.32764329717397" lon="9.938319139549352"><ele>152.0</ele><time>2026-05-03T07:19:14.892Z</time></trkpt><trkpt lat="44.32753048481669" lon="9.938502980719885"><ele>152.0</ele><time>2026-05-03T07:19:15.892Z</time></trkpt><trkpt lat="44.32740220288368" lon="9.938664469113071"><ele>151.66666666666666</ele><time>2026-05-03T07:19:16.892Z</time></trkpt><trkpt lat="44.32724873970071" lon="9.938809295354387"><ele>151.33333333333334</ele><time>2026-05-03T07:19:17.892Z</time></trkpt><trkpt lat="44.32707881442057" lon="9.93893809438054"><ele>151.0</ele><time>2026-05-03T07:19:18.892Z</time></trkpt><trkpt lat="44.32688825992185" lon="9.939037841818346"><ele>151.0</ele><time>2026-05-03T07:19:19.892Z</time></trkpt><trkpt lat="44.32669112417614" lon="9.939124276872498"><ele>151.0</ele><time>2026-05-03T07:19:20.892Z</time></trkpt><trkpt lat="44.32648818827482" lon="9.93923341832645"><ele>151.0</ele><time>2026-05-03T07:19:21.892Z</time></trkpt><trkpt lat="44.32628281751121" lon="9.93934840160325"><ele>152.5</ele><time>2026-05-03T07:19:22.892Z</time></trkpt><trkpt lat="44.32607332860604" lon="9.939471715468974"><ele>154.0</ele><time>2026-05-03T07:19:23.892Z</time></trkpt><trkpt lat="44.32586267592843" lon="9.939592157248729"><ele>154.0</ele><time>2026-05-03T07:19:24.892Z</time></trkpt><trkpt lat="44.3256448659867" lon="9.939715278604895"><ele>154.0</ele><time>2026-05-03T07:19:25.892Z</time></trkpt><trkpt lat="44.32542086349192" lon="9.939841428449947"><ele>153.5</ele><time>2026-05-03T07:19:26.892Z</time></trkpt><trkpt lat="44.32519448345368" lon="9.939963142449667"><ele>153.0</ele><time>2026-05-03T07:19:27.892Z</time></trkpt><trkpt lat="44.324962621035915" lon="9.940089998831635"><ele>149.5</ele><time>2026-05-03T07:19:28.892Z</time></trkpt><trkpt lat="44.324728953007764" lon="9.940202630979552"><ele>146.0</ele><time>2026-05-03T07:19:29.892Z</time></trkpt><trkpt lat="44.32450414504727" lon="9.94030285388126"><ele>146.0</ele><time>2026-05-03T07:19:30.892Z</time></trkpt><trkpt lat="44.324281607530665" lon="9.940406900738564"><ele>146.0</ele><time>2026-05-03T07:19:31.892Z</time></trkpt><trkpt lat="44.32407295042389" lon="9.94050786974582"><ele>146.0</ele><time>2026-05-03T07:19:32.892Z</time></trkpt><trkpt lat="44.32387159042772" lon="9.940599689823438"><ele>146.0</ele><time>2026-05-03T07:19:33.892Z</time></trkpt><trkpt lat="44.32369008128229" lon="9.940689622060173"><ele>146.0</ele><time>2026-05-03T07:19:34.892Z</time></trkpt><trkpt lat="44.32351625594394" lon="9.94077101397784"><ele>146.0</ele><time>2026-05-03T07:19:35.892Z</time></trkpt><trkpt lat="44.32334655966698" lon="9.940850026803078"><ele>146.0</ele><time>2026-05-03T07:19:36.892Z</time></trkpt><trkpt lat="44.323193118643474" lon="9.940923914279065"><ele>146.0</ele><time>2026-05-03T07:19:37.892Z</time></trkpt><trkpt lat="44.3230461670028" lon="9.940978694696184"><ele>145.5</ele><time>2026-05-03T07:19:38.892Z</time></trkpt><trkpt lat="44.322908332183985" lon="9.941044607265143"><ele>145.0</ele><time>2026-05-03T07:19:39.892Z</time></trkpt><trkpt lat="44.32278000926418" lon="9.941114807091049"><ele>144.5</ele><time>2026-05-03T07:19:40.892Z</time></trkpt><trkpt lat="44.322648749084514" lon="9.941175935775385"><ele>144.0</ele><time>2026-05-03T07:19:41.892Z</time></trkpt><trkpt lat="44.32251593797077" lon="9.941238155786245"><ele>144.0</ele><time>2026-05-03T07:19:42.892Z</time></trkpt><trkpt lat="44.32238392253872" lon="9.941303613095647"><ele>144.0</ele><time>2026-05-03T07:19:43.892Z</time></trkpt><trkpt lat="44.32225230595932" lon="9.941369077762973"><ele>144.0</ele><time>2026-05-03T07:19:44.892Z</time></trkpt><trkpt lat="44.322118647394426" lon="9.941434310126775"><ele>144.0</ele><time>2026-05-03T07:19:45.892Z</time></trkpt><trkpt lat="44.32198413458624" lon="9.941497604264061"><ele>143.66666666666666</ele><time>2026-05-03T07:19:46.892Z</time></trkpt><trkpt lat="44.32185016961572" lon="9.9415634678422"><ele>143.33333333333331</ele><time>2026-05-03T07:19:47.892Z</time></trkpt><trkpt lat="44.321704225479785" lon="9.941636329636452"><ele>143.0</ele><time>2026-05-03T07:19:48.892Z</time></trkpt><trkpt lat="44.3215389628714" lon="9.941718792595573"><ele>142.66666666666666</ele><time>2026-05-03T07:19:49.892Z</time></trkpt><trkpt lat="44.321349119325745" lon="9.941816505708045"><ele>142.33333333333334</ele><time>2026-05-03T07:19:50.892Z</time></trkpt><trkpt lat="44.321163759837" lon="9.941905992831853"><ele>142.0</ele><time>2026-05-03T07:19:51.892Z</time></trkpt><trkpt lat="44.32098561100045" lon="9.941980416953603"><ele>142.0</ele><time>2026-05-03T07:19:52.892Z</time></trkpt><trkpt lat="44.32082213333203" lon="9.942048257105931"><ele>142.0</ele><time>2026-05-03T07:19:53.892Z</time></trkpt><trkpt lat="44.32067559507578" lon="9.942113045256804"><ele>142.0</ele><time>2026-05-03T07:19:54.892Z</time></trkpt><trkpt lat="44.32053621853213" lon="9.942176231204561"><ele>142.0</ele><time>2026-05-03T07:19:55.892Z</time></trkpt><trkpt lat="44.32039948612893" lon="9.942247247802356"><ele>142.0</ele><time>2026-05-03T07:19:56.892Z</time></trkpt><trkpt lat="44.32027074568099" lon="9.94230655473099"><ele>142.0</ele><time>2026-05-03T07:19:57.892Z</time></trkpt><trkpt lat="44.32014584789391" lon="9.942367449448785"><ele>142.0</ele><time>2026-05-03T07:19:58.892Z</time></trkpt><trkpt lat="44.320015354529" lon="9.942426407718292"><ele>142.0</ele><time>2026-05-03T07:19:59.892Z</time></trkpt><trkpt lat="44.31988057190741" lon="9.942484182813596"><ele>142.0</ele><time>2026-05-03T07:20:00.892Z</time></trkpt><trkpt lat="44.3197399904463" lon="9.942553424407668"><ele>142.0</ele><time>2026-05-03T07:20:01.892Z</time></trkpt><trkpt lat="44.319581222984446" lon="9.942630266091648"><ele>142.0</ele><time>2026-05-03T07:20:02.892Z</time></trkpt><trkpt lat="44.31939825721644" lon="9.942731164442115"><ele>142.0</ele><time>2026-05-03T07:20:03.892Z</time></trkpt><trkpt lat="44.3191994991704" lon="9.942824904423516"><ele>142.0</ele><time>2026-05-03T07:20:04.892Z</time></trkpt><trkpt lat="44.31899816977183" lon="9.942914728059257"><ele>141.66666666666669</ele><time>2026-05-03T07:20:05.892Z</time></trkpt><trkpt lat="44.31878734562607" lon="9.943006121657747"><ele>141.33333333333334</ele><time>2026-05-03T07:20:06.892Z</time></trkpt><trkpt lat="44.31857516157166" lon="9.943099165103192"><ele>141.0</ele><time>2026-05-03T07:20:07.892Z</time></trkpt><trkpt lat="44.31835879070708" lon="9.943195818504574"><ele>141.0</ele><time>2026-05-03T07:20:08.892Z</time></trkpt><trkpt lat="44.31813554909033" lon="9.94330075886722"><ele>141.0</ele><time>2026-05-03T07:20:09.892Z</time></trkpt><trkpt lat="44.31790946718924" lon="9.94340932401975"><ele>141.0</ele><time>2026-05-03T07:20:10.891Z</time></trkpt><trkpt lat="44.31768115472415" lon="9.943516873698249"><ele>141.0</ele><time>2026-05-03T07:20:11.891Z</time></trkpt><trkpt lat="44.31744781097861" lon="9.94362137307809"><ele>139.5</ele><time>2026-05-03T07:20:12.891Z</time></trkpt><trkpt lat="44.31721929515732" lon="9.943736750350798"><ele>138.0</ele><time>2026-05-03T07:20:13.891Z</time></trkpt><trkpt lat="44.316986883287626" lon="9.943846715475154"><ele>138.0</ele><time>2026-05-03T07:20:14.891Z</time></trkpt><trkpt lat="44.316751097052126" lon="9.943951291971766"><ele>138.0</ele><time>2026-05-03T07:20:15.891Z</time></trkpt><trkpt lat="44.31652150634978" lon="9.944060329387407"><ele>138.5</ele><time>2026-05-03T07:20:16.891Z</time></trkpt><trkpt lat="44.316288980562966" lon="9.944164776326867"><ele>139.0</ele><time>2026-05-03T07:20:17.891Z</time></trkpt><trkpt lat="44.31607815458135" lon="9.944257138063428"><ele>139.0</ele><time>2026-05-03T07:20:18.891Z</time></trkpt><trkpt lat="44.31587734149307" lon="9.944339641813219"><ele>139.0</ele><time>2026-05-03T07:20:19.891Z</time></trkpt><trkpt lat="44.315681375278345" lon="9.944417172657797"><ele>139.0</ele><time>2026-05-03T07:20:20.891Z</time></trkpt><trkpt lat="44.31549140548701" lon="9.944500064008484"><ele>138.33333333333334</ele><time>2026-05-03T07:20:21.891Z</time></trkpt><trkpt lat="44.31529376685168" lon="9.944585483778619"><ele>137.66666666666666</ele><time>2026-05-03T07:20:22.891Z</time></trkpt><trkpt lat="44.315089489546104" lon="9.944676314126022"><ele>137.0</ele><time>2026-05-03T07:20:23.891Z</time></trkpt><trkpt lat="44.31488306419117" lon="9.944770581983752"><ele>136.66666666666666</ele><time>2026-05-03T07:20:24.891Z</time></trkpt><trkpt lat="44.31467420844211" lon="9.944860543983458"><ele>136.33333333333334</ele><time>2026-05-03T07:20:25.891Z</time></trkpt><trkpt lat="44.314462885896376" lon="9.944952046564596"><ele>136.0</ele><time>2026-05-03T07:20:26.891Z</time></trkpt><trkpt lat="44.31425003982584" lon="9.945043880541991"><ele>137.5</ele><time>2026-05-03T07:20:27.891Z</time></trkpt><trkpt lat="44.31403412537954" lon="9.945139022639397"><ele>139.0</ele><time>2026-05-03T07:20:28.891Z</time></trkpt><trkpt lat="44.31382027911307" lon="9.945237151994103"><ele>139.5</ele><time>2026-05-03T07:20:29.891Z</time></trkpt><trkpt lat="44.313604128972706" lon="9.945329539598756"><ele>140.0</ele><time>2026-05-03T07:20:30.891Z</time></trkpt><trkpt lat="44.313388600776534" lon="9.945419033207594"><ele>140.0</ele><time>2026-05-03T07:20:31.891Z</time></trkpt><trkpt lat="44.31317585935709" lon="9.945504581099259"><ele>140.0</ele><time>2026-05-03T07:20:32.891Z</time></trkpt><trkpt lat="44.312962117553354" lon="9.94559269754704"><ele>140.0</ele><time>2026-05-03T07:20:33.891Z</time></trkpt><trkpt lat="44.31274463205271" lon="9.945683183689455"><ele>140.0</ele><time>2026-05-03T07:20:34.891Z</time></trkpt><trkpt lat="44.31253355898597" lon="9.945771579600901"><ele>140.0</ele><time>2026-05-03T07:20:35.891Z</time></trkpt><trkpt lat="44.31233510623508" lon="9.945859578742677"><ele>140.0</ele><time>2026-05-03T07:20:36.891Z</time></trkpt><trkpt lat="44.312147749537324" lon="9.945948694568344"><ele>140.0</ele><time>2026-05-03T07:20:37.891Z</time></trkpt><trkpt lat="44.311963494142574" lon="9.946030835056318"><ele>140.0</ele><time>2026-05-03T07:20:38.891Z</time></trkpt><trkpt lat="44.31178665660397" lon="9.946122910878"><ele>140.0</ele><time>2026-05-03T07:20:39.891Z</time></trkpt><trkpt lat="44.31162536079158" lon="9.946242787414203"><ele>140.0</ele><time>2026-05-03T07:20:40.891Z</time></trkpt><trkpt lat="44.31147440090613" lon="9.946391113523372"><ele>140.0</ele><time>2026-05-03T07:20:41.891Z</time></trkpt><trkpt lat="44.311337091949" lon="9.946521568196498"><ele>140.0</ele><time>2026-05-03T07:20:42.891Z</time></trkpt><trkpt lat="44.31119776191823" lon="9.946628336200604"><ele>140.0</ele><time>2026-05-03T07:20:43.891Z</time></trkpt><trkpt lat="44.31104815960883" lon="9.94670060693932"><ele>140.0</ele><time>2026-05-03T07:20:44.891Z</time></trkpt><trkpt lat="44.31086996024145" lon="9.946734509312458"><ele>140.0</ele><time>2026-05-03T07:20:45.891Z</time></trkpt><trkpt lat="44.310685045908784" lon="9.946721205509537"><ele>140.66666666666666</ele><time>2026-05-03T07:20:46.891Z</time></trkpt><trkpt lat="44.31049443103543" lon="9.946674819459062"><ele>141.33333333333334</ele><time>2026-05-03T07:20:47.891Z</time></trkpt><trkpt lat="44.3103021036453" lon="9.946629773427755"><ele>142.0</ele><time>2026-05-03T07:20:48.891Z</time></trkpt><trkpt lat="44.31009599402163" lon="9.946580549999233"><ele>142.0</ele><time>2026-05-03T07:20:49.891Z</time></trkpt><trkpt lat="44.30988602240088" lon="9.946543822544916"><ele>142.0</ele><time>2026-05-03T07:20:50.891Z</time></trkpt><trkpt lat="44.309673252914315" lon="9.94651283391024"><ele>142.0</ele><time>2026-05-03T07:20:51.891Z</time></trkpt><trkpt lat="44.30946024891525" lon="9.946483335557504"><ele>142.0</ele><time>2026-05-03T07:20:52.891Z</time></trkpt><trkpt lat="44.309248121740126" lon="9.946453043632138"><ele>142.0</ele><time>2026-05-03T07:20:53.891Z</time></trkpt><trkpt lat="44.30903265109256" lon="9.946433981971623"><ele>142.0</ele><time>2026-05-03T07:20:54.891Z</time></trkpt><trkpt lat="44.30882117804171" lon="9.946443491268413"><ele>142.33333333333334</ele><time>2026-05-03T07:20:55.891Z</time></trkpt><trkpt lat="44.30861167734899" lon="9.946475565525162"><ele>142.66666666666666</ele><time>2026-05-03T07:20:56.891Z</time></trkpt><trkpt lat="44.308399837057436" lon="9.946521244182307"><ele>143.0</ele><time>2026-05-03T07:20:57.891Z</time></trkpt><trkpt lat="44.30818967009984" lon="9.946574652339718"><ele>143.0</ele><time>2026-05-03T07:20:58.891Z</time></trkpt><trkpt lat="44.30797401057225" lon="9.94662406332554"><ele>143.0</ele><time>2026-05-03T07:20:59.891Z</time></trkpt><trkpt lat="44.307761244694305" lon="9.946644400016023"><ele>143.0</ele><time>2026-05-03T07:21:00.891Z</time></trkpt><trkpt lat="44.30754869237049" lon="9.94663963520349"><ele>143.0</ele><time>2026-05-03T07:21:01.891Z</time></trkpt><trkpt lat="44.307340346833094" lon="9.946610398196587"><ele>143.0</ele><time>2026-05-03T07:21:02.891Z</time></trkpt><trkpt lat="44.307135106176666" lon="9.946585074341247"><ele>143.0</ele><time>2026-05-03T07:21:03.891Z</time></trkpt><trkpt lat="44.3069438186623" lon="9.946561819713764"><ele>143.0</ele><time>2026-05-03T07:21:04.891Z</time></trkpt><trkpt lat="44.30677675648814" lon="9.9465435600555"><ele>143.0</ele><time>2026-05-03T07:21:05.891Z</time></trkpt><trkpt lat="44.30662716056581" lon="9.946530284378788"><ele>143.0</ele><time>2026-05-03T07:21:06.891Z</time></trkpt><trkpt lat="44.306488767433706" lon="9.946523453634342"><ele>143.33333333333331</ele><time>2026-05-03T07:21:07.891Z</time></trkpt><trkpt lat="44.306350416530755" lon="9.946539978971291"><ele>143.66666666666666</ele><time>2026-05-03T07:21:08.891Z</time></trkpt><trkpt lat="44.30621194338832" lon="9.946614789576941"><ele>144.0</ele><time>2026-05-03T07:21:09.891Z</time></trkpt><trkpt lat="44.30605800797951" lon="9.946724997268502"><ele>144.66666666666666</ele><time>2026-05-03T07:21:10.891Z</time></trkpt><trkpt lat="44.30589336162523" lon="9.946828602142462"><ele>145.33333333333331</ele><time>2026-05-03T07:21:11.891Z</time></trkpt><trkpt lat="44.305722669186615" lon="9.946928921888489"><ele>146.0</ele><time>2026-05-03T07:21:12.891Z</time></trkpt><trkpt lat="44.305547731186024" lon="9.947022713194293"><ele>146.0</ele><time>2026-05-03T07:21:13.891Z</time></trkpt><trkpt lat="44.30536792203934" lon="9.947106774966922"><ele>146.0</ele><time>2026-05-03T07:21:14.891Z</time></trkpt><trkpt lat="44.3051828983456" lon="9.947174829197975"><ele>146.0</ele><time>2026-05-03T07:21:15.891Z</time></trkpt><trkpt lat="44.30499591746007" lon="9.94721841095188"><ele>146.0</ele><time>2026-05-03T07:21:16.891Z</time></trkpt><trkpt lat="44.304815796985196" lon="9.947256101369252"><ele>146.0</ele><time>2026-05-03T07:21:17.891Z</time></trkpt><trkpt lat="44.30465543555575" lon="9.947294395437092"><ele>146.0</ele><time>2026-05-03T07:21:18.891Z</time></trkpt><trkpt lat="44.30450317303781" lon="9.947331398185412"><ele>145.33333333333331</ele><time>2026-05-03T07:21:19.889Z</time></trkpt><trkpt lat="44.304360930777925" lon="9.947365754117007"><ele>144.66666666666666</ele><time>2026-05-03T07:21:20.889Z</time></trkpt><trkpt lat="44.30421664785698" lon="9.947407726974266"><ele>144.0</ele><time>2026-05-03T07:21:21.889Z</time></trkpt><trkpt lat="44.304061628047776" lon="9.947455924030479"><ele>144.0</ele><time>2026-05-03T07:21:22.889Z</time></trkpt><trkpt lat="44.30389450174107" lon="9.947511114286923"><ele>144.0</ele><time>2026-05-03T07:21:23.889Z</time></trkpt><trkpt lat="44.30371634247646" lon="9.947557728818385"><ele>144.0</ele><time>2026-05-03T07:21:24.889Z</time></trkpt><trkpt lat="44.30353105448827" lon="9.947605928481495"><ele>144.33333333333334</ele><time>2026-05-03T07:21:25.889Z</time></trkpt><trkpt lat="44.30333913651911" lon="9.947655023421843"><ele>144.66666666666669</ele><time>2026-05-03T07:21:26.889Z</time></trkpt><trkpt lat="44.303142708475164" lon="9.947710420107526"><ele>145.0</ele><time>2026-05-03T07:21:27.889Z</time></trkpt><trkpt lat="44.302955564413786" lon="9.947756468616884"><ele>145.0</ele><time>2026-05-03T07:21:28.889Z</time></trkpt><trkpt lat="44.30277196634869" lon="9.947812394087698"><ele>145.0</ele><time>2026-05-03T07:21:29.889Z</time></trkpt><trkpt lat="44.3025963574943" lon="9.947865678827283"><ele>145.0</ele><time>2026-05-03T07:21:30.889Z</time></trkpt><trkpt lat="44.30242697937262" lon="9.947914038491492"><ele>145.0</ele><time>2026-05-03T07:21:31.889Z</time></trkpt><trkpt lat="44.302264766691806" lon="9.947969700552202"><ele>145.0</ele><time>2026-05-03T07:21:32.889Z</time></trkpt><trkpt lat="44.302095879525844" lon="9.948034855978149"><ele>145.0</ele><time>2026-05-03T07:21:33.889Z</time></trkpt><trkpt lat="44.301929957193536" lon="9.948101662587053"><ele>145.33333333333334</ele><time>2026-05-03T07:21:34.889Z</time></trkpt><trkpt lat="44.30176636517864" lon="9.94816636539439"><ele>145.66666666666666</ele><time>2026-05-03T07:21:35.889Z</time></trkpt><trkpt lat="44.30159056422088" lon="9.948238905729262"><ele>146.0</ele><time>2026-05-03T07:21:36.889Z</time></trkpt><trkpt lat="44.3014160185511" lon="9.948306381232191"><ele>144.66666666666666</ele><time>2026-05-03T07:21:37.888Z</time></trkpt><trkpt lat="44.30124615914864" lon="9.948374716230758"><ele>143.33333333333334</ele><time>2026-05-03T07:21:38.888Z</time></trkpt><trkpt lat="44.301077958377185" lon="9.948442254189429"><ele>142.0</ele><time>2026-05-03T07:21:39.888Z</time></trkpt><trkpt lat="44.30091309666973" lon="9.948509261395403"><ele>142.0</ele><time>2026-05-03T07:21:40.888Z</time></trkpt><trkpt lat="44.30074781116386" lon="9.948575043815286"><ele>142.0</ele><time>2026-05-03T07:21:41.888Z</time></trkpt><trkpt lat="44.30058345549601" lon="9.948633981197148"><ele>142.0</ele><time>2026-05-03T07:21:42.888Z</time></trkpt><trkpt lat="44.300422058156265" lon="9.948690295917757"><ele>141.66666666666669</ele><time>2026-05-03T07:21:43.888Z</time></trkpt><trkpt lat="44.30026161275478" lon="9.948742378004107"><ele>141.33333333333334</ele><time>2026-05-03T07:21:44.888Z</time></trkpt><trkpt lat="44.30010174152945" lon="9.948792148163216"><ele>141.0</ele><time>2026-05-03T07:21:45.888Z</time></trkpt><trkpt lat="44.299953302518816" lon="9.948829561168482"><ele>141.0</ele><time>2026-05-03T07:21:46.888Z</time></trkpt><trkpt lat="44.29981472352036" lon="9.948863759538037"><ele>141.0</ele><time>2026-05-03T07:21:47.888Z</time></trkpt><trkpt lat="44.29968758204653" lon="9.948885755770252"><ele>141.0</ele><time>2026-05-03T07:21:48.888Z</time></trkpt><trkpt lat="44.2995690822471" lon="9.948905951226163"><ele>141.0</ele><time>2026-05-03T07:21:49.888Z</time></trkpt><trkpt lat="44.2994449739657" lon="9.948933630045376"><ele>141.25</ele><time>2026-05-03T07:21:50.888Z</time></trkpt><trkpt lat="44.299309715296815" lon="9.948959525058472"><ele>141.5</ele><time>2026-05-03T07:21:51.888Z</time></trkpt><trkpt lat="44.299170303444555" lon="9.948973085496226"><ele>141.75</ele><time>2026-05-03T07:21:52.888Z</time></trkpt><trkpt lat="44.29903142442652" lon="9.948989163156769"><ele>142.0</ele><time>2026-05-03T07:21:53.888Z</time></trkpt><trkpt lat="44.29889609112662" lon="9.949002370474199"><ele>142.25</ele><time>2026-05-03T07:21:54.888Z</time></trkpt><trkpt lat="44.29876539270197" lon="9.949022369955685"><ele>142.5</ele><time>2026-05-03T07:21:55.888Z</time></trkpt><trkpt lat="44.29863139120718" lon="9.949043634227206"><ele>142.75</ele><time>2026-05-03T07:21:56.888Z</time></trkpt><trkpt lat="44.29849689735916" lon="9.949058535922987"><ele>143.0</ele><time>2026-05-03T07:21:57.888Z</time></trkpt><trkpt lat="44.29837426577506" lon="9.94907253531669"><ele>143.0</ele><time>2026-05-03T07:21:58.888Z</time></trkpt><trkpt lat="44.29825976190181" lon="9.949088678727199"><ele>143.0</ele><time>2026-05-03T07:21:59.888Z</time></trkpt><trkpt lat="44.298145592000914" lon="9.949106877316584"><ele>143.0</ele><time>2026-05-03T07:22:00.888Z</time></trkpt><trkpt lat="44.29803972778334" lon="9.949130160204694"><ele>143.0</ele><time>2026-05-03T07:22:01.888Z</time></trkpt><trkpt lat="44.29793899591941" lon="9.949156327931721"><ele>143.0</ele><time>2026-05-03T07:22:02.888Z</time></trkpt><trkpt lat="44.29783658697543" lon="9.949188101101988"><ele>143.16666666666666</ele><time>2026-05-03T07:22:03.888Z</time></trkpt><trkpt lat="44.297740479745286" lon="9.949223597510825"><ele>143.33333333333331</ele><time>2026-05-03T07:22:04.888Z</time></trkpt><trkpt lat="44.29764541008326" lon="9.949255821638346"><ele>143.5</ele><time>2026-05-03T07:22:05.888Z</time></trkpt><trkpt lat="44.29755723773021" lon="9.949289323332273"><ele>143.66666666666666</ele><time>2026-05-03T07:22:06.888Z</time></trkpt><trkpt lat="44.29748029801347" lon="9.949319714241366"><ele>143.83333333333334</ele><time>2026-05-03T07:22:07.888Z</time></trkpt><trkpt lat="44.297414582054024" lon="9.949349087507416"><ele>144.0</ele><time>2026-05-03T07:22:08.888Z</time></trkpt><trkpt lat="44.29734865860618" lon="9.949378626618088"><ele>144.00000000000003</ele><time>2026-05-03T07:22:09.888Z</time></trkpt><trkpt lat="44.297274629976364" lon="9.94941020301716"><ele>144.0</ele><time>2026-05-03T07:22:10.888Z</time></trkpt><trkpt lat="44.2972046256617" lon="9.949433582257157"><ele>144.0</ele><time>2026-05-03T07:22:11.888Z</time></trkpt><trkpt lat="44.297131156606504" lon="9.949463435227937"><ele>144.0</ele><time>2026-05-03T07:22:12.888Z</time></trkpt><trkpt lat="44.297056917683264" lon="9.949494501875026"><ele>144.0</ele><time>2026-05-03T07:22:13.888Z</time></trkpt><trkpt lat="44.296990506193495" lon="9.949520962706343"><ele>144.00000000000003</ele><time>2026-05-03T07:22:14.888Z</time></trkpt><trkpt lat="44.29692141210245" lon="9.949549638553762"><ele>144.0</ele><time>2026-05-03T07:22:15.888Z</time></trkpt><trkpt lat="44.29685496380797" lon="9.949579056460653"><ele>143.66666666666666</ele><time>2026-05-03T07:22:16.888Z</time></trkpt><trkpt lat="44.29678997368437" lon="9.949608649173177"><ele>143.33333333333334</ele><time>2026-05-03T07:22:17.888Z</time></trkpt><trkpt lat="44.296723714961665" lon="9.94964150057881"><ele>143.0</ele><time>2026-05-03T07:22:18.888Z</time></trkpt><trkpt lat="44.296653070359994" lon="9.949676935875017"><ele>142.66666666666669</ele><time>2026-05-03T07:22:19.888Z</time></trkpt><trkpt lat="44.29658191445122" lon="9.94972397980827"><ele>142.33333333333334</ele><time>2026-05-03T07:22:20.888Z</time></trkpt><trkpt lat="44.296509718901724" lon="9.949789584671313"><ele>142.0</ele><time>2026-05-03T07:22:21.888Z</time></trkpt><trkpt lat="44.29643333220137" lon="9.949853438586645"><ele>141.66666666666669</ele><time>2026-05-03T07:22:22.888Z</time></trkpt><trkpt lat="44.29635654532366" lon="9.949924037439972"><ele>141.33333333333334</ele><time>2026-05-03T07:22:23.888Z</time></trkpt><trkpt lat="44.29628559226199" lon="9.950003110340365"><ele>141.0</ele><time>2026-05-03T07:22:24.888Z</time></trkpt><trkpt lat="44.29621368203218" lon="9.95008080611506"><ele>140.66666666666666</ele><time>2026-05-03T07:22:25.888Z</time></trkpt><trkpt lat="44.29615147567939" lon="9.95015088192474"><ele>140.33333333333331</ele><time>2026-05-03T07:22:26.888Z</time></trkpt><trkpt lat="44.29608725333941" lon="9.950221244581368"><ele>140.0</ele><time>2026-05-03T07:22:27.888Z</time></trkpt><trkpt lat="44.29602687769923" lon="9.950287118749634"><ele>140.0</ele><time>2026-05-03T07:22:28.888Z</time></trkpt><trkpt lat="44.29597230058728" lon="9.950336970249518"><ele>140.0</ele><time>2026-05-03T07:22:29.888Z</time></trkpt><trkpt lat="44.29592415943167" lon="9.950395590176168"><ele>140.0</ele><time>2026-05-03T07:22:30.888Z</time></trkpt><trkpt lat="44.29582110992512" lon="9.95049352899192"><ele>140.0</ele><time>2026-05-03T07:22:32.888Z</time></trkpt><trkpt lat="44.295713642792165" lon="9.950561890619761"><ele>140.0</ele><time>2026-05-03T07:22:34.888Z</time></trkpt><trkpt lat="44.29562866877838" lon="9.950608085144486"><ele>139.2</ele><time>2026-05-03T07:22:36.888Z</time></trkpt><trkpt lat="44.29555527849283" lon="9.950641636005113"><ele>138.4</ele><time>2026-05-03T07:22:39.888Z</time></trkpt><trkpt lat="44.2954750586384" lon="9.950666083837653"><ele>137.6</ele><time>2026-05-03T07:22:55.887Z</time></trkpt><trkpt lat="44.29534888015893" lon="9.950711118489982"><ele>136.8</ele><time>2026-05-03T07:22:57.887Z</time></trkpt><trkpt lat="44.29525998538998" lon="9.95074265842815"><ele>136.0</ele><time>2026-05-03T07:22:58.887Z</time></trkpt><trkpt lat="44.29514259507672" lon="9.950783446530972"><ele>136.0</ele><time>2026-05-03T07:22:59.887Z</time></trkpt><trkpt lat="44.29501366551151" lon="9.950840552941441"><ele>136.0</ele><time>2026-05-03T07:23:00.887Z</time></trkpt><trkpt lat="44.29487038081092" lon="9.95089450585742"><ele>136.0</ele><time>2026-05-03T07:23:01.887Z</time></trkpt><trkpt lat="44.29471278213811" lon="9.950951642480579"><ele>136.0</ele><time>2026-05-03T07:23:02.887Z</time></trkpt><trkpt lat="44.294552970969406" lon="9.950999396504292"><ele>135.0</ele><time>2026-05-03T07:23:03.887Z</time></trkpt><trkpt lat="44.29439318810303" lon="9.951051030327356"><ele>134.0</ele><time>2026-05-03T07:23:04.887Z</time></trkpt><trkpt lat="44.294237743424965" lon="9.951107258963413"><ele>133.0</ele><time>2026-05-03T07:23:05.887Z</time></trkpt><trkpt lat="44.29408736493947" lon="9.951159100588816"><ele>133.0</ele><time>2026-05-03T07:23:06.887Z</time></trkpt><trkpt lat="44.29393872225217" lon="9.951211933064807"><ele>133.0</ele><time>2026-05-03T07:23:07.887Z</time></trkpt><trkpt lat="44.293798841375306" lon="9.951265920210647"><ele>133.0</ele><time>2026-05-03T07:23:08.887Z</time></trkpt><trkpt lat="44.29366314374288" lon="9.951318220897635"><ele>133.0</ele><time>2026-05-03T07:23:09.887Z</time></trkpt><trkpt lat="44.293540831599394" lon="9.951359274016255"><ele>132.20000000000002</ele><time>2026-05-03T07:23:10.887Z</time></trkpt><trkpt lat="44.29343277316568" lon="9.95139644561421"><ele>131.4</ele><time>2026-05-03T07:23:11.887Z</time></trkpt><trkpt lat="44.29333213733603" lon="9.951426905421673"><ele>130.60000000000002</ele><time>2026-05-03T07:23:12.887Z</time></trkpt><trkpt lat="44.29324635771942" lon="9.951455652088546"><ele>129.8</ele><time>2026-05-03T07:23:13.887Z</time></trkpt><trkpt lat="44.29316850431742" lon="9.951478820306715"><ele>129.0</ele><time>2026-05-03T07:23:14.887Z</time></trkpt><trkpt lat="44.293101374561246" lon="9.951500730598038"><ele>128.8</ele><time>2026-05-03T07:23:15.887Z</time></trkpt><trkpt lat="44.29300525894607" lon="9.951602481692387"><ele>128.60000000000002</ele><time>2026-05-03T07:23:17.887Z</time></trkpt><trkpt lat="44.29292408899048" lon="9.951683948365188"><ele>128.4</ele><time>2026-05-03T07:23:19.887Z</time></trkpt><trkpt lat="44.292858787993566" lon="9.951711264708859"><ele>128.20000000000002</ele><time>2026-05-03T07:23:22.887Z</time></trkpt><trkpt lat="44.29275027078248" lon="9.951751868991977"><ele>128.0</ele><time>2026-05-03T07:27:15.883Z</time></trkpt><trkpt lat="44.29269474216863" lon="9.951808683443451"><ele>127.83333333333333</ele><time>2026-05-03T07:27:18.883Z</time></trkpt><trkpt lat="44.29262777974005" lon="9.951815171060565"><ele>127.66666666666666</ele><time>2026-05-03T07:27:20.883Z</time></trkpt><trkpt lat="44.29256979198842" lon="9.951772886483289"><ele>127.5</ele><time>2026-05-03T07:27:22.883Z</time></trkpt><trkpt lat="44.292489069832854" lon="9.95171726504522"><ele>127.33333333333334</ele><time>2026-05-03T07:27:24.883Z</time></trkpt><trkpt lat="44.2924115449605" lon="9.951713642929667"><ele>127.16666666666667</ele><time>2026-05-03T07:27:25.883Z</time></trkpt><trkpt lat="44.292327079811145" lon="9.951733928064636"><ele>127.0</ele><time>2026-05-03T07:27:26.883Z</time></trkpt><trkpt lat="44.29224725424579" lon="9.951749052043827"><ele>127.0</ele><time>2026-05-03T07:27:27.883Z</time></trkpt><trkpt lat="44.29215833438856" lon="9.951764453512002"><ele>126.99999999999999</ele><time>2026-05-03T07:27:28.883Z</time></trkpt><trkpt lat="44.2920680372926" lon="9.95177510241067"><ele>126.99999999999999</ele><time>2026-05-03T07:27:29.883Z</time></trkpt><trkpt lat="44.291979092788196" lon="9.951780320579694"><ele>127.0</ele><time>2026-05-03T07:27:30.883Z</time></trkpt><trkpt lat="44.2918893012048" lon="9.951769877121228"><ele>127.0</ele><time>2026-05-03T07:27:31.883Z</time></trkpt><trkpt lat="44.291797925630725" lon="9.95175785737068"><ele>127.0</ele><time>2026-05-03T07:27:32.883Z</time></trkpt><trkpt lat="44.2916941906226" lon="9.951739077332002"><ele>126.99999999999999</ele><time>2026-05-03T07:27:33.883Z</time></trkpt><trkpt lat="44.29157907769594" lon="9.95172249432348"><ele>126.99999999999999</ele><time>2026-05-03T07:27:34.883Z</time></trkpt><trkpt lat="44.291465264226986" lon="9.951705581997762"><ele>127.0</ele><time>2026-05-03T07:27:35.883Z</time></trkpt><trkpt lat="44.29135475879869" lon="9.951681639547028"><ele>127.0</ele><time>2026-05-03T07:27:36.883Z</time></trkpt><trkpt lat="44.291249266634814" lon="9.951657912768978"><ele>128.2</ele><time>2026-05-03T07:27:37.882Z</time></trkpt><trkpt lat="44.29115352963288" lon="9.951635069002856"><ele>129.39999999999998</ele><time>2026-05-03T07:27:38.882Z</time></trkpt><trkpt lat="44.291058219821444" lon="9.95161324844348"><ele>130.60000000000002</ele><time>2026-05-03T07:27:39.882Z</time></trkpt><trkpt lat="44.290961722956766" lon="9.951584736127804"><ele>131.8</ele><time>2026-05-03T07:27:40.883Z</time></trkpt><trkpt lat="44.29086811387101" lon="9.951544652095263"><ele>133.0</ele><time>2026-05-03T07:27:41.882Z</time></trkpt><trkpt lat="44.29077274569673" lon="9.95148119100277"><ele>133.0</ele><time>2026-05-03T07:27:42.882Z</time></trkpt><trkpt lat="44.29068451158373" lon="9.951368571920979"><ele>133.0</ele><time>2026-05-03T07:27:43.882Z</time></trkpt><trkpt lat="44.290609580316854" lon="9.951219499981399"><ele>133.0</ele><time>2026-05-03T07:27:44.882Z</time></trkpt><trkpt lat="44.29055428837885" lon="9.951080636009598"><ele>133.0</ele><time>2026-05-03T07:27:45.882Z</time></trkpt><trkpt lat="44.290507839185025" lon="9.95095320207991"><ele>133.6</ele><time>2026-05-03T07:27:46.882Z</time></trkpt><trkpt lat="44.29046890318112" lon="9.950835584716184"><ele>134.20000000000002</ele><time>2026-05-03T07:27:47.882Z</time></trkpt><trkpt lat="44.29042627241355" lon="9.950726729400436"><ele>134.8</ele><time>2026-05-03T07:27:48.882Z</time></trkpt><trkpt lat="44.290365574942854" lon="9.950624378457135"><ele>135.4</ele><time>2026-05-03T07:27:49.882Z</time></trkpt><trkpt lat="44.29031125310958" lon="9.950506960624585"><ele>136.0</ele><time>2026-05-03T07:27:50.882Z</time></trkpt><trkpt lat="44.29024575250678" lon="9.950387517146428"><ele>136.0</ele><time>2026-05-03T07:27:51.882Z</time></trkpt><trkpt lat="44.290187134119485" lon="9.95025755068588"><ele>136.0</ele><time>2026-05-03T07:27:52.882Z</time></trkpt><trkpt lat="44.29012196230674" lon="9.950128542562444"><ele>136.0</ele><time>2026-05-03T07:27:53.882Z</time></trkpt><trkpt lat="44.29005885485719" lon="9.949999416814626"><ele>136.0</ele><time>2026-05-03T07:27:54.882Z</time></trkpt><trkpt lat="44.28999838820817" lon="9.949863481447453"><ele>136.0</ele><time>2026-05-03T07:27:55.882Z</time></trkpt><trkpt lat="44.289941810477785" lon="9.949727036264512"><ele>135.6</ele><time>2026-05-03T07:27:56.882Z</time></trkpt><trkpt lat="44.28988479038805" lon="9.949594531998557"><ele>135.2</ele><time>2026-05-03T07:27:57.882Z</time></trkpt><trkpt lat="44.28983147033555" lon="9.949460365113076"><ele>134.8</ele><time>2026-05-03T07:27:58.882Z</time></trkpt><trkpt lat="44.28977408764359" lon="9.949335265830367"><ele>134.4</ele><time>2026-05-03T07:27:59.882Z</time></trkpt><trkpt lat="44.289714448906366" lon="9.949214768425593"><ele>134.0</ele><time>2026-05-03T07:28:00.882Z</time></trkpt><trkpt lat="44.28965923104375" lon="9.9490871374939"><ele>134.0</ele><time>2026-05-03T07:28:01.882Z</time></trkpt><trkpt lat="44.289599831587694" lon="9.948952913696807"><ele>134.0</ele><time>2026-05-03T07:28:02.882Z</time></trkpt><trkpt lat="44.289538797702136" lon="9.948808226040375"><ele>134.0</ele><time>2026-05-03T07:28:03.882Z</time></trkpt><trkpt lat="44.289477207270465" lon="9.948644142829792"><ele>134.0</ele><time>2026-05-03T07:28:04.882Z</time></trkpt><trkpt lat="44.289414290439304" lon="9.94848549595906"><ele>132.75</ele><time>2026-05-03T07:28:05.882Z</time></trkpt><trkpt lat="44.28934856596773" lon="9.948343347435062"><ele>131.5</ele><time>2026-05-03T07:28:06.882Z</time></trkpt><trkpt lat="44.28925747839202" lon="9.948217613951767"><ele>130.25</ele><time>2026-05-03T07:28:07.882Z</time></trkpt><trkpt lat="44.2891361945338" lon="9.948097725177028"><ele>129.0</ele><time>2026-05-03T07:28:08.882Z</time></trkpt><trkpt lat="44.28900981830372" lon="9.948010018398103"><ele>131.5</ele><time>2026-05-03T07:28:09.882Z</time></trkpt><trkpt lat="44.288874671010014" lon="9.947966180944704"><ele>134.0</ele><time>2026-05-03T07:28:10.882Z</time></trkpt><trkpt lat="44.288734480995934" lon="9.947969464482432"><ele>136.5</ele><time>2026-05-03T07:28:11.882Z</time></trkpt><trkpt lat="44.28859219342229" lon="9.948000056999284"><ele>139.0</ele><time>2026-05-03T07:28:12.882Z</time></trkpt><trkpt lat="44.28844333632107" lon="9.948050226420293"><ele>139.0</ele><time>2026-05-03T07:28:13.882Z</time></trkpt><trkpt lat="44.288291956196424" lon="9.948115277636335"><ele>139.0</ele><time>2026-05-03T07:28:14.882Z</time></trkpt><trkpt lat="44.288136085000474" lon="9.94818528846262"><ele>139.0</ele><time>2026-05-03T07:28:15.882Z</time></trkpt><trkpt lat="44.28798580334101" lon="9.948252922726219"><ele>136.66666666666669</ele><time>2026-05-03T07:28:16.882Z</time></trkpt><trkpt lat="44.287826745827275" lon="9.94831252067103"><ele>134.33333333333334</ele><time>2026-05-03T07:28:17.882Z</time></trkpt><trkpt lat="44.287668548548034" lon="9.948369839812438"><ele>132.0</ele><time>2026-05-03T07:28:18.882Z</time></trkpt><trkpt lat="44.28750791307815" lon="9.948420268085853"><ele>137.33333333333334</ele><time>2026-05-03T07:28:19.882Z</time></trkpt><trkpt lat="44.287341319913395" lon="9.948461489088439"><ele>142.66666666666669</ele><time>2026-05-03T07:28:20.882Z</time></trkpt><trkpt lat="44.287174317015115" lon="9.948493848998925"><ele>148.0</ele><time>2026-05-03T07:28:21.882Z</time></trkpt><trkpt lat="44.28700896874882" lon="9.948519359514957"><ele>148.0</ele><time>2026-05-03T07:28:22.882Z</time></trkpt><trkpt lat="44.28684970243827" lon="9.948547260700735"><ele>148.0</ele><time>2026-05-03T07:28:23.882Z</time></trkpt><trkpt lat="44.28669032393779" lon="9.948583051056133"><ele>148.0</ele><time>2026-05-03T07:28:24.882Z</time></trkpt><trkpt lat="44.28652765060676" lon="9.948616902964524"><ele>144.33333333333334</ele><time>2026-05-03T07:28:25.882Z</time></trkpt><trkpt lat="44.2863660412386" lon="9.948656409076895"><ele>140.66666666666666</ele><time>2026-05-03T07:28:26.882Z</time></trkpt><trkpt lat="44.28620100549662" lon="9.948693320577197"><ele>137.0</ele><time>2026-05-03T07:28:27.882Z</time></trkpt><trkpt lat="44.28603400234859" lon="9.948730572849541"><ele>137.0</ele><time>2026-05-03T07:28:28.882Z</time></trkpt><trkpt lat="44.28587204461343" lon="9.948773030456877"><ele>137.0</ele><time>2026-05-03T07:28:29.882Z</time></trkpt><trkpt lat="44.28571872311166" lon="9.94883197002626"><ele>137.0</ele><time>2026-05-03T07:28:30.882Z</time></trkpt><trkpt lat="44.28557732271689" lon="9.94889635027816"><ele>135.25</ele><time>2026-05-03T07:28:31.882Z</time></trkpt><trkpt lat="44.28543600862734" lon="9.948952314277571"><ele>133.5</ele><time>2026-05-03T07:28:32.882Z</time></trkpt><trkpt lat="44.28530180447809" lon="9.94900303006443"><ele>131.75</ele><time>2026-05-03T07:28:33.882Z</time></trkpt><trkpt lat="44.28516903599356" lon="9.94905262380215"><ele>130.0</ele><time>2026-05-03T07:28:34.882Z</time></trkpt><trkpt lat="44.285034922559674" lon="9.949106931860133"><ele>130.0</ele><time>2026-05-03T07:28:35.882Z</time></trkpt><trkpt lat="44.284896033206664" lon="9.949161922849855"><ele>130.0</ele><time>2026-05-03T07:28:36.882Z</time></trkpt><trkpt lat="44.2847596429644" lon="9.949219053698647"><ele>130.0</ele><time>2026-05-03T07:28:37.882Z</time></trkpt><trkpt lat="44.28462337173159" lon="9.949274494901712"><ele>130.0</ele><time>2026-05-03T07:28:38.882Z</time></trkpt><trkpt lat="44.28448475703797" lon="9.949324038483502"><ele>129.75</ele><time>2026-05-03T07:28:39.882Z</time></trkpt><trkpt lat="44.28434298828453" lon="9.949376688948727"><ele>129.5</ele><time>2026-05-03T07:28:40.882Z</time></trkpt><trkpt lat="44.28420018952931" lon="9.949430538901646"><ele>129.25</ele><time>2026-05-03T07:28:41.881Z</time></trkpt><trkpt lat="44.28405680619596" lon="9.94948904312467"><ele>129.0</ele><time>2026-05-03T07:28:42.881Z</time></trkpt><trkpt lat="44.28390900387041" lon="9.949552772915105"><ele>126.66666666666666</ele><time>2026-05-03T07:28:43.881Z</time></trkpt><trkpt lat="44.28376028885322" lon="9.949614597557652"><ele>124.33333333333333</ele><time>2026-05-03T07:28:44.881Z</time></trkpt><trkpt lat="44.28361199076978" lon="9.949683507816863"><ele>122.0</ele><time>2026-05-03T07:28:45.881Z</time></trkpt><trkpt lat="44.2834683384497" lon="9.949764716314604"><ele>122.0</ele><time>2026-05-03T07:28:46.881Z</time></trkpt><trkpt lat="44.28332955422566" lon="9.949864521297728"><ele>122.0</ele><time>2026-05-03T07:28:47.881Z</time></trkpt><trkpt lat="44.2831924969587" lon="9.949987822393474"><ele>122.0</ele><time>2026-05-03T07:28:48.881Z</time></trkpt><trkpt lat="44.283060114750924" lon="9.950113179889302"><ele>120.33333333333333</ele><time>2026-05-03T07:28:49.881Z</time></trkpt><trkpt lat="44.282926217081815" lon="9.950243440759538"><ele>118.66666666666666</ele><time>2026-05-03T07:28:50.881Z</time></trkpt><trkpt lat="44.282794263395964" lon="9.950375694400215"><ele>117.0</ele><time>2026-05-03T07:28:51.881Z</time></trkpt><trkpt lat="44.282656283351976" lon="9.950498792564936"><ele>117.0</ele><time>2026-05-03T07:28:52.881Z</time></trkpt><trkpt lat="44.28250160683734" lon="9.950604135267211"><ele>117.0</ele><time>2026-05-03T07:28:53.881Z</time></trkpt><trkpt lat="44.2823269636905" lon="9.95068353847475"><ele>117.0</ele><time>2026-05-03T07:28:54.881Z</time></trkpt><trkpt lat="44.282144680085416" lon="9.950736856557299"><ele>117.0</ele><time>2026-05-03T07:28:55.881Z</time></trkpt><trkpt lat="44.28196736611974" lon="9.950755846095388"><ele>117.0</ele><time>2026-05-03T07:28:56.881Z</time></trkpt><trkpt lat="44.281783895819764" lon="9.950763890440411"><ele>117.0</ele><time>2026-05-03T07:28:57.881Z</time></trkpt><trkpt lat="44.2814391415565" lon="9.950826932016891"><ele>118.33333333333334</ele><time>2026-05-03T07:28:59.881Z</time></trkpt><trkpt lat="44.28126974915926" lon="9.950898700967374"><ele>119.66666666666667</ele><time>2026-05-03T07:29:00.881Z</time></trkpt><trkpt lat="44.2811014610175" lon="9.950998653487822"><ele>121.0</ele><time>2026-05-03T07:29:01.881Z</time></trkpt><trkpt lat="44.2809412240914" lon="9.951101477566631"><ele>121.0</ele><time>2026-05-03T07:29:02.881Z</time></trkpt><trkpt lat="44.28079174200426" lon="9.951201784299528"><ele>121.0</ele><time>2026-05-03T07:29:03.881Z</time></trkpt><trkpt lat="44.280647337611136" lon="9.95129918679981"><ele>121.0</ele><time>2026-05-03T07:29:04.881Z</time></trkpt><trkpt lat="44.280502771711234" lon="9.951397472207336"><ele>119.33333333333334</ele><time>2026-05-03T07:29:05.881Z</time></trkpt><trkpt lat="44.28036284305064" lon="9.951489145268331"><ele>117.66666666666666</ele><time>2026-05-03T07:29:06.881Z</time></trkpt><trkpt lat="44.28022537832638" lon="9.951571860554026"><ele>116.0</ele><time>2026-05-03T07:29:07.881Z</time></trkpt><trkpt lat="44.2800767022762" lon="9.951638400903361"><ele>116.0</ele><time>2026-05-03T07:29:08.881Z</time></trkpt><trkpt lat="44.27991768314851" lon="9.951678669973598"><ele>116.0</ele><time>2026-05-03T07:29:09.881Z</time></trkpt><trkpt lat="44.279753634598805" lon="9.951707828754708"><ele>116.0</ele><time>2026-05-03T07:29:10.881Z</time></trkpt><trkpt lat="44.27959307654702" lon="9.951753268674647"><ele>120.66666666666666</ele><time>2026-05-03T07:29:11.881Z</time></trkpt><trkpt lat="44.279435719025656" lon="9.951824778297597"><ele>125.33333333333334</ele><time>2026-05-03T07:29:12.881Z</time></trkpt><trkpt lat="44.279282426896444" lon="9.951903487332123"><ele>130.0</ele><time>2026-05-03T07:29:13.881Z</time></trkpt><trkpt lat="44.27912363708433" lon="9.951989706251815"><ele>130.0</ele><time>2026-05-03T07:29:14.881Z</time></trkpt><trkpt lat="44.278937913273005" lon="9.952100455272268"><ele>130.0</ele><time>2026-05-03T07:29:15.881Z</time></trkpt><trkpt lat="44.278723209288266" lon="9.952222208671046"><ele>130.0</ele><time>2026-05-03T07:29:16.881Z</time></trkpt><trkpt lat="44.27848214966177" lon="9.952346825367762"><ele>129.0</ele><time>2026-05-03T07:29:17.881Z</time></trkpt><trkpt lat="44.278220927715466" lon="9.952480837058786"><ele>128.0</ele><time>2026-05-03T07:29:18.881Z</time></trkpt><trkpt lat="44.27795132076854" lon="9.952620058631208"><ele>128.0</ele><time>2026-05-03T07:29:19.881Z</time></trkpt><trkpt lat="44.27767420120794" lon="9.952773449883221"><ele>128.0</ele><time>2026-05-03T07:29:20.881Z</time></trkpt><trkpt lat="44.27738276942449" lon="9.952942604329522"><ele>122.5</ele><time>2026-05-03T07:29:21.881Z</time></trkpt><trkpt lat="44.27708988950074" lon="9.953112452678393"><ele>117.0</ele><time>2026-05-03T07:29:22.881Z</time></trkpt><trkpt lat="44.27678796842165" lon="9.953292757940243"><ele>123.5</ele><time>2026-05-03T07:29:23.881Z</time></trkpt><trkpt lat="44.27649938173828" lon="9.953468487069628"><ele>130.0</ele><time>2026-05-03T07:29:24.881Z</time></trkpt><trkpt lat="44.27624127577975" lon="9.953621790246759"><ele>130.0</ele><time>2026-05-03T07:29:25.881Z</time></trkpt><trkpt lat="44.275995962232365" lon="9.953768712978476"><ele>130.0</ele><time>2026-05-03T07:29:26.881Z</time></trkpt><trkpt lat="44.27576775319303" lon="9.953913629067289"><ele>122.0</ele><time>2026-05-03T07:29:27.881Z</time></trkpt><trkpt lat="44.275547934324976" lon="9.9540537427165"><ele>114.0</ele><time>2026-05-03T07:29:28.881Z</time></trkpt><trkpt lat="44.27533629235147" lon="9.954185864251027"><ele>120.33333333333334</ele><time>2026-05-03T07:29:29.881Z</time></trkpt><trkpt lat="44.27512551908673" lon="9.954302866608076"><ele>126.66666666666667</ele><time>2026-05-03T07:29:30.881Z</time></trkpt><trkpt lat="44.274921999387196" lon="9.954418607293952"><ele>133.0</ele><time>2026-05-03T07:29:31.881Z</time></trkpt><trkpt lat="44.27472863705586" lon="9.95453053488783"><ele>133.0</ele><time>2026-05-03T07:29:32.881Z</time></trkpt><trkpt lat="44.274539384334275" lon="9.954628351956016"><ele>133.0</ele><time>2026-05-03T07:29:33.881Z</time></trkpt><trkpt lat="44.27435077030857" lon="9.954715143142677"><ele>133.0</ele><time>2026-05-03T07:29:34.881Z</time></trkpt><trkpt lat="44.274159742805075" lon="9.954790103628852"><ele>133.0</ele><time>2026-05-03T07:29:35.881Z</time></trkpt><trkpt lat="44.273966721817594" lon="9.954849459502455"><ele>133.0</ele><time>2026-05-03T07:29:36.881Z</time></trkpt><trkpt lat="44.27378803267839" lon="9.954896470533038"><ele>133.0</ele><time>2026-05-03T07:29:37.881Z</time></trkpt><trkpt lat="44.273610129307194" lon="9.954922740589486"><ele>134.0</ele><time>2026-05-03T07:29:38.881Z</time></trkpt><trkpt lat="44.27342255445865" lon="9.954919047635377"><ele>135.0</ele><time>2026-05-03T07:29:39.881Z</time></trkpt><trkpt lat="44.27323070692724" lon="9.954892635856176"><ele>136.0</ele><time>2026-05-03T07:29:40.881Z</time></trkpt><trkpt lat="44.27303370667331" lon="9.954858751109557"><ele>136.66666666666669</ele><time>2026-05-03T07:29:41.881Z</time></trkpt><trkpt lat="44.2728383900907" lon="9.954831320549225"><ele>137.33333333333334</ele><time>2026-05-03T07:29:42.881Z</time></trkpt><trkpt lat="44.27265322664327" lon="9.954805751647347"><ele>138.0</ele><time>2026-05-03T07:29:43.88Z</time></trkpt><trkpt lat="44.27248544196215" lon="9.954787366836834"><ele>138.0</ele><time>2026-05-03T07:29:44.88Z</time></trkpt><trkpt lat="44.27233049656501" lon="9.954767519647044"><ele>138.0</ele><time>2026-05-03T07:29:45.88Z</time></trkpt><trkpt lat="44.272184322064106" lon="9.954743297402457"><ele>138.0</ele><time>2026-05-03T07:29:46.879Z</time></trkpt><trkpt lat="44.27205182713633" lon="9.954686519911066"><ele>138.0</ele><time>2026-05-03T07:29:47.88Z</time></trkpt><trkpt lat="44.27193818016804" lon="9.954592163171748"><ele>138.5</ele><time>2026-05-03T07:29:48.88Z</time></trkpt><trkpt lat="44.27185302407738" lon="9.954441287901215"><ele>139.0</ele><time>2026-05-03T07:29:49.88Z</time></trkpt><trkpt lat="44.27178610660655" lon="9.954267167351315"><ele>139.5</ele><time>2026-05-03T07:29:50.88Z</time></trkpt><trkpt lat="44.27172700572045" lon="9.954102721815135"><ele>140.0</ele><time>2026-05-03T07:29:51.88Z</time></trkpt><trkpt lat="44.27164228984114" lon="9.953975933183077"><ele>136.66666666666666</ele><time>2026-05-03T07:29:52.879Z</time></trkpt><trkpt lat="44.271525309611164" lon="9.953889696243692"><ele>133.33333333333334</ele><time>2026-05-03T07:29:53.88Z</time></trkpt><trkpt lat="44.27137845100778" lon="9.95382553517771"><ele>130.0</ele><time>2026-05-03T07:29:54.88Z</time></trkpt><trkpt lat="44.27120838876343" lon="9.953747740585328"><ele>141.33333333333334</ele><time>2026-05-03T07:29:55.879Z</time></trkpt><trkpt lat="44.27102274233626" lon="9.953655186536409"><ele>152.66666666666666</ele><time>2026-05-03T07:29:56.88Z</time></trkpt><trkpt lat="44.270839915620634" lon="9.95355839066104"><ele>164.0</ele><time>2026-05-03T07:29:57.88Z</time></trkpt><trkpt lat="44.270671265391364" lon="9.953433310513386"><ele>156.0</ele><time>2026-05-03T07:29:58.88Z</time></trkpt><trkpt lat="44.270520719109584" lon="9.953294479600494"><ele>148.0</ele><time>2026-05-03T07:29:59.88Z</time></trkpt><trkpt lat="44.27037664600973" lon="9.953153788002355"><ele>140.0</ele><time>2026-05-03T07:30:00.88Z</time></trkpt><trkpt lat="44.27024838487566" lon="9.953031547977945"><ele>140.0</ele><time>2026-05-03T07:30:01.88Z</time></trkpt><trkpt lat="44.270108553117566" lon="9.952921786829545"><ele>140.0</ele><time>2026-05-03T07:30:02.88Z</time></trkpt><trkpt lat="44.269956190039714" lon="9.952857625262526"><ele>140.0</ele><time>2026-05-03T07:30:03.879Z</time></trkpt><trkpt lat="44.26979873653844" lon="9.95283237095655"><ele>137.66666666666666</ele><time>2026-05-03T07:30:04.879Z</time></trkpt><trkpt lat="44.269638562914125" lon="9.952851143058094"><ele>135.33333333333334</ele><time>2026-05-03T07:30:05.879Z</time></trkpt><trkpt lat="44.269473996197725" lon="9.952923039152138"><ele>133.0</ele><time>2026-05-03T07:30:06.879Z</time></trkpt><trkpt lat="44.26932528171254" lon="9.95303223213642"><ele>133.0</ele><time>2026-05-03T07:30:07.879Z</time></trkpt><trkpt lat="44.26919147478961" lon="9.95317032210978"><ele>133.0</ele><time>2026-05-03T07:30:08.879Z</time></trkpt><trkpt lat="44.26906576927226" lon="9.953288791880395"><ele>133.0</ele><time>2026-05-03T07:30:09.879Z</time></trkpt><trkpt lat="44.26895656723752" lon="9.95337771340756"><ele>133.0</ele><time>2026-05-03T07:30:10.879Z</time></trkpt><trkpt lat="44.26883998943252" lon="9.953411852543551"><ele>134.25</ele><time>2026-05-03T07:30:11.879Z</time></trkpt><trkpt lat="44.26870289953725" lon="9.953398188709478"><ele>135.5</ele><time>2026-05-03T07:30:12.879Z</time></trkpt><trkpt lat="44.26856340382814" lon="9.95332953414942"><ele>136.75</ele><time>2026-05-03T07:30:13.879Z</time></trkpt><trkpt lat="44.26842744652927" lon="9.953228280717434"><ele>138.0</ele><time>2026-05-03T07:30:14.879Z</time></trkpt><trkpt lat="44.26828672915118" lon="9.953137342699161"><ele>138.0</ele><time>2026-05-03T07:30:15.879Z</time></trkpt><trkpt lat="44.26815102391507" lon="9.95305920446269"><ele>138.0</ele><time>2026-05-03T07:30:16.879Z</time></trkpt><trkpt lat="44.26801767070875" lon="9.95299961444918"><ele>138.0</ele><time>2026-05-03T07:30:17.879Z</time></trkpt><trkpt lat="44.267849943425986" lon="9.952978381364998"><ele>135.33333333333334</ele><time>2026-05-03T07:30:18.879Z</time></trkpt><trkpt lat="44.26767417385072" lon="9.953003946330941"><ele>132.66666666666669</ele><time>2026-05-03T07:30:19.879Z</time></trkpt><trkpt lat="44.26750621266865" lon="9.953091663255476"><ele>130.0</ele><time>2026-05-03T07:30:20.879Z</time></trkpt><trkpt lat="44.267374075251894" lon="9.953220730179796"><ele>130.25</ele><time>2026-05-03T07:30:21.879Z</time></trkpt><trkpt lat="44.26725200032471" lon="9.953369022064342"><ele>130.5</ele><time>2026-05-03T07:30:22.879Z</time></trkpt><trkpt lat="44.2671561388904" lon="9.95350054202185"><ele>130.75</ele><time>2026-05-03T07:30:23.879Z</time></trkpt><trkpt lat="44.267140424332936" lon="9.9536274572596"><ele>131.0</ele><time>2026-05-03T07:30:24.879Z</time></trkpt><trkpt lat="44.26711969928757" lon="9.953770801023824"><ele>131.0</ele><time>2026-05-03T07:30:25.879Z</time></trkpt><trkpt lat="44.26707882409373" lon="9.953882708857064"><ele>131.0</ele><time>2026-05-03T07:30:26.879Z</time></trkpt><trkpt lat="44.26701455467649" lon="9.953976355945548"><ele>131.0</ele><time>2026-05-03T07:30:27.879Z</time></trkpt><trkpt lat="44.26692490960926" lon="9.954057541040195"><ele>131.0</ele><time>2026-05-03T07:30:28.879Z</time></trkpt><trkpt lat="44.26681582740784" lon="9.954114374358708"><ele>131.0</ele><time>2026-05-03T07:30:29.879Z</time></trkpt><trkpt lat="44.26669393230268" lon="9.954151138006972"><ele>131.0</ele><time>2026-05-03T07:30:30.879Z</time></trkpt><trkpt lat="44.26657642734599" lon="9.954182605130155"><ele>131.0</ele><time>2026-05-03T07:30:31.879Z</time></trkpt><trkpt lat="44.266463445162735" lon="9.954225971330038"><ele>131.0</ele><time>2026-05-03T07:30:32.879Z</time></trkpt><trkpt lat="44.26635015128091" lon="9.954279796949054"><ele>131.0</ele><time>2026-05-03T07:30:33.879Z</time></trkpt><trkpt lat="44.26623102333727" lon="9.954322608610067"><ele>138.5</ele><time>2026-05-03T07:30:34.879Z</time></trkpt><trkpt lat="44.26609616066829" lon="9.954348264477051"><ele>146.0</ele><time>2026-05-03T07:30:35.879Z</time></trkpt><trkpt lat="44.265956121417254" lon="9.954362130431385"><ele>153.5</ele><time>2026-05-03T07:30:36.879Z</time></trkpt><trkpt lat="44.2658149292732" lon="9.954366768237621"><ele>161.0</ele><time>2026-05-03T07:30:37.879Z</time></trkpt><trkpt lat="44.265669623118406" lon="9.954352558352541"><ele>157.25</ele><time>2026-05-03T07:30:38.879Z</time></trkpt><trkpt lat="44.265531029502604" lon="9.954354521352656"><ele>153.5</ele><time>2026-05-03T07:30:39.879Z</time></trkpt><trkpt lat="44.26538774319542" lon="9.954372661046255"><ele>149.75</ele><time>2026-05-03T07:30:40.879Z</time></trkpt><trkpt lat="44.26524184292799" lon="9.954383141510187"><ele>146.0</ele><time>2026-05-03T07:30:41.879Z</time></trkpt><trkpt lat="44.265097440140565" lon="9.954418532079654"><ele>146.0</ele><time>2026-05-03T07:30:42.879Z</time></trkpt><trkpt lat="44.26496145474918" lon="9.954479585256227"><ele>146.0</ele><time>2026-05-03T07:30:43.879Z</time></trkpt><trkpt lat="44.264832806505865" lon="9.954547770360831"><ele>146.0</ele><time>2026-05-03T07:30:44.879Z</time></trkpt><trkpt lat="44.26469714745096" lon="9.954634308650594"><ele>146.0</ele><time>2026-05-03T07:30:45.879Z</time></trkpt><trkpt lat="44.264574103120644" lon="9.954715314177298"><ele>144.0</ele><time>2026-05-03T07:30:46.879Z</time></trkpt><trkpt lat="44.26445558393408" lon="9.95478200795919"><ele>142.0</ele><time>2026-05-03T07:30:47.879Z</time></trkpt><trkpt lat="44.264324012627405" lon="9.954804026387654"><ele>140.0</ele><time>2026-05-03T07:30:48.879Z</time></trkpt><trkpt lat="44.264185461296165" lon="9.95477692633455"><ele>138.0</ele><time>2026-05-03T07:30:49.879Z</time></trkpt><trkpt lat="44.264042105307944" lon="9.954715641001922"><ele>139.0</ele><time>2026-05-03T07:30:50.879Z</time></trkpt><trkpt lat="44.26390098796986" lon="9.954633127028721"><ele>140.0</ele><time>2026-05-03T07:30:51.879Z</time></trkpt><trkpt lat="44.26376440792022" lon="9.95457153548298"><ele>141.0</ele><time>2026-05-03T07:30:52.879Z</time></trkpt><trkpt lat="44.26362808228014" lon="9.954521894946586"><ele>142.0</ele><time>2026-05-03T07:30:53.879Z</time></trkpt><trkpt lat="44.26348496936053" lon="9.9544863868872"><ele>142.0</ele><time>2026-05-03T07:30:54.879Z</time></trkpt><trkpt lat="44.26333622828686" lon="9.954427637729399"><ele>142.0</ele><time>2026-05-03T07:30:55.879Z</time></trkpt><trkpt lat="44.263179998887146" lon="9.954356063809236"><ele>142.0</ele><time>2026-05-03T07:30:56.879Z</time></trkpt><trkpt lat="44.26302336640127" lon="9.954280334577415"><ele>137.66666666666669</ele><time>2026-05-03T07:30:57.879Z</time></trkpt><trkpt lat="44.26287239125409" lon="9.954196925982892"><ele>133.33333333333334</ele><time>2026-05-03T07:30:58.879Z</time></trkpt><trkpt lat="44.26272497998927" lon="9.95410536946757"><ele>129.0</ele><time>2026-05-03T07:30:59.879Z</time></trkpt><trkpt lat="44.26257455838401" lon="9.954023791251466"><ele>129.0</ele><time>2026-05-03T07:31:00.879Z</time></trkpt><trkpt lat="44.26243140310315" lon="9.953930486632586"><ele>129.0</ele><time>2026-05-03T07:31:01.879Z</time></trkpt><trkpt lat="44.262288679891704" lon="9.953842651740171"><ele>129.0</ele><time>2026-05-03T07:31:02.879Z</time></trkpt><trkpt lat="44.2621509943836" lon="9.95375191510649"><ele>133.33333333333334</ele><time>2026-05-03T07:31:03.879Z</time></trkpt><trkpt lat="44.262008804264724" lon="9.953658389231451"><ele>137.66666666666669</ele><time>2026-05-03T07:31:04.879Z</time></trkpt><trkpt lat="44.261868648818" lon="9.953592051063174"><ele>142.0</ele><time>2026-05-03T07:31:05.879Z</time></trkpt><trkpt lat="44.26172274969389" lon="9.953546725185243"><ele>142.0</ele><time>2026-05-03T07:31:06.879Z</time></trkpt><trkpt lat="44.261567162516705" lon="9.953524299580536"><ele>142.0</ele><time>2026-05-03T07:31:07.879Z</time></trkpt><trkpt lat="44.261407804862614" lon="9.953520820002291"><ele>142.0</ele><time>2026-05-03T07:31:08.879Z</time></trkpt><trkpt lat="44.2612430403458" lon="9.953534769453672"><ele>140.66666666666669</ele><time>2026-05-03T07:31:09.879Z</time></trkpt><trkpt lat="44.26108432643118" lon="9.953555265126678"><ele>139.33333333333334</ele><time>2026-05-03T07:31:10.879Z</time></trkpt><trkpt lat="44.26093431729351" lon="9.953593770917603"><ele>138.0</ele><time>2026-05-03T07:31:11.879Z</time></trkpt><trkpt lat="44.260790254428905" lon="9.953650489986018"><ele>138.0</ele><time>2026-05-03T07:31:12.879Z</time></trkpt><trkpt lat="44.260655087902045" lon="9.953725819234911"><ele>138.0</ele><time>2026-05-03T07:31:13.879Z</time></trkpt><trkpt lat="44.2605242045229" lon="9.953814406806567"><ele>138.0</ele><time>2026-05-03T07:31:14.878Z</time></trkpt><trkpt lat="44.2604053186044" lon="9.953908157779415"><ele>138.0</ele><time>2026-05-03T07:31:15.878Z</time></trkpt><trkpt lat="44.26027200171776" lon="9.953969229299652"><ele>135.66666666666666</ele><time>2026-05-03T07:31:16.878Z</time></trkpt><trkpt lat="44.260117214290766" lon="9.95398258794354"><ele>133.33333333333331</ele><time>2026-05-03T07:31:17.878Z</time></trkpt><trkpt lat="44.259961928259926" lon="9.953972353010021"><ele>131.0</ele><time>2026-05-03T07:31:18.878Z</time></trkpt><trkpt lat="44.25981189553902" lon="9.953992436734387"><ele>125.66666666666666</ele><time>2026-05-03T07:31:19.878Z</time></trkpt><trkpt lat="44.259663626042716" lon="9.954039332529883"><ele>120.33333333333334</ele><time>2026-05-03T07:31:20.878Z</time></trkpt><trkpt lat="44.259518364380654" lon="9.95411553404099"><ele>115.0</ele><time>2026-05-03T07:31:21.878Z</time></trkpt><trkpt lat="44.25937898480254" lon="9.954203758652437"><ele>123.66666666666667</ele><time>2026-05-03T07:31:22.878Z</time></trkpt><trkpt lat="44.25925926151822" lon="9.95431161475923"><ele>132.33333333333334</ele><time>2026-05-03T07:31:23.878Z</time></trkpt><trkpt lat="44.25913952606189" lon="9.954452508192006"><ele>141.0</ele><time>2026-05-03T07:31:24.878Z</time></trkpt><trkpt lat="44.2590391466139" lon="9.95462031102361"><ele>144.75</ele><time>2026-05-03T07:31:25.878Z</time></trkpt><trkpt lat="44.25893944439512" lon="9.954768621586313"><ele>148.5</ele><time>2026-05-03T07:31:26.878Z</time></trkpt><trkpt lat="44.25882428307639" lon="9.95490456951491"><ele>152.25</ele><time>2026-05-03T07:31:27.878Z</time></trkpt><trkpt lat="44.25869608929657" lon="9.955010379176969"><ele>156.0</ele><time>2026-05-03T07:31:28.878Z</time></trkpt><trkpt lat="44.258560157736326" lon="9.95508931629857"><ele>156.0</ele><time>2026-05-03T07:31:29.878Z</time></trkpt><trkpt lat="44.25841617629572" lon="9.955155657815567"><ele>156.0</ele><time>2026-05-03T07:31:30.878Z</time></trkpt><trkpt lat="44.25827367598828" lon="9.955216592469812"><ele>156.0</ele><time>2026-05-03T07:31:31.878Z</time></trkpt><trkpt lat="44.25813120592132" lon="9.9552780910275"><ele>151.75</ele><time>2026-05-03T07:31:32.878Z</time></trkpt><trkpt lat="44.257986565724615" lon="9.95532738219629"><ele>147.5</ele><time>2026-05-03T07:31:33.878Z</time></trkpt><trkpt lat="44.25783629342918" lon="9.955360732295922"><ele>143.25</ele><time>2026-05-03T07:31:34.878Z</time></trkpt><trkpt lat="44.25769690802319" lon="9.955396450095662"><ele>139.0</ele><time>2026-05-03T07:31:35.878Z</time></trkpt><trkpt lat="44.25756304052082" lon="9.95545188480068"><ele>139.0</ele><time>2026-05-03T07:31:36.878Z</time></trkpt><trkpt lat="44.25743308871666" lon="9.955547184457627"><ele>139.0</ele><time>2026-05-03T07:31:37.878Z</time></trkpt><trkpt lat="44.257323825496435" lon="9.955683841259617"><ele>139.0</ele><time>2026-05-03T07:31:38.878Z</time></trkpt><trkpt lat="44.25720610926845" lon="9.955838175857025"><ele>140.0</ele><time>2026-05-03T07:31:39.878Z</time></trkpt><trkpt lat="44.25708630821903" lon="9.955996551505875"><ele>141.0</ele><time>2026-05-03T07:31:40.878Z</time></trkpt><trkpt lat="44.25696136044197" lon="9.956146558995636"><ele>142.0</ele><time>2026-05-03T07:31:41.878Z</time></trkpt><trkpt lat="44.2568303595016" lon="9.956273711096774"><ele>142.0</ele><time>2026-05-03T07:31:42.878Z</time></trkpt><trkpt lat="44.256685398465976" lon="9.956358934040388"><ele>142.0</ele><time>2026-05-03T07:31:43.878Z</time></trkpt><trkpt lat="44.25653329743456" lon="9.956410664883283"><ele>142.0</ele><time>2026-05-03T07:31:44.878Z</time></trkpt><trkpt lat="44.25637803331675" lon="9.956455406263935"><ele>145.66666666666669</ele><time>2026-05-03T07:31:45.878Z</time></trkpt><trkpt lat="44.25622129653246" lon="9.956521144686208"><ele>149.33333333333334</ele><time>2026-05-03T07:31:46.878Z</time></trkpt><trkpt lat="44.256065945409716" lon="9.95660724968899"><ele>153.0</ele><time>2026-05-03T07:31:47.878Z</time></trkpt><trkpt lat="44.255908597320435" lon="9.956709040521085"><ele>153.0</ele><time>2026-05-03T07:31:48.878Z</time></trkpt><trkpt lat="44.255755050493775" lon="9.956820840048346"><ele>153.0</ele><time>2026-05-03T07:31:49.877Z</time></trkpt><trkpt lat="44.25560887703001" lon="9.956927742656049"><ele>153.0</ele><time>2026-05-03T07:31:50.877Z</time></trkpt><trkpt lat="44.25545452172856" lon="9.95703051210696"><ele>147.66666666666666</ele><time>2026-05-03T07:31:51.877Z</time></trkpt><trkpt lat="44.25530285489765" lon="9.957142113389793"><ele>142.33333333333331</ele><time>2026-05-03T07:31:52.877Z</time></trkpt><trkpt lat="44.255145292569104" lon="9.957253771194939"><ele>137.0</ele><time>2026-05-03T07:31:53.877Z</time></trkpt><trkpt lat="44.25498858370876" lon="9.957358699449355"><ele>137.0</ele><time>2026-05-03T07:31:54.877Z</time></trkpt><trkpt lat="44.25483449865594" lon="9.957456878488093"><ele>137.0</ele><time>2026-05-03T07:31:55.877Z</time></trkpt><trkpt lat="44.254690773721805" lon="9.957561995855094"><ele>137.0</ele><time>2026-05-03T07:31:56.877Z</time></trkpt><trkpt lat="44.2545614624563" lon="9.957673871127286"><ele>137.25</ele><time>2026-05-03T07:31:57.877Z</time></trkpt><trkpt lat="44.254441067878886" lon="9.957796523589916"><ele>137.5</ele><time>2026-05-03T07:31:58.877Z</time></trkpt><trkpt lat="44.25432517897835" lon="9.957916571507548"><ele>137.75</ele><time>2026-05-03T07:31:59.877Z</time></trkpt><trkpt lat="44.254209232691416" lon="9.95801617985648"><ele>138.0</ele><time>2026-05-03T07:32:00.877Z</time></trkpt><trkpt lat="44.25407564528743" lon="9.958081353738017"><ele>136.25</ele><time>2026-05-03T07:32:01.877Z</time></trkpt><trkpt lat="44.25393439141343" lon="9.958133199959317"><ele>134.5</ele><time>2026-05-03T07:32:02.877Z</time></trkpt><trkpt lat="44.25379935706304" lon="9.958134392560337"><ele>132.75</ele><time>2026-05-03T07:32:03.877Z</time></trkpt><trkpt lat="44.253667099402264" lon="9.958085219943682"><ele>131.0</ele><time>2026-05-03T07:32:04.877Z</time></trkpt><trkpt lat="44.253540670694974" lon="9.957977677803832"><ele>131.0</ele><time>2026-05-03T07:32:05.877Z</time></trkpt><trkpt lat="44.25342368891946" lon="9.957841789908066"><ele>131.0</ele><time>2026-05-03T07:32:06.877Z</time></trkpt><trkpt lat="44.25330248553709" lon="9.957700307690603"><ele>131.0</ele><time>2026-05-03T07:32:07.877Z</time></trkpt><trkpt lat="44.253178425469955" lon="9.957559822387335"><ele>131.33333333333331</ele><time>2026-05-03T07:32:08.877Z</time></trkpt><trkpt lat="44.25305447316989" lon="9.957420800049256"><ele>131.66666666666666</ele><time>2026-05-03T07:32:09.877Z</time></trkpt><trkpt lat="44.25293645046668" lon="9.957281458627437"><ele>132.0</ele><time>2026-05-03T07:32:10.877Z</time></trkpt><trkpt lat="44.2528153763962" lon="9.957145395776358"><ele>132.0</ele><time>2026-05-03T07:32:11.877Z</time></trkpt><trkpt lat="44.25269984137616" lon="9.95700852559583"><ele>132.0</ele><time>2026-05-03T07:32:12.877Z</time></trkpt><trkpt lat="44.25260583103149" lon="9.956849306151375"><ele>132.0</ele><time>2026-05-03T07:32:13.877Z</time></trkpt><trkpt lat="44.25253034101632" lon="9.956676264882427"><ele>132.0</ele><time>2026-05-03T07:32:14.877Z</time></trkpt><trkpt lat="44.25246269122768" lon="9.956499705643804"><ele>130.75</ele><time>2026-05-03T07:32:15.877Z</time></trkpt><trkpt lat="44.25241036906967" lon="9.956311526585571"><ele>129.5</ele><time>2026-05-03T07:32:16.877Z</time></trkpt><trkpt lat="44.252381141099654" lon="9.956110067480383"><ele>128.25</ele><time>2026-05-03T07:32:17.877Z</time></trkpt><trkpt lat="44.252371300267534" lon="9.955903157330239"><ele>127.0</ele><time>2026-05-03T07:32:18.877Z</time></trkpt><trkpt lat="44.252360416008216" lon="9.955698979783369"><ele>125.33333333333334</ele><time>2026-05-03T07:32:19.877Z</time></trkpt><trkpt lat="44.25232898387119" lon="9.955496184384971"><ele>123.66666666666666</ele><time>2026-05-03T07:32:20.877Z</time></trkpt><trkpt lat="44.252284364286986" lon="9.955293948843309"><ele>122.0</ele><time>2026-05-03T07:32:21.877Z</time></trkpt><trkpt lat="44.252235216492" lon="9.955093372909813"><ele>124.25</ele><time>2026-05-03T07:32:22.877Z</time></trkpt><trkpt lat="44.252200101204885" lon="9.954893757928401"><ele>126.5</ele><time>2026-05-03T07:32:23.877Z</time></trkpt><trkpt lat="44.25217534951831" lon="9.954698957162542"><ele>128.75</ele><time>2026-05-03T07:32:24.877Z</time></trkpt><trkpt lat="44.25216858771715" lon="9.954502466554949"><ele>131.0</ele><time>2026-05-03T07:32:25.877Z</time></trkpt><trkpt lat="44.252162265062594" lon="9.954328455104086"><ele>128.8</ele><time>2026-05-03T07:32:26.876Z</time></trkpt><trkpt lat="44.25215520881281" lon="9.95418377477091"><ele>126.6</ele><time>2026-05-03T07:32:27.876Z</time></trkpt><trkpt lat="44.25213255297297" lon="9.9540513323447"><ele>124.4</ele><time>2026-05-03T07:32:28.876Z</time></trkpt><trkpt lat="44.252074251642384" lon="9.953929901340684"><ele>122.2</ele><time>2026-05-03T07:32:29.876Z</time></trkpt><trkpt lat="44.25198220403969" lon="9.95384906741847"><ele>120.0</ele><time>2026-05-03T07:32:30.876Z</time></trkpt><trkpt lat="44.25186628354467" lon="9.953835052650788"><ele>120.0</ele><time>2026-05-03T07:32:31.876Z</time></trkpt><trkpt lat="44.2517420541408" lon="9.95387636603547"><ele>120.0</ele><time>2026-05-03T07:32:32.876Z</time></trkpt><trkpt lat="44.25160746369639" lon="9.953952851344486"><ele>120.0</ele><time>2026-05-03T07:32:33.876Z</time></trkpt><trkpt lat="44.25146978329679" lon="9.954047250073515"><ele>120.0</ele><time>2026-05-03T07:32:34.876Z</time></trkpt><trkpt lat="44.25132075486399" lon="9.954149568551019"><ele>119.0</ele><time>2026-05-03T07:32:35.876Z</time></trkpt><trkpt lat="44.25117882631966" lon="9.954243538903743"><ele>118.0</ele><time>2026-05-03T07:32:36.876Z</time></trkpt><trkpt lat="44.25104830340293" lon="9.954346547335255"><ele>117.0</ele><time>2026-05-03T07:32:37.876Z</time></trkpt><trkpt lat="44.25091874377054" lon="9.954454576507198"><ele>117.0</ele><time>2026-05-03T07:32:38.876Z</time></trkpt><trkpt lat="44.25078985283913" lon="9.954564948180575"><ele>117.0</ele><time>2026-05-03T07:32:39.876Z</time></trkpt><trkpt lat="44.25067174786683" lon="9.954700124289129"><ele>117.0</ele><time>2026-05-03T07:32:40.876Z</time></trkpt><trkpt lat="44.25056366073997" lon="9.954866037887152"><ele>114.33333333333334</ele><time>2026-05-03T07:32:41.876Z</time></trkpt><trkpt lat="44.25045604967171" lon="9.955036285040864"><ele>111.66666666666667</ele><time>2026-05-03T07:32:42.876Z</time></trkpt><trkpt lat="44.25034718547643" lon="9.955222839549219"><ele>109.0</ele><time>2026-05-03T07:32:43.876Z</time></trkpt><trkpt lat="44.250229075897415" lon="9.95541659916429"><ele>109.0</ele><time>2026-05-03T07:32:44.876Z</time></trkpt><trkpt lat="44.250109131615226" lon="9.955609512850119"><ele>109.0</ele><time>2026-05-03T07:32:45.876Z</time></trkpt><trkpt lat="44.249987502923695" lon="9.955789996711237"><ele>109.0</ele><time>2026-05-03T07:32:46.876Z</time></trkpt><trkpt lat="44.24985681844883" lon="9.955958839293457"><ele>108.66666666666667</ele><time>2026-05-03T07:32:47.876Z</time></trkpt><trkpt lat="44.24971263894523" lon="9.956120303691192"><ele>108.33333333333334</ele><time>2026-05-03T07:32:48.876Z</time></trkpt><trkpt lat="44.24955895423273" lon="9.956259799321245"><ele>108.0</ele><time>2026-05-03T07:32:49.876Z</time></trkpt><trkpt lat="44.24939094676868" lon="9.956396515616165"><ele>108.0</ele><time>2026-05-03T07:32:50.876Z</time></trkpt><trkpt lat="44.24921729025529" lon="9.956520453846345"><ele>108.0</ele><time>2026-05-03T07:32:51.876Z</time></trkpt><trkpt lat="44.2490411469726" lon="9.95664739697404"><ele>108.0</ele><time>2026-05-03T07:32:52.876Z</time></trkpt><trkpt lat="44.24885946310993" lon="9.956812719503537"><ele>105.33333333333334</ele><time>2026-05-03T07:32:53.876Z</time></trkpt><trkpt lat="44.24867292029809" lon="9.957001737850728"><ele>102.66666666666667</ele><time>2026-05-03T07:32:54.876Z</time></trkpt><trkpt lat="44.24850402781059" lon="9.957179825309968"><ele>100.0</ele><time>2026-05-03T07:32:55.876Z</time></trkpt><trkpt lat="44.24835450059371" lon="9.95734105178751"><ele>100.0</ele><time>2026-05-03T07:32:56.876Z</time></trkpt><trkpt lat="44.24820908902254" lon="9.95749297757145"><ele>100.0</ele><time>2026-05-03T07:32:57.876Z</time></trkpt><trkpt lat="44.24806090568942" lon="9.957647768277852"><ele>100.0</ele><time>2026-05-03T07:32:58.876Z</time></trkpt><trkpt lat="44.24790703651088" lon="9.957798637363677"><ele>100.0</ele><time>2026-05-03T07:32:59.876Z</time></trkpt><trkpt lat="44.2477526277807" lon="9.95795319317523"><ele>100.0</ele><time>2026-05-03T07:33:00.876Z</time></trkpt><trkpt lat="44.247600710117766" lon="9.958104523387636"><ele>100.0</ele><time>2026-05-03T07:33:01.876Z</time></trkpt><trkpt lat="44.24744889097914" lon="9.958254327194831"><ele>98.0</ele><time>2026-05-03T07:33:02.876Z</time></trkpt><trkpt lat="44.247304852231025" lon="9.958399987219346"><ele>96.0</ele><time>2026-05-03T07:33:03.876Z</time></trkpt><trkpt lat="44.24717399543788" lon="9.958532834555843"><ele>94.0</ele><time>2026-05-03T07:33:04.876Z</time></trkpt><trkpt lat="44.24704660223049" lon="9.958663457195293"><ele>94.0</ele><time>2026-05-03T07:33:05.876Z</time></trkpt><trkpt lat="44.24692853588949" lon="9.95879177755148"><ele>94.0</ele><time>2026-05-03T07:33:06.876Z</time></trkpt><trkpt lat="44.24681910218577" lon="9.958921425944506"><ele>94.0</ele><time>2026-05-03T07:33:07.876Z</time></trkpt><trkpt lat="44.24671942082009" lon="9.959063373155987"><ele>94.0</ele><time>2026-05-03T07:33:08.876Z</time></trkpt><trkpt lat="44.246640554819045" lon="9.95923940897826"><ele>93.0</ele><time>2026-05-03T07:33:09.876Z</time></trkpt><trkpt lat="44.246590830674776" lon="9.9594302504794"><ele>92.0</ele><time>2026-05-03T07:33:10.876Z</time></trkpt><trkpt lat="44.24655144952187" lon="9.959636910723475"><ele>91.0</ele><time>2026-05-03T07:33:11.876Z</time></trkpt><trkpt lat="44.24651744579016" lon="9.95983983831207"><ele>90.0</ele><time>2026-05-03T07:33:12.876Z</time></trkpt><trkpt lat="44.246481962537146" lon="9.960024645139228"><ele>90.0</ele><time>2026-05-03T07:33:13.876Z</time></trkpt><trkpt lat="44.246421465384124" lon="9.96020125846534"><ele>90.0</ele><time>2026-05-03T07:33:14.876Z</time></trkpt><trkpt lat="44.24633580325307" lon="9.960351264563746"><ele>90.0</ele><time>2026-05-03T07:33:15.876Z</time></trkpt><trkpt lat="44.24622863880262" lon="9.960471551344046"><ele>90.0</ele><time>2026-05-03T07:33:16.876Z</time></trkpt><trkpt lat="44.24610059685853" lon="9.960559002598911"><ele>90.0</ele><time>2026-05-03T07:33:17.876Z</time></trkpt><trkpt lat="44.245960045658485" lon="9.960600710519277"><ele>90.0</ele><time>2026-05-03T07:33:18.876Z</time></trkpt><trkpt lat="44.245813268592805" lon="9.960614171431091"><ele>90.0</ele><time>2026-05-03T07:33:19.876Z</time></trkpt><trkpt lat="44.245655698975405" lon="9.960595724225989"><ele>90.0</ele><time>2026-05-03T07:33:20.876Z</time></trkpt><trkpt lat="44.24549403256509" lon="9.960574834723692"><ele>90.0</ele><time>2026-05-03T07:33:21.876Z</time></trkpt><trkpt lat="44.24532959083162" lon="9.960599425734761"><ele>90.0</ele><time>2026-05-03T07:33:22.876Z</time></trkpt><trkpt lat="44.24517362583541" lon="9.960633908251655"><ele>90.0</ele><time>2026-05-03T07:33:23.876Z</time></trkpt><trkpt lat="44.245008675686236" lon="9.960666918827403"><ele>90.0</ele><time>2026-05-03T07:33:24.876Z</time></trkpt><trkpt lat="44.2448548333085" lon="9.9606855401164"><ele>90.0</ele><time>2026-05-03T07:33:25.876Z</time></trkpt><trkpt lat="44.244703123019015" lon="9.960679037788129"><ele>90.0</ele><time>2026-05-03T07:33:26.876Z</time></trkpt><trkpt lat="44.244557127008726" lon="9.960631866624903"><ele>92.66666666666666</ele><time>2026-05-03T07:33:27.876Z</time></trkpt><trkpt lat="44.24442083657668" lon="9.960544941645088"><ele>95.33333333333333</ele><time>2026-05-03T07:33:28.876Z</time></trkpt><trkpt lat="44.24428741663063" lon="9.960414848285271"><ele>98.0</ele><time>2026-05-03T07:33:29.876Z</time></trkpt><trkpt lat="44.24415309435209" lon="9.96026757376436"><ele>98.0</ele><time>2026-05-03T07:33:30.876Z</time></trkpt><trkpt lat="44.244020278636825" lon="9.960122240400155"><ele>98.0</ele><time>2026-05-03T07:33:31.876Z</time></trkpt><trkpt lat="44.24388396973396" lon="9.959984864887645"><ele>98.0</ele><time>2026-05-03T07:33:32.876Z</time></trkpt><trkpt lat="44.24375705369214" lon="9.959845407886343"><ele>97.66666666666666</ele><time>2026-05-03T07:33:33.876Z</time></trkpt><trkpt lat="44.24363449069776" lon="9.959705080113274"><ele>97.33333333333334</ele><time>2026-05-03T07:33:34.876Z</time></trkpt><trkpt lat="44.24350786797304" lon="9.959573546702096"><ele>97.0</ele><time>2026-05-03T07:33:35.876Z</time></trkpt><trkpt lat="44.24338828320969" lon="9.959451325552772"><ele>97.0</ele><time>2026-05-03T07:33:36.875Z</time></trkpt><trkpt lat="44.24327271493057" lon="9.959348416838685"><ele>97.0</ele><time>2026-05-03T07:33:37.875Z</time></trkpt><trkpt lat="44.24314928362046" lon="9.9592794531494"><ele>97.0</ele><time>2026-05-03T07:33:38.875Z</time></trkpt><trkpt lat="44.243005991212" lon="9.959247542191571"><ele>97.0</ele><time>2026-05-03T07:33:39.875Z</time></trkpt><trkpt lat="44.242850561571245" lon="9.959260269690565"><ele>96.66666666666667</ele><time>2026-05-03T07:33:40.875Z</time></trkpt><trkpt lat="44.24268973790657" lon="9.959293794731598"><ele>96.33333333333334</ele><time>2026-05-03T07:33:41.875Z</time></trkpt><trkpt lat="44.2425342835793" lon="9.959320317740147"><ele>96.0</ele><time>2026-05-03T07:33:42.875Z</time></trkpt><trkpt lat="44.24237437721916" lon="9.959344235538648"><ele>94.33333333333333</ele><time>2026-05-03T07:33:43.875Z</time></trkpt><trkpt lat="44.242215968420474" lon="9.959370955491512"><ele>92.66666666666666</ele><time>2026-05-03T07:33:44.875Z</time></trkpt><trkpt lat="44.24206000776189" lon="9.95939187351043"><ele>91.0</ele><time>2026-05-03T07:33:45.875Z</time></trkpt><trkpt lat="44.24189900189845" lon="9.959411147458006"><ele>91.0</ele><time>2026-05-03T07:33:46.875Z</time></trkpt><trkpt lat="44.24173378652299" lon="9.959433642655059"><ele>91.0</ele><time>2026-05-03T07:33:47.875Z</time></trkpt><trkpt lat="44.241558141716645" lon="9.959452070542985"><ele>91.0</ele><time>2026-05-03T07:33:48.875Z</time></trkpt><trkpt lat="44.24138020171422" lon="9.959463702339331"><ele>89.66666666666666</ele><time>2026-05-03T07:33:49.875Z</time></trkpt><trkpt lat="44.24119968405896" lon="9.959484177833628"><ele>88.33333333333333</ele><time>2026-05-03T07:33:50.875Z</time></trkpt><trkpt lat="44.24101568322378" lon="9.959501752306439"><ele>87.0</ele><time>2026-05-03T07:33:51.875Z</time></trkpt><trkpt lat="44.240823790034284" lon="9.95952371250168"><ele>87.0</ele><time>2026-05-03T07:33:52.875Z</time></trkpt><trkpt lat="44.24064930244932" lon="9.959544688825465"><ele>87.0</ele><time>2026-05-03T07:33:53.875Z</time></trkpt><trkpt lat="44.24047595266698" lon="9.959573171465648"><ele>87.0</ele><time>2026-05-03T07:33:54.875Z</time></trkpt><trkpt lat="44.24030522605111" lon="9.959599699841203"><ele>86.0</ele><time>2026-05-03T07:33:55.875Z</time></trkpt><trkpt lat="44.24013955054293" lon="9.959624357860417"><ele>85.0</ele><time>2026-05-03T07:33:56.875Z</time></trkpt><trkpt lat="44.23997837890801" lon="9.95964833145554"><ele>84.0</ele><time>2026-05-03T07:33:57.875Z</time></trkpt><trkpt lat="44.23981995956622" lon="9.9596717913568"><ele>83.5</ele><time>2026-05-03T07:33:58.874Z</time></trkpt><trkpt lat="44.23967207234229" lon="9.959688248029996"><ele>83.0</ele><time>2026-05-03T07:33:59.875Z</time></trkpt><trkpt lat="44.23953576600966" lon="9.95970631150935"><ele>82.5</ele><time>2026-05-03T07:34:00.875Z</time></trkpt><trkpt lat="44.23940987906653" lon="9.959723661114502"><ele>82.0</ele><time>2026-05-03T07:34:01.875Z</time></trkpt><trkpt lat="44.23928747298438" lon="9.95973692994713"><ele>82.0</ele><time>2026-05-03T07:34:02.875Z</time></trkpt><trkpt lat="44.23917241098926" lon="9.959748883372603"><ele>82.0</ele><time>2026-05-03T07:34:03.875Z</time></trkpt><trkpt lat="44.23906009676575" lon="9.959767194307773"><ele>82.0</ele><time>2026-05-03T07:34:04.875Z</time></trkpt><trkpt lat="44.23894465556281" lon="9.95978366579116"><ele>82.0</ele><time>2026-05-03T07:34:05.874Z</time></trkpt><trkpt lat="44.23882746690803" lon="9.959797277556866"><ele>82.0</ele><time>2026-05-03T07:34:06.874Z</time></trkpt><trkpt lat="44.23871417751647" lon="9.959809830053636"><ele>82.0</ele><time>2026-05-03T07:34:07.874Z</time></trkpt><trkpt lat="44.23860040253048" lon="9.959822452968963"><ele>82.0</ele><time>2026-05-03T07:34:08.875Z</time></trkpt><trkpt lat="44.23848977685209" lon="9.959836466115084"><ele>82.0</ele><time>2026-05-03T07:34:09.875Z</time></trkpt><trkpt lat="44.23837784252582" lon="9.959847267730778"><ele>82.0</ele><time>2026-05-03T07:34:10.875Z</time></trkpt><trkpt lat="44.23826381060615" lon="9.959856285626492"><ele>82.0</ele><time>2026-05-03T07:34:11.875Z</time></trkpt><trkpt lat="44.23815416772874" lon="9.959866696455654"><ele>82.0</ele><time>2026-05-03T07:34:12.875Z</time></trkpt><trkpt lat="44.238044733263266" lon="9.959880006837603"><ele>82.0</ele><time>2026-05-03T07:34:13.875Z</time></trkpt><trkpt lat="44.23793310495823" lon="9.959894140688315"><ele>82.0</ele><time>2026-05-03T07:34:14.875Z</time></trkpt><trkpt lat="44.23781665136049" lon="9.959913656637239"><ele>81.75</ele><time>2026-05-03T07:34:15.875Z</time></trkpt><trkpt lat="44.237697905675034" lon="9.959929120615724"><ele>81.5</ele><time>2026-05-03T07:34:16.875Z</time></trkpt><trkpt lat="44.23757376361112" lon="9.959943531270849"><ele>81.25</ele><time>2026-05-03T07:34:17.875Z</time></trkpt><trkpt lat="44.237448596320796" lon="9.959964131151441"><ele>81.0</ele><time>2026-05-03T07:34:18.875Z</time></trkpt><trkpt lat="44.237315119137904" lon="9.959981822887041"><ele>81.25</ele><time>2026-05-03T07:34:19.875Z</time></trkpt><trkpt lat="44.23718470719215" lon="9.960004461625571"><ele>81.5</ele><time>2026-05-03T07:34:20.875Z</time></trkpt><trkpt lat="44.23704485564768" lon="9.960022726331484"><ele>81.75</ele><time>2026-05-03T07:34:21.875Z</time></trkpt><trkpt lat="44.236893119986256" lon="9.960037669962603"><ele>82.0</ele><time>2026-05-03T07:34:22.875Z</time></trkpt><trkpt lat="44.23673679645836" lon="9.96005203585155"><ele>86.66666666666666</ele><time>2026-05-03T07:34:23.875Z</time></trkpt><trkpt lat="44.23657715965855" lon="9.960066767465083"><ele>91.33333333333333</ele><time>2026-05-03T07:34:24.874Z</time></trkpt><trkpt lat="44.236419742375695" lon="9.960078563489805"><ele>96.0</ele><time>2026-05-03T07:34:25.874Z</time></trkpt><trkpt lat="44.23626283188733" lon="9.960094537745869"><ele>96.0</ele><time>2026-05-03T07:34:26.874Z</time></trkpt><trkpt lat="44.23610818562714" lon="9.960109444617622"><ele>96.0</ele><time>2026-05-03T07:34:27.874Z</time></trkpt><trkpt lat="44.235949047121174" lon="9.960130202807955"><ele>96.0</ele><time>2026-05-03T07:34:28.874Z</time></trkpt><trkpt lat="44.23578634928561" lon="9.960148362541522"><ele>94.33333333333333</ele><time>2026-05-03T07:34:29.874Z</time></trkpt><trkpt lat="44.23561994691769" lon="9.960168633165495"><ele>92.66666666666666</ele><time>2026-05-03T07:34:30.874Z</time></trkpt><trkpt lat="44.235456367655274" lon="9.96019237123862"><ele>91.0</ele><time>2026-05-03T07:34:31.874Z</time></trkpt><trkpt lat="44.23528760652344" lon="9.960211114054527"><ele>91.0</ele><time>2026-05-03T07:34:32.874Z</time></trkpt><trkpt lat="44.23511709219378" lon="9.960237435048944"><ele>91.0</ele><time>2026-05-03T07:34:33.874Z</time></trkpt><trkpt lat="44.23491909341535" lon="9.96028170642848"><ele>91.0</ele><time>2026-05-03T07:34:34.874Z</time></trkpt><trkpt lat="44.23468514150895" lon="9.960324318122735"><ele>90.0</ele><time>2026-05-03T07:34:35.874Z</time></trkpt><trkpt lat="44.23441996389238" lon="9.960351637374977"><ele>89.0</ele><time>2026-05-03T07:34:36.874Z</time></trkpt><trkpt lat="44.23413760668905" lon="9.960380990495096"><ele>86.5</ele><time>2026-05-03T07:34:37.874Z</time></trkpt><trkpt lat="44.23387411166081" lon="9.960396084478392"><ele>84.0</ele><time>2026-05-03T07:34:38.874Z</time></trkpt><trkpt lat="44.23363181169639" lon="9.960413935546141"><ele>84.0</ele><time>2026-05-03T07:34:39.874Z</time></trkpt><trkpt lat="44.23340934533545" lon="9.960441207101889"><ele>84.0</ele><time>2026-05-03T07:34:40.874Z</time></trkpt><trkpt lat="44.233203852141344" lon="9.960468084932161"><ele>84.0</ele><time>2026-05-03T07:34:41.874Z</time></trkpt><trkpt lat="44.23301242749036" lon="9.960493701120644"><ele>82.66666666666667</ele><time>2026-05-03T07:34:42.874Z</time></trkpt><trkpt lat="44.23282597279273" lon="9.96052370451173"><ele>81.33333333333334</ele><time>2026-05-03T07:34:43.874Z</time></trkpt><trkpt lat="44.23264913174203" lon="9.960543250460198"><ele>80.0</ele><time>2026-05-03T07:34:44.874Z</time></trkpt><trkpt lat="44.23247407077903" lon="9.96057039804814"><ele>78.33333333333334</ele><time>2026-05-03T07:34:45.874Z</time></trkpt><trkpt lat="44.23230010030805" lon="9.960598891010099"><ele>76.66666666666667</ele><time>2026-05-03T07:34:46.874Z</time></trkpt><trkpt lat="44.232135023351894" lon="9.96065933351082"><ele>75.0</ele><time>2026-05-03T07:34:47.874Z</time></trkpt><trkpt lat="44.23196912835928" lon="9.960730088054019"><ele>75.0</ele><time>2026-05-03T07:34:48.874Z</time></trkpt><trkpt lat="44.231810037520674" lon="9.960839102253903"><ele>75.0</ele><time>2026-05-03T07:34:49.874Z</time></trkpt><trkpt lat="44.23165891931585" lon="9.960974642999114"><ele>75.0</ele><time>2026-05-03T07:34:50.874Z</time></trkpt><trkpt lat="44.23152377495622" lon="9.961130718552319"><ele>74.33333333333333</ele><time>2026-05-03T07:34:51.874Z</time></trkpt><trkpt lat="44.231406192253" lon="9.961314627221975"><ele>73.66666666666666</ele><time>2026-05-03T07:34:52.874Z</time></trkpt><trkpt lat="44.23128810980154" lon="9.961504396526848"><ele>73.0</ele><time>2026-05-03T07:34:53.874Z</time></trkpt><trkpt lat="44.231188711542586" lon="9.961709172544188"><ele>73.0</ele><time>2026-05-03T07:34:54.874Z</time></trkpt><trkpt lat="44.231114302815946" lon="9.961926601507791"><ele>73.0</ele><time>2026-05-03T07:34:55.874Z</time></trkpt><trkpt lat="44.23105409607782" lon="9.962154700712642"><ele>73.0</ele><time>2026-05-03T07:34:56.874Z</time></trkpt><trkpt lat="44.23100853005501" lon="9.962397371525514"><ele>73.33333333333333</ele><time>2026-05-03T07:34:57.874Z</time></trkpt><trkpt lat="44.23096718028523" lon="9.962635175259974"><ele>73.66666666666667</ele><time>2026-05-03T07:34:58.874Z</time></trkpt><trkpt lat="44.23092935486811" lon="9.962872391587648"><ele>74.0</ele><time>2026-05-03T07:34:59.874Z</time></trkpt><trkpt lat="44.23089065845409" lon="9.963109055516103"><ele>74.0</ele><time>2026-05-03T07:35:00.874Z</time></trkpt><trkpt lat="44.23085300487497" lon="9.963344705596988"><ele>74.0</ele><time>2026-05-03T07:35:01.874Z</time></trkpt><trkpt lat="44.23081420285732" lon="9.96357046922192"><ele>74.0</ele><time>2026-05-03T07:35:02.874Z</time></trkpt><trkpt lat="44.23077629001135" lon="9.963782414687953"><ele>74.0</ele><time>2026-05-03T07:35:03.874Z</time></trkpt><trkpt lat="44.230728303051364" lon="9.963983044783024"><ele>74.0</ele><time>2026-05-03T07:35:04.874Z</time></trkpt><trkpt lat="44.23066286590593" lon="9.964167978857532"><ele>74.0</ele><time>2026-05-03T07:35:05.874Z</time></trkpt><trkpt lat="44.23059405671604" lon="9.964331116688854"><ele>74.0</ele><time>2026-05-03T07:35:06.874Z</time></trkpt><trkpt lat="44.23051228705423" lon="9.964465292904176"><ele>74.0</ele><time>2026-05-03T07:35:07.874Z</time></trkpt><trkpt lat="44.230425663278844" lon="9.964578649729553"><ele>74.0</ele><time>2026-05-03T07:35:08.874Z</time></trkpt><trkpt lat="44.2303253951158" lon="9.964678650778797"><ele>74.0</ele><time>2026-05-03T07:35:09.874Z</time></trkpt><trkpt lat="44.23020393415689" lon="9.964757565243817"><ele>74.0</ele><time>2026-05-03T07:35:10.874Z</time></trkpt><trkpt lat="44.23006721065492" lon="9.96482323740901"><ele>74.0</ele><time>2026-05-03T07:35:11.874Z</time></trkpt><trkpt lat="44.2299194531819" lon="9.964883240730183"><ele>74.0</ele><time>2026-05-03T07:35:12.874Z</time></trkpt><trkpt lat="44.22977716227607" lon="9.964938356648057"><ele>74.0</ele><time>2026-05-03T07:35:13.874Z</time></trkpt><trkpt lat="44.22963842557823" lon="9.964983139918312"><ele>74.0</ele><time>2026-05-03T07:35:14.874Z</time></trkpt><trkpt lat="44.229511373302984" lon="9.965019659498637"><ele>72.0</ele><time>2026-05-03T07:35:15.874Z</time></trkpt><trkpt lat="44.22938472891667" lon="9.9650562754512"><ele>70.0</ele><time>2026-05-03T07:35:16.874Z</time></trkpt><trkpt lat="44.22925637737485" lon="9.965104108032973"><ele>68.0</ele><time>2026-05-03T07:35:17.874Z</time></trkpt><trkpt lat="44.22913660008067" lon="9.9651476520122"><ele>66.0</ele><time>2026-05-03T07:35:18.874Z</time></trkpt><trkpt lat="44.22901472014966" lon="9.965198952966965"><ele>66.25</ele><time>2026-05-03T07:35:19.874Z</time></trkpt><trkpt lat="44.22888540870798" lon="9.965249833916927"><ele>66.5</ele><time>2026-05-03T07:35:20.874Z</time></trkpt><trkpt lat="44.228756026980555" lon="9.965304371822898"><ele>66.75</ele><time>2026-05-03T07:35:21.874Z</time></trkpt><trkpt lat="44.228625453892036" lon="9.96536446357289"><ele>67.0</ele><time>2026-05-03T07:35:22.874Z</time></trkpt><trkpt lat="44.22848154169548" lon="9.965422593985634"><ele>67.0</ele><time>2026-05-03T07:35:23.874Z</time></trkpt><trkpt lat="44.22833702679144" lon="9.96547664890195"><ele>67.0</ele><time>2026-05-03T07:35:24.874Z</time></trkpt><trkpt lat="44.22819315391491" lon="9.965524030510819"><ele>67.0</ele><time>2026-05-03T07:35:25.874Z</time></trkpt><trkpt lat="44.22805442375185" lon="9.965575287270086"><ele>67.0</ele><time>2026-05-03T07:35:26.874Z</time></trkpt><trkpt lat="44.22792137211807" lon="9.96562088144449"><ele>66.75</ele><time>2026-05-03T07:35:27.874Z</time></trkpt><trkpt lat="44.22779229121009" lon="9.965664893681247"><ele>66.5</ele><time>2026-05-03T07:35:28.874Z</time></trkpt><trkpt lat="44.2276678983166" lon="9.965712684086105"><ele>66.25</ele><time>2026-05-03T07:35:29.874Z</time></trkpt><trkpt lat="44.22754470109922" lon="9.965759468783821"><ele>66.0</ele><time>2026-05-03T07:35:30.874Z</time></trkpt><trkpt lat="44.22742512636118" lon="9.965810860661113"><ele>65.5</ele><time>2026-05-03T07:35:31.874Z</time></trkpt><trkpt lat="44.22730940321287" lon="9.965871829719987"><ele>65.0</ele><time>2026-05-03T07:35:32.874Z</time></trkpt><trkpt lat="44.22720141324359" lon="9.965944984086814"><ele>64.5</ele><time>2026-05-03T07:35:33.874Z</time></trkpt><trkpt lat="44.22710006779666" lon="9.96603401957679"><ele>64.0</ele><time>2026-05-03T07:35:34.873Z</time></trkpt><trkpt lat="44.227013265713815" lon="9.966140560459257"><ele>64.0</ele><time>2026-05-03T07:35:35.873Z</time></trkpt><trkpt lat="44.22693590073825" lon="9.966256699883129"><ele>64.0</ele><time>2026-05-03T07:35:36.873Z</time></trkpt><trkpt lat="44.22685434794692" lon="9.966383057276872"><ele>64.0</ele><time>2026-05-03T07:35:37.873Z</time></trkpt><trkpt lat="44.22677650989793" lon="9.966515414778605"><ele>64.0</ele><time>2026-05-03T07:35:38.873Z</time></trkpt><trkpt lat="44.22669914414871" lon="9.966643115833088"><ele>64.5</ele><time>2026-05-03T07:35:39.873Z</time></trkpt><trkpt lat="44.226622624619914" lon="9.966768915554871"><ele>65.0</ele><time>2026-05-03T07:35:40.873Z</time></trkpt><trkpt lat="44.22654649178371" lon="9.966898045239342"><ele>65.5</ele><time>2026-05-03T07:35:41.873Z</time></trkpt><trkpt lat="44.22646800058422" lon="9.967027332896347"><ele>66.0</ele><time>2026-05-03T07:35:42.873Z</time></trkpt><trkpt lat="44.22638853147844" lon="9.967153791885908"><ele>66.0</ele><time>2026-05-03T07:35:43.873Z</time></trkpt><trkpt lat="44.226308155983844" lon="9.967277049303572"><ele>66.0</ele><time>2026-05-03T07:35:44.873Z</time></trkpt><trkpt lat="44.226227112669804" lon="9.96740183152685"><ele>66.0</ele><time>2026-05-03T07:35:45.873Z</time></trkpt><trkpt lat="44.22614611321419" lon="9.967520279384914"><ele>66.0</ele><time>2026-05-03T07:35:46.873Z</time></trkpt><trkpt lat="44.22606455983369" lon="9.967634914867336"><ele>66.25</ele><time>2026-05-03T07:35:47.873Z</time></trkpt><trkpt lat="44.225981945380376" lon="9.96774840170173"><ele>66.5</ele><time>2026-05-03T07:35:48.873Z</time></trkpt><trkpt lat="44.22589307965336" lon="9.967867708223308"><ele>66.75</ele><time>2026-05-03T07:35:49.873Z</time></trkpt><trkpt lat="44.22579744747584" lon="9.96798187057276"><ele>67.0</ele><time>2026-05-03T07:35:50.873Z</time></trkpt><trkpt lat="44.22569534504867" lon="9.968093711618508"><ele>67.0</ele><time>2026-05-03T07:35:51.873Z</time></trkpt><trkpt lat="44.22558797843087" lon="9.968204981672507"><ele>67.0</ele><time>2026-05-03T07:35:52.873Z</time></trkpt><trkpt lat="44.22547251802998" lon="9.968319645552887"><ele>67.0</ele><time>2026-05-03T07:35:53.873Z</time></trkpt><trkpt lat="44.22535495268686" lon="9.9684298029719"><ele>67.0</ele><time>2026-05-03T07:35:54.873Z</time></trkpt><trkpt lat="44.225238860411444" lon="9.968533446830186"><ele>67.0</ele><time>2026-05-03T07:35:55.873Z</time></trkpt><trkpt lat="44.22512441588363" lon="9.968633105889893"><ele>67.0</ele><time>2026-05-03T07:35:56.873Z</time></trkpt><trkpt lat="44.22500860243536" lon="9.968731280143924"><ele>67.0</ele><time>2026-05-03T07:35:57.873Z</time></trkpt><trkpt lat="44.224890924824784" lon="9.96882360668195"><ele>67.0</ele><time>2026-05-03T07:35:58.873Z</time></trkpt><trkpt lat="44.22477614502305" lon="9.968911023784056"><ele>66.75</ele><time>2026-05-03T07:35:59.873Z</time></trkpt><trkpt lat="44.22466698983569" lon="9.968981529984019"><ele>66.5</ele><time>2026-05-03T07:36:00.873Z</time></trkpt><trkpt lat="44.22456186256774" lon="9.9690437779049"><ele>66.25</ele><time>2026-05-03T07:36:01.872Z</time></trkpt><trkpt lat="44.22445853345169" lon="9.96909817212109"><ele>66.0</ele><time>2026-05-03T07:36:02.872Z</time></trkpt><trkpt lat="44.22435712742898" lon="9.969151406740222"><ele>66.0</ele><time>2026-05-03T07:36:03.872Z</time></trkpt><trkpt lat="44.22424832088947" lon="9.969210811325793"><ele>66.0</ele><time>2026-05-03T07:36:04.872Z</time></trkpt><trkpt lat="44.22414012192311" lon="9.969269683106404"><ele>66.0</ele><time>2026-05-03T07:36:05.872Z</time></trkpt><trkpt lat="44.22403348003554" lon="9.969325818530903"><ele>66.0</ele><time>2026-05-03T07:36:06.872Z</time></trkpt><trkpt lat="44.22392534206446" lon="9.969381776624182"><ele>66.2</ele><time>2026-05-03T07:36:07.872Z</time></trkpt><trkpt lat="44.22381494575814" lon="9.9694359956966"><ele>66.39999999999999</ele><time>2026-05-03T07:36:08.872Z</time></trkpt><trkpt lat="44.22370499654487" lon="9.969493016439683"><ele>66.6</ele><time>2026-05-03T07:36:09.872Z</time></trkpt><trkpt lat="44.22360675653006" lon="9.969541377787085"><ele>66.8</ele><time>2026-05-03T07:36:10.872Z</time></trkpt><trkpt lat="44.22352145070466" lon="9.969585239753416"><ele>67.0</ele><time>2026-05-03T07:36:11.872Z</time></trkpt><trkpt lat="44.223454287737816" lon="9.969619136214675"><ele>67.0</ele><time>2026-05-03T07:36:12.872Z</time></trkpt><trkpt lat="44.22335906445913" lon="9.969669773328011"><ele>67.0</ele><time>2026-05-03T07:36:14.872Z</time></trkpt><trkpt lat="44.22328276679127" lon="9.969712804222901"><ele>67.0</ele><time>2026-05-03T07:36:17.872Z</time></trkpt><trkpt lat="44.22326576703091" lon="9.96989015325425"><ele>67.0</ele><time>2026-05-03T07:36:19.872Z</time></trkpt><trkpt lat="44.22331212793269" lon="9.969999170730874"><ele>67.0</ele><time>2026-05-03T07:36:20.872Z</time></trkpt><trkpt lat="44.223357387904834" lon="9.970108943121431"><ele>66.75</ele><time>2026-05-03T07:36:21.872Z</time></trkpt><trkpt lat="44.22340409893274" lon="9.970259069331576"><ele>66.5</ele><time>2026-05-03T07:36:22.872Z</time></trkpt><trkpt lat="44.22345102008014" lon="9.970445037586085"><ele>66.25</ele><time>2026-05-03T07:36:23.872Z</time></trkpt><trkpt lat="44.22350344714538" lon="9.970652159279227"><ele>66.0</ele><time>2026-05-03T07:36:24.872Z</time></trkpt><trkpt lat="44.223559632999006" lon="9.970879592596111"><ele>65.33333333333333</ele><time>2026-05-03T07:36:25.872Z</time></trkpt><trkpt lat="44.22362404624062" lon="9.971134409310125"><ele>64.66666666666666</ele><time>2026-05-03T07:36:26.872Z</time></trkpt><trkpt lat="44.22368625813683" lon="9.971395577971757"><ele>64.0</ele><time>2026-05-03T07:36:27.872Z</time></trkpt><trkpt lat="44.223746798919315" lon="9.97166045392504"><ele>63.33333333333333</ele><time>2026-05-03T07:36:28.872Z</time></trkpt><trkpt lat="44.22381573165341" lon="9.971939762735966"><ele>62.66666666666667</ele><time>2026-05-03T07:36:29.872Z</time></trkpt><trkpt lat="44.22388260341341" lon="9.972218871790083"><ele>62.0</ele><time>2026-05-03T07:36:30.872Z</time></trkpt><trkpt lat="44.22394994437716" lon="9.972492263751617"><ele>62.66666666666667</ele><time>2026-05-03T07:36:31.872Z</time></trkpt><trkpt lat="44.22401854712021" lon="9.972754615087622"><ele>63.33333333333333</ele><time>2026-05-03T07:36:32.872Z</time></trkpt><trkpt lat="44.22408264521459" lon="9.973009427880793"><ele>64.0</ele><time>2026-05-03T07:36:33.872Z</time></trkpt><trkpt lat="44.224138290209204" lon="9.973244438578298"><ele>64.5</ele><time>2026-05-03T07:36:34.872Z</time></trkpt><trkpt lat="44.22418809370341" lon="9.973460180104055"><ele>65.0</ele><time>2026-05-03T07:36:35.872Z</time></trkpt><trkpt lat="44.22423092125096" lon="9.973654302157506"><ele>65.5</ele><time>2026-05-03T07:36:36.872Z</time></trkpt><trkpt lat="44.224260701670225" lon="9.973802987369675"><ele>66.0</ele><time>2026-05-03T07:36:37.872Z</time></trkpt><trkpt lat="44.224279314354504" lon="9.973920737676043"><ele>66.0</ele><time>2026-05-03T07:36:38.872Z</time></trkpt><trkpt lat="44.224261897235216" lon="9.974024822971057"><ele>66.0</ele><time>2026-05-03T07:36:39.872Z</time></trkpt><trkpt lat="44.2242121177454" lon="9.974106071338573"><ele>66.0</ele><time>2026-05-03T07:36:40.872Z</time></trkpt><trkpt lat="44.22413115673756" lon="9.974159728034431"><ele>66.0</ele><time>2026-05-03T07:36:41.872Z</time></trkpt><trkpt lat="44.224035892228386" lon="9.974230235278062"><ele>66.0</ele><time>2026-05-03T07:36:42.872Z</time></trkpt><trkpt lat="44.223927449216525" lon="9.974310036248951"><ele>66.33333333333333</ele><time>2026-05-03T07:36:43.872Z</time></trkpt><trkpt lat="44.22379462646844" lon="9.974397277097784"><ele>66.66666666666666</ele><time>2026-05-03T07:36:44.872Z</time></trkpt><trkpt lat="44.22364287325825" lon="9.974493581351407"><ele>67.0</ele><time>2026-05-03T07:36:45.872Z</time></trkpt><trkpt lat="44.22348582244304" lon="9.974596218663773"><ele>67.0</ele><time>2026-05-03T07:36:46.872Z</time></trkpt><trkpt lat="44.22330829715431" lon="9.974708882905203"><ele>67.0</ele><time>2026-05-03T07:36:47.872Z</time></trkpt><trkpt lat="44.223119601163845" lon="9.974818514299846"><ele>67.0</ele><time>2026-05-03T07:36:48.872Z</time></trkpt><trkpt lat="44.22292320468899" lon="9.974929666866943"><ele>70.33333333333333</ele><time>2026-05-03T07:36:49.872Z</time></trkpt><trkpt lat="44.22272212169238" lon="9.975041830325589"><ele>73.66666666666667</ele><time>2026-05-03T07:36:50.871Z</time></trkpt><trkpt lat="44.222511205732275" lon="9.975154158179937"><ele>77.0</ele><time>2026-05-03T07:36:51.871Z</time></trkpt><trkpt lat="44.22229049524635" lon="9.975264982021189"><ele>77.0</ele><time>2026-05-03T07:36:52.871Z</time></trkpt><trkpt lat="44.2220730599075" lon="9.975378062579502"><ele>77.0</ele><time>2026-05-03T07:36:53.871Z</time></trkpt><trkpt lat="44.22186686485075" lon="9.97548334942922"><ele>77.0</ele><time>2026-05-03T07:36:54.871Z</time></trkpt><trkpt lat="44.22167529756999" lon="9.975578696149555"><ele>77.0</ele><time>2026-05-03T07:36:55.871Z</time></trkpt><trkpt lat="44.221496266253176" lon="9.975651134943838"><ele>77.0</ele><time>2026-05-03T07:36:56.871Z</time></trkpt><trkpt lat="44.22131843787519" lon="9.975697629565998"><ele>74.33333333333334</ele><time>2026-05-03T07:36:57.871Z</time></trkpt><trkpt lat="44.22114348699645" lon="9.97571492471277"><ele>71.66666666666667</ele><time>2026-05-03T07:36:58.871Z</time></trkpt><trkpt lat="44.220968547426395" lon="9.975682167678567"><ele>69.0</ele><time>2026-05-03T07:36:59.871Z</time></trkpt><trkpt lat="44.22078750230142" lon="9.975621624262669"><ele>68.33333333333333</ele><time>2026-05-03T07:37:00.871Z</time></trkpt><trkpt lat="44.220610557609454" lon="9.975546488498553"><ele>67.66666666666666</ele><time>2026-05-03T07:37:01.871Z</time></trkpt><trkpt lat="44.22044287993236" lon="9.97547727159304"><ele>67.0</ele><time>2026-05-03T07:37:02.871Z</time></trkpt><trkpt lat="44.22027978521476" lon="9.975427499774883"><ele>67.0</ele><time>2026-05-03T07:37:03.871Z</time></trkpt><trkpt lat="44.220125379046245" lon="9.975412117164128"><ele>67.0</ele><time>2026-05-03T07:37:04.871Z</time></trkpt><trkpt lat="44.21996455439706" lon="9.975431984693738"><ele>67.0</ele><time>2026-05-03T07:37:05.871Z</time></trkpt><trkpt lat="44.219798493150705" lon="9.975491854099579"><ele>70.66666666666666</ele><time>2026-05-03T07:37:06.871Z</time></trkpt><trkpt lat="44.2196332880169" lon="9.975563247074023"><ele>74.33333333333333</ele><time>2026-05-03T07:37:07.871Z</time></trkpt><trkpt lat="44.21946860575909" lon="9.975630532630117"><ele>78.0</ele><time>2026-05-03T07:37:08.871Z</time></trkpt><trkpt lat="44.2192972141007" lon="9.975693772390565"><ele>78.0</ele><time>2026-05-03T07:37:09.871Z</time></trkpt><trkpt lat="44.219107627729336" lon="9.975754237215682"><ele>78.0</ele><time>2026-05-03T07:37:10.871Z</time></trkpt><trkpt lat="44.21888989705213" lon="9.975813905104728"><ele>78.0</ele><time>2026-05-03T07:37:11.871Z</time></trkpt><trkpt lat="44.21864753902338" lon="9.97587393068291"><ele>78.0</ele><time>2026-05-03T07:37:12.871Z</time></trkpt><trkpt lat="44.218395571006035" lon="9.975942751132248"><ele>78.0</ele><time>2026-05-03T07:37:13.871Z</time></trkpt><trkpt lat="44.218145609477716" lon="9.976014322216752"><ele>77.0</ele><time>2026-05-03T07:37:14.871Z</time></trkpt><trkpt lat="44.21789945864677" lon="9.976088518810688"><ele>76.0</ele><time>2026-05-03T07:37:15.871Z</time></trkpt><trkpt lat="44.217652726885554" lon="9.976166834042512"><ele>76.0</ele><time>2026-05-03T07:37:16.871Z</time></trkpt><trkpt lat="44.217408688985955" lon="9.976235817213851"><ele>76.0</ele><time>2026-05-03T07:37:17.871Z</time></trkpt><trkpt lat="44.21718648977089" lon="9.97631108859529"><ele>76.0</ele><time>2026-05-03T07:37:18.871Z</time></trkpt><trkpt lat="44.216976889893154" lon="9.976376100765439"><ele>76.0</ele><time>2026-05-03T07:37:19.871Z</time></trkpt><trkpt lat="44.21677369148739" lon="9.976441354914774"><ele>76.0</ele><time>2026-05-03T07:37:20.871Z</time></trkpt><trkpt lat="44.21657225879695" lon="9.976509416031858"><ele>77.66666666666666</ele><time>2026-05-03T07:37:21.871Z</time></trkpt><trkpt lat="44.216371151785765" lon="9.9765719164768"><ele>79.33333333333333</ele><time>2026-05-03T07:37:22.871Z</time></trkpt><trkpt lat="44.21617610237871" lon="9.976635861826168"><ele>81.0</ele><time>2026-05-03T07:37:23.871Z</time></trkpt><trkpt lat="44.215986359272875" lon="9.97669710501803"><ele>77.33333333333333</ele><time>2026-05-03T07:37:24.871Z</time></trkpt><trkpt lat="44.21580047383175" lon="9.976757613245395"><ele>73.66666666666666</ele><time>2026-05-03T07:37:25.871Z</time></trkpt><trkpt lat="44.21562046843171" lon="9.97684838445917"><ele>70.0</ele><time>2026-05-03T07:37:26.871Z</time></trkpt><trkpt lat="44.21546033374432" lon="9.976977166303513"><ele>69.33333333333333</ele><time>2026-05-03T07:37:27.871Z</time></trkpt><trkpt lat="44.215305995774266" lon="9.977107584895675"><ele>68.66666666666667</ele><time>2026-05-03T07:37:28.871Z</time></trkpt><trkpt lat="44.21516060678457" lon="9.977216083406809"><ele>68.0</ele><time>2026-05-03T07:37:29.871Z</time></trkpt><trkpt lat="44.21500177329762" lon="9.977291372176257"><ele>68.0</ele><time>2026-05-03T07:37:30.871Z</time></trkpt><trkpt lat="44.214833887550576" lon="9.977336614394813"><ele>68.0</ele><time>2026-05-03T07:37:31.871Z</time></trkpt><trkpt lat="44.21466204070025" lon="9.977357270404298"><ele>68.0</ele><time>2026-05-03T07:37:32.871Z</time></trkpt><trkpt lat="44.21448214242233" lon="9.977356648906618"><ele>68.0</ele><time>2026-05-03T07:37:33.871Z</time></trkpt><trkpt lat="44.21430213232823" lon="9.977388106647279"><ele>68.0</ele><time>2026-05-03T07:37:34.871Z</time></trkpt><trkpt lat="44.21411312605324" lon="9.977447952389074"><ele>68.0</ele><time>2026-05-03T07:37:35.871Z</time></trkpt><trkpt lat="44.213920185457674" lon="9.977521637940391"><ele>67.33333333333334</ele><time>2026-05-03T07:37:36.871Z</time></trkpt><trkpt lat="44.21373348753879" lon="9.977601116418606"><ele>66.66666666666667</ele><time>2026-05-03T07:37:37.871Z</time></trkpt><trkpt lat="44.21355344276489" lon="9.977646429560892"><ele>66.0</ele><time>2026-05-03T07:37:38.871Z</time></trkpt><trkpt lat="44.213356733409114" lon="9.97765867781014"><ele>67.33333333333333</ele><time>2026-05-03T07:37:39.871Z</time></trkpt><trkpt lat="44.213154471740914" lon="9.977660228766403"><ele>68.66666666666666</ele><time>2026-05-03T07:37:40.871Z</time></trkpt><trkpt lat="44.21295132485861" lon="9.977656561578387"><ele>70.0</ele><time>2026-05-03T07:37:41.871Z</time></trkpt><trkpt lat="44.212746279940255" lon="9.977650979898868"><ele>70.0</ele><time>2026-05-03T07:37:42.871Z</time></trkpt><trkpt lat="44.21254112235748" lon="9.977653478319693"><ele>70.0</ele><time>2026-05-03T07:37:43.871Z</time></trkpt><trkpt lat="44.21234014028313" lon="9.977661738887024"><ele>70.0</ele><time>2026-05-03T07:37:44.871Z</time></trkpt><trkpt lat="44.21215415057731" lon="9.977666624276509"><ele>71.33333333333333</ele><time>2026-05-03T07:37:45.871Z</time></trkpt><trkpt lat="44.21197779383285" lon="9.977663468413708"><ele>72.66666666666667</ele><time>2026-05-03T07:37:46.871Z</time></trkpt><trkpt lat="44.21181226014944" lon="9.97764854940904"><ele>74.0</ele><time>2026-05-03T07:37:47.871Z</time></trkpt><trkpt lat="44.2116625764907" lon="9.977610001287733"><ele>74.0</ele><time>2026-05-03T07:37:48.871Z</time></trkpt><trkpt lat="44.211515422626" lon="9.977551292013148"><ele>74.0</ele><time>2026-05-03T07:37:49.871Z</time></trkpt><trkpt lat="44.21137173033082" lon="9.97750401786737"><ele>74.0</ele><time>2026-05-03T07:37:50.871Z</time></trkpt><trkpt lat="44.21122800397648" lon="9.97752114373569"><ele>74.0</ele><time>2026-05-03T07:37:51.871Z</time></trkpt><trkpt lat="44.21097619780613" lon="9.977584743781515"><ele>73.25</ele><time>2026-05-03T07:37:53.871Z</time></trkpt><trkpt lat="44.21085972678178" lon="9.977567421275017"><ele>72.5</ele><time>2026-05-03T07:37:54.871Z</time></trkpt><trkpt lat="44.21075418474408" lon="9.977482074814542"><ele>71.75</ele><time>2026-05-03T07:37:55.871Z</time></trkpt><trkpt lat="44.21067417100117" lon="9.977351815578814"><ele>71.0</ele><time>2026-05-03T07:37:56.871Z</time></trkpt><trkpt lat="44.21057876932848" lon="9.977223143722227"><ele>73.25</ele><time>2026-05-03T07:37:57.871Z</time></trkpt><trkpt lat="44.210460005913625" lon="9.977136242894973"><ele>75.5</ele><time>2026-05-03T07:37:58.871Z</time></trkpt><trkpt lat="44.210315265980405" lon="9.977077373607534"><ele>77.75</ele><time>2026-05-03T07:37:59.871Z</time></trkpt><trkpt lat="44.21015320310056" lon="9.977039381866044"><ele>80.0</ele><time>2026-05-03T07:38:00.87Z</time></trkpt><trkpt lat="44.20999641217138" lon="9.977002887614344"><ele>80.0</ele><time>2026-05-03T07:38:01.87Z</time></trkpt><trkpt lat="44.209836588859005" lon="9.976964845126231"><ele>80.0</ele><time>2026-05-03T07:38:02.87Z</time></trkpt><trkpt lat="44.20969003852441" lon="9.976931266999587"><ele>80.0</ele><time>2026-05-03T07:38:03.87Z</time></trkpt><trkpt lat="44.209554919496796" lon="9.97689620798624"><ele>80.0</ele><time>2026-05-03T07:38:04.87Z</time></trkpt><trkpt lat="44.20942459268348" lon="9.976859679256942"><ele>80.5</ele><time>2026-05-03T07:38:05.87Z</time></trkpt><trkpt lat="44.20929203207461" lon="9.976820691134142"><ele>81.0</ele><time>2026-05-03T07:38:06.87Z</time></trkpt><trkpt lat="44.20916338957856" lon="9.976785485561658"><ele>81.5</ele><time>2026-05-03T07:38:07.87Z</time></trkpt><trkpt lat="44.209040669794064" lon="9.976765170361137"><ele>82.0</ele><time>2026-05-03T07:38:08.87Z</time></trkpt><trkpt lat="44.20893236540087" lon="9.976756849903488"><ele>80.0</ele><time>2026-05-03T07:38:09.87Z</time></trkpt><trkpt lat="44.208834698321446" lon="9.97674453942514"><ele>78.0</ele><time>2026-05-03T07:38:10.869Z</time></trkpt><trkpt lat="44.208747495251885" lon="9.976726613588605"><ele>76.0</ele><time>2026-05-03T07:38:11.869Z</time></trkpt><trkpt lat="44.20868013640435" lon="9.976706999907968"><ele>74.0</ele><time>2026-05-03T07:38:12.869Z</time></trkpt><trkpt lat="44.20861552192577" lon="9.976681464592653"><ele>72.0</ele><time>2026-05-03T07:38:15.869Z</time></trkpt><trkpt lat="44.208519618297316" lon="9.976674591986589"><ele>70.0</ele><time>2026-05-03T07:38:20.869Z</time></trkpt><trkpt lat="44.20842222411189" lon="9.976804896783069"><ele>70.0</ele><time>2026-05-03T07:38:22.869Z</time></trkpt><trkpt lat="44.20837385493532" lon="9.976909396049033"><ele>70.0</ele><time>2026-05-03T07:38:23.869Z</time></trkpt><trkpt lat="44.2083042746232" lon="9.977018022040644"><ele>70.0</ele><time>2026-05-03T07:38:24.869Z</time></trkpt><trkpt lat="44.20819913214541" lon="9.977104631439811"><ele>70.0</ele><time>2026-05-03T07:38:25.869Z</time></trkpt><trkpt lat="44.208076142666535" lon="9.977173675196411"><ele>70.0</ele><time>2026-05-03T07:38:26.869Z</time></trkpt><trkpt lat="44.207949076858156" lon="9.977228466780144"><ele>69.5</ele><time>2026-05-03T07:38:27.869Z</time></trkpt><trkpt lat="44.20781775007369" lon="9.977281854657395"><ele>69.0</ele><time>2026-05-03T07:38:28.869Z</time></trkpt><trkpt lat="44.20769502793783" lon="9.977350683090139"><ele>68.5</ele><time>2026-05-03T07:38:29.869Z</time></trkpt><trkpt lat="44.20757909974829" lon="9.977428423214551"><ele>68.0</ele><time>2026-05-03T07:38:30.869Z</time></trkpt><trkpt lat="44.207475513943024" lon="9.977534860885754"><ele>68.0</ele><time>2026-05-03T07:38:31.869Z</time></trkpt><trkpt lat="44.20738252935537" lon="9.977652200087487"><ele>68.0</ele><time>2026-05-03T07:38:32.869Z</time></trkpt><trkpt lat="44.20728945933007" lon="9.977788812646745"><ele>68.0</ele><time>2026-05-03T07:38:33.869Z</time></trkpt><trkpt lat="44.207199647869544" lon="9.97792295531779"><ele>68.0</ele><time>2026-05-03T07:38:34.869Z</time></trkpt><trkpt lat="44.20711831874972" lon="9.978067774117426"><ele>66.5</ele><time>2026-05-03T07:38:35.869Z</time></trkpt><trkpt lat="44.20703792624427" lon="9.978212460319966"><ele>65.0</ele><time>2026-05-03T07:38:36.869Z</time></trkpt><trkpt lat="44.20696369541807" lon="9.97836071619758"><ele>63.5</ele><time>2026-05-03T07:38:37.869Z</time></trkpt><trkpt lat="44.20689451427017" lon="9.978507265875221"><ele>62.0</ele><time>2026-05-03T07:38:38.869Z</time></trkpt><trkpt lat="44.206834738641206" lon="9.9786566230176"><ele>62.0</ele><time>2026-05-03T07:38:39.869Z</time></trkpt><trkpt lat="44.20677757303971" lon="9.978812147833844"><ele>62.0</ele><time>2026-05-03T07:38:40.869Z</time></trkpt><trkpt lat="44.206725837167774" lon="9.978961892270927"><ele>62.0</ele><time>2026-05-03T07:38:41.869Z</time></trkpt><trkpt lat="44.206677792833936" lon="9.979109328425666"><ele>62.0</ele><time>2026-05-03T07:38:42.869Z</time></trkpt><trkpt lat="44.206633959564954" lon="9.979247522969096"><ele>62.0</ele><time>2026-05-03T07:38:43.869Z</time></trkpt><trkpt lat="44.206570426547486" lon="9.979357257489303"><ele>62.0</ele><time>2026-05-03T07:38:44.869Z</time></trkpt><trkpt lat="44.20647625238695" lon="9.979435643139915"><ele>62.0</ele><time>2026-05-03T07:38:45.869Z</time></trkpt><trkpt lat="44.20636062628515" lon="9.97947458630974"><ele>62.0</ele><time>2026-05-03T07:38:46.869Z</time></trkpt><trkpt lat="44.20623644313142" lon="9.979497349743246"><ele>62.0</ele><time>2026-05-03T07:38:47.869Z</time></trkpt><trkpt lat="44.20611124618076" lon="9.979518953653082"><ele>62.0</ele><time>2026-05-03T07:38:48.869Z</time></trkpt><trkpt lat="44.2059872450346" lon="9.979537789317504"><ele>62.0</ele><time>2026-05-03T07:38:49.869Z</time></trkpt><trkpt lat="44.20586472725822" lon="9.979566824614857"><ele>62.0</ele><time>2026-05-03T07:38:50.868Z</time></trkpt><trkpt lat="44.20574984198367" lon="9.979618346160219"><ele>61.5</ele><time>2026-05-03T07:38:51.868Z</time></trkpt><trkpt lat="44.20563218723022" lon="9.979697360295523"><ele>61.0</ele><time>2026-05-03T07:38:52.868Z</time></trkpt><trkpt lat="44.205512917417224" lon="9.979784799247128"><ele>60.5</ele><time>2026-05-03T07:38:53.868Z</time></trkpt><trkpt lat="44.205407159093554" lon="9.979872165406174"><ele>60.0</ele><time>2026-05-03T07:38:54.868Z</time></trkpt><trkpt lat="44.205303886927744" lon="9.979969160095553"><ele>60.6</ele><time>2026-05-03T07:38:55.868Z</time></trkpt><trkpt lat="44.20520324572912" lon="9.980048903911538"><ele>61.2</ele><time>2026-05-03T07:38:56.868Z</time></trkpt><trkpt lat="44.20511525296733" lon="9.980116508132802"><ele>61.8</ele><time>2026-05-03T07:38:57.868Z</time></trkpt><trkpt lat="44.20503013505601" lon="9.980184378649463"><ele>62.4</ele><time>2026-05-03T07:38:58.868Z</time></trkpt><trkpt lat="44.20492747125619" lon="9.980264296991733"><ele>63.0</ele><time>2026-05-03T07:38:59.868Z</time></trkpt><trkpt lat="44.204819407802866" lon="9.980340221449639"><ele>63.0</ele><time>2026-05-03T07:39:00.868Z</time></trkpt><trkpt lat="44.204706879834134" lon="9.980399425418202"><ele>63.0</ele><time>2026-05-03T07:39:01.868Z</time></trkpt><trkpt lat="44.20458860123202" lon="9.980434033204725"><ele>63.0</ele><time>2026-05-03T07:39:02.868Z</time></trkpt><trkpt lat="44.20446636029034" lon="9.980475762458765"><ele>63.0</ele><time>2026-05-03T07:39:03.868Z</time></trkpt><trkpt lat="44.204347391622655" lon="9.980548234952572"><ele>63.0</ele><time>2026-05-03T07:39:04.868Z</time></trkpt><trkpt lat="44.20423632600324" lon="9.980651075119104"><ele>63.0</ele><time>2026-05-03T07:39:05.868Z</time></trkpt><trkpt lat="44.20412576837242" lon="9.98077385111022"><ele>63.0</ele><time>2026-05-03T07:39:06.868Z</time></trkpt><trkpt lat="44.20401680050678" lon="9.980902491076217"><ele>63.0</ele><time>2026-05-03T07:39:07.868Z</time></trkpt><trkpt lat="44.203907090557756" lon="9.981025639354149"><ele>66.25</ele><time>2026-05-03T07:39:08.868Z</time></trkpt><trkpt lat="44.20378947299315" lon="9.98112867695367"><ele>69.5</ele><time>2026-05-03T07:39:09.868Z</time></trkpt><trkpt lat="44.20366690813916" lon="9.98120080033087"><ele>72.75</ele><time>2026-05-03T07:39:10.868Z</time></trkpt><trkpt lat="44.2035407808268" lon="9.981240810023857"><ele>76.0</ele><time>2026-05-03T07:39:11.868Z</time></trkpt><trkpt lat="44.20339985604534" lon="9.981254426565243"><ele>76.0</ele><time>2026-05-03T07:39:12.868Z</time></trkpt><trkpt lat="44.203243768588734" lon="9.981261513923188"><ele>76.0</ele><time>2026-05-03T07:39:13.868Z</time></trkpt><trkpt lat="44.203107865737884" lon="9.981290828396912"><ele>76.0</ele><time>2026-05-03T07:39:14.868Z</time></trkpt><trkpt lat="44.20297221929404" lon="9.981330840297924"><ele>76.0</ele><time>2026-05-03T07:39:15.868Z</time></trkpt><trkpt lat="44.20283600773392" lon="9.98140127575712"><ele>73.0</ele><time>2026-05-03T07:39:16.868Z</time></trkpt><trkpt lat="44.20271432532863" lon="9.98150918133975"><ele>70.0</ele><time>2026-05-03T07:39:17.868Z</time></trkpt><trkpt lat="44.20259488773343" lon="9.98164134685152"><ele>67.0</ele><time>2026-05-03T07:39:18.868Z</time></trkpt><trkpt lat="44.2024706764147" lon="9.981770891405041"><ele>68.33333333333333</ele><time>2026-05-03T07:39:19.868Z</time></trkpt><trkpt lat="44.20233436029513" lon="9.981883942215447"><ele>69.66666666666667</ele><time>2026-05-03T07:39:20.868Z</time></trkpt><trkpt lat="44.20219170032358" lon="9.98197722951192"><ele>71.0</ele><time>2026-05-03T07:39:21.868Z</time></trkpt><trkpt lat="44.20205078967078" lon="9.982057721773595"><ele>71.0</ele><time>2026-05-03T07:39:22.868Z</time></trkpt><trkpt lat="44.20191980799857" lon="9.982146511966477"><ele>71.0</ele><time>2026-05-03T07:39:23.868Z</time></trkpt><trkpt lat="44.20180198832349" lon="9.982253210366329"><ele>71.0</ele><time>2026-05-03T07:39:24.868Z</time></trkpt><trkpt lat="44.20169468231345" lon="9.982377474841764"><ele>71.0</ele><time>2026-05-03T07:39:25.868Z</time></trkpt><trkpt lat="44.20159324380248" lon="9.98251445813842"><ele>69.25</ele><time>2026-05-03T07:39:26.868Z</time></trkpt><trkpt lat="44.201494957896614" lon="9.982656290333157"><ele>67.5</ele><time>2026-05-03T07:39:27.868Z</time></trkpt><trkpt lat="44.20140690468209" lon="9.982798999081384"><ele>65.75</ele><time>2026-05-03T07:39:28.868Z</time></trkpt><trkpt lat="44.20132660416685" lon="9.982935131944101"><ele>64.0</ele><time>2026-05-03T07:39:29.868Z</time></trkpt><trkpt lat="44.20125175866773" lon="9.983068404374668"><ele>64.0</ele><time>2026-05-03T07:39:30.868Z</time></trkpt><trkpt lat="44.201183318719984" lon="9.983207590648547"><ele>64.0</ele><time>2026-05-03T07:39:31.868Z</time></trkpt><trkpt lat="44.201123057610566" lon="9.983350578784378"><ele>64.0</ele><time>2026-05-03T07:39:32.868Z</time></trkpt><trkpt lat="44.20107632155838" lon="9.983516831553457"><ele>64.0</ele><time>2026-05-03T07:39:33.868Z</time></trkpt><trkpt lat="44.20104791981245" lon="9.9836922066345"><ele>64.5</ele><time>2026-05-03T07:39:34.868Z</time></trkpt><trkpt lat="44.20104347252283" lon="9.983877840465812"><ele>65.0</ele><time>2026-05-03T07:39:35.868Z</time></trkpt><trkpt lat="44.20106306590655" lon="9.984065367442124"><ele>65.5</ele><time>2026-05-03T07:39:36.868Z</time></trkpt><trkpt lat="44.20110218459655" lon="9.98425140178329"><ele>66.0</ele><time>2026-05-03T07:39:37.868Z</time></trkpt><trkpt lat="44.20114952365474" lon="9.984432889154533"><ele>66.0</ele><time>2026-05-03T07:39:38.868Z</time></trkpt><trkpt lat="44.20119256303089" lon="9.984613145667526"><ele>66.0</ele><time>2026-05-03T07:39:39.868Z</time></trkpt><trkpt lat="44.201240245110334" lon="9.984787352751711"><ele>66.0</ele><time>2026-05-03T07:39:40.868Z</time></trkpt><trkpt lat="44.201275059892055" lon="9.98496954969907"><ele>66.0</ele><time>2026-05-03T07:39:41.868Z</time></trkpt><trkpt lat="44.20131653379008" lon="9.985133537437614"><ele>66.0</ele><time>2026-05-03T07:39:42.868Z</time></trkpt><trkpt lat="44.201352710205725" lon="9.985311161482203"><ele>66.0</ele><time>2026-05-03T07:39:43.868Z</time></trkpt><trkpt lat="44.20137717610627" lon="9.985494382508264"><ele>66.0</ele><time>2026-05-03T07:39:44.868Z</time></trkpt><trkpt lat="44.20137626039225" lon="9.985680001309827"><ele>66.0</ele><time>2026-05-03T07:39:45.868Z</time></trkpt><trkpt lat="44.201352141058976" lon="9.985870087347301"><ele>66.0</ele><time>2026-05-03T07:39:46.868Z</time></trkpt><trkpt lat="44.20131789402658" lon="9.98605350473028"><ele>66.0</ele><time>2026-05-03T07:39:47.868Z</time></trkpt><trkpt lat="44.201285981591354" lon="9.986232214649352"><ele>66.0</ele><time>2026-05-03T07:39:48.868Z</time></trkpt><trkpt lat="44.20127477643526" lon="9.986422007318128"><ele>66.0</ele><time>2026-05-03T07:39:49.868Z</time></trkpt><trkpt lat="44.20128104605696" lon="9.986622073624293"><ele>66.25</ele><time>2026-05-03T07:39:50.868Z</time></trkpt><trkpt lat="44.20129621710356" lon="9.986827594906643"><ele>66.5</ele><time>2026-05-03T07:39:51.868Z</time></trkpt><trkpt lat="44.201309166955106" lon="9.98702984431026"><ele>66.75</ele><time>2026-05-03T07:39:52.868Z</time></trkpt><trkpt lat="44.20131300048437" lon="9.987229873532012"><ele>67.0</ele><time>2026-05-03T07:39:53.868Z</time></trkpt><trkpt lat="44.201308399350474" lon="9.98742400431366"><ele>67.0</ele><time>2026-05-03T07:39:54.868Z</time></trkpt><trkpt lat="44.20129507987695" lon="9.987623237915557"><ele>67.0</ele><time>2026-05-03T07:39:55.868Z</time></trkpt><trkpt lat="44.20128214870893" lon="9.987820477567313"><ele>67.0</ele><time>2026-05-03T07:39:56.868Z</time></trkpt><trkpt lat="44.201286418417624" lon="9.988017496261364"><ele>67.0</ele><time>2026-05-03T07:39:57.868Z</time></trkpt><trkpt lat="44.20130349447451" lon="9.988221632759934"><ele>66.5</ele><time>2026-05-03T07:39:58.868Z</time></trkpt><trkpt lat="44.2013301082948" lon="9.988425476434049"><ele>66.0</ele><time>2026-05-03T07:39:59.868Z</time></trkpt><trkpt lat="44.20135986043599" lon="9.988628166056662"><ele>65.5</ele><time>2026-05-03T07:40:00.867Z</time></trkpt><trkpt lat="44.20139127015079" lon="9.98883157413456"><ele>65.0</ele><time>2026-05-03T07:40:01.867Z</time></trkpt><trkpt lat="44.201423621244025" lon="9.989033447148477"><ele>65.0</ele><time>2026-05-03T07:40:02.867Z</time></trkpt><trkpt lat="44.201458467692404" lon="9.989230991923622"><ele>65.0</ele><time>2026-05-03T07:40:03.867Z</time></trkpt><trkpt lat="44.201496092103845" lon="9.989421938066492"><ele>65.0</ele><time>2026-05-03T07:40:04.867Z</time></trkpt><trkpt lat="44.20153375537828" lon="9.989608570018536"><ele>65.0</ele><time>2026-05-03T07:40:05.867Z</time></trkpt><trkpt lat="44.20158138582205" lon="9.989783417463702"><ele>65.0</ele><time>2026-05-03T07:40:06.867Z</time></trkpt><trkpt lat="44.201649046815" lon="9.989938577853907"><ele>65.0</ele><time>2026-05-03T07:40:07.867Z</time></trkpt><trkpt lat="44.201731834429985" lon="9.99007355950149"><ele>65.0</ele><time>2026-05-03T07:40:08.867Z</time></trkpt><trkpt lat="44.201842393392425" lon="9.990208877903958"><ele>65.0</ele><time>2026-05-03T07:40:09.867Z</time></trkpt><trkpt lat="44.201959521601715" lon="9.990329913927301"><ele>65.0</ele><time>2026-05-03T07:40:10.867Z</time></trkpt><trkpt lat="44.202063121609704" lon="9.990434178684637"><ele>65.0</ele><time>2026-05-03T07:40:11.867Z</time></trkpt><trkpt lat="44.202174812141045" lon="9.990552698169664"><ele>65.0</ele><time>2026-05-03T07:40:12.867Z</time></trkpt><trkpt lat="44.20228177079453" lon="9.990666829263803"><ele>65.0</ele><time>2026-05-03T07:40:13.866Z</time></trkpt><trkpt lat="44.202377624296055" lon="9.990770497899387"><ele>65.2</ele><time>2026-05-03T07:40:14.866Z</time></trkpt><trkpt lat="44.20245200371214" lon="9.990868165868507"><ele>65.4</ele><time>2026-05-03T07:40:15.866Z</time></trkpt><trkpt lat="44.202504047888205" lon="9.990972636255094"><ele>65.6</ele><time>2026-05-03T07:40:16.867Z</time></trkpt><trkpt lat="44.20253558912492" lon="9.991099052738088"><ele>65.8</ele><time>2026-05-03T07:40:17.867Z</time></trkpt><trkpt lat="44.20253355096548" lon="9.991237681598802"><ele>66.0</ele><time>2026-05-03T07:40:18.867Z</time></trkpt><trkpt lat="44.202520336100015" lon="9.991381642439197"><ele>66.0</ele><time>2026-05-03T07:40:19.867Z</time></trkpt><trkpt lat="44.202498804410624" lon="9.991525314989694"><ele>66.0</ele><time>2026-05-03T07:40:20.866Z</time></trkpt><trkpt lat="44.202478332554705" lon="9.991669875344547"><ele>66.0</ele><time>2026-05-03T07:40:21.866Z</time></trkpt><trkpt lat="44.20246302245845" lon="9.991823152974852"><ele>66.0</ele><time>2026-05-03T07:40:22.867Z</time></trkpt><trkpt lat="44.20244342601031" lon="9.991981909546029"><ele>66.0</ele><time>2026-05-03T07:40:23.866Z</time></trkpt><trkpt lat="44.20242284171471" lon="9.992144204901788"><ele>66.5</ele><time>2026-05-03T07:40:24.866Z</time></trkpt><trkpt lat="44.20240017533282" lon="9.992309055284567"><ele>67.0</ele><time>2026-05-03T07:40:25.866Z</time></trkpt><trkpt lat="44.20237788762607" lon="9.992479509584626"><ele>67.5</ele><time>2026-05-03T07:40:26.867Z</time></trkpt><trkpt lat="44.20235662678684" lon="9.992654950420992"><ele>68.0</ele><time>2026-05-03T07:40:27.867Z</time></trkpt><trkpt lat="44.20233720469838" lon="9.992843547366677"><ele>68.25</ele><time>2026-05-03T07:40:28.867Z</time></trkpt><trkpt lat="44.20231837456361" lon="9.993040045417782"><ele>68.5</ele><time>2026-05-03T07:40:29.867Z</time></trkpt><trkpt lat="44.20230140272057" lon="9.993239431613409"><ele>68.75</ele><time>2026-05-03T07:40:30.867Z</time></trkpt><trkpt lat="44.20228449178018" lon="9.993451594193816"><ele>69.0</ele><time>2026-05-03T07:40:31.867Z</time></trkpt><trkpt lat="44.202284481582616" lon="9.993681044466408"><ele>69.0</ele><time>2026-05-03T07:40:32.867Z</time></trkpt><trkpt lat="44.202312099033186" lon="9.993918162558684"><ele>69.0</ele><time>2026-05-03T07:40:33.866Z</time></trkpt><trkpt lat="44.20236968957187" lon="9.994160783798655"><ele>69.0</ele><time>2026-05-03T07:40:34.866Z</time></trkpt><trkpt lat="44.2024360381505" lon="9.994373074102523"><ele>69.5</ele><time>2026-05-03T07:40:35.866Z</time></trkpt><trkpt lat="44.20251435589757" lon="9.994556863412765"><ele>70.0</ele><time>2026-05-03T07:40:36.866Z</time></trkpt><trkpt lat="44.20260619475789" lon="9.994689727017326"><ele>70.5</ele><time>2026-05-03T07:40:37.866Z</time></trkpt><trkpt lat="44.20269973737253" lon="9.994826893158415"><ele>71.0</ele><time>2026-05-03T07:40:38.866Z</time></trkpt><trkpt lat="44.20278069734872" lon="9.994979761536747"><ele>71.5</ele><time>2026-05-03T07:40:39.866Z</time></trkpt><trkpt lat="44.20285263557398" lon="9.99515091991055"><ele>72.0</ele><time>2026-05-03T07:40:40.866Z</time></trkpt><trkpt lat="44.20292535285312" lon="9.995329263920949"><ele>72.5</ele><time>2026-05-03T07:40:41.866Z</time></trkpt><trkpt lat="44.20299898600312" lon="9.99551493134061"><ele>73.0</ele><time>2026-05-03T07:40:42.866Z</time></trkpt><trkpt lat="44.20307116614129" lon="9.99570161987147"><ele>73.0</ele><time>2026-05-03T07:40:43.866Z</time></trkpt><trkpt lat="44.20315281849525" lon="9.995902038796624"><ele>73.0</ele><time>2026-05-03T07:40:44.866Z</time></trkpt><trkpt lat="44.203258901567416" lon="9.996141626721858"><ele>73.0</ele><time>2026-05-03T07:40:45.866Z</time></trkpt><trkpt lat="44.20337606500665" lon="9.99642070365484"><ele>72.5</ele><time>2026-05-03T07:40:46.866Z</time></trkpt><trkpt lat="44.20348992054367" lon="9.996735152204316"><ele>72.0</ele><time>2026-05-03T07:40:47.866Z</time></trkpt><trkpt lat="44.20360428899483" lon="9.997049230719364"><ele>72.0</ele><time>2026-05-03T07:40:48.866Z</time></trkpt><trkpt lat="44.20370978823992" lon="9.997333509121985"><ele>72.0</ele><time>2026-05-03T07:40:49.866Z</time></trkpt><trkpt lat="44.20380317477336" lon="9.997582293649007"><ele>72.0</ele><time>2026-05-03T07:40:50.866Z</time></trkpt><trkpt lat="44.20389865313984" lon="9.99781613316384"><ele>72.33333333333333</ele><time>2026-05-03T07:40:51.866Z</time></trkpt><trkpt lat="44.203988395068606" lon="9.998039229657735"><ele>72.66666666666666</ele><time>2026-05-03T07:40:52.866Z</time></trkpt><trkpt lat="44.204061602320266" lon="9.998257950785273"><ele>73.0</ele><time>2026-05-03T07:40:53.866Z</time></trkpt><trkpt lat="44.20412142123912" lon="9.99848303982228"><ele>73.0</ele><time>2026-05-03T07:40:54.866Z</time></trkpt><trkpt lat="44.204164272218" lon="9.99870208203216"><ele>73.0</ele><time>2026-05-03T07:40:55.866Z</time></trkpt><trkpt lat="44.20418728802989" lon="9.99889261418592"><ele>73.0</ele><time>2026-05-03T07:40:56.866Z</time></trkpt><trkpt lat="44.204208956653545" lon="9.999044351987536"><ele>73.0</ele><time>2026-05-03T07:40:57.866Z</time></trkpt><trkpt lat="44.20420779178529" lon="9.99918095562186"><ele>73.2</ele><time>2026-05-03T07:40:58.866Z</time></trkpt><trkpt lat="44.204187461540414" lon="9.999308053643539"><ele>73.4</ele><time>2026-05-03T07:40:59.866Z</time></trkpt><trkpt lat="44.20414788736226" lon="9.999435732398135"><ele>73.60000000000001</ele><time>2026-05-03T07:41:00.866Z</time></trkpt><trkpt lat="44.20407497583794" lon="9.999555632634728"><ele>73.8</ele><time>2026-05-03T07:41:01.866Z</time></trkpt><trkpt lat="44.20399214170845" lon="9.999671678787168"><ele>74.0</ele><time>2026-05-03T07:41:02.866Z</time></trkpt><trkpt lat="44.20388798735592" lon="9.999776561486538"><ele>74.25</ele><time>2026-05-03T07:41:03.866Z</time></trkpt><trkpt lat="44.203766036294795" lon="9.999877381691263"><ele>74.5</ele><time>2026-05-03T07:41:04.866Z</time></trkpt><trkpt lat="44.20364266614538" lon="9.999991906078167"><ele>74.75</ele><time>2026-05-03T07:41:05.866Z</time></trkpt><trkpt lat="44.20351534814282" lon="10.000104398360442"><ele>75.0</ele><time>2026-05-03T07:41:06.866Z</time></trkpt><trkpt lat="44.203406226454256" lon="10.000229693584117"><ele>75.0</ele><time>2026-05-03T07:41:07.866Z</time></trkpt><trkpt lat="44.20331277756065" lon="10.000361601789377"><ele>75.0</ele><time>2026-05-03T07:41:08.866Z</time></trkpt><trkpt lat="44.20322944899282" lon="10.000503496657725"><ele>75.0</ele><time>2026-05-03T07:41:09.866Z</time></trkpt><trkpt lat="44.20316012871571" lon="10.000660371324356"><ele>75.0</ele><time>2026-05-03T07:41:10.866Z</time></trkpt><trkpt lat="44.20309792833213" lon="10.000848406116196"><ele>77.33333333333333</ele><time>2026-05-03T07:41:11.866Z</time></trkpt><trkpt lat="44.20304877555749" lon="10.001048303436306"><ele>79.66666666666666</ele><time>2026-05-03T07:41:12.866Z</time></trkpt><trkpt lat="44.20300696661513" lon="10.001250359876218"><ele>82.0</ele><time>2026-05-03T07:41:13.866Z</time></trkpt><trkpt lat="44.20297084825251" lon="10.001449732466089"><ele>82.0</ele><time>2026-05-03T07:41:14.866Z</time></trkpt><trkpt lat="44.20294015218756" lon="10.001648868951735"><ele>82.0</ele><time>2026-05-03T07:41:15.866Z</time></trkpt><trkpt lat="44.202906300719526" lon="10.001849244496647"><ele>82.0</ele><time>2026-05-03T07:41:16.866Z</time></trkpt><trkpt lat="44.20287668902913" lon="10.002047900458765"><ele>82.0</ele><time>2026-05-03T07:41:17.866Z</time></trkpt><trkpt lat="44.20284465202077" lon="10.002237619238938"><ele>82.0</ele><time>2026-05-03T07:41:18.866Z</time></trkpt><trkpt lat="44.20281554395865" lon="10.002423218199372"><ele>82.0</ele><time>2026-05-03T07:41:19.866Z</time></trkpt><trkpt lat="44.20279603865061" lon="10.002612151189565"><ele>82.0</ele><time>2026-05-03T07:41:20.866Z</time></trkpt><trkpt lat="44.202780768920036" lon="10.002799600990013"><ele>82.0</ele><time>2026-05-03T07:41:21.866Z</time></trkpt><trkpt lat="44.20277556170124" lon="10.0029873825168"><ele>82.0</ele><time>2026-05-03T07:41:22.866Z</time></trkpt><trkpt lat="44.202778486358454" lon="10.003174352500276"><ele>82.0</ele><time>2026-05-03T07:41:23.866Z</time></trkpt><trkpt lat="44.20278951413847" lon="10.003359850469934"><ele>82.0</ele><time>2026-05-03T07:41:24.866Z</time></trkpt><trkpt lat="44.20280956709357" lon="10.003544255374372"><ele>82.0</ele><time>2026-05-03T07:41:25.866Z</time></trkpt><trkpt lat="44.20283704496453" lon="10.003727781283393"><ele>82.75</ele><time>2026-05-03T07:41:26.866Z</time></trkpt><trkpt lat="44.20287276449007" lon="10.00390265427878"><ele>83.5</ele><time>2026-05-03T07:41:27.866Z</time></trkpt><trkpt lat="44.202909307944466" lon="10.004074035060583"><ele>84.25</ele><time>2026-05-03T07:41:28.866Z</time></trkpt><trkpt lat="44.20294161657304" lon="10.004245650676717"><ele>85.0</ele><time>2026-05-03T07:41:29.866Z</time></trkpt><trkpt lat="44.202971487497315" lon="10.004419068111106"><ele>85.0</ele><time>2026-05-03T07:41:30.866Z</time></trkpt><trkpt lat="44.20299982630589" lon="10.004604314121925"><ele>85.0</ele><time>2026-05-03T07:41:31.866Z</time></trkpt><trkpt lat="44.20302821902241" lon="10.004786912809875"><ele>85.0</ele><time>2026-05-03T07:41:32.866Z</time></trkpt><trkpt lat="44.203059074423564" lon="10.004975753883095"><ele>85.0</ele><time>2026-05-03T07:41:33.866Z</time></trkpt><trkpt lat="44.20309625809482" lon="10.005177140579766"><ele>85.0</ele><time>2026-05-03T07:41:34.866Z</time></trkpt><trkpt lat="44.203137025595126" lon="10.005378644334446"><ele>85.0</ele><time>2026-05-03T07:41:35.866Z</time></trkpt><trkpt lat="44.20318254631504" lon="10.005596401272767"><ele>85.0</ele><time>2026-05-03T07:41:36.866Z</time></trkpt><trkpt lat="44.20322695350539" lon="10.00583951270318"><ele>83.0</ele><time>2026-05-03T07:41:37.866Z</time></trkpt><trkpt lat="44.20327960116414" lon="10.006107520898494"><ele>81.0</ele><time>2026-05-03T07:41:38.866Z</time></trkpt><trkpt lat="44.203329539053065" lon="10.006374952975365"><ele>79.0</ele><time>2026-05-03T07:41:39.866Z</time></trkpt><trkpt lat="44.20337691264021" lon="10.00664028730738"><ele>79.33333333333333</ele><time>2026-05-03T07:41:40.866Z</time></trkpt><trkpt lat="44.203424764960744" lon="10.006926408667432"><ele>79.66666666666667</ele><time>2026-05-03T07:41:41.866Z</time></trkpt><trkpt lat="44.203472871370025" lon="10.007201982670933"><ele>80.0</ele><time>2026-05-03T07:41:42.866Z</time></trkpt><trkpt lat="44.203519537545084" lon="10.007457241739585"><ele>80.66666666666667</ele><time>2026-05-03T07:41:43.865Z</time></trkpt><trkpt lat="44.20356083804565" lon="10.007698086596296"><ele>81.33333333333333</ele><time>2026-05-03T07:41:44.865Z</time></trkpt><trkpt lat="44.20360483928351" lon="10.007926832351584"><ele>82.0</ele><time>2026-05-03T07:41:45.865Z</time></trkpt><trkpt lat="44.203641662464676" lon="10.00814862813906"><ele>82.66666666666666</ele><time>2026-05-03T07:41:46.865Z</time></trkpt><trkpt lat="44.203687603073156" lon="10.00837318950515"><ele>83.33333333333333</ele><time>2026-05-03T07:41:47.865Z</time></trkpt><trkpt lat="44.20373959799424" lon="10.008614995514401"><ele>84.0</ele><time>2026-05-03T07:41:48.865Z</time></trkpt><trkpt lat="44.203789026542" lon="10.008873029608914"><ele>84.0</ele><time>2026-05-03T07:41:49.865Z</time></trkpt><trkpt lat="44.20383109629632" lon="10.009147104183018"><ele>84.0</ele><time>2026-05-03T07:41:50.865Z</time></trkpt><trkpt lat="44.20387243770297" lon="10.009405656104837"><ele>84.0</ele><time>2026-05-03T07:41:51.865Z</time></trkpt><trkpt lat="44.20391964769534" lon="10.00966479278816"><ele>83.66666666666667</ele><time>2026-05-03T07:41:52.865Z</time></trkpt><trkpt lat="44.20395900521346" lon="10.009912203206577"><ele>83.33333333333334</ele><time>2026-05-03T07:41:53.865Z</time></trkpt><trkpt lat="44.20398965782088" lon="10.010157766031904"><ele>83.0</ele><time>2026-05-03T07:41:54.865Z</time></trkpt><trkpt lat="44.20400513102579" lon="10.010402611366747"><ele>82.66666666666667</ele><time>2026-05-03T07:41:55.865Z</time></trkpt><trkpt lat="44.204014296371945" lon="10.010646436841524"><ele>82.33333333333333</ele><time>2026-05-03T07:41:56.865Z</time></trkpt><trkpt lat="44.20401482075159" lon="10.010880386114412"><ele>82.0</ele><time>2026-05-03T07:41:57.865Z</time></trkpt><trkpt lat="44.20400328199151" lon="10.011111329072234"><ele>82.5</ele><time>2026-05-03T07:41:58.865Z</time></trkpt><trkpt lat="44.20398487537797" lon="10.011317721759749"><ele>83.0</ele><time>2026-05-03T07:41:59.865Z</time></trkpt><trkpt lat="44.20396437374658" lon="10.011495958095358"><ele>83.5</ele><time>2026-05-03T07:42:00.865Z</time></trkpt><trkpt lat="44.20394604463905" lon="10.011658645193638"><ele>84.0</ele><time>2026-05-03T07:42:01.865Z</time></trkpt><trkpt lat="44.203927715451805" lon="10.011815251960323"><ele>84.0</ele><time>2026-05-03T07:42:02.865Z</time></trkpt><trkpt lat="44.20391081424317" lon="10.011964438591505"><ele>84.0</ele><time>2026-05-03T07:42:03.865Z</time></trkpt><trkpt lat="44.203897273380235" lon="10.012109664904736"><ele>84.0</ele><time>2026-05-03T07:42:04.865Z</time></trkpt><trkpt lat="44.203881548385475" lon="10.012263370377362"><ele>84.0</ele><time>2026-05-03T07:42:05.865Z</time></trkpt><trkpt lat="44.203866690500924" lon="10.012418848808998"><ele>84.0</ele><time>2026-05-03T07:42:06.865Z</time></trkpt><trkpt lat="44.20384681500269" lon="10.012572576951511"><ele>84.0</ele><time>2026-05-03T07:42:07.865Z</time></trkpt><trkpt lat="44.20382903584793" lon="10.012725362251528"><ele>84.0</ele><time>2026-05-03T07:42:08.865Z</time></trkpt><trkpt lat="44.20381230988479" lon="10.012883897937286"><ele>84.0</ele><time>2026-05-03T07:42:09.865Z</time></trkpt><trkpt lat="44.20379787211392" lon="10.013044762999385"><ele>84.0</ele><time>2026-05-03T07:42:10.865Z</time></trkpt><trkpt lat="44.20378654446162" lon="10.013207086379197"><ele>84.0</ele><time>2026-05-03T07:42:11.865Z</time></trkpt><trkpt lat="44.203770005357995" lon="10.013362442955946"><ele>84.0</ele><time>2026-05-03T07:42:12.865Z</time></trkpt><trkpt lat="44.20375313524754" lon="10.013521731896947"><ele>84.0</ele><time>2026-05-03T07:42:13.865Z</time></trkpt><trkpt lat="44.20373568021625" lon="10.013681942333255"><ele>84.0</ele><time>2026-05-03T07:42:14.865Z</time></trkpt><trkpt lat="44.20372176530001" lon="10.013849388850229"><ele>84.0</ele><time>2026-05-03T07:42:15.865Z</time></trkpt><trkpt lat="44.203706088734755" lon="10.014029687830806"><ele>84.0</ele><time>2026-05-03T07:42:16.865Z</time></trkpt><trkpt lat="44.20368669490116" lon="10.014234824261099"><ele>84.0</ele><time>2026-05-03T07:42:17.865Z</time></trkpt><trkpt lat="44.2036620344173" lon="10.014480190025102"><ele>84.33333333333333</ele><time>2026-05-03T07:42:18.865Z</time></trkpt><trkpt lat="44.20364071714038" lon="10.014753966539466"><ele>84.66666666666666</ele><time>2026-05-03T07:42:19.864Z</time></trkpt><trkpt lat="44.20361432715413" lon="10.015031738292596"><ele>85.0</ele><time>2026-05-03T07:42:20.863Z</time></trkpt><trkpt lat="44.20358446544709" lon="10.015301089368265"><ele>85.33333333333333</ele><time>2026-05-03T07:42:21.863Z</time></trkpt><trkpt lat="44.203558733484044" lon="10.015545915105244"><ele>85.66666666666667</ele><time>2026-05-03T07:42:22.864Z</time></trkpt><trkpt lat="44.20353660614644" lon="10.015770836081431"><ele>86.0</ele><time>2026-05-03T07:42:23.863Z</time></trkpt><trkpt lat="44.20351444879813" lon="10.015953401729535"><ele>86.16666666666667</ele><time>2026-05-03T07:42:24.863Z</time></trkpt><trkpt lat="44.203494690296836" lon="10.016099925251709"><ele>86.33333333333334</ele><time>2026-05-03T07:42:25.863Z</time></trkpt><trkpt lat="44.20346834084709" lon="10.01621466039321"><ele>86.5</ele><time>2026-05-03T07:42:26.863Z</time></trkpt><trkpt lat="44.20344028008819" lon="10.016310533771202"><ele>86.66666666666667</ele><time>2026-05-03T07:42:27.863Z</time></trkpt><trkpt lat="44.203396663081634" lon="10.01637476936785"><ele>86.83333333333333</ele><time>2026-05-03T07:42:28.863Z</time></trkpt><trkpt lat="44.20333756753359" lon="10.016432536642323"><ele>87.0</ele><time>2026-05-03T07:42:29.863Z</time></trkpt><trkpt lat="44.20325713785239" lon="10.01648635288331"><ele>87.5</ele><time>2026-05-03T07:42:30.863Z</time></trkpt><trkpt lat="44.20315665447206" lon="10.016537518960673"><ele>88.0</ele><time>2026-05-03T07:42:31.863Z</time></trkpt><trkpt lat="44.20304179082113" lon="10.016586794397936"><ele>88.5</ele><time>2026-05-03T07:42:32.863Z</time></trkpt><trkpt lat="44.202909221051875" lon="10.01663428138071"><ele>89.0</ele><time>2026-05-03T07:42:33.863Z</time></trkpt><trkpt lat="44.20276836969043" lon="10.016696343668324"><ele>89.0</ele><time>2026-05-03T07:42:34.862Z</time></trkpt><trkpt lat="44.202611696551095" lon="10.016760320735878"><ele>89.0</ele><time>2026-05-03T07:42:35.862Z</time></trkpt><trkpt lat="44.202454303687645" lon="10.01682710227153"><ele>89.0</ele><time>2026-05-03T07:42:36.862Z</time></trkpt><trkpt lat="44.20229417049101" lon="10.016891009446145"><ele>91.0</ele><time>2026-05-03T07:42:37.862Z</time></trkpt><trkpt lat="44.202135622856815" lon="10.016958204400229"><ele>93.0</ele><time>2026-05-03T07:42:38.862Z</time></trkpt><trkpt lat="44.201977039067046" lon="10.01702702687745"><ele>95.0</ele><time>2026-05-03T07:42:39.862Z</time></trkpt><trkpt lat="44.201831322345534" lon="10.017092485638118"><ele>95.0</ele><time>2026-05-03T07:42:40.862Z</time></trkpt><trkpt lat="44.201702673637506" lon="10.01714710969719"><ele>95.0</ele><time>2026-05-03T07:42:41.862Z</time></trkpt><trkpt lat="44.20159451740671" lon="10.017186832267514"><ele>95.0</ele><time>2026-05-03T07:42:42.862Z</time></trkpt><trkpt lat="44.201499417097644" lon="10.017235324809688"><ele>95.0</ele><time>2026-05-03T07:42:43.862Z</time></trkpt><trkpt lat="44.20141687771991" lon="10.017313939576136"><ele>95.0</ele><time>2026-05-03T07:42:44.862Z</time></trkpt><trkpt lat="44.20135352019498" lon="10.017446688548794"><ele>95.0</ele><time>2026-05-03T07:42:45.862Z</time></trkpt><trkpt lat="44.20132496088852" lon="10.01762335233688"><ele>95.0</ele><time>2026-05-03T07:42:46.862Z</time></trkpt><trkpt lat="44.201328785228824" lon="10.017813040303395"><ele>95.0</ele><time>2026-05-03T07:42:47.862Z</time></trkpt><trkpt lat="44.201350240177746" lon="10.018036123389091"><ele>95.0</ele><time>2026-05-03T07:42:48.862Z</time></trkpt><trkpt lat="44.20137167382001" lon="10.018279816616541"><ele>97.0</ele><time>2026-05-03T07:42:49.862Z</time></trkpt><trkpt lat="44.20138342446563" lon="10.01854002911218"><ele>99.0</ele><time>2026-05-03T07:42:50.862Z</time></trkpt><trkpt lat="44.20139863419541" lon="10.018805558314972"><ele>101.0</ele><time>2026-05-03T07:42:51.862Z</time></trkpt><trkpt lat="44.20141510066845" lon="10.01907489564243"><ele>103.0</ele><time>2026-05-03T07:42:52.862Z</time></trkpt><trkpt lat="44.20142916337275" lon="10.019353288888782"><ele>105.0</ele><time>2026-05-03T07:42:53.862Z</time></trkpt><trkpt lat="44.20143901012444" lon="10.019638373543541"><ele>107.0</ele><time>2026-05-03T07:42:54.862Z</time></trkpt><trkpt lat="44.20144896241672" lon="10.019939245477424"><ele>106.0</ele><time>2026-05-03T07:42:55.862Z</time></trkpt><trkpt lat="44.2014606521876" lon="10.020241294049608"><ele>105.0</ele><time>2026-05-03T07:42:56.862Z</time></trkpt><trkpt lat="44.20147018216847" lon="10.020546891491714"><ele>104.0</ele><time>2026-05-03T07:42:57.862Z</time></trkpt><trkpt lat="44.20148000184905" lon="10.020845013973043"><ele>106.66666666666666</ele><time>2026-05-03T07:42:58.862Z</time></trkpt><trkpt lat="44.20148881324745" lon="10.021137763269486"><ele>109.33333333333334</ele><time>2026-05-03T07:42:59.862Z</time></trkpt><trkpt lat="44.20149844106048" lon="10.021428145537984"><ele>112.0</ele><time>2026-05-03T07:43:00.862Z</time></trkpt><trkpt lat="44.20151068334054" lon="10.021721458343096"><ele>106.66666666666667</ele><time>2026-05-03T07:43:01.862Z</time></trkpt><trkpt lat="44.20152405768588" lon="10.022007877778591"><ele>101.33333333333334</ele><time>2026-05-03T07:43:02.862Z</time></trkpt><trkpt lat="44.20153799247906" lon="10.022296168491993"><ele>96.0</ele><time>2026-05-03T07:43:03.862Z</time></trkpt><trkpt lat="44.20155725974316" lon="10.022577197788815"><ele>96.0</ele><time>2026-05-03T07:43:04.862Z</time></trkpt><trkpt lat="44.2015887057846" lon="10.022850709857082"><ele>96.0</ele><time>2026-05-03T07:43:05.862Z</time></trkpt><trkpt lat="44.20164071326984" lon="10.023122664526973"><ele>96.0</ele><time>2026-05-03T07:43:06.862Z</time></trkpt><trkpt lat="44.20170742891584" lon="10.023409612435724"><ele>97.5</ele><time>2026-05-03T07:43:07.862Z</time></trkpt><trkpt lat="44.20177334319147" lon="10.023707581452749"><ele>99.0</ele><time>2026-05-03T07:43:08.862Z</time></trkpt><trkpt lat="44.2018425899994" lon="10.0240251543733"><ele>100.66666666666666</ele><time>2026-05-03T07:43:09.862Z</time></trkpt><trkpt lat="44.20190442462624" lon="10.024335490794302"><ele>102.33333333333333</ele><time>2026-05-03T07:43:10.862Z</time></trkpt><trkpt lat="44.20196194332233" lon="10.024624400898512"><ele>104.0</ele><time>2026-05-03T07:43:11.862Z</time></trkpt><trkpt lat="44.20200810817403" lon="10.02490016855126"><ele>105.33333333333333</ele><time>2026-05-03T07:43:12.862Z</time></trkpt><trkpt lat="44.20205606882364" lon="10.02516679439567"><ele>106.66666666666666</ele><time>2026-05-03T07:43:13.862Z</time></trkpt><trkpt lat="44.20210878901629" lon="10.02543000239384"><ele>108.0</ele><time>2026-05-03T07:43:14.862Z</time></trkpt><trkpt lat="44.202159304719224" lon="10.02568673862868"><ele>109.33333333333334</ele><time>2026-05-03T07:43:15.862Z</time></trkpt><trkpt lat="44.20220547647183" lon="10.025939951755378"><ele>110.66666666666667</ele><time>2026-05-03T07:43:16.862Z</time></trkpt><trkpt lat="44.20225021827597" lon="10.02618374765304"><ele>112.0</ele><time>2026-05-03T07:43:17.862Z</time></trkpt><trkpt lat="44.20227456469611" lon="10.02643004309706"><ele>112.33333333333334</ele><time>2026-05-03T07:43:18.862Z</time></trkpt><trkpt lat="44.20226449124284" lon="10.026681055897772"><ele>112.66666666666666</ele><time>2026-05-03T07:43:19.862Z</time></trkpt><trkpt lat="44.202222007718944" lon="10.02692941812814"><ele>113.0</ele><time>2026-05-03T07:43:20.862Z</time></trkpt><trkpt lat="44.20216134118533" lon="10.027162758633464"><ele>113.0</ele><time>2026-05-03T07:43:21.862Z</time></trkpt><trkpt lat="44.202102370514424" lon="10.027383724568493"><ele>113.0</ele><time>2026-05-03T07:43:22.862Z</time></trkpt><trkpt lat="44.202050190682826" lon="10.027585159524845"><ele>113.0</ele><time>2026-05-03T07:43:23.862Z</time></trkpt><trkpt lat="44.20201094415004" lon="10.0277624595819"><ele>110.5</ele><time>2026-05-03T07:43:24.862Z</time></trkpt><trkpt lat="44.20200915042918" lon="10.02793495907561"><ele>108.0</ele><time>2026-05-03T07:43:25.862Z</time></trkpt><trkpt lat="44.202035929724836" lon="10.02810424731104"><ele>105.5</ele><time>2026-05-03T07:43:26.862Z</time></trkpt><trkpt lat="44.20210326023538" lon="10.028257810814045"><ele>103.0</ele><time>2026-05-03T07:43:27.862Z</time></trkpt><trkpt lat="44.20220387337779" lon="10.02838315154297"><ele>101.75</ele><time>2026-05-03T07:43:28.862Z</time></trkpt><trkpt lat="44.2023186383408" lon="10.028497439788573"><ele>100.5</ele><time>2026-05-03T07:43:29.862Z</time></trkpt><trkpt lat="44.20243560416598" lon="10.028598654667217"><ele>99.25</ele><time>2026-05-03T07:43:30.862Z</time></trkpt><trkpt lat="44.20254209681446" lon="10.028690480383005"><ele>98.0</ele><time>2026-05-03T07:43:31.862Z</time></trkpt><trkpt lat="44.2026414779553" lon="10.02877533130963"><ele>96.2</ele><time>2026-05-03T07:43:32.862Z</time></trkpt><trkpt lat="44.20273730556783" lon="10.028862437178502"><ele>94.4</ele><time>2026-05-03T07:43:33.862Z</time></trkpt><trkpt lat="44.20283270317112" lon="10.028942417660268"><ele>92.60000000000001</ele><time>2026-05-03T07:43:34.862Z</time></trkpt><trkpt lat="44.20291332680238" lon="10.029012129096149"><ele>90.80000000000001</ele><time>2026-05-03T07:43:35.862Z</time></trkpt><trkpt lat="44.20298740644042" lon="10.029075838770414"><ele>89.0</ele><time>2026-05-03T07:43:36.862Z</time></trkpt><trkpt lat="44.20305967383534" lon="10.029149615404672"><ele>89.0</ele><time>2026-05-03T07:43:37.862Z</time></trkpt><trkpt lat="44.203134101908375" lon="10.029227992086103"><ele>89.0</ele><time>2026-05-03T07:43:38.862Z</time></trkpt><trkpt lat="44.203200497298106" lon="10.029317315490042"><ele>89.0</ele><time>2026-05-03T07:43:39.862Z</time></trkpt><trkpt lat="44.20324775884489" lon="10.02942677392029"><ele>89.0</ele><time>2026-05-03T07:43:40.862Z</time></trkpt><trkpt lat="44.20327287121516" lon="10.029549350757382"><ele>89.0</ele><time>2026-05-03T07:43:41.862Z</time></trkpt><trkpt lat="44.20327547765984" lon="10.02968344255612"><ele>89.75</ele><time>2026-05-03T07:43:42.862Z</time></trkpt><trkpt lat="44.20325607952433" lon="10.029823652104847"><ele>90.5</ele><time>2026-05-03T07:43:43.862Z</time></trkpt><trkpt lat="44.20321788657981" lon="10.029966876467974"><ele>91.25</ele><time>2026-05-03T07:43:44.862Z</time></trkpt><trkpt lat="44.203170374341525" lon="10.030125876870601"><ele>92.0</ele><time>2026-05-03T07:43:45.861Z</time></trkpt><trkpt lat="44.20311941739633" lon="10.030283360513534"><ele>92.0</ele><time>2026-05-03T07:43:46.861Z</time></trkpt><trkpt lat="44.20306388205514" lon="10.030448168521605"><ele>92.0</ele><time>2026-05-03T07:43:47.861Z</time></trkpt><trkpt lat="44.20301321459426" lon="10.030604547705085"><ele>92.0</ele><time>2026-05-03T07:43:48.861Z</time></trkpt><trkpt lat="44.202958184663494" lon="10.030758033737998"><ele>92.0</ele><time>2026-05-03T07:43:49.861Z</time></trkpt><trkpt lat="44.2029048284132" lon="10.030918391695575"><ele>92.66666666666667</ele><time>2026-05-03T07:43:50.861Z</time></trkpt><trkpt lat="44.202847191471605" lon="10.031091296026347"><ele>93.33333333333333</ele><time>2026-05-03T07:43:51.861Z</time></trkpt><trkpt lat="44.20278518870794" lon="10.031288400194626"><ele>94.0</ele><time>2026-05-03T07:43:52.861Z</time></trkpt><trkpt lat="44.20271812670456" lon="10.031505600185042"><ele>94.66666666666666</ele><time>2026-05-03T07:43:53.861Z</time></trkpt><trkpt lat="44.20264139604238" lon="10.03173994609372"><ele>95.33333333333333</ele><time>2026-05-03T07:43:54.861Z</time></trkpt><trkpt lat="44.20255006939167" lon="10.032006709611304"><ele>96.0</ele><time>2026-05-03T07:43:55.861Z</time></trkpt><trkpt lat="44.20244451242428" lon="10.032321829246847"><ele>96.5</ele><time>2026-05-03T07:43:56.861Z</time></trkpt><trkpt lat="44.20233537904816" lon="10.032665716500887"><ele>97.0</ele><time>2026-05-03T07:43:57.861Z</time></trkpt><trkpt lat="44.202217477993884" lon="10.033024308077541"><ele>96.5</ele><time>2026-05-03T07:43:58.861Z</time></trkpt><trkpt lat="44.202090854543165" lon="10.033383746003793"><ele>96.0</ele><time>2026-05-03T07:43:59.861Z</time></trkpt><trkpt lat="44.20195275511633" lon="10.033765028714763"><ele>96.5</ele><time>2026-05-03T07:44:00.861Z</time></trkpt><trkpt lat="44.20181699353135" lon="10.03415959315691"><ele>97.0</ele><time>2026-05-03T07:44:01.861Z</time></trkpt><trkpt lat="44.20169693173985" lon="10.03452657537892"><ele>97.0</ele><time>2026-05-03T07:44:02.861Z</time></trkpt><trkpt lat="44.201586072360854" lon="10.034860450219774"><ele>97.0</ele><time>2026-05-03T07:44:03.861Z</time></trkpt><trkpt lat="44.20148352238366" lon="10.035168782134285"><ele>97.66666666666667</ele><time>2026-05-03T07:44:04.861Z</time></trkpt><trkpt lat="44.20138869106985" lon="10.035452128261479"><ele>98.33333333333334</ele><time>2026-05-03T07:44:05.861Z</time></trkpt><trkpt lat="44.20130889817" lon="10.035695359813369"><ele>99.0</ele><time>2026-05-03T07:44:06.861Z</time></trkpt><trkpt lat="44.201229960308076" lon="10.035919546106905"><ele>99.0</ele><time>2026-05-03T07:44:07.861Z</time></trkpt><trkpt lat="44.20115862956568" lon="10.03613301145056"><ele>99.0</ele><time>2026-05-03T07:44:08.861Z</time></trkpt><trkpt lat="44.201073602572" lon="10.036344669829457"><ele>99.0</ele><time>2026-05-03T07:44:09.861Z</time></trkpt><trkpt lat="44.20095721087194" lon="10.036559362497604"><ele>100.0</ele><time>2026-05-03T07:44:10.861Z</time></trkpt><trkpt lat="44.20082429065285" lon="10.036801610811155"><ele>101.0</ele><time>2026-05-03T07:44:11.861Z</time></trkpt><trkpt lat="44.200681505974394" lon="10.0370713962413"><ele>100.0</ele><time>2026-05-03T07:44:12.861Z</time></trkpt><trkpt lat="44.20053873729799" lon="10.037333073324149"><ele>99.0</ele><time>2026-05-03T07:44:13.861Z</time></trkpt><trkpt lat="44.2004182024795" lon="10.03756316530442"><ele>98.0</ele><time>2026-05-03T07:44:14.861Z</time></trkpt><trkpt lat="44.200295081315446" lon="10.037781668000665"><ele>98.0</ele><time>2026-05-03T07:44:15.861Z</time></trkpt><trkpt lat="44.200170658900355" lon="10.037975675403965"><ele>98.0</ele><time>2026-05-03T07:44:16.861Z</time></trkpt><trkpt lat="44.200031927968496" lon="10.038116570822924"><ele>98.0</ele><time>2026-05-03T07:44:17.861Z</time></trkpt><trkpt lat="44.199888477913255" lon="10.038254773455565"><ele>97.66666666666666</ele><time>2026-05-03T07:44:18.861Z</time></trkpt><trkpt lat="44.19977075542216" lon="10.038389821694317"><ele>97.33333333333334</ele><time>2026-05-03T07:44:19.861Z</time></trkpt><trkpt lat="44.19966855363954" lon="10.038565520406086"><ele>97.0</ele><time>2026-05-03T07:44:20.861Z</time></trkpt><trkpt lat="44.199560716341175" lon="10.038773379106047"><ele>97.0</ele><time>2026-05-03T07:44:21.861Z</time></trkpt><trkpt lat="44.19942771337141" lon="10.039056454724268"><ele>97.0</ele><time>2026-05-03T07:44:22.861Z</time></trkpt><trkpt lat="44.19930283955866" lon="10.039342443285522"><ele>98.5</ele><time>2026-05-03T07:44:23.861Z</time></trkpt><trkpt lat="44.19919788466392" lon="10.039634882038532"><ele>100.0</ele><time>2026-05-03T07:44:24.861Z</time></trkpt><trkpt lat="44.19911004403343" lon="10.039931094393776"><ele>100.5</ele><time>2026-05-03T07:44:25.86Z</time></trkpt><trkpt lat="44.19903380159002" lon="10.040242367783287"><ele>101.0</ele><time>2026-05-03T07:44:26.86Z</time></trkpt><trkpt lat="44.19894999149778" lon="10.040550129693926"><ele>101.0</ele><time>2026-05-03T07:44:27.86Z</time></trkpt><trkpt lat="44.198862919678575" lon="10.040865729225326"><ele>101.0</ele><time>2026-05-03T07:44:28.86Z</time></trkpt><trkpt lat="44.19877789624183" lon="10.041163676203494"><ele>101.0</ele><time>2026-05-03T07:44:29.86Z</time></trkpt><trkpt lat="44.19869666463355" lon="10.041455652382071"><ele>101.0</ele><time>2026-05-03T07:44:30.86Z</time></trkpt><trkpt lat="44.198619191703195" lon="10.041741820990412"><ele>101.0</ele><time>2026-05-03T07:44:31.859Z</time></trkpt><trkpt lat="44.19854453142959" lon="10.042014510906467"><ele>100.66666666666666</ele><time>2026-05-03T07:44:32.86Z</time></trkpt><trkpt lat="44.19847390349883" lon="10.042275575302877"><ele>100.33333333333334</ele><time>2026-05-03T07:44:33.86Z</time></trkpt><trkpt lat="44.198408934127315" lon="10.04252183111255"><ele>100.0</ele><time>2026-05-03T07:44:34.86Z</time></trkpt><trkpt lat="44.19834586166446" lon="10.042747388757267"><ele>101.33333333333334</ele><time>2026-05-03T07:44:35.86Z</time></trkpt><trkpt lat="44.19829235978661" lon="10.042977061877675"><ele>102.66666666666666</ele><time>2026-05-03T07:44:36.86Z</time></trkpt><trkpt lat="44.198257676718015" lon="10.04321697705149"><ele>104.0</ele><time>2026-05-03T07:44:37.859Z</time></trkpt><trkpt lat="44.198250520756034" lon="10.043473734434315"><ele>104.0</ele><time>2026-05-03T07:44:38.859Z</time></trkpt><trkpt lat="44.1982642971849" lon="10.043745429668885"><ele>104.0</ele><time>2026-05-03T07:44:39.859Z</time></trkpt><trkpt lat="44.19830279216383" lon="10.044022427131098"><ele>104.0</ele><time>2026-05-03T07:44:40.859Z</time></trkpt><trkpt lat="44.198344766848194" lon="10.044311853231797"><ele>104.0</ele><time>2026-05-03T07:44:41.859Z</time></trkpt><trkpt lat="44.19837545852413" lon="10.044592090915971"><ele>104.0</ele><time>2026-05-03T07:44:42.859Z</time></trkpt><trkpt lat="44.19838556873019" lon="10.044863173701234"><ele>104.0</ele><time>2026-05-03T07:44:43.859Z</time></trkpt><trkpt lat="44.198371912858676" lon="10.045142963286072"><ele>104.0</ele><time>2026-05-03T07:44:44.859Z</time></trkpt><trkpt lat="44.198339216950224" lon="10.04542817198579"><ele>104.0</ele><time>2026-05-03T07:44:45.859Z</time></trkpt><trkpt lat="44.198317378108726" lon="10.045720558551311"><ele>104.0</ele><time>2026-05-03T07:44:46.859Z</time></trkpt><trkpt lat="44.198320001804845" lon="10.04601505726063"><ele>103.66666666666666</ele><time>2026-05-03T07:44:47.859Z</time></trkpt><trkpt lat="44.19834324508813" lon="10.046303423756779"><ele>103.33333333333334</ele><time>2026-05-03T07:44:48.859Z</time></trkpt><trkpt lat="44.198392571065185" lon="10.046589831819182"><ele>103.0</ele><time>2026-05-03T07:44:49.859Z</time></trkpt><trkpt lat="44.198459620457534" lon="10.046871572197047"><ele>103.0</ele><time>2026-05-03T07:44:50.859Z</time></trkpt><trkpt lat="44.19853822350377" lon="10.047150905455302"><ele>103.0</ele><time>2026-05-03T07:44:51.859Z</time></trkpt><trkpt lat="44.19861906540811" lon="10.04743346609594"><ele>103.0</ele><time>2026-05-03T07:44:52.859Z</time></trkpt><trkpt lat="44.198695379135685" lon="10.047715988410621"><ele>103.0</ele><time>2026-05-03T07:44:53.859Z</time></trkpt><trkpt lat="44.198768285513744" lon="10.04799507662379"><ele>103.0</ele><time>2026-05-03T07:44:54.859Z</time></trkpt><trkpt lat="44.19884067375362" lon="10.048272207628369"><ele>103.0</ele><time>2026-05-03T07:44:55.859Z</time></trkpt><trkpt lat="44.19891091662356" lon="10.04853417117656"><ele>103.33333333333334</ele><time>2026-05-03T07:44:56.859Z</time></trkpt><trkpt lat="44.19897627031266" lon="10.048831121938422"><ele>103.66666666666666</ele><time>2026-05-03T07:44:57.859Z</time></trkpt><trkpt lat="44.19904068538704" lon="10.049055644409062"><ele>104.0</ele><time>2026-05-03T07:44:58.859Z</time></trkpt><trkpt lat="44.199102478390955" lon="10.049260664991637"><ele>104.33333333333333</ele><time>2026-05-03T07:44:59.859Z</time></trkpt><trkpt lat="44.199172527238694" lon="10.049462350630229"><ele>104.66666666666666</ele><time>2026-05-03T07:45:00.859Z</time></trkpt><trkpt lat="44.199262136944675" lon="10.049650945585498"><ele>105.0</ele><time>2026-05-03T07:45:01.859Z</time></trkpt><trkpt lat="44.199382126609265" lon="10.049807225260508"><ele>105.0</ele><time>2026-05-03T07:45:02.859Z</time></trkpt><trkpt lat="44.199513977072456" lon="10.049938562830143"><ele>105.0</ele><time>2026-05-03T07:45:03.859Z</time></trkpt><trkpt lat="44.19965281854798" lon="10.050044909376947"><ele>105.0</ele><time>2026-05-03T07:45:04.859Z</time></trkpt><trkpt lat="44.199793730096445" lon="10.050130382638544"><ele>106.4</ele><time>2026-05-03T07:45:05.859Z</time></trkpt><trkpt lat="44.19991590967827" lon="10.05019746094826"><ele>107.8</ele><time>2026-05-03T07:45:06.859Z</time></trkpt><trkpt lat="44.20001816902975" lon="10.050254426037084"><ele>109.19999999999999</ele><time>2026-05-03T07:45:07.859Z</time></trkpt><trkpt lat="44.200105691554114" lon="10.050305493649308"><ele>110.6</ele><time>2026-05-03T07:45:08.859Z</time></trkpt><trkpt lat="44.200165485880326" lon="10.050396808521606"><ele>112.0</ele><time>2026-05-03T07:45:09.859Z</time></trkpt><trkpt lat="44.20021429416616" lon="10.050530856384276"><ele>112.0</ele><time>2026-05-03T07:45:10.859Z</time></trkpt><trkpt lat="44.20025674913906" lon="10.050679737185177"><ele>111.99999999999999</ele><time>2026-05-03T07:45:11.859Z</time></trkpt><trkpt lat="44.20029340749138" lon="10.050806636285891"><ele>111.99999999999999</ele><time>2026-05-03T07:45:12.859Z</time></trkpt><trkpt lat="44.20033444632183" lon="10.050926766298273"><ele>112.0</ele><time>2026-05-03T07:45:13.859Z</time></trkpt><trkpt lat="44.20037399320132" lon="10.051051251869453"><ele>112.0</ele><time>2026-05-03T07:45:14.859Z</time></trkpt><trkpt lat="44.200412784990505" lon="10.05117683165346"><ele>112.19999999999999</ele><time>2026-05-03T07:45:15.859Z</time></trkpt><trkpt lat="44.20045626798627" lon="10.051298173822424"><ele>112.39999999999999</ele><time>2026-05-03T07:45:16.859Z</time></trkpt><trkpt lat="44.200498499194424" lon="10.051420350645271"><ele>112.60000000000001</ele><time>2026-05-03T07:45:17.859Z</time></trkpt><trkpt lat="44.20053674014854" lon="10.051542751972107"><ele>112.80000000000001</ele><time>2026-05-03T07:45:18.859Z</time></trkpt><trkpt lat="44.20057787156756" lon="10.051663810654638"><ele>113.0</ele><time>2026-05-03T07:45:19.858Z</time></trkpt><trkpt lat="44.200602411927235" lon="10.05179001041514"><ele>113.4</ele><time>2026-05-03T07:45:20.858Z</time></trkpt><trkpt lat="44.20063210993157" lon="10.051922544578817"><ele>113.80000000000001</ele><time>2026-05-03T07:45:21.858Z</time></trkpt><trkpt lat="44.20065044029776" lon="10.052071523514341"><ele>114.2</ele><time>2026-05-03T07:45:22.858Z</time></trkpt><trkpt lat="44.20065636535163" lon="10.052225918375175"><ele>114.6</ele><time>2026-05-03T07:45:23.858Z</time></trkpt><trkpt lat="44.20065217808163" lon="10.052384586912993"><ele>115.0</ele><time>2026-05-03T07:45:24.858Z</time></trkpt><trkpt lat="44.200640237559625" lon="10.052544385878548"><ele>115.0</ele><time>2026-05-03T07:45:25.858Z</time></trkpt><trkpt lat="44.200631537266084" lon="10.052699530227663"><ele>115.0</ele><time>2026-05-03T07:45:26.858Z</time></trkpt><trkpt lat="44.20062925548539" lon="10.052845274583062"><ele>115.0</ele><time>2026-05-03T07:45:27.858Z</time></trkpt><trkpt lat="44.20062804420366" lon="10.052994219874748"><ele>115.0</ele><time>2026-05-03T07:45:28.858Z</time></trkpt><trkpt lat="44.20063095166056" lon="10.053141717617073"><ele>115.0</ele><time>2026-05-03T07:45:29.858Z</time></trkpt><trkpt lat="44.200627908793784" lon="10.053287269222208"><ele>114.8</ele><time>2026-05-03T07:45:30.858Z</time></trkpt><trkpt lat="44.20061367296953" lon="10.0534356429801"><ele>114.6</ele><time>2026-05-03T07:45:31.858Z</time></trkpt><trkpt lat="44.20060092545286" lon="10.053588838514575"><ele>114.4</ele><time>2026-05-03T07:45:32.858Z</time></trkpt><trkpt lat="44.20058788601164" lon="10.05374383060672"><ele>114.2</ele><time>2026-05-03T07:45:33.858Z</time></trkpt><trkpt lat="44.20057562318998" lon="10.05389656083147"><ele>114.0</ele><time>2026-05-03T07:45:34.858Z</time></trkpt><trkpt lat="44.20056397500311" lon="10.054044747309632"><ele>114.0</ele><time>2026-05-03T07:45:35.858Z</time></trkpt><trkpt lat="44.20055998317698" lon="10.054191368899435"><ele>114.0</ele><time>2026-05-03T07:45:36.858Z</time></trkpt><trkpt lat="44.20055014146534" lon="10.054330261478915"><ele>114.0</ele><time>2026-05-03T07:45:37.858Z</time></trkpt><trkpt lat="44.200537367277605" lon="10.054470491037307"><ele>114.0</ele><time>2026-05-03T07:45:38.858Z</time></trkpt><trkpt lat="44.20052799628735" lon="10.054617529823918"><ele>114.0</ele><time>2026-05-03T07:45:39.858Z</time></trkpt><trkpt lat="44.20051813837595" lon="10.054766872451522"><ele>114.0</ele><time>2026-05-03T07:45:40.858Z</time></trkpt><trkpt lat="44.200512734711104" lon="10.054916438489736"><ele>114.0</ele><time>2026-05-03T07:45:41.858Z</time></trkpt><trkpt lat="44.200506660012245" lon="10.05506528497783"><ele>114.0</ele><time>2026-05-03T07:45:42.858Z</time></trkpt><trkpt lat="44.20049539195107" lon="10.055209398523663"><ele>114.0</ele><time>2026-05-03T07:45:43.858Z</time></trkpt><trkpt lat="44.200484311652815" lon="10.055354535190489"><ele>114.0</ele><time>2026-05-03T07:45:44.858Z</time></trkpt><trkpt lat="44.20047347772126" lon="10.055499522464501"><ele>114.4</ele><time>2026-05-03T07:45:45.858Z</time></trkpt><trkpt lat="44.200458670084465" lon="10.05564725329164"><ele>114.80000000000001</ele><time>2026-05-03T07:45:46.858Z</time></trkpt><trkpt lat="44.20045130713773" lon="10.055797382698191"><ele>115.19999999999999</ele><time>2026-05-03T07:45:47.858Z</time></trkpt><trkpt lat="44.20045720639917" lon="10.055957441067598"><ele>115.6</ele><time>2026-05-03T07:45:48.858Z</time></trkpt><trkpt lat="44.200479199305754" lon="10.056106670316796"><ele>116.0</ele><time>2026-05-03T07:45:49.858Z</time></trkpt><trkpt lat="44.200519701634526" lon="10.05625926772525"><ele>116.0</ele><time>2026-05-03T07:45:50.858Z</time></trkpt><trkpt lat="44.20056051333733" lon="10.056411127668634"><ele>116.0</ele><time>2026-05-03T07:45:51.858Z</time></trkpt><trkpt lat="44.20060138410253" lon="10.056555274137096"><ele>116.0</ele><time>2026-05-03T07:45:52.858Z</time></trkpt><trkpt lat="44.20063798579706" lon="10.056688439936561"><ele>116.0</ele><time>2026-05-03T07:45:53.858Z</time></trkpt><trkpt lat="44.20066546311297" lon="10.056818445036503"><ele>116.0</ele><time>2026-05-03T07:45:54.858Z</time></trkpt><trkpt lat="44.200709089027626" lon="10.0569528376786"><ele>117.8</ele><time>2026-05-03T07:45:55.858Z</time></trkpt><trkpt lat="44.20073882868214" lon="10.057096647424883"><ele>119.6</ele><time>2026-05-03T07:45:56.858Z</time></trkpt><trkpt lat="44.2007750874125" lon="10.057230671832018"><ele>121.4</ele><time>2026-05-03T07:45:57.858Z</time></trkpt><trkpt lat="44.200812817491" lon="10.05737514373094"><ele>123.2</ele><time>2026-05-03T07:45:58.858Z</time></trkpt><trkpt lat="44.20084865282882" lon="10.057515954584384"><ele>125.0</ele><time>2026-05-03T07:45:59.858Z</time></trkpt><trkpt lat="44.20088161490199" lon="10.057650536831694"><ele>125.0</ele><time>2026-05-03T07:46:00.858Z</time></trkpt><trkpt lat="44.200913822210616" lon="10.057785012204633"><ele>125.0</ele><time>2026-05-03T07:46:01.858Z</time></trkpt><trkpt lat="44.20094962860779" lon="10.057918012741608"><ele>125.0</ele><time>2026-05-03T07:46:02.858Z</time></trkpt><trkpt lat="44.20099232086295" lon="10.058069863847958"><ele>125.0</ele><time>2026-05-03T07:46:03.858Z</time></trkpt><trkpt lat="44.20103753653508" lon="10.058208484927006"><ele>125.0</ele><time>2026-05-03T07:46:04.858Z</time></trkpt><trkpt lat="44.20109232707022" lon="10.058351385728242"><ele>123.5</ele><time>2026-05-03T07:46:05.858Z</time></trkpt><trkpt lat="44.20115833127811" lon="10.058471843868878"><ele>122.0</ele><time>2026-05-03T07:46:06.858Z</time></trkpt><trkpt lat="44.2012354064338" lon="10.058591892578725"><ele>120.5</ele><time>2026-05-03T07:46:07.858Z</time></trkpt><trkpt lat="44.20132398655664" lon="10.058707266164484"><ele>119.0</ele><time>2026-05-03T07:46:08.858Z</time></trkpt><trkpt lat="44.20141719833123" lon="10.058807121531668"><ele>121.75</ele><time>2026-05-03T07:46:09.858Z</time></trkpt><trkpt lat="44.20151093389843" lon="10.058912815711471"><ele>124.5</ele><time>2026-05-03T07:46:10.858Z</time></trkpt><trkpt lat="44.20160417919605" lon="10.05901848980394"><ele>127.25</ele><time>2026-05-03T07:46:11.858Z</time></trkpt><trkpt lat="44.201693081376064" lon="10.059121308939764"><ele>130.0</ele><time>2026-05-03T07:46:12.858Z</time></trkpt><trkpt lat="44.20177825064221" lon="10.059229276361757"><ele>130.0</ele><time>2026-05-03T07:46:13.858Z</time></trkpt><trkpt lat="44.201861024013525" lon="10.05933831248819"><ele>130.0</ele><time>2026-05-03T07:46:14.858Z</time></trkpt><trkpt lat="44.201937227145244" lon="10.059453666508512"><ele>130.0</ele><time>2026-05-03T07:46:15.858Z</time></trkpt><trkpt lat="44.2020070253004" lon="10.059579935678824"><ele>130.0</ele><time>2026-05-03T07:46:16.858Z</time></trkpt><trkpt lat="44.20207552172048" lon="10.059711067964479"><ele>130.0</ele><time>2026-05-03T07:46:17.858Z</time></trkpt><trkpt lat="44.202144353388974" lon="10.059840496013265"><ele>130.0</ele><time>2026-05-03T07:46:18.858Z</time></trkpt><trkpt lat="44.202206690598175" lon="10.059966687533157"><ele>130.0</ele><time>2026-05-03T07:46:19.858Z</time></trkpt><trkpt lat="44.202260584634566" lon="10.060083996599815"><ele>130.0</ele><time>2026-05-03T07:46:20.858Z</time></trkpt><trkpt lat="44.20232114686129" lon="10.060200051709488"><ele>130.0</ele><time>2026-05-03T07:46:21.858Z</time></trkpt><trkpt lat="44.20237306017338" lon="10.06031966210871"><ele>129.2</ele><time>2026-05-03T07:46:22.858Z</time></trkpt><trkpt lat="44.20242906030249" lon="10.060443310404724"><ele>128.4</ele><time>2026-05-03T07:46:23.858Z</time></trkpt><trkpt lat="44.202484826150595" lon="10.060570363401798"><ele>127.6</ele><time>2026-05-03T07:46:24.858Z</time></trkpt><trkpt lat="44.20253484824759" lon="10.060698117817017"><ele>126.8</ele><time>2026-05-03T07:46:25.858Z</time></trkpt><trkpt lat="44.202586400720016" lon="10.060832588601444"><ele>126.0</ele><time>2026-05-03T07:46:26.858Z</time></trkpt><trkpt lat="44.202635922320034" lon="10.060971389850678"><ele>126.0</ele><time>2026-05-03T07:46:27.858Z</time></trkpt><trkpt lat="44.20268490751768" lon="10.061109381267388"><ele>126.0</ele><time>2026-05-03T07:46:28.858Z</time></trkpt><trkpt lat="44.20272969401088" lon="10.061223248741104"><ele>126.0</ele><time>2026-05-03T07:46:29.857Z</time></trkpt><trkpt lat="44.20275835719331" lon="10.061308804683325"><ele>126.0</ele><time>2026-05-03T07:46:30.857Z</time></trkpt><trkpt lat="44.20279157382312" lon="10.061406380827236"><ele>126.0</ele><time>2026-05-03T07:46:32.857Z</time></trkpt><trkpt lat="44.20282667768849" lon="10.06151352798568"><ele>126.0</ele><time>2026-05-03T07:46:34.856Z</time></trkpt><trkpt lat="44.202882949591164" lon="10.061683218757972"><ele>124.19999999999999</ele><time>2026-05-03T07:46:36.856Z</time></trkpt><trkpt lat="44.20291979452782" lon="10.061783897636111"><ele>122.39999999999999</ele><time>2026-05-03T07:46:37.857Z</time></trkpt><trkpt lat="44.20296721395685" lon="10.061892122827405"><ele>120.6</ele><time>2026-05-03T07:46:38.857Z</time></trkpt><trkpt lat="44.2030175749522" lon="10.06202081146649"><ele>118.8</ele><time>2026-05-03T07:46:39.856Z</time></trkpt><trkpt lat="44.20306956649248" lon="10.062142512253548"><ele>117.0</ele><time>2026-05-03T07:46:40.856Z</time></trkpt><trkpt lat="44.20311801063719" lon="10.062263301787393"><ele>117.0</ele><time>2026-05-03T07:46:41.856Z</time></trkpt><trkpt lat="44.20316095567381" lon="10.062389895859738"><ele>116.99999999999999</ele><time>2026-05-03T07:46:42.856Z</time></trkpt><trkpt lat="44.20320192575284" lon="10.062519785319372"><ele>116.99999999999999</ele><time>2026-05-03T07:46:43.856Z</time></trkpt><trkpt lat="44.20324524058692" lon="10.062658340879944"><ele>117.0</ele><time>2026-05-03T07:46:44.856Z</time></trkpt><trkpt lat="44.20328469744087" lon="10.062809685335855"><ele>117.0</ele><time>2026-05-03T07:46:45.856Z</time></trkpt><trkpt lat="44.203335245522304" lon="10.062965046350316"><ele>118.25</ele><time>2026-05-03T07:46:46.856Z</time></trkpt><trkpt lat="44.20339702218816" lon="10.063120513799415"><ele>119.5</ele><time>2026-05-03T07:46:47.856Z</time></trkpt><trkpt lat="44.203465811488776" lon="10.063271439244685"><ele>120.75</ele><time>2026-05-03T07:46:48.856Z</time></trkpt><trkpt lat="44.203536524108095" lon="10.063420998542055"><ele>122.0</ele><time>2026-05-03T07:46:49.856Z</time></trkpt><trkpt lat="44.20361849211822" lon="10.063578363725105"><ele>122.0</ele><time>2026-05-03T07:46:50.856Z</time></trkpt><trkpt lat="44.20369320897604" lon="10.063729201177509"><ele>122.0</ele><time>2026-05-03T07:46:51.856Z</time></trkpt><trkpt lat="44.20377056658569" lon="10.063885199545167"><ele>122.0</ele><time>2026-05-03T07:46:52.856Z</time></trkpt><trkpt lat="44.20385103274751" lon="10.064032251293774"><ele>122.0</ele><time>2026-05-03T07:46:53.856Z</time></trkpt><trkpt lat="44.203937670973446" lon="10.064172623587782"><ele>126.0</ele><time>2026-05-03T07:46:54.856Z</time></trkpt><trkpt lat="44.20402263476503" lon="10.064305240204533"><ele>130.0</ele><time>2026-05-03T07:46:55.856Z</time></trkpt><trkpt lat="44.204113765056" lon="10.06442920177566"><ele>134.0</ele><time>2026-05-03T07:46:56.856Z</time></trkpt><trkpt lat="44.204194758167425" lon="10.064543649813466"><ele>138.0</ele><time>2026-05-03T07:46:57.856Z</time></trkpt><trkpt lat="44.204275444703086" lon="10.064651214134233"><ele>138.0</ele><time>2026-05-03T07:46:58.856Z</time></trkpt><trkpt lat="44.20434704680455" lon="10.064773812204677"><ele>138.0</ele><time>2026-05-03T07:46:59.856Z</time></trkpt><trkpt lat="44.204422951621865" lon="10.064874288780581"><ele>138.0</ele><time>2026-05-03T07:47:00.856Z</time></trkpt><trkpt lat="44.204489533509" lon="10.064974974125064"><ele>138.0</ele><time>2026-05-03T07:47:01.855Z</time></trkpt><trkpt lat="44.20455407880838" lon="10.06507971291813"><ele>138.0</ele><time>2026-05-03T07:47:02.855Z</time></trkpt><trkpt lat="44.2046138428253" lon="10.06520509614937"><ele>134.25</ele><time>2026-05-03T07:47:03.855Z</time></trkpt><trkpt lat="44.20463963656821" lon="10.065360186022902"><ele>130.5</ele><time>2026-05-03T07:47:04.855Z</time></trkpt><trkpt lat="44.204637483674254" lon="10.065525393271365"><ele>126.75</ele><time>2026-05-03T07:47:05.855Z</time></trkpt><trkpt lat="44.20463214388265" lon="10.065689770199329"><ele>123.0</ele><time>2026-05-03T07:47:06.855Z</time></trkpt><trkpt lat="44.20462654671938" lon="10.065841927120696"><ele>122.2</ele><time>2026-05-03T07:47:07.855Z</time></trkpt><trkpt lat="44.20460169588732" lon="10.065984625535895"><ele>121.4</ele><time>2026-05-03T07:47:08.855Z</time></trkpt><trkpt lat="44.20456350020343" lon="10.06612026534226"><ele>120.60000000000001</ele><time>2026-05-03T07:47:09.855Z</time></trkpt><trkpt lat="44.20451994451099" lon="10.066262628816531"><ele>119.80000000000001</ele><time>2026-05-03T07:47:10.855Z</time></trkpt><trkpt lat="44.20448669822016" lon="10.066398347463014"><ele>119.0</ele><time>2026-05-03T07:47:11.855Z</time></trkpt><trkpt lat="44.20445325513734" lon="10.066533705895441"><ele>120.0</ele><time>2026-05-03T07:47:12.855Z</time></trkpt><trkpt lat="44.20441109819025" lon="10.066663918154314"><ele>121.0</ele><time>2026-05-03T07:47:13.855Z</time></trkpt><trkpt lat="44.20437135351178" lon="10.066797269369841"><ele>122.0</ele><time>2026-05-03T07:47:14.855Z</time></trkpt><trkpt lat="44.2043429881909" lon="10.066923163674073"><ele>123.0</ele><time>2026-05-03T07:47:15.855Z</time></trkpt><trkpt lat="44.204308412881" lon="10.0670496896431"><ele>124.0</ele><time>2026-05-03T07:47:16.855Z</time></trkpt><trkpt lat="44.2042731010376" lon="10.0671748429108"><ele>124.00000000000001</ele><time>2026-05-03T07:47:17.855Z</time></trkpt><trkpt lat="44.204242999166425" lon="10.067299748041052"><ele>124.0</ele><time>2026-05-03T07:47:18.855Z</time></trkpt><trkpt lat="44.20422003704676" lon="10.06740346008112"><ele>124.0</ele><time>2026-05-03T07:47:19.855Z</time></trkpt><trkpt lat="44.20419879514416" lon="10.067489387392348"><ele>124.0</ele><time>2026-05-03T07:47:20.855Z</time></trkpt><trkpt lat="44.20416544846288" lon="10.067610509295362"><ele>124.00000000000001</ele><time>2026-05-03T07:47:22.855Z</time></trkpt><trkpt lat="44.20414722864851" lon="10.067705807570348"><ele>124.0</ele><time>2026-05-03T07:47:24.855Z</time></trkpt><trkpt lat="44.20411745532388" lon="10.067796923929246"><ele>124.0</ele><time>2026-05-03T07:47:26.855Z</time></trkpt><trkpt lat="44.20408810978744" lon="10.067878955068574"><ele>124.00000000000001</ele><time>2026-05-03T07:47:30.855Z</time></trkpt><trkpt lat="44.20405327014858" lon="10.067962416487092"><ele>124.0</ele><time>2026-05-03T07:47:35.855Z</time></trkpt><trkpt lat="44.204015525764184" lon="10.068074770028852"><ele>124.0</ele><time>2026-05-03T07:47:38.855Z</time></trkpt><trkpt lat="44.20396755692767" lon="10.068186152379385"><ele>124.00000000000001</ele><time>2026-05-03T07:47:40.855Z</time></trkpt><trkpt lat="44.20393153885992" lon="10.068259672987582"><ele>124.0</ele><time>2026-05-03T07:47:41.855Z</time></trkpt><trkpt lat="44.203897681469435" lon="10.06833592394112"><ele>124.0</ele><time>2026-05-03T07:47:42.855Z</time></trkpt><trkpt lat="44.20385499670914" lon="10.068422664083613"><ele>123.80000000000001</ele><time>2026-05-03T07:47:43.855Z</time></trkpt><trkpt lat="44.203806268895065" lon="10.068521707984395"><ele>123.60000000000001</ele><time>2026-05-03T07:47:44.855Z</time></trkpt><trkpt lat="44.20375531175002" lon="10.068627841373187"><ele>123.4</ele><time>2026-05-03T07:47:45.855Z</time></trkpt><trkpt lat="44.203699032791015" lon="10.068747743255773"><ele>123.2</ele><time>2026-05-03T07:47:46.855Z</time></trkpt><trkpt lat="44.203637209524985" lon="10.068874608087203"><ele>123.0</ele><time>2026-05-03T07:47:47.855Z</time></trkpt><trkpt lat="44.20356556023319" lon="10.069018861149978"><ele>122.5</ele><time>2026-05-03T07:47:48.855Z</time></trkpt><trkpt lat="44.203489340590984" lon="10.069167382280657"><ele>122.0</ele><time>2026-05-03T07:47:49.855Z</time></trkpt><trkpt lat="44.20340679119652" lon="10.06932597160721"><ele>121.5</ele><time>2026-05-03T07:47:50.855Z</time></trkpt><trkpt lat="44.203327948357156" lon="10.069484421015407"><ele>121.0</ele><time>2026-05-03T07:47:51.855Z</time></trkpt><trkpt lat="44.20325322323992" lon="10.0696348456774"><ele>121.0</ele><time>2026-05-03T07:47:52.855Z</time></trkpt><trkpt lat="44.20319405198529" lon="10.069780386682487"><ele>121.0</ele><time>2026-05-03T07:47:53.855Z</time></trkpt><trkpt lat="44.20317703923018" lon="10.06993137288055"><ele>121.0</ele><time>2026-05-03T07:47:54.855Z</time></trkpt><trkpt lat="44.20321410429608" lon="10.07008798072294"><ele>121.0</ele><time>2026-05-03T07:47:55.855Z</time></trkpt><trkpt lat="44.20329574930375" lon="10.070252865340839"><ele>123.66666666666667</ele><time>2026-05-03T07:47:56.855Z</time></trkpt><trkpt lat="44.203419467839666" lon="10.070427172389625"><ele>126.33333333333334</ele><time>2026-05-03T07:47:57.855Z</time></trkpt><trkpt lat="44.203567176557655" lon="10.070634548293551"><ele>129.0</ele><time>2026-05-03T07:47:58.855Z</time></trkpt><trkpt lat="44.20372612261756" lon="10.070884666466652"><ele>128.5</ele><time>2026-05-03T07:47:59.855Z</time></trkpt><trkpt lat="44.20389129305843" lon="10.071152449232672"><ele>128.0</ele><time>2026-05-03T07:48:00.855Z</time></trkpt><trkpt lat="44.20404033078122" lon="10.071394081201882"><ele>130.66666666666666</ele><time>2026-05-03T07:48:01.855Z</time></trkpt><trkpt lat="44.20417920269936" lon="10.071613184238638"><ele>133.33333333333334</ele><time>2026-05-03T07:48:02.855Z</time></trkpt><trkpt lat="44.20430508353927" lon="10.071812624626366"><ele>136.0</ele><time>2026-05-03T07:48:03.855Z</time></trkpt><trkpt lat="44.204423130231405" lon="10.071990239547906"><ele>136.0</ele><time>2026-05-03T07:48:04.855Z</time></trkpt><trkpt lat="44.20452285372347" lon="10.072156301007237"><ele>136.0</ele><time>2026-05-03T07:48:05.855Z</time></trkpt><trkpt lat="44.20462262779556" lon="10.072321322165488"><ele>136.0</ele><time>2026-05-03T07:48:06.855Z</time></trkpt><trkpt lat="44.20471445098325" lon="10.07249878863657"><ele>135.0</ele><time>2026-05-03T07:48:07.855Z</time></trkpt><trkpt lat="44.20478706849602" lon="10.072701670554316"><ele>134.0</ele><time>2026-05-03T07:48:08.855Z</time></trkpt><trkpt lat="44.2048493452788" lon="10.07291349165547"><ele>133.0</ele><time>2026-05-03T07:48:09.855Z</time></trkpt><trkpt lat="44.20491086914973" lon="10.073117387046446"><ele>135.0</ele><time>2026-05-03T07:48:10.855Z</time></trkpt><trkpt lat="44.20496704953309" lon="10.073318946167834"><ele>137.0</ele><time>2026-05-03T07:48:11.855Z</time></trkpt><trkpt lat="44.20502025295157" lon="10.073511044006695"><ele>139.0</ele><time>2026-05-03T07:48:12.854Z</time></trkpt><trkpt lat="44.205070969134646" lon="10.073691420865554"><ele>141.0</ele><time>2026-05-03T07:48:13.854Z</time></trkpt><trkpt lat="44.20511881790007" lon="10.073864069016638"><ele>141.0</ele><time>2026-05-03T07:48:14.854Z</time></trkpt><trkpt lat="44.20516260755064" lon="10.074028137796596"><ele>141.0</ele><time>2026-05-03T07:48:15.854Z</time></trkpt><trkpt lat="44.20520232484991" lon="10.074185382588881"><ele>141.0</ele><time>2026-05-03T07:48:16.854Z</time></trkpt><trkpt lat="44.20524668638457" lon="10.074340792230924"><ele>141.0</ele><time>2026-05-03T07:48:17.854Z</time></trkpt><trkpt lat="44.20529062512221" lon="10.074504223416799"><ele>144.75</ele><time>2026-05-03T07:48:18.854Z</time></trkpt><trkpt lat="44.20533834116641" lon="10.074673220114663"><ele>148.5</ele><time>2026-05-03T07:48:19.854Z</time></trkpt><trkpt lat="44.20538836116541" lon="10.074837733253444"><ele>152.25</ele><time>2026-05-03T07:48:20.854Z</time></trkpt><trkpt lat="44.20542782884734" lon="10.075006907803324"><ele>156.0</ele><time>2026-05-03T07:48:21.854Z</time></trkpt><trkpt lat="44.20545146215259" lon="10.075178724360685"><ele>159.75</ele><time>2026-05-03T07:48:22.854Z</time></trkpt><trkpt lat="44.205461554796386" lon="10.075366876289307"><ele>163.5</ele><time>2026-05-03T07:48:23.854Z</time></trkpt><trkpt lat="44.20547217234256" lon="10.075543556381145"><ele>167.25</ele><time>2026-05-03T07:48:24.854Z</time></trkpt><trkpt lat="44.20547749275334" lon="10.075709595790192"><ele>171.0</ele><time>2026-05-03T07:48:25.854Z</time></trkpt><trkpt lat="44.20548269670919" lon="10.075872682717096"><ele>172.25</ele><time>2026-05-03T07:48:26.854Z</time></trkpt><trkpt lat="44.20549163054498" lon="10.076033800053594"><ele>173.5</ele><time>2026-05-03T07:48:27.854Z</time></trkpt><trkpt lat="44.20550646029647" lon="10.076197819686124"><ele>174.75</ele><time>2026-05-03T07:48:28.854Z</time></trkpt><trkpt lat="44.20551650484794" lon="10.076362606549432"><ele>176.0</ele><time>2026-05-03T07:48:29.854Z</time></trkpt><trkpt lat="44.20553158278708" lon="10.0765341152631"><ele>175.75</ele><time>2026-05-03T07:48:30.854Z</time></trkpt><trkpt lat="44.20554719280265" lon="10.076705338485965"><ele>175.5</ele><time>2026-05-03T07:48:31.854Z</time></trkpt><trkpt lat="44.20557038620432" lon="10.076877188241163"><ele>175.25</ele><time>2026-05-03T07:48:32.854Z</time></trkpt><trkpt lat="44.205607067105554" lon="10.077048015031945"><ele>175.0</ele><time>2026-05-03T07:48:33.854Z</time></trkpt><trkpt lat="44.205663184482276" lon="10.077214225338913"><ele>167.5</ele><time>2026-05-03T07:48:34.854Z</time></trkpt><trkpt lat="44.20572739194342" lon="10.077383369560554"><ele>160.0</ele><time>2026-05-03T07:48:35.854Z</time></trkpt><trkpt lat="44.20578886070612" lon="10.077531898367551"><ele>152.5</ele><time>2026-05-03T07:48:36.853Z</time></trkpt><trkpt lat="44.2058545878355" lon="10.077676196622333"><ele>145.0</ele><time>2026-05-03T07:48:37.853Z</time></trkpt><trkpt lat="44.20591060490089" lon="10.077840987607047"><ele>145.0</ele><time>2026-05-03T07:48:38.853Z</time></trkpt><trkpt lat="44.20594298533997" lon="10.078017932258122"><ele>145.0</ele><time>2026-05-03T07:48:39.853Z</time></trkpt><trkpt lat="44.205953289823896" lon="10.07818611091306"><ele>145.0</ele><time>2026-05-03T07:48:40.854Z</time></trkpt><trkpt lat="44.205941297036496" lon="10.078358197839433"><ele>145.0</ele><time>2026-05-03T07:48:41.854Z</time></trkpt><trkpt lat="44.205920518267106" lon="10.078529098058704"><ele>146.0</ele><time>2026-05-03T07:48:42.854Z</time></trkpt><trkpt lat="44.20589698682725" lon="10.078681213284268"><ele>147.0</ele><time>2026-05-03T07:48:43.853Z</time></trkpt><trkpt lat="44.20587790614642" lon="10.078826654465276"><ele>148.0</ele><time>2026-05-03T07:48:44.853Z</time></trkpt><trkpt lat="44.205860469667165" lon="10.078966916152654"><ele>149.0</ele><time>2026-05-03T07:48:45.853Z</time></trkpt><trkpt lat="44.205843094275494" lon="10.079104804423357"><ele>150.0</ele><time>2026-05-03T07:48:46.853Z</time></trkpt><trkpt lat="44.20582632556577" lon="10.079235703638568"><ele>150.0</ele><time>2026-05-03T07:48:47.853Z</time></trkpt><trkpt lat="44.20581127719727" lon="10.079365347596442"><ele>150.0</ele><time>2026-05-03T07:48:48.853Z</time></trkpt><trkpt lat="44.20579601247392" lon="10.079499022048257"><ele>150.0</ele><time>2026-05-03T07:48:49.853Z</time></trkpt><trkpt lat="44.205779006925425" lon="10.07963667383737"><ele>150.0</ele><time>2026-05-03T07:48:50.853Z</time></trkpt><trkpt lat="44.205761720842744" lon="10.079776226895866"><ele>150.0</ele><time>2026-05-03T07:48:51.853Z</time></trkpt><trkpt lat="44.205745969210845" lon="10.07990940568815"><ele>149.6</ele><time>2026-05-03T07:48:52.853Z</time></trkpt><trkpt lat="44.20572850967635" lon="10.08004604863951"><ele>149.2</ele><time>2026-05-03T07:48:53.853Z</time></trkpt><trkpt lat="44.20571361188153" lon="10.08017769369922"><ele>148.8</ele><time>2026-05-03T07:48:54.853Z</time></trkpt><trkpt lat="44.2056892766979" lon="10.080317825967272"><ele>148.4</ele><time>2026-05-03T07:48:55.853Z</time></trkpt><trkpt lat="44.20565650326755" lon="10.080475340443465"><ele>148.0</ele><time>2026-05-03T07:48:56.853Z</time></trkpt><trkpt lat="44.20561357652021" lon="10.080647285364183"><ele>152.0</ele><time>2026-05-03T07:48:57.853Z</time></trkpt><trkpt lat="44.2055588398888" lon="10.080829106879904"><ele>156.0</ele><time>2026-05-03T07:48:58.853Z</time></trkpt><trkpt lat="44.20549658402704" lon="10.081014994377211"><ele>160.0</ele><time>2026-05-03T07:48:59.853Z</time></trkpt><trkpt lat="44.20544090624767" lon="10.081198393408359"><ele>164.0</ele><time>2026-05-03T07:49:00.853Z</time></trkpt><trkpt lat="44.2054127992572" lon="10.081377610435702"><ele>164.0</ele><time>2026-05-03T07:49:01.853Z</time></trkpt><trkpt lat="44.20543266522549" lon="10.08156088753307"><ele>164.0</ele><time>2026-05-03T07:49:02.853Z</time></trkpt><trkpt lat="44.20550247938811" lon="10.081716250221815"><ele>164.0</ele><time>2026-05-03T07:49:03.853Z</time></trkpt><trkpt lat="44.205611450886984" lon="10.081867031192196"><ele>164.0</ele><time>2026-05-03T07:49:04.853Z</time></trkpt><trkpt lat="44.20575787021661" lon="10.08204320082887"><ele>167.5</ele><time>2026-05-03T07:49:05.853Z</time></trkpt><trkpt lat="44.20592745461331" lon="10.082252010825778"><ele>171.0</ele><time>2026-05-03T07:49:06.853Z</time></trkpt><trkpt lat="44.206095476233216" lon="10.082482928336816"><ele>171.0</ele><time>2026-05-03T07:49:07.853Z</time></trkpt><trkpt lat="44.206236544621056" lon="10.082672599416892"><ele>171.0</ele><time>2026-05-03T07:49:08.853Z</time></trkpt><trkpt lat="44.206383035081025" lon="10.08285296258252"><ele>171.0</ele><time>2026-05-03T07:49:09.853Z</time></trkpt><trkpt lat="44.20652127204377" lon="10.083027256116322"><ele>172.0</ele><time>2026-05-03T07:49:10.853Z</time></trkpt><trkpt lat="44.20664170171226" lon="10.083182420910372"><ele>173.0</ele><time>2026-05-03T07:49:11.853Z</time></trkpt><trkpt lat="44.20674209289697" lon="10.083314591142614"><ele>174.0</ele><time>2026-05-03T07:49:12.853Z</time></trkpt><trkpt lat="44.20681503718476" lon="10.083427639255707"><ele>175.0</ele><time>2026-05-03T07:49:13.853Z</time></trkpt><trkpt lat="44.20685164594432" lon="10.083553273736422"><ele>175.0</ele><time>2026-05-03T07:49:14.853Z</time></trkpt><trkpt lat="44.206866708832315" lon="10.083696451430772"><ele>175.0</ele><time>2026-05-03T07:49:15.853Z</time></trkpt><trkpt lat="44.206826112132255" lon="10.083854069293318"><ele>175.0</ele><time>2026-05-03T07:49:16.853Z</time></trkpt><trkpt lat="44.206729135899785" lon="10.083977571227868"><ele>175.0</ele><time>2026-05-03T07:49:17.853Z</time></trkpt><trkpt lat="44.20660158002704" lon="10.084048946174423"><ele>176.0</ele><time>2026-05-03T07:49:18.853Z</time></trkpt><trkpt lat="44.20645842406513" lon="10.084067757589503"><ele>177.0</ele><time>2026-05-03T07:49:19.853Z</time></trkpt><trkpt lat="44.20629347332307" lon="10.084023848922705"><ele>178.0</ele><time>2026-05-03T07:49:20.853Z</time></trkpt><trkpt lat="44.20613517183" lon="10.083909135071815"><ele>178.0</ele><time>2026-05-03T07:49:21.853Z</time></trkpt><trkpt lat="44.2059807966854" lon="10.083792972139296"><ele>178.0</ele><time>2026-05-03T07:49:22.853Z</time></trkpt><trkpt lat="44.205808668961986" lon="10.083705427167976"><ele>178.0</ele><time>2026-05-03T07:49:23.853Z</time></trkpt><trkpt lat="44.2056278917536" lon="10.0836407777118"><ele>176.33333333333334</ele><time>2026-05-03T07:49:24.853Z</time></trkpt><trkpt lat="44.20544304653557" lon="10.083592301500497"><ele>174.66666666666666</ele><time>2026-05-03T07:49:25.853Z</time></trkpt><trkpt lat="44.20525759416361" lon="10.083562792093414"><ele>173.0</ele><time>2026-05-03T07:49:26.853Z</time></trkpt><trkpt lat="44.20506597417467" lon="10.083548614492312"><ele>173.0</ele><time>2026-05-03T07:49:27.853Z</time></trkpt><trkpt lat="44.20489386615793" lon="10.08353766899599"><ele>173.0</ele><time>2026-05-03T07:49:28.853Z</time></trkpt><trkpt lat="44.20474051533461" lon="10.083512124678316"><ele>173.0</ele><time>2026-05-03T07:49:29.853Z</time></trkpt><trkpt lat="44.204600180760345" lon="10.08347119334007"><ele>172.66666666666666</ele><time>2026-05-03T07:49:30.853Z</time></trkpt><trkpt lat="44.204480088617096" lon="10.083362658477094"><ele>172.33333333333334</ele><time>2026-05-03T07:49:31.853Z</time></trkpt><trkpt lat="44.20434769721748" lon="10.083227377882809"><ele>172.0</ele><time>2026-05-03T07:49:32.853Z</time></trkpt><trkpt lat="44.204210831988625" lon="10.083091974391863"><ele>172.0</ele><time>2026-05-03T07:49:33.853Z</time></trkpt><trkpt lat="44.20405407894549" lon="10.082984025638297"><ele>172.0</ele><time>2026-05-03T07:49:34.853Z</time></trkpt><trkpt lat="44.20387697853684" lon="10.082894213418026"><ele>172.0</ele><time>2026-05-03T07:49:35.853Z</time></trkpt><trkpt lat="44.20371569260183" lon="10.082806828713563"><ele>169.5</ele><time>2026-05-03T07:49:36.853Z</time></trkpt><trkpt lat="44.20356084483691" lon="10.082727854354106"><ele>167.0</ele><time>2026-05-03T07:49:37.853Z</time></trkpt><trkpt lat="44.20342472717655" lon="10.082654912041903"><ele>164.5</ele><time>2026-05-03T07:49:38.853Z</time></trkpt><trkpt lat="44.203301091198476" lon="10.082601521827474"><ele>162.0</ele><time>2026-05-03T07:49:39.853Z</time></trkpt><trkpt lat="44.20318101500399" lon="10.082588636451796"><ele>158.75</ele><time>2026-05-03T07:49:40.853Z</time></trkpt><trkpt lat="44.20305067630692" lon="10.08264979518856"><ele>155.5</ele><time>2026-05-03T07:49:41.853Z</time></trkpt><trkpt lat="44.20293339616427" lon="10.0827442383637"><ele>152.25</ele><time>2026-05-03T07:49:42.853Z</time></trkpt><trkpt lat="44.2028226745641" lon="10.082864084259203"><ele>149.0</ele><time>2026-05-03T07:49:43.852Z</time></trkpt><trkpt lat="44.20272660597264" lon="10.082983626826223"><ele>149.0</ele><time>2026-05-03T07:49:44.852Z</time></trkpt><trkpt lat="44.202662999361436" lon="10.083125478761811"><ele>149.0</ele><time>2026-05-03T07:49:45.852Z</time></trkpt><trkpt lat="44.20262224198123" lon="10.083285992831943"><ele>149.0</ele><time>2026-05-03T07:49:46.852Z</time></trkpt><trkpt lat="44.20263005139275" lon="10.083478702614343"><ele>149.0</ele><time>2026-05-03T07:49:47.852Z</time></trkpt><trkpt lat="44.20265648674399" lon="10.083698699848656"><ele>148.0</ele><time>2026-05-03T07:49:48.852Z</time></trkpt><trkpt lat="44.20267415953188" lon="10.083949033307363"><ele>147.0</ele><time>2026-05-03T07:49:49.852Z</time></trkpt><trkpt lat="44.202699531162956" lon="10.084187282117151"><ele>146.0</ele><time>2026-05-03T07:49:50.852Z</time></trkpt><trkpt lat="44.20271337077984" lon="10.08442047110482"><ele>144.0</ele><time>2026-05-03T07:49:51.852Z</time></trkpt><trkpt lat="44.20271535919675" lon="10.08465483881021"><ele>142.0</ele><time>2026-05-03T07:49:52.852Z</time></trkpt><trkpt lat="44.20270213600083" lon="10.084883709386075"><ele>140.0</ele><time>2026-05-03T07:49:53.852Z</time></trkpt><trkpt lat="44.202672907096925" lon="10.085108452014769"><ele>139.33333333333331</ele><time>2026-05-03T07:49:54.852Z</time></trkpt><trkpt lat="44.20262769146414" lon="10.085326420291112"><ele>138.66666666666666</ele><time>2026-05-03T07:49:55.852Z</time></trkpt><trkpt lat="44.20256397546005" lon="10.085523093371295"><ele>138.0</ele><time>2026-05-03T07:49:56.852Z</time></trkpt><trkpt lat="44.20250131812914" lon="10.085709180416448"><ele>139.33333333333334</ele><time>2026-05-03T07:49:57.852Z</time></trkpt><trkpt lat="44.202469557609135" lon="10.085906421690378"><ele>140.66666666666669</ele><time>2026-05-03T07:49:58.852Z</time></trkpt><trkpt lat="44.202473608180675" lon="10.086135589204112"><ele>142.0</ele><time>2026-05-03T07:49:59.852Z</time></trkpt><trkpt lat="44.202489286611396" lon="10.08638241287024"><ele>143.66666666666669</ele><time>2026-05-03T07:50:00.852Z</time></trkpt><trkpt lat="44.20250903308266" lon="10.086640315600418"><ele>145.33333333333334</ele><time>2026-05-03T07:50:01.852Z</time></trkpt><trkpt lat="44.20252318269736" lon="10.086902386647997"><ele>147.0</ele><time>2026-05-03T07:50:02.852Z</time></trkpt><trkpt lat="44.202535607869066" lon="10.08714880209799"><ele>147.0</ele><time>2026-05-03T07:50:03.852Z</time></trkpt><trkpt lat="44.20253037219069" lon="10.087368557509132"><ele>147.0</ele><time>2026-05-03T07:50:04.852Z</time></trkpt><trkpt lat="44.20250667099229" lon="10.087576656589837"><ele>147.0</ele><time>2026-05-03T07:50:05.852Z</time></trkpt><trkpt lat="44.2024704761516" lon="10.08776575542283"><ele>147.0</ele><time>2026-05-03T07:50:06.852Z</time></trkpt><trkpt lat="44.20242617510494" lon="10.087942616376315"><ele>146.2</ele><time>2026-05-03T07:50:07.852Z</time></trkpt><trkpt lat="44.20239209295241" lon="10.088106155659094"><ele>145.39999999999998</ele><time>2026-05-03T07:50:08.852Z</time></trkpt><trkpt lat="44.20235754297287" lon="10.088243672235796"><ele>144.60000000000002</ele><time>2026-05-03T07:50:09.852Z</time></trkpt><trkpt lat="44.20231049310588" lon="10.088341676759937"><ele>143.8</ele><time>2026-05-03T07:50:10.852Z</time></trkpt><trkpt lat="44.202240693422475" lon="10.08839682733729"><ele>143.0</ele><time>2026-05-03T07:50:11.852Z</time></trkpt><trkpt lat="44.20215250219342" lon="10.088419157961582"><ele>140.75</ele><time>2026-05-03T07:50:12.852Z</time></trkpt><trkpt lat="44.20205714157655" lon="10.088418898582738"><ele>138.5</ele><time>2026-05-03T07:50:13.852Z</time></trkpt><trkpt lat="44.20193579892634" lon="10.088417363159401"><ele>136.25</ele><time>2026-05-03T07:50:14.852Z</time></trkpt><trkpt lat="44.20181413598569" lon="10.088425097121629"><ele>134.0</ele><time>2026-05-03T07:50:15.852Z</time></trkpt><trkpt lat="44.20167264115628" lon="10.088446680806847"><ele>134.0</ele><time>2026-05-03T07:50:16.852Z</time></trkpt><trkpt lat="44.20153086139541" lon="10.088455967771269"><ele>134.0</ele><time>2026-05-03T07:50:17.852Z</time></trkpt><trkpt lat="44.20138763611619" lon="10.08845309203792"><ele>134.0</ele><time>2026-05-03T07:50:18.852Z</time></trkpt><trkpt lat="44.201257918062524" lon="10.088446730764328"><ele>134.0</ele><time>2026-05-03T07:50:19.852Z</time></trkpt><trkpt lat="44.201137447231275" lon="10.088417573741765"><ele>132.75</ele><time>2026-05-03T07:50:20.852Z</time></trkpt><trkpt lat="44.20102917060226" lon="10.088339673825507"><ele>131.5</ele><time>2026-05-03T07:50:21.852Z</time></trkpt><trkpt lat="44.200947198238026" lon="10.088214106087786"><ele>130.25</ele><time>2026-05-03T07:50:22.852Z</time></trkpt><trkpt lat="44.200893491322226" lon="10.088060382072928"><ele>129.0</ele><time>2026-05-03T07:50:23.852Z</time></trkpt><trkpt lat="44.20087493181683" lon="10.087890114378526"><ele>128.75</ele><time>2026-05-03T07:50:24.852Z</time></trkpt><trkpt lat="44.20088955594583" lon="10.087714015768496"><ele>128.5</ele><time>2026-05-03T07:50:25.852Z</time></trkpt><trkpt lat="44.20093862560391" lon="10.087550047119153"><ele>128.25</ele><time>2026-05-03T07:50:26.852Z</time></trkpt><trkpt lat="44.201029583090545" lon="10.08742834165967"><ele>128.0</ele><time>2026-05-03T07:50:27.852Z</time></trkpt><trkpt lat="44.20113868669242" lon="10.087342265850115"><ele>128.0</ele><time>2026-05-03T07:50:28.852Z</time></trkpt><trkpt lat="44.20126541941418" lon="10.087307891426258"><ele>128.0</ele><time>2026-05-03T07:50:29.852Z</time></trkpt><trkpt lat="44.201388282703185" lon="10.087335763879084"><ele>128.0</ele><time>2026-05-03T07:50:30.852Z</time></trkpt><trkpt lat="44.20150533015203" lon="10.087408982059626"><ele>128.0</ele><time>2026-05-03T07:50:31.852Z</time></trkpt><trkpt lat="44.20160441667776" lon="10.0875313835879"><ele>129.66666666666666</ele><time>2026-05-03T07:50:32.852Z</time></trkpt><trkpt lat="44.20167025551236" lon="10.087698799478016"><ele>131.33333333333334</ele><time>2026-05-03T07:50:33.852Z</time></trkpt><trkpt lat="44.201715226975196" lon="10.08790388563566"><ele>133.0</ele><time>2026-05-03T07:50:34.852Z</time></trkpt><trkpt lat="44.201757450315135" lon="10.088143516702068"><ele>133.33333333333334</ele><time>2026-05-03T07:50:35.852Z</time></trkpt><trkpt lat="44.20180133423242" lon="10.088411580771234"><ele>133.66666666666666</ele><time>2026-05-03T07:50:36.852Z</time></trkpt><trkpt lat="44.201853415336586" lon="10.088698180377204"><ele>134.0</ele><time>2026-05-03T07:50:37.852Z</time></trkpt><trkpt lat="44.20190860899648" lon="10.088998497628104"><ele>136.0</ele><time>2026-05-03T07:50:38.852Z</time></trkpt><trkpt lat="44.20196747452248" lon="10.089308219878548"><ele>138.0</ele><time>2026-05-03T07:50:39.852Z</time></trkpt><trkpt lat="44.202032383707426" lon="10.089632472143627"><ele>138.0</ele><time>2026-05-03T07:50:40.852Z</time></trkpt><trkpt lat="44.20209979184541" lon="10.089965324109526"><ele>138.0</ele><time>2026-05-03T07:50:41.852Z</time></trkpt><trkpt lat="44.20217249605783" lon="10.090309436474167"><ele>138.0</ele><time>2026-05-03T07:50:42.851Z</time></trkpt><trkpt lat="44.20225429006049" lon="10.090671502727462"><ele>138.0</ele><time>2026-05-03T07:50:43.851Z</time></trkpt><trkpt lat="44.202338377630284" lon="10.091035826172323"><ele>140.5</ele><time>2026-05-03T07:50:44.851Z</time></trkpt><trkpt lat="44.202419112734475" lon="10.091391323404713"><ele>143.0</ele><time>2026-05-03T07:50:45.851Z</time></trkpt><trkpt lat="44.202498966281524" lon="10.091747301172779"><ele>143.0</ele><time>2026-05-03T07:50:46.85Z</time></trkpt><trkpt lat="44.20257146344045" lon="10.092108341635393"><ele>143.0</ele><time>2026-05-03T07:50:47.85Z</time></trkpt><trkpt lat="44.202635227982505" lon="10.092469329259284"><ele>142.5</ele><time>2026-05-03T07:50:48.85Z</time></trkpt><trkpt lat="44.202699458753614" lon="10.0928245405602"><ele>142.0</ele><time>2026-05-03T07:50:49.85Z</time></trkpt><trkpt lat="44.202770103014046" lon="10.09317893003706"><ele>141.5</ele><time>2026-05-03T07:50:50.85Z</time></trkpt><trkpt lat="44.20284422117144" lon="10.09352803201657"><ele>141.0</ele><time>2026-05-03T07:50:51.85Z</time></trkpt><trkpt lat="44.20292297499294" lon="10.09386874550968"><ele>142.0</ele><time>2026-05-03T07:50:52.85Z</time></trkpt><trkpt lat="44.20299146953114" lon="10.09419807997909"><ele>143.0</ele><time>2026-05-03T07:50:53.85Z</time></trkpt><trkpt lat="44.2030461980172" lon="10.09451295299762"><ele>143.0</ele><time>2026-05-03T07:50:54.85Z</time></trkpt><trkpt lat="44.20308622088679" lon="10.094827874194154"><ele>143.0</ele><time>2026-05-03T07:50:55.85Z</time></trkpt><trkpt lat="44.203107430380385" lon="10.09514564131439"><ele>143.0</ele><time>2026-05-03T07:50:56.85Z</time></trkpt><trkpt lat="44.203111425578534" lon="10.09546137127098"><ele>143.0</ele><time>2026-05-03T07:50:57.85Z</time></trkpt><trkpt lat="44.203106302360105" lon="10.09577944560464"><ele>142.5</ele><time>2026-05-03T07:50:58.85Z</time></trkpt><trkpt lat="44.20308912395934" lon="10.09609424672598"><ele>142.0</ele><time>2026-05-03T07:50:59.85Z</time></trkpt><trkpt lat="44.203059819516334" lon="10.096408658933983"><ele>141.5</ele><time>2026-05-03T07:51:00.85Z</time></trkpt><trkpt lat="44.203012788703894" lon="10.09671658826697"><ele>141.0</ele><time>2026-05-03T07:51:01.85Z</time></trkpt><trkpt lat="44.202949655079834" lon="10.0970216989032"><ele>141.0</ele><time>2026-05-03T07:51:02.85Z</time></trkpt><trkpt lat="44.20287359787179" lon="10.097321261404879"><ele>141.0</ele><time>2026-05-03T07:51:03.85Z</time></trkpt><trkpt lat="44.20278267350392" lon="10.097616031983579"><ele>140.5</ele><time>2026-05-03T07:51:04.85Z</time></trkpt><trkpt lat="44.202683473460695" lon="10.097907806673353"><ele>140.0</ele><time>2026-05-03T07:51:05.85Z</time></trkpt><trkpt lat="44.20257215704184" lon="10.098199747662756"><ele>140.5</ele><time>2026-05-03T07:51:06.85Z</time></trkpt><trkpt lat="44.2024539403157" lon="10.098496409386353"><ele>141.0</ele><time>2026-05-03T07:51:07.85Z</time></trkpt><trkpt lat="44.202335815285096" lon="10.098793664755213"><ele>151.5</ele><time>2026-05-03T07:51:08.85Z</time></trkpt><trkpt lat="44.20222095626824" lon="10.099095093600218"><ele>162.0</ele><time>2026-05-03T07:51:09.85Z</time></trkpt><trkpt lat="44.20210930186742" lon="10.099400978742471"><ele>162.0</ele><time>2026-05-03T07:51:10.85Z</time></trkpt><trkpt lat="44.20199426376372" lon="10.099701321836159"><ele>162.0</ele><time>2026-05-03T07:51:11.85Z</time></trkpt><trkpt lat="44.20187844152258" lon="10.100009990625919"><ele>166.5</ele><time>2026-05-03T07:51:12.85Z</time></trkpt><trkpt lat="44.20176093444383" lon="10.1003183992521"><ele>171.0</ele><time>2026-05-03T07:51:13.85Z</time></trkpt><trkpt lat="44.20164268109206" lon="10.100626610176812"><ele>176.5</ele><time>2026-05-03T07:51:14.85Z</time></trkpt><trkpt lat="44.20152497263475" lon="10.100927134633443"><ele>182.0</ele><time>2026-05-03T07:51:15.85Z</time></trkpt><trkpt lat="44.20142673865348" lon="10.101197008238087"><ele>178.5</ele><time>2026-05-03T07:51:16.85Z</time></trkpt><trkpt lat="44.20131884812341" lon="10.101482567254951"><ele>175.0</ele><time>2026-05-03T07:51:17.85Z</time></trkpt><trkpt lat="44.20120991363129" lon="10.101768652321526"><ele>175.0</ele><time>2026-05-03T07:51:18.85Z</time></trkpt><trkpt lat="44.20107155938069" lon="10.1021204437123"><ele>175.0</ele><time>2026-05-03T07:51:19.85Z</time></trkpt><trkpt lat="44.20090927143225" lon="10.10237227880778"><ele>165.5</ele><time>2026-05-03T07:51:20.85Z</time></trkpt><trkpt lat="44.20075294164951" lon="10.102649974973675"><ele>156.0</ele><time>2026-05-03T07:51:21.85Z</time></trkpt><trkpt lat="44.20059929204495" lon="10.102923328559271"><ele>156.0</ele><time>2026-05-03T07:51:22.85Z</time></trkpt><trkpt lat="44.2004486844154" lon="10.103189563338729"><ele>156.0</ele><time>2026-05-03T07:51:23.85Z</time></trkpt><trkpt lat="44.200291019200364" lon="10.10345068047344"><ele>151.0</ele><time>2026-05-03T07:51:24.85Z</time></trkpt><trkpt lat="44.20013874067748" lon="10.10371285402168"><ele>146.0</ele><time>2026-05-03T07:51:25.85Z</time></trkpt><trkpt lat="44.19998846683352" lon="10.103968455426967"><ele>146.5</ele><time>2026-05-03T07:51:26.85Z</time></trkpt><trkpt lat="44.199837750978915" lon="10.104220054115403"><ele>147.0</ele><time>2026-05-03T07:51:27.85Z</time></trkpt><trkpt lat="44.199689975584285" lon="10.104463227337426"><ele>147.0</ele><time>2026-05-03T07:51:28.85Z</time></trkpt><trkpt lat="44.199549934953545" lon="10.104694891897513"><ele>147.0</ele><time>2026-05-03T07:51:29.85Z</time></trkpt><trkpt lat="44.19941997829776" lon="10.1049031130043"><ele>147.0</ele><time>2026-05-03T07:51:30.85Z</time></trkpt><trkpt lat="44.199288482099654" lon="10.105109555924175"><ele>148.33333333333334</ele><time>2026-05-03T07:51:31.85Z</time></trkpt><trkpt lat="44.19914425157049" lon="10.105311606275494"><ele>149.66666666666669</ele><time>2026-05-03T07:51:32.85Z</time></trkpt><trkpt lat="44.19898560391135" lon="10.105494192397401"><ele>151.0</ele><time>2026-05-03T07:51:33.85Z</time></trkpt><trkpt lat="44.198819149890575" lon="10.105662452788595"><ele>153.66666666666669</ele><time>2026-05-03T07:51:34.85Z</time></trkpt><trkpt lat="44.19864274000973" lon="10.105819487110484"><ele>156.33333333333334</ele><time>2026-05-03T07:51:35.85Z</time></trkpt><trkpt lat="44.198459694392255" lon="10.1059535175336"><ele>159.0</ele><time>2026-05-03T07:51:36.85Z</time></trkpt><trkpt lat="44.198282819394535" lon="10.106058247878158"><ele>157.66666666666666</ele><time>2026-05-03T07:51:37.85Z</time></trkpt><trkpt lat="44.198102932415885" lon="10.106154099719996"><ele>156.33333333333331</ele><time>2026-05-03T07:51:38.85Z</time></trkpt><trkpt lat="44.19793043784554" lon="10.106237067046967"><ele>155.0</ele><time>2026-05-03T07:51:39.85Z</time></trkpt><trkpt lat="44.197751759871004" lon="10.106326689928288"><ele>155.0</ele><time>2026-05-03T07:51:40.85Z</time></trkpt><trkpt lat="44.19757242329821" lon="10.106425288758857"><ele>155.0</ele><time>2026-05-03T07:51:41.85Z</time></trkpt><trkpt lat="44.19740350243751" lon="10.106511870912854"><ele>155.0</ele><time>2026-05-03T07:51:42.85Z</time></trkpt><trkpt lat="44.197246360563625" lon="10.106600419685536"><ele>156.33333333333331</ele><time>2026-05-03T07:51:43.85Z</time></trkpt><trkpt lat="44.197111831687046" lon="10.106710814969523"><ele>157.66666666666666</ele><time>2026-05-03T07:51:44.85Z</time></trkpt><trkpt lat="44.19699431171102" lon="10.106842963632898"><ele>159.0</ele><time>2026-05-03T07:51:45.85Z</time></trkpt><trkpt lat="44.196883488104525" lon="10.106981058731682"><ele>159.0</ele><time>2026-05-03T07:51:46.85Z</time></trkpt><trkpt lat="44.19676685063214" lon="10.107096236567273"><ele>159.0</ele><time>2026-05-03T07:51:47.85Z</time></trkpt><trkpt lat="44.19663778425699" lon="10.107194620517511"><ele>159.0</ele><time>2026-05-03T07:51:48.85Z</time></trkpt><trkpt lat="44.19650818381107" lon="10.107279513864635"><ele>159.0</ele><time>2026-05-03T07:51:49.85Z</time></trkpt><trkpt lat="44.19638705521002" lon="10.10736382820546"><ele>159.25</ele><time>2026-05-03T07:51:50.85Z</time></trkpt><trkpt lat="44.196274737267764" lon="10.107474923232486"><ele>159.5</ele><time>2026-05-03T07:51:51.85Z</time></trkpt><trkpt lat="44.196181000456285" lon="10.107621611917034"><ele>159.75</ele><time>2026-05-03T07:51:52.849Z</time></trkpt><trkpt lat="44.19608506155992" lon="10.107785436554039"><ele>160.0</ele><time>2026-05-03T07:51:53.849Z</time></trkpt><trkpt lat="44.19598663627897" lon="10.107963235572075"><ele>160.0</ele><time>2026-05-03T07:51:54.849Z</time></trkpt><trkpt lat="44.195882779338945" lon="10.108150058368544"><ele>160.0</ele><time>2026-05-03T07:51:55.849Z</time></trkpt><trkpt lat="44.195775812669055" lon="10.108331304929658"><ele>160.0</ele><time>2026-05-03T07:51:56.849Z</time></trkpt><trkpt lat="44.195676448174474" lon="10.108504212687611"><ele>159.75</ele><time>2026-05-03T07:51:57.849Z</time></trkpt><trkpt lat="44.195587539542984" lon="10.108657786630891"><ele>159.5</ele><time>2026-05-03T07:51:58.849Z</time></trkpt><trkpt lat="44.19551212094792" lon="10.108802889096179"><ele>159.25</ele><time>2026-05-03T07:51:59.849Z</time></trkpt><trkpt lat="44.19542982815112" lon="10.108945394426035"><ele>159.0</ele><time>2026-05-03T07:52:00.849Z</time></trkpt><trkpt lat="44.19535861776983" lon="10.109091332798394"><ele>160.75</ele><time>2026-05-03T07:52:01.849Z</time></trkpt><trkpt lat="44.195300124161115" lon="10.109239654961815"><ele>162.5</ele><time>2026-05-03T07:52:02.849Z</time></trkpt><trkpt lat="44.19524591053478" lon="10.109411276013136"><ele>164.25</ele><time>2026-05-03T07:52:03.849Z</time></trkpt><trkpt lat="44.1951935868322" lon="10.109586519030213"><ele>166.0</ele><time>2026-05-03T07:52:04.849Z</time></trkpt><trkpt lat="44.19517303156192" lon="10.109753166460077"><ele>166.0</ele><time>2026-05-03T07:52:05.849Z</time></trkpt><trkpt lat="44.195152173330676" lon="10.109871955335235"><ele>166.0</ele><time>2026-05-03T07:52:06.849Z</time></trkpt><trkpt lat="44.19512811351686" lon="10.109959070935199"><ele>166.0</ele><time>2026-05-03T07:52:07.849Z</time></trkpt><trkpt lat="44.19505405837532" lon="10.11006036353428"><ele>166.0</ele><time>2026-05-03T07:52:09.849Z</time></trkpt><trkpt lat="44.19491605997158" lon="10.110026470275281"><ele>166.0</ele><time>2026-05-03T07:52:11.849Z</time></trkpt><trkpt lat="44.194819189173565" lon="10.109987458835375"><ele>164.75</ele><time>2026-05-03T07:52:12.849Z</time></trkpt><trkpt lat="44.19471074065581" lon="10.109941279347202"><ele>163.5</ele><time>2026-05-03T07:52:13.849Z</time></trkpt><trkpt lat="44.19459884521477" lon="10.109890046134277"><ele>162.25</ele><time>2026-05-03T07:52:14.849Z</time></trkpt><trkpt lat="44.19447695137791" lon="10.109836500125907"><ele>161.0</ele><time>2026-05-03T07:52:15.849Z</time></trkpt><trkpt lat="44.19435419780239" lon="10.109768706619784"><ele>161.0</ele><time>2026-05-03T07:52:16.849Z</time></trkpt><trkpt lat="44.19422913540744" lon="10.109682141956947"><ele>161.0</ele><time>2026-05-03T07:52:17.849Z</time></trkpt><trkpt lat="44.194116266256934" lon="10.109592123684775"><ele>161.0</ele><time>2026-05-03T07:52:18.849Z</time></trkpt><trkpt lat="44.19402061593656" lon="10.10951249624524"><ele>161.0</ele><time>2026-05-03T07:52:19.849Z</time></trkpt><trkpt lat="44.193930608360034" lon="10.10943263085734"><ele>161.5</ele><time>2026-05-03T07:52:20.849Z</time></trkpt><trkpt lat="44.19383265299535" lon="10.109344792394051"><ele>162.0</ele><time>2026-05-03T07:52:21.849Z</time></trkpt><trkpt lat="44.193720543556694" lon="10.109246830931873"><ele>162.5</ele><time>2026-05-03T07:52:22.849Z</time></trkpt><trkpt lat="44.19359798762776" lon="10.109135834319396"><ele>163.0</ele><time>2026-05-03T07:52:23.849Z</time></trkpt><trkpt lat="44.193477780590406" lon="10.109020442894462"><ele>163.0</ele><time>2026-05-03T07:52:24.849Z</time></trkpt><trkpt lat="44.193353096421845" lon="10.108911711635258"><ele>163.0</ele><time>2026-05-03T07:52:25.849Z</time></trkpt><trkpt lat="44.19323736957541" lon="10.108807877637647"><ele>163.0</ele><time>2026-05-03T07:52:26.849Z</time></trkpt><trkpt lat="44.19313150892399" lon="10.108709943843046"><ele>163.0</ele><time>2026-05-03T07:52:27.849Z</time></trkpt><trkpt lat="44.19302885730786" lon="10.1086214412325"><ele>163.0</ele><time>2026-05-03T07:52:28.849Z</time></trkpt><trkpt lat="44.19293380682812" lon="10.108539859211932"><ele>163.0</ele><time>2026-05-03T07:52:29.849Z</time></trkpt><trkpt lat="44.192850251835274" lon="10.108464405310913"><ele>163.0</ele><time>2026-05-03T07:52:30.849Z</time></trkpt><trkpt lat="44.19276738789374" lon="10.108400835584817"><ele>163.0</ele><time>2026-05-03T07:52:31.849Z</time></trkpt><trkpt lat="44.19268065983266" lon="10.108349223502698"><ele>163.0</ele><time>2026-05-03T07:52:32.849Z</time></trkpt><trkpt lat="44.192582547357524" lon="10.108308450360283"><ele>163.0</ele><time>2026-05-03T07:52:33.849Z</time></trkpt><trkpt lat="44.1924776818373" lon="10.108293435790666"><ele>163.0</ele><time>2026-05-03T07:52:34.849Z</time></trkpt><trkpt lat="44.19237531834385" lon="10.108303248519546"><ele>163.0</ele><time>2026-05-03T07:52:35.849Z</time></trkpt><trkpt lat="44.192269451496706" lon="10.108332424516606"><ele>163.0</ele><time>2026-05-03T07:52:36.849Z</time></trkpt><trkpt lat="44.192158858863394" lon="10.108370127735105"><ele>163.0</ele><time>2026-05-03T07:52:37.849Z</time></trkpt><trkpt lat="44.19204313545728" lon="10.10840534689325"><ele>163.4</ele><time>2026-05-03T07:52:38.849Z</time></trkpt><trkpt lat="44.1919278371942" lon="10.108441028234129"><ele>163.8</ele><time>2026-05-03T07:52:39.849Z</time></trkpt><trkpt lat="44.19182283156578" lon="10.108490978923482"><ele>164.2</ele><time>2026-05-03T07:52:40.849Z</time></trkpt><trkpt lat="44.19172875864608" lon="10.108529706137627"><ele>164.6</ele><time>2026-05-03T07:52:41.849Z</time></trkpt><trkpt lat="44.19163832541665" lon="10.108529096530456"><ele>165.0</ele><time>2026-05-03T07:52:42.849Z</time></trkpt><trkpt lat="44.19154728655544" lon="10.108553764789319"><ele>164.8</ele><time>2026-05-03T07:52:43.849Z</time></trkpt><trkpt lat="44.19144288783496" lon="10.108569132487835"><ele>164.6</ele><time>2026-05-03T07:52:44.849Z</time></trkpt><trkpt lat="44.191332556121345" lon="10.108596766082652"><ele>164.39999999999998</ele><time>2026-05-03T07:52:45.849Z</time></trkpt><trkpt lat="44.19121876768673" lon="10.108615594549734"><ele>164.2</ele><time>2026-05-03T07:52:46.849Z</time></trkpt><trkpt lat="44.19110212368673" lon="10.108632107409194"><ele>164.0</ele><time>2026-05-03T07:52:47.849Z</time></trkpt><trkpt lat="44.19098360258517" lon="10.108652022979259"><ele>164.0</ele><time>2026-05-03T07:52:48.846Z</time></trkpt><trkpt lat="44.19086112850382" lon="10.10867157659828"><ele>164.0</ele><time>2026-05-03T07:52:49.846Z</time></trkpt><trkpt lat="44.1907353878649" lon="10.10869348374177"><ele>164.0</ele><time>2026-05-03T07:52:50.846Z</time></trkpt><trkpt lat="44.19060800338421" lon="10.108715739612725"><ele>164.0</ele><time>2026-05-03T07:52:51.847Z</time></trkpt><trkpt lat="44.19047955319808" lon="10.108743210189658"><ele>164.25</ele><time>2026-05-03T07:52:52.846Z</time></trkpt><trkpt lat="44.19035125123349" lon="10.108769768451255"><ele>164.5</ele><time>2026-05-03T07:52:53.846Z</time></trkpt><trkpt lat="44.190216686248654" lon="10.108782485821134"><ele>164.75</ele><time>2026-05-03T07:52:54.847Z</time></trkpt><trkpt lat="44.1900774557217" lon="10.108801368766505"><ele>165.0</ele><time>2026-05-03T07:52:55.847Z</time></trkpt><trkpt lat="44.18993315464341" lon="10.108820486058233"><ele>165.33333333333334</ele><time>2026-05-03T07:52:56.847Z</time></trkpt><trkpt lat="44.18977905809007" lon="10.108837243669115"><ele>165.66666666666669</ele><time>2026-05-03T07:52:57.846Z</time></trkpt><trkpt lat="44.18962389582181" lon="10.108853536764762"><ele>166.0</ele><time>2026-05-03T07:52:58.846Z</time></trkpt><trkpt lat="44.18946896588196" lon="10.108870696324393"><ele>166.0</ele><time>2026-05-03T07:52:59.846Z</time></trkpt><trkpt lat="44.18931207515993" lon="10.108879484559512"><ele>166.0</ele><time>2026-05-03T07:53:00.846Z</time></trkpt><trkpt lat="44.1891522704546" lon="10.1088866578075"><ele>166.0</ele><time>2026-05-03T07:53:01.846Z</time></trkpt><trkpt lat="44.18898981656199" lon="10.108898157251524"><ele>165.66666666666669</ele><time>2026-05-03T07:53:02.846Z</time></trkpt><trkpt lat="44.18883141492001" lon="10.108904480973433"><ele>165.33333333333334</ele><time>2026-05-03T07:53:03.846Z</time></trkpt><trkpt lat="44.18867549651234" lon="10.10891838280902"><ele>165.0</ele><time>2026-05-03T07:53:04.846Z</time></trkpt><trkpt lat="44.18852745631137" lon="10.108934356247447"><ele>165.0</ele><time>2026-05-03T07:53:05.846Z</time></trkpt><trkpt lat="44.18839703871109" lon="10.108944479048878"><ele>165.0</ele><time>2026-05-03T07:53:06.846Z</time></trkpt><trkpt lat="44.188279469585574" lon="10.108951021622362"><ele>165.0</ele><time>2026-05-03T07:53:07.846Z</time></trkpt><trkpt lat="44.188178180362904" lon="10.108965029700876"><ele>165.0</ele><time>2026-05-03T07:53:08.846Z</time></trkpt><trkpt lat="44.18807822483672" lon="10.108996210849055"><ele>165.2</ele><time>2026-05-03T07:53:09.846Z</time></trkpt><trkpt lat="44.187980207823365" lon="10.109065687895116"><ele>165.4</ele><time>2026-05-03T07:53:10.846Z</time></trkpt><trkpt lat="44.18789246150642" lon="10.109169217783583"><ele>165.60000000000002</ele><time>2026-05-03T07:53:11.846Z</time></trkpt><trkpt lat="44.187815648104994" lon="10.109287859240084"><ele>165.8</ele><time>2026-05-03T07:53:12.846Z</time></trkpt><trkpt lat="44.18775667286559" lon="10.109402568806312"><ele>166.0</ele><time>2026-05-03T07:53:13.846Z</time></trkpt><trkpt lat="44.187713938827756" lon="10.109524865773787"><ele>166.5</ele><time>2026-05-03T07:53:14.846Z</time></trkpt><trkpt lat="44.18766651380629" lon="10.109659563098747"><ele>167.0</ele><time>2026-05-03T07:53:15.846Z</time></trkpt><trkpt lat="44.18761510422031" lon="10.109792871742096"><ele>167.5</ele><time>2026-05-03T07:53:16.846Z</time></trkpt><trkpt lat="44.18754245624442" lon="10.109923289886597"><ele>168.0</ele><time>2026-05-03T07:53:17.846Z</time></trkpt><trkpt lat="44.187444059874025" lon="10.110037314291265"><ele>168.5</ele><time>2026-05-03T07:53:18.846Z</time></trkpt><trkpt lat="44.18732262953045" lon="10.110125034226748"><ele>169.0</ele><time>2026-05-03T07:53:19.846Z</time></trkpt><trkpt lat="44.187196941667835" lon="10.1102055390021"><ele>169.5</ele><time>2026-05-03T07:53:20.846Z</time></trkpt><trkpt lat="44.187069029376694" lon="10.110292799481787"><ele>170.0</ele><time>2026-05-03T07:53:21.846Z</time></trkpt><trkpt lat="44.18693644287151" lon="10.110391556204087"><ele>170.0</ele><time>2026-05-03T07:53:22.846Z</time></trkpt><trkpt lat="44.18680782611138" lon="10.110496566126871"><ele>170.0</ele><time>2026-05-03T07:53:23.846Z</time></trkpt><trkpt lat="44.18669059016974" lon="10.110608838232954"><ele>170.0</ele><time>2026-05-03T07:53:24.846Z</time></trkpt><trkpt lat="44.18657966468287" lon="10.110731214695818"><ele>170.0</ele><time>2026-05-03T07:53:25.846Z</time></trkpt><trkpt lat="44.186478603970414" lon="10.11085911286073"><ele>170.25</ele><time>2026-05-03T07:53:26.846Z</time></trkpt><trkpt lat="44.1863759042594" lon="10.110989802852846"><ele>170.5</ele><time>2026-05-03T07:53:27.846Z</time></trkpt><trkpt lat="44.186274839667014" lon="10.111121527479822"><ele>170.75</ele><time>2026-05-03T07:53:28.846Z</time></trkpt><trkpt lat="44.18618122823375" lon="10.111243580707367"><ele>171.0</ele><time>2026-05-03T07:53:29.846Z</time></trkpt><trkpt lat="44.186095357741976" lon="10.111350215451562"><ele>171.0</ele><time>2026-05-03T07:53:30.846Z</time></trkpt><trkpt lat="44.18600540712857" lon="10.111452774727587"><ele>171.0</ele><time>2026-05-03T07:53:31.846Z</time></trkpt><trkpt lat="44.185907245501504" lon="10.111549326202612"><ele>171.0</ele><time>2026-05-03T07:53:32.846Z</time></trkpt><trkpt lat="44.18579213831348" lon="10.11163464053909"><ele>171.0</ele><time>2026-05-03T07:53:33.846Z</time></trkpt><trkpt lat="44.18566065250609" lon="10.111694491301272"><ele>171.5</ele><time>2026-05-03T07:53:34.846Z</time></trkpt><trkpt lat="44.1855141553299" lon="10.111750677956826"><ele>172.0</ele><time>2026-05-03T07:53:35.846Z</time></trkpt><trkpt lat="44.18538700663678" lon="10.111788490896153"><ele>172.5</ele><time>2026-05-03T07:53:36.846Z</time></trkpt><trkpt lat="44.18526476925554" lon="10.111850898203366"><ele>173.0</ele><time>2026-05-03T07:53:37.846Z</time></trkpt><trkpt lat="44.185152843544095" lon="10.111975028527317"><ele>173.0</ele><time>2026-05-03T07:53:38.846Z</time></trkpt><trkpt lat="44.18505342851692" lon="10.11213442830804"><ele>173.0</ele><time>2026-05-03T07:53:39.846Z</time></trkpt><trkpt lat="44.184970666362794" lon="10.11231834853647"><ele>173.0</ele><time>2026-05-03T07:53:40.846Z</time></trkpt><trkpt lat="44.184882779660775" lon="10.112488670277036"><ele>172.0</ele><time>2026-05-03T07:53:41.846Z</time></trkpt><trkpt lat="44.184794533215" lon="10.112660277144043"><ele>171.0</ele><time>2026-05-03T07:53:42.846Z</time></trkpt><trkpt lat="44.18471256101511" lon="10.112834088208912"><ele>170.0</ele><time>2026-05-03T07:53:43.846Z</time></trkpt><trkpt lat="44.18461632775555" lon="10.112999928163916"><ele>170.0</ele><time>2026-05-03T07:53:44.846Z</time></trkpt><trkpt lat="44.18452886329635" lon="10.113143087107403"><ele>170.0</ele><time>2026-05-03T07:53:45.846Z</time></trkpt><trkpt lat="44.18445387434274" lon="10.113275438763813"><ele>170.0</ele><time>2026-05-03T07:53:46.846Z</time></trkpt><trkpt lat="44.18437220133912" lon="10.113415188688084"><ele>170.0</ele><time>2026-05-03T07:53:47.846Z</time></trkpt><trkpt lat="44.184283416997125" lon="10.11355029052729"><ele>170.5</ele><time>2026-05-03T07:53:48.846Z</time></trkpt><trkpt lat="44.184179190847175" lon="10.113649598866866"><ele>171.0</ele><time>2026-05-03T07:53:49.846Z</time></trkpt><trkpt lat="44.18405504107677" lon="10.113725268316271"><ele>171.5</ele><time>2026-05-03T07:53:50.846Z</time></trkpt><trkpt lat="44.18391113591203" lon="10.113774165990533"><ele>172.0</ele><time>2026-05-03T07:53:51.846Z</time></trkpt><trkpt lat="44.18376345995946" lon="10.113802061359515"><ele>172.0</ele><time>2026-05-03T07:53:52.846Z</time></trkpt><trkpt lat="44.18361314557623" lon="10.113840356227646"><ele>172.0</ele><time>2026-05-03T07:53:53.846Z</time></trkpt><trkpt lat="44.18345826923014" lon="10.11387833306753"><ele>172.0</ele><time>2026-05-03T07:53:54.846Z</time></trkpt><trkpt lat="44.183311904555836" lon="10.11391410533224"><ele>172.75</ele><time>2026-05-03T07:53:55.846Z</time></trkpt><trkpt lat="44.183171446630986" lon="10.113941280489797"><ele>173.5</ele><time>2026-05-03T07:53:56.845Z</time></trkpt><trkpt lat="44.18304028425239" lon="10.113957039669213"><ele>174.25</ele><time>2026-05-03T07:53:57.845Z</time></trkpt><trkpt lat="44.182899608213745" lon="10.11394861081362"><ele>175.0</ele><time>2026-05-03T07:53:58.845Z</time></trkpt><trkpt lat="44.18275691348122" lon="10.113923653419524"><ele>175.0</ele><time>2026-05-03T07:53:59.845Z</time></trkpt><trkpt lat="44.182611064674965" lon="10.113899828080454"><ele>175.0</ele><time>2026-05-03T07:54:00.845Z</time></trkpt><trkpt lat="44.18246568881091" lon="10.11388091084047"><ele>175.0</ele><time>2026-05-03T07:54:01.845Z</time></trkpt><trkpt lat="44.18232018899893" lon="10.113859348549411"><ele>175.0</ele><time>2026-05-03T07:54:02.845Z</time></trkpt><trkpt lat="44.182173030305485" lon="10.113817947072999"><ele>174.25</ele><time>2026-05-03T07:54:03.845Z</time></trkpt><trkpt lat="44.182043939496" lon="10.113763263618916"><ele>173.5</ele><time>2026-05-03T07:54:04.845Z</time></trkpt><trkpt lat="44.1819315658344" lon="10.1137007521189"><ele>172.75</ele><time>2026-05-03T07:54:05.845Z</time></trkpt><trkpt lat="44.181822377412374" lon="10.113619887328696"><ele>172.0</ele><time>2026-05-03T07:54:06.845Z</time></trkpt><trkpt lat="44.18169915310918" lon="10.113523569668102"><ele>172.0</ele><time>2026-05-03T07:54:07.845Z</time></trkpt><trkpt lat="44.1815819930008" lon="10.113405587716564"><ele>172.0</ele><time>2026-05-03T07:54:08.845Z</time></trkpt><trkpt lat="44.181459962874406" lon="10.113288278471284"><ele>172.0</ele><time>2026-05-03T07:54:09.845Z</time></trkpt><trkpt lat="44.18133819484592" lon="10.11317200735211"><ele>172.0</ele><time>2026-05-03T07:54:10.845Z</time></trkpt><trkpt lat="44.18122368988674" lon="10.113053396432635"><ele>172.0</ele><time>2026-05-03T07:54:11.845Z</time></trkpt><trkpt lat="44.18111347182191" lon="10.112949495294787"><ele>172.0</ele><time>2026-05-03T07:54:12.845Z</time></trkpt><trkpt lat="44.18100988476813" lon="10.112861310722458"><ele>172.0</ele><time>2026-05-03T07:54:13.845Z</time></trkpt><trkpt lat="44.18089928631753" lon="10.112797684145997"><ele>172.0</ele><time>2026-05-03T07:54:14.845Z</time></trkpt><trkpt lat="44.18078549287663" lon="10.112748908483816"><ele>172.8</ele><time>2026-05-03T07:54:15.845Z</time></trkpt><trkpt lat="44.180672942206954" lon="10.112716321991563"><ele>173.6</ele><time>2026-05-03T07:54:16.845Z</time></trkpt><trkpt lat="44.18056922532851" lon="10.112689981573228"><ele>174.4</ele><time>2026-05-03T07:54:17.845Z</time></trkpt><trkpt lat="44.180477589358986" lon="10.112670578250773"><ele>175.20000000000002</ele><time>2026-05-03T07:54:18.845Z</time></trkpt><trkpt lat="44.18038295413426" lon="10.112670238541487"><ele>176.0</ele><time>2026-05-03T07:54:19.845Z</time></trkpt><trkpt lat="44.18028912114168" lon="10.112687077578578"><ele>176.0</ele><time>2026-05-03T07:54:20.845Z</time></trkpt><trkpt lat="44.18020558316861" lon="10.11273458079489"><ele>176.0</ele><time>2026-05-03T07:54:21.845Z</time></trkpt><trkpt lat="44.180138581369576" lon="10.112810012687149"><ele>176.0</ele><time>2026-05-03T07:54:22.845Z</time></trkpt><trkpt lat="44.18008482951078" lon="10.11290829263873"><ele>176.0</ele><time>2026-05-03T07:54:23.845Z</time></trkpt><trkpt lat="44.180049084193385" lon="10.113038901817536"><ele>176.0</ele><time>2026-05-03T07:54:24.845Z</time></trkpt><trkpt lat="44.18000925671654" lon="10.113188491748819"><ele>176.25</ele><time>2026-05-03T07:54:25.845Z</time></trkpt><trkpt lat="44.17996659947099" lon="10.113364845190425"><ele>176.5</ele><time>2026-05-03T07:54:26.845Z</time></trkpt><trkpt lat="44.17990946367224" lon="10.11354365028661"><ele>176.75</ele><time>2026-05-03T07:54:27.845Z</time></trkpt><trkpt lat="44.17985556997193" lon="10.113733081072713"><ele>177.0</ele><time>2026-05-03T07:54:28.845Z</time></trkpt><trkpt lat="44.17979882364474" lon="10.113936193387211"><ele>177.0</ele><time>2026-05-03T07:54:29.845Z</time></trkpt><trkpt lat="44.1797476861051" lon="10.114124363456398"><ele>177.0</ele><time>2026-05-03T07:54:30.845Z</time></trkpt><trkpt lat="44.17969860477115" lon="10.114285146045678"><ele>177.0</ele><time>2026-05-03T07:54:31.845Z</time></trkpt><trkpt lat="44.179649819160446" lon="10.114428935087249"><ele>177.0</ele><time>2026-05-03T07:54:32.845Z</time></trkpt><trkpt lat="44.179599916251576" lon="10.114581140569367"><ele>177.0</ele><time>2026-05-03T07:54:33.845Z</time></trkpt><trkpt lat="44.17954183946286" lon="10.114746537219306"><ele>177.0</ele><time>2026-05-03T07:54:34.845Z</time></trkpt><trkpt lat="44.179451115523065" lon="10.114885821685837"><ele>177.0</ele><time>2026-05-03T07:54:35.845Z</time></trkpt><trkpt lat="44.179359019328764" lon="10.114999071917948"><ele>177.0</ele><time>2026-05-03T07:54:36.845Z</time></trkpt><trkpt lat="44.17924498060657" lon="10.115066731392446"><ele>178.0</ele><time>2026-05-03T07:54:37.845Z</time></trkpt><trkpt lat="44.17911215499088" lon="10.11510125620566"><ele>179.0</ele><time>2026-05-03T07:54:38.845Z</time></trkpt><trkpt lat="44.17897659550515" lon="10.115129720825868"><ele>180.0</ele><time>2026-05-03T07:54:39.845Z</time></trkpt><trkpt lat="44.17883565412068" lon="10.115158642814489"><ele>181.0</ele><time>2026-05-03T07:54:40.845Z</time></trkpt><trkpt lat="44.17870224412052" lon="10.115192801100385"><ele>181.5</ele><time>2026-05-03T07:54:41.845Z</time></trkpt><trkpt lat="44.17857700237279" lon="10.115209866059562"><ele>182.0</ele><time>2026-05-03T07:54:42.845Z</time></trkpt><trkpt lat="44.17844792502128" lon="10.115196711684339"><ele>182.5</ele><time>2026-05-03T07:54:43.845Z</time></trkpt><trkpt lat="44.17832502990112" lon="10.115144447497018"><ele>183.0</ele><time>2026-05-03T07:54:44.845Z</time></trkpt><trkpt lat="44.17820380091182" lon="10.115070415567722"><ele>183.75</ele><time>2026-05-03T07:54:45.845Z</time></trkpt><trkpt lat="44.1780857978484" lon="10.114956533953231"><ele>184.5</ele><time>2026-05-03T07:54:46.845Z</time></trkpt><trkpt lat="44.177976952488045" lon="10.114826069188899"><ele>185.25</ele><time>2026-05-03T07:54:47.845Z</time></trkpt><trkpt lat="44.17785938352334" lon="10.114696438487314"><ele>186.0</ele><time>2026-05-03T07:54:48.845Z</time></trkpt><trkpt lat="44.17774752996918" lon="10.11456088192045"><ele>186.0</ele><time>2026-05-03T07:54:49.845Z</time></trkpt><trkpt lat="44.17763455248649" lon="10.11442630654307"><ele>186.0</ele><time>2026-05-03T07:54:50.845Z</time></trkpt><trkpt lat="44.177515110493246" lon="10.114313651928397"><ele>186.0</ele><time>2026-05-03T07:54:51.845Z</time></trkpt><trkpt lat="44.17739315441592" lon="10.114225915671746"><ele>186.0</ele><time>2026-05-03T07:54:52.845Z</time></trkpt><trkpt lat="44.17727057389277" lon="10.114159731309586"><ele>186.5</ele><time>2026-05-03T07:54:53.845Z</time></trkpt><trkpt lat="44.17714399041131" lon="10.1141178763673"><ele>187.0</ele><time>2026-05-03T07:54:54.844Z</time></trkpt><trkpt lat="44.177014940987135" lon="10.114103587121033"><ele>187.5</ele><time>2026-05-03T07:54:55.844Z</time></trkpt><trkpt lat="44.176883969348985" lon="10.114113962821811"><ele>188.0</ele><time>2026-05-03T07:54:56.844Z</time></trkpt><trkpt lat="44.17675202281412" lon="10.11415459172666"><ele>188.0</ele><time>2026-05-03T07:54:57.843Z</time></trkpt><trkpt lat="44.176620945085915" lon="10.114217728645158"><ele>188.0</ele><time>2026-05-03T07:54:58.843Z</time></trkpt><trkpt lat="44.176480015266364" lon="10.11427817099014"><ele>188.0</ele><time>2026-05-03T07:54:59.843Z</time></trkpt><trkpt lat="44.17635304511927" lon="10.114339558069913"><ele>188.0</ele><time>2026-05-03T07:55:00.843Z</time></trkpt><trkpt lat="44.176245110203034" lon="10.11440145365494"><ele>187.0</ele><time>2026-05-03T07:55:01.843Z</time></trkpt><trkpt lat="44.17612875920573" lon="10.114457437009303"><ele>186.0</ele><time>2026-05-03T07:55:02.843Z</time></trkpt><trkpt lat="44.176018737927365" lon="10.114555360205578"><ele>185.0</ele><time>2026-05-03T07:55:03.843Z</time></trkpt><trkpt lat="44.17590696011988" lon="10.114686713995972"><ele>184.0</ele><time>2026-05-03T07:55:04.843Z</time></trkpt><trkpt lat="44.17580713026456" lon="10.114848219155535"><ele>184.75</ele><time>2026-05-03T07:55:05.843Z</time></trkpt><trkpt lat="44.175704980972476" lon="10.114997725859624"><ele>185.5</ele><time>2026-05-03T07:55:06.843Z</time></trkpt><trkpt lat="44.17559549487926" lon="10.11512652213669"><ele>186.25</ele><time>2026-05-03T07:55:07.844Z</time></trkpt><trkpt lat="44.175472861642085" lon="10.115229856477743"><ele>187.0</ele><time>2026-05-03T07:55:08.844Z</time></trkpt><trkpt lat="44.175352590522586" lon="10.11532790697588"><ele>187.0</ele><time>2026-05-03T07:55:09.844Z</time></trkpt><trkpt lat="44.1752280269003" lon="10.115398492732144"><ele>187.0</ele><time>2026-05-03T07:55:10.844Z</time></trkpt><trkpt lat="44.17508950235009" lon="10.11542738043063"><ele>187.0</ele><time>2026-05-03T07:55:11.844Z</time></trkpt><trkpt lat="44.17495714032848" lon="10.115431165477544"><ele>187.0</ele><time>2026-05-03T07:55:12.844Z</time></trkpt><trkpt lat="44.17483801856556" lon="10.115466960994834"><ele>187.5</ele><time>2026-05-03T07:55:13.844Z</time></trkpt><trkpt lat="44.17473001261541" lon="10.115532686129567"><ele>188.0</ele><time>2026-05-03T07:55:14.844Z</time></trkpt><trkpt lat="44.174625782258495" lon="10.11562665891282"><ele>188.5</ele><time>2026-05-03T07:55:15.844Z</time></trkpt><trkpt lat="44.17451345269988" lon="10.115737747485227"><ele>189.0</ele><time>2026-05-03T07:55:16.844Z</time></trkpt><trkpt lat="44.17437798228781" lon="10.11579340514414"><ele>189.25</ele><time>2026-05-03T07:55:17.844Z</time></trkpt><trkpt lat="44.17424216101627" lon="10.115810592590416"><ele>189.5</ele><time>2026-05-03T07:55:18.844Z</time></trkpt><trkpt lat="44.174115396464536" lon="10.115785892359737"><ele>189.75</ele><time>2026-05-03T07:55:19.844Z</time></trkpt><trkpt lat="44.17398519718117" lon="10.115730070838314"><ele>190.0</ele><time>2026-05-03T07:55:20.843Z</time></trkpt><trkpt lat="44.17385072057479" lon="10.115704622928154"><ele>190.0</ele><time>2026-05-03T07:55:21.843Z</time></trkpt><trkpt lat="44.173697977551875" lon="10.115707312025828"><ele>190.0</ele><time>2026-05-03T07:55:22.843Z</time></trkpt><trkpt lat="44.17355747853902" lon="10.11570183907041"><ele>190.0</ele><time>2026-05-03T07:55:23.843Z</time></trkpt><trkpt lat="44.173425741650064" lon="10.115663840454339"><ele>190.0</ele><time>2026-05-03T07:55:24.843Z</time></trkpt><trkpt lat="44.17331295108071" lon="10.115592772902815"><ele>190.0</ele><time>2026-05-03T07:55:25.843Z</time></trkpt><trkpt lat="44.17320317313395" lon="10.115521275169977"><ele>190.0</ele><time>2026-05-03T07:55:26.843Z</time></trkpt><trkpt lat="44.17308852911042" lon="10.115477464111247"><ele>190.0</ele><time>2026-05-03T07:55:27.843Z</time></trkpt><trkpt lat="44.17295810280197" lon="10.115458793710282"><ele>190.0</ele><time>2026-05-03T07:55:28.843Z</time></trkpt><trkpt lat="44.17282517193731" lon="10.115463281820638"><ele>191.5</ele><time>2026-05-03T07:55:29.843Z</time></trkpt><trkpt lat="44.17269069989099" lon="10.115462052081401"><ele>193.0</ele><time>2026-05-03T07:55:30.843Z</time></trkpt><trkpt lat="44.172556695721795" lon="10.115416826179324"><ele>194.5</ele><time>2026-05-03T07:55:31.843Z</time></trkpt><trkpt lat="44.17242619003155" lon="10.115327913645599"><ele>196.0</ele><time>2026-05-03T07:55:32.843Z</time></trkpt><trkpt lat="44.172298164914785" lon="10.115240321259396"><ele>196.25</ele><time>2026-05-03T07:55:33.843Z</time></trkpt><trkpt lat="44.17216807790116" lon="10.115167590881853"><ele>196.5</ele><time>2026-05-03T07:55:34.843Z</time></trkpt><trkpt lat="44.17204052917596" lon="10.115116380746253"><ele>196.75</ele><time>2026-05-03T07:55:35.843Z</time></trkpt><trkpt lat="44.17189955475073" lon="10.115099461348558"><ele>197.0</ele><time>2026-05-03T07:55:36.843Z</time></trkpt><trkpt lat="44.17174832091267" lon="10.115105353788733"><ele>197.0</ele><time>2026-05-03T07:55:37.843Z</time></trkpt><trkpt lat="44.17160556302261" lon="10.115115768745937"><ele>197.0</ele><time>2026-05-03T07:55:38.843Z</time></trkpt><trkpt lat="44.17146545897648" lon="10.11514222573761"><ele>197.0</ele><time>2026-05-03T07:55:39.843Z</time></trkpt><trkpt lat="44.17133215166102" lon="10.115191367778362"><ele>197.0</ele><time>2026-05-03T07:55:40.843Z</time></trkpt><trkpt lat="44.17120684789052" lon="10.115258012020131"><ele>197.75</ele><time>2026-05-03T07:55:41.843Z</time></trkpt><trkpt lat="44.17109760749932" lon="10.115354291793299"><ele>198.5</ele><time>2026-05-03T07:55:42.843Z</time></trkpt><trkpt lat="44.17100354209855" lon="10.115472211335131"><ele>199.25</ele><time>2026-05-03T07:55:43.843Z</time></trkpt><trkpt lat="44.170930289980234" lon="10.115615544077977"><ele>200.0</ele><time>2026-05-03T07:55:44.843Z</time></trkpt><trkpt lat="44.17087907023779" lon="10.115776798975826"><ele>200.33333333333334</ele><time>2026-05-03T07:55:45.843Z</time></trkpt><trkpt lat="44.17085537609914" lon="10.115960133699332"><ele>200.66666666666669</ele><time>2026-05-03T07:55:46.843Z</time></trkpt><trkpt lat="44.17085580737876" lon="10.1161698864507"><ele>201.0</ele><time>2026-05-03T07:55:47.843Z</time></trkpt><trkpt lat="44.17084813707251" lon="10.11641242702071"><ele>202.66666666666669</ele><time>2026-05-03T07:55:48.843Z</time></trkpt><trkpt lat="44.17083365292953" lon="10.11665934080204"><ele>204.33333333333334</ele><time>2026-05-03T07:55:49.843Z</time></trkpt><trkpt lat="44.17081206798659" lon="10.11689564233423"><ele>206.0</ele><time>2026-05-03T07:55:50.843Z</time></trkpt><trkpt lat="44.1707840558054" lon="10.117126197876988"><ele>206.0</ele><time>2026-05-03T07:55:51.843Z</time></trkpt><trkpt lat="44.17075029351845" lon="10.117346659378185"><ele>206.0</ele><time>2026-05-03T07:55:52.843Z</time></trkpt><trkpt lat="44.170711511787445" lon="10.1175469121646"><ele>206.0</ele><time>2026-05-03T07:55:53.843Z</time></trkpt><trkpt lat="44.17067084741465" lon="10.117724687832682"><ele>206.0</ele><time>2026-05-03T07:55:54.843Z</time></trkpt><trkpt lat="44.17061408710192" lon="10.117907802026986"><ele>207.0</ele><time>2026-05-03T07:55:55.843Z</time></trkpt><trkpt lat="44.170533889595276" lon="10.118087608211349"><ele>208.0</ele><time>2026-05-03T07:55:56.843Z</time></trkpt><trkpt lat="44.17043976799355" lon="10.11826129473137"><ele>209.0</ele><time>2026-05-03T07:55:57.843Z</time></trkpt><trkpt lat="44.170339946502" lon="10.118432382846956"><ele>206.66666666666669</ele><time>2026-05-03T07:55:58.843Z</time></trkpt><trkpt lat="44.1702436397421" lon="10.118621971935125"><ele>204.33333333333331</ele><time>2026-05-03T07:55:59.843Z</time></trkpt><trkpt lat="44.170145843427974" lon="10.118814410327849"><ele>202.0</ele><time>2026-05-03T07:56:00.843Z</time></trkpt><trkpt lat="44.17005106172377" lon="10.119008088230903"><ele>202.33333333333331</ele><time>2026-05-03T07:56:01.843Z</time></trkpt><trkpt lat="44.16996681764827" lon="10.119204530648105"><ele>202.66666666666669</ele><time>2026-05-03T07:56:02.843Z</time></trkpt><trkpt lat="44.16989344328757" lon="10.119388271756742"><ele>203.0</ele><time>2026-05-03T07:56:03.843Z</time></trkpt><trkpt lat="44.16982737154928" lon="10.119560277129299"><ele>203.75</ele><time>2026-05-03T07:56:04.843Z</time></trkpt><trkpt lat="44.16975780626954" lon="10.119703122943623"><ele>204.5</ele><time>2026-05-03T07:56:05.843Z</time></trkpt><trkpt lat="44.16970945727572" lon="10.119842786243847"><ele>205.25</ele><time>2026-05-03T07:56:06.843Z</time></trkpt><trkpt lat="44.16969132867426" lon="10.119991233438475"><ele>206.0</ele><time>2026-05-03T07:56:07.843Z</time></trkpt><trkpt lat="44.16970197659876" lon="10.120156654996606"><ele>206.0</ele><time>2026-05-03T07:56:08.843Z</time></trkpt><trkpt lat="44.169745659661395" lon="10.120323584539584"><ele>206.0</ele><time>2026-05-03T07:56:09.843Z</time></trkpt><trkpt lat="44.169773882909475" lon="10.120499066060605"><ele>206.0</ele><time>2026-05-03T07:56:10.843Z</time></trkpt><trkpt lat="44.169778438952505" lon="10.120670498668186"><ele>206.0</ele><time>2026-05-03T07:56:11.843Z</time></trkpt><trkpt lat="44.169762366476306" lon="10.120842602418103"><ele>205.25</ele><time>2026-05-03T07:56:12.843Z</time></trkpt><trkpt lat="44.16970985483264" lon="10.121020569982836"><ele>204.5</ele><time>2026-05-03T07:56:13.843Z</time></trkpt><trkpt lat="44.169646307558104" lon="10.12117354436405"><ele>203.75</ele><time>2026-05-03T07:56:14.843Z</time></trkpt><trkpt lat="44.169585326614204" lon="10.121292198354219"><ele>203.0</ele><time>2026-05-03T07:56:15.843Z</time></trkpt><trkpt lat="44.16952270436488" lon="10.121369578492608"><ele>203.0</ele><time>2026-05-03T07:56:16.843Z</time></trkpt><trkpt lat="44.16943687105408" lon="10.121414002436525"><ele>203.0</ele><time>2026-05-03T07:56:17.843Z</time></trkpt><trkpt lat="44.169329286836685" lon="10.121432307623634"><ele>203.0</ele><time>2026-05-03T07:56:18.843Z</time></trkpt><trkpt lat="44.169193452516076" lon="10.121436595387838"><ele>203.0</ele><time>2026-05-03T07:56:19.843Z</time></trkpt><trkpt lat="44.16904086039347" lon="10.121452239631134"><ele>202.66666666666669</ele><time>2026-05-03T07:56:20.843Z</time></trkpt><trkpt lat="44.1688798467313" lon="10.121470799505685"><ele>202.33333333333331</ele><time>2026-05-03T07:56:21.843Z</time></trkpt><trkpt lat="44.1687222929301" lon="10.121504144086671"><ele>202.0</ele><time>2026-05-03T07:56:22.843Z</time></trkpt><trkpt lat="44.16857279835646" lon="10.121549940357207"><ele>203.33333333333331</ele><time>2026-05-03T07:56:23.843Z</time></trkpt><trkpt lat="44.168427063864634" lon="10.1216241529837"><ele>204.66666666666669</ele><time>2026-05-03T07:56:24.843Z</time></trkpt><trkpt lat="44.168281891268485" lon="10.121707186882276"><ele>206.0</ele><time>2026-05-03T07:56:25.843Z</time></trkpt><trkpt lat="44.16814156998571" lon="10.121783529056273"><ele>206.0</ele><time>2026-05-03T07:56:26.843Z</time></trkpt><trkpt lat="44.16800859067646" lon="10.121856155487544"><ele>206.0</ele><time>2026-05-03T07:56:27.843Z</time></trkpt><trkpt lat="44.167885624853106" lon="10.12191617811526"><ele>206.0</ele><time>2026-05-03T07:56:28.843Z</time></trkpt><trkpt lat="44.16777914150494" lon="10.12197451190008"><ele>206.0</ele><time>2026-05-03T07:56:29.843Z</time></trkpt><trkpt lat="44.167684922141284" lon="10.1220291974482"><ele>206.00000000000003</ele><time>2026-05-03T07:56:30.842Z</time></trkpt><trkpt lat="44.16758550541302" lon="10.122078579368551"><ele>206.0</ele><time>2026-05-03T07:56:31.842Z</time></trkpt><trkpt lat="44.16749341506478" lon="10.12211976824801"><ele>206.0</ele><time>2026-05-03T07:56:32.842Z</time></trkpt><trkpt lat="44.16742098595112" lon="10.122167548266505"><ele>206.0</ele><time>2026-05-03T07:56:33.842Z</time></trkpt><trkpt lat="44.16735558108522" lon="10.122186377750326"><ele>206.00000000000003</ele><time>2026-05-03T07:56:34.842Z</time></trkpt><trkpt lat="44.16729024844522" lon="10.122198661572705"><ele>206.0</ele><time>2026-05-03T07:56:35.842Z</time></trkpt><trkpt lat="44.16721111471732" lon="10.12219273375831"><ele>205.83333333333334</ele><time>2026-05-03T07:56:36.842Z</time></trkpt><trkpt lat="44.16712774830532" lon="10.122164707335932"><ele>205.66666666666669</ele><time>2026-05-03T07:56:37.842Z</time></trkpt><trkpt lat="44.167053842219815" lon="10.122132313317783"><ele>205.5</ele><time>2026-05-03T07:56:38.842Z</time></trkpt><trkpt lat="44.166982632369255" lon="10.122130240778894"><ele>205.33333333333331</ele><time>2026-05-03T07:56:39.842Z</time></trkpt><trkpt lat="44.16690873215448" lon="10.122170866620376"><ele>205.16666666666666</ele><time>2026-05-03T07:56:40.842Z</time></trkpt><trkpt lat="44.16684224245658" lon="10.122253879837114"><ele>205.0</ele><time>2026-05-03T07:56:41.842Z</time></trkpt><trkpt lat="44.16679264663359" lon="10.12236360822123"><ele>205.6</ele><time>2026-05-03T07:56:42.842Z</time></trkpt><trkpt lat="44.16674317945625" lon="10.122471463294444"><ele>206.2</ele><time>2026-05-03T07:56:43.842Z</time></trkpt><trkpt lat="44.16668582694096" lon="10.122583927625172"><ele>206.8</ele><time>2026-05-03T07:56:44.842Z</time></trkpt><trkpt lat="44.166629499954404" lon="10.122696019729219"><ele>207.4</ele><time>2026-05-03T07:56:45.842Z</time></trkpt><trkpt lat="44.1665738507974" lon="10.12282279036304"><ele>208.0</ele><time>2026-05-03T07:56:46.842Z</time></trkpt><trkpt lat="44.166515612379904" lon="10.12294174242002"><ele>208.0</ele><time>2026-05-03T07:56:47.842Z</time></trkpt><trkpt lat="44.166462234344266" lon="10.123044078968709"><ele>208.0</ele><time>2026-05-03T07:56:48.842Z</time></trkpt><trkpt lat="44.16640592649054" lon="10.123149048184487"><ele>208.0</ele><time>2026-05-03T07:56:49.842Z</time></trkpt><trkpt lat="44.166354290263904" lon="10.123249934727365"><ele>208.0</ele><time>2026-05-03T07:56:50.842Z</time></trkpt><trkpt lat="44.166299326542216" lon="10.12334649956498"><ele>208.0</ele><time>2026-05-03T07:56:51.842Z</time></trkpt><trkpt lat="44.16624591497542" lon="10.123448554676735"><ele>208.16666666666666</ele><time>2026-05-03T07:56:52.842Z</time></trkpt><trkpt lat="44.16619066590195" lon="10.12354857145002"><ele>208.33333333333331</ele><time>2026-05-03T07:56:53.842Z</time></trkpt><trkpt lat="44.166141508910854" lon="10.123634250307424"><ele>208.5</ele><time>2026-05-03T07:56:54.842Z</time></trkpt><trkpt lat="44.16610097248055" lon="10.123713433465927"><ele>208.66666666666669</ele><time>2026-05-03T07:56:55.842Z</time></trkpt><trkpt lat="44.16604745709022" lon="10.123845234283118"><ele>208.83333333333334</ele><time>2026-05-03T07:56:57.842Z</time></trkpt><trkpt lat="44.16601582223673" lon="10.1239325315878"><ele>209.0</ele><time>2026-05-03T07:56:58.842Z</time></trkpt><trkpt lat="44.16597425717573" lon="10.124025044250264"><ele>209.6</ele><time>2026-05-03T07:56:59.842Z</time></trkpt><trkpt lat="44.165933070544334" lon="10.124137356639451"><ele>210.2</ele><time>2026-05-03T07:57:00.841Z</time></trkpt><trkpt lat="44.16589461676132" lon="10.124266254222807"><ele>210.79999999999998</ele><time>2026-05-03T07:57:01.841Z</time></trkpt><trkpt lat="44.16586153263835" lon="10.124396584344112"><ele>211.39999999999998</ele><time>2026-05-03T07:57:02.841Z</time></trkpt><trkpt lat="44.16581189385446" lon="10.124526915573632"><ele>212.0</ele><time>2026-05-03T07:57:03.84Z</time></trkpt><trkpt lat="44.165777774208436" lon="10.1246545828118"><ele>212.00000000000003</ele><time>2026-05-03T07:57:04.84Z</time></trkpt><trkpt lat="44.165761214569734" lon="10.124767849880762"><ele>212.0</ele><time>2026-05-03T07:57:05.84Z</time></trkpt><trkpt lat="44.165752885778204" lon="10.124879445694681"><ele>212.0</ele><time>2026-05-03T07:57:06.84Z</time></trkpt><trkpt lat="44.16574652576056" lon="10.124988013097132"><ele>212.0</ele><time>2026-05-03T07:57:07.84Z</time></trkpt><trkpt lat="44.16573576485693" lon="10.125075569941027"><ele>212.00000000000003</ele><time>2026-05-03T07:57:08.84Z</time></trkpt><trkpt lat="44.165673520692685" lon="10.125210006742957"><ele>212.0</ele><time>2026-05-03T07:57:10.841Z</time></trkpt><trkpt lat="44.16560193883909" lon="10.125262423575764"><ele>212.66666666666669</ele><time>2026-05-03T07:57:11.841Z</time></trkpt><trkpt lat="44.16552037390683" lon="10.125288253326703"><ele>213.33333333333334</ele><time>2026-05-03T07:57:12.84Z</time></trkpt><trkpt lat="44.16543851926474" lon="10.12532380336965"><ele>214.0</ele><time>2026-05-03T07:57:13.841Z</time></trkpt><trkpt lat="44.16535752544844" lon="10.125372209611806"><ele>214.66666666666669</ele><time>2026-05-03T07:57:14.841Z</time></trkpt><trkpt lat="44.16529301553543" lon="10.125405984687433"><ele>215.33333333333334</ele><time>2026-05-03T07:57:15.841Z</time></trkpt><trkpt lat="44.165208362815584" lon="10.125518705170121"><ele>216.0</ele><time>2026-05-03T07:57:17.84Z</time></trkpt><trkpt lat="44.16517909768125" lon="10.12562018710775"><ele>216.20000000000002</ele><time>2026-05-03T07:57:18.84Z</time></trkpt><trkpt lat="44.1651437700457" lon="10.125748083307078"><ele>216.40000000000003</ele><time>2026-05-03T07:57:19.84Z</time></trkpt><trkpt lat="44.16509642371912" lon="10.125896077311095"><ele>216.6</ele><time>2026-05-03T07:57:20.84Z</time></trkpt><trkpt lat="44.16504935070226" lon="10.126041484199021"><ele>216.8</ele><time>2026-05-03T07:57:21.84Z</time></trkpt><trkpt lat="44.1650148536328" lon="10.126185141360532"><ele>217.0</ele><time>2026-05-03T07:57:22.84Z</time></trkpt><trkpt lat="44.16500148542228" lon="10.126336174303312"><ele>217.0</ele><time>2026-05-03T07:57:23.84Z</time></trkpt><trkpt lat="44.165005432722054" lon="10.126496317185119"><ele>217.0</ele><time>2026-05-03T07:57:24.84Z</time></trkpt><trkpt lat="44.16502593606048" lon="10.126667852615912"><ele>217.0</ele><time>2026-05-03T07:57:25.84Z</time></trkpt><trkpt lat="44.16504177225318" lon="10.126839303641145"><ele>217.0</ele><time>2026-05-03T07:57:26.84Z</time></trkpt><trkpt lat="44.165057422264155" lon="10.127013120508417"><ele>216.0</ele><time>2026-05-03T07:57:27.84Z</time></trkpt><trkpt lat="44.165069206571516" lon="10.12719490123157"><ele>215.0</ele><time>2026-05-03T07:57:28.84Z</time></trkpt><trkpt lat="44.16508134553026" lon="10.127374428910091"><ele>214.0</ele><time>2026-05-03T07:57:29.84Z</time></trkpt><trkpt lat="44.16510518226635" lon="10.127551015473479"><ele>213.0</ele><time>2026-05-03T07:57:30.84Z</time></trkpt><trkpt lat="44.165125312980116" lon="10.12771155287634"><ele>212.8</ele><time>2026-05-03T07:57:31.84Z</time></trkpt><trkpt lat="44.16513939674219" lon="10.127852446217364"><ele>212.60000000000002</ele><time>2026-05-03T07:57:32.84Z</time></trkpt><trkpt lat="44.165139059637205" lon="10.127971771416014"><ele>212.39999999999998</ele><time>2026-05-03T07:57:33.84Z</time></trkpt><trkpt lat="44.16512328392502" lon="10.128090235623697"><ele>212.2</ele><time>2026-05-03T07:57:34.84Z</time></trkpt><trkpt lat="44.16509160252882" lon="10.128224531062521"><ele>212.0</ele><time>2026-05-03T07:57:35.84Z</time></trkpt><trkpt lat="44.16505122516281" lon="10.12837210725679"><ele>213.0</ele><time>2026-05-03T07:57:36.84Z</time></trkpt><trkpt lat="44.16501741387108" lon="10.128524713281216"><ele>214.0</ele><time>2026-05-03T07:57:37.84Z</time></trkpt><trkpt lat="44.16499792655218" lon="10.12868667156577"><ele>215.0</ele><time>2026-05-03T07:57:38.84Z</time></trkpt><trkpt lat="44.16498974157266" lon="10.128847184575612"><ele>216.0</ele><time>2026-05-03T07:57:39.84Z</time></trkpt><trkpt lat="44.16498419622878" lon="10.129007151549994"><ele>215.8</ele><time>2026-05-03T07:57:40.84Z</time></trkpt><trkpt lat="44.164973815051084" lon="10.12915249805925"><ele>215.60000000000002</ele><time>2026-05-03T07:57:41.84Z</time></trkpt><trkpt lat="44.16496723430658" lon="10.129276057267772"><ele>215.4</ele><time>2026-05-03T07:57:42.84Z</time></trkpt><trkpt lat="44.164957073576026" lon="10.129375510293782"><ele>215.2</ele><time>2026-05-03T07:57:43.84Z</time></trkpt><trkpt lat="44.16488655564757" lon="10.129525508097489"><ele>215.0</ele><time>2026-05-03T07:57:45.84Z</time></trkpt><trkpt lat="44.16484165604613" lon="10.129603623918431"><ele>215.16666666666669</ele><time>2026-05-03T07:57:46.84Z</time></trkpt><trkpt lat="44.16480055935886" lon="10.129693445292919"><ele>215.33333333333334</ele><time>2026-05-03T07:57:47.84Z</time></trkpt><trkpt lat="44.164759546337415" lon="10.12977318305014"><ele>215.5</ele><time>2026-05-03T07:57:48.84Z</time></trkpt><trkpt lat="44.16468355698958" lon="10.12985468292747"><ele>215.66666666666669</ele><time>2026-05-03T07:57:49.84Z</time></trkpt><trkpt lat="44.16458924714488" lon="10.129911482417201"><ele>215.83333333333334</ele><time>2026-05-03T07:57:50.84Z</time></trkpt><trkpt lat="44.16449628359595" lon="10.129949438724257"><ele>216.0</ele><time>2026-05-03T07:57:51.84Z</time></trkpt><trkpt lat="44.164423279502465" lon="10.129982056856134"><ele>216.0</ele><time>2026-05-03T07:57:52.84Z</time></trkpt><trkpt lat="44.16432250429984" lon="10.130064835939752"><ele>216.00000000000003</ele><time>2026-05-03T07:57:54.84Z</time></trkpt><trkpt lat="44.16431476084114" lon="10.130218841638984"><ele>216.00000000000003</ele><time>2026-05-03T07:57:56.84Z</time></trkpt><trkpt lat="44.164349213737204" lon="10.130312758347918"><ele>216.0</ele><time>2026-05-03T07:57:57.84Z</time></trkpt><trkpt lat="44.164402017011426" lon="10.130453012528852"><ele>216.0</ele><time>2026-05-03T07:57:58.84Z</time></trkpt><trkpt lat="44.16445235012838" lon="10.130609182426102"><ele>215.5</ele><time>2026-05-03T07:57:59.84Z</time></trkpt><trkpt lat="44.16449708389881" lon="10.130763089019494"><ele>215.0</ele><time>2026-05-03T07:58:00.84Z</time></trkpt><trkpt lat="44.164532597499516" lon="10.130930115209317"><ele>214.5</ele><time>2026-05-03T07:58:01.84Z</time></trkpt><trkpt lat="44.16454645710286" lon="10.131105898541856"><ele>214.0</ele><time>2026-05-03T07:58:02.84Z</time></trkpt><trkpt lat="44.16455046372113" lon="10.131282644209263"><ele>214.0</ele><time>2026-05-03T07:58:03.84Z</time></trkpt><trkpt lat="44.164537379840496" lon="10.131461711772218"><ele>214.0</ele><time>2026-05-03T07:58:04.84Z</time></trkpt><trkpt lat="44.164527231606236" lon="10.131638277752986"><ele>214.0</ele><time>2026-05-03T07:58:05.84Z</time></trkpt><trkpt lat="44.164526306992684" lon="10.131824176335291"><ele>214.0</ele><time>2026-05-03T07:58:06.84Z</time></trkpt><trkpt lat="44.16454081445395" lon="10.13198928505547"><ele>215.0</ele><time>2026-05-03T07:58:07.84Z</time></trkpt><trkpt lat="44.164575741490864" lon="10.132139349710274"><ele>216.0</ele><time>2026-05-03T07:58:08.84Z</time></trkpt><trkpt lat="44.16463999272262" lon="10.132271528733714"><ele>217.0</ele><time>2026-05-03T07:58:09.84Z</time></trkpt><trkpt lat="44.16472897505708" lon="10.132377443481214"><ele>218.0</ele><time>2026-05-03T07:58:10.84Z</time></trkpt><trkpt lat="44.16482344737257" lon="10.132459179071848"><ele>219.60000000000002</ele><time>2026-05-03T07:58:11.84Z</time></trkpt><trkpt lat="44.16490127086164" lon="10.132519732258162"><ele>221.20000000000002</ele><time>2026-05-03T07:58:12.84Z</time></trkpt><trkpt lat="44.16500128858288" lon="10.132602855119773"><ele>222.8</ele><time>2026-05-03T07:58:14.84Z</time></trkpt><trkpt lat="44.16503735758132" lon="10.132767250944715"><ele>224.4</ele><time>2026-05-03T07:58:16.84Z</time></trkpt><trkpt lat="44.16504693845252" lon="10.132885935310666"><ele>226.0</ele><time>2026-05-03T07:58:17.84Z</time></trkpt><trkpt lat="44.16505999065975" lon="10.133021009036312"><ele>226.0</ele><time>2026-05-03T07:58:18.84Z</time></trkpt><trkpt lat="44.165081613452486" lon="10.133165993098173"><ele>226.00000000000003</ele><time>2026-05-03T07:58:19.84Z</time></trkpt><trkpt lat="44.16510968522205" lon="10.133317873423545"><ele>226.00000000000003</ele><time>2026-05-03T07:58:20.84Z</time></trkpt><trkpt lat="44.165141110887944" lon="10.13347336481092"><ele>226.0</ele><time>2026-05-03T07:58:21.84Z</time></trkpt><trkpt lat="44.16516452837521" lon="10.133629021657221"><ele>226.0</ele><time>2026-05-03T07:58:22.84Z</time></trkpt><trkpt lat="44.16518975096418" lon="10.133790540979398"><ele>225.75</ele><time>2026-05-03T07:58:23.84Z</time></trkpt><trkpt lat="44.165214831188464" lon="10.133954161139888"><ele>225.5</ele><time>2026-05-03T07:58:24.84Z</time></trkpt><trkpt lat="44.16523853747823" lon="10.134119146159058"><ele>225.25</ele><time>2026-05-03T07:58:25.84Z</time></trkpt><trkpt lat="44.16526194941367" lon="10.134289595449664"><ele>225.0</ele><time>2026-05-03T07:58:26.84Z</time></trkpt><trkpt lat="44.165287533856294" lon="10.134463980395182"><ele>225.25</ele><time>2026-05-03T07:58:27.839Z</time></trkpt><trkpt lat="44.165309603053146" lon="10.134634839345464"><ele>225.5</ele><time>2026-05-03T07:58:28.839Z</time></trkpt><trkpt lat="44.16534145824571" lon="10.134810446686336"><ele>225.75</ele><time>2026-05-03T07:58:29.839Z</time></trkpt><trkpt lat="44.1653704496063" lon="10.134984168139782"><ele>226.0</ele><time>2026-05-03T07:58:30.839Z</time></trkpt><trkpt lat="44.165400633853885" lon="10.135150962234986"><ele>226.0</ele><time>2026-05-03T07:58:31.839Z</time></trkpt><trkpt lat="44.165429571349954" lon="10.135314131442085"><ele>226.0</ele><time>2026-05-03T07:58:32.839Z</time></trkpt><trkpt lat="44.165458153675175" lon="10.13546371995281"><ele>226.0</ele><time>2026-05-03T07:58:33.839Z</time></trkpt><trkpt lat="44.16550785429809" lon="10.135614126969584"><ele>226.0</ele><time>2026-05-03T07:58:34.839Z</time></trkpt><trkpt lat="44.16557400660749" lon="10.135758134085705"><ele>227.0</ele><time>2026-05-03T07:58:35.839Z</time></trkpt><trkpt lat="44.16564619245253" lon="10.135915968593588"><ele>228.0</ele><time>2026-05-03T07:58:36.839Z</time></trkpt><trkpt lat="44.165746027172894" lon="10.13605887012498"><ele>229.0</ele><time>2026-05-03T07:58:37.839Z</time></trkpt><trkpt lat="44.165851729940485" lon="10.136200567002616"><ele>230.0</ele><time>2026-05-03T07:58:38.839Z</time></trkpt><trkpt lat="44.165955866139555" lon="10.136334032026344"><ele>229.5</ele><time>2026-05-03T07:58:39.839Z</time></trkpt><trkpt lat="44.16605253947863" lon="10.136489108202309"><ele>229.0</ele><time>2026-05-03T07:58:40.839Z</time></trkpt><trkpt lat="44.16614960671045" lon="10.136636710152663"><ele>228.5</ele><time>2026-05-03T07:58:41.839Z</time></trkpt><trkpt lat="44.16622655054326" lon="10.136763833072084"><ele>228.0</ele><time>2026-05-03T07:58:42.839Z</time></trkpt><trkpt lat="44.166281647822295" lon="10.13684115357719"><ele>228.0</ele><time>2026-05-03T07:58:43.839Z</time></trkpt><trkpt lat="44.166342227495605" lon="10.136881244558579"><ele>228.0</ele><time>2026-05-03T07:58:44.839Z</time></trkpt><trkpt lat="44.1664317391832" lon="10.13690201025901"><ele>228.0</ele><time>2026-05-03T07:58:45.839Z</time></trkpt><trkpt lat="44.16654766200694" lon="10.136906626438515"><ele>228.0</ele><time>2026-05-03T07:58:46.839Z</time></trkpt><trkpt lat="44.1666744049061" lon="10.136895607174909"><ele>228.0</ele><time>2026-05-03T07:58:47.839Z</time></trkpt><trkpt lat="44.166800649538466" lon="10.136878662372338"><ele>231.2</ele><time>2026-05-03T07:58:48.839Z</time></trkpt><trkpt lat="44.16691815958719" lon="10.13686230400605"><ele>234.4</ele><time>2026-05-03T07:58:49.839Z</time></trkpt><trkpt lat="44.167026639577685" lon="10.1368645482681"><ele>237.59999999999997</ele><time>2026-05-03T07:58:50.839Z</time></trkpt><trkpt lat="44.167136846044414" lon="10.1368814007196"><ele>240.79999999999998</ele><time>2026-05-03T07:58:51.839Z</time></trkpt><trkpt lat="44.16723526904241" lon="10.136925936217633"><ele>244.0</ele><time>2026-05-03T07:58:52.839Z</time></trkpt><trkpt lat="44.16731230217819" lon="10.136984113786403"><ele>243.0</ele><time>2026-05-03T07:58:53.839Z</time></trkpt><trkpt lat="44.16737696568099" lon="10.13706338205591"><ele>241.99999999999997</ele><time>2026-05-03T07:58:54.839Z</time></trkpt><trkpt lat="44.16743520263729" lon="10.137174446451242"><ele>240.99999999999997</ele><time>2026-05-03T07:58:55.839Z</time></trkpt><trkpt lat="44.16750320633658" lon="10.137317457276605"><ele>240.0</ele><time>2026-05-03T07:58:56.839Z</time></trkpt><trkpt lat="44.167575529212215" lon="10.137457856068576"><ele>239.0</ele><time>2026-05-03T07:58:57.839Z</time></trkpt><trkpt lat="44.167639642643046" lon="10.137615274423757"><ele>239.0</ele><time>2026-05-03T07:58:58.839Z</time></trkpt><trkpt lat="44.16770031981995" lon="10.1377791429532"><ele>239.0</ele><time>2026-05-03T07:58:59.839Z</time></trkpt><trkpt lat="44.16774857075289" lon="10.137933836337446"><ele>239.0</ele><time>2026-05-03T07:59:00.839Z</time></trkpt><trkpt lat="44.16778305232158" lon="10.138093844318556"><ele>239.0</ele><time>2026-05-03T07:59:01.839Z</time></trkpt><trkpt lat="44.16780396596855" lon="10.138264486050387"><ele>238.75</ele><time>2026-05-03T07:59:02.839Z</time></trkpt><trkpt lat="44.16780370061394" lon="10.138442912142686"><ele>238.5</ele><time>2026-05-03T07:59:03.839Z</time></trkpt><trkpt lat="44.16778762761395" lon="10.138624127195948"><ele>238.25</ele><time>2026-05-03T07:59:04.839Z</time></trkpt><trkpt lat="44.16774860099659" lon="10.138796064877532"><ele>238.0</ele><time>2026-05-03T07:59:05.839Z</time></trkpt><trkpt lat="44.167702317178126" lon="10.138963156286492"><ele>238.25</ele><time>2026-05-03T07:59:06.838Z</time></trkpt><trkpt lat="44.167671543429954" lon="10.139106224456137"><ele>238.5</ele><time>2026-05-03T07:59:07.837Z</time></trkpt><trkpt lat="44.167670387115656" lon="10.13926605736997"><ele>238.75</ele><time>2026-05-03T07:59:08.837Z</time></trkpt><trkpt lat="44.16772166880736" lon="10.139436050129346"><ele>239.0</ele><time>2026-05-03T07:59:09.837Z</time></trkpt><trkpt lat="44.167796595300814" lon="10.139610072633586"><ele>239.0</ele><time>2026-05-03T07:59:10.837Z</time></trkpt><trkpt lat="44.16786123090576" lon="10.13978480891157"><ele>239.0</ele><time>2026-05-03T07:59:11.837Z</time></trkpt><trkpt lat="44.16789609593613" lon="10.139987945568931"><ele>239.0</ele><time>2026-05-03T07:59:12.837Z</time></trkpt><trkpt lat="44.167907513445435" lon="10.140192127310716"><ele>239.0</ele><time>2026-05-03T07:59:13.837Z</time></trkpt><trkpt lat="44.16792435984752" lon="10.140374833563135"><ele>239.0</ele><time>2026-05-03T07:59:14.837Z</time></trkpt><trkpt lat="44.16796031710447" lon="10.140539311156616"><ele>239.0</ele><time>2026-05-03T07:59:15.837Z</time></trkpt><trkpt lat="44.16802661120805" lon="10.140699054448453"><ele>239.0</ele><time>2026-05-03T07:59:16.837Z</time></trkpt><trkpt lat="44.16809980772445" lon="10.140851689055985"><ele>239.0</ele><time>2026-05-03T07:59:17.837Z</time></trkpt><trkpt lat="44.16817278102391" lon="10.141013369287387"><ele>240.0</ele><time>2026-05-03T07:59:18.838Z</time></trkpt><trkpt lat="44.16822751867665" lon="10.14117121242628"><ele>241.0</ele><time>2026-05-03T07:59:19.837Z</time></trkpt><trkpt lat="44.16825984984694" lon="10.141325909868176"><ele>242.0</ele><time>2026-05-03T07:59:20.837Z</time></trkpt><trkpt lat="44.1682876712024" lon="10.141506920160449"><ele>243.0</ele><time>2026-05-03T07:59:21.837Z</time></trkpt><trkpt lat="44.16831471435717" lon="10.141684961904954"><ele>243.0</ele><time>2026-05-03T07:59:22.837Z</time></trkpt><trkpt lat="44.168340026428154" lon="10.141862932076682"><ele>243.0</ele><time>2026-05-03T07:59:23.837Z</time></trkpt><trkpt lat="44.16836319911608" lon="10.142037193032548"><ele>243.0</ele><time>2026-05-03T07:59:24.837Z</time></trkpt><trkpt lat="44.16838932605235" lon="10.142214670905014"><ele>243.0</ele><time>2026-05-03T07:59:25.837Z</time></trkpt><trkpt lat="44.16841953892024" lon="10.1424034643937"><ele>242.25</ele><time>2026-05-03T07:59:26.837Z</time></trkpt><trkpt lat="44.168458281519236" lon="10.142594281956814"><ele>241.5</ele><time>2026-05-03T07:59:27.837Z</time></trkpt><trkpt lat="44.16849436751285" lon="10.14278640100328"><ele>240.75</ele><time>2026-05-03T07:59:28.837Z</time></trkpt><trkpt lat="44.16853661162809" lon="10.142981349513033"><ele>240.0</ele><time>2026-05-03T07:59:29.837Z</time></trkpt><trkpt lat="44.168580516723615" lon="10.14318454453279"><ele>239.66666666666669</ele><time>2026-05-03T07:59:30.837Z</time></trkpt><trkpt lat="44.16862640709862" lon="10.14339040815704"><ele>239.33333333333334</ele><time>2026-05-03T07:59:31.837Z</time></trkpt><trkpt lat="44.1686702592942" lon="10.143593094405956"><ele>239.0</ele><time>2026-05-03T07:59:32.837Z</time></trkpt><trkpt lat="44.16871374689622" lon="10.143794976571956"><ele>239.0</ele><time>2026-05-03T07:59:33.837Z</time></trkpt><trkpt lat="44.16875349264471" lon="10.144000678730157"><ele>239.0</ele><time>2026-05-03T07:59:34.837Z</time></trkpt><trkpt lat="44.168790265789944" lon="10.14420631268065"><ele>239.0</ele><time>2026-05-03T07:59:35.837Z</time></trkpt><trkpt lat="44.16883261983223" lon="10.144410846943286"><ele>239.33333333333334</ele><time>2026-05-03T07:59:36.837Z</time></trkpt><trkpt lat="44.168874964093135" lon="10.144615157496194"><ele>239.66666666666669</ele><time>2026-05-03T07:59:37.837Z</time></trkpt><trkpt lat="44.16891619304919" lon="10.144819245125811"><ele>240.0</ele><time>2026-05-03T07:59:38.837Z</time></trkpt><trkpt lat="44.16895541311685" lon="10.145021667675291"><ele>241.0</ele><time>2026-05-03T07:59:39.837Z</time></trkpt><trkpt lat="44.168999362319035" lon="10.145229859936137"><ele>242.0</ele><time>2026-05-03T07:59:40.837Z</time></trkpt><trkpt lat="44.16904992712598" lon="10.145441077663062"><ele>243.0</ele><time>2026-05-03T07:59:41.837Z</time></trkpt><trkpt lat="44.16909748187992" lon="10.145638234408658"><ele>244.66666666666669</ele><time>2026-05-03T07:59:42.837Z</time></trkpt><trkpt lat="44.169149602568346" lon="10.145842526525517"><ele>246.33333333333334</ele><time>2026-05-03T07:59:43.837Z</time></trkpt><trkpt lat="44.16920155063504" lon="10.146045352863394"><ele>248.0</ele><time>2026-05-03T07:59:44.837Z</time></trkpt><trkpt lat="44.16925254135253" lon="10.146245821760411"><ele>248.0</ele><time>2026-05-03T07:59:45.836Z</time></trkpt><trkpt lat="44.16930831410729" lon="10.146445729829608"><ele>248.0</ele><time>2026-05-03T07:59:46.836Z</time></trkpt><trkpt lat="44.16935924651241" lon="10.14664641795772"><ele>248.0</ele><time>2026-05-03T07:59:47.836Z</time></trkpt><trkpt lat="44.16941026357398" lon="10.14684575557335"><ele>246.5</ele><time>2026-05-03T07:59:48.836Z</time></trkpt><trkpt lat="44.16945525284581" lon="10.147038584683683"><ele>245.0</ele><time>2026-05-03T07:59:49.836Z</time></trkpt><trkpt lat="44.169489118167476" lon="10.14721925420073"><ele>243.5</ele><time>2026-05-03T07:59:50.836Z</time></trkpt><trkpt lat="44.16950924923478" lon="10.147383262719902"><ele>242.0</ele><time>2026-05-03T07:59:51.836Z</time></trkpt><trkpt lat="44.16952830196121" lon="10.147535512962795"><ele>241.75</ele><time>2026-05-03T07:59:52.836Z</time></trkpt><trkpt lat="44.16954673465173" lon="10.14768328989361"><ele>241.5</ele><time>2026-05-03T07:59:53.836Z</time></trkpt><trkpt lat="44.16958558822835" lon="10.14784731763869"><ele>241.25</ele><time>2026-05-03T07:59:54.836Z</time></trkpt><trkpt lat="44.16964113013549" lon="10.14801174897028"><ele>241.0</ele><time>2026-05-03T07:59:55.836Z</time></trkpt><trkpt lat="44.16972309604536" lon="10.148183491723215"><ele>243.0</ele><time>2026-05-03T07:59:56.836Z</time></trkpt><trkpt lat="44.16981949678223" lon="10.14835832659679"><ele>245.0</ele><time>2026-05-03T07:59:57.836Z</time></trkpt><trkpt lat="44.16990440586777" lon="10.148532993898401"><ele>247.0</ele><time>2026-05-03T07:59:58.836Z</time></trkpt><trkpt lat="44.16997857456142" lon="10.148705865848008"><ele>250.75</ele><time>2026-05-03T07:59:59.836Z</time></trkpt><trkpt lat="44.1700277686743" lon="10.14888640309187"><ele>254.5</ele><time>2026-05-03T08:00:00.836Z</time></trkpt><trkpt lat="44.17006369733444" lon="10.14907313458474"><ele>258.25</ele><time>2026-05-03T08:00:01.836Z</time></trkpt><trkpt lat="44.170099777668604" lon="10.149250388954432"><ele>262.0</ele><time>2026-05-03T08:00:02.836Z</time></trkpt><trkpt lat="44.170126977041264" lon="10.149429076741741"><ele>262.8</ele><time>2026-05-03T08:00:03.836Z</time></trkpt><trkpt lat="44.17013159629203" lon="10.149602043566924"><ele>263.6</ele><time>2026-05-03T08:00:04.836Z</time></trkpt><trkpt lat="44.17013237137545" lon="10.149753869717955"><ele>264.40000000000003</ele><time>2026-05-03T08:00:05.836Z</time></trkpt><trkpt lat="44.17013594494061" lon="10.149889111077076"><ele>265.2</ele><time>2026-05-03T08:00:06.836Z</time></trkpt><trkpt lat="44.1701411573634" lon="10.150006711649183"><ele>266.0</ele><time>2026-05-03T08:00:07.836Z</time></trkpt><trkpt lat="44.170136487885074" lon="10.150109941619107"><ele>265.5</ele><time>2026-05-03T08:00:08.836Z</time></trkpt><trkpt lat="44.17013489084755" lon="10.150219399923497"><ele>265.0</ele><time>2026-05-03T08:00:09.836Z</time></trkpt><trkpt lat="44.17012572166653" lon="10.150327094507123"><ele>264.5</ele><time>2026-05-03T08:00:10.836Z</time></trkpt><trkpt lat="44.170109630172604" lon="10.150436741994946"><ele>264.0</ele><time>2026-05-03T08:00:11.836Z</time></trkpt><trkpt lat="44.17008381052249" lon="10.150539855705567"><ele>263.5</ele><time>2026-05-03T08:00:12.836Z</time></trkpt><trkpt lat="44.17005265098788" lon="10.1506359663367"><ele>263.0</ele><time>2026-05-03T08:00:13.836Z</time></trkpt><trkpt lat="44.17002008279769" lon="10.150720103327133"><ele>263.0</ele><time>2026-05-03T08:00:14.836Z</time></trkpt><trkpt lat="44.16998021332007" lon="10.150799829094357"><ele>263.0</ele><time>2026-05-03T08:00:15.836Z</time></trkpt><trkpt lat="44.169935355339796" lon="10.150875435810056"><ele>263.0</ele><time>2026-05-03T08:00:16.836Z</time></trkpt><trkpt lat="44.16988068459474" lon="10.150942742781124"><ele>263.0</ele><time>2026-05-03T08:00:17.836Z</time></trkpt><trkpt lat="44.169825621196665" lon="10.151007175654502"><ele>263.0</ele><time>2026-05-03T08:00:18.836Z</time></trkpt><trkpt lat="44.16976359778972" lon="10.151070011275246"><ele>263.0</ele><time>2026-05-03T08:00:19.836Z</time></trkpt><trkpt lat="44.1696781355743" lon="10.151174787310433"><ele>261.6666666666667</ele><time>2026-05-03T08:00:21.836Z</time></trkpt><trkpt lat="44.16961626726977" lon="10.15126519104872"><ele>260.33333333333337</ele><time>2026-05-03T08:00:23.836Z</time></trkpt><trkpt lat="44.16956098159175" lon="10.151344488594251"><ele>259.0</ele><time>2026-05-03T08:00:25.836Z</time></trkpt><trkpt lat="44.16951187277444" lon="10.151430243060574"><ele>257.6666666666667</ele><time>2026-05-03T08:00:27.836Z</time></trkpt><trkpt lat="44.16945407621172" lon="10.151508037991825"><ele>256.3333333333333</ele><time>2026-05-03T08:00:29.836Z</time></trkpt><trkpt lat="44.16942022237024" lon="10.151583110090302"><ele>255.0</ele><time>2026-05-03T08:00:31.836Z</time></trkpt><trkpt lat="44.16937425986689" lon="10.151690009701813"><ele>255.0</ele><time>2026-05-03T08:00:33.836Z</time></trkpt><trkpt lat="44.16928284019881" lon="10.151815240725242"><ele>255.0</ele><time>2026-05-03T08:00:35.836Z</time></trkpt><trkpt lat="44.16924504502801" lon="10.151898336283091"><ele>255.0</ele><time>2026-05-03T08:00:36.836Z</time></trkpt><trkpt lat="44.169209090099386" lon="10.151987448980064"><ele>255.0</ele><time>2026-05-03T08:00:37.836Z</time></trkpt><trkpt lat="44.169176344171056" lon="10.152077784344211"><ele>255.0</ele><time>2026-05-03T08:00:38.836Z</time></trkpt><trkpt lat="44.16914127683095" lon="10.152161748929977"><ele>255.0</ele><time>2026-05-03T08:00:39.836Z</time></trkpt><trkpt lat="44.169079451071674" lon="10.152298657093361"><ele>256.2</ele><time>2026-05-03T08:00:41.836Z</time></trkpt><trkpt lat="44.169018426585616" lon="10.152395551316465"><ele>257.4</ele><time>2026-05-03T08:00:43.836Z</time></trkpt><trkpt lat="44.16889437066559" lon="10.15240183006243"><ele>258.6</ele><time>2026-05-03T08:00:45.836Z</time></trkpt><trkpt lat="44.16882794106711" lon="10.152411016479753"><ele>259.8</ele><time>2026-05-03T08:00:46.836Z</time></trkpt><trkpt lat="44.168764938884586" lon="10.152425822719193"><ele>261.0</ele><time>2026-05-03T08:00:47.836Z</time></trkpt><trkpt lat="44.16866249715693" lon="10.152447491932177"><ele>261.0</ele><time>2026-05-03T08:00:49.836Z</time></trkpt><trkpt lat="44.16855630445285" lon="10.152497974504733"><ele>261.0</ele><time>2026-05-03T08:00:51.836Z</time></trkpt><trkpt lat="44.168519587461304" lon="10.152574727318983"><ele>261.0</ele><time>2026-05-03T08:00:53.836Z</time></trkpt><trkpt lat="44.1684624884362" lon="10.152681548787218"><ele>261.0</ele><time>2026-05-03T08:00:55.835Z</time></trkpt><trkpt lat="44.16842253308579" lon="10.152760158326037"><ele>261.0</ele><time>2026-05-03T08:00:56.835Z</time></trkpt><trkpt lat="44.16842062186197" lon="10.152890453461676"><ele>261.0</ele><time>2026-05-03T08:00:58.835Z</time></trkpt><trkpt lat="44.16841444602177" lon="10.153040385870302"><ele>261.0</ele><time>2026-05-03T08:01:00.835Z</time></trkpt><trkpt lat="44.16843232201043" lon="10.153200936179303"><ele>261.0</ele><time>2026-05-03T08:01:02.835Z</time></trkpt><trkpt lat="44.16845961805285" lon="10.153365338792883"><ele>261.0</ele><time>2026-05-03T08:01:04.835Z</time></trkpt><trkpt lat="44.168471307195" lon="10.153463025113298"><ele>261.0</ele><time>2026-05-03T08:01:05.835Z</time></trkpt><trkpt lat="44.168499598834664" lon="10.1535667294792"><ele>261.0</ele><time>2026-05-03T08:01:06.835Z</time></trkpt><trkpt lat="44.168534844592685" lon="10.153679532119808"><ele>263.40000000000003</ele><time>2026-05-03T08:01:07.835Z</time></trkpt><trkpt lat="44.16856054958125" lon="10.153802610051176"><ele>265.8</ele><time>2026-05-03T08:01:08.835Z</time></trkpt><trkpt lat="44.16859180012382" lon="10.153928127653197"><ele>268.20000000000005</ele><time>2026-05-03T08:01:09.835Z</time></trkpt><trkpt lat="44.16862476816101" lon="10.154053758728411"><ele>270.6</ele><time>2026-05-03T08:01:10.835Z</time></trkpt><trkpt lat="44.168650552491975" lon="10.154171522513204"><ele>273.0</ele><time>2026-05-03T08:01:11.835Z</time></trkpt><trkpt lat="44.168676425124794" lon="10.154281158190797"><ele>275.1666666666667</ele><time>2026-05-03T08:01:12.835Z</time></trkpt><trkpt lat="44.16869937659846" lon="10.154380875788545"><ele>277.3333333333333</ele><time>2026-05-03T08:01:13.834Z</time></trkpt><trkpt lat="44.168724597635254" lon="10.154486689530497"><ele>279.5</ele><time>2026-05-03T08:01:14.834Z</time></trkpt><trkpt lat="44.16876574920696" lon="10.15460266382373"><ele>281.66666666666663</ele><time>2026-05-03T08:01:15.834Z</time></trkpt><trkpt lat="44.16879439897072" lon="10.154713494016718"><ele>283.8333333333333</ele><time>2026-05-03T08:01:16.834Z</time></trkpt><trkpt lat="44.168838117144595" lon="10.154822941938642"><ele>286.0</ele><time>2026-05-03T08:01:17.834Z</time></trkpt><trkpt lat="44.16889006892963" lon="10.154933784327644"><ele>282.2</ele><time>2026-05-03T08:01:18.834Z</time></trkpt><trkpt lat="44.168922548778454" lon="10.15503609214613"><ele>278.40000000000003</ele><time>2026-05-03T08:01:19.835Z</time></trkpt><trkpt lat="44.16896707030017" lon="10.15518034861642"><ele>274.6</ele><time>2026-05-03T08:01:21.834Z</time></trkpt><trkpt lat="44.16898294483041" lon="10.155277657797807"><ele>270.8</ele><time>2026-05-03T08:01:23.834Z</time></trkpt><trkpt lat="44.1690235808035" lon="10.155420885701622"><ele>267.0</ele><time>2026-05-03T08:01:25.834Z</time></trkpt><trkpt lat="44.169058102917404" lon="10.155538937327862"><ele>268.8</ele><time>2026-05-03T08:01:26.834Z</time></trkpt><trkpt lat="44.16910089930609" lon="10.155706009845575"><ele>270.6</ele><time>2026-05-03T08:01:27.834Z</time></trkpt><trkpt lat="44.16912555909561" lon="10.155863636574518"><ele>272.40000000000003</ele><time>2026-05-03T08:01:28.834Z</time></trkpt><trkpt lat="44.16915145187907" lon="10.156017154283106"><ele>274.2</ele><time>2026-05-03T08:01:29.834Z</time></trkpt><trkpt lat="44.169163356627905" lon="10.156136112920928"><ele>276.0</ele><time>2026-05-03T08:01:30.834Z</time></trkpt><trkpt lat="44.169170371402515" lon="10.156249944256047"><ele>276.0</ele><time>2026-05-03T08:01:31.834Z</time></trkpt><trkpt lat="44.16918764019092" lon="10.156344951945778"><ele>276.0</ele><time>2026-05-03T08:01:32.834Z</time></trkpt><trkpt lat="44.169173840043115" lon="10.156444710783367"><ele>276.0</ele><time>2026-05-03T08:01:33.834Z</time></trkpt><trkpt lat="44.169166139005675" lon="10.156548149527811"><ele>276.0</ele><time>2026-05-03T08:01:34.834Z</time></trkpt><trkpt lat="44.16915177546405" lon="10.156675622638572"><ele>276.0</ele><time>2026-05-03T08:01:35.834Z</time></trkpt><trkpt lat="44.16914156955195" lon="10.156786656542774"><ele>276.0</ele><time>2026-05-03T08:01:36.834Z</time></trkpt><trkpt lat="44.169130901052974" lon="10.156895393008542"><ele>276.42857142857144</ele><time>2026-05-03T08:01:37.834Z</time></trkpt><trkpt lat="44.16913053103536" lon="10.157004959040625"><ele>276.8571428571429</ele><time>2026-05-03T08:01:38.834Z</time></trkpt><trkpt lat="44.169116258755516" lon="10.157098083158157"><ele>277.2857142857143</ele><time>2026-05-03T08:01:39.834Z</time></trkpt><trkpt lat="44.16910507146361" lon="10.157192454108046"><ele>277.7142857142857</ele><time>2026-05-03T08:01:40.834Z</time></trkpt><trkpt lat="44.16909819845717" lon="10.157284132067025"><ele>278.1428571428571</ele><time>2026-05-03T08:01:41.834Z</time></trkpt><trkpt lat="44.1691049764835" lon="10.157381261323836"><ele>278.57142857142856</ele><time>2026-05-03T08:01:42.834Z</time></trkpt><trkpt lat="44.16910306696952" lon="10.157474653472121"><ele>279.0</ele><time>2026-05-03T08:01:43.834Z</time></trkpt><trkpt lat="44.16911602666514" lon="10.15758489246317"><ele>280.0</ele><time>2026-05-03T08:01:44.834Z</time></trkpt><trkpt lat="44.169139367409834" lon="10.157700245941456"><ele>281.0</ele><time>2026-05-03T08:01:45.834Z</time></trkpt><trkpt lat="44.169178678938756" lon="10.157822045025165"><ele>282.0</ele><time>2026-05-03T08:01:46.834Z</time></trkpt><trkpt lat="44.16922970776076" lon="10.15794221424824"><ele>283.0</ele><time>2026-05-03T08:01:47.834Z</time></trkpt><trkpt lat="44.16928337045469" lon="10.15805709138192"><ele>284.0</ele><time>2026-05-03T08:01:48.834Z</time></trkpt><trkpt lat="44.16933456419706" lon="10.158176160585212"><ele>287.0</ele><time>2026-05-03T08:01:49.834Z</time></trkpt><trkpt lat="44.16940205665134" lon="10.158293305681452"><ele>290.0</ele><time>2026-05-03T08:01:50.834Z</time></trkpt><trkpt lat="44.16945434635335" lon="10.158405374137631"><ele>293.0</ele><time>2026-05-03T08:01:51.834Z</time></trkpt><trkpt lat="44.16949212049345" lon="10.15851042739861"><ele>296.0</ele><time>2026-05-03T08:01:52.834Z</time></trkpt><trkpt lat="44.16951714938272" lon="10.158633115560406"><ele>299.0</ele><time>2026-05-03T08:01:53.834Z</time></trkpt><trkpt lat="44.169531314336226" lon="10.158771020677728"><ele>299.0</ele><time>2026-05-03T08:01:54.834Z</time></trkpt><trkpt lat="44.16956146198822" lon="10.15891931740773"><ele>299.0</ele><time>2026-05-03T08:01:55.834Z</time></trkpt><trkpt lat="44.16958508692371" lon="10.15906733713127"><ele>299.0</ele><time>2026-05-03T08:01:56.834Z</time></trkpt><trkpt lat="44.16959977662144" lon="10.15920872402941"><ele>299.0</ele><time>2026-05-03T08:01:57.834Z</time></trkpt><trkpt lat="44.16960345581777" lon="10.159335463074076"><ele>299.0</ele><time>2026-05-03T08:01:58.834Z</time></trkpt><trkpt lat="44.1696162431837" lon="10.15943758087411"><ele>300.4</ele><time>2026-05-03T08:01:59.834Z</time></trkpt><trkpt lat="44.16968108251969" lon="10.159621325694939"><ele>301.79999999999995</ele><time>2026-05-03T08:02:01.834Z</time></trkpt><trkpt lat="44.16972234497909" lon="10.159728083688357"><ele>303.20000000000005</ele><time>2026-05-03T08:02:02.834Z</time></trkpt><trkpt lat="44.16975484495105" lon="10.159828694313536"><ele>304.6</ele><time>2026-05-03T08:02:03.834Z</time></trkpt><trkpt lat="44.16978365185276" lon="10.15991679194748"><ele>306.0</ele><time>2026-05-03T08:02:04.834Z</time></trkpt><trkpt lat="44.169811793880854" lon="10.160095871739411"><ele>307.3333333333333</ele><time>2026-05-03T08:02:06.834Z</time></trkpt><trkpt lat="44.16981017424074" lon="10.160210056299317"><ele>308.6666666666667</ele><time>2026-05-03T08:02:07.834Z</time></trkpt><trkpt lat="44.169814477693826" lon="10.1603175165158"><ele>310.0</ele><time>2026-05-03T08:02:08.834Z</time></trkpt><trkpt lat="44.16983568862602" lon="10.160429093325941"><ele>311.33333333333337</ele><time>2026-05-03T08:02:09.834Z</time></trkpt><trkpt lat="44.169845385700825" lon="10.160540836911531"><ele>312.6666666666667</ele><time>2026-05-03T08:02:10.834Z</time></trkpt><trkpt lat="44.16984312848433" lon="10.16064066248068"><ele>314.0</ele><time>2026-05-03T08:02:11.834Z</time></trkpt><trkpt lat="44.169843575382686" lon="10.160752328793414"><ele>316.1666666666667</ele><time>2026-05-03T08:02:12.834Z</time></trkpt><trkpt lat="44.16984947736329" lon="10.160867559221263"><ele>318.33333333333337</ele><time>2026-05-03T08:02:13.834Z</time></trkpt><trkpt lat="44.1698455025996" lon="10.160998034955167"><ele>320.5</ele><time>2026-05-03T08:02:14.834Z</time></trkpt><trkpt lat="44.16984399399334" lon="10.16110888059243"><ele>322.6666666666667</ele><time>2026-05-03T08:02:15.834Z</time></trkpt><trkpt lat="44.169829765542886" lon="10.161221698422253"><ele>324.8333333333333</ele><time>2026-05-03T08:02:16.834Z</time></trkpt><trkpt lat="44.169835806200965" lon="10.16133679590535"><ele>327.0</ele><time>2026-05-03T08:02:17.834Z</time></trkpt><trkpt lat="44.16984242393089" lon="10.161457841700852"><ele>327.3333333333333</ele><time>2026-05-03T08:02:18.834Z</time></trkpt><trkpt lat="44.16985081725861" lon="10.16158851523879"><ele>327.6666666666667</ele><time>2026-05-03T08:02:19.834Z</time></trkpt><trkpt lat="44.16986075637701" lon="10.161716202228142"><ele>328.0</ele><time>2026-05-03T08:02:20.833Z</time></trkpt><trkpt lat="44.16985547053307" lon="10.161830756406609"><ele>328.33333333333337</ele><time>2026-05-03T08:02:21.833Z</time></trkpt><trkpt lat="44.169853164245204" lon="10.16193883333378"><ele>328.6666666666667</ele><time>2026-05-03T08:02:22.833Z</time></trkpt><trkpt lat="44.1698551730242" lon="10.162040733594276"><ele>329.0</ele><time>2026-05-03T08:02:23.833Z</time></trkpt><trkpt lat="44.16987362423702" lon="10.162211303348656"><ele>329.0</ele><time>2026-05-03T08:02:25.833Z</time></trkpt><trkpt lat="44.16985342941694" lon="10.16229732628661"><ele>329.0</ele><time>2026-05-03T08:02:26.833Z</time></trkpt><trkpt lat="44.169785279271665" lon="10.162448361895681"><ele>329.0</ele><time>2026-05-03T08:02:28.833Z</time></trkpt><trkpt lat="44.169745614400846" lon="10.162516993539537"><ele>329.0</ele><time>2026-05-03T08:02:29.833Z</time></trkpt><trkpt lat="44.16970151506665" lon="10.162584929563003"><ele>329.0</ele><time>2026-05-03T08:02:30.833Z</time></trkpt><trkpt lat="44.1696486921843" lon="10.162636207007491"><ele>329.0</ele><time>2026-05-03T08:02:31.833Z</time></trkpt><trkpt lat="44.169587468077545" lon="10.162659030870204"><ele>326.59999999999997</ele><time>2026-05-03T08:02:32.833Z</time></trkpt><trkpt lat="44.169467099561" lon="10.162675192284818"><ele>324.2</ele><time>2026-05-03T08:02:34.833Z</time></trkpt><trkpt lat="44.169375906229824" lon="10.162700939847312"><ele>321.79999999999995</ele><time>2026-05-03T08:02:36.833Z</time></trkpt><trkpt lat="44.1693008030572" lon="10.162796140818777"><ele>319.4</ele><time>2026-05-03T08:02:38.833Z</time></trkpt><trkpt lat="44.16924727631614" lon="10.162926106818666"><ele>317.0</ele><time>2026-05-03T08:02:40.833Z</time></trkpt><trkpt lat="44.1692048172523" lon="10.16302444333167"><ele>317.0</ele><time>2026-05-03T08:02:41.833Z</time></trkpt><trkpt lat="44.16918320035366" lon="10.163126207826272"><ele>317.0</ele><time>2026-05-03T08:02:42.833Z</time></trkpt><trkpt lat="44.16914402377494" lon="10.163199073815786"><ele>317.0</ele><time>2026-05-03T08:02:43.833Z</time></trkpt><trkpt lat="44.169100099103964" lon="10.163265336880235"><ele>317.0</ele><time>2026-05-03T08:02:44.833Z</time></trkpt><trkpt lat="44.169016182884235" lon="10.163326895817304"><ele>317.0</ele><time>2026-05-03T08:02:46.833Z</time></trkpt><trkpt lat="44.168953762784476" lon="10.163352050019569"><ele>317.0</ele><time>2026-05-03T08:02:48.833Z</time></trkpt><trkpt lat="44.16884589903288" lon="10.163376199692866"><ele>323.0</ele><time>2026-05-03T08:02:50.833Z</time></trkpt><trkpt lat="44.168782830770766" lon="10.163373918473644"><ele>329.0</ele><time>2026-05-03T08:02:51.833Z</time></trkpt><trkpt lat="44.16867774670779" lon="10.163340608608841"><ele>335.0</ele><time>2026-05-03T08:02:53.833Z</time></trkpt><trkpt lat="44.168591348603215" lon="10.163306307669359"><ele>341.0</ele><time>2026-05-03T08:02:55.833Z</time></trkpt><trkpt lat="44.16849894992035" lon="10.163292316742977"><ele>347.0</ele><time>2026-05-03T08:02:57.833Z</time></trkpt><trkpt lat="44.16839847686963" lon="10.163273620336053"><ele>347.0</ele><time>2026-05-03T08:02:59.833Z</time></trkpt><trkpt lat="44.16828898167732" lon="10.163291641240814"><ele>347.0</ele><time>2026-05-03T08:03:01.833Z</time></trkpt><trkpt lat="44.16818334608132" lon="10.16332739270578"><ele>347.0</ele><time>2026-05-03T08:03:03.833Z</time></trkpt><trkpt lat="44.16808869116447" lon="10.163363861711906"><ele>347.0</ele><time>2026-05-03T08:03:05.833Z</time></trkpt><trkpt lat="44.168015557528754" lon="10.163448100051198"><ele>347.0</ele><time>2026-05-03T08:03:08.833Z</time></trkpt><trkpt lat="44.16796955776025" lon="10.163508543964204"><ele>347.6666666666667</ele><time>2026-05-03T08:03:10.833Z</time></trkpt><trkpt lat="44.16787516808157" lon="10.163545003892693"><ele>348.33333333333337</ele><time>2026-05-03T08:03:12.833Z</time></trkpt><trkpt lat="44.16780331652037" lon="10.163566785440493"><ele>349.0</ele><time>2026-05-03T08:03:13.833Z</time></trkpt><trkpt lat="44.167709275902524" lon="10.163591290953788"><ele>349.6666666666667</ele><time>2026-05-03T08:03:15.833Z</time></trkpt><trkpt lat="44.167636031118974" lon="10.163588417532628"><ele>350.3333333333333</ele><time>2026-05-03T08:03:16.833Z</time></trkpt><trkpt lat="44.16755830614006" lon="10.163600946965667"><ele>351.0</ele><time>2026-05-03T08:03:17.833Z</time></trkpt><trkpt lat="44.167519462975626" lon="10.163682860942533"><ele>351.0</ele><time>2026-05-03T08:03:18.832Z</time></trkpt><trkpt lat="44.167490830662565" lon="10.163801201495918"><ele>351.0</ele><time>2026-05-03T08:03:20.832Z</time></trkpt><trkpt lat="44.167470210035205" lon="10.163886971222931"><ele>351.0</ele><time>2026-05-03T08:03:21.831Z</time></trkpt><trkpt lat="44.1674200616833" lon="10.163974639629508"><ele>351.0</ele><time>2026-05-03T08:03:22.831Z</time></trkpt><trkpt lat="44.16731117335921" lon="10.16414128297694"><ele>351.0</ele><time>2026-05-03T08:03:24.832Z</time></trkpt><trkpt lat="44.167249318712166" lon="10.164189184021893"><ele>351.0</ele><time>2026-05-03T08:03:25.832Z</time></trkpt><trkpt lat="44.16717860467398" lon="10.164254024694975"><ele>351.0</ele><time>2026-05-03T08:03:26.832Z</time></trkpt><trkpt lat="44.16709780744522" lon="10.164309566509509"><ele>351.0</ele><time>2026-05-03T08:03:27.831Z</time></trkpt><trkpt lat="44.167021072700024" lon="10.164352201686976"><ele>351.0</ele><time>2026-05-03T08:03:28.832Z</time></trkpt><trkpt lat="44.166944056163246" lon="10.16436873970402"><ele>351.0</ele><time>2026-05-03T08:03:29.832Z</time></trkpt><trkpt lat="44.16687019518794" lon="10.16439293300529"><ele>351.0</ele><time>2026-05-03T08:03:30.832Z</time></trkpt><trkpt lat="44.16679376052299" lon="10.164405005351203"><ele>351.0</ele><time>2026-05-03T08:03:31.832Z</time></trkpt><trkpt lat="44.16670827792522" lon="10.164411316075963"><ele>351.0</ele><time>2026-05-03T08:03:32.832Z</time></trkpt><trkpt lat="44.166625319980376" lon="10.164397092875966"><ele>351.0</ele><time>2026-05-03T08:03:33.832Z</time></trkpt><trkpt lat="44.1665435343675" lon="10.164373659479065"><ele>351.0</ele><time>2026-05-03T08:03:34.832Z</time></trkpt><trkpt lat="44.16646525419027" lon="10.164359817351313"><ele>351.0</ele><time>2026-05-03T08:03:35.832Z</time></trkpt><trkpt lat="44.16639344900343" lon="10.16436169519333"><ele>351.0</ele><time>2026-05-03T08:03:36.832Z</time></trkpt><trkpt lat="44.16630574284695" lon="10.16436828447764"><ele>351.0</ele><time>2026-05-03T08:03:37.832Z</time></trkpt><trkpt lat="44.16621798643201" lon="10.164357571297506"><ele>351.0</ele><time>2026-05-03T08:03:38.832Z</time></trkpt><trkpt lat="44.166148680567474" lon="10.164354363805558"><ele>351.0</ele><time>2026-05-03T08:03:39.832Z</time></trkpt><trkpt lat="44.16607971707246" lon="10.164367994217008"><ele>351.0</ele><time>2026-05-03T08:03:40.832Z</time></trkpt><trkpt lat="44.165985016427406" lon="10.164430612948019"><ele>351.0</ele><time>2026-05-03T08:03:42.831Z</time></trkpt><trkpt lat="44.165877827158866" lon="10.164476573725782"><ele>351.0</ele><time>2026-05-03T08:03:44.831Z</time></trkpt><trkpt lat="44.16580196323056" lon="10.16448023636303"><ele>349.6666666666667</ele><time>2026-05-03T08:03:45.831Z</time></trkpt><trkpt lat="44.165726045361936" lon="10.164466173864271"><ele>348.3333333333333</ele><time>2026-05-03T08:03:46.831Z</time></trkpt><trkpt lat="44.16565391528257" lon="10.164438367419816"><ele>347.0</ele><time>2026-05-03T08:03:47.831Z</time></trkpt><trkpt lat="44.16557420003141" lon="10.164407000115498"><ele>345.66666666666663</ele><time>2026-05-03T08:03:48.831Z</time></trkpt><trkpt lat="44.165505143989634" lon="10.164393265948423"><ele>344.3333333333333</ele><time>2026-05-03T08:03:49.831Z</time></trkpt><trkpt lat="44.16543477121725" lon="10.164361466693896"><ele>343.0</ele><time>2026-05-03T08:03:50.831Z</time></trkpt><trkpt lat="44.16536238690494" lon="10.164340158231875"><ele>343.0</ele><time>2026-05-03T08:03:51.831Z</time></trkpt><trkpt lat="44.16529315615516" lon="10.16431819173049"><ele>343.0</ele><time>2026-05-03T08:03:52.831Z</time></trkpt><trkpt lat="44.16518076418425" lon="10.164288956005576"><ele>343.0</ele><time>2026-05-03T08:03:54.831Z</time></trkpt><trkpt lat="44.16510713991249" lon="10.1642729706987"><ele>343.0</ele><time>2026-05-03T08:03:55.831Z</time></trkpt><trkpt lat="44.165010983101745" lon="10.164181841223206"><ele>343.0</ele><time>2026-05-03T08:03:57.831Z</time></trkpt><trkpt lat="44.16492352421374" lon="10.16408085339498"><ele>344.0</ele><time>2026-05-03T08:03:59.831Z</time></trkpt><trkpt lat="44.16482347526841" lon="10.164008510084082"><ele>345.0</ele><time>2026-05-03T08:04:01.831Z</time></trkpt><trkpt lat="44.16472123315869" lon="10.16402809735154"><ele>346.0</ele><time>2026-05-03T08:04:03.831Z</time></trkpt><trkpt lat="44.16460959357358" lon="10.164066241276885"><ele>347.0</ele><time>2026-05-03T08:04:05.831Z</time></trkpt><trkpt lat="44.16451310035335" lon="10.164087678619554"><ele>348.0</ele><time>2026-05-03T08:04:07.831Z</time></trkpt><trkpt lat="44.16445054010634" lon="10.164104891706605"><ele>348.0</ele><time>2026-05-03T08:05:54.828Z</time></trkpt><trkpt lat="44.164379833397895" lon="10.164100006084377"><ele>348.0</ele><time>2026-05-03T08:05:56.828Z</time></trkpt><trkpt lat="44.164305771474574" lon="10.164122090427911"><ele>348.0</ele><time>2026-05-03T08:05:58.828Z</time></trkpt><trkpt lat="44.164227714895155" lon="10.164184394748752"><ele>348.0</ele><time>2026-05-03T08:06:00.828Z</time></trkpt><trkpt lat="44.16413574288564" lon="10.164240720818595"><ele>348.0</ele><time>2026-05-03T08:06:02.828Z</time></trkpt><trkpt lat="44.16404767623011" lon="10.164271191603008"><ele>348.0</ele><time>2026-05-03T08:06:04.828Z</time></trkpt><trkpt lat="44.16396818995993" lon="10.164269198279055"><ele>355.0</ele><time>2026-05-03T08:06:06.828Z</time></trkpt><trkpt lat="44.163874636814285" lon="10.164288917119478"><ele>362.0</ele><time>2026-05-03T08:06:08.828Z</time></trkpt><trkpt lat="44.163775765236" lon="10.16433520829918"><ele>369.0</ele><time>2026-05-03T08:06:10.828Z</time></trkpt><trkpt lat="44.16368346407813" lon="10.164432944413953"><ele>376.0</ele><time>2026-05-03T08:06:12.828Z</time></trkpt><trkpt lat="44.16359487998529" lon="10.164513757611154"><ele>383.0</ele><time>2026-05-03T08:06:14.828Z</time></trkpt><trkpt lat="44.1635385649017" lon="10.16457421780834"><ele>383.0</ele><time>2026-05-03T08:06:15.828Z</time></trkpt><trkpt lat="44.16348477098618" lon="10.16462020415421"><ele>383.0</ele><time>2026-05-03T08:06:16.828Z</time></trkpt><trkpt lat="44.16343185712603" lon="10.164669244953222"><ele>383.0</ele><time>2026-05-03T08:06:17.828Z</time></trkpt><trkpt lat="44.163348478497255" lon="10.164752731402508"><ele>383.0</ele><time>2026-05-03T08:06:19.828Z</time></trkpt><trkpt lat="44.16327497306322" lon="10.164857632225493"><ele>383.0</ele><time>2026-05-03T08:06:21.828Z</time></trkpt><trkpt lat="44.16322424828606" lon="10.164996242646577"><ele>383.0</ele><time>2026-05-03T08:06:23.828Z</time></trkpt><trkpt lat="44.16315397003012" lon="10.165093885746296"><ele>387.2</ele><time>2026-05-03T08:06:25.828Z</time></trkpt><trkpt lat="44.16306022485712" lon="10.165135573577047"><ele>391.4</ele><time>2026-05-03T08:06:27.828Z</time></trkpt><trkpt lat="44.162972473416595" lon="10.165189118630439"><ele>395.59999999999997</ele><time>2026-05-03T08:06:29.828Z</time></trkpt><trkpt lat="44.162880600926606" lon="10.16527944157888"><ele>399.79999999999995</ele><time>2026-05-03T08:06:31.828Z</time></trkpt><trkpt lat="44.1627864188932" lon="10.165395073580184"><ele>404.0</ele><time>2026-05-03T08:06:33.828Z</time></trkpt><trkpt lat="44.1627304568733" lon="10.165523697350425"><ele>404.0</ele><time>2026-05-03T08:06:35.828Z</time></trkpt><trkpt lat="44.16268829727622" lon="10.165596247120078"><ele>404.0</ele><time>2026-05-03T08:06:42.828Z</time></trkpt><trkpt lat="44.1624669884739" lon="10.165954895498404"><ele>404.0</ele><time>2026-05-03T08:06:44.828Z</time></trkpt><trkpt lat="44.161453962824474" lon="10.166389747257142"><ele>404.66666666666663</ele><time>2026-05-03T08:06:56.827Z</time></trkpt><trkpt lat="44.16137669157549" lon="10.166423085732575"><ele>405.3333333333333</ele><time>2026-05-03T08:06:57.827Z</time></trkpt><trkpt lat="44.16128811854925" lon="10.166464083294757"><ele>406.0</ele><time>2026-05-03T08:06:58.827Z</time></trkpt><trkpt lat="44.16119995289049" lon="10.166526048864716"><ele>406.66666666666663</ele><time>2026-05-03T08:06:59.827Z</time></trkpt><trkpt lat="44.161128570273235" lon="10.166575393686466"><ele>407.3333333333333</ele><time>2026-05-03T08:07:00.827Z</time></trkpt><trkpt lat="44.161064400244086" lon="10.166607736301655"><ele>408.0</ele><time>2026-05-03T08:07:01.827Z</time></trkpt><trkpt lat="44.161001428214796" lon="10.166651426399927"><ele>405.59999999999997</ele><time>2026-05-03T08:07:02.827Z</time></trkpt><trkpt lat="44.16094088056436" lon="10.166694708582417"><ele>403.2</ele><time>2026-05-03T08:07:03.827Z</time></trkpt><trkpt lat="44.160883089335016" lon="10.166730790782237"><ele>400.8</ele><time>2026-05-03T08:07:04.827Z</time></trkpt><trkpt lat="44.16080936512413" lon="10.166851489849877"><ele>398.4</ele><time>2026-05-03T08:07:06.827Z</time></trkpt><trkpt lat="44.16072345737067" lon="10.166965326934996"><ele>396.0</ele><time>2026-05-03T08:07:08.827Z</time></trkpt><trkpt lat="44.16063565553549" lon="10.167081044564135"><ele>398.0</ele><time>2026-05-03T08:07:10.827Z</time></trkpt><trkpt lat="44.16056091741401" lon="10.167187329967298"><ele>400.0</ele><time>2026-05-03T08:07:12.827Z</time></trkpt><trkpt lat="44.16051301229866" lon="10.16724487918041"><ele>402.0</ele><time>2026-05-03T08:07:13.827Z</time></trkpt><trkpt lat="44.16041779004776" lon="10.167316000366924"><ele>404.0</ele><time>2026-05-03T08:07:15.827Z</time></trkpt><trkpt lat="44.16030738535428" lon="10.167388251535375"><ele>406.0</ele><time>2026-05-03T08:07:17.827Z</time></trkpt><trkpt lat="44.16021172428301" lon="10.167474285932546"><ele>406.0</ele><time>2026-05-03T08:07:19.827Z</time></trkpt><trkpt lat="44.160130856311" lon="10.167536757720862"><ele>406.0</ele><time>2026-05-03T08:07:21.827Z</time></trkpt><trkpt lat="44.160034697442775" lon="10.167559591807947"><ele>406.0</ele><time>2026-05-03T08:07:23.827Z</time></trkpt><trkpt lat="44.15993043837515" lon="10.167529893758779"><ele>406.0</ele><time>2026-05-03T08:07:25.827Z</time></trkpt><trkpt lat="44.159814487283455" lon="10.16754728079233"><ele>406.0</ele><time>2026-05-03T08:07:27.827Z</time></trkpt><trkpt lat="44.159716933170266" lon="10.167590865924357"><ele>412.00000000000006</ele><time>2026-05-03T08:07:29.827Z</time></trkpt><trkpt lat="44.15966396746115" lon="10.167641680864161"><ele>418.0</ele><time>2026-05-03T08:07:30.826Z</time></trkpt><trkpt lat="44.159598714805895" lon="10.167679864833506"><ele>424.0</ele><time>2026-05-03T08:07:31.827Z</time></trkpt><trkpt lat="44.15953183356982" lon="10.167710624482131"><ele>430.0</ele><time>2026-05-03T08:07:32.827Z</time></trkpt><trkpt lat="44.15946848742018" lon="10.167738735879901"><ele>436.00000000000006</ele><time>2026-05-03T08:07:33.826Z</time></trkpt><trkpt lat="44.159366989997004" lon="10.167818961353237"><ele>442.0</ele><time>2026-05-03T08:07:35.826Z</time></trkpt><trkpt lat="44.15927008610221" lon="10.167899495160786"><ele>442.00000000000006</ele><time>2026-05-03T08:07:37.827Z</time></trkpt><trkpt lat="44.159153745306305" lon="10.167961910944236"><ele>442.0</ele><time>2026-05-03T08:07:39.826Z</time></trkpt><trkpt lat="44.159091296142094" lon="10.168016726858122"><ele>442.0</ele><time>2026-05-03T08:07:40.826Z</time></trkpt><trkpt lat="44.15902238449625" lon="10.168057457971706"><ele>442.0</ele><time>2026-05-03T08:07:41.826Z</time></trkpt><trkpt lat="44.158953706559174" lon="10.168095719516323"><ele>442.00000000000006</ele><time>2026-05-03T08:07:42.827Z</time></trkpt><trkpt lat="44.15888787080962" lon="10.168122244715866"><ele>442.0</ele><time>2026-05-03T08:07:43.826Z</time></trkpt><trkpt lat="44.158821341307075" lon="10.168138139554276"><ele>443.6666666666667</ele><time>2026-05-03T08:07:44.826Z</time></trkpt><trkpt lat="44.158702825836485" lon="10.168167431107518"><ele>445.33333333333337</ele><time>2026-05-03T08:07:46.826Z</time></trkpt><trkpt lat="44.15864313389948" lon="10.168195620821354"><ele>447.0</ele><time>2026-05-03T08:07:47.826Z</time></trkpt><trkpt lat="44.158577744779734" lon="10.168203372752924"><ele>448.66666666666663</ele><time>2026-05-03T08:07:48.826Z</time></trkpt><trkpt lat="44.15845855069034" lon="10.168220909283962"><ele>450.3333333333333</ele><time>2026-05-03T08:07:50.826Z</time></trkpt><trkpt lat="44.15839704430007" lon="10.168252921675537"><ele>452.0</ele><time>2026-05-03T08:07:51.826Z</time></trkpt><trkpt lat="44.158335607148004" lon="10.168279651657992"><ele>447.66666666666663</ele><time>2026-05-03T08:07:52.826Z</time></trkpt><trkpt lat="44.158275239894806" lon="10.168311435818536"><ele>443.3333333333333</ele><time>2026-05-03T08:07:53.826Z</time></trkpt><trkpt lat="44.15815434860504" lon="10.168383915126306"><ele>439.0</ele><time>2026-05-03T08:07:55.826Z</time></trkpt><trkpt lat="44.158090452634056" lon="10.168416834576034"><ele>434.66666666666663</ele><time>2026-05-03T08:07:56.826Z</time></trkpt><trkpt lat="44.15803238727283" lon="10.168453628541059"><ele>430.3333333333333</ele><time>2026-05-03T08:07:57.826Z</time></trkpt><trkpt lat="44.15796775017579" lon="10.168482132410645"><ele>426.0</ele><time>2026-05-03T08:07:58.826Z</time></trkpt><trkpt lat="44.157904134769126" lon="10.168514663926969"><ele>426.0</ele><time>2026-05-03T08:07:59.826Z</time></trkpt><trkpt lat="44.15783915350236" lon="10.168555321011173"><ele>426.0</ele><time>2026-05-03T08:08:00.826Z</time></trkpt><trkpt lat="44.15777875192935" lon="10.168582319993655"><ele>426.0</ele><time>2026-05-03T08:08:01.826Z</time></trkpt><trkpt lat="44.15771078530952" lon="10.168617896011158"><ele>426.0</ele><time>2026-05-03T08:08:02.826Z</time></trkpt><trkpt lat="44.15764157349811" lon="10.168640467064053"><ele>426.0</ele><time>2026-05-03T08:08:03.826Z</time></trkpt><trkpt lat="44.15756360092652" lon="10.168655678201482"><ele>426.0</ele><time>2026-05-03T08:08:05.826Z</time></trkpt><trkpt lat="44.15744249670731" lon="10.168678914372274"><ele>425.99999999999994</ele><time>2026-05-03T08:08:07.826Z</time></trkpt><trkpt lat="44.15737756864676" lon="10.168692323689777"><ele>426.0</ele><time>2026-05-03T08:08:08.826Z</time></trkpt><trkpt lat="44.157309701676304" lon="10.168712998256373"><ele>426.0</ele><time>2026-05-03T08:08:09.826Z</time></trkpt><trkpt lat="44.15724273669453" lon="10.168708927859006"><ele>426.0</ele><time>2026-05-03T08:08:10.826Z</time></trkpt><trkpt lat="44.157169826270085" lon="10.16873137663866"><ele>426.0</ele><time>2026-05-03T08:08:11.826Z</time></trkpt><trkpt lat="44.15708961869704" lon="10.168738851324088"><ele>425.99999999999994</ele><time>2026-05-03T08:08:12.826Z</time></trkpt><trkpt lat="44.15701521824102" lon="10.168740950632577"><ele>426.0</ele><time>2026-05-03T08:08:13.826Z</time></trkpt><trkpt lat="44.156928620310474" lon="10.168755443961551"><ele>428.8333333333333</ele><time>2026-05-03T08:08:14.826Z</time></trkpt><trkpt lat="44.15684813829741" lon="10.168778661779822"><ele>431.66666666666663</ele><time>2026-05-03T08:08:15.826Z</time></trkpt><trkpt lat="44.15677796361234" lon="10.16881121608416"><ele>434.5</ele><time>2026-05-03T08:08:16.826Z</time></trkpt><trkpt lat="44.15670837025882" lon="10.168847652616844"><ele>437.3333333333333</ele><time>2026-05-03T08:08:17.826Z</time></trkpt><trkpt lat="44.15661639225349" lon="10.168862679402286"><ele>440.16666666666663</ele><time>2026-05-03T08:08:19.826Z</time></trkpt><trkpt lat="44.15655056915542" lon="10.168920559606631"><ele>443.0</ele><time>2026-05-03T08:08:21.825Z</time></trkpt><trkpt lat="44.156519172759026" lon="10.16901040686898"><ele>442.99999999999994</ele><time>2026-05-03T08:08:26.825Z</time></trkpt><trkpt lat="44.156525234038924" lon="10.169122187775228"><ele>443.0</ele><time>2026-05-03T08:08:46.825Z</time></trkpt><trkpt lat="44.15658275508236" lon="10.169084363271777"><ele>443.0</ele><time>2026-05-03T08:18:15.814Z</time></trkpt><trkpt lat="44.15645712844427" lon="10.169051532751805"><ele>443.0</ele><time>2026-05-03T08:18:20.814Z</time></trkpt><trkpt lat="44.15650042907031" lon="10.16898479857784"><ele>442.99999999999994</ele><time>2026-05-03T08:18:31.814Z</time></trkpt><trkpt lat="44.156550776402995" lon="10.168930430489338"><ele>443.0</ele><time>2026-05-03T08:18:39.814Z</time></trkpt><trkpt lat="44.15661849317568" lon="10.168904707375866"><ele>443.0</ele><time>2026-05-03T08:18:41.814Z</time></trkpt><trkpt lat="44.15670323123881" lon="10.16887745489734"><ele>442.99999999999994</ele><time>2026-05-03T08:18:43.814Z</time></trkpt><trkpt lat="44.156804359754204" lon="10.168832186416056"><ele>442.99999999999994</ele><time>2026-05-03T08:18:45.814Z</time></trkpt><trkpt lat="44.156874684462004" lon="10.168790063593724"><ele>443.0</ele><time>2026-05-03T08:18:47.814Z</time></trkpt><trkpt lat="44.156976679057244" lon="10.168774430822106"><ele>443.0</ele><time>2026-05-03T08:18:49.813Z</time></trkpt><trkpt lat="44.15708796030479" lon="10.168741985600596"><ele>443.0</ele><time>2026-05-03T08:18:51.813Z</time></trkpt><trkpt lat="44.157158769246564" lon="10.16872921837566"><ele>443.0</ele><time>2026-05-03T08:18:53.813Z</time></trkpt><trkpt lat="44.15727439579008" lon="10.1687146618955"><ele>443.0</ele><time>2026-05-03T08:18:55.813Z</time></trkpt><trkpt lat="44.157360399247175" lon="10.168666064644581"><ele>443.0</ele><time>2026-05-03T08:18:56.813Z</time></trkpt><trkpt lat="44.157546061762126" lon="10.168616186095388"><ele>440.16666666666663</ele><time>2026-05-03T08:18:58.813Z</time></trkpt><trkpt lat="44.15763945484948" lon="10.168571935951974"><ele>437.3333333333333</ele><time>2026-05-03T08:18:59.813Z</time></trkpt><trkpt lat="44.15772163196101" lon="10.168530565716091"><ele>434.5</ele><time>2026-05-03T08:19:00.813Z</time></trkpt><trkpt lat="44.15779499951265" lon="10.168485679300309"><ele>431.66666666666663</ele><time>2026-05-03T08:19:01.813Z</time></trkpt><trkpt lat="44.157852412038544" lon="10.16844073211877"><ele>428.8333333333333</ele><time>2026-05-03T08:19:02.813Z</time></trkpt><trkpt lat="44.15790943747578" lon="10.168398138826335"><ele>426.0</ele><time>2026-05-03T08:19:03.813Z</time></trkpt><trkpt lat="44.157977615707374" lon="10.168354688627813"><ele>426.0</ele><time>2026-05-03T08:19:04.813Z</time></trkpt><trkpt lat="44.15805916762359" lon="10.168302310560984"><ele>426.0</ele><time>2026-05-03T08:19:06.813Z</time></trkpt><trkpt lat="44.15811891908893" lon="10.16825245265258"><ele>426.0</ele><time>2026-05-03T08:19:08.813Z</time></trkpt><trkpt lat="44.158191450183985" lon="10.168225741450627"><ele>426.0</ele><time>2026-05-03T08:19:10.813Z</time></trkpt><trkpt lat="44.15827257144589" lon="10.1681649764845"><ele>426.0</ele><time>2026-05-03T08:19:12.813Z</time></trkpt><trkpt lat="44.158368966022906" lon="10.168125720984447"><ele>426.0</ele><time>2026-05-03T08:19:14.813Z</time></trkpt><trkpt lat="44.15844415893173" lon="10.168114441052522"><ele>431.20000000000005</ele><time>2026-05-03T08:19:16.813Z</time></trkpt><trkpt lat="44.15852017256767" lon="10.168110682219796"><ele>436.40000000000003</ele><time>2026-05-03T08:19:18.813Z</time></trkpt><trkpt lat="44.15861509297418" lon="10.168102508878967"><ele>441.6</ele><time>2026-05-03T08:19:20.813Z</time></trkpt><trkpt lat="44.15870487917717" lon="10.168093543195152"><ele>446.8</ele><time>2026-05-03T08:19:22.813Z</time></trkpt><trkpt lat="44.15877034171265" lon="10.168084257065589"><ele>452.0</ele><time>2026-05-03T08:19:23.813Z</time></trkpt><trkpt lat="44.158905573574884" lon="10.16801632822559"><ele>452.0</ele><time>2026-05-03T08:19:25.813Z</time></trkpt><trkpt lat="44.15897475761354" lon="10.167966283839997"><ele>452.00000000000006</ele><time>2026-05-03T08:19:26.813Z</time></trkpt><trkpt lat="44.15907894218139" lon="10.167882794041812"><ele>452.00000000000006</ele><time>2026-05-03T08:19:28.813Z</time></trkpt><trkpt lat="44.15918119640979" lon="10.16781993124313"><ele>452.0</ele><time>2026-05-03T08:19:30.813Z</time></trkpt><trkpt lat="44.15924332642847" lon="10.167780141487615"><ele>452.0</ele><time>2026-05-03T08:19:31.813Z</time></trkpt><trkpt lat="44.15933081889129" lon="10.16769714700084"><ele>450.0</ele><time>2026-05-03T08:19:33.813Z</time></trkpt><trkpt lat="44.15942858185705" lon="10.167686051744617"><ele>448.00000000000006</ele><time>2026-05-03T08:19:35.813Z</time></trkpt><trkpt lat="44.15954637819802" lon="10.167628642020162"><ele>446.00000000000006</ele><time>2026-05-03T08:19:37.813Z</time></trkpt><trkpt lat="44.159608237988365" lon="10.167584849644065"><ele>444.0</ele><time>2026-05-03T08:19:38.813Z</time></trkpt><trkpt lat="44.15970893747463" lon="10.167520203026958"><ele>442.0</ele><time>2026-05-03T08:19:40.813Z</time></trkpt><trkpt lat="44.15978315430992" lon="10.167517608670842"><ele>439.50000000000006</ele><time>2026-05-03T08:19:42.813Z</time></trkpt><trkpt lat="44.15986821146738" lon="10.167536012898298"><ele>437.0</ele><time>2026-05-03T08:19:44.813Z</time></trkpt><trkpt lat="44.159955956374155" lon="10.167562220612922"><ele>434.5</ele><time>2026-05-03T08:19:46.813Z</time></trkpt><trkpt lat="44.16002696973609" lon="10.16751139894978"><ele>432.0</ele><time>2026-05-03T08:19:48.813Z</time></trkpt><trkpt lat="44.16008114101161" lon="10.167459679225283"><ele>429.50000000000006</ele><time>2026-05-03T08:19:49.813Z</time></trkpt><trkpt lat="44.16017494760447" lon="10.167372583546257"><ele>427.0</ele><time>2026-05-03T08:19:51.813Z</time></trkpt><trkpt lat="44.16026419541351" lon="10.167283720881326"><ele>427.00000000000006</ele><time>2026-05-03T08:19:53.813Z</time></trkpt><trkpt lat="44.160363345067616" lon="10.167215078108894"><ele>427.0</ele><time>2026-05-03T08:19:55.813Z</time></trkpt><trkpt lat="44.16041968465944" lon="10.167173399516225"><ele>427.0</ele><time>2026-05-03T08:19:56.813Z</time></trkpt><trkpt lat="44.160474891379295" lon="10.167122475239502"><ele>427.0</ele><time>2026-05-03T08:19:57.813Z</time></trkpt><trkpt lat="44.16053435084759" lon="10.167063316705878"><ele>427.00000000000006</ele><time>2026-05-03T08:19:58.813Z</time></trkpt><trkpt lat="44.16058839377615" lon="10.167007130378416"><ele>427.0</ele><time>2026-05-03T08:19:59.812Z</time></trkpt><trkpt lat="44.16064923936388" lon="10.166940372697534"><ele>420.8</ele><time>2026-05-03T08:20:00.812Z</time></trkpt><trkpt lat="44.1607316803019" lon="10.16681889825447"><ele>414.6</ele><time>2026-05-03T08:20:02.812Z</time></trkpt><trkpt lat="44.16077935566669" lon="10.166754303053539"><ele>408.40000000000003</ele><time>2026-05-03T08:20:03.812Z</time></trkpt><trkpt lat="44.16084560621281" lon="10.166710358336562"><ele>402.20000000000005</ele><time>2026-05-03T08:20:04.812Z</time></trkpt><trkpt lat="44.16095274149181" lon="10.166637211824863"><ele>396.0</ele><time>2026-05-03T08:20:06.811Z</time></trkpt><trkpt lat="44.16105042980228" lon="10.166563841924404"><ele>398.0</ele><time>2026-05-03T08:20:08.811Z</time></trkpt><trkpt lat="44.1611228644387" lon="10.16649210129906"><ele>400.0</ele><time>2026-05-03T08:20:09.811Z</time></trkpt><trkpt lat="44.16118003024194" lon="10.166452871091975"><ele>402.0</ele><time>2026-05-03T08:20:10.811Z</time></trkpt><trkpt lat="44.16126911065" lon="10.166420386215227"><ele>404.0</ele><time>2026-05-03T08:20:11.811Z</time></trkpt><trkpt lat="44.161341698797344" lon="10.166408121206432"><ele>406.0</ele><time>2026-05-03T08:20:13.811Z</time></trkpt><trkpt lat="44.16142880903746" lon="10.166367742550037"><ele>408.0</ele><time>2026-05-03T08:20:15.811Z</time></trkpt><trkpt lat="44.161491164353116" lon="10.166328000152156"><ele>407.5</ele><time>2026-05-03T08:20:16.811Z</time></trkpt><trkpt lat="44.16154795654506" lon="10.166287284991418"><ele>407.0</ele><time>2026-05-03T08:20:17.811Z</time></trkpt><trkpt lat="44.16162305911013" lon="10.166250899940788"><ele>406.5</ele><time>2026-05-03T08:20:19.81Z</time></trkpt><trkpt lat="44.16169897236542" lon="10.166216542906541"><ele>406.0</ele><time>2026-05-03T08:20:21.81Z</time></trkpt><trkpt lat="44.161767144189874" lon="10.166177243367775"><ele>405.5</ele><time>2026-05-03T08:20:23.81Z</time></trkpt><trkpt lat="44.161866885122585" lon="10.166150486874276"><ele>405.0</ele><time>2026-05-03T08:20:25.951Z</time></trkpt><trkpt lat="44.16224549503417" lon="10.165967560915211"><ele>404.66666666666663</ele><time>2026-05-03T08:20:38.81Z</time></trkpt><trkpt lat="44.16244556474502" lon="10.165620256207069"><ele>404.3333333333333</ele><time>2026-05-03T08:20:39.81Z</time></trkpt><trkpt lat="44.16251629313134" lon="10.165516255549713"><ele>404.0</ele><time>2026-05-03T08:20:40.81Z</time></trkpt><trkpt lat="44.16260938337142" lon="10.165483946452047"><ele>404.0</ele><time>2026-05-03T08:20:43.81Z</time></trkpt><trkpt lat="44.16269598943653" lon="10.165438437088183"><ele>404.0</ele><time>2026-05-03T08:21:30.809Z</time></trkpt><trkpt lat="44.162726948566394" lon="10.165360745311986"><ele>404.0</ele><time>2026-05-03T08:21:32.809Z</time></trkpt><trkpt lat="44.16278565231447" lon="10.16524904557836"><ele>404.0</ele><time>2026-05-03T08:21:34.809Z</time></trkpt><trkpt lat="44.16287451272262" lon="10.165182301454943"><ele>404.0</ele><time>2026-05-03T08:21:36.809Z</time></trkpt><trkpt lat="44.16296494437977" lon="10.165120855439717"><ele>403.99999999999994</ele><time>2026-05-03T08:21:38.809Z</time></trkpt><trkpt lat="44.163034518705864" lon="10.165079399820836"><ele>404.0</ele><time>2026-05-03T08:21:40.809Z</time></trkpt><trkpt lat="44.16311156211136" lon="10.165020188154985"><ele>404.0</ele><time>2026-05-03T08:21:42.809Z</time></trkpt><trkpt lat="44.16316120552521" lon="10.16493595929962"><ele>404.0</ele><time>2026-05-03T08:21:44.809Z</time></trkpt><trkpt lat="44.16319926459209" lon="10.164845225203182"><ele>403.99999999999994</ele><time>2026-05-03T08:21:46.809Z</time></trkpt><trkpt lat="44.16323596721134" lon="10.164756240948067"><ele>404.0</ele><time>2026-05-03T08:21:48.809Z</time></trkpt><trkpt lat="44.16329773386845" lon="10.164701342176318"><ele>399.79999999999995</ele><time>2026-05-03T08:21:49.809Z</time></trkpt><trkpt lat="44.1633789909142" lon="10.164618180520574"><ele>395.59999999999997</ele><time>2026-05-03T08:21:51.809Z</time></trkpt><trkpt lat="44.16344674509453" lon="10.16453477577053"><ele>391.4</ele><time>2026-05-03T08:21:53.809Z</time></trkpt><trkpt lat="44.16353648583243" lon="10.164440020230542"><ele>387.2</ele><time>2026-05-03T08:21:55.809Z</time></trkpt><trkpt lat="44.16362542824887" lon="10.164353792964715"><ele>383.0</ele><time>2026-05-03T08:21:57.809Z</time></trkpt><trkpt lat="44.16367937587221" lon="10.164275261884375"><ele>383.0</ele><time>2026-05-03T08:21:59.809Z</time></trkpt><trkpt lat="44.16374362977016" lon="10.164229259494238"><ele>383.0</ele><time>2026-05-03T08:22:01.809Z</time></trkpt><trkpt lat="44.16381241466006" lon="10.164246535888855"><ele>383.0</ele><time>2026-05-03T08:22:03.809Z</time></trkpt><trkpt lat="44.163894081883775" lon="10.16425200996636"><ele>383.0</ele><time>2026-05-03T08:22:05.809Z</time></trkpt><trkpt lat="44.16399597628028" lon="10.164244956050492"><ele>383.0</ele><time>2026-05-03T08:22:07.809Z</time></trkpt><trkpt lat="44.16412627080711" lon="10.164162629163206"><ele>377.1666666666667</ele><time>2026-05-03T08:22:09.809Z</time></trkpt><trkpt lat="44.16418682428491" lon="10.164115369868496"><ele>371.33333333333337</ele><time>2026-05-03T08:22:10.809Z</time></trkpt><trkpt lat="44.16425123914192" lon="10.164077377894685"><ele>365.5</ele><time>2026-05-03T08:22:11.809Z</time></trkpt><trkpt lat="44.16431147829833" lon="10.164049639319503"><ele>359.6666666666667</ele><time>2026-05-03T08:22:12.808Z</time></trkpt><trkpt lat="44.16440873034827" lon="10.16401123745314"><ele>353.8333333333333</ele><time>2026-05-03T08:22:14.808Z</time></trkpt><trkpt lat="44.164478249277" lon="10.164006597106065"><ele>348.0</ele><time>2026-05-03T08:22:16.807Z</time></trkpt><trkpt lat="44.16455678769978" lon="10.163998572695624"><ele>347.1666666666667</ele><time>2026-05-03T08:22:17.807Z</time></trkpt><trkpt lat="44.16462353338423" lon="10.163966882288513"><ele>346.3333333333333</ele><time>2026-05-03T08:22:18.808Z</time></trkpt><trkpt lat="44.164688259247065" lon="10.163936370055623"><ele>345.5</ele><time>2026-05-03T08:22:19.807Z</time></trkpt><trkpt lat="44.16478692329157" lon="10.163896872302736"><ele>344.66666666666663</ele><time>2026-05-03T08:22:21.808Z</time></trkpt><trkpt lat="44.164861581361336" lon="10.163937426083457"><ele>343.8333333333333</ele><time>2026-05-03T08:22:23.807Z</time></trkpt><trkpt lat="44.16496615916067" lon="10.164038818323753"><ele>343.0</ele><time>2026-05-03T08:22:25.807Z</time></trkpt><trkpt lat="44.1650574838061" lon="10.164136777082012"><ele>343.0</ele><time>2026-05-03T08:22:27.807Z</time></trkpt><trkpt lat="44.16513602823781" lon="10.164193665858072"><ele>343.0</ele><time>2026-05-03T08:22:29.807Z</time></trkpt><trkpt lat="44.165199129925334" lon="10.164232029784484"><ele>343.0</ele><time>2026-05-03T08:22:31.807Z</time></trkpt><trkpt lat="44.16528346607088" lon="10.164273207948941"><ele>343.0</ele><time>2026-05-03T08:22:33.807Z</time></trkpt><trkpt lat="44.165367974257066" lon="10.164293207810351"><ele>343.0</ele><time>2026-05-03T08:22:35.807Z</time></trkpt><trkpt lat="44.16548321525575" lon="10.164335166260393"><ele>343.0</ele><time>2026-05-03T08:22:37.807Z</time></trkpt><trkpt lat="44.16556176479524" lon="10.164377565828513"><ele>343.0</ele><time>2026-05-03T08:22:39.807Z</time></trkpt><trkpt lat="44.16566954208582" lon="10.16440607123876"><ele>343.0</ele><time>2026-05-03T08:22:41.807Z</time></trkpt><trkpt lat="44.165794161817146" lon="10.16440647354051"><ele>343.0</ele><time>2026-05-03T08:22:43.807Z</time></trkpt><trkpt lat="44.16586607292685" lon="10.164391299220636"><ele>343.0</ele><time>2026-05-03T08:22:44.807Z</time></trkpt><trkpt lat="44.165935878931826" lon="10.164351520032135"><ele>343.0</ele><time>2026-05-03T08:22:45.807Z</time></trkpt><trkpt lat="44.1660328041074" lon="10.164312274055707"><ele>343.0</ele><time>2026-05-03T08:22:47.807Z</time></trkpt><trkpt lat="44.16612691578004" lon="10.164346667400668"><ele>343.0</ele><time>2026-05-03T08:22:49.807Z</time></trkpt><trkpt lat="44.16620083200483" lon="10.164344941968828"><ele>343.0</ele><time>2026-05-03T08:22:50.807Z</time></trkpt><trkpt lat="44.16626640921971" lon="10.16433370361431"><ele>343.0</ele><time>2026-05-03T08:22:51.807Z</time></trkpt><trkpt lat="44.16638497983107" lon="10.164353992722107"><ele>343.0</ele><time>2026-05-03T08:22:53.807Z</time></trkpt><trkpt lat="44.16649818633172" lon="10.16438320752837"><ele>343.0</ele><time>2026-05-03T08:22:55.807Z</time></trkpt><trkpt lat="44.16659267649613" lon="10.164397213775057"><ele>343.0</ele><time>2026-05-03T08:22:57.807Z</time></trkpt><trkpt lat="44.166666635384274" lon="10.164391297440392"><ele>343.0</ele><time>2026-05-03T08:22:59.807Z</time></trkpt><trkpt lat="44.1667605926315" lon="10.164360387923372"><ele>343.0</ele><time>2026-05-03T08:23:01.807Z</time></trkpt><trkpt lat="44.166867222908856" lon="10.164323920450341"><ele>343.0</ele><time>2026-05-03T08:23:03.807Z</time></trkpt><trkpt lat="44.16698018825761" lon="10.164245072989022"><ele>343.0</ele><time>2026-05-03T08:23:05.807Z</time></trkpt><trkpt lat="44.16703297973395" lon="10.164194478676391"><ele>343.0</ele><time>2026-05-03T08:23:06.807Z</time></trkpt><trkpt lat="44.16712843202248" lon="10.164101768067143"><ele>343.0</ele><time>2026-05-03T08:23:08.807Z</time></trkpt><trkpt lat="44.1671897158408" lon="10.16405577204622"><ele>343.0</ele><time>2026-05-03T08:23:09.807Z</time></trkpt><trkpt lat="44.167285269315386" lon="10.163990131137435"><ele>344.3333333333333</ele><time>2026-05-03T08:23:11.807Z</time></trkpt><trkpt lat="44.16737065566822" lon="10.16389923331261"><ele>345.66666666666663</ele><time>2026-05-03T08:23:13.807Z</time></trkpt><trkpt lat="44.167447474817436" lon="10.163869433226195"><ele>347.0</ele><time>2026-05-03T08:23:15.807Z</time></trkpt><trkpt lat="44.167501281563176" lon="10.163803286145876"><ele>348.3333333333333</ele><time>2026-05-03T08:23:19.807Z</time></trkpt><trkpt lat="44.167575070377204" lon="10.163723031216206"><ele>349.6666666666667</ele><time>2026-05-03T08:23:22.807Z</time></trkpt><trkpt lat="44.16761917588344" lon="10.163611117665171"><ele>351.0</ele><time>2026-05-03T08:23:23.807Z</time></trkpt><trkpt lat="44.1676368110932" lon="10.163512315912996"><ele>351.00000000000006</ele><time>2026-05-03T08:23:28.807Z</time></trkpt><trkpt lat="44.16770054118025" lon="10.163527973419539"><ele>351.0</ele><time>2026-05-03T08:23:36.806Z</time></trkpt><trkpt lat="44.16775501945222" lon="10.163582739306356"><ele>351.0</ele><time>2026-05-03T08:23:39.806Z</time></trkpt><trkpt lat="44.16780781756938" lon="10.163643474980066"><ele>351.0</ele><time>2026-05-03T08:23:42.806Z</time></trkpt><trkpt lat="44.16786142866042" lon="10.163594298731207"><ele>351.0</ele><time>2026-05-03T08:23:49.806Z</time></trkpt><trkpt lat="44.16794268528162" lon="10.163548696183048"><ele>351.00000000000006</ele><time>2026-05-03T08:23:52.806Z</time></trkpt><trkpt lat="44.16789435984184" lon="10.163461083658571"><ele>351.0</ele><time>2026-05-03T08:23:54.806Z</time></trkpt><trkpt lat="44.16793689600731" lon="10.163383570422"><ele>351.0</ele><time>2026-05-03T08:23:57.806Z</time></trkpt><trkpt lat="44.16800495415262" lon="10.163380690451014"><ele>351.0</ele><time>2026-05-03T08:24:03.806Z</time></trkpt><trkpt lat="44.1680720908851" lon="10.163333651830328"><ele>351.0</ele><time>2026-05-03T08:24:09.806Z</time></trkpt><trkpt lat="44.1681646222154" lon="10.16328267964933"><ele>351.0</ele><time>2026-05-03T08:24:34.803Z</time></trkpt><trkpt lat="44.1682639731481" lon="10.163263168795682"><ele>351.0</ele><time>2026-05-03T08:25:14.803Z</time></trkpt><trkpt lat="44.168334649370124" lon="10.163297753391177"><ele>351.0</ele><time>2026-05-03T08:25:16.803Z</time></trkpt><trkpt lat="44.16841175152773" lon="10.163304368933977"><ele>350.20000000000005</ele><time>2026-05-03T08:25:18.803Z</time></trkpt><trkpt lat="44.16851641172578" lon="10.163338173010763"><ele>349.40000000000003</ele><time>2026-05-03T08:25:20.803Z</time></trkpt><trkpt lat="44.16858446891949" lon="10.163376501902139"><ele>348.6</ele><time>2026-05-03T08:25:21.803Z</time></trkpt><trkpt lat="44.16869958629507" lon="10.16343211484918"><ele>347.8</ele><time>2026-05-03T08:25:23.803Z</time></trkpt><trkpt lat="44.1687960000163" lon="10.163468628207804"><ele>347.0</ele><time>2026-05-03T08:25:25.803Z</time></trkpt><trkpt lat="44.1688918158464" lon="10.16341919580616"><ele>347.0</ele><time>2026-05-03T08:25:27.802Z</time></trkpt><trkpt lat="44.16895585557142" lon="10.163338827707314"><ele>347.0</ele><time>2026-05-03T08:25:28.802Z</time></trkpt><trkpt lat="44.1690051030889" lon="10.163254879898002"><ele>347.0</ele><time>2026-05-03T08:25:29.802Z</time></trkpt><trkpt lat="44.16905352316096" lon="10.16318355762601"><ele>347.0</ele><time>2026-05-03T08:25:30.802Z</time></trkpt><trkpt lat="44.16909535813279" lon="10.16310510356594"><ele>347.0</ele><time>2026-05-03T08:25:31.802Z</time></trkpt><trkpt lat="44.1691430361001" lon="10.16301368237842"><ele>347.0</ele><time>2026-05-03T08:25:32.802Z</time></trkpt><trkpt lat="44.16917490797213" lon="10.162922342464121"><ele>342.0</ele><time>2026-05-03T08:25:33.802Z</time></trkpt><trkpt lat="44.16921504529402" lon="10.162832218027603"><ele>337.0</ele><time>2026-05-03T08:25:34.802Z</time></trkpt><trkpt lat="44.169278684829386" lon="10.162712868454738"><ele>332.0</ele><time>2026-05-03T08:25:36.802Z</time></trkpt><trkpt lat="44.16935305926754" lon="10.16272117783881"><ele>327.0</ele><time>2026-05-03T08:25:39.802Z</time></trkpt><trkpt lat="44.169424891687655" lon="10.162726804460444"><ele>322.0</ele><time>2026-05-03T08:25:40.802Z</time></trkpt><trkpt lat="44.16951922182119" lon="10.162682264300642"><ele>317.0</ele><time>2026-05-03T08:25:41.802Z</time></trkpt><trkpt lat="44.169590774544304" lon="10.162626457235854"><ele>317.0</ele><time>2026-05-03T08:25:42.802Z</time></trkpt><trkpt lat="44.169649876077656" lon="10.162558298653188"><ele>317.0</ele><time>2026-05-03T08:25:43.802Z</time></trkpt><trkpt lat="44.169699764367856" lon="10.162476416982152"><ele>317.0</ele><time>2026-05-03T08:25:44.802Z</time></trkpt><trkpt lat="44.16975101921632" lon="10.162398361529835"><ele>317.0</ele><time>2026-05-03T08:25:45.802Z</time></trkpt><trkpt lat="44.16979075099195" lon="10.162326239679187"><ele>317.0</ele><time>2026-05-03T08:25:46.802Z</time></trkpt><trkpt lat="44.169816424688854" lon="10.162232917887358"><ele>317.0</ele><time>2026-05-03T08:25:47.802Z</time></trkpt><trkpt lat="44.16983393360147" lon="10.16214821770605"><ele>317.0</ele><time>2026-05-03T08:25:48.802Z</time></trkpt><trkpt lat="44.16984390743185" lon="10.161971220580762"><ele>318.6666666666667</ele><time>2026-05-03T08:25:50.802Z</time></trkpt><trkpt lat="44.169824520074556" lon="10.16181186362982"><ele>320.33333333333337</ele><time>2026-05-03T08:25:52.802Z</time></trkpt><trkpt lat="44.169808596352624" lon="10.161722445389374"><ele>322.0</ele><time>2026-05-03T08:25:53.802Z</time></trkpt><trkpt lat="44.16979285626656" lon="10.161618998838492"><ele>323.6666666666667</ele><time>2026-05-03T08:25:54.802Z</time></trkpt><trkpt lat="44.1697883162508" lon="10.161490352075583"><ele>325.3333333333333</ele><time>2026-05-03T08:25:55.802Z</time></trkpt><trkpt lat="44.169789666741174" lon="10.161371860938642"><ele>327.0</ele><time>2026-05-03T08:25:56.802Z</time></trkpt><trkpt lat="44.1697997031606" lon="10.161258166724963"><ele>327.0</ele><time>2026-05-03T08:25:57.802Z</time></trkpt><trkpt lat="44.169811511730664" lon="10.161152819627894"><ele>327.0</ele><time>2026-05-03T08:25:58.802Z</time></trkpt><trkpt lat="44.169822924364254" lon="10.160993404282076"><ele>327.0</ele><time>2026-05-03T08:26:00.802Z</time></trkpt><trkpt lat="44.169817280659046" lon="10.160872176884281"><ele>327.0</ele><time>2026-05-03T08:26:02.802Z</time></trkpt><trkpt lat="44.169805339638955" lon="10.16075567176976"><ele>327.0</ele><time>2026-05-03T08:26:05.802Z</time></trkpt><trkpt lat="44.16981574967049" lon="10.160666587956495"><ele>327.0</ele><time>2026-05-03T08:26:07.802Z</time></trkpt><trkpt lat="44.16981389456781" lon="10.160533755067613"><ele>323.75</ele><time>2026-05-03T08:26:09.802Z</time></trkpt><trkpt lat="44.169814879501956" lon="10.16040682010575"><ele>320.5</ele><time>2026-05-03T08:26:11.802Z</time></trkpt><trkpt lat="44.169817206033876" lon="10.160242799887989"><ele>317.25</ele><time>2026-05-03T08:26:13.802Z</time></trkpt><trkpt lat="44.169797630420504" lon="10.160083668417087"><ele>314.0</ele><time>2026-05-03T08:26:15.802Z</time></trkpt><trkpt lat="44.1697570821338" lon="10.159918384712125"><ele>312.4</ele><time>2026-05-03T08:26:17.802Z</time></trkpt><trkpt lat="44.16970553520354" lon="10.15976047762397"><ele>310.79999999999995</ele><time>2026-05-03T08:26:19.802Z</time></trkpt><trkpt lat="44.16967010256339" lon="10.159618552980707"><ele>309.20000000000005</ele><time>2026-05-03T08:26:21.802Z</time></trkpt><trkpt lat="44.16966852586468" lon="10.159505992867487"><ele>307.6</ele><time>2026-05-03T08:26:23.802Z</time></trkpt><trkpt lat="44.169679686006546" lon="10.159391762575915"><ele>306.0</ele><time>2026-05-03T08:26:25.8Z</time></trkpt><trkpt lat="44.16967738073082" lon="10.15923965743056"><ele>306.0</ele><time>2026-05-03T08:26:27.801Z</time></trkpt><trkpt lat="44.16968860653771" lon="10.159104351576024"><ele>306.0</ele><time>2026-05-03T08:26:29.8Z</time></trkpt><trkpt lat="44.1697199181575" lon="10.159011744718967"><ele>306.0</ele><time>2026-05-03T08:26:31.8Z</time></trkpt><trkpt lat="44.1697506163456" lon="10.158914324085591"><ele>306.0</ele><time>2026-05-03T08:26:35.801Z</time></trkpt><trkpt lat="44.16980332279945" lon="10.158864070293138"><ele>306.0</ele><time>2026-05-03T08:27:54.799Z</time></trkpt><trkpt lat="44.16981892832824" lon="10.15876360064516"><ele>306.0</ele><time>2026-05-03T08:28:05.799Z</time></trkpt><trkpt lat="44.16985240956763" lon="10.158661154565845"><ele>300.0</ele><time>2026-05-03T08:28:08.799Z</time></trkpt><trkpt lat="44.16988285466431" lon="10.158563616139984"><ele>294.0</ele><time>2026-05-03T08:28:10.799Z</time></trkpt><trkpt lat="44.169911516994596" lon="10.158482313662"><ele>288.0</ele><time>2026-05-03T08:28:11.799Z</time></trkpt><trkpt lat="44.169967444172265" lon="10.15836897328682"><ele>282.0</ele><time>2026-05-03T08:28:13.799Z</time></trkpt><trkpt lat="44.17001879306784" lon="10.158247404888748"><ele>276.0</ele><time>2026-05-03T08:28:16.799Z</time></trkpt><trkpt lat="44.17002448657003" lon="10.15815756277379"><ele>270.0</ele><time>2026-05-03T08:28:17.799Z</time></trkpt><trkpt lat="44.1700212956064" lon="10.158035347950182"><ele>269.4</ele><time>2026-05-03T08:28:18.799Z</time></trkpt><trkpt lat="44.17001130280945" lon="10.157880246966236"><ele>268.8</ele><time>2026-05-03T08:28:19.799Z</time></trkpt><trkpt lat="44.169996766147506" lon="10.157731849613509"><ele>268.2</ele><time>2026-05-03T08:28:20.799Z</time></trkpt><trkpt lat="44.16998752866168" lon="10.15760265854331"><ele>267.6</ele><time>2026-05-03T08:28:21.799Z</time></trkpt><trkpt lat="44.169976515321146" lon="10.157490486607397"><ele>267.0</ele><time>2026-05-03T08:28:22.799Z</time></trkpt><trkpt lat="44.16996818420211" lon="10.15736087301399"><ele>267.0</ele><time>2026-05-03T08:28:23.799Z</time></trkpt><trkpt lat="44.1699575825304" lon="10.157218160773676"><ele>267.0</ele><time>2026-05-03T08:28:24.799Z</time></trkpt><trkpt lat="44.16994131742895" lon="10.157087196571714"><ele>267.0</ele><time>2026-05-03T08:28:25.799Z</time></trkpt><trkpt lat="44.16992342272422" lon="10.156973838366245"><ele>267.0</ele><time>2026-05-03T08:28:26.799Z</time></trkpt><trkpt lat="44.16990433008657" lon="10.156858567452979"><ele>267.0</ele><time>2026-05-03T08:28:27.799Z</time></trkpt><trkpt lat="44.16987290594634" lon="10.156743594236078"><ele>268.8</ele><time>2026-05-03T08:28:28.799Z</time></trkpt><trkpt lat="44.16984749754481" lon="10.156603475209517"><ele>270.6</ele><time>2026-05-03T08:28:29.799Z</time></trkpt><trkpt lat="44.16981075599646" lon="10.156466339339245"><ele>272.40000000000003</ele><time>2026-05-03T08:28:30.798Z</time></trkpt><trkpt lat="44.169775331124185" lon="10.156326178997253"><ele>274.2</ele><time>2026-05-03T08:28:31.797Z</time></trkpt><trkpt lat="44.169741615659866" lon="10.156183096694704"><ele>276.0</ele><time>2026-05-03T08:28:32.797Z</time></trkpt><trkpt lat="44.16971423085359" lon="10.156050589770274"><ele>276.0</ele><time>2026-05-03T08:28:33.797Z</time></trkpt><trkpt lat="44.16968466730421" lon="10.15594625869749"><ele>276.0</ele><time>2026-05-03T08:28:34.797Z</time></trkpt><trkpt lat="44.16965619486259" lon="10.155834380325244"><ele>276.0</ele><time>2026-05-03T08:28:35.797Z</time></trkpt><trkpt lat="44.16962947313875" lon="10.155736754639772"><ele>276.0</ele><time>2026-05-03T08:28:36.798Z</time></trkpt><trkpt lat="44.1696189276039" lon="10.155647415443065"><ele>276.0</ele><time>2026-05-03T08:28:37.798Z</time></trkpt><trkpt lat="44.169599657275846" lon="10.155541442249511"><ele>276.0</ele><time>2026-05-03T08:28:38.798Z</time></trkpt><trkpt lat="44.16958664612629" lon="10.155440169526127"><ele>274.5</ele><time>2026-05-03T08:28:39.798Z</time></trkpt><trkpt lat="44.169586732946975" lon="10.155347167073868"><ele>273.0</ele><time>2026-05-03T08:28:40.798Z</time></trkpt><trkpt lat="44.16959227439854" lon="10.155256708691674"><ele>271.5</ele><time>2026-05-03T08:28:41.798Z</time></trkpt><trkpt lat="44.16960060291419" lon="10.155114677837716"><ele>270.0</ele><time>2026-05-03T08:28:43.798Z</time></trkpt><trkpt lat="44.1696030666874" lon="10.154991831868335"><ele>268.5</ele><time>2026-05-03T08:28:45.798Z</time></trkpt><trkpt lat="44.16959907258152" lon="10.15487864550994"><ele>267.0</ele><time>2026-05-03T08:28:47.798Z</time></trkpt><trkpt lat="44.169569034581464" lon="10.154795733492339"><ele>266.0</ele><time>2026-05-03T08:28:49.798Z</time></trkpt><trkpt lat="44.16949220009195" lon="10.154709597156694"><ele>265.0</ele><time>2026-05-03T08:29:59.797Z</time></trkpt><trkpt lat="44.16944799885274" lon="10.154600851704597"><ele>264.0</ele><time>2026-05-03T08:30:01.796Z</time></trkpt><trkpt lat="44.16942894412546" lon="10.154509547003828"><ele>263.0</ele><time>2026-05-03T08:30:02.796Z</time></trkpt><trkpt lat="44.16941296741568" lon="10.15441688357394"><ele>262.0</ele><time>2026-05-03T08:30:03.796Z</time></trkpt><trkpt lat="44.16939708315754" lon="10.154318149389697"><ele>261.0</ele><time>2026-05-03T08:30:04.796Z</time></trkpt><trkpt lat="44.169376902643904" lon="10.154216896321092"><ele>261.0</ele><time>2026-05-03T08:30:05.796Z</time></trkpt><trkpt lat="44.169356773581356" lon="10.15411333181338"><ele>261.0</ele><time>2026-05-03T08:30:06.796Z</time></trkpt><trkpt lat="44.169335466791566" lon="10.154017321461609"><ele>261.0</ele><time>2026-05-03T08:30:07.796Z</time></trkpt><trkpt lat="44.1693021568651" lon="10.153856155504021"><ele>261.0</ele><time>2026-05-03T08:30:09.796Z</time></trkpt><trkpt lat="44.169265347901955" lon="10.153705050701802"><ele>261.0</ele><time>2026-05-03T08:30:11.796Z</time></trkpt><trkpt lat="44.169263749147916" lon="10.153545781312555"><ele>260.1666666666667</ele><time>2026-05-03T08:30:13.796Z</time></trkpt><trkpt lat="44.169266599040455" lon="10.153433782594805"><ele>259.3333333333333</ele><time>2026-05-03T08:30:15.796Z</time></trkpt><trkpt lat="44.16926233215173" lon="10.153336074492358"><ele>258.5</ele><time>2026-05-03T08:30:16.796Z</time></trkpt><trkpt lat="44.1692352100306" lon="10.153231063047718"><ele>257.66666666666663</ele><time>2026-05-03T08:30:17.796Z</time></trkpt><trkpt lat="44.16919813327454" lon="10.153122392078501"><ele>256.8333333333333</ele><time>2026-05-03T08:30:18.796Z</time></trkpt><trkpt lat="44.16915406574662" lon="10.153015006897231"><ele>256.0</ele><time>2026-05-03T08:30:19.796Z</time></trkpt><trkpt lat="44.169122053376846" lon="10.152916782759789"><ele>255.99999999999997</ele><time>2026-05-03T08:30:20.796Z</time></trkpt><trkpt lat="44.16910028534825" lon="10.152823439143685"><ele>256.0</ele><time>2026-05-03T08:30:21.796Z</time></trkpt><trkpt lat="44.16907339361239" lon="10.15273449717057"><ele>256.0</ele><time>2026-05-03T08:30:22.796Z</time></trkpt><trkpt lat="44.169040023731505" lon="10.152653345354292"><ele>256.0</ele><time>2026-05-03T08:30:23.796Z</time></trkpt><trkpt lat="44.169002407311446" lon="10.15251119996093"><ele>255.99999999999997</ele><time>2026-05-03T08:30:25.796Z</time></trkpt><trkpt lat="44.16903383866601" lon="10.152375597089382"><ele>256.0</ele><time>2026-05-03T08:30:27.796Z</time></trkpt><trkpt lat="44.169074591714235" lon="10.152306191490936"><ele>255.83333333333331</ele><time>2026-05-03T08:30:28.796Z</time></trkpt><trkpt lat="44.1691151499938" lon="10.152216436386633"><ele>255.66666666666666</ele><time>2026-05-03T08:30:29.796Z</time></trkpt><trkpt lat="44.16915857195023" lon="10.152119493953604"><ele>255.5</ele><time>2026-05-03T08:30:30.796Z</time></trkpt><trkpt lat="44.16920809942164" lon="10.152016313802756"><ele>255.33333333333331</ele><time>2026-05-03T08:30:31.796Z</time></trkpt><trkpt lat="44.1692551491935" lon="10.151905110230233"><ele>255.16666666666666</ele><time>2026-05-03T08:30:32.796Z</time></trkpt><trkpt lat="44.169302971840175" lon="10.15179160318498"><ele>255.0</ele><time>2026-05-03T08:30:33.796Z</time></trkpt><trkpt lat="44.16935422230324" lon="10.15167581900927"><ele>255.0</ele><time>2026-05-03T08:30:34.796Z</time></trkpt><trkpt lat="44.16941123381933" lon="10.151570262449205"><ele>255.0</ele><time>2026-05-03T08:30:35.796Z</time></trkpt><trkpt lat="44.169477359634826" lon="10.151476802125067"><ele>255.0</ele><time>2026-05-03T08:30:36.795Z</time></trkpt><trkpt lat="44.169534712020656" lon="10.15136844868303"><ele>255.0</ele><time>2026-05-03T08:30:37.795Z</time></trkpt><trkpt lat="44.169601853587736" lon="10.15128039937091"><ele>255.0</ele><time>2026-05-03T08:30:38.795Z</time></trkpt><trkpt lat="44.16967535338395" lon="10.151190137561091"><ele>254.6</ele><time>2026-05-03T08:30:39.794Z</time></trkpt><trkpt lat="44.16975017125839" lon="10.15110371133863"><ele>254.2</ele><time>2026-05-03T08:30:40.794Z</time></trkpt><trkpt lat="44.169824803599774" lon="10.15102166700484"><ele>253.8</ele><time>2026-05-03T08:30:41.794Z</time></trkpt><trkpt lat="44.169896257084" lon="10.15094032022055"><ele>253.4</ele><time>2026-05-03T08:30:42.794Z</time></trkpt><trkpt lat="44.169966181218314" lon="10.150841040919213"><ele>253.0</ele><time>2026-05-03T08:30:43.794Z</time></trkpt><trkpt lat="44.170028560261336" lon="10.150723349892786"><ele>254.25</ele><time>2026-05-03T08:30:44.794Z</time></trkpt><trkpt lat="44.170083070281116" lon="10.150585941689188"><ele>255.5</ele><time>2026-05-03T08:30:45.794Z</time></trkpt><trkpt lat="44.1701190614757" lon="10.150418817969456"><ele>256.75</ele><time>2026-05-03T08:30:46.794Z</time></trkpt><trkpt lat="44.1701362789831" lon="10.150202291769551"><ele>258.0</ele><time>2026-05-03T08:30:47.794Z</time></trkpt><trkpt lat="44.17013808575916" lon="10.149954869428736"><ele>260.0</ele><time>2026-05-03T08:30:48.794Z</time></trkpt><trkpt lat="44.17013947324552" lon="10.149734538289131"><ele>262.0</ele><time>2026-05-03T08:30:49.794Z</time></trkpt><trkpt lat="44.17013840464941" lon="10.149539093849707"><ele>264.0</ele><time>2026-05-03T08:30:50.794Z</time></trkpt><trkpt lat="44.17012252616416" lon="10.149351569693337"><ele>266.0</ele><time>2026-05-03T08:30:51.794Z</time></trkpt><trkpt lat="44.170093724296294" lon="10.1491677972985"><ele>265.0</ele><time>2026-05-03T08:30:52.794Z</time></trkpt><trkpt lat="44.170043031199526" lon="10.148973112599139"><ele>264.0</ele><time>2026-05-03T08:30:53.794Z</time></trkpt><trkpt lat="44.169977296969584" lon="10.148794020534881"><ele>263.0</ele><time>2026-05-03T08:30:54.794Z</time></trkpt><trkpt lat="44.16990938800894" lon="10.148614917131868"><ele>262.0</ele><time>2026-05-03T08:30:55.794Z</time></trkpt><trkpt lat="44.16983540847292" lon="10.148431017762363"><ele>258.25</ele><time>2026-05-03T08:30:56.794Z</time></trkpt><trkpt lat="44.169751728219055" lon="10.14826341384199"><ele>254.5</ele><time>2026-05-03T08:30:57.794Z</time></trkpt><trkpt lat="44.169680387025764" lon="10.148105834072938"><ele>250.75</ele><time>2026-05-03T08:30:58.794Z</time></trkpt><trkpt lat="44.169611852428936" lon="10.147946184132453"><ele>247.0</ele><time>2026-05-03T08:30:59.794Z</time></trkpt><trkpt lat="44.16955966501742" lon="10.147776489137097"><ele>245.75</ele><time>2026-05-03T08:31:00.794Z</time></trkpt><trkpt lat="44.16952112163392" lon="10.147585132823506"><ele>244.5</ele><time>2026-05-03T08:31:01.794Z</time></trkpt><trkpt lat="44.16948699965944" lon="10.14739419528966"><ele>243.25</ele><time>2026-05-03T08:31:02.794Z</time></trkpt><trkpt lat="44.16944905779221" lon="10.147187952277536"><ele>242.0</ele><time>2026-05-03T08:31:03.794Z</time></trkpt><trkpt lat="44.16940910756291" lon="10.146964556517455"><ele>242.0</ele><time>2026-05-03T08:31:04.794Z</time></trkpt><trkpt lat="44.16936036342798" lon="10.146742732862657"><ele>242.0</ele><time>2026-05-03T08:31:05.794Z</time></trkpt><trkpt lat="44.16930443105996" lon="10.146522018029971"><ele>242.0</ele><time>2026-05-03T08:31:06.794Z</time></trkpt><trkpt lat="44.169250162815835" lon="10.146308328831715"><ele>243.66666666666669</ele><time>2026-05-03T08:31:07.794Z</time></trkpt><trkpt lat="44.16919682932926" lon="10.146091299598766"><ele>245.33333333333331</ele><time>2026-05-03T08:31:08.794Z</time></trkpt><trkpt lat="44.16914016570322" lon="10.145875882239123"><ele>247.0</ele><time>2026-05-03T08:31:09.794Z</time></trkpt><trkpt lat="44.16908452773727" lon="10.145665615480992"><ele>247.0</ele><time>2026-05-03T08:31:10.794Z</time></trkpt><trkpt lat="44.169037157449736" lon="10.145452586811892"><ele>247.0</ele><time>2026-05-03T08:31:11.794Z</time></trkpt><trkpt lat="44.16899370484194" lon="10.145237399920466"><ele>247.0</ele><time>2026-05-03T08:31:12.794Z</time></trkpt><trkpt lat="44.16894912531426" lon="10.145020165384814"><ele>244.66666666666666</ele><time>2026-05-03T08:31:13.794Z</time></trkpt><trkpt lat="44.16890238719219" lon="10.144810717756421"><ele>242.33333333333331</ele><time>2026-05-03T08:31:14.794Z</time></trkpt><trkpt lat="44.16885760744107" lon="10.144597192248892"><ele>240.0</ele><time>2026-05-03T08:31:15.794Z</time></trkpt><trkpt lat="44.16881784885337" lon="10.144386868817056"><ele>240.0</ele><time>2026-05-03T08:31:16.794Z</time></trkpt><trkpt lat="44.16877877826385" lon="10.144175397231553"><ele>240.0</ele><time>2026-05-03T08:31:17.794Z</time></trkpt><trkpt lat="44.16873099805682" lon="10.143969847106808"><ele>240.0</ele><time>2026-05-03T08:31:18.793Z</time></trkpt><trkpt lat="44.1686855095266" lon="10.143767979772793"><ele>240.0</ele><time>2026-05-03T08:31:19.793Z</time></trkpt><trkpt lat="44.1686448181868" lon="10.143566448767347"><ele>240.0</ele><time>2026-05-03T08:31:20.793Z</time></trkpt><trkpt lat="44.168605653642466" lon="10.143366113416485"><ele>240.0</ele><time>2026-05-03T08:31:21.793Z</time></trkpt><trkpt lat="44.168562285410616" lon="10.143169407833783"><ele>240.0</ele><time>2026-05-03T08:31:22.793Z</time></trkpt><trkpt lat="44.168522161041174" lon="10.142971312681565"><ele>240.0</ele><time>2026-05-03T08:31:23.793Z</time></trkpt><trkpt lat="44.16848460319985" lon="10.142777411772846"><ele>240.0</ele><time>2026-05-03T08:31:24.793Z</time></trkpt><trkpt lat="44.16844905518433" lon="10.142585438119308"><ele>240.0</ele><time>2026-05-03T08:31:25.793Z</time></trkpt><trkpt lat="44.16841209447522" lon="10.14239762739917"><ele>240.0</ele><time>2026-05-03T08:31:26.793Z</time></trkpt><trkpt lat="44.16837962763521" lon="10.142215675068037"><ele>240.75</ele><time>2026-05-03T08:31:27.793Z</time></trkpt><trkpt lat="44.16834977814318" lon="10.142042272259726"><ele>241.5</ele><time>2026-05-03T08:31:28.793Z</time></trkpt><trkpt lat="44.168329202964856" lon="10.141869194466137"><ele>242.25</ele><time>2026-05-03T08:31:29.793Z</time></trkpt><trkpt lat="44.168310853009906" lon="10.141682840825208"><ele>243.0</ele><time>2026-05-03T08:31:30.793Z</time></trkpt><trkpt lat="44.16828796763931" lon="10.141503237091895"><ele>243.25</ele><time>2026-05-03T08:31:31.793Z</time></trkpt><trkpt lat="44.1682549490199" lon="10.141322677572091"><ele>243.5</ele><time>2026-05-03T08:31:32.793Z</time></trkpt><trkpt lat="44.16821399799044" lon="10.141145653871044"><ele>243.75</ele><time>2026-05-03T08:31:33.793Z</time></trkpt><trkpt lat="44.1681614161816" lon="10.1409727894693"><ele>244.0</ele><time>2026-05-03T08:31:34.793Z</time></trkpt><trkpt lat="44.16810287242071" lon="10.14081043789326"><ele>243.2</ele><time>2026-05-03T08:31:35.793Z</time></trkpt><trkpt lat="44.16805115872339" lon="10.14066306316408"><ele>242.39999999999998</ele><time>2026-05-03T08:31:36.793Z</time></trkpt><trkpt lat="44.16799760694936" lon="10.14053505149917"><ele>241.6</ele><time>2026-05-03T08:31:37.793Z</time></trkpt><trkpt lat="44.16795426676878" lon="10.140416048869005"><ele>240.8</ele><time>2026-05-03T08:31:38.793Z</time></trkpt><trkpt lat="44.167932687398554" lon="10.140294898287868"><ele>240.0</ele><time>2026-05-03T08:31:39.793Z</time></trkpt><trkpt lat="44.16790739724094" lon="10.140154263604646"><ele>240.0</ele><time>2026-05-03T08:31:40.793Z</time></trkpt><trkpt lat="44.16788841273299" lon="10.139993291408175"><ele>240.0</ele><time>2026-05-03T08:31:41.793Z</time></trkpt><trkpt lat="44.16786536610697" lon="10.139841811312758"><ele>240.0</ele><time>2026-05-03T08:31:42.793Z</time></trkpt><trkpt lat="44.16785232969782" lon="10.139684454838864"><ele>240.0</ele><time>2026-05-03T08:31:43.793Z</time></trkpt><trkpt lat="44.167817513164934" lon="10.139540853013457"><ele>239.8</ele><time>2026-05-03T08:31:44.793Z</time></trkpt><trkpt lat="44.16776736342934" lon="10.139414714639338"><ele>239.6</ele><time>2026-05-03T08:31:45.793Z</time></trkpt><trkpt lat="44.16772399159112" lon="10.139296097833023"><ele>239.39999999999998</ele><time>2026-05-03T08:31:46.793Z</time></trkpt><trkpt lat="44.167691642561394" lon="10.13916758896213"><ele>239.2</ele><time>2026-05-03T08:31:47.793Z</time></trkpt><trkpt lat="44.16769146279923" lon="10.139010000582559"><ele>239.0</ele><time>2026-05-03T08:31:48.793Z</time></trkpt><trkpt lat="44.16772209750551" lon="10.138838705307652"><ele>239.0</ele><time>2026-05-03T08:31:49.793Z</time></trkpt><trkpt lat="44.16777098595182" lon="10.138677439761397"><ele>239.0</ele><time>2026-05-03T08:31:50.793Z</time></trkpt><trkpt lat="44.16780681833072" lon="10.138530837049187"><ele>239.0</ele><time>2026-05-03T08:31:51.793Z</time></trkpt><trkpt lat="44.16781329426361" lon="10.138369440461997"><ele>239.0</ele><time>2026-05-03T08:31:52.793Z</time></trkpt><trkpt lat="44.16780950837592" lon="10.138215867485098"><ele>239.0</ele><time>2026-05-03T08:31:53.793Z</time></trkpt><trkpt lat="44.16777939788746" lon="10.13805305673025"><ele>239.0</ele><time>2026-05-03T08:31:54.793Z</time></trkpt><trkpt lat="44.16774740716171" lon="10.137873164405793"><ele>239.0</ele><time>2026-05-03T08:31:55.793Z</time></trkpt><trkpt lat="44.1676972162231" lon="10.137715455295858"><ele>239.0</ele><time>2026-05-03T08:31:56.793Z</time></trkpt><trkpt lat="44.16763302180146" lon="10.137563972960674"><ele>239.0</ele><time>2026-05-03T08:31:57.793Z</time></trkpt><trkpt lat="44.16756237018383" lon="10.137404518955766"><ele>239.0</ele><time>2026-05-03T08:31:58.793Z</time></trkpt><trkpt lat="44.16749684044798" lon="10.137254819825696"><ele>239.0</ele><time>2026-05-03T08:31:59.793Z</time></trkpt><trkpt lat="44.167433063342926" lon="10.137117081367522"><ele>239.0</ele><time>2026-05-03T08:32:00.793Z</time></trkpt><trkpt lat="44.16736177829645" lon="10.137007436527927"><ele>240.25</ele><time>2026-05-03T08:32:01.793Z</time></trkpt><trkpt lat="44.167279477293896" lon="10.13691828015794"><ele>241.5</ele><time>2026-05-03T08:32:02.793Z</time></trkpt><trkpt lat="44.16717360005878" lon="10.136831499486757"><ele>242.75</ele><time>2026-05-03T08:32:03.793Z</time></trkpt><trkpt lat="44.16704582399053" lon="10.13678792262458"><ele>244.0</ele><time>2026-05-03T08:32:04.793Z</time></trkpt><trkpt lat="44.166912201327754" lon="10.13680511186329"><ele>244.0</ele><time>2026-05-03T08:32:05.793Z</time></trkpt><trkpt lat="44.166784259278" lon="10.136830075122393"><ele>243.99999999999997</ele><time>2026-05-03T08:32:06.793Z</time></trkpt><trkpt lat="44.16667095902672" lon="10.136856377053382"><ele>243.99999999999997</ele><time>2026-05-03T08:32:07.793Z</time></trkpt><trkpt lat="44.16657122141373" lon="10.136869248739382"><ele>244.0</ele><time>2026-05-03T08:32:08.793Z</time></trkpt><trkpt lat="44.1664779337238" lon="10.1368681178598"><ele>244.0</ele><time>2026-05-03T08:32:09.793Z</time></trkpt><trkpt lat="44.16638694033209" lon="10.13684291629359"><ele>242.2</ele><time>2026-05-03T08:32:10.793Z</time></trkpt><trkpt lat="44.16630017410306" lon="10.136794392119752"><ele>240.39999999999998</ele><time>2026-05-03T08:32:11.793Z</time></trkpt><trkpt lat="44.16621489860585" lon="10.136723442001324"><ele>238.6</ele><time>2026-05-03T08:32:12.793Z</time></trkpt><trkpt lat="44.16613122415404" lon="10.136626645275934"><ele>236.8</ele><time>2026-05-03T08:32:13.793Z</time></trkpt><trkpt lat="44.166054265636454" lon="10.13649802087318"><ele>235.0</ele><time>2026-05-03T08:32:14.793Z</time></trkpt><trkpt lat="44.16597388964804" lon="10.13636169411045"><ele>235.0</ele><time>2026-05-03T08:32:15.793Z</time></trkpt><trkpt lat="44.165891041352054" lon="10.136227744753166"><ele>235.0</ele><time>2026-05-03T08:32:16.793Z</time></trkpt><trkpt lat="44.165807920152595" lon="10.136079411029714"><ele>235.0</ele><time>2026-05-03T08:32:17.793Z</time></trkpt><trkpt lat="44.16572487895256" lon="10.135948538906186"><ele>235.0</ele><time>2026-05-03T08:32:18.793Z</time></trkpt><trkpt lat="44.165645596327046" lon="10.135824973826605"><ele>233.2</ele><time>2026-05-03T08:32:19.793Z</time></trkpt><trkpt lat="44.16557841670612" lon="10.135702944091989"><ele>231.4</ele><time>2026-05-03T08:32:20.793Z</time></trkpt><trkpt lat="44.16551732270276" lon="10.135584851710057"><ele>229.60000000000002</ele><time>2026-05-03T08:32:21.793Z</time></trkpt><trkpt lat="44.16547274153487" lon="10.13544758904313"><ele>227.8</ele><time>2026-05-03T08:32:22.793Z</time></trkpt><trkpt lat="44.16543429391508" lon="10.135288654503892"><ele>226.0</ele><time>2026-05-03T08:32:23.793Z</time></trkpt><trkpt lat="44.16540704421107" lon="10.135122845753287"><ele>226.0</ele><time>2026-05-03T08:32:24.793Z</time></trkpt><trkpt lat="44.16538726814945" lon="10.134955614164449"><ele>226.0</ele><time>2026-05-03T08:32:25.793Z</time></trkpt><trkpt lat="44.1653642619666" lon="10.134793371185202"><ele>226.0</ele><time>2026-05-03T08:32:26.793Z</time></trkpt><trkpt lat="44.165339725341425" lon="10.13464413975565"><ele>226.0</ele><time>2026-05-03T08:32:27.793Z</time></trkpt><trkpt lat="44.16531176377754" lon="10.134500088664696"><ele>225.75</ele><time>2026-05-03T08:32:28.793Z</time></trkpt><trkpt lat="44.165287783221665" lon="10.134352226201804"><ele>225.5</ele><time>2026-05-03T08:32:29.792Z</time></trkpt><trkpt lat="44.16525574102784" lon="10.134195663662915"><ele>225.25</ele><time>2026-05-03T08:32:30.792Z</time></trkpt><trkpt lat="44.1652323000778" lon="10.13403536862035"><ele>225.0</ele><time>2026-05-03T08:32:31.792Z</time></trkpt><trkpt lat="44.16521520956555" lon="10.133873493691265"><ele>225.0</ele><time>2026-05-03T08:32:32.792Z</time></trkpt><trkpt lat="44.165193741888565" lon="10.133721755654877"><ele>225.0</ele><time>2026-05-03T08:32:33.792Z</time></trkpt><trkpt lat="44.16517365133566" lon="10.133594430021937"><ele>225.0</ele><time>2026-05-03T08:32:34.792Z</time></trkpt><trkpt lat="44.16515189639746" lon="10.133473907906074"><ele>225.0</ele><time>2026-05-03T08:32:35.792Z</time></trkpt><trkpt lat="44.165130756329226" lon="10.133349393163945"><ele>225.0</ele><time>2026-05-03T08:32:36.792Z</time></trkpt><trkpt lat="44.165108699409224" lon="10.133224067192225"><ele>225.16666666666666</ele><time>2026-05-03T08:32:37.792Z</time></trkpt><trkpt lat="44.16508887487296" lon="10.133108404274758"><ele>225.33333333333331</ele><time>2026-05-03T08:32:38.792Z</time></trkpt><trkpt lat="44.16506582404473" lon="10.132982040012582"><ele>225.5</ele><time>2026-05-03T08:32:39.792Z</time></trkpt><trkpt lat="44.165057043502784" lon="10.132863490529786"><ele>225.66666666666666</ele><time>2026-05-03T08:32:40.792Z</time></trkpt><trkpt lat="44.16506105825113" lon="10.132735056797166"><ele>225.83333333333331</ele><time>2026-05-03T08:32:41.792Z</time></trkpt><trkpt lat="44.16506380238364" lon="10.132614993280965"><ele>226.0</ele><time>2026-05-03T08:32:42.79Z</time></trkpt><trkpt lat="44.16505851015989" lon="10.13249641405913"><ele>225.83333333333331</ele><time>2026-05-03T08:32:43.79Z</time></trkpt><trkpt lat="44.16506356049679" lon="10.132381813274783"><ele>225.66666666666666</ele><time>2026-05-03T08:32:44.79Z</time></trkpt><trkpt lat="44.1650712164768" lon="10.13228215938649"><ele>225.5</ele><time>2026-05-03T08:32:45.79Z</time></trkpt><trkpt lat="44.16507688071667" lon="10.132170331806483"><ele>225.33333333333331</ele><time>2026-05-03T08:32:46.79Z</time></trkpt><trkpt lat="44.16508324646772" lon="10.132049866479248"><ele>225.16666666666666</ele><time>2026-05-03T08:32:47.79Z</time></trkpt><trkpt lat="44.16509356374581" lon="10.131923965886749"><ele>225.0</ele><time>2026-05-03T08:32:48.79Z</time></trkpt><trkpt lat="44.16510459440334" lon="10.131793933324929"><ele>225.0</ele><time>2026-05-03T08:32:49.79Z</time></trkpt><trkpt lat="44.16512306277966" lon="10.131661903401856"><ele>225.0</ele><time>2026-05-03T08:32:50.79Z</time></trkpt><trkpt lat="44.165121769023315" lon="10.131539291086279"><ele>225.0</ele><time>2026-05-03T08:32:51.79Z</time></trkpt><trkpt lat="44.16512509710182" lon="10.13141696284278"><ele>225.0</ele><time>2026-05-03T08:32:52.79Z</time></trkpt><trkpt lat="44.16514322572405" lon="10.131300716324917"><ele>225.0</ele><time>2026-05-03T08:32:53.79Z</time></trkpt><trkpt lat="44.165162273926725" lon="10.131183250829471"><ele>225.0</ele><time>2026-05-03T08:32:54.79Z</time></trkpt><trkpt lat="44.165163907649614" lon="10.131073045781726"><ele>224.5</ele><time>2026-05-03T08:32:55.79Z</time></trkpt><trkpt lat="44.16513993718779" lon="10.130971486594092"><ele>224.0</ele><time>2026-05-03T08:32:56.79Z</time></trkpt><trkpt lat="44.165182516313116" lon="10.130857577863885"><ele>223.5</ele><time>2026-05-03T08:32:57.79Z</time></trkpt><trkpt lat="44.16521951716015" lon="10.130757926119884"><ele>223.0</ele><time>2026-05-03T08:32:58.79Z</time></trkpt><trkpt lat="44.165259206241984" lon="10.130634931121634"><ele>222.5</ele><time>2026-05-03T08:32:59.79Z</time></trkpt><trkpt lat="44.165278734553205" lon="10.13050837391859"><ele>222.0</ele><time>2026-05-03T08:33:00.79Z</time></trkpt><trkpt lat="44.16529565412824" lon="10.130380978096145"><ele>221.2</ele><time>2026-05-03T08:33:01.79Z</time></trkpt><trkpt lat="44.16530970352388" lon="10.130259671394493"><ele>220.39999999999998</ele><time>2026-05-03T08:33:02.789Z</time></trkpt><trkpt lat="44.16533375693547" lon="10.130143066894409"><ele>219.60000000000002</ele><time>2026-05-03T08:33:03.789Z</time></trkpt><trkpt lat="44.165375951133996" lon="10.130022326784108"><ele>218.8</ele><time>2026-05-03T08:33:04.789Z</time></trkpt><trkpt lat="44.16542574964973" lon="10.129885773960842"><ele>218.0</ele><time>2026-05-03T08:33:05.789Z</time></trkpt><trkpt lat="44.16548741212204" lon="10.129748709528004"><ele>217.25</ele><time>2026-05-03T08:33:06.789Z</time></trkpt><trkpt lat="44.16555956846389" lon="10.129608412942249"><ele>216.5</ele><time>2026-05-03T08:33:07.789Z</time></trkpt><trkpt lat="44.16564158137017" lon="10.129446869174187"><ele>215.75</ele><time>2026-05-03T08:33:08.789Z</time></trkpt><trkpt lat="44.16571895647361" lon="10.129281554227527"><ele>215.0</ele><time>2026-05-03T08:33:09.789Z</time></trkpt><trkpt lat="44.16579215120876" lon="10.129134300059187"><ele>216.5</ele><time>2026-05-03T08:33:10.789Z</time></trkpt><trkpt lat="44.1658604227129" lon="10.129001800028112"><ele>218.0</ele><time>2026-05-03T08:33:11.789Z</time></trkpt><trkpt lat="44.165921890763975" lon="10.128875055833348"><ele>219.5</ele><time>2026-05-03T08:33:12.789Z</time></trkpt><trkpt lat="44.16597885646731" lon="10.128732807399622"><ele>221.0</ele><time>2026-05-03T08:33:13.789Z</time></trkpt><trkpt lat="44.16602556858165" lon="10.128567967940366"><ele>221.0</ele><time>2026-05-03T08:33:14.789Z</time></trkpt><trkpt lat="44.16606299053606" lon="10.128395743191847"><ele>221.0</ele><time>2026-05-03T08:33:15.789Z</time></trkpt><trkpt lat="44.16609503432884" lon="10.128227774598802"><ele>221.0</ele><time>2026-05-03T08:33:16.789Z</time></trkpt><trkpt lat="44.16611701408087" lon="10.128076794156845"><ele>221.0</ele><time>2026-05-03T08:33:17.789Z</time></trkpt><trkpt lat="44.16612362576295" lon="10.127928340058233"><ele>222.25</ele><time>2026-05-03T08:33:18.789Z</time></trkpt><trkpt lat="44.166094280266954" lon="10.127754527766342"><ele>223.5</ele><time>2026-05-03T08:33:19.789Z</time></trkpt><trkpt lat="44.16605329469123" lon="10.12757488179183"><ele>224.75</ele><time>2026-05-03T08:33:20.789Z</time></trkpt><trkpt lat="44.16600379235223" lon="10.127421431611829"><ele>226.0</ele><time>2026-05-03T08:33:21.789Z</time></trkpt><trkpt lat="44.165979708233905" lon="10.127305837167649"><ele>228.0</ele><time>2026-05-03T08:33:22.789Z</time></trkpt><trkpt lat="44.165929842619796" lon="10.127200718593137"><ele>230.00000000000003</ele><time>2026-05-03T08:33:23.789Z</time></trkpt><trkpt lat="44.16588055977725" lon="10.127074919307805"><ele>232.00000000000003</ele><time>2026-05-03T08:33:24.789Z</time></trkpt><trkpt lat="44.16586131644105" lon="10.126912260426884"><ele>234.0</ele><time>2026-05-03T08:33:25.789Z</time></trkpt><trkpt lat="44.16584910815992" lon="10.126726730341192"><ele>236.0</ele><time>2026-05-03T08:33:26.789Z</time></trkpt><trkpt lat="44.16583026173945" lon="10.126551888892779"><ele>236.0</ele><time>2026-05-03T08:33:27.789Z</time></trkpt><trkpt lat="44.16579660522913" lon="10.126381638268468"><ele>236.0</ele><time>2026-05-03T08:33:28.789Z</time></trkpt><trkpt lat="44.16577748003033" lon="10.126209471362156"><ele>236.0</ele><time>2026-05-03T08:33:29.789Z</time></trkpt><trkpt lat="44.16577059684017" lon="10.1260536199822"><ele>236.0</ele><time>2026-05-03T08:33:30.789Z</time></trkpt><trkpt lat="44.165765019731225" lon="10.12591670897683"><ele>236.0</ele><time>2026-05-03T08:33:31.789Z</time></trkpt><trkpt lat="44.16574045508732" lon="10.125761938591971"><ele>236.00000000000003</ele><time>2026-05-03T08:33:32.789Z</time></trkpt><trkpt lat="44.16572945147965" lon="10.125621587411263"><ele>236.00000000000003</ele><time>2026-05-03T08:33:33.789Z</time></trkpt><trkpt lat="44.16572516524177" lon="10.125485589065958"><ele>236.0</ele><time>2026-05-03T08:33:34.789Z</time></trkpt><trkpt lat="44.1657337297397" lon="10.125390469600005"><ele>236.0</ele><time>2026-05-03T08:33:35.789Z</time></trkpt><trkpt lat="44.165742261672406" lon="10.125274640044408"><ele>232.4</ele><time>2026-05-03T08:33:37.789Z</time></trkpt><trkpt lat="44.165736190737896" lon="10.125114346236836"><ele>228.8</ele><time>2026-05-03T08:33:40.789Z</time></trkpt><trkpt lat="44.16574513933449" lon="10.12498441049132"><ele>225.20000000000002</ele><time>2026-05-03T08:33:41.789Z</time></trkpt><trkpt lat="44.16576359813923" lon="10.124840920401402"><ele>221.60000000000002</ele><time>2026-05-03T08:33:42.789Z</time></trkpt><trkpt lat="44.165786126895064" lon="10.124720286016004"><ele>218.0</ele><time>2026-05-03T08:33:43.789Z</time></trkpt><trkpt lat="44.165805773560486" lon="10.124599535183126"><ele>216.8</ele><time>2026-05-03T08:33:44.789Z</time></trkpt><trkpt lat="44.165827968604226" lon="10.124478290608586"><ele>215.60000000000002</ele><time>2026-05-03T08:33:45.789Z</time></trkpt><trkpt lat="44.16586372653487" lon="10.124363774497233"><ele>214.39999999999998</ele><time>2026-05-03T08:33:46.789Z</time></trkpt><trkpt lat="44.16590757528764" lon="10.124245438864504"><ele>213.2</ele><time>2026-05-03T08:33:47.789Z</time></trkpt><trkpt lat="44.16596279530415" lon="10.124139294107556"><ele>212.0</ele><time>2026-05-03T08:33:48.789Z</time></trkpt><trkpt lat="44.16600717054552" lon="10.124018168729409"><ele>211.39999999999998</ele><time>2026-05-03T08:33:49.789Z</time></trkpt><trkpt lat="44.16605053030625" lon="10.123897405094926"><ele>210.79999999999998</ele><time>2026-05-03T08:33:50.789Z</time></trkpt><trkpt lat="44.16609385448581" lon="10.123773026919796"><ele>210.2</ele><time>2026-05-03T08:33:51.789Z</time></trkpt><trkpt lat="44.16614082495749" lon="10.12365570805287"><ele>209.6</ele><time>2026-05-03T08:33:52.789Z</time></trkpt><trkpt lat="44.16619935665374" lon="10.123541858993715"><ele>209.0</ele><time>2026-05-03T08:33:53.789Z</time></trkpt><trkpt lat="44.16624761656871" lon="10.123410406879932"><ele>209.0</ele><time>2026-05-03T08:33:54.789Z</time></trkpt><trkpt lat="44.16630996326845" lon="10.123282737696451"><ele>209.0</ele><time>2026-05-03T08:33:55.789Z</time></trkpt><trkpt lat="44.166392617745956" lon="10.123153330443316"><ele>209.0</ele><time>2026-05-03T08:33:56.789Z</time></trkpt><trkpt lat="44.16647873079705" lon="10.123011362223531"><ele>209.0</ele><time>2026-05-03T08:33:57.789Z</time></trkpt><trkpt lat="44.166550252471225" lon="10.122859609613764"><ele>209.75</ele><time>2026-05-03T08:33:58.789Z</time></trkpt><trkpt lat="44.1666232661994" lon="10.12272885238751"><ele>210.5</ele><time>2026-05-03T08:33:59.789Z</time></trkpt><trkpt lat="44.16669603027697" lon="10.122575126629023"><ele>211.25</ele><time>2026-05-03T08:34:00.789Z</time></trkpt><trkpt lat="44.16676380162137" lon="10.122430314243255"><ele>212.0</ele><time>2026-05-03T08:34:01.789Z</time></trkpt><trkpt lat="44.166827917966046" lon="10.122309059824612"><ele>210.6</ele><time>2026-05-03T08:34:02.789Z</time></trkpt><trkpt lat="44.16689649462988" lon="10.122203283233219"><ele>209.2</ele><time>2026-05-03T08:34:03.789Z</time></trkpt><trkpt lat="44.16696987287102" lon="10.122140801574407"><ele>207.8</ele><time>2026-05-03T08:34:04.789Z</time></trkpt><trkpt lat="44.16704235309496" lon="10.122127112252603"><ele>206.4</ele><time>2026-05-03T08:34:05.789Z</time></trkpt><trkpt lat="44.16712728583019" lon="10.122131684143369"><ele>205.0</ele><time>2026-05-03T08:34:06.789Z</time></trkpt><trkpt lat="44.16722991849728" lon="10.122183221892708"><ele>205.0</ele><time>2026-05-03T08:34:07.789Z</time></trkpt><trkpt lat="44.167326744930456" lon="10.12221746189142"><ele>205.0</ele><time>2026-05-03T08:34:08.789Z</time></trkpt><trkpt lat="44.16744105461872" lon="10.122190777316707"><ele>205.0</ele><time>2026-05-03T08:34:09.789Z</time></trkpt><trkpt lat="44.167600483869705" lon="10.122097224569155"><ele>205.0</ele><time>2026-05-03T08:34:10.789Z</time></trkpt><trkpt lat="44.16778966252928" lon="10.121966619506672"><ele>205.33333333333331</ele><time>2026-05-03T08:34:11.789Z</time></trkpt><trkpt lat="44.167974267734586" lon="10.121852857478489"><ele>205.66666666666669</ele><time>2026-05-03T08:34:12.788Z</time></trkpt><trkpt lat="44.16813116570724" lon="10.121763738050483"><ele>206.0</ele><time>2026-05-03T08:34:13.788Z</time></trkpt><trkpt lat="44.16827664627702" lon="10.121692866197401"><ele>205.0</ele><time>2026-05-03T08:34:14.788Z</time></trkpt><trkpt lat="44.16840882193065" lon="10.121618186050627"><ele>204.0</ele><time>2026-05-03T08:34:15.788Z</time></trkpt><trkpt lat="44.16853858507087" lon="10.121562293679068"><ele>203.0</ele><time>2026-05-03T08:34:16.788Z</time></trkpt><trkpt lat="44.16867289928158" lon="10.121512466995826"><ele>202.0</ele><time>2026-05-03T08:34:17.788Z</time></trkpt><trkpt lat="44.168818366611426" lon="10.121465606894173"><ele>202.0</ele><time>2026-05-03T08:34:18.788Z</time></trkpt><trkpt lat="44.168967512828516" lon="10.121453064021127"><ele>202.0</ele><time>2026-05-03T08:34:19.788Z</time></trkpt><trkpt lat="44.169099515666815" lon="10.121441023416482"><ele>202.0</ele><time>2026-05-03T08:34:20.788Z</time></trkpt><trkpt lat="44.16921584340682" lon="10.121429089183161"><ele>202.0</ele><time>2026-05-03T08:34:21.788Z</time></trkpt><trkpt lat="44.16932757369266" lon="10.12142131425351"><ele>202.2</ele><time>2026-05-03T08:34:22.788Z</time></trkpt><trkpt lat="44.16941575178461" lon="10.121401828301755"><ele>202.39999999999998</ele><time>2026-05-03T08:34:23.788Z</time></trkpt><trkpt lat="44.16949712794347" lon="10.121375615503089"><ele>202.60000000000002</ele><time>2026-05-03T08:34:24.788Z</time></trkpt><trkpt lat="44.16957073985292" lon="10.121310691443835"><ele>202.8</ele><time>2026-05-03T08:34:25.788Z</time></trkpt><trkpt lat="44.16962407038087" lon="10.121195874660573"><ele>203.0</ele><time>2026-05-03T08:34:26.788Z</time></trkpt><trkpt lat="44.169680288402645" lon="10.12103606387245"><ele>203.0</ele><time>2026-05-03T08:34:27.788Z</time></trkpt><trkpt lat="44.169734773803306" lon="10.120864623052093"><ele>203.0</ele><time>2026-05-03T08:34:28.788Z</time></trkpt><trkpt lat="44.169771281992986" lon="10.120696152067366"><ele>203.0</ele><time>2026-05-03T08:34:29.788Z</time></trkpt><trkpt lat="44.16978891755889" lon="10.12054539703952"><ele>203.0</ele><time>2026-05-03T08:34:30.788Z</time></trkpt><trkpt lat="44.169779045665194" lon="10.12038038982355"><ele>203.60000000000002</ele><time>2026-05-03T08:34:31.788Z</time></trkpt><trkpt lat="44.16975780267076" lon="10.120213426377344"><ele>204.20000000000002</ele><time>2026-05-03T08:34:32.788Z</time></trkpt><trkpt lat="44.16973782134727" lon="10.12006396120128"><ele>204.8</ele><time>2026-05-03T08:34:33.788Z</time></trkpt><trkpt lat="44.16973563511018" lon="10.119921518863801"><ele>205.4</ele><time>2026-05-03T08:34:34.788Z</time></trkpt><trkpt lat="44.16973268365495" lon="10.119774519507942"><ele>206.0</ele><time>2026-05-03T08:34:35.788Z</time></trkpt><trkpt lat="44.169779123131164" lon="10.119619979048192"><ele>205.25</ele><time>2026-05-03T08:34:36.788Z</time></trkpt><trkpt lat="44.16984752624448" lon="10.119464433443602"><ele>204.5</ele><time>2026-05-03T08:34:37.788Z</time></trkpt><trkpt lat="44.16992890212197" lon="10.119296247538157"><ele>203.75</ele><time>2026-05-03T08:34:38.788Z</time></trkpt><trkpt lat="44.17001465618976" lon="10.119097696574531"><ele>203.0</ele><time>2026-05-03T08:34:39.788Z</time></trkpt><trkpt lat="44.170097223027085" lon="10.118923292552315"><ele>202.75</ele><time>2026-05-03T08:34:40.788Z</time></trkpt><trkpt lat="44.17017444850351" lon="10.118758723416175"><ele>202.5</ele><time>2026-05-03T08:34:41.788Z</time></trkpt><trkpt lat="44.17025514368401" lon="10.118607385787548"><ele>202.25</ele><time>2026-05-03T08:34:42.788Z</time></trkpt><trkpt lat="44.17033773910926" lon="10.118457081496585"><ele>202.0</ele><time>2026-05-03T08:34:43.788Z</time></trkpt><trkpt lat="44.170424422231655" lon="10.118317145188099"><ele>203.75</ele><time>2026-05-03T08:34:44.788Z</time></trkpt><trkpt lat="44.17050081895739" lon="10.118172694872463"><ele>205.5</ele><time>2026-05-03T08:34:45.788Z</time></trkpt><trkpt lat="44.17057131995882" lon="10.118014866878502"><ele>207.25</ele><time>2026-05-03T08:34:46.788Z</time></trkpt><trkpt lat="44.17063527075806" lon="10.117851359493487"><ele>209.0</ele><time>2026-05-03T08:34:47.788Z</time></trkpt><trkpt lat="44.17068991743135" lon="10.117669243193104"><ele>208.0</ele><time>2026-05-03T08:34:48.786Z</time></trkpt><trkpt lat="44.17073137598127" lon="10.117465834517748"><ele>207.0</ele><time>2026-05-03T08:34:49.787Z</time></trkpt><trkpt lat="44.17076609292896" lon="10.117268963620713"><ele>206.0</ele><time>2026-05-03T08:34:50.787Z</time></trkpt><trkpt lat="44.17080230373775" lon="10.117057165077936"><ele>206.0</ele><time>2026-05-03T08:34:51.786Z</time></trkpt><trkpt lat="44.17082959791879" lon="10.116851182928341"><ele>206.0</ele><time>2026-05-03T08:34:52.786Z</time></trkpt><trkpt lat="44.17084743432049" lon="10.116629056814402"><ele>206.0</ele><time>2026-05-03T08:34:53.786Z</time></trkpt><trkpt lat="44.170861938212994" lon="10.116420991563892"><ele>204.75</ele><time>2026-05-03T08:34:54.786Z</time></trkpt><trkpt lat="44.17087493389133" lon="10.11622832637572"><ele>203.5</ele><time>2026-05-03T08:34:55.786Z</time></trkpt><trkpt lat="44.17088803206035" lon="10.116052444449947"><ele>202.25</ele><time>2026-05-03T08:34:56.786Z</time></trkpt><trkpt lat="44.17090630123022" lon="10.11589910680627"><ele>201.0</ele><time>2026-05-03T08:34:57.785Z</time></trkpt><trkpt lat="44.17094269923965" lon="10.115741345286352"><ele>200.75</ele><time>2026-05-03T08:34:58.786Z</time></trkpt><trkpt lat="44.171007312386976" lon="10.115601470256992"><ele>200.5</ele><time>2026-05-03T08:34:59.786Z</time></trkpt><trkpt lat="44.1710848262399" lon="10.115476913397762"><ele>200.25</ele><time>2026-05-03T08:35:00.786Z</time></trkpt><trkpt lat="44.17117826884774" lon="10.11536810505278"><ele>200.0</ele><time>2026-05-03T08:35:01.785Z</time></trkpt><trkpt lat="44.171283068810716" lon="10.115284176557976"><ele>200.0</ele><time>2026-05-03T08:35:02.785Z</time></trkpt><trkpt lat="44.17139236454334" lon="10.115208478979985"><ele>200.0</ele><time>2026-05-03T08:35:03.785Z</time></trkpt><trkpt lat="44.171514043308775" lon="10.115163281449227"><ele>200.0</ele><time>2026-05-03T08:35:04.785Z</time></trkpt><trkpt lat="44.17164665156233" lon="10.11513958906943"><ele>200.0</ele><time>2026-05-03T08:35:05.785Z</time></trkpt><trkpt lat="44.17179432035442" lon="10.115146214693713"><ele>199.25</ele><time>2026-05-03T08:35:06.785Z</time></trkpt><trkpt lat="44.17194406081496" lon="10.115148972266745"><ele>198.5</ele><time>2026-05-03T08:35:07.785Z</time></trkpt><trkpt lat="44.172083873369836" lon="10.115159507097248"><ele>197.75</ele><time>2026-05-03T08:35:08.785Z</time></trkpt><trkpt lat="44.1722179020345" lon="10.1152122782182"><ele>197.0</ele><time>2026-05-03T08:35:09.785Z</time></trkpt><trkpt lat="44.17236228415686" lon="10.115291718953449"><ele>196.75</ele><time>2026-05-03T08:35:10.785Z</time></trkpt><trkpt lat="44.17249029738756" lon="10.115374868521421"><ele>196.5</ele><time>2026-05-03T08:35:11.785Z</time></trkpt><trkpt lat="44.172614806064644" lon="10.115450914550356"><ele>196.25</ele><time>2026-05-03T08:35:12.785Z</time></trkpt><trkpt lat="44.172732838047445" lon="10.115502688796283"><ele>196.0</ele><time>2026-05-03T08:35:13.785Z</time></trkpt><trkpt lat="44.17285868762891" lon="10.11551243275026"><ele>196.0</ele><time>2026-05-03T08:35:14.785Z</time></trkpt><trkpt lat="44.17299555274319" lon="10.115515566333677"><ele>196.0</ele><time>2026-05-03T08:35:15.785Z</time></trkpt><trkpt lat="44.17313147618927" lon="10.11552611401347"><ele>196.0</ele><time>2026-05-03T08:35:16.785Z</time></trkpt><trkpt lat="44.173262531377404" lon="10.11556958467178"><ele>196.0</ele><time>2026-05-03T08:35:17.785Z</time></trkpt><trkpt lat="44.17338215401879" lon="10.115646210672686"><ele>197.25</ele><time>2026-05-03T08:35:18.785Z</time></trkpt><trkpt lat="44.17350188894136" lon="10.115716288072582"><ele>198.5</ele><time>2026-05-03T08:35:19.785Z</time></trkpt><trkpt lat="44.173630484406665" lon="10.115740452425252"><ele>199.75</ele><time>2026-05-03T08:35:20.785Z</time></trkpt><trkpt lat="44.173768714949055" lon="10.115737035035346"><ele>201.0</ele><time>2026-05-03T08:35:21.785Z</time></trkpt><trkpt lat="44.17391243221955" lon="10.115731543065294"><ele>200.5</ele><time>2026-05-03T08:35:22.785Z</time></trkpt><trkpt lat="44.17404921258721" lon="10.115743968353742"><ele>200.0</ele><time>2026-05-03T08:35:23.785Z</time></trkpt><trkpt lat="44.17418487733876" lon="10.115775894513128"><ele>199.5</ele><time>2026-05-03T08:35:24.785Z</time></trkpt><trkpt lat="44.17431836080648" lon="10.115806180233395"><ele>199.0</ele><time>2026-05-03T08:35:25.785Z</time></trkpt><trkpt lat="44.1744537713898" lon="10.115794127455834"><ele>196.5</ele><time>2026-05-03T08:35:26.785Z</time></trkpt><trkpt lat="44.17458990488365" lon="10.115733602389884"><ele>194.0</ele><time>2026-05-03T08:35:27.785Z</time></trkpt><trkpt lat="44.17470115725958" lon="10.115630891811554"><ele>191.5</ele><time>2026-05-03T08:35:28.785Z</time></trkpt><trkpt lat="44.17479779954186" lon="10.115529336986295"><ele>189.0</ele><time>2026-05-03T08:35:29.785Z</time></trkpt><trkpt lat="44.17489866344723" lon="10.115448379999073"><ele>188.5</ele><time>2026-05-03T08:35:30.785Z</time></trkpt><trkpt lat="44.175020185724264" lon="10.115408341884187"><ele>188.0</ele><time>2026-05-03T08:35:31.785Z</time></trkpt><trkpt lat="44.175155980197125" lon="10.115408243028977"><ele>187.5</ele><time>2026-05-03T08:35:32.785Z</time></trkpt><trkpt lat="44.175292369719074" lon="10.115393041439718"><ele>187.0</ele><time>2026-05-03T08:35:33.785Z</time></trkpt><trkpt lat="44.1754093435869" lon="10.11531825027349"><ele>187.0</ele><time>2026-05-03T08:35:34.785Z</time></trkpt><trkpt lat="44.17553438308254" lon="10.115192979433818"><ele>187.0</ele><time>2026-05-03T08:35:35.785Z</time></trkpt><trkpt lat="44.17565156795814" lon="10.11506719001548"><ele>187.0</ele><time>2026-05-03T08:35:36.785Z</time></trkpt><trkpt lat="44.17575570806256" lon="10.114944155090408"><ele>187.0</ele><time>2026-05-03T08:35:37.785Z</time></trkpt><trkpt lat="44.17585308439273" lon="10.114800458054745"><ele>186.25</ele><time>2026-05-03T08:35:38.785Z</time></trkpt><trkpt lat="44.17595124815985" lon="10.11466436129547"><ele>185.5</ele><time>2026-05-03T08:35:39.785Z</time></trkpt><trkpt lat="44.17603988780533" lon="10.114544834804704"><ele>184.75</ele><time>2026-05-03T08:35:40.785Z</time></trkpt><trkpt lat="44.17614204883275" lon="10.1144509852907"><ele>184.0</ele><time>2026-05-03T08:35:41.785Z</time></trkpt><trkpt lat="44.17626498514717" lon="10.114375509765798"><ele>184.0</ele><time>2026-05-03T08:35:42.785Z</time></trkpt><trkpt lat="44.17639792966724" lon="10.11431458597531"><ele>184.0</ele><time>2026-05-03T08:35:43.785Z</time></trkpt><trkpt lat="44.17653669308322" lon="10.114270522944878"><ele>184.0</ele><time>2026-05-03T08:35:44.785Z</time></trkpt><trkpt lat="44.17667059822827" lon="10.114227387984668"><ele>184.0</ele><time>2026-05-03T08:35:45.785Z</time></trkpt><trkpt lat="44.17679844475997" lon="10.11415931344382"><ele>185.0</ele><time>2026-05-03T08:35:46.785Z</time></trkpt><trkpt lat="44.17691491779153" lon="10.11412231531291"><ele>186.0</ele><time>2026-05-03T08:35:47.785Z</time></trkpt><trkpt lat="44.17704296461243" lon="10.114117419644158"><ele>187.0</ele><time>2026-05-03T08:35:48.785Z</time></trkpt><trkpt lat="44.17718662559658" lon="10.114142364137209"><ele>188.0</ele><time>2026-05-03T08:35:49.785Z</time></trkpt><trkpt lat="44.17734009120887" lon="10.1142002163748"><ele>187.5</ele><time>2026-05-03T08:35:50.785Z</time></trkpt><trkpt lat="44.177478220688954" lon="10.114304599152659"><ele>187.0</ele><time>2026-05-03T08:35:51.785Z</time></trkpt><trkpt lat="44.17759473469579" lon="10.114425903183058"><ele>186.5</ele><time>2026-05-03T08:35:52.785Z</time></trkpt><trkpt lat="44.17770609698195" lon="10.114553085469533"><ele>186.0</ele><time>2026-05-03T08:35:53.785Z</time></trkpt><trkpt lat="44.177808169013325" lon="10.114676885015133"><ele>186.0</ele><time>2026-05-03T08:35:54.785Z</time></trkpt><trkpt lat="44.17790023642542" lon="10.11478671839781"><ele>186.0</ele><time>2026-05-03T08:35:55.785Z</time></trkpt><trkpt lat="44.17799109740709" lon="10.114881453242514"><ele>186.0</ele><time>2026-05-03T08:35:56.785Z</time></trkpt><trkpt lat="44.17808237537187" lon="10.114972458300674"><ele>186.0</ele><time>2026-05-03T08:35:57.785Z</time></trkpt><trkpt lat="44.178178793439315" lon="10.115050219466125"><ele>185.25</ele><time>2026-05-03T08:35:58.785Z</time></trkpt><trkpt lat="44.17828082520916" lon="10.11512495510204"><ele>184.5</ele><time>2026-05-03T08:35:59.785Z</time></trkpt><trkpt lat="44.17838477518747" lon="10.115191881536633"><ele>183.75</ele><time>2026-05-03T08:36:00.785Z</time></trkpt><trkpt lat="44.178502009833636" lon="10.115227975462224"><ele>183.0</ele><time>2026-05-03T08:36:01.784Z</time></trkpt><trkpt lat="44.17861878555039" lon="10.115237945835776"><ele>183.0</ele><time>2026-05-03T08:36:02.784Z</time></trkpt><trkpt lat="44.1787404617192" lon="10.115217714149649"><ele>183.0</ele><time>2026-05-03T08:36:03.784Z</time></trkpt><trkpt lat="44.17886249498398" lon="10.115182692979513"><ele>183.0</ele><time>2026-05-03T08:36:04.784Z</time></trkpt><trkpt lat="44.17898713492999" lon="10.115147171420645"><ele>183.0</ele><time>2026-05-03T08:36:05.784Z</time></trkpt><trkpt lat="44.17910225549997" lon="10.115117120321655"><ele>182.60000000000002</ele><time>2026-05-03T08:36:06.784Z</time></trkpt><trkpt lat="44.17920812272657" lon="10.115087505388972"><ele>182.20000000000002</ele><time>2026-05-03T08:36:07.784Z</time></trkpt><trkpt lat="44.1792999434795" lon="10.115051150219998"><ele>181.8</ele><time>2026-05-03T08:36:08.784Z</time></trkpt><trkpt lat="44.17937942806186" lon="10.114984625666612"><ele>181.4</ele><time>2026-05-03T08:36:09.784Z</time></trkpt><trkpt lat="44.179459414020165" lon="10.114887279195099"><ele>181.0</ele><time>2026-05-03T08:36:10.784Z</time></trkpt><trkpt lat="44.17953033922667" lon="10.114752915689007"><ele>180.0</ele><time>2026-05-03T08:36:11.784Z</time></trkpt><trkpt lat="44.17959109141836" lon="10.114596528843373"><ele>179.0</ele><time>2026-05-03T08:36:12.784Z</time></trkpt><trkpt lat="44.17965331522722" lon="10.114438243189186"><ele>178.0</ele><time>2026-05-03T08:36:13.784Z</time></trkpt><trkpt lat="44.179704736923206" lon="10.114271411097723"><ele>177.0</ele><time>2026-05-03T08:36:14.784Z</time></trkpt><trkpt lat="44.1797506137373" lon="10.114100140260437"><ele>177.0</ele><time>2026-05-03T08:36:15.784Z</time></trkpt><trkpt lat="44.17979230505343" lon="10.113921510034823"><ele>177.0</ele><time>2026-05-03T08:36:16.784Z</time></trkpt><trkpt lat="44.1798444186852" lon="10.113747052997141"><ele>177.0</ele><time>2026-05-03T08:36:17.784Z</time></trkpt><trkpt lat="44.17989590371391" lon="10.113575151684666"><ele>177.0</ele><time>2026-05-03T08:36:18.784Z</time></trkpt><trkpt lat="44.17994659582968" lon="10.113407951065575"><ele>177.0</ele><time>2026-05-03T08:36:19.784Z</time></trkpt><trkpt lat="44.17999245001317" lon="10.113255193213226"><ele>177.0</ele><time>2026-05-03T08:36:20.784Z</time></trkpt><trkpt lat="44.18003662052988" lon="10.11312121666508"><ele>177.0</ele><time>2026-05-03T08:36:21.784Z</time></trkpt><trkpt lat="44.18008241229877" lon="10.112993759147074"><ele>177.0</ele><time>2026-05-03T08:36:22.784Z</time></trkpt><trkpt lat="44.18012970130825" lon="10.112877840718753"><ele>177.0</ele><time>2026-05-03T08:36:23.784Z</time></trkpt><trkpt lat="44.180195542898794" lon="10.112787650731438"><ele>176.8</ele><time>2026-05-03T08:36:24.784Z</time></trkpt><trkpt lat="44.18028226527832" lon="10.112729043952834"><ele>176.6</ele><time>2026-05-03T08:36:25.784Z</time></trkpt><trkpt lat="44.18037114737244" lon="10.112697986109296"><ele>176.4</ele><time>2026-05-03T08:36:26.784Z</time></trkpt><trkpt lat="44.18046959249129" lon="10.11268157281013"><ele>176.20000000000002</ele><time>2026-05-03T08:36:27.784Z</time></trkpt><trkpt lat="44.18058362568177" lon="10.112699402855256"><ele>176.0</ele><time>2026-05-03T08:36:28.784Z</time></trkpt><trkpt lat="44.180701554067305" lon="10.112737002087984"><ele>175.0</ele><time>2026-05-03T08:36:29.784Z</time></trkpt><trkpt lat="44.180820183901325" lon="10.112782578943989"><ele>174.0</ele><time>2026-05-03T08:36:30.784Z</time></trkpt><trkpt lat="44.18093101525375" lon="10.112840512773694"><ele>173.0</ele><time>2026-05-03T08:36:31.784Z</time></trkpt><trkpt lat="44.18103760943887" lon="10.112915163828346"><ele>172.0</ele><time>2026-05-03T08:36:32.784Z</time></trkpt><trkpt lat="44.18114249499057" lon="10.11300467832354"><ele>172.0</ele><time>2026-05-03T08:36:33.784Z</time></trkpt><trkpt lat="44.181248001409465" lon="10.113101052369673"><ele>172.0</ele><time>2026-05-03T08:36:34.784Z</time></trkpt><trkpt lat="44.181352603455515" lon="10.113201725308894"><ele>172.0</ele><time>2026-05-03T08:36:35.784Z</time></trkpt><trkpt lat="44.18146320930267" lon="10.113300303724046"><ele>172.0</ele><time>2026-05-03T08:36:36.784Z</time></trkpt><trkpt lat="44.18157345185669" lon="10.11340080620285"><ele>172.0</ele><time>2026-05-03T08:36:37.784Z</time></trkpt><trkpt lat="44.181685790353896" lon="10.113508885619636"><ele>172.0</ele><time>2026-05-03T08:36:38.784Z</time></trkpt><trkpt lat="44.1817991487654" lon="10.113606527453049"><ele>172.0</ele><time>2026-05-03T08:36:39.784Z</time></trkpt><trkpt lat="44.18191211530102" lon="10.113695979782836"><ele>172.0</ele><time>2026-05-03T08:36:40.784Z</time></trkpt><trkpt lat="44.182026519352505" lon="10.113765701369555"><ele>172.0</ele><time>2026-05-03T08:36:41.784Z</time></trkpt><trkpt lat="44.182139947990315" lon="10.113816354655402"><ele>172.0</ele><time>2026-05-03T08:36:42.784Z</time></trkpt><trkpt lat="44.182245232706606" lon="10.113869454284668"><ele>172.0</ele><time>2026-05-03T08:36:43.784Z</time></trkpt><trkpt lat="44.18237624946901" lon="10.113886471931261"><ele>172.0</ele><time>2026-05-03T08:36:44.784Z</time></trkpt><trkpt lat="44.18249631597155" lon="10.113907293912202"><ele>172.75</ele><time>2026-05-03T08:36:45.784Z</time></trkpt><trkpt lat="44.18261672425201" lon="10.113928778609608"><ele>173.5</ele><time>2026-05-03T08:36:46.784Z</time></trkpt><trkpt lat="44.1827252006472" lon="10.113942539324068"><ele>174.25</ele><time>2026-05-03T08:36:47.784Z</time></trkpt><trkpt lat="44.18283668129869" lon="10.113948389819402"><ele>175.0</ele><time>2026-05-03T08:36:48.784Z</time></trkpt><trkpt lat="44.18295189308271" lon="10.113957049486359"><ele>175.0</ele><time>2026-05-03T08:36:49.784Z</time></trkpt><trkpt lat="44.18308867778263" lon="10.11396070352021"><ele>175.0</ele><time>2026-05-03T08:36:50.784Z</time></trkpt><trkpt lat="44.18323024442161" lon="10.113945873685184"><ele>175.0</ele><time>2026-05-03T08:36:51.784Z</time></trkpt><trkpt lat="44.183376307301614" lon="10.113910353264737"><ele>175.0</ele><time>2026-05-03T08:36:52.784Z</time></trkpt><trkpt lat="44.18352110158922" lon="10.113874149510698"><ele>175.0</ele><time>2026-05-03T08:36:53.784Z</time></trkpt><trkpt lat="44.183661025141895" lon="10.113838213528298"><ele>175.0</ele><time>2026-05-03T08:36:54.782Z</time></trkpt><trkpt lat="44.18379920072624" lon="10.113806777396896"><ele>175.0</ele><time>2026-05-03T08:36:55.782Z</time></trkpt><trkpt lat="44.18392923202516" lon="10.113774451107894"><ele>175.0</ele><time>2026-05-03T08:36:56.782Z</time></trkpt><trkpt lat="44.184042315669885" lon="10.113736358732185"><ele>175.0</ele><time>2026-05-03T08:36:57.782Z</time></trkpt><trkpt lat="44.184149629965646" lon="10.113681860328368"><ele>175.0</ele><time>2026-05-03T08:36:58.783Z</time></trkpt><trkpt lat="44.18425899885746" lon="10.11359007152969"><ele>175.0</ele><time>2026-05-03T08:36:59.783Z</time></trkpt><trkpt lat="44.184361425720475" lon="10.11346668915092"><ele>175.0</ele><time>2026-05-03T08:37:00.782Z</time></trkpt><trkpt lat="44.18445544606943" lon="10.11329582741392"><ele>173.33333333333334</ele><time>2026-05-03T08:37:01.782Z</time></trkpt><trkpt lat="44.184570338131486" lon="10.113069110529532"><ele>171.66666666666666</ele><time>2026-05-03T08:37:02.782Z</time></trkpt><trkpt lat="44.18470984765902" lon="10.112812231362566"><ele>170.0</ele><time>2026-05-03T08:37:03.782Z</time></trkpt><trkpt lat="44.184843808669" lon="10.112558302334016"><ele>171.0</ele><time>2026-05-03T08:37:04.782Z</time></trkpt><trkpt lat="44.184956451730365" lon="10.112334354284384"><ele>172.0</ele><time>2026-05-03T08:37:05.782Z</time></trkpt><trkpt lat="44.18507278658882" lon="10.112151893335929"><ele>173.0</ele><time>2026-05-03T08:37:06.782Z</time></trkpt><trkpt lat="44.185174702062" lon="10.111992307981826"><ele>173.0</ele><time>2026-05-03T08:37:07.782Z</time></trkpt><trkpt lat="44.18527488963532" lon="10.111873210348381"><ele>173.0</ele><time>2026-05-03T08:37:08.782Z</time></trkpt><trkpt lat="44.185378783607355" lon="10.111802382423924"><ele>173.0</ele><time>2026-05-03T08:37:09.782Z</time></trkpt><trkpt lat="44.18548822299705" lon="10.111756626971713"><ele>173.0</ele><time>2026-05-03T08:37:10.782Z</time></trkpt><trkpt lat="44.18561365092935" lon="10.111696628961782"><ele>172.5</ele><time>2026-05-03T08:37:11.782Z</time></trkpt><trkpt lat="44.185746466098635" lon="10.111644287399399"><ele>172.0</ele><time>2026-05-03T08:37:12.782Z</time></trkpt><trkpt lat="44.18587778827126" lon="10.11158020199388"><ele>171.5</ele><time>2026-05-03T08:37:13.782Z</time></trkpt><trkpt lat="44.18599620173881" lon="10.111458416546244"><ele>171.0</ele><time>2026-05-03T08:37:14.782Z</time></trkpt><trkpt lat="44.186116614899795" lon="10.111312078786217"><ele>171.0</ele><time>2026-05-03T08:37:15.782Z</time></trkpt><trkpt lat="44.18624312947581" lon="10.111149897037745"><ele>171.0</ele><time>2026-05-03T08:37:16.782Z</time></trkpt><trkpt lat="44.186380964562034" lon="10.110990931201624"><ele>171.0</ele><time>2026-05-03T08:37:17.782Z</time></trkpt><trkpt lat="44.18650970914203" lon="10.110826502977934"><ele>170.75</ele><time>2026-05-03T08:37:18.782Z</time></trkpt><trkpt lat="44.1866314639272" lon="10.110683742441402"><ele>170.5</ele><time>2026-05-03T08:37:19.782Z</time></trkpt><trkpt lat="44.186743704335676" lon="10.110571387797672"><ele>170.25</ele><time>2026-05-03T08:37:20.782Z</time></trkpt><trkpt lat="44.18685753677184" lon="10.110461615237972"><ele>170.0</ele><time>2026-05-03T08:37:21.782Z</time></trkpt><trkpt lat="44.18698202393741" lon="10.110363605080266"><ele>170.0</ele><time>2026-05-03T08:37:22.782Z</time></trkpt><trkpt lat="44.18711044240875" lon="10.110266457192107"><ele>170.0</ele><time>2026-05-03T08:37:23.782Z</time></trkpt><trkpt lat="44.18723736199306" lon="10.110176059138157"><ele>170.0</ele><time>2026-05-03T08:37:24.782Z</time></trkpt><trkpt lat="44.18735486256835" lon="10.110098014016666"><ele>170.0</ele><time>2026-05-03T08:37:25.782Z</time></trkpt><trkpt lat="44.18745776695364" lon="10.110020135486254"><ele>169.5</ele><time>2026-05-03T08:37:26.782Z</time></trkpt><trkpt lat="44.18755252102347" lon="10.109941108792507"><ele>169.0</ele><time>2026-05-03T08:37:27.782Z</time></trkpt><trkpt lat="44.18763644575005" lon="10.109819396656158"><ele>168.5</ele><time>2026-05-03T08:37:28.782Z</time></trkpt><trkpt lat="44.187700962079134" lon="10.10966682758917"><ele>168.0</ele><time>2026-05-03T08:37:29.782Z</time></trkpt><trkpt lat="44.18775164211869" lon="10.109506623338813"><ele>168.0</ele><time>2026-05-03T08:37:30.782Z</time></trkpt><trkpt lat="44.18781173762844" lon="10.109363640594973"><ele>168.0</ele><time>2026-05-03T08:37:31.782Z</time></trkpt><trkpt lat="44.18788269613367" lon="10.109227576081274"><ele>168.0</ele><time>2026-05-03T08:37:32.782Z</time></trkpt><trkpt lat="44.187961499418165" lon="10.109119417212222"><ele>168.0</ele><time>2026-05-03T08:37:33.782Z</time></trkpt><trkpt lat="44.188051610825745" lon="10.109039106509735"><ele>167.5</ele><time>2026-05-03T08:37:34.782Z</time></trkpt><trkpt lat="44.18813916019143" lon="10.108984561367937"><ele>167.0</ele><time>2026-05-03T08:37:35.782Z</time></trkpt><trkpt lat="44.188243225707645" lon="10.108961558131023"><ele>166.5</ele><time>2026-05-03T08:37:36.782Z</time></trkpt><trkpt lat="44.18834957485095" lon="10.108903684750775"><ele>166.0</ele><time>2026-05-03T08:37:37.782Z</time></trkpt><trkpt lat="44.18848967469888" lon="10.108892657573392"><ele>166.0</ele><time>2026-05-03T08:37:38.782Z</time></trkpt><trkpt lat="44.188641625173915" lon="10.108899257979077"><ele>166.0</ele><time>2026-05-03T08:37:39.782Z</time></trkpt><trkpt lat="44.18879580919453" lon="10.108892540019117"><ele>166.0</ele><time>2026-05-03T08:37:40.782Z</time></trkpt><trkpt lat="44.188938158268705" lon="10.108874567317685"><ele>166.0</ele><time>2026-05-03T08:37:41.782Z</time></trkpt><trkpt lat="44.189076543908946" lon="10.108865026109838"><ele>166.0</ele><time>2026-05-03T08:37:42.782Z</time></trkpt><trkpt lat="44.189210608996504" lon="10.108858336311181"><ele>166.0</ele><time>2026-05-03T08:37:43.782Z</time></trkpt><trkpt lat="44.189348373344515" lon="10.108852152409773"><ele>166.0</ele><time>2026-05-03T08:37:44.782Z</time></trkpt><trkpt lat="44.189490095111736" lon="10.108843246281024"><ele>166.0</ele><time>2026-05-03T08:37:45.782Z</time></trkpt><trkpt lat="44.189625495612326" lon="10.108831728410646"><ele>166.0</ele><time>2026-05-03T08:37:46.782Z</time></trkpt><trkpt lat="44.189758905016184" lon="10.108810578532887"><ele>166.0</ele><time>2026-05-03T08:37:47.782Z</time></trkpt><trkpt lat="44.1898975153951" lon="10.108788110923475"><ele>166.0</ele><time>2026-05-03T08:37:48.782Z</time></trkpt><trkpt lat="44.19002980152764" lon="10.10877044787683"><ele>166.0</ele><time>2026-05-03T08:37:49.782Z</time></trkpt><trkpt lat="44.190167336147276" lon="10.108771960589118"><ele>165.75</ele><time>2026-05-03T08:37:50.782Z</time></trkpt><trkpt lat="44.190300637282434" lon="10.108756877558687"><ele>165.5</ele><time>2026-05-03T08:37:51.782Z</time></trkpt><trkpt lat="44.190432631076305" lon="10.108737813494324"><ele>165.25</ele><time>2026-05-03T08:37:52.782Z</time></trkpt><trkpt lat="44.190560299840875" lon="10.108720228022621"><ele>165.0</ele><time>2026-05-03T08:37:53.782Z</time></trkpt><trkpt lat="44.19067071766982" lon="10.108700994512395"><ele>164.8</ele><time>2026-05-03T08:37:54.782Z</time></trkpt><trkpt lat="44.190781273220814" lon="10.108687885910213"><ele>164.6</ele><time>2026-05-03T08:37:55.782Z</time></trkpt><trkpt lat="44.190883762095275" lon="10.108666731753132"><ele>164.39999999999998</ele><time>2026-05-03T08:37:56.782Z</time></trkpt><trkpt lat="44.190978671226" lon="10.108654728741001"><ele>164.2</ele><time>2026-05-03T08:37:57.782Z</time></trkpt><trkpt lat="44.19106184406075" lon="10.108639707162938"><ele>164.0</ele><time>2026-05-03T08:37:58.782Z</time></trkpt><trkpt lat="44.1911413835406" lon="10.108627826247929"><ele>164.0</ele><time>2026-05-03T08:37:59.782Z</time></trkpt><trkpt lat="44.19123092615168" lon="10.1086149325956"><ele>164.0</ele><time>2026-05-03T08:38:00.782Z</time></trkpt><trkpt lat="44.191324315920916" lon="10.108598826713884"><ele>164.0</ele><time>2026-05-03T08:38:01.782Z</time></trkpt><trkpt lat="44.19141869769355" lon="10.108573991950864"><ele>164.0</ele><time>2026-05-03T08:38:02.782Z</time></trkpt><trkpt lat="44.19150830242489" lon="10.108543360042844"><ele>164.0</ele><time>2026-05-03T08:38:03.782Z</time></trkpt><trkpt lat="44.19159101225037" lon="10.108527606796757"><ele>164.14285714285714</ele><time>2026-05-03T08:38:04.781Z</time></trkpt><trkpt lat="44.19166751252719" lon="10.108510749154513"><ele>164.28571428571428</ele><time>2026-05-03T08:38:05.781Z</time></trkpt><trkpt lat="44.19174118442861" lon="10.108499321069305"><ele>164.42857142857144</ele><time>2026-05-03T08:38:06.781Z</time></trkpt><trkpt lat="44.19180750008803" lon="10.108498790837432"><ele>164.57142857142856</ele><time>2026-05-03T08:38:07.781Z</time></trkpt><trkpt lat="44.19187126677289" lon="10.108484740661257"><ele>164.71428571428572</ele><time>2026-05-03T08:38:08.781Z</time></trkpt><trkpt lat="44.191946284712856" lon="10.10847008638754"><ele>164.85714285714286</ele><time>2026-05-03T08:38:09.781Z</time></trkpt><trkpt lat="44.19203368874021" lon="10.108461174369316"><ele>165.0</ele><time>2026-05-03T08:38:10.781Z</time></trkpt><trkpt lat="44.192092786783746" lon="10.10841538504055"><ele>165.0</ele><time>2026-05-03T08:38:11.781Z</time></trkpt><trkpt lat="44.1922194964004" lon="10.108345964408862"><ele>165.0</ele><time>2026-05-03T08:38:13.781Z</time></trkpt><trkpt lat="44.19233078036138" lon="10.108283452628157"><ele>165.0</ele><time>2026-05-03T08:38:15.781Z</time></trkpt><trkpt lat="44.1924279075736" lon="10.108253177701473"><ele>165.0</ele><time>2026-05-03T08:38:16.781Z</time></trkpt><trkpt lat="44.19251449714547" lon="10.108210519829425"><ele>165.0</ele><time>2026-05-03T08:38:17.781Z</time></trkpt><trkpt lat="44.1926019208563" lon="10.10826073562772"><ele>164.6</ele><time>2026-05-03T08:38:18.781Z</time></trkpt><trkpt lat="44.19268355262071" lon="10.10832966792488"><ele>164.2</ele><time>2026-05-03T08:38:19.781Z</time></trkpt><trkpt lat="44.192774223091405" lon="10.108390244506074"><ele>163.8</ele><time>2026-05-03T08:38:20.781Z</time></trkpt><trkpt lat="44.19285001030973" lon="10.108456850876967"><ele>163.4</ele><time>2026-05-03T08:38:21.781Z</time></trkpt><trkpt lat="44.19292480129547" lon="10.108517976343673"><ele>163.0</ele><time>2026-05-03T08:38:22.781Z</time></trkpt><trkpt lat="44.19300623981234" lon="10.108604435755172"><ele>163.0</ele><time>2026-05-03T08:38:23.781Z</time></trkpt><trkpt lat="44.1930857049707" lon="10.108667456899543"><ele>163.0</ele><time>2026-05-03T08:38:24.781Z</time></trkpt><trkpt lat="44.19316643728312" lon="10.108735801936994"><ele>163.0</ele><time>2026-05-03T08:38:25.781Z</time></trkpt><trkpt lat="44.193235744766575" lon="10.108811697426907"><ele>163.0</ele><time>2026-05-03T08:38:26.781Z</time></trkpt><trkpt lat="44.19331016849213" lon="10.10888081339136"><ele>163.0</ele><time>2026-05-03T08:38:27.781Z</time></trkpt><trkpt lat="44.19338670131444" lon="10.108953619688764"><ele>163.0</ele><time>2026-05-03T08:38:28.781Z</time></trkpt><trkpt lat="44.19345462806728" lon="10.109015820840046"><ele>163.0</ele><time>2026-05-03T08:38:29.781Z</time></trkpt><trkpt lat="44.19351936140088" lon="10.109073232276092"><ele>163.0</ele><time>2026-05-03T08:38:30.781Z</time></trkpt><trkpt lat="44.19357840988064" lon="10.109131865101816"><ele>163.0</ele><time>2026-05-03T08:38:31.781Z</time></trkpt><trkpt lat="44.193643072796185" lon="10.109188176523494"><ele>163.0</ele><time>2026-05-03T08:38:32.781Z</time></trkpt><trkpt lat="44.19369687149551" lon="10.109242296810931"><ele>163.0</ele><time>2026-05-03T08:38:33.781Z</time></trkpt><trkpt lat="44.19378195763953" lon="10.109320539755167"><ele>163.0</ele><time>2026-05-03T08:38:35.781Z</time></trkpt><trkpt lat="44.19385208039662" lon="10.109379768562455"><ele>163.0</ele><time>2026-05-03T08:38:37.781Z</time></trkpt><trkpt lat="44.19394044851131" lon="10.109453033409723"><ele>163.0</ele><time>2026-05-03T08:38:39.781Z</time></trkpt><trkpt lat="44.19404740900062" lon="10.109542236862723"><ele>163.0</ele><time>2026-05-03T08:38:41.781Z</time></trkpt><trkpt lat="44.19411252376519" lon="10.10960610924401"><ele>163.0</ele><time>2026-05-03T08:38:42.781Z</time></trkpt><trkpt lat="44.194179476683274" lon="10.109671180464034"><ele>162.66666666666669</ele><time>2026-05-03T08:38:43.781Z</time></trkpt><trkpt lat="44.19425260969438" lon="10.109727127401097"><ele>162.33333333333334</ele><time>2026-05-03T08:38:44.781Z</time></trkpt><trkpt lat="44.19432261163094" lon="10.109771558953286"><ele>162.0</ele><time>2026-05-03T08:38:45.781Z</time></trkpt><trkpt lat="44.19438558202365" lon="10.109806407816599"><ele>161.66666666666666</ele><time>2026-05-03T08:38:46.781Z</time></trkpt><trkpt lat="44.19445008037197" lon="10.109839596579054"><ele>161.33333333333331</ele><time>2026-05-03T08:38:48.781Z</time></trkpt><trkpt lat="44.19454126898672" lon="10.109885564787554"><ele>161.0</ele><time>2026-05-03T08:38:52.781Z</time></trkpt><trkpt lat="44.19463538587217" lon="10.109920332027686"><ele>160.83333333333331</ele><time>2026-05-03T08:38:54.781Z</time></trkpt><trkpt lat="44.19473342067667" lon="10.109969362634295"><ele>160.66666666666666</ele><time>2026-05-03T08:38:56.781Z</time></trkpt><trkpt lat="44.19481730211588" lon="10.110015042770161"><ele>160.5</ele><time>2026-05-03T08:38:58.781Z</time></trkpt><trkpt lat="44.19488046673341" lon="10.110043653316483"><ele>160.33333333333334</ele><time>2026-05-03T08:39:00.778Z</time></trkpt><trkpt lat="44.194951498415776" lon="10.110077304219132"><ele>160.16666666666669</ele><time>2026-05-03T08:39:05.778Z</time></trkpt><trkpt lat="44.195014047586284" lon="10.110092394145994"><ele>160.0</ele><time>2026-05-03T08:39:13.778Z</time></trkpt><trkpt lat="44.19509652288203" lon="10.110074725132362"><ele>161.0</ele><time>2026-05-03T08:39:17.778Z</time></trkpt><trkpt lat="44.195123248453655" lon="10.109993821854632"><ele>162.0</ele><time>2026-05-03T08:39:18.778Z</time></trkpt><trkpt lat="44.195147230681336" lon="10.109893096256702"><ele>163.0</ele><time>2026-05-03T08:39:19.778Z</time></trkpt><trkpt lat="44.19517657873369" lon="10.109779135334348"><ele>164.0</ele><time>2026-05-03T08:39:20.778Z</time></trkpt><trkpt lat="44.19520887896897" lon="10.109629706892793"><ele>165.0</ele><time>2026-05-03T08:39:21.778Z</time></trkpt><trkpt lat="44.19523737975505" lon="10.109464835499955"><ele>165.25</ele><time>2026-05-03T08:39:22.778Z</time></trkpt><trkpt lat="44.19528044139616" lon="10.109303812424692"><ele>165.5</ele><time>2026-05-03T08:39:23.778Z</time></trkpt><trkpt lat="44.19534039315585" lon="10.109137267322895"><ele>165.75</ele><time>2026-05-03T08:39:24.778Z</time></trkpt><trkpt lat="44.195412759329265" lon="10.108984160134348"><ele>166.0</ele><time>2026-05-03T08:39:25.778Z</time></trkpt><trkpt lat="44.19550137806125" lon="10.108835885653976"><ele>167.5</ele><time>2026-05-03T08:39:26.778Z</time></trkpt><trkpt lat="44.195592424928535" lon="10.108680664423284"><ele>169.0</ele><time>2026-05-03T08:39:27.778Z</time></trkpt><trkpt lat="44.195687778712106" lon="10.108525357129666"><ele>170.5</ele><time>2026-05-03T08:39:28.778Z</time></trkpt><trkpt lat="44.19578092589934" lon="10.108368650130162"><ele>172.0</ele><time>2026-05-03T08:39:29.778Z</time></trkpt><trkpt lat="44.19587404146967" lon="10.108206814226584"><ele>169.0</ele><time>2026-05-03T08:39:30.778Z</time></trkpt><trkpt lat="44.19596482955694" lon="10.108041204959935"><ele>166.0</ele><time>2026-05-03T08:39:31.778Z</time></trkpt><trkpt lat="44.19605178106119" lon="10.107884929119429"><ele>163.0</ele><time>2026-05-03T08:39:32.778Z</time></trkpt><trkpt lat="44.196142284946" lon="10.10774688048642"><ele>160.0</ele><time>2026-05-03T08:39:33.778Z</time></trkpt><trkpt lat="44.19622657253124" lon="10.107612619474429"><ele>160.0</ele><time>2026-05-03T08:39:34.778Z</time></trkpt><trkpt lat="44.19630609323346" lon="10.107484993722325"><ele>160.0</ele><time>2026-05-03T08:39:35.778Z</time></trkpt><trkpt lat="44.196389118463216" lon="10.107391248881209"><ele>160.0</ele><time>2026-05-03T08:39:36.778Z</time></trkpt><trkpt lat="44.196475902279964" lon="10.107309636019203"><ele>160.0</ele><time>2026-05-03T08:39:37.778Z</time></trkpt><trkpt lat="44.19657656640251" lon="10.107243650861575"><ele>160.0</ele><time>2026-05-03T08:39:38.778Z</time></trkpt><trkpt lat="44.19667733931271" lon="10.10717357976256"><ele>159.75</ele><time>2026-05-03T08:39:39.778Z</time></trkpt><trkpt lat="44.19678464113953" lon="10.107099102303271"><ele>159.5</ele><time>2026-05-03T08:39:40.778Z</time></trkpt><trkpt lat="44.19688931730645" lon="10.106991193565383"><ele>159.25</ele><time>2026-05-03T08:39:41.778Z</time></trkpt><trkpt lat="44.196996895745585" lon="10.106861447214696"><ele>159.0</ele><time>2026-05-03T08:39:42.778Z</time></trkpt><trkpt lat="44.19711018836037" lon="10.106736817043801"><ele>159.0</ele><time>2026-05-03T08:39:43.778Z</time></trkpt><trkpt lat="44.19723004087894" lon="10.106636109093916"><ele>159.0</ele><time>2026-05-03T08:39:44.778Z</time></trkpt><trkpt lat="44.197358812154775" lon="10.106549177770338"><ele>159.0</ele><time>2026-05-03T08:39:45.778Z</time></trkpt><trkpt lat="44.19749162623498" lon="10.106473245324885"><ele>159.0</ele><time>2026-05-03T08:39:46.778Z</time></trkpt><trkpt lat="44.197626274222685" lon="10.10641122616265"><ele>159.0</ele><time>2026-05-03T08:39:47.778Z</time></trkpt><trkpt lat="44.19775675785609" lon="10.10634221958824"><ele>159.0</ele><time>2026-05-03T08:39:48.778Z</time></trkpt><trkpt lat="44.197892193455054" lon="10.106270015160254"><ele>159.0</ele><time>2026-05-03T08:39:49.778Z</time></trkpt><trkpt lat="44.198034886736274" lon="10.106199279573678"><ele>159.0</ele><time>2026-05-03T08:39:50.778Z</time></trkpt><trkpt lat="44.198177844257486" lon="10.106121429074507"><ele>159.0</ele><time>2026-05-03T08:39:51.778Z</time></trkpt><trkpt lat="44.19832216990897" lon="10.106048849851678"><ele>159.0</ele><time>2026-05-03T08:39:52.778Z</time></trkpt><trkpt lat="44.198463510415216" lon="10.105961817550869"><ele>159.0</ele><time>2026-05-03T08:39:53.777Z</time></trkpt><trkpt lat="44.19859870598546" lon="10.105863315619159"><ele>159.0</ele><time>2026-05-03T08:39:54.777Z</time></trkpt><trkpt lat="44.19872946129861" lon="10.105760073367271"><ele>159.0</ele><time>2026-05-03T08:39:55.777Z</time></trkpt><trkpt lat="44.19885637232042" lon="10.10564470920486"><ele>159.0</ele><time>2026-05-03T08:39:56.777Z</time></trkpt><trkpt lat="44.19897867293638" lon="10.105522450597354"><ele>157.25</ele><time>2026-05-03T08:39:57.777Z</time></trkpt><trkpt lat="44.199098117566514" lon="10.105386420340745"><ele>155.5</ele><time>2026-05-03T08:39:58.777Z</time></trkpt><trkpt lat="44.199205608299465" lon="10.105240878158932"><ele>153.75</ele><time>2026-05-03T08:39:59.777Z</time></trkpt><trkpt lat="44.19930496194519" lon="10.105095590009018"><ele>152.0</ele><time>2026-05-03T08:40:00.777Z</time></trkpt><trkpt lat="44.19940326693689" lon="10.104946344400975"><ele>150.33333333333331</ele><time>2026-05-03T08:40:01.777Z</time></trkpt><trkpt lat="44.19949953317493" lon="10.104790533570238"><ele>148.66666666666666</ele><time>2026-05-03T08:40:02.777Z</time></trkpt><trkpt lat="44.199596447795905" lon="10.104627090926927"><ele>147.0</ele><time>2026-05-03T08:40:03.777Z</time></trkpt><trkpt lat="44.199696656727106" lon="10.104456233865017"><ele>147.0</ele><time>2026-05-03T08:40:04.777Z</time></trkpt><trkpt lat="44.1998012821387" lon="10.104285037244717"><ele>147.0</ele><time>2026-05-03T08:40:05.777Z</time></trkpt><trkpt lat="44.199908152800866" lon="10.10411775219976"><ele>147.0</ele><time>2026-05-03T08:40:06.777Z</time></trkpt><trkpt lat="44.20001555155435" lon="10.103944478621433"><ele>146.66666666666666</ele><time>2026-05-03T08:40:07.777Z</time></trkpt><trkpt lat="44.200122104883675" lon="10.103763101913982"><ele>146.33333333333331</ele><time>2026-05-03T08:40:08.777Z</time></trkpt><trkpt lat="44.200230720326346" lon="10.103582484490838"><ele>146.0</ele><time>2026-05-03T08:40:09.777Z</time></trkpt><trkpt lat="44.200343553275" lon="10.10340127197341"><ele>149.0</ele><time>2026-05-03T08:40:10.777Z</time></trkpt><trkpt lat="44.20046283833162" lon="10.103213396517583"><ele>152.0</ele><time>2026-05-03T08:40:11.777Z</time></trkpt><trkpt lat="44.20058123704554" lon="10.103018093315848"><ele>155.0</ele><time>2026-05-03T08:40:12.777Z</time></trkpt><trkpt lat="44.2006973282964" lon="10.102810181658354"><ele>155.0</ele><time>2026-05-03T08:40:13.777Z</time></trkpt><trkpt lat="44.200812988268055" lon="10.10258910848824"><ele>155.0</ele><time>2026-05-03T08:40:14.777Z</time></trkpt><trkpt lat="44.20092543456657" lon="10.102364133437504"><ele>155.0</ele><time>2026-05-03T08:40:15.777Z</time></trkpt><trkpt lat="44.20103148603139" lon="10.102130629523106"><ele>161.66666666666666</ele><time>2026-05-03T08:40:16.777Z</time></trkpt><trkpt lat="44.20113223395485" lon="10.101902370188133"><ele>168.33333333333334</ele><time>2026-05-03T08:40:17.777Z</time></trkpt><trkpt lat="44.20123134453846" lon="10.101679021837475"><ele>175.0</ele><time>2026-05-03T08:40:18.777Z</time></trkpt><trkpt lat="44.20132476585847" lon="10.101455334336089"><ele>177.33333333333334</ele><time>2026-05-03T08:40:19.777Z</time></trkpt><trkpt lat="44.20142226260569" lon="10.101222347230856"><ele>179.66666666666666</ele><time>2026-05-03T08:40:20.777Z</time></trkpt><trkpt lat="44.20151840299314" lon="10.100996304550081"><ele>182.0</ele><time>2026-05-03T08:40:21.777Z</time></trkpt><trkpt lat="44.20161687834511" lon="10.100758967541475"><ele>178.33333333333331</ele><time>2026-05-03T08:40:22.777Z</time></trkpt><trkpt lat="44.20171531492505" lon="10.100518195209563"><ele>174.66666666666666</ele><time>2026-05-03T08:40:23.777Z</time></trkpt><trkpt lat="44.201811782565876" lon="10.100344044473708"><ele>171.0</ele><time>2026-05-03T08:40:24.777Z</time></trkpt><trkpt lat="44.20191011060972" lon="10.100116027222956"><ele>166.5</ele><time>2026-05-03T08:40:25.777Z</time></trkpt><trkpt lat="44.20201436870309" lon="10.099722353447756"><ele>162.0</ele><time>2026-05-03T08:40:26.777Z</time></trkpt><trkpt lat="44.20210179215787" lon="10.099474124939352"><ele>162.0</ele><time>2026-05-03T08:40:27.777Z</time></trkpt><trkpt lat="44.20219502269035" lon="10.09915943214188"><ele>162.0</ele><time>2026-05-03T08:40:28.777Z</time></trkpt><trkpt lat="44.20228439181147" lon="10.098910687950958"><ele>162.0</ele><time>2026-05-03T08:40:29.777Z</time></trkpt><trkpt lat="44.20238315208084" lon="10.09866822034448"><ele>155.0</ele><time>2026-05-03T08:40:30.777Z</time></trkpt><trkpt lat="44.20247778762372" lon="10.098429494046647"><ele>148.0</ele><time>2026-05-03T08:40:31.777Z</time></trkpt><trkpt lat="44.20256759974044" lon="10.09819587111545"><ele>141.0</ele><time>2026-05-03T08:40:32.777Z</time></trkpt><trkpt lat="44.20265586005289" lon="10.097967471738357"><ele>141.0</ele><time>2026-05-03T08:40:33.777Z</time></trkpt><trkpt lat="44.2027359378656" lon="10.097736601721037"><ele>141.0</ele><time>2026-05-03T08:40:34.777Z</time></trkpt><trkpt lat="44.20280812462322" lon="10.097506013111063"><ele>141.0</ele><time>2026-05-03T08:40:35.777Z</time></trkpt><trkpt lat="44.20287372488871" lon="10.097264185725678"><ele>141.0</ele><time>2026-05-03T08:40:36.777Z</time></trkpt><trkpt lat="44.202936718647734" lon="10.097007974419334"><ele>141.0</ele><time>2026-05-03T08:40:37.777Z</time></trkpt><trkpt lat="44.202993989279356" lon="10.096735674183767"><ele>141.0</ele><time>2026-05-03T08:40:38.777Z</time></trkpt><trkpt lat="44.20304272421867" lon="10.0964413854396"><ele>141.33333333333334</ele><time>2026-05-03T08:40:39.777Z</time></trkpt><trkpt lat="44.20307766037362" lon="10.096142580313842"><ele>141.66666666666669</ele><time>2026-05-03T08:40:40.777Z</time></trkpt><trkpt lat="44.20310332841126" lon="10.095846593490702"><ele>142.0</ele><time>2026-05-03T08:40:41.777Z</time></trkpt><trkpt lat="44.20311434587046" lon="10.09555469034043"><ele>142.5</ele><time>2026-05-03T08:40:42.777Z</time></trkpt><trkpt lat="44.20311203375726" lon="10.095253820788637"><ele>143.0</ele><time>2026-05-03T08:40:43.777Z</time></trkpt><trkpt lat="44.20308925454672" lon="10.094919194454926"><ele>143.0</ele><time>2026-05-03T08:40:44.777Z</time></trkpt><trkpt lat="44.20303975503015" lon="10.094551348095171"><ele>143.0</ele><time>2026-05-03T08:40:45.777Z</time></trkpt><trkpt lat="44.20297175774097" lon="10.09415722198752"><ele>142.0</ele><time>2026-05-03T08:40:46.777Z</time></trkpt><trkpt lat="44.20288149108007" lon="10.093731896018507"><ele>141.0</ele><time>2026-05-03T08:40:47.777Z</time></trkpt><trkpt lat="44.20278413762232" lon="10.093279204092168"><ele>141.5</ele><time>2026-05-03T08:40:48.777Z</time></trkpt><trkpt lat="44.2026931669057" lon="10.092812581826147"><ele>142.0</ele><time>2026-05-03T08:40:49.777Z</time></trkpt><trkpt lat="44.20260311481231" lon="10.09232831980796"><ele>142.5</ele><time>2026-05-03T08:40:50.777Z</time></trkpt><trkpt lat="44.202507068375915" lon="10.091829483696253"><ele>143.0</ele><time>2026-05-03T08:40:51.777Z</time></trkpt><trkpt lat="44.202410297185764" lon="10.091349035847252"><ele>140.5</ele><time>2026-05-03T08:40:52.777Z</time></trkpt><trkpt lat="44.2023185172749" lon="10.090909613040786"><ele>138.0</ele><time>2026-05-03T08:40:53.777Z</time></trkpt><trkpt lat="44.20223728395728" lon="10.090509069023554"><ele>138.0</ele><time>2026-05-03T08:40:54.777Z</time></trkpt><trkpt lat="44.202163541243024" lon="10.090129842591098"><ele>138.0</ele><time>2026-05-03T08:40:55.777Z</time></trkpt><trkpt lat="44.20208802744091" lon="10.089777412453222"><ele>138.0</ele><time>2026-05-03T08:40:56.777Z</time></trkpt><trkpt lat="44.202024853745876" lon="10.08945393418647"><ele>138.0</ele><time>2026-05-03T08:40:57.777Z</time></trkpt><trkpt lat="44.2019625872158" lon="10.089148449170283"><ele>136.66666666666666</ele><time>2026-05-03T08:40:58.777Z</time></trkpt><trkpt lat="44.20191586857507" lon="10.088864221245933"><ele>135.33333333333331</ele><time>2026-05-03T08:40:59.777Z</time></trkpt><trkpt lat="44.20187290252261" lon="10.088615785117918"><ele>134.0</ele><time>2026-05-03T08:41:00.777Z</time></trkpt><trkpt lat="44.20183573883943" lon="10.0884087909212"><ele>133.75</ele><time>2026-05-03T08:41:01.777Z</time></trkpt><trkpt lat="44.201801333977286" lon="10.088216745615812"><ele>133.5</ele><time>2026-05-03T08:41:02.777Z</time></trkpt><trkpt lat="44.20177089423528" lon="10.08802079278397"><ele>133.25</ele><time>2026-05-03T08:41:03.776Z</time></trkpt><trkpt lat="44.20173737529425" lon="10.087838225944752"><ele>133.0</ele><time>2026-05-03T08:41:04.776Z</time></trkpt><trkpt lat="44.201692693328454" lon="10.08767923541631"><ele>133.0</ele><time>2026-05-03T08:41:05.776Z</time></trkpt><trkpt lat="44.2016390810504" lon="10.087529284147616"><ele>133.0</ele><time>2026-05-03T08:41:06.774Z</time></trkpt><trkpt lat="44.20155915836638" lon="10.087400019118146"><ele>133.0</ele><time>2026-05-03T08:41:07.774Z</time></trkpt><trkpt lat="44.20145241435981" lon="10.087308194348585"><ele>133.0</ele><time>2026-05-03T08:41:08.774Z</time></trkpt><trkpt lat="44.201331066283686" lon="10.08726368271058"><ele>131.75</ele><time>2026-05-03T08:41:09.774Z</time></trkpt><trkpt lat="44.201206609261845" lon="10.08726021168514"><ele>130.5</ele><time>2026-05-03T08:41:10.774Z</time></trkpt><trkpt lat="44.20108469865906" lon="10.08730150122781"><ele>129.25</ele><time>2026-05-03T08:41:11.773Z</time></trkpt><trkpt lat="44.20097916286745" lon="10.087400533346244"><ele>128.0</ele><time>2026-05-03T08:41:12.774Z</time></trkpt><trkpt lat="44.20090353245779" lon="10.08756091677023"><ele>128.0</ele><time>2026-05-03T08:41:13.774Z</time></trkpt><trkpt lat="44.20084854615365" lon="10.087721652887465"><ele>128.0</ele><time>2026-05-03T08:41:14.774Z</time></trkpt><trkpt lat="44.200835217224416" lon="10.087908060732865"><ele>128.0</ele><time>2026-05-03T08:41:15.774Z</time></trkpt><trkpt lat="44.20086586238952" lon="10.088088792462049"><ele>128.0</ele><time>2026-05-03T08:41:16.773Z</time></trkpt><trkpt lat="44.20093413814936" lon="10.088247869248038"><ele>128.25</ele><time>2026-05-03T08:41:17.773Z</time></trkpt><trkpt lat="44.20102903796696" lon="10.088372462553101"><ele>128.5</ele><time>2026-05-03T08:41:18.774Z</time></trkpt><trkpt lat="44.20115255831569" lon="10.08845435397416"><ele>128.75</ele><time>2026-05-03T08:41:19.773Z</time></trkpt><trkpt lat="44.20128616861961" lon="10.08848385591512"><ele>129.0</ele><time>2026-05-03T08:41:20.773Z</time></trkpt><trkpt lat="44.20144009957268" lon="10.088481566144512"><ele>130.66666666666666</ele><time>2026-05-03T08:41:21.773Z</time></trkpt><trkpt lat="44.20160271544601" lon="10.088475829232904"><ele>132.33333333333331</ele><time>2026-05-03T08:41:22.773Z</time></trkpt><trkpt lat="44.2017746410524" lon="10.088464056288416"><ele>134.0</ele><time>2026-05-03T08:41:23.773Z</time></trkpt><trkpt lat="44.201935297390335" lon="10.088451112911548"><ele>134.0</ele><time>2026-05-03T08:41:24.773Z</time></trkpt><trkpt lat="44.20206739006302" lon="10.088442540548138"><ele>134.0</ele><time>2026-05-03T08:41:25.773Z</time></trkpt><trkpt lat="44.20217863026405" lon="10.088424901237065"><ele>134.0</ele><time>2026-05-03T08:41:26.773Z</time></trkpt><trkpt lat="44.20227840599052" lon="10.08841248150745"><ele>134.0</ele><time>2026-05-03T08:41:27.773Z</time></trkpt><trkpt lat="44.20235877090536" lon="10.088350499528103"><ele>134.0</ele><time>2026-05-03T08:41:28.773Z</time></trkpt><trkpt lat="44.20240366680284" lon="10.088244119340205"><ele>136.25</ele><time>2026-05-03T08:41:29.773Z</time></trkpt><trkpt lat="44.20243181926396" lon="10.08810106028529"><ele>138.5</ele><time>2026-05-03T08:41:30.773Z</time></trkpt><trkpt lat="44.20246424423922" lon="10.087901388479466"><ele>140.75</ele><time>2026-05-03T08:41:31.773Z</time></trkpt><trkpt lat="44.202503147714225" lon="10.087686736161594"><ele>143.0</ele><time>2026-05-03T08:41:32.773Z</time></trkpt><trkpt lat="44.202537286343066" lon="10.087473316617599"><ele>144.33333333333331</ele><time>2026-05-03T08:41:33.773Z</time></trkpt><trkpt lat="44.202560257916666" lon="10.087250511872657"><ele>145.66666666666666</ele><time>2026-05-03T08:41:34.773Z</time></trkpt><trkpt lat="44.20255449473367" lon="10.087013002454169"><ele>147.0</ele><time>2026-05-03T08:41:35.773Z</time></trkpt><trkpt lat="44.20254014137997" lon="10.086763975789836"><ele>145.33333333333334</ele><time>2026-05-03T08:41:36.773Z</time></trkpt><trkpt lat="44.20252837582417" lon="10.086495750904753"><ele>143.66666666666669</ele><time>2026-05-03T08:41:37.773Z</time></trkpt><trkpt lat="44.202519584585154" lon="10.086212435058247"><ele>142.0</ele><time>2026-05-03T08:41:38.773Z</time></trkpt><trkpt lat="44.20251814176651" lon="10.0859524104016"><ele>141.0</ele><time>2026-05-03T08:41:39.773Z</time></trkpt><trkpt lat="44.202529048755984" lon="10.085724886002872"><ele>140.0</ele><time>2026-05-03T08:41:40.773Z</time></trkpt><trkpt lat="44.202561895191806" lon="10.085531799374177"><ele>139.0</ele><time>2026-05-03T08:41:41.773Z</time></trkpt><trkpt lat="44.20262027815463" lon="10.085361611931273"><ele>138.0</ele><time>2026-05-03T08:41:42.773Z</time></trkpt><trkpt lat="44.20268244070361" lon="10.085193344631126"><ele>138.0</ele><time>2026-05-03T08:41:43.773Z</time></trkpt><trkpt lat="44.202729124420465" lon="10.08500058682284"><ele>138.0</ele><time>2026-05-03T08:41:44.773Z</time></trkpt><trkpt lat="44.20275448793802" lon="10.08478988763361"><ele>138.0</ele><time>2026-05-03T08:41:45.773Z</time></trkpt><trkpt lat="44.20275877433823" lon="10.084569375694707"><ele>138.66666666666666</ele><time>2026-05-03T08:41:46.773Z</time></trkpt><trkpt lat="44.202738878776906" lon="10.084342311566896"><ele>139.33333333333331</ele><time>2026-05-03T08:41:47.773Z</time></trkpt><trkpt lat="44.20271037114175" lon="10.084112061329316"><ele>140.0</ele><time>2026-05-03T08:41:48.773Z</time></trkpt><trkpt lat="44.20268380224045" lon="10.083871329650597"><ele>141.5</ele><time>2026-05-03T08:41:49.773Z</time></trkpt><trkpt lat="44.202663105815766" lon="10.083658593131963"><ele>143.0</ele><time>2026-05-03T08:41:50.773Z</time></trkpt><trkpt lat="44.20264895271847" lon="10.08346996641975"><ele>144.5</ele><time>2026-05-03T08:41:51.773Z</time></trkpt><trkpt lat="44.20265132378081" lon="10.083293497765588"><ele>146.0</ele><time>2026-05-03T08:41:52.773Z</time></trkpt><trkpt lat="44.202681413475325" lon="10.083136946807176"><ele>146.75</ele><time>2026-05-03T08:41:53.773Z</time></trkpt><trkpt lat="44.20274946029562" lon="10.0829820232805"><ele>147.5</ele><time>2026-05-03T08:41:54.773Z</time></trkpt><trkpt lat="44.2028427942311" lon="10.082841963748406"><ele>148.25</ele><time>2026-05-03T08:41:55.773Z</time></trkpt><trkpt lat="44.20294677860144" lon="10.082723374080752"><ele>149.0</ele><time>2026-05-03T08:41:56.773Z</time></trkpt><trkpt lat="44.20305138894048" lon="10.082640591915046"><ele>152.25</ele><time>2026-05-03T08:41:57.773Z</time></trkpt><trkpt lat="44.20316473592537" lon="10.082590188522092"><ele>155.5</ele><time>2026-05-03T08:41:58.773Z</time></trkpt><trkpt lat="44.20329393935538" lon="10.082585845836437"><ele>158.75</ele><time>2026-05-03T08:41:59.773Z</time></trkpt><trkpt lat="44.203429754593174" lon="10.082632612851476"><ele>162.0</ele><time>2026-05-03T08:42:00.773Z</time></trkpt><trkpt lat="44.203578087026465" lon="10.08272740341179"><ele>162.0</ele><time>2026-05-03T08:42:01.773Z</time></trkpt><trkpt lat="44.203737244724216" lon="10.082822622757437"><ele>162.0</ele><time>2026-05-03T08:42:02.773Z</time></trkpt><trkpt lat="44.20389878760405" lon="10.0829263843964"><ele>162.0</ele><time>2026-05-03T08:42:03.773Z</time></trkpt><trkpt lat="44.20406367284784" lon="10.083018258719916"><ele>165.0</ele><time>2026-05-03T08:42:04.773Z</time></trkpt><trkpt lat="44.20421425831312" lon="10.083100266147971"><ele>168.0</ele><time>2026-05-03T08:42:05.773Z</time></trkpt><trkpt lat="44.2043456319082" lon="10.083205698145141"><ele>171.0</ele><time>2026-05-03T08:42:06.773Z</time></trkpt><trkpt lat="44.20446617963758" lon="10.083338146841486"><ele>171.0</ele><time>2026-05-03T08:42:07.773Z</time></trkpt><trkpt lat="44.20457531054119" lon="10.08345041001073"><ele>171.0</ele><time>2026-05-03T08:42:08.773Z</time></trkpt><trkpt lat="44.20470167029008" lon="10.083524838900189"><ele>171.0</ele><time>2026-05-03T08:42:09.773Z</time></trkpt><trkpt lat="44.20485436277368" lon="10.08355571717828"><ele>171.0</ele><time>2026-05-03T08:42:10.773Z</time></trkpt><trkpt lat="44.20502585801055" lon="10.083565303266202"><ele>171.66666666666666</ele><time>2026-05-03T08:42:11.773Z</time></trkpt><trkpt lat="44.205215753784856" lon="10.083583300720035"><ele>172.33333333333331</ele><time>2026-05-03T08:42:12.773Z</time></trkpt><trkpt lat="44.20541456487073" lon="10.083611082055816"><ele>173.0</ele><time>2026-05-03T08:42:13.773Z</time></trkpt><trkpt lat="44.205603508807535" lon="10.083638196652597"><ele>174.66666666666666</ele><time>2026-05-03T08:42:14.773Z</time></trkpt><trkpt lat="44.20577513328236" lon="10.083688968980358"><ele>176.33333333333334</ele><time>2026-05-03T08:42:15.773Z</time></trkpt><trkpt lat="44.205943314883605" lon="10.08377638502043"><ele>178.0</ele><time>2026-05-03T08:42:16.773Z</time></trkpt><trkpt lat="44.20610280919321" lon="10.08386717876154"><ele>178.0</ele><time>2026-05-03T08:42:17.773Z</time></trkpt><trkpt lat="44.206241840466504" lon="10.083936463830915"><ele>178.0</ele><time>2026-05-03T08:42:18.773Z</time></trkpt><trkpt lat="44.20635834192599" lon="10.083991967560141"><ele>178.0</ele><time>2026-05-03T08:42:19.773Z</time></trkpt><trkpt lat="44.20646595952917" lon="10.084015327985004"><ele>178.0</ele><time>2026-05-03T08:42:20.773Z</time></trkpt><trkpt lat="44.20657596746137" lon="10.08401360480654"><ele>177.4</ele><time>2026-05-03T08:42:21.773Z</time></trkpt><trkpt lat="44.2066659449419" lon="10.083979202676614"><ele>176.8</ele><time>2026-05-03T08:42:22.773Z</time></trkpt><trkpt lat="44.20675850465585" lon="10.083913330651175"><ele>176.2</ele><time>2026-05-03T08:42:23.773Z</time></trkpt><trkpt lat="44.20682737671752" lon="10.083819653508918"><ele>175.6</ele><time>2026-05-03T08:42:24.773Z</time></trkpt><trkpt lat="44.206871673149884" lon="10.08366973643345"><ele>175.0</ele><time>2026-05-03T08:42:25.773Z</time></trkpt><trkpt lat="44.206869772500056" lon="10.083518135487774"><ele>175.0</ele><time>2026-05-03T08:42:26.773Z</time></trkpt><trkpt lat="44.206820433871535" lon="10.083362429469936"><ele>175.0</ele><time>2026-05-03T08:42:27.773Z</time></trkpt><trkpt lat="44.206728263006575" lon="10.083224443815935"><ele>175.0</ele><time>2026-05-03T08:42:28.773Z</time></trkpt><trkpt lat="44.20660714995324" lon="10.083097852951916"><ele>175.0</ele><time>2026-05-03T08:42:29.772Z</time></trkpt><trkpt lat="44.206472642028096" lon="10.08296921228662"><ele>173.66666666666669</ele><time>2026-05-03T08:42:30.772Z</time></trkpt><trkpt lat="44.20632680580507" lon="10.082814337636153"><ele>172.33333333333334</ele><time>2026-05-03T08:42:31.772Z</time></trkpt><trkpt lat="44.206198284119225" lon="10.08263744696785"><ele>171.0</ele><time>2026-05-03T08:42:32.772Z</time></trkpt><trkpt lat="44.206068487149054" lon="10.082451543021824"><ele>165.0</ele><time>2026-05-03T08:42:33.772Z</time></trkpt><trkpt lat="44.2059300681734" lon="10.082262253317213"><ele>159.0</ele><time>2026-05-03T08:42:34.772Z</time></trkpt><trkpt lat="44.20579398630431" lon="10.082102605271787"><ele>153.0</ele><time>2026-05-03T08:42:35.772Z</time></trkpt><trkpt lat="44.20567981627333" lon="10.081944353142662"><ele>155.75</ele><time>2026-05-03T08:42:36.772Z</time></trkpt><trkpt lat="44.20559002718948" lon="10.081790447642367"><ele>158.5</ele><time>2026-05-03T08:42:37.772Z</time></trkpt><trkpt lat="44.205514161071235" lon="10.081642270247187"><ele>161.25</ele><time>2026-05-03T08:42:38.772Z</time></trkpt><trkpt lat="44.2054657772373" lon="10.081489923274114"><ele>164.0</ele><time>2026-05-03T08:42:39.772Z</time></trkpt><trkpt lat="44.205444775936236" lon="10.081337947263588"><ele>164.0</ele><time>2026-05-03T08:42:40.772Z</time></trkpt><trkpt lat="44.20546554173994" lon="10.081219670551361"><ele>164.0</ele><time>2026-05-03T08:42:41.772Z</time></trkpt><trkpt lat="44.20552656092296" lon="10.081122260271353"><ele>164.0</ele><time>2026-05-03T08:42:42.772Z</time></trkpt><trkpt lat="44.20560165171886" lon="10.081056864007792"><ele>164.0</ele><time>2026-05-03T08:42:43.772Z</time></trkpt><trkpt lat="44.205679574028146" lon="10.081037904490984"><ele>164.0</ele><time>2026-05-03T08:42:44.772Z</time></trkpt><trkpt lat="44.20575556519296" lon="10.081058952389775"><ele>164.0</ele><time>2026-05-03T08:42:45.772Z</time></trkpt><trkpt lat="44.20583092356925" lon="10.081128608065065"><ele>159.75</ele><time>2026-05-03T08:42:46.772Z</time></trkpt><trkpt lat="44.2059152315592" lon="10.08121597596826"><ele>155.5</ele><time>2026-05-03T08:42:47.772Z</time></trkpt><trkpt lat="44.206010908167904" lon="10.081322939121062"><ele>151.25</ele><time>2026-05-03T08:42:48.772Z</time></trkpt><trkpt lat="44.20612607715195" lon="10.081440863397649"><ele>147.0</ele><time>2026-05-03T08:42:49.772Z</time></trkpt><trkpt lat="44.20625305425519" lon="10.081569715534034"><ele>148.33333333333334</ele><time>2026-05-03T08:42:50.772Z</time></trkpt><trkpt lat="44.20638585735177" lon="10.081699684551307"><ele>149.66666666666669</ele><time>2026-05-03T08:42:51.772Z</time></trkpt><trkpt lat="44.20652717964658" lon="10.081839551774637"><ele>151.0</ele><time>2026-05-03T08:42:52.772Z</time></trkpt><trkpt lat="44.20667401927713" lon="10.081983382177638"><ele>151.0</ele><time>2026-05-03T08:42:53.772Z</time></trkpt><trkpt lat="44.2068162065181" lon="10.082128174554624"><ele>151.0</ele><time>2026-05-03T08:42:54.772Z</time></trkpt><trkpt lat="44.2069587692227" lon="10.082271872588825"><ele>151.0</ele><time>2026-05-03T08:42:55.772Z</time></trkpt><trkpt lat="44.207097511538365" lon="10.082412647842443"><ele>151.0</ele><time>2026-05-03T08:42:56.772Z</time></trkpt><trkpt lat="44.207234244412184" lon="10.082552289098073"><ele>151.0</ele><time>2026-05-03T08:42:57.772Z</time></trkpt><trkpt lat="44.20737143155492" lon="10.082691531596504"><ele>151.0</ele><time>2026-05-03T08:42:58.772Z</time></trkpt><trkpt lat="44.20750406087676" lon="10.08282937521804"><ele>151.0</ele><time>2026-05-03T08:42:59.772Z</time></trkpt><trkpt lat="44.207638761749884" lon="10.082967187639895"><ele>151.0</ele><time>2026-05-03T08:43:00.772Z</time></trkpt><trkpt lat="44.2077753611284" lon="10.083105078994821"><ele>151.0</ele><time>2026-05-03T08:43:01.772Z</time></trkpt><trkpt lat="44.20791412577762" lon="10.083241792218622"><ele>152.66666666666669</ele><time>2026-05-03T08:43:02.772Z</time></trkpt><trkpt lat="44.20804813465765" lon="10.083377372556527"><ele>154.33333333333334</ele><time>2026-05-03T08:43:03.772Z</time></trkpt><trkpt lat="44.20817249941468" lon="10.083507151586664"><ele>156.0</ele><time>2026-05-03T08:43:04.772Z</time></trkpt><trkpt lat="44.20827850292907" lon="10.083627205306891"><ele>156.0</ele><time>2026-05-03T08:43:05.772Z</time></trkpt><trkpt lat="44.2083786732805" lon="10.083773395493207"><ele>156.0</ele><time>2026-05-03T08:43:06.772Z</time></trkpt><trkpt lat="44.20845134872823" lon="10.083960147052547"><ele>156.0</ele><time>2026-05-03T08:43:07.772Z</time></trkpt><trkpt lat="44.2084938129264" lon="10.08417038099008"><ele>160.33333333333334</ele><time>2026-05-03T08:43:08.772Z</time></trkpt><trkpt lat="44.20853378922333" lon="10.084388869118838"><ele>164.66666666666669</ele><time>2026-05-03T08:43:09.772Z</time></trkpt><trkpt lat="44.208576259884296" lon="10.084612451821013"><ele>169.0</ele><time>2026-05-03T08:43:10.772Z</time></trkpt><trkpt lat="44.208622213163125" lon="10.084830104428718"><ele>172.33333333333334</ele><time>2026-05-03T08:43:11.772Z</time></trkpt><trkpt lat="44.208676484017545" lon="10.085038303627924"><ele>175.66666666666666</ele><time>2026-05-03T08:43:12.77Z</time></trkpt><trkpt lat="44.20875025044277" lon="10.085250008275981"><ele>179.0</ele><time>2026-05-03T08:43:13.771Z</time></trkpt><trkpt lat="44.20883966373014" lon="10.085464796437641"><ele>179.0</ele><time>2026-05-03T08:43:14.771Z</time></trkpt><trkpt lat="44.208926944165235" lon="10.085678687858302"><ele>179.0</ele><time>2026-05-03T08:43:15.771Z</time></trkpt><trkpt lat="44.208998678080846" lon="10.0859045341543"><ele>179.0</ele><time>2026-05-03T08:43:16.77Z</time></trkpt><trkpt lat="44.209057742587575" lon="10.086142884934569"><ele>174.0</ele><time>2026-05-03T08:43:17.77Z</time></trkpt><trkpt lat="44.20910349121133" lon="10.086396525084812"><ele>169.0</ele><time>2026-05-03T08:43:18.77Z</time></trkpt><trkpt lat="44.20915119218418" lon="10.08665908581084"><ele>164.0</ele><time>2026-05-03T08:43:19.771Z</time></trkpt><trkpt lat="44.20920611578152" lon="10.086926203301005"><ele>164.0</ele><time>2026-05-03T08:43:20.771Z</time></trkpt><trkpt lat="44.20925686011191" lon="10.087193361089723"><ele>164.0</ele><time>2026-05-03T08:43:21.77Z</time></trkpt><trkpt lat="44.20930452481397" lon="10.087451379842149"><ele>164.0</ele><time>2026-05-03T08:43:22.77Z</time></trkpt><trkpt lat="44.20935605541121" lon="10.087706384492742"><ele>164.66666666666666</ele><time>2026-05-03T08:43:23.77Z</time></trkpt><trkpt lat="44.20941687838475" lon="10.087952002993879"><ele>165.33333333333334</ele><time>2026-05-03T08:43:24.77Z</time></trkpt><trkpt lat="44.2095004540807" lon="10.088191947987522"><ele>166.0</ele><time>2026-05-03T08:43:25.77Z</time></trkpt><trkpt lat="44.209590154257945" lon="10.088405587755085"><ele>167.0</ele><time>2026-05-03T08:43:26.77Z</time></trkpt><trkpt lat="44.20969391399191" lon="10.088614699959336"><ele>168.0</ele><time>2026-05-03T08:43:27.77Z</time></trkpt><trkpt lat="44.209803735701065" lon="10.088817152729922"><ele>169.0</ele><time>2026-05-03T08:43:28.77Z</time></trkpt><trkpt lat="44.20990599892914" lon="10.089025009651428"><ele>168.33333333333334</ele><time>2026-05-03T08:43:29.77Z</time></trkpt><trkpt lat="44.21000680176514" lon="10.089233644045207"><ele>167.66666666666666</ele><time>2026-05-03T08:43:30.77Z</time></trkpt><trkpt lat="44.21010705581942" lon="10.089442093491181"><ele>167.0</ele><time>2026-05-03T08:43:31.77Z</time></trkpt><trkpt lat="44.21020243413233" lon="10.089652810000468"><ele>167.0</ele><time>2026-05-03T08:43:32.77Z</time></trkpt><trkpt lat="44.21029804690706" lon="10.089863725311607"><ele>167.0</ele><time>2026-05-03T08:43:33.77Z</time></trkpt><trkpt lat="44.210395226024374" lon="10.090072700818023"><ele>167.0</ele><time>2026-05-03T08:43:34.77Z</time></trkpt><trkpt lat="44.210497455509554" lon="10.090276123280837"><ele>166.66666666666666</ele><time>2026-05-03T08:43:35.77Z</time></trkpt><trkpt lat="44.21059834413654" lon="10.09047065278751"><ele>166.33333333333334</ele><time>2026-05-03T08:43:36.77Z</time></trkpt><trkpt lat="44.210696767578014" lon="10.09066173643825"><ele>166.0</ele><time>2026-05-03T08:43:37.77Z</time></trkpt><trkpt lat="44.210807083224054" lon="10.090847321374508"><ele>169.33333333333334</ele><time>2026-05-03T08:43:38.77Z</time></trkpt><trkpt lat="44.21092513377633" lon="10.091017260238628"><ele>172.66666666666666</ele><time>2026-05-03T08:43:39.77Z</time></trkpt><trkpt lat="44.211041545721784" lon="10.091169251019396"><ele>176.0</ele><time>2026-05-03T08:43:40.77Z</time></trkpt><trkpt lat="44.2111527114517" lon="10.091314434121772"><ele>176.0</ele><time>2026-05-03T08:43:41.77Z</time></trkpt><trkpt lat="44.211261330299685" lon="10.091451215298083"><ele>176.0</ele><time>2026-05-03T08:43:42.77Z</time></trkpt><trkpt lat="44.21136746693961" lon="10.091575853316662"><ele>176.0</ele><time>2026-05-03T08:43:43.77Z</time></trkpt><trkpt lat="44.21148414559075" lon="10.091688990218783"><ele>176.0</ele><time>2026-05-03T08:43:44.77Z</time></trkpt><trkpt lat="44.211609694752234" lon="10.09177964680766"><ele>175.0</ele><time>2026-05-03T08:43:45.77Z</time></trkpt><trkpt lat="44.211725895159105" lon="10.091875127114196"><ele>174.0</ele><time>2026-05-03T08:43:46.77Z</time></trkpt><trkpt lat="44.21185473979588" lon="10.091959950150116"><ele>173.0</ele><time>2026-05-03T08:43:47.77Z</time></trkpt><trkpt lat="44.211983615786934" lon="10.092021372544727"><ele>172.0</ele><time>2026-05-03T08:43:48.769Z</time></trkpt><trkpt lat="44.212123273211446" lon="10.092064387728005"><ele>172.0</ele><time>2026-05-03T08:43:49.769Z</time></trkpt><trkpt lat="44.212256698106174" lon="10.092095103683079"><ele>172.0</ele><time>2026-05-03T08:43:50.769Z</time></trkpt><trkpt lat="44.21238026839612" lon="10.092121705369891"><ele>172.0</ele><time>2026-05-03T08:43:51.769Z</time></trkpt><trkpt lat="44.21251309851952" lon="10.092141856542113"><ele>172.0</ele><time>2026-05-03T08:43:52.769Z</time></trkpt><trkpt lat="44.2126484572297" lon="10.092167323614623"><ele>171.5</ele><time>2026-05-03T08:43:53.769Z</time></trkpt><trkpt lat="44.21278767620156" lon="10.092192745768218"><ele>171.0</ele><time>2026-05-03T08:43:54.769Z</time></trkpt><trkpt lat="44.212929171426616" lon="10.09221935120851"><ele>170.5</ele><time>2026-05-03T08:43:55.769Z</time></trkpt><trkpt lat="44.21307715444804" lon="10.092245265143193"><ele>170.0</ele><time>2026-05-03T08:43:56.769Z</time></trkpt><trkpt lat="44.21322677166074" lon="10.092269625022624"><ele>169.75</ele><time>2026-05-03T08:43:57.769Z</time></trkpt><trkpt lat="44.21336714340445" lon="10.092297401325274"><ele>169.5</ele><time>2026-05-03T08:43:58.769Z</time></trkpt><trkpt lat="44.213495294640566" lon="10.092324753934152"><ele>169.25</ele><time>2026-05-03T08:43:59.769Z</time></trkpt><trkpt lat="44.213617968867105" lon="10.09235187158775"><ele>169.0</ele><time>2026-05-03T08:44:00.769Z</time></trkpt><trkpt lat="44.21374732633689" lon="10.092372712852814"><ele>169.0</ele><time>2026-05-03T08:44:01.769Z</time></trkpt><trkpt lat="44.21388183282071" lon="10.092363971032283"><ele>169.0</ele><time>2026-05-03T08:44:02.769Z</time></trkpt><trkpt lat="44.21402109915555" lon="10.092320907720135"><ele>169.0</ele><time>2026-05-03T08:44:03.769Z</time></trkpt><trkpt lat="44.2141617579731" lon="10.092268740877495"><ele>169.0</ele><time>2026-05-03T08:44:04.769Z</time></trkpt><trkpt lat="44.21429127429901" lon="10.09221247484798"><ele>169.25</ele><time>2026-05-03T08:44:05.769Z</time></trkpt><trkpt lat="44.21441552519401" lon="10.092147469726335"><ele>169.5</ele><time>2026-05-03T08:44:06.769Z</time></trkpt><trkpt lat="44.21454695702689" lon="10.092087141580201"><ele>169.75</ele><time>2026-05-03T08:44:07.769Z</time></trkpt><trkpt lat="44.21467351734936" lon="10.092035441137487"><ele>170.0</ele><time>2026-05-03T08:44:08.769Z</time></trkpt><trkpt lat="44.21479802235752" lon="10.09198514123748"><ele>171.25</ele><time>2026-05-03T08:44:09.769Z</time></trkpt><trkpt lat="44.21493401176885" lon="10.091955676173875"><ele>172.5</ele><time>2026-05-03T08:44:10.769Z</time></trkpt><trkpt lat="44.21506550071975" lon="10.091956184588664"><ele>173.75</ele><time>2026-05-03T08:44:11.769Z</time></trkpt><trkpt lat="44.21519925153153" lon="10.091981635706965"><ele>175.0</ele><time>2026-05-03T08:44:12.769Z</time></trkpt><trkpt lat="44.21533162544083" lon="10.092016793163312"><ele>175.0</ele><time>2026-05-03T08:44:13.769Z</time></trkpt><trkpt lat="44.21544632840742" lon="10.09205234136699"><ele>175.0</ele><time>2026-05-03T08:44:14.769Z</time></trkpt><trkpt lat="44.21555301802894" lon="10.092083193821589"><ele>175.0</ele><time>2026-05-03T08:44:15.769Z</time></trkpt><trkpt lat="44.215652340283235" lon="10.092128229004285"><ele>175.0</ele><time>2026-05-03T08:44:16.769Z</time></trkpt><trkpt lat="44.21574175292576" lon="10.092198125204332"><ele>175.0</ele><time>2026-05-03T08:44:17.769Z</time></trkpt><trkpt lat="44.21583039831934" lon="10.092298630105162"><ele>178.5</ele><time>2026-05-03T08:44:18.769Z</time></trkpt><trkpt lat="44.21591551912057" lon="10.092437962083023"><ele>182.0</ele><time>2026-05-03T08:44:19.769Z</time></trkpt><trkpt lat="44.21597897736297" lon="10.092579322230463"><ele>185.5</ele><time>2026-05-03T08:44:20.769Z</time></trkpt><trkpt lat="44.21603391913802" lon="10.092698436266502"><ele>189.0</ele><time>2026-05-03T08:44:21.769Z</time></trkpt><trkpt lat="44.21608461389437" lon="10.092816243186906"><ele>189.0</ele><time>2026-05-03T08:44:22.769Z</time></trkpt><trkpt lat="44.21614513178226" lon="10.092930115786093"><ele>189.0</ele><time>2026-05-03T08:44:23.769Z</time></trkpt><trkpt lat="44.21622115573466" lon="10.093025308306302"><ele>189.0</ele><time>2026-05-03T08:44:24.769Z</time></trkpt><trkpt lat="44.216320485929245" lon="10.093088234899435"><ele>189.0</ele><time>2026-05-03T08:44:25.769Z</time></trkpt><trkpt lat="44.21644752436169" lon="10.093127410859571"><ele>189.0</ele><time>2026-05-03T08:44:26.769Z</time></trkpt><trkpt lat="44.216579949947544" lon="10.093167642208899"><ele>189.75</ele><time>2026-05-03T08:44:27.769Z</time></trkpt><trkpt lat="44.2167116332689" lon="10.093212951253374"><ele>190.5</ele><time>2026-05-03T08:44:28.769Z</time></trkpt><trkpt lat="44.21684019220514" lon="10.093247291518933"><ele>191.25</ele><time>2026-05-03T08:44:29.769Z</time></trkpt><trkpt lat="44.2169668534304" lon="10.093283048589942"><ele>192.0</ele><time>2026-05-03T08:44:30.769Z</time></trkpt><trkpt lat="44.21709158320957" lon="10.093323504006205"><ele>192.0</ele><time>2026-05-03T08:44:31.769Z</time></trkpt><trkpt lat="44.21718557725976" lon="10.093358547532954"><ele>192.0</ele><time>2026-05-03T08:44:32.769Z</time></trkpt><trkpt lat="44.21728767454642" lon="10.093418199568475"><ele>192.0</ele><time>2026-05-03T08:44:33.769Z</time></trkpt><trkpt lat="44.21739484048401" lon="10.093541619508118"><ele>192.0</ele><time>2026-05-03T08:44:34.769Z</time></trkpt><trkpt lat="44.21747088068148" lon="10.09371315180089"><ele>191.0</ele><time>2026-05-03T08:44:35.769Z</time></trkpt><trkpt lat="44.21755067786528" lon="10.093828546818129"><ele>190.0</ele><time>2026-05-03T08:44:36.769Z</time></trkpt><trkpt lat="44.217639902764105" lon="10.093913334561904"><ele>189.0</ele><time>2026-05-03T08:44:37.769Z</time></trkpt><trkpt lat="44.21773528815282" lon="10.093977269569468"><ele>188.0</ele><time>2026-05-03T08:44:38.769Z</time></trkpt><trkpt lat="44.217831526837266" lon="10.094030689836433"><ele>187.0</ele><time>2026-05-03T08:44:39.769Z</time></trkpt><trkpt lat="44.21793378354187" lon="10.094091331030237"><ele>187.25</ele><time>2026-05-03T08:44:40.769Z</time></trkpt><trkpt lat="44.21803226778479" lon="10.094173972698739"><ele>187.5</ele><time>2026-05-03T08:44:41.769Z</time></trkpt><trkpt lat="44.21811287277948" lon="10.094298830610773"><ele>187.75</ele><time>2026-05-03T08:44:42.769Z</time></trkpt><trkpt lat="44.21818703098463" lon="10.09444176318125"><ele>188.0</ele><time>2026-05-03T08:44:43.769Z</time></trkpt><trkpt lat="44.218249137680935" lon="10.094583146358806"><ele>188.0</ele><time>2026-05-03T08:44:44.769Z</time></trkpt><trkpt lat="44.2183214367756" lon="10.094708663131437"><ele>188.0</ele><time>2026-05-03T08:44:45.769Z</time></trkpt><trkpt lat="44.21840897977154" lon="10.094823904648443"><ele>188.0</ele><time>2026-05-03T08:44:46.769Z</time></trkpt><trkpt lat="44.21850995989255" lon="10.094924651194944"><ele>188.0</ele><time>2026-05-03T08:44:47.769Z</time></trkpt><trkpt lat="44.218608539339975" lon="10.095031799685914"><ele>192.75</ele><time>2026-05-03T08:44:48.769Z</time></trkpt><trkpt lat="44.21869710934854" lon="10.095147450560335"><ele>197.5</ele><time>2026-05-03T08:44:49.769Z</time></trkpt><trkpt lat="44.21877179107342" lon="10.095280247297495"><ele>202.25</ele><time>2026-05-03T08:44:50.769Z</time></trkpt><trkpt lat="44.21883529159803" lon="10.095429592461304"><ele>207.0</ele><time>2026-05-03T08:44:51.769Z</time></trkpt><trkpt lat="44.21889151794959" lon="10.095580383249327"><ele>207.0</ele><time>2026-05-03T08:44:52.769Z</time></trkpt><trkpt lat="44.21897315438857" lon="10.095711594346797"><ele>207.0</ele><time>2026-05-03T08:44:53.769Z</time></trkpt><trkpt lat="44.21907721260056" lon="10.095815795503347"><ele>207.0</ele><time>2026-05-03T08:44:54.769Z</time></trkpt><trkpt lat="44.219188716484744" lon="10.095900004857024"><ele>207.0</ele><time>2026-05-03T08:44:55.769Z</time></trkpt><trkpt lat="44.21927527660317" lon="10.095982324612795"><ele>207.0</ele><time>2026-05-03T08:44:56.769Z</time></trkpt><trkpt lat="44.21935917801391" lon="10.096094777954262"><ele>207.0</ele><time>2026-05-03T08:44:57.769Z</time></trkpt><trkpt lat="44.219417713098196" lon="10.096248626053066"><ele>207.0</ele><time>2026-05-03T08:44:58.768Z</time></trkpt><trkpt lat="44.21948002632559" lon="10.096446665054534"><ele>207.0</ele><time>2026-05-03T08:44:59.768Z</time></trkpt><trkpt lat="44.219545179022646" lon="10.096694309127178"><ele>207.0</ele><time>2026-05-03T08:45:00.768Z</time></trkpt><trkpt lat="44.21960645064848" lon="10.09698494513418"><ele>207.0</ele><time>2026-05-03T08:45:01.768Z</time></trkpt><trkpt lat="44.21966077714805" lon="10.097266405030304"><ele>207.0</ele><time>2026-05-03T08:45:02.768Z</time></trkpt><trkpt lat="44.219719645063755" lon="10.097523784891232"><ele>202.66666666666669</ele><time>2026-05-03T08:45:03.768Z</time></trkpt><trkpt lat="44.21977921009376" lon="10.097754278228958"><ele>198.33333333333334</ele><time>2026-05-03T08:45:04.768Z</time></trkpt><trkpt lat="44.219830435042645" lon="10.097966244604475"><ele>194.0</ele><time>2026-05-03T08:45:05.768Z</time></trkpt><trkpt lat="44.219896537320245" lon="10.098174882683136"><ele>200.0</ele><time>2026-05-03T08:45:06.768Z</time></trkpt><trkpt lat="44.220013488102516" lon="10.098390977205652"><ele>206.0</ele><time>2026-05-03T08:45:07.768Z</time></trkpt><trkpt lat="44.22011492033547" lon="10.098562956291625"><ele>212.0</ele><time>2026-05-03T08:45:08.768Z</time></trkpt><trkpt lat="44.22024491344517" lon="10.098743934490898"><ele>212.0</ele><time>2026-05-03T08:45:09.768Z</time></trkpt><trkpt lat="44.22038959970996" lon="10.09891974414281"><ele>212.0</ele><time>2026-05-03T08:45:10.768Z</time></trkpt><trkpt lat="44.220524765283315" lon="10.099091467292718"><ele>212.0</ele><time>2026-05-03T08:45:11.768Z</time></trkpt><trkpt lat="44.22064420720389" lon="10.099241840409361"><ele>212.66666666666669</ele><time>2026-05-03T08:45:12.768Z</time></trkpt><trkpt lat="44.22076650548451" lon="10.099369803433367"><ele>213.33333333333331</ele><time>2026-05-03T08:45:13.768Z</time></trkpt><trkpt lat="44.22091181170544" lon="10.099453230187175"><ele>214.0</ele><time>2026-05-03T08:45:14.768Z</time></trkpt><trkpt lat="44.221075713935655" lon="10.099498917203173"><ele>214.0</ele><time>2026-05-03T08:45:15.768Z</time></trkpt><trkpt lat="44.22127690709842" lon="10.099509639502179"><ele>214.0</ele><time>2026-05-03T08:45:16.768Z</time></trkpt><trkpt lat="44.22148174158496" lon="10.099536566594658"><ele>214.0</ele><time>2026-05-03T08:45:17.768Z</time></trkpt><trkpt lat="44.22165549709191" lon="10.09957980180474"><ele>210.25</ele><time>2026-05-03T08:45:18.766Z</time></trkpt><trkpt lat="44.221819582532156" lon="10.099640116484673"><ele>206.5</ele><time>2026-05-03T08:45:19.767Z</time></trkpt><trkpt lat="44.2219477737798" lon="10.099712856612614"><ele>202.75</ele><time>2026-05-03T08:45:20.767Z</time></trkpt><trkpt lat="44.222075724262126" lon="10.099785400448177"><ele>199.0</ele><time>2026-05-03T08:45:21.766Z</time></trkpt><trkpt lat="44.22220183597103" lon="10.099862196151138"><ele>202.0</ele><time>2026-05-03T08:45:22.766Z</time></trkpt><trkpt lat="44.22233144073785" lon="10.099945667259627"><ele>205.0</ele><time>2026-05-03T08:45:23.766Z</time></trkpt><trkpt lat="44.22245297489107" lon="10.100038233021545"><ele>208.0</ele><time>2026-05-03T08:45:24.766Z</time></trkpt><trkpt lat="44.222558344927386" lon="10.100185306919972"><ele>211.0</ele><time>2026-05-03T08:45:25.767Z</time></trkpt><trkpt lat="44.222647327252766" lon="10.100389530775596"><ele>211.0</ele><time>2026-05-03T08:45:26.767Z</time></trkpt><trkpt lat="44.22273975635874" lon="10.100617388729642"><ele>211.0</ele><time>2026-05-03T08:45:27.766Z</time></trkpt><trkpt lat="44.2228363998253" lon="10.100835371577604"><ele>211.0</ele><time>2026-05-03T08:45:28.766Z</time></trkpt><trkpt lat="44.222941749650346" lon="10.10102726009177"><ele>206.66666666666666</ele><time>2026-05-03T08:45:29.766Z</time></trkpt><trkpt lat="44.22305933254868" lon="10.101202902564742"><ele>202.33333333333331</ele><time>2026-05-03T08:45:30.766Z</time></trkpt><trkpt lat="44.22316269086549" lon="10.101379220931767"><ele>198.0</ele><time>2026-05-03T08:45:31.766Z</time></trkpt><trkpt lat="44.22323437629834" lon="10.101571106590633"><ele>203.0</ele><time>2026-05-03T08:45:32.766Z</time></trkpt><trkpt lat="44.223285881255265" lon="10.101796852482652"><ele>208.0</ele><time>2026-05-03T08:45:33.766Z</time></trkpt><trkpt lat="44.22330750730303" lon="10.10206079904746"><ele>213.0</ele><time>2026-05-03T08:45:34.766Z</time></trkpt><trkpt lat="44.22332963337397" lon="10.10236046792241"><ele>219.0</ele><time>2026-05-03T08:45:35.766Z</time></trkpt><trkpt lat="44.2233681366355" lon="10.102676601709062"><ele>225.0</ele><time>2026-05-03T08:45:36.766Z</time></trkpt><trkpt lat="44.22340670550244" lon="10.103002526565163"><ele>229.5</ele><time>2026-05-03T08:45:37.766Z</time></trkpt><trkpt lat="44.22347455226367" lon="10.103333624785318"><ele>234.0</ele><time>2026-05-03T08:45:38.766Z</time></trkpt><trkpt lat="44.22354807398498" lon="10.103674076763824"><ele>234.0</ele><time>2026-05-03T08:45:39.766Z</time></trkpt><trkpt lat="44.22362932520902" lon="10.104035997978448"><ele>234.0</ele><time>2026-05-03T08:45:40.766Z</time></trkpt><trkpt lat="44.22371066745392" lon="10.1044103428507"><ele>242.0</ele><time>2026-05-03T08:45:41.766Z</time></trkpt><trkpt lat="44.22377930176643" lon="10.104767285335951"><ele>250.0</ele><time>2026-05-03T08:45:42.766Z</time></trkpt><trkpt lat="44.22383236441957" lon="10.10509149462136"><ele>255.33333333333331</ele><time>2026-05-03T08:45:43.766Z</time></trkpt><trkpt lat="44.22388787509989" lon="10.105394606384225"><ele>260.6666666666667</ele><time>2026-05-03T08:45:44.766Z</time></trkpt><trkpt lat="44.2239452380717" lon="10.105686896609877"><ele>266.0</ele><time>2026-05-03T08:45:45.766Z</time></trkpt><trkpt lat="44.22399228475931" lon="10.10594500710632"><ele>251.33333333333334</ele><time>2026-05-03T08:45:46.766Z</time></trkpt><trkpt lat="44.22403729935583" lon="10.106172588221217"><ele>236.66666666666669</ele><time>2026-05-03T08:45:47.766Z</time></trkpt><trkpt lat="44.224079882046965" lon="10.106381997785611"><ele>222.0</ele><time>2026-05-03T08:45:48.766Z</time></trkpt><trkpt lat="44.224120468375986" lon="10.106570800175929"><ele>223.25</ele><time>2026-05-03T08:45:49.766Z</time></trkpt><trkpt lat="44.224142130430366" lon="10.106759360086928"><ele>224.5</ele><time>2026-05-03T08:45:50.766Z</time></trkpt><trkpt lat="44.224122166681916" lon="10.106945965818689"><ele>225.75</ele><time>2026-05-03T08:45:51.766Z</time></trkpt><trkpt lat="44.22407526846" lon="10.10713834841214"><ele>227.0</ele><time>2026-05-03T08:45:52.766Z</time></trkpt><trkpt lat="44.22403133713867" lon="10.10732361335063"><ele>225.66666666666669</ele><time>2026-05-03T08:45:53.766Z</time></trkpt><trkpt lat="44.22402152906673" lon="10.107512159989364"><ele>224.33333333333331</ele><time>2026-05-03T08:45:54.766Z</time></trkpt><trkpt lat="44.22405161692661" lon="10.107718859565406"><ele>223.0</ele><time>2026-05-03T08:45:55.766Z</time></trkpt><trkpt lat="44.224118440652596" lon="10.107937741990416"><ele>223.0</ele><time>2026-05-03T08:45:56.766Z</time></trkpt><trkpt lat="44.2241978152956" lon="10.108197415905284"><ele>223.0</ele><time>2026-05-03T08:45:57.766Z</time></trkpt><trkpt lat="44.22427627203773" lon="10.108480729220581"><ele>223.0</ele><time>2026-05-03T08:45:58.766Z</time></trkpt><trkpt lat="44.22435202042903" lon="10.108763777777572"><ele>226.0</ele><time>2026-05-03T08:45:59.766Z</time></trkpt><trkpt lat="44.22442780111568" lon="10.109033659690267"><ele>229.0</ele><time>2026-05-03T08:46:00.766Z</time></trkpt><trkpt lat="44.22450690867662" lon="10.109280032239683"><ele>232.0</ele><time>2026-05-03T08:46:01.766Z</time></trkpt><trkpt lat="44.224579917026624" lon="10.109523716278769"><ele>235.66666666666666</ele><time>2026-05-03T08:46:02.766Z</time></trkpt><trkpt lat="44.22464536230904" lon="10.109766176140907"><ele>239.33333333333331</ele><time>2026-05-03T08:46:03.766Z</time></trkpt><trkpt lat="44.22470375265223" lon="10.110021194713026"><ele>243.0</ele><time>2026-05-03T08:46:04.766Z</time></trkpt><trkpt lat="44.22473672241653" lon="10.11030575405844"><ele>243.0</ele><time>2026-05-03T08:46:05.766Z</time></trkpt><trkpt lat="44.224735302372146" lon="10.110599091994958"><ele>243.0</ele><time>2026-05-03T08:46:06.766Z</time></trkpt><trkpt lat="44.224733982660126" lon="10.110893489334797"><ele>243.0</ele><time>2026-05-03T08:46:07.766Z</time></trkpt><trkpt lat="44.224740580169026" lon="10.111172812172871"><ele>244.25</ele><time>2026-05-03T08:46:08.766Z</time></trkpt><trkpt lat="44.22474466552252" lon="10.111397161493697"><ele>245.5</ele><time>2026-05-03T08:46:09.765Z</time></trkpt><trkpt lat="44.22475478321609" lon="10.111594881390863"><ele>246.75</ele><time>2026-05-03T08:46:10.765Z</time></trkpt><trkpt lat="44.22478957423017" lon="10.111769441414214"><ele>248.0</ele><time>2026-05-03T08:46:11.765Z</time></trkpt><trkpt lat="44.224867888413165" lon="10.111923148139331"><ele>244.33333333333334</ele><time>2026-05-03T08:46:12.765Z</time></trkpt><trkpt lat="44.2249748997819" lon="10.112038207135793"><ele>240.66666666666669</ele><time>2026-05-03T08:46:13.765Z</time></trkpt><trkpt lat="44.22511638912139" lon="10.112101628800454"><ele>237.0</ele><time>2026-05-03T08:46:14.765Z</time></trkpt><trkpt lat="44.22529239049125" lon="10.112113192679102"><ele>237.0</ele><time>2026-05-03T08:46:15.765Z</time></trkpt><trkpt lat="44.22546037418084" lon="10.112159007842903"><ele>237.0</ele><time>2026-05-03T08:46:16.765Z</time></trkpt><trkpt lat="44.225597028011414" lon="10.112243474733587"><ele>237.0</ele><time>2026-05-03T08:46:17.765Z</time></trkpt><trkpt lat="44.225688430778746" lon="10.112356239940665"><ele>237.0</ele><time>2026-05-03T08:46:18.765Z</time></trkpt><trkpt lat="44.22574542207918" lon="10.112526987811085"><ele>235.66666666666669</ele><time>2026-05-03T08:46:19.765Z</time></trkpt><trkpt lat="44.22575243511824" lon="10.112729817299728"><ele>234.33333333333334</ele><time>2026-05-03T08:46:20.765Z</time></trkpt><trkpt lat="44.2257161536136" lon="10.112939737231663"><ele>233.0</ele><time>2026-05-03T08:46:21.765Z</time></trkpt><trkpt lat="44.22564966551311" lon="10.113165401903505"><ele>239.0</ele><time>2026-05-03T08:46:22.765Z</time></trkpt><trkpt lat="44.225563685685636" lon="10.113408130738327"><ele>245.0</ele><time>2026-05-03T08:46:23.765Z</time></trkpt><trkpt lat="44.22547598070253" lon="10.113641885606462"><ele>251.0</ele><time>2026-05-03T08:46:24.765Z</time></trkpt><trkpt lat="44.225400226236886" lon="10.113869422386431"><ele>250.0</ele><time>2026-05-03T08:46:25.765Z</time></trkpt><trkpt lat="44.22533433392388" lon="10.114105608267383"><ele>249.0</ele><time>2026-05-03T08:46:26.765Z</time></trkpt><trkpt lat="44.225290571202656" lon="10.114337520473846"><ele>248.0</ele><time>2026-05-03T08:46:27.765Z</time></trkpt><trkpt lat="44.2252665426908" lon="10.114589529950619"><ele>248.0</ele><time>2026-05-03T08:46:28.765Z</time></trkpt><trkpt lat="44.22528511923147" lon="10.114855695563593"><ele>248.0</ele><time>2026-05-03T08:46:29.765Z</time></trkpt><trkpt lat="44.22533004664456" lon="10.115109864964673"><ele>248.0</ele><time>2026-05-03T08:46:30.765Z</time></trkpt><trkpt lat="44.22539828205693" lon="10.115359268034922"><ele>247.33333333333334</ele><time>2026-05-03T08:46:31.765Z</time></trkpt><trkpt lat="44.22548382100727" lon="10.115609706977889"><ele>246.66666666666669</ele><time>2026-05-03T08:46:32.765Z</time></trkpt><trkpt lat="44.22561087695009" lon="10.115872831009765"><ele>246.0</ele><time>2026-05-03T08:46:33.765Z</time></trkpt><trkpt lat="44.22577394030241" lon="10.11612218273479"><ele>246.0</ele><time>2026-05-03T08:46:34.765Z</time></trkpt><trkpt lat="44.22594179904277" lon="10.11638047958367"><ele>246.0</ele><time>2026-05-03T08:46:35.765Z</time></trkpt><trkpt lat="44.22610551182337" lon="10.116634861070528"><ele>245.33333333333331</ele><time>2026-05-03T08:46:36.765Z</time></trkpt><trkpt lat="44.22624704852143" lon="10.11685603955749"><ele>244.66666666666666</ele><time>2026-05-03T08:46:37.765Z</time></trkpt><trkpt lat="44.22638595101831" lon="10.11704377416065"><ele>244.0</ele><time>2026-05-03T08:46:38.765Z</time></trkpt><trkpt lat="44.22653785888387" lon="10.117210483749746"><ele>244.0</ele><time>2026-05-03T08:46:39.765Z</time></trkpt><trkpt lat="44.22670571861825" lon="10.117348004316804"><ele>244.0</ele><time>2026-05-03T08:46:40.765Z</time></trkpt><trkpt lat="44.22689528326994" lon="10.117437783349752"><ele>244.0</ele><time>2026-05-03T08:46:41.765Z</time></trkpt><trkpt lat="44.22708934392912" lon="10.117484881096672"><ele>245.0</ele><time>2026-05-03T08:46:42.765Z</time></trkpt><trkpt lat="44.22729099514665" lon="10.117494787624235"><ele>246.0</ele><time>2026-05-03T08:46:43.765Z</time></trkpt><trkpt lat="44.22748851680069" lon="10.117467963522168"><ele>247.0</ele><time>2026-05-03T08:46:44.765Z</time></trkpt><trkpt lat="44.227690824150855" lon="10.117405875669949"><ele>245.66666666666666</ele><time>2026-05-03T08:46:45.765Z</time></trkpt><trkpt lat="44.22789357549575" lon="10.117315294254258"><ele>244.33333333333331</ele><time>2026-05-03T08:46:46.765Z</time></trkpt><trkpt lat="44.22808462074943" lon="10.11721509303984"><ele>243.0</ele><time>2026-05-03T08:46:47.765Z</time></trkpt><trkpt lat="44.22826559303235" lon="10.117133910139886"><ele>248.66666666666669</ele><time>2026-05-03T08:46:48.765Z</time></trkpt><trkpt lat="44.22843388741914" lon="10.117083593075556"><ele>254.33333333333334</ele><time>2026-05-03T08:46:49.765Z</time></trkpt><trkpt lat="44.22861417112463" lon="10.117066602523801"><ele>260.0</ele><time>2026-05-03T08:46:50.765Z</time></trkpt><trkpt lat="44.228795838608654" lon="10.117083770375407"><ele>258.33333333333337</ele><time>2026-05-03T08:46:51.765Z</time></trkpt><trkpt lat="44.22898312525156" lon="10.117154914040997"><ele>256.6666666666667</ele><time>2026-05-03T08:46:52.765Z</time></trkpt><trkpt lat="44.22916761771007" lon="10.117267100021232"><ele>255.0</ele><time>2026-05-03T08:46:53.765Z</time></trkpt><trkpt lat="44.22934822621167" lon="10.11738925682938"><ele>259.6666666666667</ele><time>2026-05-03T08:46:54.765Z</time></trkpt><trkpt lat="44.229504247918015" lon="10.117510993143014"><ele>264.33333333333337</ele><time>2026-05-03T08:46:55.765Z</time></trkpt><trkpt lat="44.229638134945276" lon="10.117666522653133"><ele>269.0</ele><time>2026-05-03T08:46:56.765Z</time></trkpt><trkpt lat="44.22975610009665" lon="10.117856682109307"><ele>270.6666666666667</ele><time>2026-05-03T08:46:57.765Z</time></trkpt><trkpt lat="44.22986541490262" lon="10.118081393214204"><ele>272.3333333333333</ele><time>2026-05-03T08:46:58.765Z</time></trkpt><trkpt lat="44.229980843748855" lon="10.118290878732548"><ele>274.0</ele><time>2026-05-03T08:46:59.765Z</time></trkpt><trkpt lat="44.23009908179368" lon="10.118490225534323"><ele>274.0</ele><time>2026-05-03T08:47:00.765Z</time></trkpt><trkpt lat="44.230225441786985" lon="10.118679217349216"><ele>274.0</ele><time>2026-05-03T08:47:01.765Z</time></trkpt><trkpt lat="44.230364622522686" lon="10.118848036497198"><ele>274.0</ele><time>2026-05-03T08:47:02.765Z</time></trkpt><trkpt lat="44.23053297056077" lon="10.118984882174502"><ele>274.0</ele><time>2026-05-03T08:47:03.765Z</time></trkpt><trkpt lat="44.23068916421376" lon="10.119112276180212"><ele>274.0</ele><time>2026-05-03T08:47:04.765Z</time></trkpt><trkpt lat="44.2308257554006" lon="10.119252198812491"><ele>274.0</ele><time>2026-05-03T08:47:05.765Z</time></trkpt><trkpt lat="44.23094709762285" lon="10.11944153218048"><ele>274.0</ele><time>2026-05-03T08:47:06.765Z</time></trkpt><trkpt lat="44.23106961804559" lon="10.119682219290464"><ele>274.0</ele><time>2026-05-03T08:47:07.765Z</time></trkpt><trkpt lat="44.231194146656875" lon="10.119945460748525"><ele>274.0</ele><time>2026-05-03T08:47:08.765Z</time></trkpt><trkpt lat="44.23131688051685" lon="10.12022204052287"><ele>275.3333333333333</ele><time>2026-05-03T08:47:09.765Z</time></trkpt><trkpt lat="44.23143778664746" lon="10.120483293006556"><ele>276.6666666666667</ele><time>2026-05-03T08:47:10.765Z</time></trkpt><trkpt lat="44.23154759615835" lon="10.120713276087208"><ele>278.0</ele><time>2026-05-03T08:47:11.765Z</time></trkpt><trkpt lat="44.23165505155631" lon="10.120926884118662"><ele>278.0</ele><time>2026-05-03T08:47:12.765Z</time></trkpt><trkpt lat="44.23174892970698" lon="10.121144919358168"><ele>278.0</ele><time>2026-05-03T08:47:13.765Z</time></trkpt><trkpt lat="44.23181971447715" lon="10.121385647148195"><ele>278.0</ele><time>2026-05-03T08:47:14.765Z</time></trkpt><trkpt lat="44.23189380106104" lon="10.12164324320434"><ele>281.33333333333337</ele><time>2026-05-03T08:47:15.765Z</time></trkpt><trkpt lat="44.23196881814476" lon="10.12192169601769"><ele>284.6666666666667</ele><time>2026-05-03T08:47:16.765Z</time></trkpt><trkpt lat="44.23204584467609" lon="10.122200683675246"><ele>288.0</ele><time>2026-05-03T08:47:17.765Z</time></trkpt><trkpt lat="44.23211787654746" lon="10.122480892798206"><ele>291.6666666666667</ele><time>2026-05-03T08:47:18.765Z</time></trkpt><trkpt lat="44.232181286360614" lon="10.122739126602138"><ele>295.33333333333337</ele><time>2026-05-03T08:47:19.764Z</time></trkpt><trkpt lat="44.232230123968385" lon="10.12297172005634"><ele>299.0</ele><time>2026-05-03T08:47:20.764Z</time></trkpt><trkpt lat="44.232270853422875" lon="10.123177599804432"><ele>297.25</ele><time>2026-05-03T08:47:21.764Z</time></trkpt><trkpt lat="44.23230759908605" lon="10.123359447215899"><ele>295.5</ele><time>2026-05-03T08:47:22.764Z</time></trkpt><trkpt lat="44.23238114468804" lon="10.123524683618077"><ele>293.75</ele><time>2026-05-03T08:47:23.764Z</time></trkpt><trkpt lat="44.232506142356236" lon="10.12365824535856"><ele>292.0</ele><time>2026-05-03T08:47:24.763Z</time></trkpt><trkpt lat="44.232646796666614" lon="10.123751080547516"><ele>292.0</ele><time>2026-05-03T08:47:25.763Z</time></trkpt><trkpt lat="44.23280508214292" lon="10.12379938799627"><ele>292.0</ele><time>2026-05-03T08:47:26.763Z</time></trkpt><trkpt lat="44.232971430672826" lon="10.12378513533314"><ele>292.0</ele><time>2026-05-03T08:47:27.763Z</time></trkpt><trkpt lat="44.23312258838554" lon="10.123721460568028"><ele>293.0</ele><time>2026-05-03T08:47:28.763Z</time></trkpt><trkpt lat="44.23325327676777" lon="10.123611442782149"><ele>294.0</ele><time>2026-05-03T08:47:29.763Z</time></trkpt><trkpt lat="44.23336104986848" lon="10.123450860493428"><ele>295.0</ele><time>2026-05-03T08:47:30.763Z</time></trkpt><trkpt lat="44.23343771220262" lon="10.123240807192389"><ele>293.3333333333333</ele><time>2026-05-03T08:47:31.763Z</time></trkpt><trkpt lat="44.233486460365896" lon="10.122996031310427"><ele>291.6666666666667</ele><time>2026-05-03T08:47:32.763Z</time></trkpt><trkpt lat="44.233513029070714" lon="10.122730031645448"><ele>290.0</ele><time>2026-05-03T08:47:33.763Z</time></trkpt><trkpt lat="44.23354580514519" lon="10.12248015099162"><ele>289.25</ele><time>2026-05-03T08:47:34.763Z</time></trkpt><trkpt lat="44.23359559568245" lon="10.122280345624285"><ele>288.5</ele><time>2026-05-03T08:47:35.763Z</time></trkpt><trkpt lat="44.23366840289411" lon="10.122120335190663"><ele>287.75</ele><time>2026-05-03T08:47:36.763Z</time></trkpt><trkpt lat="44.2337731152208" lon="10.12198595047881"><ele>287.0</ele><time>2026-05-03T08:47:37.763Z</time></trkpt><trkpt lat="44.23390350579565" lon="10.121898324872063"><ele>288.25</ele><time>2026-05-03T08:47:38.763Z</time></trkpt><trkpt lat="44.23404526999223" lon="10.121877506737302"><ele>289.5</ele><time>2026-05-03T08:47:39.763Z</time></trkpt><trkpt lat="44.2341806223231" lon="10.121927448685842"><ele>290.75</ele><time>2026-05-03T08:47:40.763Z</time></trkpt><trkpt lat="44.234298440309495" lon="10.122042018374884"><ele>292.0</ele><time>2026-05-03T08:47:41.763Z</time></trkpt><trkpt lat="44.234391980261606" lon="10.12220824731654"><ele>297.3333333333333</ele><time>2026-05-03T08:47:42.763Z</time></trkpt><trkpt lat="44.234465518448495" lon="10.122402423237599"><ele>302.6666666666667</ele><time>2026-05-03T08:47:43.763Z</time></trkpt><trkpt lat="44.23454732835771" lon="10.122586951852323"><ele>308.0</ele><time>2026-05-03T08:47:44.763Z</time></trkpt><trkpt lat="44.23466222125237" lon="10.122726757561503"><ele>308.0</ele><time>2026-05-03T08:47:45.763Z</time></trkpt><trkpt lat="44.23476866807221" lon="10.1228181476778"><ele>308.0</ele><time>2026-05-03T08:47:46.763Z</time></trkpt><trkpt lat="44.23484765881563" lon="10.122874768880248"><ele>308.0</ele><time>2026-05-03T08:47:47.763Z</time></trkpt><trkpt lat="44.23491464471208" lon="10.122918562146259"><ele>308.0</ele><time>2026-05-03T08:47:48.763Z</time></trkpt><trkpt lat="44.23501112650923" lon="10.122982556790403"><ele>308.0</ele><time>2026-05-03T08:47:50.763Z</time></trkpt><trkpt lat="44.235138579328584" lon="10.122959581727722"><ele>307.0</ele><time>2026-05-03T08:47:52.763Z</time></trkpt><trkpt lat="44.235210423042226" lon="10.122935138313046"><ele>306.0</ele><time>2026-05-03T08:47:53.763Z</time></trkpt><trkpt lat="44.235303104951484" lon="10.122897452315213"><ele>305.0</ele><time>2026-05-03T08:47:54.763Z</time></trkpt><trkpt lat="44.23548882976048" lon="10.122770162627736"><ele>304.0</ele><time>2026-05-03T08:47:56.763Z</time></trkpt><trkpt lat="44.23556734339354" lon="10.122695823751286"><ele>304.0</ele><time>2026-05-03T08:47:57.763Z</time></trkpt><trkpt lat="44.235634802329294" lon="10.12261600617465"><ele>304.0</ele><time>2026-05-03T08:47:58.763Z</time></trkpt><trkpt lat="44.23570067470571" lon="10.122520673580906"><ele>304.0</ele><time>2026-05-03T08:47:59.763Z</time></trkpt><trkpt lat="44.23575173112054" lon="10.122411096144575"><ele>304.0</ele><time>2026-05-03T08:48:00.763Z</time></trkpt><trkpt lat="44.235787847402" lon="10.122312342546968"><ele>304.0</ele><time>2026-05-03T08:48:01.763Z</time></trkpt><trkpt lat="44.2358534485663" lon="10.12220120806996"><ele>303.66666666666663</ele><time>2026-05-03T08:48:03.763Z</time></trkpt><trkpt lat="44.235897555189624" lon="10.122129648115527"><ele>303.3333333333333</ele><time>2026-05-03T08:48:05.763Z</time></trkpt><trkpt lat="44.23600508252662" lon="10.122036632038428"><ele>303.0</ele><time>2026-05-03T08:48:07.763Z</time></trkpt><trkpt lat="44.23610225890148" lon="10.12196680748665"><ele>302.6666666666667</ele><time>2026-05-03T08:48:09.762Z</time></trkpt><trkpt lat="44.23616208027636" lon="10.1219301917778"><ele>302.33333333333337</ele><time>2026-05-03T08:48:10.762Z</time></trkpt><trkpt lat="44.23623018064207" lon="10.1219204103211"><ele>302.0</ele><time>2026-05-03T08:48:11.762Z</time></trkpt><trkpt lat="44.23633676625105" lon="10.121939391066556"><ele>302.0</ele><time>2026-05-03T08:48:13.762Z</time></trkpt><trkpt lat="44.2364108358442" lon="10.121985982651282"><ele>302.0</ele><time>2026-05-03T08:48:16.762Z</time></trkpt><trkpt lat="44.23645671645947" lon="10.122064336133258"><ele>302.0</ele><time>2026-05-03T08:48:18.762Z</time></trkpt><trkpt lat="44.236441060086385" lon="10.12220111222417"><ele>302.0</ele><time>2026-05-03T08:48:20.762Z</time></trkpt><trkpt lat="44.23648478158652" lon="10.122315847225451"><ele>302.0</ele><time>2026-05-03T08:48:22.762Z</time></trkpt><trkpt lat="44.23655801603623" lon="10.122380129824915"><ele>302.0</ele><time>2026-05-03T08:48:24.762Z</time></trkpt><trkpt lat="44.23664494738215" lon="10.122469839238205"><ele>304.8</ele><time>2026-05-03T08:48:26.762Z</time></trkpt><trkpt lat="44.23672043847542" lon="10.122550036363211"><ele>307.6</ele><time>2026-05-03T08:48:28.762Z</time></trkpt><trkpt lat="44.236811043319385" lon="10.122556704699168"><ele>310.40000000000003</ele><time>2026-05-03T08:48:30.762Z</time></trkpt><trkpt lat="44.236909195213975" lon="10.122611188456023"><ele>313.2</ele><time>2026-05-03T08:48:32.762Z</time></trkpt><trkpt lat="44.23697641110824" lon="10.122682172405003"><ele>316.0</ele><time>2026-05-03T08:48:34.762Z</time></trkpt><trkpt lat="44.23703751332302" lon="10.12276231041509"><ele>316.0</ele><time>2026-05-03T08:48:37.762Z</time></trkpt><trkpt lat="44.237106793924994" lon="10.12282770423494"><ele>316.0</ele><time>2026-05-03T08:48:40.762Z</time></trkpt><trkpt lat="44.23715662314466" lon="10.122901540431851"><ele>316.0</ele><time>2026-05-03T08:48:44.762Z</time></trkpt><trkpt lat="44.23711040699498" lon="10.122805590653742"><ele>316.0</ele><time>2026-05-03T08:49:00.762Z</time></trkpt><trkpt lat="44.23704096175972" lon="10.122727947836724"><ele>316.0</ele><time>2026-05-03T08:49:03.762Z</time></trkpt><trkpt lat="44.23695124186575" lon="10.122643622832197"><ele>316.0</ele><time>2026-05-03T08:49:05.762Z</time></trkpt><trkpt lat="44.236880885364876" lon="10.122571237288646"><ele>316.0</ele><time>2026-05-03T08:49:07.762Z</time></trkpt><trkpt lat="44.23681249623044" lon="10.122528283488952"><ele>316.0</ele><time>2026-05-03T08:49:08.762Z</time></trkpt><trkpt lat="44.236748517616164" lon="10.1224931024942"><ele>316.0</ele><time>2026-05-03T08:49:09.762Z</time></trkpt><trkpt lat="44.23665088952989" lon="10.12246434256981"><ele>316.0</ele><time>2026-05-03T08:49:11.762Z</time></trkpt><trkpt lat="44.23657380534542" lon="10.122372128280062"><ele>316.0</ele><time>2026-05-03T08:49:13.762Z</time></trkpt><trkpt lat="44.23652402993477" lon="10.122296997807458"><ele>316.0</ele><time>2026-05-03T08:49:15.762Z</time></trkpt><trkpt lat="44.23654869355283" lon="10.122197335695265"><ele>315.3333333333333</ele><time>2026-05-03T08:49:17.762Z</time></trkpt><trkpt lat="44.236554997191504" lon="10.122106639166091"><ele>314.66666666666663</ele><time>2026-05-03T08:49:20.761Z</time></trkpt><trkpt lat="44.23649654491103" lon="10.122011381204533"><ele>314.0</ele><time>2026-05-03T08:49:23.761Z</time></trkpt><trkpt lat="44.23639332878074" lon="10.121997757682"><ele>313.3333333333333</ele><time>2026-05-03T08:49:25.761Z</time></trkpt><trkpt lat="44.236301629378" lon="10.122002752205098"><ele>312.6666666666667</ele><time>2026-05-03T08:49:26.761Z</time></trkpt><trkpt lat="44.236218101221894" lon="10.122008546144365"><ele>312.0</ele><time>2026-05-03T08:49:27.761Z</time></trkpt><trkpt lat="44.23615272519359" lon="10.122016857709813"><ele>310.0</ele><time>2026-05-03T08:49:28.761Z</time></trkpt><trkpt lat="44.23605540304027" lon="10.122051853236288"><ele>308.0</ele><time>2026-05-03T08:49:30.761Z</time></trkpt><trkpt lat="44.236004143506" lon="10.122103824412088"><ele>306.0</ele><time>2026-05-03T08:49:31.76Z</time></trkpt><trkpt lat="44.23594306691763" lon="10.122174638590383"><ele>304.0</ele><time>2026-05-03T08:49:32.76Z</time></trkpt><trkpt lat="44.235885288162535" lon="10.122274371843792"><ele>302.0</ele><time>2026-05-03T08:49:33.76Z</time></trkpt><trkpt lat="44.23580560694004" lon="10.122396924686964"><ele>302.4</ele><time>2026-05-03T08:49:34.76Z</time></trkpt><trkpt lat="44.235727386626465" lon="10.122512193498304"><ele>302.79999999999995</ele><time>2026-05-03T08:49:35.76Z</time></trkpt><trkpt lat="44.235658599730634" lon="10.122620845027136"><ele>303.2</ele><time>2026-05-03T08:49:36.76Z</time></trkpt><trkpt lat="44.23558593205011" lon="10.122715193800191"><ele>303.59999999999997</ele><time>2026-05-03T08:49:37.76Z</time></trkpt><trkpt lat="44.23550397513225" lon="10.12279767065991"><ele>304.0</ele><time>2026-05-03T08:49:38.76Z</time></trkpt><trkpt lat="44.23541186466075" lon="10.122855424765982"><ele>304.0</ele><time>2026-05-03T08:49:39.76Z</time></trkpt><trkpt lat="44.23531943421517" lon="10.122884753038386"><ele>304.0</ele><time>2026-05-03T08:49:40.76Z</time></trkpt><trkpt lat="44.23524176604566" lon="10.122895009453288"><ele>304.0</ele><time>2026-05-03T08:49:41.76Z</time></trkpt><trkpt lat="44.23514319095696" lon="10.122920409596558"><ele>304.0</ele><time>2026-05-03T08:49:43.76Z</time></trkpt><trkpt lat="44.23508801089041" lon="10.122977482544592"><ele>304.0</ele><time>2026-05-03T08:49:46.76Z</time></trkpt><trkpt lat="44.2351174275858" lon="10.12312332693012"><ele>304.0</ele><time>2026-05-03T08:49:48.76Z</time></trkpt><trkpt lat="44.23520203758581" lon="10.123205233081396"><ele>304.0</ele><time>2026-05-03T08:49:49.759Z</time></trkpt><trkpt lat="44.23527925459879" lon="10.123294812472253"><ele>304.0</ele><time>2026-05-03T08:49:50.759Z</time></trkpt><trkpt lat="44.23537149377218" lon="10.123418822070047"><ele>304.0</ele><time>2026-05-03T08:49:51.759Z</time></trkpt><trkpt lat="44.23546772173607" lon="10.123551255935725"><ele>305.66666666666663</ele><time>2026-05-03T08:49:52.759Z</time></trkpt><trkpt lat="44.23557668051417" lon="10.123703053191356"><ele>307.3333333333333</ele><time>2026-05-03T08:49:53.759Z</time></trkpt><trkpt lat="44.2357005549201" lon="10.123864753784037"><ele>309.0</ele><time>2026-05-03T08:49:54.759Z</time></trkpt><trkpt lat="44.23582976939768" lon="10.124036056226913"><ele>313.3333333333333</ele><time>2026-05-03T08:49:55.759Z</time></trkpt><trkpt lat="44.235960511177325" lon="10.124213029652285"><ele>317.66666666666663</ele><time>2026-05-03T08:49:56.759Z</time></trkpt><trkpt lat="44.23608832207004" lon="10.124383840503745"><ele>322.0</ele><time>2026-05-03T08:49:57.759Z</time></trkpt><trkpt lat="44.2362110788843" lon="10.124550962717354"><ele>322.0</ele><time>2026-05-03T08:49:58.759Z</time></trkpt><trkpt lat="44.23633446226127" lon="10.124707717151043"><ele>322.0</ele><time>2026-05-03T08:49:59.759Z</time></trkpt><trkpt lat="44.23644648689373" lon="10.12487127065514"><ele>322.0</ele><time>2026-05-03T08:50:00.759Z</time></trkpt><trkpt lat="44.236560589908485" lon="10.125022684195162"><ele>323.75</ele><time>2026-05-03T08:50:01.759Z</time></trkpt><trkpt lat="44.23667131600574" lon="10.125173679839385"><ele>325.5</ele><time>2026-05-03T08:50:02.759Z</time></trkpt><trkpt lat="44.236773479112216" lon="10.125321393429921"><ele>327.25</ele><time>2026-05-03T08:50:03.759Z</time></trkpt><trkpt lat="44.23687760919742" lon="10.125460257876133"><ele>329.0</ele><time>2026-05-03T08:50:04.759Z</time></trkpt><trkpt lat="44.236980774730185" lon="10.125601579318014"><ele>329.5</ele><time>2026-05-03T08:50:05.759Z</time></trkpt><trkpt lat="44.2370799192644" lon="10.125745203243374"><ele>330.0</ele><time>2026-05-03T08:50:06.759Z</time></trkpt><trkpt lat="44.23717681663072" lon="10.125884572598464"><ele>330.5</ele><time>2026-05-03T08:50:07.759Z</time></trkpt><trkpt lat="44.23726784131909" lon="10.126024656699638"><ele>331.0</ele><time>2026-05-03T08:50:08.759Z</time></trkpt><trkpt lat="44.23735914976154" lon="10.126158771400203"><ele>331.0</ele><time>2026-05-03T08:50:09.759Z</time></trkpt><trkpt lat="44.23744030443101" lon="10.12629040056984"><ele>331.0</ele><time>2026-05-03T08:50:10.759Z</time></trkpt><trkpt lat="44.23750933055424" lon="10.126404361522948"><ele>331.0</ele><time>2026-05-03T08:50:11.759Z</time></trkpt><trkpt lat="44.23757339920759" lon="10.12650937970325"><ele>331.0</ele><time>2026-05-03T08:50:12.759Z</time></trkpt><trkpt lat="44.23763667421246" lon="10.126612921663321"><ele>331.0</ele><time>2026-05-03T08:50:13.759Z</time></trkpt><trkpt lat="44.23769076089049" lon="10.126695599072587"><ele>332.3333333333333</ele><time>2026-05-03T08:50:14.759Z</time></trkpt><trkpt lat="44.23775618467553" lon="10.126810627545229"><ele>333.66666666666663</ele><time>2026-05-03T08:50:16.759Z</time></trkpt><trkpt lat="44.23781972396307" lon="10.12686209910263"><ele>335.0</ele><time>2026-05-03T08:50:32.759Z</time></trkpt><trkpt lat="44.23787928084955" lon="10.126911927541931"><ele>336.3333333333333</ele><time>2026-05-03T08:50:34.759Z</time></trkpt><trkpt lat="44.2379811727093" lon="10.126830917920195"><ele>337.6666666666667</ele><time>2026-05-03T08:50:36.759Z</time></trkpt><trkpt lat="44.23800987877704" lon="10.126744040554977"><ele>339.0</ele><time>2026-05-03T08:50:37.759Z</time></trkpt><trkpt lat="44.23803980951359" lon="10.126661761918475"><ele>339.0</ele><time>2026-05-03T08:50:38.759Z</time></trkpt><trkpt lat="44.23807517639035" lon="10.126573645867285"><ele>339.0</ele><time>2026-05-03T08:50:39.759Z</time></trkpt><trkpt lat="44.23811705797575" lon="10.12647330296491"><ele>339.0</ele><time>2026-05-03T08:50:40.759Z</time></trkpt><trkpt lat="44.23816663539288" lon="10.126365265505465"><ele>339.0</ele><time>2026-05-03T08:50:41.759Z</time></trkpt><trkpt lat="44.23821562367363" lon="10.126250745418416"><ele>339.0</ele><time>2026-05-03T08:50:42.759Z</time></trkpt><trkpt lat="44.23826454256953" lon="10.126137537893134"><ele>339.0</ele><time>2026-05-03T08:50:43.759Z</time></trkpt><trkpt lat="44.23831267952717" lon="10.12603298064404"><ele>338.3333333333333</ele><time>2026-05-03T08:50:44.759Z</time></trkpt><trkpt lat="44.238359823620634" lon="10.12593134703668"><ele>337.6666666666667</ele><time>2026-05-03T08:50:45.759Z</time></trkpt><trkpt lat="44.238409099470445" lon="10.125831388770234"><ele>337.0</ele><time>2026-05-03T08:50:46.759Z</time></trkpt><trkpt lat="44.238451857280445" lon="10.12572784327894"><ele>336.33333333333337</ele><time>2026-05-03T08:50:47.759Z</time></trkpt><trkpt lat="44.238495180280886" lon="10.125618268700602"><ele>335.6666666666667</ele><time>2026-05-03T08:50:48.759Z</time></trkpt><trkpt lat="44.2385354910539" lon="10.125523060119088"><ele>335.0</ele><time>2026-05-03T08:50:49.759Z</time></trkpt><trkpt lat="44.23857383912508" lon="10.125431599694558"><ele>334.6666666666667</ele><time>2026-05-03T08:50:50.759Z</time></trkpt><trkpt lat="44.238630286343486" lon="10.125306682099579"><ele>334.33333333333337</ele><time>2026-05-03T08:50:52.759Z</time></trkpt><trkpt lat="44.23865475898158" lon="10.125221975863266"><ele>334.0</ele><time>2026-05-03T08:50:57.759Z</time></trkpt><trkpt lat="44.2386872997236" lon="10.125133933329941"><ele>333.6666666666667</ele><time>2026-05-03T08:50:59.758Z</time></trkpt><trkpt lat="44.23872392713017" lon="10.125060497463293"><ele>333.3333333333333</ele><time>2026-05-03T08:51:00.758Z</time></trkpt><trkpt lat="44.23877194052056" lon="10.124976979876736"><ele>333.0</ele><time>2026-05-03T08:51:01.758Z</time></trkpt><trkpt lat="44.23881864728983" lon="10.124875238487165"><ele>332.4</ele><time>2026-05-03T08:51:02.758Z</time></trkpt><trkpt lat="44.23886641821195" lon="10.124758569088172"><ele>331.79999999999995</ele><time>2026-05-03T08:51:03.758Z</time></trkpt><trkpt lat="44.23891816807882" lon="10.124633734925657"><ele>331.2</ele><time>2026-05-03T08:51:04.758Z</time></trkpt><trkpt lat="44.23896695366115" lon="10.124528363843394"><ele>330.6</ele><time>2026-05-03T08:51:05.758Z</time></trkpt><trkpt lat="44.239002586046915" lon="10.124426936526437"><ele>330.0</ele><time>2026-05-03T08:51:06.758Z</time></trkpt><trkpt lat="44.23904511530703" lon="10.124324062518612"><ele>330.0</ele><time>2026-05-03T08:51:07.758Z</time></trkpt><trkpt lat="44.23908433150671" lon="10.124230905608885"><ele>330.0</ele><time>2026-05-03T08:51:08.758Z</time></trkpt><trkpt lat="44.239122811651555" lon="10.12415622065819"><ele>330.0</ele><time>2026-05-03T08:51:09.758Z</time></trkpt><trkpt lat="44.2392016671787" lon="10.124064110040175"><ele>330.0</ele><time>2026-05-03T08:51:11.758Z</time></trkpt><trkpt lat="44.23927245957136" lon="10.124055642495085"><ele>330.0</ele><time>2026-05-03T08:51:13.758Z</time></trkpt><trkpt lat="44.239374646619915" lon="10.124192489738784"><ele>330.0</ele><time>2026-05-03T08:51:15.758Z</time></trkpt><trkpt lat="44.23943590156106" lon="10.124286362944254"><ele>330.0</ele><time>2026-05-03T08:51:16.758Z</time></trkpt><trkpt lat="44.23951702196437" lon="10.12437873037909"><ele>330.0</ele><time>2026-05-03T08:51:17.758Z</time></trkpt><trkpt lat="44.23959804993388" lon="10.12447623698708"><ele>330.0</ele><time>2026-05-03T08:51:18.758Z</time></trkpt><trkpt lat="44.23967696342632" lon="10.124585173011107"><ele>330.0</ele><time>2026-05-03T08:51:19.758Z</time></trkpt><trkpt lat="44.239744852209" lon="10.1246999337684"><ele>329.6</ele><time>2026-05-03T08:51:20.758Z</time></trkpt><trkpt lat="44.23980143085659" lon="10.124805541436555"><ele>329.2</ele><time>2026-05-03T08:51:21.758Z</time></trkpt><trkpt lat="44.23985534432746" lon="10.124908065830244"><ele>328.79999999999995</ele><time>2026-05-03T08:51:22.758Z</time></trkpt><trkpt lat="44.2399319439352" lon="10.124979786980749"><ele>328.4</ele><time>2026-05-03T08:51:23.758Z</time></trkpt><trkpt lat="44.24003551407361" lon="10.125027720868687"><ele>328.0</ele><time>2026-05-03T08:51:24.758Z</time></trkpt><trkpt lat="44.240136778990326" lon="10.125070981061755"><ele>328.0</ele><time>2026-05-03T08:51:25.758Z</time></trkpt><trkpt lat="44.2402434199166" lon="10.125103157391889"><ele>328.0</ele><time>2026-05-03T08:51:26.758Z</time></trkpt><trkpt lat="44.24035729327069" lon="10.125134464058252"><ele>328.0</ele><time>2026-05-03T08:51:27.758Z</time></trkpt><trkpt lat="44.240465062026566" lon="10.125183678894548"><ele>328.0</ele><time>2026-05-03T08:51:28.758Z</time></trkpt><trkpt lat="44.24057398413793" lon="10.125251079240739"><ele>325.79999999999995</ele><time>2026-05-03T08:51:29.758Z</time></trkpt><trkpt lat="44.24067359912545" lon="10.125318956577091"><ele>323.59999999999997</ele><time>2026-05-03T08:51:30.758Z</time></trkpt><trkpt lat="44.240758761132156" lon="10.125384811406011"><ele>321.4</ele><time>2026-05-03T08:51:31.758Z</time></trkpt><trkpt lat="44.24084776318913" lon="10.125434920807686"><ele>319.2</ele><time>2026-05-03T08:51:32.758Z</time></trkpt><trkpt lat="44.24094896168532" lon="10.125467218979228"><ele>317.0</ele><time>2026-05-03T08:51:33.758Z</time></trkpt><trkpt lat="44.241043249911925" lon="10.12547840050184"><ele>317.0</ele><time>2026-05-03T08:51:34.758Z</time></trkpt><trkpt lat="44.241127107241304" lon="10.125496787122925"><ele>317.0</ele><time>2026-05-03T08:51:35.758Z</time></trkpt><trkpt lat="44.24120148235387" lon="10.12551418987833"><ele>317.0</ele><time>2026-05-03T08:51:36.757Z</time></trkpt><trkpt lat="44.24132262768785" lon="10.12561752504083"><ele>317.0</ele><time>2026-05-03T08:51:38.757Z</time></trkpt><trkpt lat="44.24138476676981" lon="10.125717055228693"><ele>317.0</ele><time>2026-05-03T08:51:39.757Z</time></trkpt><trkpt lat="44.24144057220702" lon="10.12584226305557"><ele>317.0</ele><time>2026-05-03T08:51:40.757Z</time></trkpt><trkpt lat="44.241493851937506" lon="10.125988534269224"><ele>317.0</ele><time>2026-05-03T08:51:41.757Z</time></trkpt><trkpt lat="44.241552196094524" lon="10.12613690630498"><ele>317.0</ele><time>2026-05-03T08:51:42.757Z</time></trkpt><trkpt lat="44.24162584585646" lon="10.126270735873051"><ele>317.0</ele><time>2026-05-03T08:51:43.757Z</time></trkpt><trkpt lat="44.24171300656137" lon="10.126395668472787"><ele>317.0</ele><time>2026-05-03T08:51:44.757Z</time></trkpt><trkpt lat="44.24180520021964" lon="10.12652227764715"><ele>317.0</ele><time>2026-05-03T08:51:45.756Z</time></trkpt><trkpt lat="44.24190093547746" lon="10.12665451174843"><ele>317.0</ele><time>2026-05-03T08:51:46.757Z</time></trkpt><trkpt lat="44.2420199134475" lon="10.126745709989027"><ele>317.0</ele><time>2026-05-03T08:51:47.757Z</time></trkpt><trkpt lat="44.24214988707059" lon="10.12680976951211"><ele>315.25</ele><time>2026-05-03T08:51:48.756Z</time></trkpt><trkpt lat="44.24228563399124" lon="10.126862681766626"><ele>313.5</ele><time>2026-05-03T08:51:49.756Z</time></trkpt><trkpt lat="44.24238602212479" lon="10.126935065042828"><ele>311.75</ele><time>2026-05-03T08:51:50.756Z</time></trkpt><trkpt lat="44.24249846740064" lon="10.127054403371563"><ele>310.0</ele><time>2026-05-03T08:51:51.756Z</time></trkpt><trkpt lat="44.24261640827743" lon="10.127179558968857"><ele>310.0</ele><time>2026-05-03T08:51:52.756Z</time></trkpt><trkpt lat="44.242733962617976" lon="10.127295156316285"><ele>310.0</ele><time>2026-05-03T08:51:53.756Z</time></trkpt><trkpt lat="44.24284074777035" lon="10.127392417039832"><ele>310.0</ele><time>2026-05-03T08:51:54.756Z</time></trkpt><trkpt lat="44.24291977943227" lon="10.127484951635273"><ele>310.0</ele><time>2026-05-03T08:51:55.756Z</time></trkpt><trkpt lat="44.24297832967125" lon="10.127586571662745"><ele>317.75</ele><time>2026-05-03T08:51:56.756Z</time></trkpt><trkpt lat="44.24300780429667" lon="10.127699271609835"><ele>325.5</ele><time>2026-05-03T08:51:57.756Z</time></trkpt><trkpt lat="44.243049851957544" lon="10.128007471516664"><ele>333.25</ele><time>2026-05-03T08:51:59.756Z</time></trkpt><trkpt lat="44.24305796975486" lon="10.128200279024783"><ele>341.0</ele><time>2026-05-03T08:52:00.756Z</time></trkpt><trkpt lat="44.2430750949471" lon="10.128409942330393"><ele>343.75</ele><time>2026-05-03T08:52:01.756Z</time></trkpt><trkpt lat="44.24310069715802" lon="10.128632426159308"><ele>346.5</ele><time>2026-05-03T08:52:02.756Z</time></trkpt><trkpt lat="44.24312681401035" lon="10.128835247435283"><ele>349.25</ele><time>2026-05-03T08:52:03.756Z</time></trkpt><trkpt lat="44.243155921955314" lon="10.129021145041715"><ele>352.0</ele><time>2026-05-03T08:52:04.756Z</time></trkpt><trkpt lat="44.243166059855945" lon="10.129195544856508"><ele>344.6</ele><time>2026-05-03T08:52:05.756Z</time></trkpt><trkpt lat="44.24315562149023" lon="10.129345921484987"><ele>337.20000000000005</ele><time>2026-05-03T08:52:06.756Z</time></trkpt><trkpt lat="44.243145685765306" lon="10.129473022422278"><ele>329.8</ele><time>2026-05-03T08:52:07.756Z</time></trkpt><trkpt lat="44.2431563143501" lon="10.129587611520796"><ele>322.4</ele><time>2026-05-03T08:52:08.756Z</time></trkpt><trkpt lat="44.243197845849444" lon="10.129712255711663"><ele>315.0</ele><time>2026-05-03T08:52:09.756Z</time></trkpt><trkpt lat="44.24329551310331" lon="10.129825774454229"><ele>315.4</ele><time>2026-05-03T08:52:10.756Z</time></trkpt><trkpt lat="44.24338648895486" lon="10.129921994417026"><ele>315.8</ele><time>2026-05-03T08:52:11.756Z</time></trkpt><trkpt lat="44.24346805207932" lon="10.130022868444946"><ele>316.2</ele><time>2026-05-03T08:52:12.756Z</time></trkpt><trkpt lat="44.24350740942048" lon="10.13013012546182"><ele>316.6</ele><time>2026-05-03T08:52:13.756Z</time></trkpt><trkpt lat="44.24349698033122" lon="10.130254711738658"><ele>317.0</ele><time>2026-05-03T08:52:14.756Z</time></trkpt><trkpt lat="44.243452663602845" lon="10.130384263947615"><ele>317.0</ele><time>2026-05-03T08:52:15.756Z</time></trkpt><trkpt lat="44.24338627555761" lon="10.130518754417347"><ele>317.0</ele><time>2026-05-03T08:52:16.756Z</time></trkpt><trkpt lat="44.24332591717646" lon="10.130675106228878"><ele>317.0</ele><time>2026-05-03T08:52:17.756Z</time></trkpt><trkpt lat="44.243267020238" lon="10.130832727441497"><ele>317.0</ele><time>2026-05-03T08:52:18.756Z</time></trkpt><trkpt lat="44.243209909995684" lon="10.130973202316108"><ele>316.4</ele><time>2026-05-03T08:52:19.756Z</time></trkpt><trkpt lat="44.24316268982226" lon="10.131071654263646"><ele>315.79999999999995</ele><time>2026-05-03T08:52:20.756Z</time></trkpt><trkpt lat="44.243173269684334" lon="10.13120154021198"><ele>315.2</ele><time>2026-05-03T08:52:22.756Z</time></trkpt><trkpt lat="44.24329473258293" lon="10.13131210485741"><ele>314.59999999999997</ele><time>2026-05-03T08:52:24.756Z</time></trkpt><trkpt lat="44.24338102674686" lon="10.13137503027334"><ele>314.0</ele><time>2026-05-03T08:52:25.756Z</time></trkpt><trkpt lat="44.24344926780811" lon="10.13143491528883"><ele>314.2</ele><time>2026-05-03T08:52:26.756Z</time></trkpt><trkpt lat="44.243475632557086" lon="10.131582902773705"><ele>314.4</ele><time>2026-05-03T08:52:28.756Z</time></trkpt><trkpt lat="44.24342316056066" lon="10.13165076712824"><ele>314.6</ele><time>2026-05-03T08:52:29.756Z</time></trkpt><trkpt lat="44.243345065786855" lon="10.131710632869424"><ele>314.8</ele><time>2026-05-03T08:52:30.756Z</time></trkpt><trkpt lat="44.24328656672131" lon="10.131782580530597"><ele>315.0</ele><time>2026-05-03T08:52:31.756Z</time></trkpt><trkpt lat="44.24327761029597" lon="10.131970467336618"><ele>315.0</ele><time>2026-05-03T08:52:33.756Z</time></trkpt><trkpt lat="44.24333990827366" lon="10.13211411383739"><ele>315.0</ele><time>2026-05-03T08:52:34.756Z</time></trkpt><trkpt lat="44.24342581811289" lon="10.132284964496975"><ele>315.0</ele><time>2026-05-03T08:52:35.756Z</time></trkpt><trkpt lat="44.243491214839366" lon="10.132475579583753"><ele>315.0</ele><time>2026-05-03T08:52:36.756Z</time></trkpt><trkpt lat="44.24353407800784" lon="10.132655314816871"><ele>315.6</ele><time>2026-05-03T08:52:37.756Z</time></trkpt><trkpt lat="44.24356828995207" lon="10.132819618677948"><ele>316.2</ele><time>2026-05-03T08:52:38.756Z</time></trkpt><trkpt lat="44.24358748089933" lon="10.132951799768003"><ele>316.8</ele><time>2026-05-03T08:52:39.756Z</time></trkpt><trkpt lat="44.24360611318853" lon="10.133054387690215"><ele>317.4</ele><time>2026-05-03T08:52:40.756Z</time></trkpt><trkpt lat="44.24367204730642" lon="10.133114468931627"><ele>318.0</ele><time>2026-05-03T08:52:42.756Z</time></trkpt><trkpt lat="44.24373251785619" lon="10.132996411451245"><ele>318.0</ele><time>2026-05-03T08:52:44.756Z</time></trkpt><trkpt lat="44.24370273011344" lon="10.132885149868564"><ele>318.0</ele><time>2026-05-03T08:52:45.756Z</time></trkpt><trkpt lat="44.24365917474456" lon="10.132743869927335"><ele>318.0</ele><time>2026-05-03T08:52:46.756Z</time></trkpt><trkpt lat="44.24363124700457" lon="10.132586101064458"><ele>318.0</ele><time>2026-05-03T08:52:47.756Z</time></trkpt><trkpt lat="44.243603486598104" lon="10.132440007158921"><ele>318.0</ele><time>2026-05-03T08:52:48.755Z</time></trkpt><trkpt lat="44.24357286185486" lon="10.132300516894068"><ele>317.4</ele><time>2026-05-03T08:52:49.755Z</time></trkpt><trkpt lat="44.243556990504636" lon="10.13218944281911"><ele>316.8</ele><time>2026-05-03T08:52:50.755Z</time></trkpt><trkpt lat="44.243588685830446" lon="10.132036031736732"><ele>316.2</ele><time>2026-05-03T08:52:52.755Z</time></trkpt><trkpt lat="44.24364517588069" lon="10.131974854434816"><ele>315.6</ele><time>2026-05-03T08:52:53.755Z</time></trkpt><trkpt lat="44.243728602489654" lon="10.131910429706945"><ele>315.0</ele><time>2026-05-03T08:52:54.755Z</time></trkpt><trkpt lat="44.24381541562999" lon="10.131837743629061"><ele>315.0</ele><time>2026-05-03T08:52:55.755Z</time></trkpt><trkpt lat="44.24389804743064" lon="10.131756096425857"><ele>315.0</ele><time>2026-05-03T08:52:56.755Z</time></trkpt><trkpt lat="44.24396409465448" lon="10.131652673747233"><ele>315.0</ele><time>2026-05-03T08:52:57.755Z</time></trkpt><trkpt lat="44.24401119465567" lon="10.131544137047946"><ele>315.0</ele><time>2026-05-03T08:52:58.755Z</time></trkpt><trkpt lat="44.2440481043296" lon="10.131417146145377"><ele>315.0</ele><time>2026-05-03T08:52:59.755Z</time></trkpt><trkpt lat="44.244071875996816" lon="10.13129093404228"><ele>316.8333333333333</ele><time>2026-05-03T08:53:00.755Z</time></trkpt><trkpt lat="44.24408323509318" lon="10.13117144486736"><ele>318.6666666666667</ele><time>2026-05-03T08:53:01.755Z</time></trkpt><trkpt lat="44.24409497666501" lon="10.13107494701415"><ele>320.5</ele><time>2026-05-03T08:53:02.755Z</time></trkpt><trkpt lat="44.24415396264792" lon="10.130940174550732"><ele>322.33333333333337</ele><time>2026-05-03T08:53:04.755Z</time></trkpt><trkpt lat="44.24421618982827" lon="10.130895501817088"><ele>324.1666666666667</ele><time>2026-05-03T08:53:05.755Z</time></trkpt><trkpt lat="44.2442925461036" lon="10.130836224371729"><ele>326.0</ele><time>2026-05-03T08:53:06.755Z</time></trkpt><trkpt lat="44.24436963079946" lon="10.130741043933803"><ele>322.0</ele><time>2026-05-03T08:53:07.755Z</time></trkpt><trkpt lat="44.24443098516261" lon="10.130608692315436"><ele>318.0</ele><time>2026-05-03T08:53:08.755Z</time></trkpt><trkpt lat="44.244485845508216" lon="10.130466217108525"><ele>314.0</ele><time>2026-05-03T08:53:09.755Z</time></trkpt><trkpt lat="44.244544115417625" lon="10.130310285623182"><ele>310.0</ele><time>2026-05-03T08:53:10.755Z</time></trkpt><trkpt lat="44.2446030737763" lon="10.1301571888907"><ele>310.0</ele><time>2026-05-03T08:53:11.755Z</time></trkpt><trkpt lat="44.2446643225165" lon="10.130018123520047"><ele>310.0</ele><time>2026-05-03T08:53:12.755Z</time></trkpt><trkpt lat="44.24470890905234" lon="10.129895437352697"><ele>310.0</ele><time>2026-05-03T08:53:13.755Z</time></trkpt><trkpt lat="44.24476113998788" lon="10.129794292859469"><ele>310.0</ele><time>2026-05-03T08:53:14.755Z</time></trkpt><trkpt lat="44.24481291143453" lon="10.129709309059207"><ele>310.0</ele><time>2026-05-03T08:53:15.755Z</time></trkpt><trkpt lat="44.244914791762675" lon="10.129642475477905"><ele>313.8333333333333</ele><time>2026-05-03T08:53:17.755Z</time></trkpt><trkpt lat="44.244983361493176" lon="10.129656379912285"><ele>317.66666666666663</ele><time>2026-05-03T08:53:18.755Z</time></trkpt><trkpt lat="44.245057842018255" lon="10.129694188474907"><ele>321.5</ele><time>2026-05-03T08:53:19.755Z</time></trkpt><trkpt lat="44.24514755974233" lon="10.129732881163747"><ele>325.3333333333333</ele><time>2026-05-03T08:53:20.755Z</time></trkpt><trkpt lat="44.24524604324226" lon="10.129763255299165"><ele>329.1666666666667</ele><time>2026-05-03T08:53:21.755Z</time></trkpt><trkpt lat="44.2453488907788" lon="10.129793735620881"><ele>333.0</ele><time>2026-05-03T08:53:22.755Z</time></trkpt><trkpt lat="44.24545088622445" lon="10.129813927426683"><ele>333.0</ele><time>2026-05-03T08:53:23.755Z</time></trkpt><trkpt lat="44.24553479336446" lon="10.129807692055612"><ele>333.0</ele><time>2026-05-03T08:53:24.755Z</time></trkpt><trkpt lat="44.245623192706795" lon="10.129777012318828"><ele>333.0</ele><time>2026-05-03T08:53:25.755Z</time></trkpt><trkpt lat="44.24572975924636" lon="10.129770012268477"><ele>333.0</ele><time>2026-05-03T08:53:26.755Z</time></trkpt><trkpt lat="44.24584709201995" lon="10.129740612680274"><ele>333.0</ele><time>2026-05-03T08:53:27.755Z</time></trkpt><trkpt lat="44.245931459387045" lon="10.129696940319388"><ele>334.79999999999995</ele><time>2026-05-03T08:53:28.755Z</time></trkpt><trkpt lat="44.24601531239864" lon="10.129647110763946"><ele>336.6</ele><time>2026-05-03T08:53:29.755Z</time></trkpt><trkpt lat="44.246124136157974" lon="10.129607883622732"><ele>338.4</ele><time>2026-05-03T08:53:30.755Z</time></trkpt><trkpt lat="44.2462314284404" lon="10.129562202716738"><ele>340.20000000000005</ele><time>2026-05-03T08:53:31.755Z</time></trkpt><trkpt lat="44.246331616903596" lon="10.129523848457064"><ele>342.0</ele><time>2026-05-03T08:53:32.755Z</time></trkpt><trkpt lat="44.24641972090646" lon="10.129475201384185"><ele>343.0</ele><time>2026-05-03T08:53:33.755Z</time></trkpt><trkpt lat="44.24651618195132" lon="10.12939534445705"><ele>344.0</ele><time>2026-05-03T08:53:35.755Z</time></trkpt><trkpt lat="44.24659411353472" lon="10.129329213025553"><ele>345.0</ele><time>2026-05-03T08:53:36.755Z</time></trkpt><trkpt lat="44.246672399534766" lon="10.129262911913692"><ele>346.0</ele><time>2026-05-03T08:53:37.755Z</time></trkpt><trkpt lat="44.246745761590546" lon="10.129197053102708"><ele>347.0</ele><time>2026-05-03T08:53:38.755Z</time></trkpt><trkpt lat="44.24681821108632" lon="10.129140876617365"><ele>347.0</ele><time>2026-05-03T08:53:39.755Z</time></trkpt><trkpt lat="44.24688860387244" lon="10.129099634536814"><ele>347.0</ele><time>2026-05-03T08:53:40.755Z</time></trkpt><trkpt lat="44.24695566107051" lon="10.12906968681526"><ele>347.0</ele><time>2026-05-03T08:53:41.755Z</time></trkpt><trkpt lat="44.24702230162991" lon="10.129064482637602"><ele>347.0</ele><time>2026-05-03T08:53:42.754Z</time></trkpt><trkpt lat="44.24712314280039" lon="10.129132739224149"><ele>347.0</ele><time>2026-05-03T08:53:44.754Z</time></trkpt><trkpt lat="44.247167028136104" lon="10.1292000433856"><ele>347.0</ele><time>2026-05-03T08:53:45.753Z</time></trkpt><trkpt lat="44.24720934345458" lon="10.129285617087973"><ele>347.0</ele><time>2026-05-03T08:53:46.753Z</time></trkpt><trkpt lat="44.247264013990936" lon="10.129354664573846"><ele>347.0</ele><time>2026-05-03T08:53:47.753Z</time></trkpt><trkpt lat="44.247341432445886" lon="10.129382816400991"><ele>347.0</ele><time>2026-05-03T08:53:48.754Z</time></trkpt><trkpt lat="44.24743746009639" lon="10.129371890856394"><ele>347.0</ele><time>2026-05-03T08:53:49.754Z</time></trkpt><trkpt lat="44.24753716339236" lon="10.129338912526983"><ele>347.0</ele><time>2026-05-03T08:53:50.753Z</time></trkpt><trkpt lat="44.24763775260096" lon="10.12930229299706"><ele>347.6666666666667</ele><time>2026-05-03T08:53:51.753Z</time></trkpt><trkpt lat="44.24774039972631" lon="10.129270691591664"><ele>348.33333333333337</ele><time>2026-05-03T08:53:52.754Z</time></trkpt><trkpt lat="44.24783818645938" lon="10.129231985672213"><ele>349.0</ele><time>2026-05-03T08:53:53.754Z</time></trkpt><trkpt lat="44.2479205048014" lon="10.129222788795687"><ele>349.6666666666667</ele><time>2026-05-03T08:53:54.754Z</time></trkpt><trkpt lat="44.247995293897134" lon="10.129252478365887"><ele>350.3333333333333</ele><time>2026-05-03T08:53:55.753Z</time></trkpt><trkpt lat="44.24807171773499" lon="10.129289052493737"><ele>351.0</ele><time>2026-05-03T08:53:56.753Z</time></trkpt><trkpt lat="44.24815542618002" lon="10.129347372160112"><ele>352.8333333333333</ele><time>2026-05-03T08:53:57.753Z</time></trkpt><trkpt lat="44.2482391016381" lon="10.129415320459797"><ele>354.6666666666667</ele><time>2026-05-03T08:53:58.753Z</time></trkpt><trkpt lat="44.24832019911685" lon="10.129474369275716"><ele>356.5</ele><time>2026-05-03T08:53:59.753Z</time></trkpt><trkpt lat="44.2483909984638" lon="10.129533995909057"><ele>358.33333333333337</ele><time>2026-05-03T08:54:00.753Z</time></trkpt><trkpt lat="44.24845224467706" lon="10.129591849524187"><ele>360.1666666666667</ele><time>2026-05-03T08:54:01.753Z</time></trkpt><trkpt lat="44.24853517987041" lon="10.129657489441028"><ele>362.0</ele><time>2026-05-03T08:54:03.753Z</time></trkpt><trkpt lat="44.24859881075572" lon="10.129640110703019"><ele>362.0</ele><time>2026-05-03T08:54:04.753Z</time></trkpt><trkpt lat="44.24864907236408" lon="10.129512785884211"><ele>362.0</ele><time>2026-05-03T08:54:06.753Z</time></trkpt><trkpt lat="44.24866523567705" lon="10.129324373306037"><ele>362.0</ele><time>2026-05-03T08:54:08.753Z</time></trkpt><trkpt lat="44.248690644271605" lon="10.129237311747977"><ele>362.0</ele><time>2026-05-03T08:54:09.753Z</time></trkpt><trkpt lat="44.248724364999454" lon="10.129150573766948"><ele>362.0</ele><time>2026-05-03T08:54:10.753Z</time></trkpt><trkpt lat="44.24876232755189" lon="10.129059801508749"><ele>362.6666666666667</ele><time>2026-05-03T08:54:11.753Z</time></trkpt><trkpt lat="44.24881367127734" lon="10.12896211225121"><ele>363.33333333333337</ele><time>2026-05-03T08:54:12.753Z</time></trkpt><trkpt lat="44.24886351870419" lon="10.12887766109166"><ele>364.0</ele><time>2026-05-03T08:54:13.753Z</time></trkpt><trkpt lat="44.24892140423741" lon="10.128785473174545"><ele>364.6666666666667</ele><time>2026-05-03T08:54:14.753Z</time></trkpt><trkpt lat="44.249009889751626" lon="10.128731262048895"><ele>365.3333333333333</ele><time>2026-05-03T08:54:15.753Z</time></trkpt><trkpt lat="44.24909800256097" lon="10.12867243515869"><ele>366.0</ele><time>2026-05-03T08:54:16.753Z</time></trkpt><trkpt lat="44.24918627996791" lon="10.128612918845844"><ele>366.0</ele><time>2026-05-03T08:54:17.753Z</time></trkpt><trkpt lat="44.24926795998309" lon="10.128563517558202"><ele>366.0</ele><time>2026-05-03T08:54:18.753Z</time></trkpt><trkpt lat="44.2493476551778" lon="10.128533127426811"><ele>366.0</ele><time>2026-05-03T08:54:19.753Z</time></trkpt><trkpt lat="44.24941217228105" lon="10.128505316691102"><ele>366.0</ele><time>2026-05-03T08:54:20.753Z</time></trkpt><trkpt lat="44.249484175764906" lon="10.12850104406007"><ele>366.0</ele><time>2026-05-03T08:54:21.753Z</time></trkpt><trkpt lat="44.249562518590416" lon="10.128522395493382"><ele>366.0</ele><time>2026-05-03T08:54:22.753Z</time></trkpt><trkpt lat="44.24964411750385" lon="10.12858205891955"><ele>366.0</ele><time>2026-05-03T08:54:23.753Z</time></trkpt><trkpt lat="44.24973786712924" lon="10.128646901030882"><ele>366.0</ele><time>2026-05-03T08:54:24.753Z</time></trkpt><trkpt lat="44.24985279209908" lon="10.128736251788032"><ele>366.0</ele><time>2026-05-03T08:54:25.753Z</time></trkpt><trkpt lat="44.249985739949885" lon="10.128845251210507"><ele>366.0</ele><time>2026-05-03T08:54:26.753Z</time></trkpt><trkpt lat="44.25011646706879" lon="10.128965050012301"><ele>374.66666666666663</ele><time>2026-05-03T08:54:27.753Z</time></trkpt><trkpt lat="44.25025280812846" lon="10.129077634814307"><ele>383.3333333333333</ele><time>2026-05-03T08:54:28.753Z</time></trkpt><trkpt lat="44.25038116651555" lon="10.129195740640018"><ele>392.0</ele><time>2026-05-03T08:54:29.753Z</time></trkpt><trkpt lat="44.25049784158354" lon="10.129314495704108"><ele>392.0</ele><time>2026-05-03T08:54:30.753Z</time></trkpt><trkpt lat="44.25060735586975" lon="10.12943409246985"><ele>392.0</ele><time>2026-05-03T08:54:31.753Z</time></trkpt><trkpt lat="44.25071625174392" lon="10.12954681022806"><ele>392.0</ele><time>2026-05-03T08:54:32.753Z</time></trkpt><trkpt lat="44.25082121450554" lon="10.129646322546641"><ele>392.0</ele><time>2026-05-03T08:54:33.753Z</time></trkpt><trkpt lat="44.25092271562125" lon="10.129743369945851"><ele>388.75</ele><time>2026-05-03T08:54:34.753Z</time></trkpt><trkpt lat="44.2510244294608" lon="10.129836903219363"><ele>385.5</ele><time>2026-05-03T08:54:35.753Z</time></trkpt><trkpt lat="44.251120909579335" lon="10.129943888852123"><ele>382.25</ele><time>2026-05-03T08:54:36.753Z</time></trkpt><trkpt lat="44.251210209827285" lon="10.130066064166693"><ele>379.0</ele><time>2026-05-03T08:54:37.753Z</time></trkpt><trkpt lat="44.251291672226415" lon="10.130221623897878"><ele>382.0</ele><time>2026-05-03T08:54:38.753Z</time></trkpt><trkpt lat="44.25137309574055" lon="10.130375158890867"><ele>385.0</ele><time>2026-05-03T08:54:39.753Z</time></trkpt><trkpt lat="44.25144890976386" lon="10.130522576569522"><ele>388.0</ele><time>2026-05-03T08:54:40.753Z</time></trkpt><trkpt lat="44.25155015665051" lon="10.130635848834382"><ele>391.0</ele><time>2026-05-03T08:54:41.753Z</time></trkpt><trkpt lat="44.25166168780644" lon="10.130750322398285"><ele>398.5</ele><time>2026-05-03T08:54:42.753Z</time></trkpt><trkpt lat="44.25177918602818" lon="10.130856008907042"><ele>406.0</ele><time>2026-05-03T08:54:43.753Z</time></trkpt><trkpt lat="44.25189586540076" lon="10.130964760124693"><ele>413.5</ele><time>2026-05-03T08:54:44.753Z</time></trkpt><trkpt lat="44.25201261172849" lon="10.131072909615625"><ele>421.0</ele><time>2026-05-03T08:54:45.753Z</time></trkpt><trkpt lat="44.252135426673526" lon="10.131152152462498"><ele>421.0</ele><time>2026-05-03T08:54:46.752Z</time></trkpt><trkpt lat="44.25225807753616" lon="10.131219277525645"><ele>421.0</ele><time>2026-05-03T08:54:47.752Z</time></trkpt><trkpt lat="44.252382619154965" lon="10.131298514536546"><ele>421.0</ele><time>2026-05-03T08:54:48.752Z</time></trkpt><trkpt lat="44.25250663111087" lon="10.13139365061798"><ele>421.0</ele><time>2026-05-03T08:54:49.752Z</time></trkpt><trkpt lat="44.25263860193274" lon="10.131481895343638"><ele>424.25</ele><time>2026-05-03T08:54:50.752Z</time></trkpt><trkpt lat="44.25275734533607" lon="10.131543206401629"><ele>427.5</ele><time>2026-05-03T08:54:51.752Z</time></trkpt><trkpt lat="44.25286236743151" lon="10.131640759710528"><ele>430.75</ele><time>2026-05-03T08:54:52.752Z</time></trkpt><trkpt lat="44.252968472745714" lon="10.131749326770107"><ele>434.0</ele><time>2026-05-03T08:54:53.752Z</time></trkpt><trkpt lat="44.25308941027804" lon="10.131868287119255"><ele>430.25</ele><time>2026-05-03T08:54:54.752Z</time></trkpt><trkpt lat="44.25321371128586" lon="10.131955805645099"><ele>426.5</ele><time>2026-05-03T08:54:55.752Z</time></trkpt><trkpt lat="44.253351643243505" lon="10.132050624662606"><ele>422.75</ele><time>2026-05-03T08:54:56.752Z</time></trkpt><trkpt lat="44.25348835070501" lon="10.132116702479484"><ele>419.0</ele><time>2026-05-03T08:54:57.752Z</time></trkpt><trkpt lat="44.253630131429986" lon="10.13219129040159"><ele>419.0</ele><time>2026-05-03T08:54:58.752Z</time></trkpt><trkpt lat="44.253747274054824" lon="10.132275746782527"><ele>419.0</ele><time>2026-05-03T08:54:59.752Z</time></trkpt><trkpt lat="44.25384621067766" lon="10.132345903194473"><ele>419.0</ele><time>2026-05-03T08:55:00.752Z</time></trkpt><trkpt lat="44.25395085695842" lon="10.13244357927295"><ele>419.0</ele><time>2026-05-03T08:55:01.752Z</time></trkpt><trkpt lat="44.25407182858971" lon="10.132579940290626"><ele>424.3333333333333</ele><time>2026-05-03T08:55:02.752Z</time></trkpt><trkpt lat="44.254189757532316" lon="10.132710463112305"><ele>429.66666666666663</ele><time>2026-05-03T08:55:03.752Z</time></trkpt><trkpt lat="44.254315096093414" lon="10.1328763275545"><ele>435.0</ele><time>2026-05-03T08:55:04.752Z</time></trkpt><trkpt lat="44.25443878951275" lon="10.133045647833203"><ele>435.0</ele><time>2026-05-03T08:55:05.752Z</time></trkpt><trkpt lat="44.25453814057969" lon="10.133202577344504"><ele>435.0</ele><time>2026-05-03T08:55:06.752Z</time></trkpt><trkpt lat="44.254618979657195" lon="10.133349534673506"><ele>435.0</ele><time>2026-05-03T08:55:07.752Z</time></trkpt><trkpt lat="44.25470197985018" lon="10.133476123442602"><ele>435.0</ele><time>2026-05-03T08:55:08.752Z</time></trkpt><trkpt lat="44.254772206788694" lon="10.133586018230943"><ele>433.75</ele><time>2026-05-03T08:55:09.752Z</time></trkpt><trkpt lat="44.25482828145646" lon="10.133730545458425"><ele>432.5</ele><time>2026-05-03T08:55:10.752Z</time></trkpt><trkpt lat="44.25487260560229" lon="10.13389773025145"><ele>431.25</ele><time>2026-05-03T08:55:11.752Z</time></trkpt><trkpt lat="44.25491406321196" lon="10.134070791127"><ele>430.0</ele><time>2026-05-03T08:55:12.752Z</time></trkpt><trkpt lat="44.2549811322465" lon="10.134214207923748"><ele>434.6</ele><time>2026-05-03T08:55:13.752Z</time></trkpt><trkpt lat="44.25505611183322" lon="10.134334914095243"><ele>439.2</ele><time>2026-05-03T08:55:14.752Z</time></trkpt><trkpt lat="44.25510420540168" lon="10.134436464333765"><ele>443.79999999999995</ele><time>2026-05-03T08:55:15.752Z</time></trkpt><trkpt lat="44.25512098878228" lon="10.134539181922282"><ele>448.4</ele><time>2026-05-03T08:55:16.752Z</time></trkpt><trkpt lat="44.25511566441382" lon="10.134657707841283"><ele>453.0</ele><time>2026-05-03T08:55:17.752Z</time></trkpt><trkpt lat="44.255080187991084" lon="10.134783172511481"><ele>456.0</ele><time>2026-05-03T08:55:18.752Z</time></trkpt><trkpt lat="44.2550618930471" lon="10.134923173550604"><ele>458.99999999999994</ele><time>2026-05-03T08:55:19.752Z</time></trkpt><trkpt lat="44.25506871244549" lon="10.135058527084468"><ele>461.99999999999994</ele><time>2026-05-03T08:55:20.752Z</time></trkpt><trkpt lat="44.255115691402544" lon="10.135204154260883"><ele>465.0</ele><time>2026-05-03T08:55:21.752Z</time></trkpt><trkpt lat="44.25517111583861" lon="10.135358315466537"><ele>468.0</ele><time>2026-05-03T08:55:22.752Z</time></trkpt><trkpt lat="44.25523017337452" lon="10.135483905504096"><ele>468.0</ele><time>2026-05-03T08:55:23.752Z</time></trkpt><trkpt lat="44.255310502510945" lon="10.135577610016748"><ele>468.0</ele><time>2026-05-03T08:55:24.752Z</time></trkpt><trkpt lat="44.25541787511853" lon="10.135644715843258"><ele>468.0</ele><time>2026-05-03T08:55:25.752Z</time></trkpt><trkpt lat="44.255518163240716" lon="10.135719024771124"><ele>468.0</ele><time>2026-05-03T08:55:26.752Z</time></trkpt><trkpt lat="44.2556286923215" lon="10.135767710577568"><ele>467.2</ele><time>2026-05-03T08:55:27.752Z</time></trkpt><trkpt lat="44.2556991660513" lon="10.135842794820487"><ele>466.4</ele><time>2026-05-03T08:55:28.752Z</time></trkpt><trkpt lat="44.255730744143385" lon="10.135980136643228"><ele>465.59999999999997</ele><time>2026-05-03T08:55:29.752Z</time></trkpt><trkpt lat="44.25575515381464" lon="10.136100981988799"><ele>464.79999999999995</ele><time>2026-05-03T08:55:30.752Z</time></trkpt><trkpt lat="44.25578524937881" lon="10.136181812983066"><ele>464.0</ele><time>2026-05-03T08:55:31.752Z</time></trkpt><trkpt lat="44.25591953929727" lon="10.136221198888434"><ele>464.0</ele><time>2026-05-03T08:55:33.752Z</time></trkpt><trkpt lat="44.255993664152214" lon="10.136174382271353"><ele>464.0</ele><time>2026-05-03T08:55:34.752Z</time></trkpt><trkpt lat="44.256054171671074" lon="10.13608649237455"><ele>464.0</ele><time>2026-05-03T08:55:35.752Z</time></trkpt><trkpt lat="44.25609547756432" lon="10.135973626924132"><ele>464.0</ele><time>2026-05-03T08:55:36.752Z</time></trkpt><trkpt lat="44.25610950899319" lon="10.135842464435294"><ele>464.0</ele><time>2026-05-03T08:55:37.752Z</time></trkpt><trkpt lat="44.25608787597257" lon="10.13568712139582"><ele>461.6</ele><time>2026-05-03T08:55:38.752Z</time></trkpt><trkpt lat="44.256042044431375" lon="10.135495759838225"><ele>459.2</ele><time>2026-05-03T08:55:39.752Z</time></trkpt><trkpt lat="44.25601067793111" lon="10.13533144671037"><ele>456.80000000000007</ele><time>2026-05-03T08:55:40.752Z</time></trkpt><trkpt lat="44.25599050467139" lon="10.135187957609784"><ele>454.40000000000003</ele><time>2026-05-03T08:55:41.752Z</time></trkpt><trkpt lat="44.25597992854145" lon="10.135083586772929"><ele>452.0</ele><time>2026-05-03T08:55:42.752Z</time></trkpt><trkpt lat="44.25600133086505" lon="10.134998469520403"><ele>452.0</ele><time>2026-05-03T08:55:43.752Z</time></trkpt><trkpt lat="44.25605648801756" lon="10.134897131664527"><ele>452.00000000000006</ele><time>2026-05-03T08:55:44.752Z</time></trkpt><trkpt lat="44.25612404893578" lon="10.134768098177206"><ele>452.00000000000006</ele><time>2026-05-03T08:55:45.752Z</time></trkpt><trkpt lat="44.256181157492584" lon="10.134624318863962"><ele>452.0</ele><time>2026-05-03T08:55:46.752Z</time></trkpt><trkpt lat="44.256225479254134" lon="10.134486568065066"><ele>452.0</ele><time>2026-05-03T08:55:47.752Z</time></trkpt><trkpt lat="44.25625443232723" lon="10.134372824962748"><ele>450.16666666666663</ele><time>2026-05-03T08:55:48.75Z</time></trkpt><trkpt lat="44.256244556661144" lon="10.134281137512353"><ele>448.3333333333333</ele><time>2026-05-03T08:55:49.75Z</time></trkpt><trkpt lat="44.256212932274565" lon="10.134179339743502"><ele>446.5</ele><time>2026-05-03T08:55:51.75Z</time></trkpt><trkpt lat="44.25619382462931" lon="10.13402278729202"><ele>444.66666666666663</ele><time>2026-05-03T08:55:53.75Z</time></trkpt><trkpt lat="44.25618360797593" lon="10.133917174927394"><ele>442.8333333333333</ele><time>2026-05-03T08:55:54.75Z</time></trkpt><trkpt lat="44.25616982429989" lon="10.13379851350172"><ele>441.0</ele><time>2026-05-03T08:55:55.75Z</time></trkpt><trkpt lat="44.25614692043452" lon="10.133647687589612"><ele>440.0</ele><time>2026-05-03T08:55:56.75Z</time></trkpt><trkpt lat="44.25613842575843" lon="10.133496792401122"><ele>439.0</ele><time>2026-05-03T08:55:57.75Z</time></trkpt><trkpt lat="44.25611883467899" lon="10.133347460818946"><ele>438.0</ele><time>2026-05-03T08:55:58.75Z</time></trkpt><trkpt lat="44.256103457557245" lon="10.13319522969628"><ele>437.0</ele><time>2026-05-03T08:55:59.75Z</time></trkpt><trkpt lat="44.256094369448626" lon="10.133035528757855"><ele>436.0</ele><time>2026-05-03T08:56:00.75Z</time></trkpt><trkpt lat="44.2560775872335" lon="10.132861564825937"><ele>436.0</ele><time>2026-05-03T08:56:01.75Z</time></trkpt><trkpt lat="44.2560677322513" lon="10.132704798775304"><ele>436.0</ele><time>2026-05-03T08:56:02.75Z</time></trkpt><trkpt lat="44.25604587449141" lon="10.132527569849502"><ele>436.0</ele><time>2026-05-03T08:56:03.75Z</time></trkpt><trkpt lat="44.256008089355625" lon="10.13236560732657"><ele>436.0</ele><time>2026-05-03T08:56:04.75Z</time></trkpt><trkpt lat="44.25596903863836" lon="10.132204491389007"><ele>436.0</ele><time>2026-05-03T08:56:05.75Z</time></trkpt><trkpt lat="44.255930650509896" lon="10.132055264696753"><ele>436.0</ele><time>2026-05-03T08:56:06.75Z</time></trkpt><trkpt lat="44.25588782865015" lon="10.131917214339875"><ele>436.0</ele><time>2026-05-03T08:56:07.75Z</time></trkpt><trkpt lat="44.25585431521804" lon="10.131782407203442"><ele>436.0</ele><time>2026-05-03T08:56:08.75Z</time></trkpt><trkpt lat="44.255835288199904" lon="10.131681093140484"><ele>436.0</ele><time>2026-05-03T08:56:09.75Z</time></trkpt><trkpt lat="44.25581578738606" lon="10.131594167192086"><ele>435.8571428571429</ele><time>2026-05-03T08:56:10.75Z</time></trkpt><trkpt lat="44.255800565298955" lon="10.131505204620357"><ele>435.7142857142857</ele><time>2026-05-03T08:56:11.75Z</time></trkpt><trkpt lat="44.255822279205944" lon="10.131418204332899"><ele>435.57142857142856</ele><time>2026-05-03T08:56:12.75Z</time></trkpt><trkpt lat="44.25587404655736" lon="10.131361956821141"><ele>435.42857142857144</ele><time>2026-05-03T08:56:13.749Z</time></trkpt><trkpt lat="44.2559333837993" lon="10.131326579586517"><ele>435.2857142857143</ele><time>2026-05-03T08:56:14.749Z</time></trkpt><trkpt lat="44.25600134168596" lon="10.131335055028435"><ele>435.14285714285717</ele><time>2026-05-03T08:56:15.749Z</time></trkpt><trkpt lat="44.25608243950328" lon="10.131369783586445"><ele>435.0</ele><time>2026-05-03T08:56:16.749Z</time></trkpt><trkpt lat="44.256181570634425" lon="10.13143639981089"><ele>435.0</ele><time>2026-05-03T08:56:17.749Z</time></trkpt><trkpt lat="44.25627891576659" lon="10.13150716378938"><ele>435.0</ele><time>2026-05-03T08:56:18.749Z</time></trkpt><trkpt lat="44.25638813889508" lon="10.131536055369315"><ele>435.0</ele><time>2026-05-03T08:56:19.749Z</time></trkpt><trkpt lat="44.25652368774212" lon="10.13151293246824"><ele>435.0</ele><time>2026-05-03T08:56:20.749Z</time></trkpt><trkpt lat="44.25665578877497" lon="10.131498188621721"><ele>437.2</ele><time>2026-05-03T08:56:21.749Z</time></trkpt><trkpt lat="44.25676613028388" lon="10.131489184692912"><ele>439.4</ele><time>2026-05-03T08:56:22.749Z</time></trkpt><trkpt lat="44.256863741437726" lon="10.131485799479714"><ele>441.6</ele><time>2026-05-03T08:56:23.749Z</time></trkpt><trkpt lat="44.25695053698972" lon="10.13148595186622"><ele>443.8</ele><time>2026-05-03T08:56:24.749Z</time></trkpt><trkpt lat="44.2570231311001" lon="10.13154777654096"><ele>446.0</ele><time>2026-05-03T08:56:25.749Z</time></trkpt><trkpt lat="44.25708750314124" lon="10.13163596399247"><ele>445.99999999999994</ele><time>2026-05-03T08:56:26.749Z</time></trkpt><trkpt lat="44.257151658487345" lon="10.131732783915757"><ele>446.0</ele><time>2026-05-03T08:56:27.749Z</time></trkpt><trkpt lat="44.257215520276034" lon="10.131784276795027"><ele>446.0</ele><time>2026-05-03T08:56:28.749Z</time></trkpt><trkpt lat="44.25728211415987" lon="10.131779455862405"><ele>446.0</ele><time>2026-05-03T08:56:29.749Z</time></trkpt><trkpt lat="44.257361083266275" lon="10.131738887279866"><ele>445.99999999999994</ele><time>2026-05-03T08:56:30.749Z</time></trkpt><trkpt lat="44.25745320933617" lon="10.131650019690424"><ele>446.0</ele><time>2026-05-03T08:56:31.749Z</time></trkpt><trkpt lat="44.25754891195739" lon="10.131606711413404"><ele>441.5</ele><time>2026-05-03T08:56:32.749Z</time></trkpt><trkpt lat="44.25764944767196" lon="10.131598449067813"><ele>437.0</ele><time>2026-05-03T08:56:33.749Z</time></trkpt><trkpt lat="44.25776381940221" lon="10.131639681352784"><ele>432.5</ele><time>2026-05-03T08:56:34.749Z</time></trkpt><trkpt lat="44.257873822885315" lon="10.13170553877292"><ele>428.0</ele><time>2026-05-03T08:56:35.749Z</time></trkpt><trkpt lat="44.25799075819693" lon="10.131782845366695"><ele>428.0</ele><time>2026-05-03T08:56:36.749Z</time></trkpt><trkpt lat="44.25811756854146" lon="10.131856894280773"><ele>428.0</ele><time>2026-05-03T08:56:37.749Z</time></trkpt><trkpt lat="44.25825903483132" lon="10.131949021400914"><ele>428.0</ele><time>2026-05-03T08:56:38.749Z</time></trkpt><trkpt lat="44.25840503311157" lon="10.132017185330623"><ele>428.0</ele><time>2026-05-03T08:56:39.749Z</time></trkpt><trkpt lat="44.25853674553278" lon="10.13208717522965"><ele>425.79999999999995</ele><time>2026-05-03T08:56:40.749Z</time></trkpt><trkpt lat="44.25864658568786" lon="10.13215732527682"><ele>423.59999999999997</ele><time>2026-05-03T08:56:41.749Z</time></trkpt><trkpt lat="44.25874700541771" lon="10.132235890901145"><ele>421.4</ele><time>2026-05-03T08:56:42.749Z</time></trkpt><trkpt lat="44.258839307614984" lon="10.13231206459878"><ele>419.20000000000005</ele><time>2026-05-03T08:56:43.749Z</time></trkpt><trkpt lat="44.25891696709562" lon="10.13238294021657"><ele>417.0</ele><time>2026-05-03T08:56:44.749Z</time></trkpt><trkpt lat="44.258990968776374" lon="10.132427638747563"><ele>417.0</ele><time>2026-05-03T08:56:45.749Z</time></trkpt><trkpt lat="44.25907025941857" lon="10.132437700838906"><ele>417.0</ele><time>2026-05-03T08:56:46.749Z</time></trkpt><trkpt lat="44.25915794553536" lon="10.132397829457696"><ele>417.0</ele><time>2026-05-03T08:56:47.749Z</time></trkpt><trkpt lat="44.25924603102475" lon="10.13231211760675"><ele>417.0</ele><time>2026-05-03T08:56:48.749Z</time></trkpt><trkpt lat="44.259347580291475" lon="10.13222112231565"><ele>417.0</ele><time>2026-05-03T08:56:49.749Z</time></trkpt><trkpt lat="44.25942747715376" lon="10.132126582733276"><ele>413.20000000000005</ele><time>2026-05-03T08:56:50.749Z</time></trkpt><trkpt lat="44.25949962633089" lon="10.132075567600145"><ele>409.4</ele><time>2026-05-03T08:56:51.749Z</time></trkpt><trkpt lat="44.259609635710476" lon="10.132089419464716"><ele>405.6</ele><time>2026-05-03T08:56:52.749Z</time></trkpt><trkpt lat="44.25971988362156" lon="10.132129619576686"><ele>401.79999999999995</ele><time>2026-05-03T08:56:53.749Z</time></trkpt><trkpt lat="44.25981350689176" lon="10.13218394339122"><ele>398.0</ele><time>2026-05-03T08:56:54.749Z</time></trkpt><trkpt lat="44.25988337570069" lon="10.132287369767376"><ele>400.25</ele><time>2026-05-03T08:56:55.749Z</time></trkpt><trkpt lat="44.259960753898625" lon="10.132398385450697"><ele>402.5</ele><time>2026-05-03T08:56:56.749Z</time></trkpt><trkpt lat="44.26004129384981" lon="10.132515011233727"><ele>404.75</ele><time>2026-05-03T08:56:57.749Z</time></trkpt><trkpt lat="44.26013160076508" lon="10.132628586254445"><ele>407.0</ele><time>2026-05-03T08:56:58.749Z</time></trkpt><trkpt lat="44.26020940730673" lon="10.132747220790796"><ele>407.0</ele><time>2026-05-03T08:56:59.749Z</time></trkpt><trkpt lat="44.26030400957099" lon="10.132856833090637"><ele>407.0</ele><time>2026-05-03T08:57:00.749Z</time></trkpt><trkpt lat="44.260408692533815" lon="10.132951794482555"><ele>407.0</ele><time>2026-05-03T08:57:01.749Z</time></trkpt><trkpt lat="44.2605209409354" lon="10.13301872659529"><ele>407.0</ele><time>2026-05-03T08:57:02.749Z</time></trkpt><trkpt lat="44.26063162578673" lon="10.133074817923779"><ele>404.0</ele><time>2026-05-03T08:57:03.749Z</time></trkpt><trkpt lat="44.2607447574257" lon="10.133143192973174"><ele>401.0</ele><time>2026-05-03T08:57:04.749Z</time></trkpt><trkpt lat="44.260852662407586" lon="10.133188594574726"><ele>398.0</ele><time>2026-05-03T08:57:05.749Z</time></trkpt><trkpt lat="44.26095006259242" lon="10.133208786776446"><ele>395.0</ele><time>2026-05-03T08:57:06.749Z</time></trkpt><trkpt lat="44.26101684725437" lon="10.133255176832753"><ele>392.0</ele><time>2026-05-03T08:57:07.749Z</time></trkpt><trkpt lat="44.26105461693321" lon="10.133399408893236"><ele>392.0</ele><time>2026-05-03T08:57:09.749Z</time></trkpt><trkpt lat="44.26102070368294" lon="10.133531574226998"><ele>392.0</ele><time>2026-05-03T08:57:10.749Z</time></trkpt><trkpt lat="44.260975868738555" lon="10.133679354995015"><ele>392.0</ele><time>2026-05-03T08:57:11.749Z</time></trkpt><trkpt lat="44.260970425037556" lon="10.1338253321819"><ele>392.0</ele><time>2026-05-03T08:57:12.749Z</time></trkpt><trkpt lat="44.260935090818535" lon="10.13395552953196"><ele>392.0</ele><time>2026-05-03T08:57:13.749Z</time></trkpt><trkpt lat="44.26091605483372" lon="10.134061845486677"><ele>396.20000000000005</ele><time>2026-05-03T08:57:14.749Z</time></trkpt><trkpt lat="44.26092263858069" lon="10.134175181695282"><ele>400.4</ele><time>2026-05-03T08:57:15.749Z</time></trkpt><trkpt lat="44.26096134216118" lon="10.134294615895916"><ele>404.6</ele><time>2026-05-03T08:57:16.749Z</time></trkpt><trkpt lat="44.261027273676696" lon="10.1344060876508"><ele>408.79999999999995</ele><time>2026-05-03T08:57:17.749Z</time></trkpt><trkpt lat="44.2611189459238" lon="10.134478714122826"><ele>413.0</ele><time>2026-05-03T08:57:18.749Z</time></trkpt><trkpt lat="44.261187007626624" lon="10.134502188694437"><ele>413.0</ele><time>2026-05-03T08:57:19.749Z</time></trkpt><trkpt lat="44.26129490742403" lon="10.134540977428971"><ele>413.0</ele><time>2026-05-03T08:57:20.749Z</time></trkpt><trkpt lat="44.261426827007746" lon="10.134576698601398"><ele>413.0</ele><time>2026-05-03T08:57:21.749Z</time></trkpt><trkpt lat="44.26154588386904" lon="10.134587251798829"><ele>413.0</ele><time>2026-05-03T08:57:22.749Z</time></trkpt><trkpt lat="44.2616542728354" lon="10.134611073932188"><ele>404.79999999999995</ele><time>2026-05-03T08:57:23.748Z</time></trkpt><trkpt lat="44.2617542442627" lon="10.134611118769085"><ele>396.6</ele><time>2026-05-03T08:57:24.748Z</time></trkpt><trkpt lat="44.261848596853596" lon="10.134611689679387"><ele>388.4</ele><time>2026-05-03T08:57:25.748Z</time></trkpt><trkpt lat="44.26193190727836" lon="10.134642816126291"><ele>380.20000000000005</ele><time>2026-05-03T08:57:26.748Z</time></trkpt><trkpt lat="44.26200144889834" lon="10.13467282751244"><ele>372.0</ele><time>2026-05-03T08:57:27.748Z</time></trkpt><trkpt lat="44.262106829621416" lon="10.134721397118392"><ele>372.0</ele><time>2026-05-03T08:57:29.748Z</time></trkpt><trkpt lat="44.262183631070684" lon="10.134753200634314"><ele>372.0</ele><time>2026-05-03T08:57:31.748Z</time></trkpt><trkpt lat="44.26224811650844" lon="10.134692985466705"><ele>372.0</ele><time>2026-05-03T08:57:33.748Z</time></trkpt><trkpt lat="44.26225603475053" lon="10.1345778454877"><ele>372.0</ele><time>2026-05-03T08:57:35.748Z</time></trkpt><trkpt lat="44.262278321370246" lon="10.134463101902844"><ele>372.0</ele><time>2026-05-03T08:57:37.748Z</time></trkpt><trkpt lat="44.26227227318353" lon="10.134343391447992"><ele>372.0</ele><time>2026-05-03T08:57:39.748Z</time></trkpt><trkpt lat="44.26221635666394" lon="10.134246421571692"><ele>372.0</ele><time>2026-05-03T08:57:41.748Z</time></trkpt><trkpt lat="44.26215042001994" lon="10.134119112796357"><ele>372.0</ele><time>2026-05-03T08:57:43.748Z</time></trkpt><trkpt lat="44.26210598841542" lon="10.13405192340116"><ele>372.0</ele><time>2026-05-03T08:57:44.748Z</time></trkpt><trkpt lat="44.26204472252118" lon="10.133991553672601"><ele>372.0</ele><time>2026-05-03T08:57:45.748Z</time></trkpt><trkpt lat="44.261988924604424" lon="10.133949902883494"><ele>372.0</ele><time>2026-05-03T08:57:46.748Z</time></trkpt><trkpt lat="44.26192114664625" lon="10.133903802586149"><ele>372.0</ele><time>2026-05-03T08:57:47.748Z</time></trkpt><trkpt lat="44.26185179463282" lon="10.133848784321112"><ele>371.6</ele><time>2026-05-03T08:57:48.748Z</time></trkpt><trkpt lat="44.26181192360439" lon="10.13371141713672"><ele>371.20000000000005</ele><time>2026-05-03T08:57:50.748Z</time></trkpt><trkpt lat="44.26184049547016" lon="10.13362135353226"><ele>370.8</ele><time>2026-05-03T08:57:51.748Z</time></trkpt><trkpt lat="44.26188169046952" lon="10.133487443842277"><ele>370.4</ele><time>2026-05-03T08:57:52.748Z</time></trkpt><trkpt lat="44.261921182867304" lon="10.133303933165594"><ele>370.0</ele><time>2026-05-03T08:57:53.748Z</time></trkpt><trkpt lat="44.26195481544194" lon="10.133127817970177"><ele>371.4</ele><time>2026-05-03T08:57:54.748Z</time></trkpt><trkpt lat="44.2619612731456" lon="10.132972051565652"><ele>372.8</ele><time>2026-05-03T08:57:55.747Z</time></trkpt><trkpt lat="44.26194548460092" lon="10.132828306912192"><ele>374.20000000000005</ele><time>2026-05-03T08:57:56.747Z</time></trkpt><trkpt lat="44.26190256212272" lon="10.132694025619523"><ele>375.6</ele><time>2026-05-03T08:57:57.747Z</time></trkpt><trkpt lat="44.26184716544831" lon="10.132568672444295"><ele>377.0</ele><time>2026-05-03T08:57:58.747Z</time></trkpt><trkpt lat="44.26177846487882" lon="10.132447516879662"><ele>377.20000000000005</ele><time>2026-05-03T08:57:59.747Z</time></trkpt><trkpt lat="44.26170188084372" lon="10.132314227689237"><ele>377.4</ele><time>2026-05-03T08:58:00.748Z</time></trkpt><trkpt lat="44.261627072901796" lon="10.132201856665706"><ele>377.6</ele><time>2026-05-03T08:58:01.747Z</time></trkpt><trkpt lat="44.26158665771349" lon="10.132116382905338"><ele>377.79999999999995</ele><time>2026-05-03T08:58:02.747Z</time></trkpt><trkpt lat="44.26156961546947" lon="10.132011049060376"><ele>378.0</ele><time>2026-05-03T08:58:04.747Z</time></trkpt><trkpt lat="44.26165406541349" lon="10.131971075214055"><ele>378.0</ele><time>2026-05-03T08:58:07.747Z</time></trkpt><trkpt lat="44.26170977575168" lon="10.132039180896749"><ele>378.0</ele><time>2026-05-03T08:58:08.747Z</time></trkpt><trkpt lat="44.26175023816987" lon="10.132126178375707"><ele>378.0</ele><time>2026-05-03T08:58:09.747Z</time></trkpt><trkpt lat="44.26181191229938" lon="10.132203384589003"><ele>378.0</ele><time>2026-05-03T08:58:10.747Z</time></trkpt><trkpt lat="44.26188544140443" lon="10.132288637612278"><ele>378.0</ele><time>2026-05-03T08:58:11.747Z</time></trkpt><trkpt lat="44.26196940473898" lon="10.132363468992658"><ele>378.0</ele><time>2026-05-03T08:58:12.747Z</time></trkpt><trkpt lat="44.26206480854417" lon="10.132431776863756"><ele>377.75</ele><time>2026-05-03T08:58:13.747Z</time></trkpt><trkpt lat="44.262170199649475" lon="10.1324997795208"><ele>377.5</ele><time>2026-05-03T08:58:14.747Z</time></trkpt><trkpt lat="44.262280872445146" lon="10.132561430345808"><ele>377.25</ele><time>2026-05-03T08:58:15.747Z</time></trkpt><trkpt lat="44.262388490822104" lon="10.132630843766727"><ele>377.0</ele><time>2026-05-03T08:58:16.747Z</time></trkpt><trkpt lat="44.2624925125071" lon="10.132709384016067"><ele>380.6</ele><time>2026-05-03T08:58:17.747Z</time></trkpt><trkpt lat="44.26260196108338" lon="10.13278512265548"><ele>384.20000000000005</ele><time>2026-05-03T08:58:18.747Z</time></trkpt><trkpt lat="44.2627108507498" lon="10.132851849414545"><ele>387.8</ele><time>2026-05-03T08:58:19.747Z</time></trkpt><trkpt lat="44.262807064634615" lon="10.132923838526423"><ele>391.4</ele><time>2026-05-03T08:58:20.747Z</time></trkpt><trkpt lat="44.262890079925484" lon="10.13298895775562"><ele>395.0</ele><time>2026-05-03T08:58:21.747Z</time></trkpt><trkpt lat="44.26297007869885" lon="10.13303914425015"><ele>395.0</ele><time>2026-05-03T08:58:22.747Z</time></trkpt><trkpt lat="44.26306362693307" lon="10.133052000636726"><ele>395.0</ele><time>2026-05-03T08:58:23.747Z</time></trkpt><trkpt lat="44.263169133984945" lon="10.132998403163233"><ele>395.0</ele><time>2026-05-03T08:58:24.747Z</time></trkpt><trkpt lat="44.26328180018929" lon="10.132954368764754"><ele>395.0</ele><time>2026-05-03T08:58:25.747Z</time></trkpt><trkpt lat="44.26339803638695" lon="10.13293424827897"><ele>395.0</ele><time>2026-05-03T08:58:26.747Z</time></trkpt><trkpt lat="44.26351198297941" lon="10.132951154338654"><ele>395.0</ele><time>2026-05-03T08:58:27.747Z</time></trkpt><trkpt lat="44.263621068377276" lon="10.132983558993256"><ele>395.0</ele><time>2026-05-03T08:58:28.747Z</time></trkpt><trkpt lat="44.263738388970644" lon="10.13301454784077"><ele>395.0</ele><time>2026-05-03T08:58:29.747Z</time></trkpt><trkpt lat="44.263830596012724" lon="10.133035606146075"><ele>395.0</ele><time>2026-05-03T08:58:30.747Z</time></trkpt><trkpt lat="44.26392746388269" lon="10.13308416253822"><ele>395.0</ele><time>2026-05-03T08:58:31.747Z</time></trkpt><trkpt lat="44.26402903381498" lon="10.133138348393699"><ele>396.4</ele><time>2026-05-03T08:58:32.747Z</time></trkpt><trkpt lat="44.26412372658664" lon="10.133201047782869"><ele>397.8</ele><time>2026-05-03T08:58:33.747Z</time></trkpt><trkpt lat="44.26421908694973" lon="10.133267930749026"><ele>399.20000000000005</ele><time>2026-05-03T08:58:34.747Z</time></trkpt><trkpt lat="44.26431117704204" lon="10.13331963687977"><ele>400.6</ele><time>2026-05-03T08:58:35.747Z</time></trkpt><trkpt lat="44.26439756544811" lon="10.13337882447032"><ele>402.0</ele><time>2026-05-03T08:58:36.747Z</time></trkpt><trkpt lat="44.26447812703155" lon="10.13346058292787"><ele>405.6</ele><time>2026-05-03T08:58:37.747Z</time></trkpt><trkpt lat="44.26454872126587" lon="10.133555418777267"><ele>409.20000000000005</ele><time>2026-05-03T08:58:38.747Z</time></trkpt><trkpt lat="44.26463836252732" lon="10.133609714770342"><ele>412.8</ele><time>2026-05-03T08:58:39.747Z</time></trkpt><trkpt lat="44.26474433242637" lon="10.133655934630713"><ele>416.4</ele><time>2026-05-03T08:58:40.747Z</time></trkpt><trkpt lat="44.264856506662724" lon="10.133702408636866"><ele>420.0</ele><time>2026-05-03T08:58:41.747Z</time></trkpt><trkpt lat="44.264939865662" lon="10.133747961377233"><ele>421.0</ele><time>2026-05-03T08:58:42.747Z</time></trkpt><trkpt lat="44.26502424510234" lon="10.13387079395013"><ele>422.0</ele><time>2026-05-03T08:58:44.746Z</time></trkpt><trkpt lat="44.26506364499358" lon="10.133990149095249"><ele>423.0</ele><time>2026-05-03T08:58:45.746Z</time></trkpt><trkpt lat="44.26511735339705" lon="10.134087285632042"><ele>424.0</ele><time>2026-05-03T08:58:46.746Z</time></trkpt><trkpt lat="44.26518336432194" lon="10.13411099193072"><ele>425.0</ele><time>2026-05-03T08:58:47.746Z</time></trkpt><trkpt lat="44.265255953924296" lon="10.134111428126976"><ele>426.0</ele><time>2026-05-03T08:58:48.746Z</time></trkpt><trkpt lat="44.26532202990641" lon="10.134033401073967"><ele>426.0</ele><time>2026-05-03T08:58:49.746Z</time></trkpt><trkpt lat="44.26537081870736" lon="10.133926070799845"><ele>426.0</ele><time>2026-05-03T08:58:50.746Z</time></trkpt><trkpt lat="44.265386203676165" lon="10.1337963358788"><ele>426.0</ele><time>2026-05-03T08:58:51.746Z</time></trkpt><trkpt lat="44.265374146174686" lon="10.133647910162573"><ele>426.0</ele><time>2026-05-03T08:58:52.746Z</time></trkpt><trkpt lat="44.265363778147346" lon="10.13349975157252"><ele>426.0</ele><time>2026-05-03T08:58:53.746Z</time></trkpt><trkpt lat="44.26535890894102" lon="10.133404305754615"><ele>426.0</ele><time>2026-05-03T08:58:54.746Z</time></trkpt><trkpt lat="44.26538928621955" lon="10.133300578443437"><ele>426.0</ele><time>2026-05-03T08:58:56.746Z</time></trkpt><trkpt lat="44.26552222609532" lon="10.133278374074484"><ele>426.0</ele><time>2026-05-03T08:58:58.746Z</time></trkpt><trkpt lat="44.26561539995257" lon="10.13331053758614"><ele>426.0</ele><time>2026-05-03T08:58:59.746Z</time></trkpt><trkpt lat="44.265700933064615" lon="10.13334974389732"><ele>426.0</ele><time>2026-05-03T08:59:00.746Z</time></trkpt><trkpt lat="44.26579675377794" lon="10.133388366059112"><ele>426.0</ele><time>2026-05-03T08:59:02.746Z</time></trkpt><trkpt lat="44.265754387452525" lon="10.133516348967092"><ele>426.0</ele><time>2026-05-03T08:59:05.746Z</time></trkpt><trkpt lat="44.26568648432642" lon="10.133560403237784"><ele>426.0</ele><time>2026-05-03T08:59:06.746Z</time></trkpt><trkpt lat="44.26563011483592" lon="10.133628734908958"><ele>426.0</ele><time>2026-05-03T08:59:07.746Z</time></trkpt><trkpt lat="44.26559766113902" lon="10.13371452350768"><ele>426.0</ele><time>2026-05-03T08:59:08.746Z</time></trkpt><trkpt lat="44.26558381365206" lon="10.133824521034084"><ele>426.0</ele><time>2026-05-03T08:59:09.746Z</time></trkpt><trkpt lat="44.26558762805503" lon="10.133946163362618"><ele>429.8333333333333</ele><time>2026-05-03T08:59:10.746Z</time></trkpt><trkpt lat="44.265593155967046" lon="10.134071437608853"><ele>433.66666666666663</ele><time>2026-05-03T08:59:11.746Z</time></trkpt><trkpt lat="44.26559321826766" lon="10.134191933147175"><ele>437.5</ele><time>2026-05-03T08:59:12.746Z</time></trkpt><trkpt lat="44.265579142782755" lon="10.134305045677447"><ele>441.3333333333333</ele><time>2026-05-03T08:59:13.746Z</time></trkpt><trkpt lat="44.265551725758165" lon="10.134418347281468"><ele>445.16666666666663</ele><time>2026-05-03T08:59:14.746Z</time></trkpt><trkpt lat="44.2655150167311" lon="10.1345139688731"><ele>449.0</ele><time>2026-05-03T08:59:15.746Z</time></trkpt><trkpt lat="44.265423794839194" lon="10.134597253579704"><ele>449.0</ele><time>2026-05-03T08:59:17.746Z</time></trkpt><trkpt lat="44.26535045649583" lon="10.134589693460748"><ele>449.0</ele><time>2026-05-03T08:59:18.746Z</time></trkpt><trkpt lat="44.2652618446239" lon="10.134579886299122"><ele>449.0</ele><time>2026-05-03T08:59:19.746Z</time></trkpt><trkpt lat="44.2651582788885" lon="10.1345961282367"><ele>449.0</ele><time>2026-05-03T08:59:20.746Z</time></trkpt><trkpt lat="44.26506262446356" lon="10.134608239989065"><ele>449.0</ele><time>2026-05-03T08:59:21.746Z</time></trkpt><trkpt lat="44.26497006662005" lon="10.134572944695636"><ele>449.0</ele><time>2026-05-03T08:59:22.746Z</time></trkpt><trkpt lat="44.2648819335182" lon="10.134507979712167"><ele>449.0</ele><time>2026-05-03T08:59:23.746Z</time></trkpt><trkpt lat="44.26478764559771" lon="10.134446070222491"><ele>449.0</ele><time>2026-05-03T08:59:24.746Z</time></trkpt><trkpt lat="44.26469683252489" lon="10.13440221418927"><ele>449.0</ele><time>2026-05-03T08:59:25.746Z</time></trkpt><trkpt lat="44.26460185171275" lon="10.134386483508807"><ele>449.0</ele><time>2026-05-03T08:59:26.746Z</time></trkpt><trkpt lat="44.264502872392235" lon="10.134370457012707"><ele>448.99999999999994</ele><time>2026-05-03T08:59:27.746Z</time></trkpt><trkpt lat="44.26441511803348" lon="10.13435627851486"><ele>449.0</ele><time>2026-05-03T08:59:28.746Z</time></trkpt><trkpt lat="44.264338574574026" lon="10.134346704887262"><ele>449.0</ele><time>2026-05-03T08:59:29.746Z</time></trkpt><trkpt lat="44.264272617895614" lon="10.1343479208997"><ele>449.0</ele><time>2026-05-03T08:59:30.746Z</time></trkpt><trkpt lat="44.264211190436384" lon="10.13437292547305"><ele>448.99999999999994</ele><time>2026-05-03T08:59:31.746Z</time></trkpt><trkpt lat="44.26412362532957" lon="10.134501176151119"><ele>449.0</ele><time>2026-05-03T08:59:33.746Z</time></trkpt><trkpt lat="44.264125669420025" lon="10.13468626812131"><ele>449.0</ele><time>2026-05-03T08:59:35.746Z</time></trkpt><trkpt lat="44.26413948438734" lon="10.134812145791152"><ele>449.0</ele><time>2026-05-03T08:59:36.746Z</time></trkpt><trkpt lat="44.264163725436156" lon="10.134953235555123"><ele>449.0</ele><time>2026-05-03T08:59:37.746Z</time></trkpt><trkpt lat="44.26420908623685" lon="10.135084217335677"><ele>449.0</ele><time>2026-05-03T08:59:38.746Z</time></trkpt><trkpt lat="44.26425945754105" lon="10.13521415148878"><ele>449.0</ele><time>2026-05-03T08:59:39.746Z</time></trkpt><trkpt lat="44.264319305504486" lon="10.135345639582141"><ele>450.0</ele><time>2026-05-03T08:59:40.746Z</time></trkpt><trkpt lat="44.26437304501621" lon="10.135469862622955"><ele>451.0</ele><time>2026-05-03T08:59:41.746Z</time></trkpt><trkpt lat="44.26443160329404" lon="10.13559692712387"><ele>452.0</ele><time>2026-05-03T08:59:42.746Z</time></trkpt><trkpt lat="44.26449263693225" lon="10.135727276636768"><ele>453.0</ele><time>2026-05-03T08:59:43.746Z</time></trkpt><trkpt lat="44.264557050505154" lon="10.135854692269737"><ele>454.0</ele><time>2026-05-03T08:59:44.746Z</time></trkpt><trkpt lat="44.26463001546283" lon="10.135962480144173"><ele>454.0</ele><time>2026-05-03T08:59:45.746Z</time></trkpt><trkpt lat="44.264696246882934" lon="10.136069430049345"><ele>454.0</ele><time>2026-05-03T08:59:46.746Z</time></trkpt><trkpt lat="44.26475572856115" lon="10.13618233705976"><ele>454.0</ele><time>2026-05-03T08:59:47.746Z</time></trkpt><trkpt lat="44.26481706030253" lon="10.136293370110806"><ele>454.0</ele><time>2026-05-03T08:59:48.746Z</time></trkpt><trkpt lat="44.264882440388774" lon="10.136394645919449"><ele>454.0</ele><time>2026-05-03T08:59:49.746Z</time></trkpt><trkpt lat="44.26496201567017" lon="10.136469232934065"><ele>458.6666666666667</ele><time>2026-05-03T08:59:50.746Z</time></trkpt><trkpt lat="44.26503836080845" lon="10.136542504213478"><ele>463.33333333333337</ele><time>2026-05-03T08:59:51.746Z</time></trkpt><trkpt lat="44.265088789165986" lon="10.136645124715194"><ele>468.0</ele><time>2026-05-03T08:59:52.746Z</time></trkpt><trkpt lat="44.26510615095297" lon="10.13676909515595"><ele>472.66666666666663</ele><time>2026-05-03T08:59:53.746Z</time></trkpt><trkpt lat="44.26510130456051" lon="10.136889488961438"><ele>477.3333333333333</ele><time>2026-05-03T08:59:54.746Z</time></trkpt><trkpt lat="44.26510532743899" lon="10.137008096415181"><ele>482.0</ele><time>2026-05-03T08:59:55.745Z</time></trkpt><trkpt lat="44.26512167468829" lon="10.137141109084864"><ele>482.0</ele><time>2026-05-03T08:59:56.745Z</time></trkpt><trkpt lat="44.26516223586244" lon="10.137291380990987"><ele>482.0</ele><time>2026-05-03T08:59:57.745Z</time></trkpt><trkpt lat="44.26521640062222" lon="10.137446120403716"><ele>482.0</ele><time>2026-05-03T08:59:58.745Z</time></trkpt><trkpt lat="44.265275304557576" lon="10.137595631840057"><ele>482.0</ele><time>2026-05-03T08:59:59.745Z</time></trkpt><trkpt lat="44.26533616785496" lon="10.1377422749156"><ele>480.25</ele><time>2026-05-03T09:00:00.744Z</time></trkpt><trkpt lat="44.26540036092972" lon="10.137879247291577"><ele>478.5</ele><time>2026-05-03T09:00:01.744Z</time></trkpt><trkpt lat="44.265464995721764" lon="10.138017655452567"><ele>476.75</ele><time>2026-05-03T09:00:02.743Z</time></trkpt><trkpt lat="44.26554152980529" lon="10.13813989569252"><ele>475.0</ele><time>2026-05-03T09:00:03.744Z</time></trkpt><trkpt lat="44.26561613459442" lon="10.138264640798"><ele>479.6666666666667</ele><time>2026-05-03T09:00:04.744Z</time></trkpt><trkpt lat="44.26568013252639" lon="10.138391782509768"><ele>484.33333333333337</ele><time>2026-05-03T09:00:05.744Z</time></trkpt><trkpt lat="44.265728868270024" lon="10.138504744315844"><ele>489.0</ele><time>2026-05-03T09:00:06.744Z</time></trkpt><trkpt lat="44.26576176904827" lon="10.138592133045062"><ele>493.66666666666663</ele><time>2026-05-03T09:00:07.743Z</time></trkpt><trkpt lat="44.26579240410497" lon="10.138674197005216"><ele>498.3333333333333</ele><time>2026-05-03T09:00:08.743Z</time></trkpt><trkpt lat="44.26582837081196" lon="10.138782044313583"><ele>503.0</ele><time>2026-05-03T09:00:09.744Z</time></trkpt><trkpt lat="44.26586749151652" lon="10.1389074916824"><ele>500.25</ele><time>2026-05-03T09:00:10.743Z</time></trkpt><trkpt lat="44.265912889944794" lon="10.139066907812342"><ele>497.5</ele><time>2026-05-03T09:00:11.743Z</time></trkpt><trkpt lat="44.265971631601964" lon="10.139255805787016"><ele>494.75</ele><time>2026-05-03T09:00:12.743Z</time></trkpt><trkpt lat="44.26603356994806" lon="10.139457040318412"><ele>492.0</ele><time>2026-05-03T09:00:13.744Z</time></trkpt><trkpt lat="44.266089199058065" lon="10.13964401021151"><ele>492.0</ele><time>2026-05-03T09:00:14.744Z</time></trkpt><trkpt lat="44.26614284868276" lon="10.139822802019347"><ele>492.0</ele><time>2026-05-03T09:00:15.744Z</time></trkpt><trkpt lat="44.266193527977144" lon="10.139996758044822"><ele>492.0</ele><time>2026-05-03T09:00:16.744Z</time></trkpt><trkpt lat="44.26625220986491" lon="10.140161220332878"><ele>492.0</ele><time>2026-05-03T09:00:17.743Z</time></trkpt><trkpt lat="44.2663160859114" lon="10.140309760916995"><ele>490.1666666666667</ele><time>2026-05-03T09:00:18.743Z</time></trkpt><trkpt lat="44.26637632933482" lon="10.14044455817408"><ele>488.33333333333337</ele><time>2026-05-03T09:00:19.743Z</time></trkpt><trkpt lat="44.26642645524594" lon="10.140559780844873"><ele>486.5</ele><time>2026-05-03T09:00:20.743Z</time></trkpt><trkpt lat="44.26646560217541" lon="10.14064161564794"><ele>484.6666666666667</ele><time>2026-05-03T09:00:21.743Z</time></trkpt><trkpt lat="44.26650213933941" lon="10.140729572661575"><ele>482.83333333333337</ele><time>2026-05-03T09:00:22.743Z</time></trkpt><trkpt lat="44.26657086137076" lon="10.140813988409612"><ele>481.0</ele><time>2026-05-03T09:00:23.743Z</time></trkpt><trkpt lat="44.26666062641026" lon="10.140887350975111"><ele>488.25</ele><time>2026-05-03T09:00:24.743Z</time></trkpt><trkpt lat="44.26676519174734" lon="10.140978012919442"><ele>495.5</ele><time>2026-05-03T09:00:25.743Z</time></trkpt><trkpt lat="44.2668666534758" lon="10.14105114974233"><ele>502.75</ele><time>2026-05-03T09:00:26.743Z</time></trkpt><trkpt lat="44.26696040447818" lon="10.141133564945477"><ele>510.0</ele><time>2026-05-03T09:00:27.743Z</time></trkpt><trkpt lat="44.26704953341672" lon="10.14121915175836"><ele>510.0</ele><time>2026-05-03T09:00:28.743Z</time></trkpt><trkpt lat="44.267141845362374" lon="10.141304570903783"><ele>510.0</ele><time>2026-05-03T09:00:29.743Z</time></trkpt><trkpt lat="44.2672254525199" lon="10.141400266473275"><ele>510.0</ele><time>2026-05-03T09:00:30.743Z</time></trkpt><trkpt lat="44.26728171948636" lon="10.141497749158916"><ele>510.0</ele><time>2026-05-03T09:00:31.743Z</time></trkpt><trkpt lat="44.267341306368564" lon="10.141602081444733"><ele>510.0</ele><time>2026-05-03T09:00:32.743Z</time></trkpt><trkpt lat="44.26738364790257" lon="10.141698251622897"><ele>512.0</ele><time>2026-05-03T09:00:33.743Z</time></trkpt><trkpt lat="44.26746368144276" lon="10.141813902639152"><ele>514.0</ele><time>2026-05-03T09:00:35.743Z</time></trkpt><trkpt lat="44.26751909338223" lon="10.14186728852851"><ele>516.0</ele><time>2026-05-03T09:00:37.743Z</time></trkpt><trkpt lat="44.267568165136446" lon="10.141793729572225"><ele>518.0</ele><time>2026-05-03T09:00:39.743Z</time></trkpt><trkpt lat="44.2675355269553" lon="10.141636628654028"><ele>520.0</ele><time>2026-05-03T09:00:41.743Z</time></trkpt><trkpt lat="44.2674984267138" lon="10.141537428245703"><ele>518.0</ele><time>2026-05-03T09:00:42.743Z</time></trkpt><trkpt lat="44.26746312894139" lon="10.141425712095206"><ele>516.0</ele><time>2026-05-03T09:00:43.743Z</time></trkpt><trkpt lat="44.267412430016826" lon="10.14131059099487"><ele>514.0</ele><time>2026-05-03T09:00:44.743Z</time></trkpt><trkpt lat="44.26735635611059" lon="10.141208592841702"><ele>512.0</ele><time>2026-05-03T09:00:45.743Z</time></trkpt><trkpt lat="44.26727650579679" lon="10.141105422759034"><ele>510.0</ele><time>2026-05-03T09:00:46.743Z</time></trkpt><trkpt lat="44.267202159610704" lon="10.14099437727188"><ele>510.0</ele><time>2026-05-03T09:00:47.743Z</time></trkpt><trkpt lat="44.26713384763998" lon="10.140892298585259"><ele>510.0</ele><time>2026-05-03T09:00:48.743Z</time></trkpt><trkpt lat="44.26706587739484" lon="10.140784767670173"><ele>510.0</ele><time>2026-05-03T09:00:49.743Z</time></trkpt><trkpt lat="44.26699736838348" lon="10.140674935885356"><ele>510.0</ele><time>2026-05-03T09:00:50.743Z</time></trkpt><trkpt lat="44.266953935188035" lon="10.140561757242212"><ele>510.0</ele><time>2026-05-03T09:00:51.743Z</time></trkpt><trkpt lat="44.266937970333" lon="10.140428863578357"><ele>513.2</ele><time>2026-05-03T09:00:52.743Z</time></trkpt><trkpt lat="44.26693518642878" lon="10.140282379362208"><ele>516.4</ele><time>2026-05-03T09:00:53.743Z</time></trkpt><trkpt lat="44.26692558208356" lon="10.140131985391807"><ele>519.6</ele><time>2026-05-03T09:00:54.743Z</time></trkpt><trkpt lat="44.26690650448217" lon="10.13997462508528"><ele>522.8</ele><time>2026-05-03T09:00:55.743Z</time></trkpt><trkpt lat="44.266868402348365" lon="10.139827990921628"><ele>526.0</ele><time>2026-05-03T09:00:56.743Z</time></trkpt><trkpt lat="44.26682014618834" lon="10.139674218796848"><ele>528.75</ele><time>2026-05-03T09:00:57.743Z</time></trkpt><trkpt lat="44.266762898256296" lon="10.139518513408927"><ele>531.5</ele><time>2026-05-03T09:00:58.743Z</time></trkpt><trkpt lat="44.26671364080463" lon="10.139375561468842"><ele>534.25</ele><time>2026-05-03T09:00:59.743Z</time></trkpt><trkpt lat="44.26668032409104" lon="10.139213272890016"><ele>537.0</ele><time>2026-05-03T09:01:00.743Z</time></trkpt><trkpt lat="44.26667159380053" lon="10.139016768013558"><ele>539.25</ele><time>2026-05-03T09:01:01.743Z</time></trkpt><trkpt lat="44.266674975635276" lon="10.138812765248435"><ele>541.5</ele><time>2026-05-03T09:01:02.743Z</time></trkpt><trkpt lat="44.26667264392072" lon="10.138613504766486"><ele>543.75</ele><time>2026-05-03T09:01:03.743Z</time></trkpt><trkpt lat="44.26664494665775" lon="10.138418221787793"><ele>546.0</ele><time>2026-05-03T09:01:04.743Z</time></trkpt><trkpt lat="44.26662387153534" lon="10.138232082143372"><ele>546.75</ele><time>2026-05-03T09:01:05.743Z</time></trkpt><trkpt lat="44.266595323220606" lon="10.138060559969297"><ele>547.5</ele><time>2026-05-03T09:01:06.743Z</time></trkpt><trkpt lat="44.26657031576843" lon="10.13791099798922"><ele>548.25</ele><time>2026-05-03T09:01:07.743Z</time></trkpt><trkpt lat="44.26655847035217" lon="10.137751896364774"><ele>549.0</ele><time>2026-05-03T09:01:08.743Z</time></trkpt><trkpt lat="44.266579928478976" lon="10.137593198959546"><ele>549.0</ele><time>2026-05-03T09:01:09.743Z</time></trkpt><trkpt lat="44.2666280810698" lon="10.137454465240657"><ele>549.0</ele><time>2026-05-03T09:01:10.743Z</time></trkpt><trkpt lat="44.26670289850577" lon="10.137315756096932"><ele>549.0</ele><time>2026-05-03T09:01:11.743Z</time></trkpt><trkpt lat="44.26677774048026" lon="10.137164315607679"><ele>549.0</ele><time>2026-05-03T09:01:12.743Z</time></trkpt><trkpt lat="44.266822311301" lon="10.136984832596527"><ele>548.0</ele><time>2026-05-03T09:01:13.743Z</time></trkpt><trkpt lat="44.26685340691434" lon="10.136776972952969"><ele>547.0</ele><time>2026-05-03T09:01:14.743Z</time></trkpt><trkpt lat="44.266886065684204" lon="10.136580369795784"><ele>546.0</ele><time>2026-05-03T09:01:15.743Z</time></trkpt><trkpt lat="44.26692906787752" lon="10.136390768271093"><ele>545.0</ele><time>2026-05-03T09:01:16.743Z</time></trkpt><trkpt lat="44.26698647367083" lon="10.13622221623334"><ele>543.25</ele><time>2026-05-03T09:01:17.743Z</time></trkpt><trkpt lat="44.26706550494505" lon="10.136079770829072"><ele>541.5</ele><time>2026-05-03T09:01:18.743Z</time></trkpt><trkpt lat="44.26713715959124" lon="10.13596953004833"><ele>539.75</ele><time>2026-05-03T09:01:19.743Z</time></trkpt><trkpt lat="44.267226287652065" lon="10.135878514160103"><ele>538.0</ele><time>2026-05-03T09:01:20.743Z</time></trkpt><trkpt lat="44.26733369984342" lon="10.135827674826475"><ele>542.6</ele><time>2026-05-03T09:01:21.743Z</time></trkpt><trkpt lat="44.267451902454184" lon="10.135803031092419"><ele>547.1999999999999</ele><time>2026-05-03T09:01:22.743Z</time></trkpt><trkpt lat="44.26755834794885" lon="10.1358128180504"><ele>551.8</ele><time>2026-05-03T09:01:23.743Z</time></trkpt><trkpt lat="44.26765192110992" lon="10.135876255586247"><ele>556.4</ele><time>2026-05-03T09:01:24.743Z</time></trkpt><trkpt lat="44.26774763241872" lon="10.135964361528206"><ele>561.0</ele><time>2026-05-03T09:01:25.743Z</time></trkpt><trkpt lat="44.26783537958699" lon="10.136015017239925"><ele>561.0</ele><time>2026-05-03T09:01:26.743Z</time></trkpt><trkpt lat="44.26793857905726" lon="10.136023219599538"><ele>561.0</ele><time>2026-05-03T09:01:27.742Z</time></trkpt><trkpt lat="44.26804324956507" lon="10.135973315534933"><ele>561.0</ele><time>2026-05-03T09:01:28.742Z</time></trkpt><trkpt lat="44.26816151908355" lon="10.13593739304451"><ele>561.0</ele><time>2026-05-03T09:01:29.742Z</time></trkpt><trkpt lat="44.26826672527185" lon="10.135937040599186"><ele>561.0</ele><time>2026-05-03T09:01:30.742Z</time></trkpt><trkpt lat="44.26837762338161" lon="10.135962495426662"><ele>563.25</ele><time>2026-05-03T09:01:31.742Z</time></trkpt><trkpt lat="44.268495654882756" lon="10.136007215895358"><ele>565.5</ele><time>2026-05-03T09:01:32.742Z</time></trkpt><trkpt lat="44.26861093764984" lon="10.136018721261806"><ele>567.75</ele><time>2026-05-03T09:01:33.742Z</time></trkpt><trkpt lat="44.268722458576335" lon="10.135982462064668"><ele>570.0</ele><time>2026-05-03T09:01:34.742Z</time></trkpt><trkpt lat="44.26883016321993" lon="10.135910829576034"><ele>574.5</ele><time>2026-05-03T09:01:35.742Z</time></trkpt><trkpt lat="44.268948216945404" lon="10.135847197810515"><ele>579.0</ele><time>2026-05-03T09:01:36.742Z</time></trkpt><trkpt lat="44.26907106985893" lon="10.13580954189913"><ele>583.5</ele><time>2026-05-03T09:01:37.742Z</time></trkpt><trkpt lat="44.26919336711018" lon="10.135805235524005"><ele>588.0</ele><time>2026-05-03T09:01:38.742Z</time></trkpt><trkpt lat="44.2693204263488" lon="10.135829277860703"><ele>588.0</ele><time>2026-05-03T09:01:39.742Z</time></trkpt><trkpt lat="44.2694280009937" lon="10.135870982743375"><ele>588.0</ele><time>2026-05-03T09:01:40.742Z</time></trkpt><trkpt lat="44.26951188129548" lon="10.135894132620898"><ele>588.0</ele><time>2026-05-03T09:01:41.742Z</time></trkpt><trkpt lat="44.269586598365684" lon="10.135881545132289"><ele>588.0</ele><time>2026-05-03T09:01:42.742Z</time></trkpt><trkpt lat="44.26964880941707" lon="10.135848233021285"><ele>588.0</ele><time>2026-05-03T09:01:43.742Z</time></trkpt><trkpt lat="44.26969936478339" lon="10.135784319559102"><ele>588.0</ele><time>2026-05-03T09:01:44.742Z</time></trkpt><trkpt lat="44.269722143436844" lon="10.1356858760814"><ele>586.8</ele><time>2026-05-03T09:01:45.742Z</time></trkpt><trkpt lat="44.269749878905536" lon="10.135539727948386"><ele>585.5999999999999</ele><time>2026-05-03T09:01:46.742Z</time></trkpt><trkpt lat="44.26977162896744" lon="10.135392303581032"><ele>584.4000000000001</ele><time>2026-05-03T09:01:47.742Z</time></trkpt><trkpt lat="44.26981976064107" lon="10.135287116313716"><ele>583.2</ele><time>2026-05-03T09:01:48.742Z</time></trkpt><trkpt lat="44.269888036836036" lon="10.135235761859914"><ele>582.0</ele><time>2026-05-03T09:01:49.742Z</time></trkpt><trkpt lat="44.2699758713344" lon="10.135215595950298"><ele>582.0</ele><time>2026-05-03T09:01:50.742Z</time></trkpt><trkpt lat="44.27007744195865" lon="10.135233630107109"><ele>582.0</ele><time>2026-05-03T09:01:51.742Z</time></trkpt><trkpt lat="44.27017315101076" lon="10.135282973491636"><ele>582.0</ele><time>2026-05-03T09:01:52.742Z</time></trkpt><trkpt lat="44.27026932558328" lon="10.135371756390562"><ele>582.0</ele><time>2026-05-03T09:01:53.742Z</time></trkpt><trkpt lat="44.270370560562654" lon="10.135473260299502"><ele>582.0</ele><time>2026-05-03T09:01:54.742Z</time></trkpt><trkpt lat="44.2704736660352" lon="10.13556808194114"><ele>582.0</ele><time>2026-05-03T09:01:55.742Z</time></trkpt><trkpt lat="44.27058457360768" lon="10.135652702026762"><ele>582.0</ele><time>2026-05-03T09:01:56.742Z</time></trkpt><trkpt lat="44.27069192866024" lon="10.13570243833298"><ele>582.0</ele><time>2026-05-03T09:01:57.742Z</time></trkpt><trkpt lat="44.27081192049369" lon="10.135720715718877"><ele>582.0</ele><time>2026-05-03T09:01:58.742Z</time></trkpt><trkpt lat="44.2709305222883" lon="10.135737759886373"><ele>582.75</ele><time>2026-05-03T09:01:59.742Z</time></trkpt><trkpt lat="44.27105259338069" lon="10.135730447108907"><ele>583.5</ele><time>2026-05-03T09:02:00.742Z</time></trkpt><trkpt lat="44.27117950061702" lon="10.135684629449417"><ele>584.25</ele><time>2026-05-03T09:02:01.742Z</time></trkpt><trkpt lat="44.271315322720575" lon="10.135617262736119"><ele>585.0</ele><time>2026-05-03T09:02:02.742Z</time></trkpt><trkpt lat="44.271450483791895" lon="10.135547207822924"><ele>591.5</ele><time>2026-05-03T09:02:03.742Z</time></trkpt><trkpt lat="44.271579259073846" lon="10.135483425656341"><ele>598.0</ele><time>2026-05-03T09:02:04.742Z</time></trkpt><trkpt lat="44.27170527089776" lon="10.135415164683318"><ele>604.5</ele><time>2026-05-03T09:02:05.742Z</time></trkpt><trkpt lat="44.27182669921535" lon="10.135330795447823"><ele>611.0</ele><time>2026-05-03T09:02:06.741Z</time></trkpt><trkpt lat="44.27194711351187" lon="10.135249305549474"><ele>611.0</ele><time>2026-05-03T09:02:07.74Z</time></trkpt><trkpt lat="44.27206284721082" lon="10.135171492071327"><ele>611.0</ele><time>2026-05-03T09:02:08.74Z</time></trkpt><trkpt lat="44.27217588030311" lon="10.13507463728999"><ele>611.0</ele><time>2026-05-03T09:02:09.741Z</time></trkpt><trkpt lat="44.27228129596687" lon="10.134975580868465"><ele>611.0</ele><time>2026-05-03T09:02:10.741Z</time></trkpt><trkpt lat="44.27237710419625" lon="10.13488945451613"><ele>611.5</ele><time>2026-05-03T09:02:11.741Z</time></trkpt><trkpt lat="44.27246679364274" lon="10.134839810627192"><ele>612.0</ele><time>2026-05-03T09:02:12.74Z</time></trkpt><trkpt lat="44.27257795727248" lon="10.134826376882435"><ele>612.5</ele><time>2026-05-03T09:02:13.74Z</time></trkpt><trkpt lat="44.272699266171244" lon="10.134815480381722"><ele>613.0</ele><time>2026-05-03T09:02:14.74Z</time></trkpt><trkpt lat="44.272816788995485" lon="10.13478056084243"><ele>613.0</ele><time>2026-05-03T09:02:15.74Z</time></trkpt><trkpt lat="44.27292525956387" lon="10.134753916858307"><ele>613.0</ele><time>2026-05-03T09:02:16.74Z</time></trkpt><trkpt lat="44.27303277795049" lon="10.134736515001833"><ele>613.0</ele><time>2026-05-03T09:02:17.74Z</time></trkpt><trkpt lat="44.27314634189084" lon="10.134763123081374"><ele>613.0</ele><time>2026-05-03T09:02:18.74Z</time></trkpt><trkpt lat="44.27327269274271" lon="10.134790800402273"><ele>615.6</ele><time>2026-05-03T09:02:19.74Z</time></trkpt><trkpt lat="44.273398223034356" lon="10.134850772560139"><ele>618.1999999999999</ele><time>2026-05-03T09:02:20.74Z</time></trkpt><trkpt lat="44.27351201379554" lon="10.134873355913896"><ele>620.8</ele><time>2026-05-03T09:02:21.74Z</time></trkpt><trkpt lat="44.27360440498284" lon="10.134894442425047"><ele>623.4</ele><time>2026-05-03T09:02:22.74Z</time></trkpt><trkpt lat="44.273678834503045" lon="10.134932532259722"><ele>626.0</ele><time>2026-05-03T09:02:23.74Z</time></trkpt><trkpt lat="44.27374958166497" lon="10.135068387030515"><ele>630.5</ele><time>2026-05-03T09:02:25.74Z</time></trkpt><trkpt lat="44.27374454820911" lon="10.135159011098706"><ele>635.0</ele><time>2026-05-03T09:02:26.74Z</time></trkpt><trkpt lat="44.2737114244606" lon="10.135234878513986"><ele>639.5</ele><time>2026-05-03T09:02:27.74Z</time></trkpt><trkpt lat="44.273645451470706" lon="10.135302797187544"><ele>644.0</ele><time>2026-05-03T09:02:28.74Z</time></trkpt><trkpt lat="44.27356646067694" lon="10.135373225571406"><ele>648.5</ele><time>2026-05-03T09:02:29.74Z</time></trkpt><trkpt lat="44.273469950207954" lon="10.135440197004192"><ele>653.0</ele><time>2026-05-03T09:02:30.74Z</time></trkpt><trkpt lat="44.27335839421897" lon="10.135492058558368"><ele>653.0</ele><time>2026-05-03T09:02:31.74Z</time></trkpt><trkpt lat="44.2732367749082" lon="10.135525450115203"><ele>653.0</ele><time>2026-05-03T09:02:32.74Z</time></trkpt><trkpt lat="44.27312867365252" lon="10.13555407901826"><ele>653.0</ele><time>2026-05-03T09:02:33.74Z</time></trkpt><trkpt lat="44.27303684634287" lon="10.13559154553499"><ele>653.0</ele><time>2026-05-03T09:02:34.74Z</time></trkpt><trkpt lat="44.27296265694756" lon="10.135667185784826"><ele>653.0</ele><time>2026-05-03T09:02:35.74Z</time></trkpt><trkpt lat="44.27287770085386" lon="10.13578414716807"><ele>655.25</ele><time>2026-05-03T09:02:36.74Z</time></trkpt><trkpt lat="44.27279817930427" lon="10.135920230775803"><ele>657.5</ele><time>2026-05-03T09:02:37.74Z</time></trkpt><trkpt lat="44.2727172366779" lon="10.136053027801424"><ele>659.75</ele><time>2026-05-03T09:02:38.74Z</time></trkpt><trkpt lat="44.27262243726237" lon="10.136189241091666"><ele>662.0</ele><time>2026-05-03T09:02:39.74Z</time></trkpt><trkpt lat="44.272535845704695" lon="10.136309273514087"><ele>662.0</ele><time>2026-05-03T09:02:40.74Z</time></trkpt><trkpt lat="44.27247052752952" lon="10.136404018224146"><ele>662.0</ele><time>2026-05-03T09:02:41.74Z</time></trkpt><trkpt lat="44.27241798321993" lon="10.136480842737583"><ele>662.0</ele><time>2026-05-03T09:02:42.74Z</time></trkpt><trkpt lat="44.27239118619266" lon="10.13659370628696"><ele>662.0</ele><time>2026-05-03T09:02:44.74Z</time></trkpt><trkpt lat="44.27243313283074" lon="10.136679433321842"><ele>662.0</ele><time>2026-05-03T09:02:46.74Z</time></trkpt><trkpt lat="44.272543852098416" lon="10.136699331908792"><ele>662.0</ele><time>2026-05-03T09:02:48.74Z</time></trkpt><trkpt lat="44.27261128484651" lon="10.13665691944071"><ele>662.0</ele><time>2026-05-03T09:02:49.74Z</time></trkpt><trkpt lat="44.27267867266818" lon="10.136569548418372"><ele>662.0</ele><time>2026-05-03T09:02:50.74Z</time></trkpt><trkpt lat="44.272748081444206" lon="10.136478516144793"><ele>662.0</ele><time>2026-05-03T09:02:51.74Z</time></trkpt><trkpt lat="44.27282309794084" lon="10.136413571004663"><ele>662.0</ele><time>2026-05-03T09:02:52.74Z</time></trkpt><trkpt lat="44.272909419428366" lon="10.136353341514557"><ele>662.0</ele><time>2026-05-03T09:02:53.74Z</time></trkpt><trkpt lat="44.27300223502223" lon="10.136306286050255"><ele>662.0</ele><time>2026-05-03T09:02:54.74Z</time></trkpt><trkpt lat="44.27309252380007" lon="10.136291910565896"><ele>662.0</ele><time>2026-05-03T09:02:55.74Z</time></trkpt><trkpt lat="44.273184303276736" lon="10.136316132981413"><ele>662.0</ele><time>2026-05-03T09:02:56.74Z</time></trkpt><trkpt lat="44.27327520510785" lon="10.13637169416357"><ele>662.0</ele><time>2026-05-03T09:02:57.74Z</time></trkpt><trkpt lat="44.27336245006531" lon="10.136427624859806"><ele>662.0</ele><time>2026-05-03T09:02:58.74Z</time></trkpt><trkpt lat="44.27345193714581" lon="10.136447350306824"><ele>665.5</ele><time>2026-05-03T09:02:59.74Z</time></trkpt><trkpt lat="44.273556279944465" lon="10.136436392103047"><ele>669.0</ele><time>2026-05-03T09:03:00.74Z</time></trkpt><trkpt lat="44.27366466751849" lon="10.136407285596185"><ele>672.5</ele><time>2026-05-03T09:03:01.74Z</time></trkpt><trkpt lat="44.27378055368175" lon="10.136395958674369"><ele>676.0</ele><time>2026-05-03T09:03:02.74Z</time></trkpt><trkpt lat="44.27390869233295" lon="10.136403457818965"><ele>679.75</ele><time>2026-05-03T09:03:03.74Z</time></trkpt><trkpt lat="44.27403974225722" lon="10.136422421530968"><ele>683.5</ele><time>2026-05-03T09:03:04.74Z</time></trkpt><trkpt lat="44.274167654174704" lon="10.136444065091943"><ele>687.25</ele><time>2026-05-03T09:03:05.74Z</time></trkpt><trkpt lat="44.27429523075229" lon="10.136471025428978"><ele>691.0</ele><time>2026-05-03T09:03:06.74Z</time></trkpt><trkpt lat="44.2744185424898" lon="10.136487771018599"><ele>691.0</ele><time>2026-05-03T09:03:07.74Z</time></trkpt><trkpt lat="44.274528269885074" lon="10.136500713526996"><ele>691.0</ele><time>2026-05-03T09:03:08.74Z</time></trkpt><trkpt lat="44.27461955069861" lon="10.136498960480909"><ele>691.0</ele><time>2026-05-03T09:03:09.74Z</time></trkpt><trkpt lat="44.27469331385901" lon="10.136473432429867"><ele>691.0</ele><time>2026-05-03T09:03:10.739Z</time></trkpt><trkpt lat="44.27478108825364" lon="10.136313459943684"><ele>691.0</ele><time>2026-05-03T09:03:12.739Z</time></trkpt><trkpt lat="44.2748348432348" lon="10.136038228121905"><ele>691.75</ele><time>2026-05-03T09:03:14.739Z</time></trkpt><trkpt lat="44.27495402322276" lon="10.135828653349332"><ele>692.5</ele><time>2026-05-03T09:03:16.739Z</time></trkpt><trkpt lat="44.27504849203462" lon="10.135751143646157"><ele>693.25</ele><time>2026-05-03T09:03:17.739Z</time></trkpt><trkpt lat="44.27516732030906" lon="10.135713366725192"><ele>694.0</ele><time>2026-05-03T09:03:18.739Z</time></trkpt><trkpt lat="44.27527861337747" lon="10.135683784132128"><ele>694.0</ele><time>2026-05-03T09:03:19.739Z</time></trkpt><trkpt lat="44.27539484740199" lon="10.13565782131948"><ele>694.0</ele><time>2026-05-03T09:03:20.739Z</time></trkpt><trkpt lat="44.27551539954549" lon="10.135658688239475"><ele>694.0</ele><time>2026-05-03T09:03:21.739Z</time></trkpt><trkpt lat="44.275628743397675" lon="10.135669933998747"><ele>694.0</ele><time>2026-05-03T09:03:22.739Z</time></trkpt><trkpt lat="44.275723609063256" lon="10.135683971647204"><ele>694.0</ele><time>2026-05-03T09:03:23.739Z</time></trkpt><trkpt lat="44.27579570566013" lon="10.1356920928164"><ele>700.5</ele><time>2026-05-03T09:03:24.739Z</time></trkpt><trkpt lat="44.27587852722387" lon="10.135642449300798"><ele>707.0</ele><time>2026-05-03T09:03:26.739Z</time></trkpt><trkpt lat="44.27595427509633" lon="10.135422014270995"><ele>713.5</ele><time>2026-05-03T09:03:28.739Z</time></trkpt><trkpt lat="44.27602029996349" lon="10.135271946663766"><ele>720.0</ele><time>2026-05-03T09:03:29.739Z</time></trkpt><trkpt lat="44.27609792648582" lon="10.135124397107155"><ele>720.0</ele><time>2026-05-03T09:03:30.739Z</time></trkpt><trkpt lat="44.2761726793918" lon="10.134979862150658"><ele>720.0</ele><time>2026-05-03T09:03:31.739Z</time></trkpt><trkpt lat="44.276245938373386" lon="10.134829382789077"><ele>720.0</ele><time>2026-05-03T09:03:32.739Z</time></trkpt><trkpt lat="44.27632105109123" lon="10.134679357043975"><ele>720.0</ele><time>2026-05-03T09:03:33.739Z</time></trkpt><trkpt lat="44.27638567116874" lon="10.134552135796358"><ele>724.4</ele><time>2026-05-03T09:03:34.739Z</time></trkpt><trkpt lat="44.276446669333964" lon="10.134438047980304"><ele>728.8</ele><time>2026-05-03T09:03:35.739Z</time></trkpt><trkpt lat="44.276513055684354" lon="10.134349297223501"><ele>733.2</ele><time>2026-05-03T09:03:36.739Z</time></trkpt><trkpt lat="44.276598113955046" lon="10.13426025105988"><ele>737.6</ele><time>2026-05-03T09:03:37.739Z</time></trkpt><trkpt lat="44.27670346505347" lon="10.13418857181463"><ele>742.0</ele><time>2026-05-03T09:03:38.739Z</time></trkpt><trkpt lat="44.276814143171734" lon="10.134113399216957"><ele>743.2</ele><time>2026-05-03T09:03:39.739Z</time></trkpt><trkpt lat="44.276927942948944" lon="10.13403890902069"><ele>744.4000000000001</ele><time>2026-05-03T09:03:40.739Z</time></trkpt><trkpt lat="44.277038757239694" lon="10.133982334255203"><ele>745.5999999999999</ele><time>2026-05-03T09:03:41.739Z</time></trkpt><trkpt lat="44.277133700918746" lon="10.13391431556578"><ele>746.8</ele><time>2026-05-03T09:03:42.739Z</time></trkpt><trkpt lat="44.27721926811119" lon="10.13385647300481"><ele>748.0</ele><time>2026-05-03T09:03:43.739Z</time></trkpt><trkpt lat="44.27727766280491" lon="10.133808237640212"><ele>748.0</ele><time>2026-05-03T09:03:44.739Z</time></trkpt><trkpt lat="44.27736334689216" lon="10.133825291299198"><ele>748.0</ele><time>2026-05-03T09:03:46.739Z</time></trkpt><trkpt lat="44.27737637683093" lon="10.133915664347807"><ele>748.0</ele><time>2026-05-03T09:03:47.739Z</time></trkpt><trkpt lat="44.27735039342408" lon="10.134007507194536"><ele>748.0</ele><time>2026-05-03T09:03:48.739Z</time></trkpt><trkpt lat="44.27729096936604" lon="10.13409101356621"><ele>748.0</ele><time>2026-05-03T09:03:49.739Z</time></trkpt><trkpt lat="44.277221767461924" lon="10.134171661436355"><ele>748.0</ele><time>2026-05-03T09:03:50.739Z</time></trkpt><trkpt lat="44.277141097148345" lon="10.134257211653027"><ele>747.0</ele><time>2026-05-03T09:03:51.739Z</time></trkpt><trkpt lat="44.27705975845753" lon="10.13433151390892"><ele>746.0</ele><time>2026-05-03T09:03:52.739Z</time></trkpt><trkpt lat="44.276997606032424" lon="10.134391054086242"><ele>745.0</ele><time>2026-05-03T09:03:53.739Z</time></trkpt><trkpt lat="44.27696197105612" lon="10.134523925549201"><ele>744.0</ele><time>2026-05-03T09:03:55.739Z</time></trkpt><trkpt lat="44.27701150670716" lon="10.134588940671092"><ele>743.0</ele><time>2026-05-03T09:03:56.739Z</time></trkpt><trkpt lat="44.27709088784715" lon="10.13459836264105"><ele>742.0</ele><time>2026-05-03T09:03:57.739Z</time></trkpt><trkpt lat="44.2771780785512" lon="10.134566249511815"><ele>748.0</ele><time>2026-05-03T09:03:58.739Z</time></trkpt><trkpt lat="44.27727700516037" lon="10.134514167039905"><ele>754.0</ele><time>2026-05-03T09:03:59.739Z</time></trkpt><trkpt lat="44.27737984860183" lon="10.134443146389588"><ele>760.0</ele><time>2026-05-03T09:04:00.739Z</time></trkpt><trkpt lat="44.27747805455363" lon="10.134358610389306"><ele>766.0</ele><time>2026-05-03T09:04:01.739Z</time></trkpt><trkpt lat="44.27758735951975" lon="10.134287653001596"><ele>766.0</ele><time>2026-05-03T09:04:02.739Z</time></trkpt><trkpt lat="44.277690560445194" lon="10.13422320736465"><ele>766.0</ele><time>2026-05-03T09:04:03.739Z</time></trkpt><trkpt lat="44.27781448270453" lon="10.13416790871744"><ele>766.0</ele><time>2026-05-03T09:04:04.739Z</time></trkpt><trkpt lat="44.27794967052827" lon="10.134115391532683"><ele>766.0</ele><time>2026-05-03T09:04:05.739Z</time></trkpt><trkpt lat="44.278080169428705" lon="10.134069552831498"><ele>766.75</ele><time>2026-05-03T09:04:06.739Z</time></trkpt><trkpt lat="44.278211806287146" lon="10.134026701417058"><ele>767.5</ele><time>2026-05-03T09:04:07.739Z</time></trkpt><trkpt lat="44.27834213047917" lon="10.133981054278609"><ele>768.25</ele><time>2026-05-03T09:04:08.739Z</time></trkpt><trkpt lat="44.278469072741714" lon="10.133912641538789"><ele>769.0</ele><time>2026-05-03T09:04:09.739Z</time></trkpt><trkpt lat="44.27859602889234" lon="10.133842418876482"><ele>769.0</ele><time>2026-05-03T09:04:10.739Z</time></trkpt><trkpt lat="44.27871370205216" lon="10.13377816499606"><ele>769.0</ele><time>2026-05-03T09:04:11.739Z</time></trkpt><trkpt lat="44.27880833183923" lon="10.13372300631889"><ele>769.0</ele><time>2026-05-03T09:04:12.737Z</time></trkpt><trkpt lat="44.278891493770296" lon="10.133670428129765"><ele>769.0</ele><time>2026-05-03T09:04:13.738Z</time></trkpt><trkpt lat="44.27895128367608" lon="10.133592239328129"><ele>769.0</ele><time>2026-05-03T09:04:14.738Z</time></trkpt><trkpt lat="44.27898274925473" lon="10.133458467801859"><ele>777.0</ele><time>2026-05-03T09:04:15.738Z</time></trkpt><trkpt lat="44.278969175790564" lon="10.133313404919605"><ele>785.0</ele><time>2026-05-03T09:04:16.738Z</time></trkpt><trkpt lat="44.27896141989895" lon="10.133140294556835"><ele>793.0</ele><time>2026-05-03T09:04:17.737Z</time></trkpt><trkpt lat="44.27897242705615" lon="10.132955005264522"><ele>801.0</ele><time>2026-05-03T09:04:18.737Z</time></trkpt><trkpt lat="44.278982721247246" lon="10.132760644611595"><ele>801.3333333333333</ele><time>2026-05-03T09:04:19.737Z</time></trkpt><trkpt lat="44.27899859945506" lon="10.132538263048826"><ele>801.6666666666666</ele><time>2026-05-03T09:04:20.737Z</time></trkpt><trkpt lat="44.279023559306886" lon="10.132285961855288"><ele>802.0</ele><time>2026-05-03T09:04:21.737Z</time></trkpt><trkpt lat="44.27904839928571" lon="10.13203131984021"><ele>803.25</ele><time>2026-05-03T09:04:22.737Z</time></trkpt><trkpt lat="44.27905884739007" lon="10.131826117554768"><ele>804.5</ele><time>2026-05-03T09:04:23.737Z</time></trkpt><trkpt lat="44.27906375583761" lon="10.13165069343705"><ele>805.75</ele><time>2026-05-03T09:04:24.737Z</time></trkpt><trkpt lat="44.27904642205273" lon="10.1315092067755"><ele>807.0</ele><time>2026-05-03T09:04:25.737Z</time></trkpt><trkpt lat="44.27901469672346" lon="10.131386050715724"><ele>809.0</ele><time>2026-05-03T09:04:26.737Z</time></trkpt><trkpt lat="44.27898020147711" lon="10.131279732974624"><ele>811.0</ele><time>2026-05-03T09:04:27.737Z</time></trkpt><trkpt lat="44.27895478561482" lon="10.131192288113828"><ele>813.0</ele><time>2026-05-03T09:04:28.737Z</time></trkpt><trkpt lat="44.27895390799598" lon="10.131081750533601"><ele>815.0</ele><time>2026-05-03T09:04:30.737Z</time></trkpt><trkpt lat="44.27905730786095" lon="10.131075476697799"><ele>817.0</ele><time>2026-05-03T09:04:32.737Z</time></trkpt><trkpt lat="44.27912413021577" lon="10.131145038355346"><ele>819.0</ele><time>2026-05-03T09:04:33.737Z</time></trkpt><trkpt lat="44.2792041080679" lon="10.131235818037712"><ele>819.0</ele><time>2026-05-03T09:04:34.737Z</time></trkpt><trkpt lat="44.279280622549365" lon="10.131329819585009"><ele>819.0</ele><time>2026-05-03T09:04:35.737Z</time></trkpt><trkpt lat="44.27934647329569" lon="10.131442509831015"><ele>819.0</ele><time>2026-05-03T09:04:36.737Z</time></trkpt><trkpt lat="44.27940083289354" lon="10.131570470269034"><ele>819.0</ele><time>2026-05-03T09:04:37.737Z</time></trkpt><trkpt lat="44.279427891507865" lon="10.131710802275876"><ele>819.0</ele><time>2026-05-03T09:04:38.737Z</time></trkpt><trkpt lat="44.27945378577064" lon="10.131842886303517"><ele>818.1666666666666</ele><time>2026-05-03T09:04:39.737Z</time></trkpt><trkpt lat="44.27951043283906" lon="10.131946726188264"><ele>817.3333333333333</ele><time>2026-05-03T09:04:40.737Z</time></trkpt><trkpt lat="44.27957457967622" lon="10.132025152629149"><ele>816.5</ele><time>2026-05-03T09:04:41.737Z</time></trkpt><trkpt lat="44.279664055570066" lon="10.13210376796883"><ele>815.6666666666666</ele><time>2026-05-03T09:04:43.737Z</time></trkpt><trkpt lat="44.27972304898165" lon="10.13220347094455"><ele>814.8333333333333</ele><time>2026-05-03T09:04:45.737Z</time></trkpt><trkpt lat="44.27978490790218" lon="10.132249108215623"><ele>814.0</ele><time>2026-05-03T09:04:48.737Z</time></trkpt><trkpt lat="44.27978225742163" lon="10.132142453189138"><ele>813.9999999999999</ele><time>2026-05-03T09:11:26.728Z</time></trkpt><trkpt lat="44.279778952527245" lon="10.132010696484391"><ele>814.0</ele><time>2026-05-03T09:11:29.728Z</time></trkpt><trkpt lat="44.27983010785449" lon="10.13194154915858"><ele>814.0</ele><time>2026-05-03T09:11:31.728Z</time></trkpt><trkpt lat="44.279946638570955" lon="10.131941040133285"><ele>814.0</ele><time>2026-05-03T09:11:33.728Z</time></trkpt><trkpt lat="44.28000963681788" lon="10.131970340920747"><ele>813.9999999999999</ele><time>2026-05-03T09:11:34.728Z</time></trkpt><trkpt lat="44.28006790114199" lon="10.132034972705208"><ele>814.0</ele><time>2026-05-03T09:11:35.728Z</time></trkpt><trkpt lat="44.280124736044385" lon="10.13212992256892"><ele>814.0</ele><time>2026-05-03T09:11:36.728Z</time></trkpt><trkpt lat="44.28018398562562" lon="10.132262475432984"><ele>814.0</ele><time>2026-05-03T09:11:37.728Z</time></trkpt><trkpt lat="44.28023296549224" lon="10.132418489004829"><ele>814.0</ele><time>2026-05-03T09:11:38.728Z</time></trkpt><trkpt lat="44.28028790163361" lon="10.13256960815623"><ele>814.0</ele><time>2026-05-03T09:11:39.728Z</time></trkpt><trkpt lat="44.28035157798749" lon="10.132705082012441"><ele>814.2</ele><time>2026-05-03T09:11:40.728Z</time></trkpt><trkpt lat="44.28041299632177" lon="10.132824108376195"><ele>814.4000000000001</ele><time>2026-05-03T09:11:41.728Z</time></trkpt><trkpt lat="44.28046976292538" lon="10.132940906816023"><ele>814.6</ele><time>2026-05-03T09:11:42.728Z</time></trkpt><trkpt lat="44.28052447272767" lon="10.133047649638815"><ele>814.8</ele><time>2026-05-03T09:11:43.728Z</time></trkpt><trkpt lat="44.28057534139045" lon="10.133131932470945"><ele>815.0</ele><time>2026-05-03T09:11:44.728Z</time></trkpt><trkpt lat="44.28063942875509" lon="10.133193733291272"><ele>811.6</ele><time>2026-05-03T09:11:45.728Z</time></trkpt><trkpt lat="44.280730189637886" lon="10.133196960103499"><ele>808.2</ele><time>2026-05-03T09:11:46.728Z</time></trkpt><trkpt lat="44.28082608951607" lon="10.13317443913079"><ele>804.8</ele><time>2026-05-03T09:11:47.728Z</time></trkpt><trkpt lat="44.28095100357114" lon="10.13315175586845"><ele>801.4</ele><time>2026-05-03T09:11:48.728Z</time></trkpt><trkpt lat="44.28103490354102" lon="10.133089954111561"><ele>798.0</ele><time>2026-05-03T09:11:49.728Z</time></trkpt><trkpt lat="44.281112811808526" lon="10.133031207850259"><ele>798.0</ele><time>2026-05-03T09:11:50.728Z</time></trkpt><trkpt lat="44.281160993478004" lon="10.13294083475331"><ele>798.0</ele><time>2026-05-03T09:11:51.728Z</time></trkpt><trkpt lat="44.281191974474986" lon="10.132812586914516"><ele>798.0</ele><time>2026-05-03T09:11:52.728Z</time></trkpt><trkpt lat="44.281216059203935" lon="10.132668623384644"><ele>798.0</ele><time>2026-05-03T09:11:53.727Z</time></trkpt><trkpt lat="44.281249394935685" lon="10.132508859589963"><ele>798.0</ele><time>2026-05-03T09:11:54.727Z</time></trkpt><trkpt lat="44.28128716115968" lon="10.132368338748512"><ele>796.25</ele><time>2026-05-03T09:11:55.727Z</time></trkpt><trkpt lat="44.2813554723759" lon="10.132247269527605"><ele>794.5</ele><time>2026-05-03T09:11:56.727Z</time></trkpt><trkpt lat="44.28144386101847" lon="10.132132531477163"><ele>792.75</ele><time>2026-05-03T09:11:57.727Z</time></trkpt><trkpt lat="44.28153719257461" lon="10.132025589909771"><ele>791.0</ele><time>2026-05-03T09:11:58.727Z</time></trkpt><trkpt lat="44.28163784294954" lon="10.131928615379216"><ele>790.8333333333334</ele><time>2026-05-03T09:11:59.727Z</time></trkpt><trkpt lat="44.28172923580362" lon="10.131848938646172"><ele>790.6666666666667</ele><time>2026-05-03T09:12:00.727Z</time></trkpt><trkpt lat="44.28179997000441" lon="10.131757471855192"><ele>790.5</ele><time>2026-05-03T09:12:01.727Z</time></trkpt><trkpt lat="44.281850007179486" lon="10.13167180439429"><ele>790.3333333333333</ele><time>2026-05-03T09:12:02.727Z</time></trkpt><trkpt lat="44.28186279852201" lon="10.131575647242279"><ele>790.1666666666666</ele><time>2026-05-03T09:12:03.727Z</time></trkpt><trkpt lat="44.28185833479832" lon="10.131457293169307"><ele>790.0</ele><time>2026-05-03T09:12:04.727Z</time></trkpt><trkpt lat="44.28181760852967" lon="10.1313161968251"><ele>788.25</ele><time>2026-05-03T09:12:05.727Z</time></trkpt><trkpt lat="44.281778324811604" lon="10.131145545802134"><ele>786.5</ele><time>2026-05-03T09:12:06.727Z</time></trkpt><trkpt lat="44.28176046135794" lon="10.130981748276522"><ele>784.75</ele><time>2026-05-03T09:12:07.727Z</time></trkpt><trkpt lat="44.28176968542976" lon="10.13082537920009"><ele>783.0</ele><time>2026-05-03T09:12:08.727Z</time></trkpt><trkpt lat="44.28178731134399" lon="10.130679602262928"><ele>780.8</ele><time>2026-05-03T09:12:09.727Z</time></trkpt><trkpt lat="44.281828376788795" lon="10.13054409043233"><ele>778.5999999999999</ele><time>2026-05-03T09:12:10.727Z</time></trkpt><trkpt lat="44.281881169808464" lon="10.13042158443706"><ele>776.4000000000001</ele><time>2026-05-03T09:12:11.727Z</time></trkpt><trkpt lat="44.28194675596729" lon="10.130338164135287"><ele>774.2</ele><time>2026-05-03T09:12:12.727Z</time></trkpt><trkpt lat="44.2820275976359" lon="10.130283127952909"><ele>772.0</ele><time>2026-05-03T09:12:13.727Z</time></trkpt><trkpt lat="44.282101795943845" lon="10.130258374006964"><ele>771.9999999999999</ele><time>2026-05-03T09:12:14.727Z</time></trkpt><trkpt lat="44.28218622580093" lon="10.130271188543807"><ele>772.0</ele><time>2026-05-03T09:12:15.727Z</time></trkpt><trkpt lat="44.28225874987985" lon="10.130290080370276"><ele>772.0</ele><time>2026-05-03T09:12:16.727Z</time></trkpt><trkpt lat="44.282323314909064" lon="10.13030873462841"><ele>772.0</ele><time>2026-05-03T09:12:17.727Z</time></trkpt><trkpt lat="44.28241987636788" lon="10.130230706608407"><ele>771.9999999999999</ele><time>2026-05-03T09:12:19.727Z</time></trkpt><trkpt lat="44.2824347950665" lon="10.130122332969117"><ele>772.0</ele><time>2026-05-03T09:12:20.727Z</time></trkpt><trkpt lat="44.2824667197673" lon="10.129945843760124"><ele>768.0</ele><time>2026-05-03T09:12:21.727Z</time></trkpt><trkpt lat="44.282506958932075" lon="10.129767296037192"><ele>764.0</ele><time>2026-05-03T09:12:22.727Z</time></trkpt><trkpt lat="44.282544831232315" lon="10.129625634805068"><ele>760.0</ele><time>2026-05-03T09:12:23.727Z</time></trkpt><trkpt lat="44.282592389746824" lon="10.129521281220434"><ele>756.0</ele><time>2026-05-03T09:12:24.727Z</time></trkpt><trkpt lat="44.28266387822585" lon="10.129465790126941"><ele>752.0</ele><time>2026-05-03T09:12:25.727Z</time></trkpt><trkpt lat="44.28274238726448" lon="10.129482953780485"><ele>752.0</ele><time>2026-05-03T09:12:26.727Z</time></trkpt><trkpt lat="44.28282465704731" lon="10.129526729973906"><ele>752.0</ele><time>2026-05-03T09:12:27.727Z</time></trkpt><trkpt lat="44.28290233564488" lon="10.129649299322335"><ele>752.0</ele><time>2026-05-03T09:12:28.727Z</time></trkpt><trkpt lat="44.282974028908704" lon="10.12978644398"><ele>752.0</ele><time>2026-05-03T09:12:29.727Z</time></trkpt><trkpt lat="44.28304495249441" lon="10.129941649192533"><ele>749.6</ele><time>2026-05-03T09:12:30.727Z</time></trkpt><trkpt lat="44.28311159103386" lon="10.130085078837254"><ele>747.2</ele><time>2026-05-03T09:12:31.727Z</time></trkpt><trkpt lat="44.28316871706708" lon="10.130219408800862"><ele>744.8</ele><time>2026-05-03T09:12:32.727Z</time></trkpt><trkpt lat="44.28322580425961" lon="10.130341888676387"><ele>742.4</ele><time>2026-05-03T09:12:33.727Z</time></trkpt><trkpt lat="44.28326291345995" lon="10.130447602302148"><ele>740.0</ele><time>2026-05-03T09:12:34.727Z</time></trkpt><trkpt lat="44.28328205983269" lon="10.130543776613786"><ele>740.0</ele><time>2026-05-03T09:12:35.727Z</time></trkpt><trkpt lat="44.28328062426929" lon="10.130647130204192"><ele>740.0</ele><time>2026-05-03T09:12:36.725Z</time></trkpt><trkpt lat="44.28325229259177" lon="10.130755022209755"><ele>740.0</ele><time>2026-05-03T09:12:37.725Z</time></trkpt><trkpt lat="44.28319392961833" lon="10.130857893708502"><ele>740.0</ele><time>2026-05-03T09:12:38.725Z</time></trkpt><trkpt lat="44.2831309392303" lon="10.13097634674395"><ele>740.0</ele><time>2026-05-03T09:12:39.725Z</time></trkpt><trkpt lat="44.28308535531207" lon="10.1311195522675"><ele>748.75</ele><time>2026-05-03T09:12:40.725Z</time></trkpt><trkpt lat="44.283043100110675" lon="10.131309098681639"><ele>757.5</ele><time>2026-05-03T09:12:41.724Z</time></trkpt><trkpt lat="44.28303559052051" lon="10.131522028974118"><ele>766.25</ele><time>2026-05-03T09:12:42.725Z</time></trkpt><trkpt lat="44.28301818362688" lon="10.131697929612336"><ele>775.0</ele><time>2026-05-03T09:12:43.725Z</time></trkpt><trkpt lat="44.282989631867565" lon="10.1318325466178"><ele>776.1666666666666</ele><time>2026-05-03T09:12:44.725Z</time></trkpt><trkpt lat="44.282960477568814" lon="10.131953870795273"><ele>777.3333333333333</ele><time>2026-05-03T09:12:45.725Z</time></trkpt><trkpt lat="44.28294544365658" lon="10.132068517556473"><ele>778.5</ele><time>2026-05-03T09:12:46.725Z</time></trkpt><trkpt lat="44.28295591119396" lon="10.132172039913895"><ele>779.6666666666667</ele><time>2026-05-03T09:12:47.725Z</time></trkpt><trkpt lat="44.2830097764538" lon="10.132266205433766"><ele>780.8333333333334</ele><time>2026-05-03T09:12:48.725Z</time></trkpt><trkpt lat="44.28308581719903" lon="10.132351139130492"><ele>782.0</ele><time>2026-05-03T09:12:49.724Z</time></trkpt><trkpt lat="44.2831412688837" lon="10.132434135092623"><ele>765.25</ele><time>2026-05-03T09:12:50.724Z</time></trkpt><trkpt lat="44.283173764914594" lon="10.132542339310891"><ele>748.5</ele><time>2026-05-03T09:12:51.724Z</time></trkpt><trkpt lat="44.283174380312836" lon="10.13268492996327"><ele>731.75</ele><time>2026-05-03T09:12:52.724Z</time></trkpt><trkpt lat="44.283171130415" lon="10.132858498380312"><ele>715.0</ele><time>2026-05-03T09:12:53.724Z</time></trkpt><trkpt lat="44.283163820745266" lon="10.133095779895022"><ele>714.6666666666667</ele><time>2026-05-03T09:12:54.724Z</time></trkpt><trkpt lat="44.2831524721211" lon="10.133353067576236"><ele>714.3333333333334</ele><time>2026-05-03T09:12:55.724Z</time></trkpt><trkpt lat="44.283130632708875" lon="10.13356488727639"><ele>714.0</ele><time>2026-05-03T09:12:56.724Z</time></trkpt><trkpt lat="44.28311635031301" lon="10.133739101617119"><ele>714.0</ele><time>2026-05-03T09:12:57.724Z</time></trkpt><trkpt lat="44.283111456444445" lon="10.133908836814086"><ele>714.0</ele><time>2026-05-03T09:12:58.724Z</time></trkpt><trkpt lat="44.28314156504661" lon="10.13407445189146"><ele>714.0</ele><time>2026-05-03T09:12:59.724Z</time></trkpt><trkpt lat="44.28321215512483" lon="10.134270557785772"><ele>714.0</ele><time>2026-05-03T09:13:00.724Z</time></trkpt><trkpt lat="44.28324054717514" lon="10.134488788235254"><ele>712.75</ele><time>2026-05-03T09:13:01.724Z</time></trkpt><trkpt lat="44.28326200577371" lon="10.134677949490843"><ele>711.5</ele><time>2026-05-03T09:13:02.724Z</time></trkpt><trkpt lat="44.28328151906814" lon="10.134848287211105"><ele>710.25</ele><time>2026-05-03T09:13:03.724Z</time></trkpt><trkpt lat="44.28331235175534" lon="10.135016413524943"><ele>709.0</ele><time>2026-05-03T09:13:04.724Z</time></trkpt><trkpt lat="44.283354494134215" lon="10.135173938502351"><ele>709.0</ele><time>2026-05-03T09:13:05.724Z</time></trkpt><trkpt lat="44.283396497986644" lon="10.135316067585519"><ele>709.0</ele><time>2026-05-03T09:13:06.724Z</time></trkpt><trkpt lat="44.28344821908971" lon="10.135467697772809"><ele>709.0</ele><time>2026-05-03T09:13:07.724Z</time></trkpt><trkpt lat="44.28349391165419" lon="10.135592663228367"><ele>709.0</ele><time>2026-05-03T09:13:08.724Z</time></trkpt><trkpt lat="44.283536656329446" lon="10.135697414484612"><ele>709.0</ele><time>2026-05-03T09:13:09.724Z</time></trkpt><trkpt lat="44.28352093727842" lon="10.135832175102667"><ele>707.8000000000001</ele><time>2026-05-03T09:13:10.724Z</time></trkpt><trkpt lat="44.283463579920316" lon="10.135955404047783"><ele>706.6</ele><time>2026-05-03T09:13:11.724Z</time></trkpt><trkpt lat="44.283392173164415" lon="10.136060741651983"><ele>705.4</ele><time>2026-05-03T09:13:12.724Z</time></trkpt><trkpt lat="44.283341469488605" lon="10.136149811753855"><ele>704.2</ele><time>2026-05-03T09:13:13.724Z</time></trkpt><trkpt lat="44.28338095093808" lon="10.136254560771196"><ele>703.0</ele><time>2026-05-03T09:13:15.724Z</time></trkpt><trkpt lat="44.28347946800641" lon="10.136212676549853"><ele>703.0</ele><time>2026-05-03T09:13:17.724Z</time></trkpt><trkpt lat="44.28351776557833" lon="10.136129449073227"><ele>703.0</ele><time>2026-05-03T09:13:18.724Z</time></trkpt><trkpt lat="44.28356209551131" lon="10.136024648581103"><ele>703.0</ele><time>2026-05-03T09:13:19.724Z</time></trkpt><trkpt lat="44.28363236663455" lon="10.13588995538618"><ele>703.0</ele><time>2026-05-03T09:13:20.724Z</time></trkpt><trkpt lat="44.28368030196573" lon="10.1357717811453"><ele>703.0</ele><time>2026-05-03T09:13:21.724Z</time></trkpt><trkpt lat="44.283726101387835" lon="10.135651955894517"><ele>704.0</ele><time>2026-05-03T09:13:22.724Z</time></trkpt><trkpt lat="44.283748637096956" lon="10.135534271415354"><ele>705.0</ele><time>2026-05-03T09:13:23.724Z</time></trkpt><trkpt lat="44.283742532952935" lon="10.135418522708067"><ele>706.0</ele><time>2026-05-03T09:13:24.724Z</time></trkpt><trkpt lat="44.28371863807423" lon="10.135278984745947"><ele>707.0</ele><time>2026-05-03T09:13:25.724Z</time></trkpt><trkpt lat="44.283689632014024" lon="10.135178219419213"><ele>708.0</ele><time>2026-05-03T09:13:26.724Z</time></trkpt><trkpt lat="44.283648294402255" lon="10.135089650055182"><ele>709.0</ele><time>2026-05-03T09:13:27.724Z</time></trkpt><trkpt lat="44.28363019732821" lon="10.134996280059365"><ele>709.0</ele><time>2026-05-03T09:13:29.724Z</time></trkpt><trkpt lat="44.283713571410956" lon="10.13500089727247"><ele>709.0</ele><time>2026-05-03T09:13:31.724Z</time></trkpt><trkpt lat="44.28376495680779" lon="10.135056859312487"><ele>709.0</ele><time>2026-05-03T09:13:32.724Z</time></trkpt><trkpt lat="44.283808475723355" lon="10.135177726326472"><ele>709.0</ele><time>2026-05-03T09:13:33.724Z</time></trkpt><trkpt lat="44.28384375524582" lon="10.135296228147066"><ele>709.0</ele><time>2026-05-03T09:13:34.724Z</time></trkpt><trkpt lat="44.283872178197946" lon="10.135413014755036"><ele>709.0</ele><time>2026-05-03T09:13:35.724Z</time></trkpt><trkpt lat="44.283895069205506" lon="10.135535587051574"><ele>709.0</ele><time>2026-05-03T09:13:36.724Z</time></trkpt><trkpt lat="44.283888541051525" lon="10.135692143011028"><ele>709.0</ele><time>2026-05-03T09:13:37.724Z</time></trkpt><trkpt lat="44.28387683326528" lon="10.135849486537335"><ele>709.0</ele><time>2026-05-03T09:13:38.724Z</time></trkpt><trkpt lat="44.28387270560832" lon="10.136012564717344"><ele>709.0</ele><time>2026-05-03T09:13:39.724Z</time></trkpt><trkpt lat="44.28385816241849" lon="10.136161613817315"><ele>707.8000000000001</ele><time>2026-05-03T09:13:40.724Z</time></trkpt><trkpt lat="44.28387336745245" lon="10.136331667380917"><ele>706.6</ele><time>2026-05-03T09:13:41.723Z</time></trkpt><trkpt lat="44.28390241522011" lon="10.136495262504322"><ele>705.4</ele><time>2026-05-03T09:13:42.723Z</time></trkpt><trkpt lat="44.283929414553796" lon="10.136643261988961"><ele>704.2</ele><time>2026-05-03T09:13:43.723Z</time></trkpt><trkpt lat="44.283931684879036" lon="10.136771350225274"><ele>703.0</ele><time>2026-05-03T09:13:44.723Z</time></trkpt><trkpt lat="44.28390362485591" lon="10.136867598211293"><ele>699.0</ele><time>2026-05-03T09:13:45.723Z</time></trkpt><trkpt lat="44.283842105316545" lon="10.136954926606975"><ele>695.0</ele><time>2026-05-03T09:13:46.723Z</time></trkpt><trkpt lat="44.28374886238323" lon="10.137014058561286"><ele>691.0</ele><time>2026-05-03T09:13:47.723Z</time></trkpt><trkpt lat="44.28364092917872" lon="10.137044171277335"><ele>687.0</ele><time>2026-05-03T09:13:48.723Z</time></trkpt><trkpt lat="44.28354833871606" lon="10.137061438778971"><ele>683.0</ele><time>2026-05-03T09:13:49.723Z</time></trkpt><trkpt lat="44.28348027270876" lon="10.137102625095842"><ele>683.0</ele><time>2026-05-03T09:13:50.723Z</time></trkpt><trkpt lat="44.283437386823735" lon="10.13719805100788"><ele>683.0</ele><time>2026-05-03T09:13:51.723Z</time></trkpt><trkpt lat="44.283401423651" lon="10.137350387137928"><ele>683.0</ele><time>2026-05-03T09:13:52.723Z</time></trkpt><trkpt lat="44.28336445381664" lon="10.137517213223303"><ele>683.0</ele><time>2026-05-03T09:13:53.723Z</time></trkpt><trkpt lat="44.28333639794376" lon="10.137674106360487"><ele>683.0</ele><time>2026-05-03T09:13:54.723Z</time></trkpt><trkpt lat="44.28333860712979" lon="10.137805025822976"><ele>677.0</ele><time>2026-05-03T09:13:55.723Z</time></trkpt><trkpt lat="44.28335891418459" lon="10.137960453359216"><ele>671.0</ele><time>2026-05-03T09:13:56.723Z</time></trkpt><trkpt lat="44.283393467809965" lon="10.138114192834099"><ele>665.0</ele><time>2026-05-03T09:13:57.723Z</time></trkpt><trkpt lat="44.283415154979316" lon="10.138279520288476"><ele>659.0</ele><time>2026-05-03T09:13:58.723Z</time></trkpt><trkpt lat="44.28342801519637" lon="10.138428773909295"><ele>655.8000000000001</ele><time>2026-05-03T09:13:59.723Z</time></trkpt><trkpt lat="44.28340213955128" lon="10.138561092571706"><ele>652.6</ele><time>2026-05-03T09:14:00.723Z</time></trkpt><trkpt lat="44.283348666173566" lon="10.138693766252208"><ele>649.4</ele><time>2026-05-03T09:14:01.723Z</time></trkpt><trkpt lat="44.28332575700007" lon="10.138821000483585"><ele>646.2</ele><time>2026-05-03T09:14:02.723Z</time></trkpt><trkpt lat="44.283321165244374" lon="10.138939315200606"><ele>643.0</ele><time>2026-05-03T09:14:03.723Z</time></trkpt><trkpt lat="44.283345657292806" lon="10.139080947878453"><ele>641.8</ele><time>2026-05-03T09:14:04.723Z</time></trkpt><trkpt lat="44.28338277615766" lon="10.139216146214832"><ele>640.5999999999999</ele><time>2026-05-03T09:14:05.723Z</time></trkpt><trkpt lat="44.28343051980969" lon="10.139330720148484"><ele>639.4000000000001</ele><time>2026-05-03T09:14:06.723Z</time></trkpt><trkpt lat="44.28347421220767" lon="10.139417535367356"><ele>638.2</ele><time>2026-05-03T09:14:07.723Z</time></trkpt><trkpt lat="44.28357165659722" lon="10.139441104231718"><ele>637.0</ele><time>2026-05-03T09:14:09.723Z</time></trkpt><trkpt lat="44.28367997330995" lon="10.139338208454538"><ele>637.0</ele><time>2026-05-03T09:14:11.723Z</time></trkpt><trkpt lat="44.2837387488065" lon="10.13922608294366"><ele>637.0</ele><time>2026-05-03T09:14:12.723Z</time></trkpt><trkpt lat="44.28381340187082" lon="10.139105164847368"><ele>637.0</ele><time>2026-05-03T09:14:13.723Z</time></trkpt><trkpt lat="44.28387688771863" lon="10.138981844064554"><ele>637.0</ele><time>2026-05-03T09:14:14.723Z</time></trkpt><trkpt lat="44.283986126809396" lon="10.138906814543347"><ele>637.0</ele><time>2026-05-03T09:14:15.723Z</time></trkpt><trkpt lat="44.284111701221136" lon="10.138810068919385"><ele>629.3333333333334</ele><time>2026-05-03T09:14:16.723Z</time></trkpt><trkpt lat="44.284287006913885" lon="10.138728859509742"><ele>621.6666666666666</ele><time>2026-05-03T09:14:17.723Z</time></trkpt><trkpt lat="44.28449356849443" lon="10.138649733629581"><ele>614.0</ele><time>2026-05-03T09:14:18.723Z</time></trkpt><trkpt lat="44.28468600450535" lon="10.138584578822684"><ele>607.0</ele><time>2026-05-03T09:14:19.723Z</time></trkpt><trkpt lat="44.284864801027496" lon="10.138527617875415"><ele>600.0</ele><time>2026-05-03T09:14:20.723Z</time></trkpt><trkpt lat="44.28503388626161" lon="10.138475798854738"><ele>593.0</ele><time>2026-05-03T09:14:21.723Z</time></trkpt><trkpt lat="44.28519899072356" lon="10.138428909734904"><ele>593.0</ele><time>2026-05-03T09:14:22.723Z</time></trkpt><trkpt lat="44.28535681853925" lon="10.13839694035286"><ele>593.0</ele><time>2026-05-03T09:14:23.723Z</time></trkpt><trkpt lat="44.285512397460565" lon="10.138360574000371"><ele>593.0</ele><time>2026-05-03T09:14:24.723Z</time></trkpt><trkpt lat="44.28566774264244" lon="10.138314409582126"><ele>589.75</ele><time>2026-05-03T09:14:25.723Z</time></trkpt><trkpt lat="44.28582086929475" lon="10.138256742152691"><ele>586.5</ele><time>2026-05-03T09:14:26.723Z</time></trkpt><trkpt lat="44.285961498314826" lon="10.138220062148143"><ele>583.25</ele><time>2026-05-03T09:14:27.723Z</time></trkpt><trkpt lat="44.28609858378102" lon="10.138213876724413"><ele>580.0</ele><time>2026-05-03T09:14:28.723Z</time></trkpt><trkpt lat="44.286222756895576" lon="10.13822020251924"><ele>580.0</ele><time>2026-05-03T09:14:29.723Z</time></trkpt><trkpt lat="44.286334196054554" lon="10.138232656047213"><ele>580.0</ele><time>2026-05-03T09:14:30.723Z</time></trkpt><trkpt lat="44.28643399578584" lon="10.138215957230614"><ele>580.0</ele><time>2026-05-03T09:14:31.723Z</time></trkpt><trkpt lat="44.28650806303838" lon="10.138160290012998"><ele>580.0</ele><time>2026-05-03T09:14:32.723Z</time></trkpt><trkpt lat="44.286570348719124" lon="10.138090511041181"><ele>580.0</ele><time>2026-05-03T09:14:33.723Z</time></trkpt><trkpt lat="44.286594438988566" lon="10.13793860571321"><ele>576.0</ele><time>2026-05-03T09:14:35.723Z</time></trkpt><trkpt lat="44.286537929164986" lon="10.137886392812215"><ele>572.0</ele><time>2026-05-03T09:14:36.723Z</time></trkpt><trkpt lat="44.28646015715797" lon="10.137888072302086"><ele>568.0</ele><time>2026-05-03T09:14:37.723Z</time></trkpt><trkpt lat="44.286377418493984" lon="10.137947187114845"><ele>564.0</ele><time>2026-05-03T09:14:38.723Z</time></trkpt><trkpt lat="44.2863029940761" lon="10.138006186221695"><ele>560.0</ele><time>2026-05-03T09:14:39.723Z</time></trkpt><trkpt lat="44.28623244348818" lon="10.138037856650051"><ele>556.0</ele><time>2026-05-03T09:14:40.723Z</time></trkpt><trkpt lat="44.286163204507346" lon="10.13800762326359"><ele>556.0</ele><time>2026-05-03T09:14:41.723Z</time></trkpt><trkpt lat="44.286067277364104" lon="10.137940226317427"><ele>556.0</ele><time>2026-05-03T09:14:42.721Z</time></trkpt><trkpt lat="44.2859487045078" lon="10.13784586634164"><ele>556.0</ele><time>2026-05-03T09:14:43.721Z</time></trkpt><trkpt lat="44.28583346871672" lon="10.137741080601796"><ele>556.0</ele><time>2026-05-03T09:14:44.721Z</time></trkpt><trkpt lat="44.285736960171896" lon="10.137644840164814"><ele>556.0</ele><time>2026-05-03T09:14:45.721Z</time></trkpt><trkpt lat="44.28566565369363" lon="10.137559639302124"><ele>556.0</ele><time>2026-05-03T09:14:46.721Z</time></trkpt><trkpt lat="44.28561725269399" lon="10.13748175808553"><ele>556.0</ele><time>2026-05-03T09:14:47.721Z</time></trkpt><trkpt lat="44.28559482252391" lon="10.13737602146951"><ele>556.0</ele><time>2026-05-03T09:14:48.721Z</time></trkpt><trkpt lat="44.2856101077166" lon="10.137268875919034"><ele>556.0</ele><time>2026-05-03T09:14:49.72Z</time></trkpt><trkpt lat="44.28565214818452" lon="10.137123623507662"><ele>556.0</ele><time>2026-05-03T09:14:50.72Z</time></trkpt><trkpt lat="44.285705779527625" lon="10.136963112552053"><ele>553.0</ele><time>2026-05-03T09:14:51.721Z</time></trkpt><trkpt lat="44.28574226864371" lon="10.136797762030772"><ele>550.0</ele><time>2026-05-03T09:14:52.72Z</time></trkpt><trkpt lat="44.285767340387316" lon="10.13665499761214"><ele>547.0</ele><time>2026-05-03T09:14:53.72Z</time></trkpt><trkpt lat="44.285797595508974" lon="10.136539312766324"><ele>544.0</ele><time>2026-05-03T09:14:54.721Z</time></trkpt><trkpt lat="44.28585782611294" lon="10.136439855833286"><ele>541.0</ele><time>2026-05-03T09:14:55.721Z</time></trkpt><trkpt lat="44.28594760143821" lon="10.136368238311034"><ele>539.0</ele><time>2026-05-03T09:14:56.721Z</time></trkpt><trkpt lat="44.28605154634247" lon="10.13632384784745"><ele>537.0</ele><time>2026-05-03T09:14:57.721Z</time></trkpt><trkpt lat="44.28616445517289" lon="10.136285529106623"><ele>535.0</ele><time>2026-05-03T09:14:58.721Z</time></trkpt><trkpt lat="44.28628778249359" lon="10.136284442782326"><ele>533.0</ele><time>2026-05-03T09:14:59.721Z</time></trkpt><trkpt lat="44.286417422018246" lon="10.136307268236703"><ele>527.6666666666666</ele><time>2026-05-03T09:15:00.721Z</time></trkpt><trkpt lat="44.28656270233156" lon="10.13634282662667"><ele>522.3333333333334</ele><time>2026-05-03T09:15:01.721Z</time></trkpt><trkpt lat="44.28671971337687" lon="10.13637470744072"><ele>517.0</ele><time>2026-05-03T09:15:02.721Z</time></trkpt><trkpt lat="44.28687637870473" lon="10.136415469829293"><ele>517.0</ele><time>2026-05-03T09:15:03.721Z</time></trkpt><trkpt lat="44.287016445366" lon="10.13643439275551"><ele>517.0</ele><time>2026-05-03T09:15:04.721Z</time></trkpt><trkpt lat="44.2871422087722" lon="10.136448833725481"><ele>517.0</ele><time>2026-05-03T09:15:05.721Z</time></trkpt><trkpt lat="44.28724769618879" lon="10.136470281894029"><ele>517.0</ele><time>2026-05-03T09:15:06.721Z</time></trkpt><trkpt lat="44.28733151973178" lon="10.136509741359202"><ele>517.2</ele><time>2026-05-03T09:15:07.721Z</time></trkpt><trkpt lat="44.287382079547456" lon="10.136581229969645"><ele>517.4000000000001</ele><time>2026-05-03T09:15:08.721Z</time></trkpt><trkpt lat="44.28743383093682" lon="10.13668258298708"><ele>517.5999999999999</ele><time>2026-05-03T09:15:09.721Z</time></trkpt><trkpt lat="44.28748063993144" lon="10.13683490069912"><ele>517.8</ele><time>2026-05-03T09:15:10.721Z</time></trkpt><trkpt lat="44.28754101533858" lon="10.136978392850912"><ele>518.0</ele><time>2026-05-03T09:15:11.721Z</time></trkpt><trkpt lat="44.28760978860853" lon="10.137107810972184"><ele>518.0</ele><time>2026-05-03T09:15:12.721Z</time></trkpt><trkpt lat="44.28768451483503" lon="10.13721488770858"><ele>518.0</ele><time>2026-05-03T09:15:13.721Z</time></trkpt><trkpt lat="44.28777589221021" lon="10.137334159706272"><ele>518.0</ele><time>2026-05-03T09:15:14.721Z</time></trkpt><trkpt lat="44.287863272788755" lon="10.137459512923547"><ele>518.0</ele><time>2026-05-03T09:15:15.721Z</time></trkpt><trkpt lat="44.28796413737084" lon="10.137594116696949"><ele>523.25</ele><time>2026-05-03T09:15:16.721Z</time></trkpt><trkpt lat="44.28807261874542" lon="10.137706490761826"><ele>528.5</ele><time>2026-05-03T09:15:17.721Z</time></trkpt><trkpt lat="44.28817166167486" lon="10.137816361713943"><ele>533.75</ele><time>2026-05-03T09:15:18.721Z</time></trkpt><trkpt lat="44.28824186967157" lon="10.13792845341698"><ele>539.0</ele><time>2026-05-03T09:15:19.721Z</time></trkpt><trkpt lat="44.288309533686245" lon="10.138072001243211"><ele>537.25</ele><time>2026-05-03T09:15:20.721Z</time></trkpt><trkpt lat="44.28835817106286" lon="10.138233794997024"><ele>535.5</ele><time>2026-05-03T09:15:21.721Z</time></trkpt><trkpt lat="44.288436448572924" lon="10.138340625211315"><ele>533.75</ele><time>2026-05-03T09:15:22.721Z</time></trkpt><trkpt lat="44.288521859921495" lon="10.138431035109878"><ele>532.0</ele><time>2026-05-03T09:15:23.72Z</time></trkpt><trkpt lat="44.288633412092665" lon="10.138470405408007"><ele>532.0</ele><time>2026-05-03T09:15:24.72Z</time></trkpt><trkpt lat="44.28878104851419" lon="10.138473499793063"><ele>532.0</ele><time>2026-05-03T09:15:25.72Z</time></trkpt><trkpt lat="44.288932890528265" lon="10.138456928576769"><ele>532.0</ele><time>2026-05-03T09:15:26.72Z</time></trkpt><trkpt lat="44.28908831000792" lon="10.13843848429841"><ele>520.0</ele><time>2026-05-03T09:15:27.72Z</time></trkpt><trkpt lat="44.28923715183861" lon="10.138397362135482"><ele>508.0</ele><time>2026-05-03T09:15:28.72Z</time></trkpt><trkpt lat="44.28936993235706" lon="10.138365701082654"><ele>496.0</ele><time>2026-05-03T09:15:29.72Z</time></trkpt><trkpt lat="44.28950280040612" lon="10.138329788775405"><ele>484.0</ele><time>2026-05-03T09:15:30.72Z</time></trkpt><trkpt lat="44.28963018827955" lon="10.138316313157413"><ele>484.0</ele><time>2026-05-03T09:15:31.72Z</time></trkpt><trkpt lat="44.28973705145152" lon="10.138289109831163"><ele>484.0</ele><time>2026-05-03T09:15:32.72Z</time></trkpt><trkpt lat="44.289831576793105" lon="10.138289894611965"><ele>484.0</ele><time>2026-05-03T09:15:33.72Z</time></trkpt><trkpt lat="44.28991810740157" lon="10.13830783674544"><ele>484.0</ele><time>2026-05-03T09:15:34.72Z</time></trkpt><trkpt lat="44.28999514378923" lon="10.138347211618017"><ele>484.0</ele><time>2026-05-03T09:15:35.72Z</time></trkpt><trkpt lat="44.29006157175515" lon="10.138420638806913"><ele>482.6666666666667</ele><time>2026-05-03T09:15:36.72Z</time></trkpt><trkpt lat="44.29012991708037" lon="10.138522857935973"><ele>481.33333333333337</ele><time>2026-05-03T09:15:37.72Z</time></trkpt><trkpt lat="44.29019096234426" lon="10.138613380078489"><ele>480.0</ele><time>2026-05-03T09:15:38.72Z</time></trkpt><trkpt lat="44.29025548627759" lon="10.138675245030752"><ele>478.66666666666663</ele><time>2026-05-03T09:15:39.72Z</time></trkpt><trkpt lat="44.290326968347294" lon="10.138686274479241"><ele>477.3333333333333</ele><time>2026-05-03T09:15:40.72Z</time></trkpt><trkpt lat="44.29039685236381" lon="10.13866974683617"><ele>476.0</ele><time>2026-05-03T09:15:41.72Z</time></trkpt><trkpt lat="44.29046993601278" lon="10.138597077906834"><ele>476.0</ele><time>2026-05-03T09:15:42.72Z</time></trkpt><trkpt lat="44.29054840770406" lon="10.138492929102846"><ele>476.0</ele><time>2026-05-03T09:15:43.72Z</time></trkpt><trkpt lat="44.290635610238084" lon="10.138383237697697"><ele>476.0</ele><time>2026-05-03T09:15:44.72Z</time></trkpt><trkpt lat="44.29072047538302" lon="10.138283913417414"><ele>476.0</ele><time>2026-05-03T09:15:45.72Z</time></trkpt><trkpt lat="44.290802122930785" lon="10.138200320952956"><ele>476.0</ele><time>2026-05-03T09:15:46.72Z</time></trkpt><trkpt lat="44.29086543300172" lon="10.138128142449293"><ele>474.8333333333333</ele><time>2026-05-03T09:15:47.72Z</time></trkpt><trkpt lat="44.29092744252807" lon="10.138063055970846"><ele>473.66666666666663</ele><time>2026-05-03T09:15:48.72Z</time></trkpt><trkpt lat="44.29099547576657" lon="10.137985722672852"><ele>472.5</ele><time>2026-05-03T09:15:49.72Z</time></trkpt><trkpt lat="44.291050854835184" lon="10.137910011898933"><ele>471.33333333333337</ele><time>2026-05-03T09:15:50.72Z</time></trkpt><trkpt lat="44.291085417944885" lon="10.137835637320887"><ele>470.1666666666667</ele><time>2026-05-03T09:15:51.72Z</time></trkpt><trkpt lat="44.29109488123959" lon="10.137677849833128"><ele>469.0</ele><time>2026-05-03T09:15:53.72Z</time></trkpt><trkpt lat="44.29109246458424" lon="10.137569861281946"><ele>469.0</ele><time>2026-05-03T09:15:54.72Z</time></trkpt><trkpt lat="44.29111049039023" lon="10.137476632702505"><ele>469.0</ele><time>2026-05-03T09:15:55.72Z</time></trkpt><trkpt lat="44.29116304190419" lon="10.137390679291613"><ele>469.0</ele><time>2026-05-03T09:15:56.72Z</time></trkpt><trkpt lat="44.291233458002054" lon="10.137318743756722"><ele>469.0</ele><time>2026-05-03T09:15:57.72Z</time></trkpt><trkpt lat="44.29131813151539" lon="10.137239664681566"><ele>469.0</ele><time>2026-05-03T09:15:58.72Z</time></trkpt><trkpt lat="44.291439889071476" lon="10.13715108316462"><ele>471.6</ele><time>2026-05-03T09:15:59.72Z</time></trkpt><trkpt lat="44.29154426850367" lon="10.137062905900194"><ele>474.2</ele><time>2026-05-03T09:16:00.72Z</time></trkpt><trkpt lat="44.29164125784614" lon="10.136991860867216"><ele>476.80000000000007</ele><time>2026-05-03T09:16:01.72Z</time></trkpt><trkpt lat="44.29170870077488" lon="10.13688103331063"><ele>479.40000000000003</ele><time>2026-05-03T09:16:02.72Z</time></trkpt><trkpt lat="44.291770723917715" lon="10.136777120629832"><ele>482.0</ele><time>2026-05-03T09:16:03.72Z</time></trkpt><trkpt lat="44.291816875019016" lon="10.136683410070212"><ele>481.99999999999994</ele><time>2026-05-03T09:16:04.72Z</time></trkpt><trkpt lat="44.291842353743554" lon="10.136577858781182"><ele>482.0</ele><time>2026-05-03T09:16:05.72Z</time></trkpt><trkpt lat="44.29183217819151" lon="10.136476760061896"><ele>482.0</ele><time>2026-05-03T09:16:06.72Z</time></trkpt><trkpt lat="44.29179081710673" lon="10.136374352150423"><ele>482.0</ele><time>2026-05-03T09:16:07.72Z</time></trkpt><trkpt lat="44.29174543596549" lon="10.136259346740985"><ele>481.99999999999994</ele><time>2026-05-03T09:16:08.72Z</time></trkpt><trkpt lat="44.29170999527696" lon="10.136157223531237"><ele>482.0</ele><time>2026-05-03T09:16:09.72Z</time></trkpt><trkpt lat="44.291701737927106" lon="10.13605516430333"><ele>483.0</ele><time>2026-05-03T09:16:10.72Z</time></trkpt><trkpt lat="44.29172054552025" lon="10.135943362786998"><ele>484.00000000000006</ele><time>2026-05-03T09:16:11.72Z</time></trkpt><trkpt lat="44.291756899231764" lon="10.135819823788845"><ele>485.00000000000006</ele><time>2026-05-03T09:16:12.72Z</time></trkpt><trkpt lat="44.291795060232964" lon="10.135674470446634"><ele>486.0</ele><time>2026-05-03T09:16:13.72Z</time></trkpt><trkpt lat="44.291835777122685" lon="10.135523261107329"><ele>487.0</ele><time>2026-05-03T09:16:14.72Z</time></trkpt><trkpt lat="44.29187791757884" lon="10.135375304770514"><ele>488.75</ele><time>2026-05-03T09:16:15.72Z</time></trkpt><trkpt lat="44.291917105520554" lon="10.135228874833867"><ele>490.5</ele><time>2026-05-03T09:16:16.72Z</time></trkpt><trkpt lat="44.29194461924162" lon="10.135083351167589"><ele>492.25</ele><time>2026-05-03T09:16:17.72Z</time></trkpt><trkpt lat="44.29191973252067" lon="10.134793265435906"><ele>494.0</ele><time>2026-05-03T09:16:19.72Z</time></trkpt><trkpt lat="44.2918832848255" lon="10.134657718981103"><ele>495.6</ele><time>2026-05-03T09:16:20.72Z</time></trkpt><trkpt lat="44.291836268715855" lon="10.134532345005308"><ele>497.2</ele><time>2026-05-03T09:16:21.72Z</time></trkpt><trkpt lat="44.29177479192645" lon="10.134405206794131"><ele>498.80000000000007</ele><time>2026-05-03T09:16:22.72Z</time></trkpt><trkpt lat="44.29171461201023" lon="10.134300507895796"><ele>500.40000000000003</ele><time>2026-05-03T09:16:23.72Z</time></trkpt><trkpt lat="44.29164936658435" lon="10.134207449424116"><ele>502.0</ele><time>2026-05-03T09:16:24.72Z</time></trkpt><trkpt lat="44.29157406155877" lon="10.1341294355636"><ele>502.0</ele><time>2026-05-03T09:16:25.72Z</time></trkpt><trkpt lat="44.2914917929548" lon="10.134097976743634"><ele>502.00000000000006</ele><time>2026-05-03T09:16:26.72Z</time></trkpt><trkpt lat="44.29141157886578" lon="10.134105985339623"><ele>502.00000000000006</ele><time>2026-05-03T09:16:27.72Z</time></trkpt><trkpt lat="44.29131939301857" lon="10.134130847362536"><ele>502.0</ele><time>2026-05-03T09:16:28.72Z</time></trkpt><trkpt lat="44.29121861772675" lon="10.134155956360786"><ele>502.0</ele><time>2026-05-03T09:16:29.72Z</time></trkpt><trkpt lat="44.29111788488862" lon="10.134172931763"><ele>501.6666666666667</ele><time>2026-05-03T09:16:30.72Z</time></trkpt><trkpt lat="44.29101666819359" lon="10.134193151530127"><ele>501.33333333333337</ele><time>2026-05-03T09:16:31.72Z</time></trkpt><trkpt lat="44.29093634605567" lon="10.134195058406995"><ele>501.0</ele><time>2026-05-03T09:16:32.72Z</time></trkpt><trkpt lat="44.290859883492885" lon="10.134189319303463"><ele>500.66666666666663</ele><time>2026-05-03T09:16:33.72Z</time></trkpt><trkpt lat="44.29079133228717" lon="10.134142449659787"><ele>500.3333333333333</ele><time>2026-05-03T09:16:34.719Z</time></trkpt><trkpt lat="44.29074732484487" lon="10.134029647902418"><ele>500.0</ele><time>2026-05-03T09:16:35.719Z</time></trkpt><trkpt lat="44.29071013545047" lon="10.133911716847887"><ele>500.99999999999994</ele><time>2026-05-03T09:16:36.719Z</time></trkpt><trkpt lat="44.29068863916545" lon="10.13378117007413"><ele>502.0</ele><time>2026-05-03T09:16:37.719Z</time></trkpt><trkpt lat="44.29069425158332" lon="10.133670797362605"><ele>503.0</ele><time>2026-05-03T09:16:38.719Z</time></trkpt><trkpt lat="44.29071808344535" lon="10.133564634389861"><ele>504.0</ele><time>2026-05-03T09:16:39.719Z</time></trkpt><trkpt lat="44.29075712108609" lon="10.133482432698381"><ele>504.99999999999994</ele><time>2026-05-03T09:16:40.719Z</time></trkpt><trkpt lat="44.29081481241635" lon="10.133410917774915"><ele>506.0</ele><time>2026-05-03T09:16:41.719Z</time></trkpt><trkpt lat="44.290893596350294" lon="10.133358355489236"><ele>506.0</ele><time>2026-05-03T09:16:42.719Z</time></trkpt><trkpt lat="44.29099380510211" lon="10.133324844515489"><ele>506.0</ele><time>2026-05-03T09:16:43.719Z</time></trkpt><trkpt lat="44.2911029907341" lon="10.133284951682793"><ele>506.0</ele><time>2026-05-03T09:16:44.719Z</time></trkpt><trkpt lat="44.29120950713561" lon="10.133238249046002"><ele>506.0</ele><time>2026-05-03T09:16:45.719Z</time></trkpt><trkpt lat="44.29132053358434" lon="10.13319393876173"><ele>506.0</ele><time>2026-05-03T09:16:46.719Z</time></trkpt><trkpt lat="44.29143586196573" lon="10.1331462570288"><ele>507.6</ele><time>2026-05-03T09:16:47.719Z</time></trkpt><trkpt lat="44.291534385760215" lon="10.133102183452507"><ele>509.20000000000005</ele><time>2026-05-03T09:16:48.717Z</time></trkpt><trkpt lat="44.29163307418084" lon="10.133063508004803"><ele>510.79999999999995</ele><time>2026-05-03T09:16:49.716Z</time></trkpt><trkpt lat="44.291716146064736" lon="10.133031769914625"><ele>512.4</ele><time>2026-05-03T09:16:50.716Z</time></trkpt><trkpt lat="44.29178455691407" lon="10.133005994087469"><ele>514.0</ele><time>2026-05-03T09:16:51.716Z</time></trkpt><trkpt lat="44.29187643287023" lon="10.132972271036076"><ele>514.0</ele><time>2026-05-03T09:16:53.717Z</time></trkpt><trkpt lat="44.29186142333029" lon="10.132842146061915"><ele>514.0</ele><time>2026-05-03T09:16:56.717Z</time></trkpt><trkpt lat="44.291746503369005" lon="10.132763243880875"><ele>514.0</ele><time>2026-05-03T09:16:58.716Z</time></trkpt><trkpt lat="44.29166933282896" lon="10.132717027993305"><ele>514.0</ele><time>2026-05-03T09:16:59.716Z</time></trkpt><trkpt lat="44.29160235382798" lon="10.132654381095213"><ele>514.0</ele><time>2026-05-03T09:17:00.716Z</time></trkpt><trkpt lat="44.29155454806708" lon="10.132568919268856"><ele>514.0</ele><time>2026-05-03T09:17:01.717Z</time></trkpt><trkpt lat="44.29152329155095" lon="10.132467460040019"><ele>514.0</ele><time>2026-05-03T09:17:02.717Z</time></trkpt><trkpt lat="44.291502310520464" lon="10.13233005161353"><ele>514.0</ele><time>2026-05-03T09:17:03.716Z</time></trkpt><trkpt lat="44.2914885176238" lon="10.132199759512437"><ele>514.0</ele><time>2026-05-03T09:17:04.716Z</time></trkpt><trkpt lat="44.29147560214801" lon="10.132052515635596"><ele>514.0</ele><time>2026-05-03T09:17:05.716Z</time></trkpt><trkpt lat="44.29145915169739" lon="10.131901404171064"><ele>515.2</ele><time>2026-05-03T09:17:06.716Z</time></trkpt><trkpt lat="44.29144493737899" lon="10.131761223385876"><ele>516.4</ele><time>2026-05-03T09:17:07.716Z</time></trkpt><trkpt lat="44.291440610725466" lon="10.131635815322191"><ele>517.6</ele><time>2026-05-03T09:17:08.716Z</time></trkpt><trkpt lat="44.291456217755346" lon="10.131512730552954"><ele>518.8</ele><time>2026-05-03T09:17:09.716Z</time></trkpt><trkpt lat="44.29149028786098" lon="10.131391332098532"><ele>520.0</ele><time>2026-05-03T09:17:10.716Z</time></trkpt><trkpt lat="44.29153412426358" lon="10.131270017311582"><ele>522.1666666666667</ele><time>2026-05-03T09:17:11.716Z</time></trkpt><trkpt lat="44.291577455725744" lon="10.131163036821384"><ele>524.3333333333334</ele><time>2026-05-03T09:17:12.716Z</time></trkpt><trkpt lat="44.29161512494853" lon="10.131044148093347"><ele>526.5</ele><time>2026-05-03T09:17:13.716Z</time></trkpt><trkpt lat="44.291643679839645" lon="10.130933397708203"><ele>528.6666666666666</ele><time>2026-05-03T09:17:14.716Z</time></trkpt><trkpt lat="44.291662486083695" lon="10.130847700325809"><ele>530.8333333333333</ele><time>2026-05-03T09:17:15.716Z</time></trkpt><trkpt lat="44.29171299245654" lon="10.130705053952862"><ele>533.0</ele><time>2026-05-03T09:17:17.716Z</time></trkpt><trkpt lat="44.2917594785846" lon="10.130589797079418"><ele>533.6666666666666</ele><time>2026-05-03T09:17:19.716Z</time></trkpt><trkpt lat="44.291704371478176" lon="10.130489481138813"><ele>534.3333333333333</ele><time>2026-05-03T09:17:21.716Z</time></trkpt><trkpt lat="44.291612462284235" lon="10.130462640389409"><ele>535.0</ele><time>2026-05-03T09:17:23.716Z</time></trkpt><trkpt lat="44.29155472190836" lon="10.130421507044355"><ele>535.6666666666666</ele><time>2026-05-03T09:17:26.716Z</time></trkpt><trkpt lat="44.291479422666555" lon="10.13034997062314"><ele>536.3333333333334</ele><time>2026-05-03T09:17:27.716Z</time></trkpt><trkpt lat="44.291415674028585" lon="10.13025953612036"><ele>537.0</ele><time>2026-05-03T09:17:28.716Z</time></trkpt><trkpt lat="44.291348885141744" lon="10.130142867641187"><ele>535.4</ele><time>2026-05-03T09:17:29.716Z</time></trkpt><trkpt lat="44.291286601438976" lon="10.130023543265082"><ele>533.8000000000001</ele><time>2026-05-03T09:17:30.716Z</time></trkpt><trkpt lat="44.29123976477883" lon="10.129900304047391"><ele>532.2</ele><time>2026-05-03T09:17:31.716Z</time></trkpt><trkpt lat="44.29119927644939" lon="10.129779949923774"><ele>530.6</ele><time>2026-05-03T09:17:32.716Z</time></trkpt><trkpt lat="44.29115070246268" lon="10.129668368196041"><ele>529.0</ele><time>2026-05-03T09:17:33.716Z</time></trkpt><trkpt lat="44.29110271097464" lon="10.129565551217151"><ele>528.2</ele><time>2026-05-03T09:17:34.716Z</time></trkpt><trkpt lat="44.2910662342676" lon="10.129463782444752"><ele>527.4</ele><time>2026-05-03T09:17:35.716Z</time></trkpt><trkpt lat="44.29103661188723" lon="10.129351299289016"><ele>526.6</ele><time>2026-05-03T09:17:36.716Z</time></trkpt><trkpt lat="44.29102697990252" lon="10.129208221746323"><ele>525.8</ele><time>2026-05-03T09:17:37.716Z</time></trkpt><trkpt lat="44.29101385113677" lon="10.129050852510627"><ele>525.0</ele><time>2026-05-03T09:17:38.716Z</time></trkpt><trkpt lat="44.29099253223493" lon="10.128900594034205"><ele>524.6</ele><time>2026-05-03T09:17:39.716Z</time></trkpt><trkpt lat="44.290967428185" lon="10.128746867318027"><ele>524.2</ele><time>2026-05-03T09:17:40.716Z</time></trkpt><trkpt lat="44.29093927393615" lon="10.128611670875063"><ele>523.8</ele><time>2026-05-03T09:17:41.716Z</time></trkpt><trkpt lat="44.29089216846359" lon="10.128470813567427"><ele>523.4</ele><time>2026-05-03T09:17:42.716Z</time></trkpt><trkpt lat="44.29085267337546" lon="10.12833610734802"><ele>523.0</ele><time>2026-05-03T09:17:43.716Z</time></trkpt><trkpt lat="44.29082431392202" lon="10.12821660427545"><ele>522.0</ele><time>2026-05-03T09:17:44.716Z</time></trkpt><trkpt lat="44.290799441395194" lon="10.128093107066885"><ele>521.0</ele><time>2026-05-03T09:17:45.716Z</time></trkpt><trkpt lat="44.290791552121355" lon="10.127977622399536"><ele>520.0</ele><time>2026-05-03T09:17:46.716Z</time></trkpt><trkpt lat="44.29078966471215" lon="10.127846120436367"><ele>519.0</ele><time>2026-05-03T09:17:47.716Z</time></trkpt><trkpt lat="44.29081285524503" lon="10.127693765497241"><ele>518.0</ele><time>2026-05-03T09:17:48.716Z</time></trkpt><trkpt lat="44.290861692907086" lon="10.127557424648572"><ele>518.0</ele><time>2026-05-03T09:17:49.716Z</time></trkpt><trkpt lat="44.29092161789001" lon="10.127419291007437"><ele>518.0</ele><time>2026-05-03T09:17:50.716Z</time></trkpt><trkpt lat="44.29097284140106" lon="10.127278770687642"><ele>518.0</ele><time>2026-05-03T09:17:51.716Z</time></trkpt><trkpt lat="44.29100900219509" lon="10.12713699206097"><ele>518.0</ele><time>2026-05-03T09:17:52.716Z</time></trkpt><trkpt lat="44.29104524190332" lon="10.127001601038796"><ele>518.0</ele><time>2026-05-03T09:17:53.716Z</time></trkpt><trkpt lat="44.29108604664448" lon="10.126881614909584"><ele>516.3333333333333</ele><time>2026-05-03T09:17:54.716Z</time></trkpt><trkpt lat="44.29113012183905" lon="10.12677850322879"><ele>514.6666666666666</ele><time>2026-05-03T09:17:55.716Z</time></trkpt><trkpt lat="44.29118238975735" lon="10.126695316513947"><ele>513.0</ele><time>2026-05-03T09:17:56.716Z</time></trkpt><trkpt lat="44.29126174531195" lon="10.126641127088268"><ele>511.33333333333337</ele><time>2026-05-03T09:17:57.716Z</time></trkpt><trkpt lat="44.29135067024565" lon="10.126616971641942"><ele>509.6666666666667</ele><time>2026-05-03T09:17:58.716Z</time></trkpt><trkpt lat="44.29144064911983" lon="10.126644825248881"><ele>508.0</ele><time>2026-05-03T09:17:59.716Z</time></trkpt><trkpt lat="44.29153520814654" lon="10.126718439045588"><ele>508.0</ele><time>2026-05-03T09:18:00.716Z</time></trkpt><trkpt lat="44.291630856431624" lon="10.126788427600186"><ele>507.99999999999994</ele><time>2026-05-03T09:18:01.716Z</time></trkpt><trkpt lat="44.29172601251691" lon="10.126845947602915"><ele>507.99999999999994</ele><time>2026-05-03T09:18:02.716Z</time></trkpt><trkpt lat="44.29181354650807" lon="10.126903566599344"><ele>508.0</ele><time>2026-05-03T09:18:03.716Z</time></trkpt><trkpt lat="44.29189620914798" lon="10.126941153608689"><ele>508.0</ele><time>2026-05-03T09:18:04.716Z</time></trkpt><trkpt lat="44.291984445812155" lon="10.126940226219443"><ele>508.0</ele><time>2026-05-03T09:18:05.716Z</time></trkpt><trkpt lat="44.29208364560727" lon="10.126919618688692"><ele>507.99999999999994</ele><time>2026-05-03T09:18:06.716Z</time></trkpt><trkpt lat="44.29218772317447" lon="10.126891298128498"><ele>507.99999999999994</ele><time>2026-05-03T09:18:07.716Z</time></trkpt><trkpt lat="44.292285696174204" lon="10.126844102419689"><ele>508.0</ele><time>2026-05-03T09:18:08.716Z</time></trkpt><trkpt lat="44.29238180173679" lon="10.126800993030395"><ele>508.0</ele><time>2026-05-03T09:18:09.716Z</time></trkpt><trkpt lat="44.29246422242423" lon="10.1267439770455"><ele>507.33333333333337</ele><time>2026-05-03T09:18:10.716Z</time></trkpt><trkpt lat="44.29252967305131" lon="10.12666612240098"><ele>506.6666666666667</ele><time>2026-05-03T09:18:11.716Z</time></trkpt><trkpt lat="44.292594882376584" lon="10.126580826263849"><ele>506.0</ele><time>2026-05-03T09:18:12.716Z</time></trkpt><trkpt lat="44.292655589560134" lon="10.126500383120124"><ele>505.33333333333337</ele><time>2026-05-03T09:18:13.716Z</time></trkpt><trkpt lat="44.29270589642928" lon="10.126421245701021"><ele>504.6666666666667</ele><time>2026-05-03T09:18:14.715Z</time></trkpt><trkpt lat="44.2927483951716" lon="10.126343467916126"><ele>504.0</ele><time>2026-05-03T09:18:15.715Z</time></trkpt><trkpt lat="44.29276522403805" lon="10.12616221948205"><ele>501.79999999999995</ele><time>2026-05-03T09:18:17.715Z</time></trkpt><trkpt lat="44.292676523325454" lon="10.126096216696398"><ele>499.59999999999997</ele><time>2026-05-03T09:18:18.715Z</time></trkpt><trkpt lat="44.292582053972914" lon="10.126044657268512"><ele>497.4</ele><time>2026-05-03T09:18:19.715Z</time></trkpt><trkpt lat="44.29247306583315" lon="10.12604396557595"><ele>495.2</ele><time>2026-05-03T09:18:20.715Z</time></trkpt><trkpt lat="44.29235062364951" lon="10.126059715775877"><ele>493.0</ele><time>2026-05-03T09:18:21.715Z</time></trkpt><trkpt lat="44.292246926284896" lon="10.126061765676882"><ele>493.0</ele><time>2026-05-03T09:18:22.715Z</time></trkpt><trkpt lat="44.29213282778881" lon="10.126040639941037"><ele>493.0</ele><time>2026-05-03T09:18:23.715Z</time></trkpt><trkpt lat="44.292037095953425" lon="10.12599131018271"><ele>493.0</ele><time>2026-05-03T09:18:24.715Z</time></trkpt><trkpt lat="44.29194109308341" lon="10.125909315141245"><ele>493.0</ele><time>2026-05-03T09:18:25.715Z</time></trkpt><trkpt lat="44.291861063629625" lon="10.125783988240412"><ele>493.5</ele><time>2026-05-03T09:18:26.715Z</time></trkpt><trkpt lat="44.29180603874332" lon="10.12562683498345"><ele>494.0</ele><time>2026-05-03T09:18:27.715Z</time></trkpt><trkpt lat="44.29175775811786" lon="10.125451706519781"><ele>494.5</ele><time>2026-05-03T09:18:28.715Z</time></trkpt><trkpt lat="44.29170888982023" lon="10.125274638639953"><ele>495.0</ele><time>2026-05-03T09:18:29.715Z</time></trkpt><trkpt lat="44.291650353281426" lon="10.125104622531376"><ele>495.0</ele><time>2026-05-03T09:18:30.715Z</time></trkpt><trkpt lat="44.29157501030715" lon="10.124934860512923"><ele>495.0</ele><time>2026-05-03T09:18:31.715Z</time></trkpt><trkpt lat="44.29149084856036" lon="10.124777760606172"><ele>495.0</ele><time>2026-05-03T09:18:32.715Z</time></trkpt><trkpt lat="44.291415499598635" lon="10.124622984104047"><ele>495.0</ele><time>2026-05-03T09:18:33.715Z</time></trkpt><trkpt lat="44.291354376273176" lon="10.124468032519024"><ele>488.75</ele><time>2026-05-03T09:18:34.715Z</time></trkpt><trkpt lat="44.291317865889106" lon="10.124298403953498"><ele>482.5</ele><time>2026-05-03T09:18:35.715Z</time></trkpt><trkpt lat="44.29130115443708" lon="10.12410829116991"><ele>476.25</ele><time>2026-05-03T09:18:36.715Z</time></trkpt><trkpt lat="44.291286623748285" lon="10.123911292988025"><ele>470.0</ele><time>2026-05-03T09:18:37.715Z</time></trkpt><trkpt lat="44.291270674043844" lon="10.123721406203508"><ele>468.75</ele><time>2026-05-03T09:18:38.715Z</time></trkpt><trkpt lat="44.29126703681901" lon="10.123547221918457"><ele>467.5</ele><time>2026-05-03T09:18:39.715Z</time></trkpt><trkpt lat="44.29128334590602" lon="10.123362749627658"><ele>466.25</ele><time>2026-05-03T09:18:40.715Z</time></trkpt><trkpt lat="44.29131223292369" lon="10.123165335401657"><ele>465.0</ele><time>2026-05-03T09:18:41.715Z</time></trkpt><trkpt lat="44.29136223253875" lon="10.122930781778"><ele>468.0</ele><time>2026-05-03T09:18:42.715Z</time></trkpt><trkpt lat="44.291411998402054" lon="10.122688273668357"><ele>471.0</ele><time>2026-05-03T09:18:43.715Z</time></trkpt><trkpt lat="44.29145759992343" lon="10.122437570558477"><ele>474.0</ele><time>2026-05-03T09:18:44.715Z</time></trkpt><trkpt lat="44.2914989797832" lon="10.122188149681085"><ele>474.0</ele><time>2026-05-03T09:18:45.715Z</time></trkpt><trkpt lat="44.29154392998748" lon="10.121956369234281"><ele>474.0</ele><time>2026-05-03T09:18:46.715Z</time></trkpt><trkpt lat="44.29158775121716" lon="10.121729128017646"><ele>474.0</ele><time>2026-05-03T09:18:47.715Z</time></trkpt><trkpt lat="44.29163652554248" lon="10.121511513033948"><ele>472.33333333333337</ele><time>2026-05-03T09:18:48.715Z</time></trkpt><trkpt lat="44.29167468642466" lon="10.121296387463891"><ele>470.6666666666667</ele><time>2026-05-03T09:18:49.715Z</time></trkpt><trkpt lat="44.291688847955704" lon="10.121077553876638"><ele>469.0</ele><time>2026-05-03T09:18:50.715Z</time></trkpt><trkpt lat="44.2916647348693" lon="10.120835526160384"><ele>469.0</ele><time>2026-05-03T09:18:51.715Z</time></trkpt><trkpt lat="44.291619885510336" lon="10.12060051124892"><ele>469.0</ele><time>2026-05-03T09:18:52.715Z</time></trkpt><trkpt lat="44.291583254131325" lon="10.120372547352183"><ele>469.0</ele><time>2026-05-03T09:18:53.715Z</time></trkpt><trkpt lat="44.29155293365648" lon="10.12014283665587"><ele>469.0</ele><time>2026-05-03T09:18:55Z</time></trkpt><trkpt lat="44.29152774113295" lon="10.119902744924778"><ele>469.0</ele><time>2026-05-03T09:18:56Z</time></trkpt><trkpt lat="44.29150281471086" lon="10.119650796275716"><ele>469.0</ele><time>2026-05-03T09:18:57Z</time></trkpt><trkpt lat="44.291491209607116" lon="10.119396912519136"><ele>469.33333333333337</ele><time>2026-05-03T09:18:58Z</time></trkpt><trkpt lat="44.291475303395664" lon="10.119144375550869"><ele>469.66666666666663</ele><time>2026-05-03T09:18:59Z</time></trkpt><trkpt lat="44.29143682223852" lon="10.118887246652173"><ele>470.0</ele><time>2026-05-03T09:19:00Z</time></trkpt><trkpt lat="44.291402406846295" lon="10.118641637659824"><ele>455.3333333333333</ele><time>2026-05-03T09:19:01Z</time></trkpt><trkpt lat="44.29137901940682" lon="10.118381564110283"><ele>440.66666666666663</ele><time>2026-05-03T09:19:02Z</time></trkpt><trkpt lat="44.2913444501083" lon="10.118138063694584"><ele>426.0</ele><time>2026-05-03T09:19:03Z</time></trkpt><trkpt lat="44.291312149330906" lon="10.117913545056414"><ele>425.75</ele><time>2026-05-03T09:19:04Z</time></trkpt><trkpt lat="44.29129122744061" lon="10.11769616580344"><ele>425.5</ele><time>2026-05-03T09:19:05Z</time></trkpt><trkpt lat="44.29125899929437" lon="10.11749523864709"><ele>425.25</ele><time>2026-05-03T09:19:06Z</time></trkpt><trkpt lat="44.29122321820415" lon="10.117316356585869"><ele>425.0</ele><time>2026-05-03T09:19:07Z</time></trkpt><trkpt lat="44.291168341855965" lon="10.117162371488343"><ele>424.16666666666663</ele><time>2026-05-03T09:19:08Z</time></trkpt><trkpt lat="44.29113968477758" lon="10.11704062997454"><ele>423.3333333333333</ele><time>2026-05-03T09:19:09Z</time></trkpt><trkpt lat="44.2911278970715" lon="10.116945068423012"><ele>422.5</ele><time>2026-05-03T09:19:10Z</time></trkpt><trkpt lat="44.291157056131404" lon="10.116860288775294"><ele>421.66666666666663</ele><time>2026-05-03T09:19:11Z</time></trkpt><trkpt lat="44.29122199933795" lon="10.116786961695132"><ele>420.8333333333333</ele><time>2026-05-03T09:19:12Z</time></trkpt><trkpt lat="44.29133332661994" lon="10.116752693917844"><ele>420.0</ele><time>2026-05-03T09:19:13Z</time></trkpt><trkpt lat="44.29145437801389" lon="10.116695087112149"><ele>424.0</ele><time>2026-05-03T09:19:14.001Z</time></trkpt><trkpt lat="44.29158396482285" lon="10.116656845276944"><ele>428.0</ele><time>2026-05-03T09:19:15.001Z</time></trkpt><trkpt lat="44.29172135250512" lon="10.116573112139081"><ele>432.0</ele><time>2026-05-03T09:19:16.001Z</time></trkpt><trkpt lat="44.29187157477776" lon="10.11649349464115"><ele>436.0</ele><time>2026-05-03T09:19:17.001Z</time></trkpt><trkpt lat="44.29201177010842" lon="10.116378943026472"><ele>436.0</ele><time>2026-05-03T09:19:18.001Z</time></trkpt><trkpt lat="44.29213807193164" lon="10.116299670919293"><ele>436.0</ele><time>2026-05-03T09:19:19.001Z</time></trkpt><trkpt lat="44.292251878140036" lon="10.11623280962204"><ele>436.0</ele><time>2026-05-03T09:19:20.001Z</time></trkpt><trkpt lat="44.29234517047168" lon="10.11616100906291"><ele>436.0</ele><time>2026-05-03T09:19:21.001Z</time></trkpt><trkpt lat="44.29240033598967" lon="10.116062098300844"><ele>437.83333333333337</ele><time>2026-05-03T09:19:22.001Z</time></trkpt><trkpt lat="44.29239677355966" lon="10.11596561118882"><ele>439.6666666666667</ele><time>2026-05-03T09:19:23.001Z</time></trkpt><trkpt lat="44.29237151803316" lon="10.115850832200751"><ele>441.5</ele><time>2026-05-03T09:19:24.001Z</time></trkpt><trkpt lat="44.29231751518077" lon="10.115733747698764"><ele>443.33333333333337</ele><time>2026-05-03T09:19:25.001Z</time></trkpt><trkpt lat="44.29225823888835" lon="10.115637604923945"><ele>445.1666666666667</ele><time>2026-05-03T09:19:26.001Z</time></trkpt><trkpt lat="44.29217304471608" lon="10.115590207719286"><ele>447.0</ele><time>2026-05-03T09:19:27.001Z</time></trkpt><trkpt lat="44.29206176050174" lon="10.11559376257537"><ele>449.5</ele><time>2026-05-03T09:19:28.001Z</time></trkpt><trkpt lat="44.291950496916975" lon="10.115632477401043"><ele>452.0</ele><time>2026-05-03T09:19:29.001Z</time></trkpt><trkpt lat="44.291831309926614" lon="10.115718729222625"><ele>454.5</ele><time>2026-05-03T09:19:30.001Z</time></trkpt><trkpt lat="44.291710458990636" lon="10.11582115348137"><ele>457.0</ele><time>2026-05-03T09:19:31.001Z</time></trkpt><trkpt lat="44.29159311630882" lon="10.115891147390117"><ele>452.8</ele><time>2026-05-03T09:19:32.001Z</time></trkpt><trkpt lat="44.29149630974635" lon="10.115941136180327"><ele>448.6</ele><time>2026-05-03T09:19:33.001Z</time></trkpt><trkpt lat="44.29140756421727" lon="10.11596597411254"><ele>444.40000000000003</ele><time>2026-05-03T09:19:34.001Z</time></trkpt><trkpt lat="44.291327242336166" lon="10.115954622700288"><ele>440.20000000000005</ele><time>2026-05-03T09:19:35.001Z</time></trkpt><trkpt lat="44.291254742143174" lon="10.115893835572482"><ele>436.0</ele><time>2026-05-03T09:19:36.001Z</time></trkpt><trkpt lat="44.2911720893471" lon="10.115803986170256"><ele>431.5</ele><time>2026-05-03T09:19:37.001Z</time></trkpt><trkpt lat="44.29107771331934" lon="10.115700779764717"><ele>427.0</ele><time>2026-05-03T09:19:38.001Z</time></trkpt><trkpt lat="44.29098060770067" lon="10.115575666843622"><ele>422.5</ele><time>2026-05-03T09:19:39.001Z</time></trkpt><trkpt lat="44.290906100940035" lon="10.1154472426349"><ele>418.0</ele><time>2026-05-03T09:19:40.001Z</time></trkpt><trkpt lat="44.29084775029543" lon="10.115305664503884"><ele>418.0</ele><time>2026-05-03T09:19:41.001Z</time></trkpt><trkpt lat="44.29082040395483" lon="10.11513041081396"><ele>418.0</ele><time>2026-05-03T09:19:42.001Z</time></trkpt><trkpt lat="44.2908111762013" lon="10.114904052203391"><ele>418.0</ele><time>2026-05-03T09:19:43.001Z</time></trkpt><trkpt lat="44.290793525405874" lon="10.114624659262637"><ele>419.5</ele><time>2026-05-03T09:19:44.001Z</time></trkpt><trkpt lat="44.29074952906858" lon="10.114306271155318"><ele>421.0</ele><time>2026-05-03T09:19:45.001Z</time></trkpt><trkpt lat="44.29069275258235" lon="10.113965926563049"><ele>423.5</ele><time>2026-05-03T09:19:46.001Z</time></trkpt><trkpt lat="44.290651659937765" lon="10.113649729927678"><ele>426.0</ele><time>2026-05-03T09:19:47.001Z</time></trkpt><trkpt lat="44.29059313047175" lon="10.113352856790568"><ele>413.66666666666663</ele><time>2026-05-03T09:19:48.001Z</time></trkpt><trkpt lat="44.29052729952074" lon="10.11307290982823"><ele>401.3333333333333</ele><time>2026-05-03T09:19:49.001Z</time></trkpt><trkpt lat="44.29046417081692" lon="10.11281050401279"><ele>389.0</ele><time>2026-05-03T09:19:50.001Z</time></trkpt><trkpt lat="44.2904099230033" lon="10.112567389919061"><ele>388.25</ele><time>2026-05-03T09:19:51.001Z</time></trkpt><trkpt lat="44.29035898174805" lon="10.11237575665688"><ele>387.5</ele><time>2026-05-03T09:19:52.001Z</time></trkpt><trkpt lat="44.290328339421244" lon="10.112221191765716"><ele>386.75</ele><time>2026-05-03T09:19:53.002Z</time></trkpt><trkpt lat="44.29031163834199" lon="10.112070404542717"><ele>386.0</ele><time>2026-05-03T09:19:54.002Z</time></trkpt><trkpt lat="44.29033610686845" lon="10.111900235960288"><ele>386.0</ele><time>2026-05-03T09:19:55.002Z</time></trkpt><trkpt lat="44.290376295976095" lon="10.111733473725312"><ele>386.0</ele><time>2026-05-03T09:19:56.002Z</time></trkpt><trkpt lat="44.2903971101423" lon="10.111595366692756"><ele>386.0</ele><time>2026-05-03T09:19:57.002Z</time></trkpt><trkpt lat="44.29039091853872" lon="10.111506148491129"><ele>386.0</ele><time>2026-05-03T09:19:58.002Z</time></trkpt><trkpt lat="44.29034917587508" lon="10.111397918401204"><ele>386.0</ele><time>2026-05-03T09:19:59.002Z</time></trkpt><trkpt lat="44.29028939825396" lon="10.11129024124067"><ele>389.0</ele><time>2026-05-03T09:20:00.002Z</time></trkpt><trkpt lat="44.290173424455624" lon="10.111141218615135"><ele>392.0</ele><time>2026-05-03T09:20:01.002Z</time></trkpt><trkpt lat="44.290028550077004" lon="10.110946344293104"><ele>395.0</ele><time>2026-05-03T09:20:02.002Z</time></trkpt><trkpt lat="44.28990646136818" lon="10.11073002902449"><ele>389.3333333333333</ele><time>2026-05-03T09:20:03.002Z</time></trkpt><trkpt lat="44.28980578736291" lon="10.110530974700215"><ele>383.66666666666663</ele><time>2026-05-03T09:20:04.002Z</time></trkpt><trkpt lat="44.28971124101008" lon="10.110355290018395"><ele>378.0</ele><time>2026-05-03T09:20:05.002Z</time></trkpt><trkpt lat="44.289629364108784" lon="10.110177587555407"><ele>378.0</ele><time>2026-05-03T09:20:06.002Z</time></trkpt><trkpt lat="44.28955037132074" lon="10.110007994530037"><ele>378.0</ele><time>2026-05-03T09:20:07.002Z</time></trkpt><trkpt lat="44.28946288081245" lon="10.109846213674146"><ele>378.0</ele><time>2026-05-03T09:20:08.002Z</time></trkpt><trkpt lat="44.28938055317576" lon="10.109664292943677"><ele>378.0</ele><time>2026-05-03T09:20:09.002Z</time></trkpt><trkpt lat="44.289317637827246" lon="10.109461605908988"><ele>379.3333333333333</ele><time>2026-05-03T09:20:10.002Z</time></trkpt><trkpt lat="44.289269467337164" lon="10.109239383636337"><ele>380.66666666666663</ele><time>2026-05-03T09:20:11.002Z</time></trkpt><trkpt lat="44.28921896299826" lon="10.10899119512818"><ele>382.0</ele><time>2026-05-03T09:20:12.002Z</time></trkpt><trkpt lat="44.28916436345814" lon="10.108700784684371"><ele>383.66666666666663</ele><time>2026-05-03T09:20:13.002Z</time></trkpt><trkpt lat="44.289106859500215" lon="10.108424459477241"><ele>385.3333333333333</ele><time>2026-05-03T09:20:14.002Z</time></trkpt><trkpt lat="44.289050634907525" lon="10.10816028566854"><ele>387.0</ele><time>2026-05-03T09:20:15.002Z</time></trkpt><trkpt lat="44.28898312576209" lon="10.107908640989004"><ele>387.33333333333337</ele><time>2026-05-03T09:20:16.002Z</time></trkpt><trkpt lat="44.28892762022161" lon="10.107648409338493"><ele>387.6666666666667</ele><time>2026-05-03T09:20:17.002Z</time></trkpt><trkpt lat="44.28889720802617" lon="10.107405675590389"><ele>388.0</ele><time>2026-05-03T09:20:18.002Z</time></trkpt><trkpt lat="44.288875065815944" lon="10.107157233883607"><ele>381.6666666666667</ele><time>2026-05-03T09:20:19.002Z</time></trkpt><trkpt lat="44.2888398744809" lon="10.10689524431189"><ele>375.33333333333337</ele><time>2026-05-03T09:20:20.002Z</time></trkpt><trkpt lat="44.28877598858866" lon="10.106631493853298"><ele>369.0</ele><time>2026-05-03T09:20:21.002Z</time></trkpt><trkpt lat="44.28870498873785" lon="10.106369320143424"><ele>367.6666666666667</ele><time>2026-05-03T09:20:22.002Z</time></trkpt><trkpt lat="44.288640227770436" lon="10.106122932096476"><ele>366.33333333333337</ele><time>2026-05-03T09:20:23.002Z</time></trkpt><trkpt lat="44.288582571572036" lon="10.105891661994505"><ele>365.0</ele><time>2026-05-03T09:20:24.002Z</time></trkpt><trkpt lat="44.28852557605578" lon="10.105677278710496"><ele>365.0</ele><time>2026-05-03T09:20:25.002Z</time></trkpt><trkpt lat="44.28846516353187" lon="10.105465448902459"><ele>365.0</ele><time>2026-05-03T09:20:26.002Z</time></trkpt><trkpt lat="44.28839438694921" lon="10.105296109921099"><ele>365.0</ele><time>2026-05-03T09:20:27.002Z</time></trkpt><trkpt lat="44.28829063010376" lon="10.10512519174207"><ele>365.0</ele><time>2026-05-03T09:20:28.002Z</time></trkpt><trkpt lat="44.28818115710502" lon="10.104965861889822"><ele>365.0</ele><time>2026-05-03T09:20:29.002Z</time></trkpt><trkpt lat="44.28809356677081" lon="10.104816260449425"><ele>365.0</ele><time>2026-05-03T09:20:30.002Z</time></trkpt><trkpt lat="44.288019318613664" lon="10.10468471146366"><ele>365.0</ele><time>2026-05-03T09:20:31.002Z</time></trkpt><trkpt lat="44.287952092454695" lon="10.104560706608924"><ele>364.5</ele><time>2026-05-03T09:20:32.002Z</time></trkpt><trkpt lat="44.28792261049118" lon="10.1043904072112"><ele>364.0</ele><time>2026-05-03T09:20:33.002Z</time></trkpt><trkpt lat="44.28792646171873" lon="10.10420947874518"><ele>363.5</ele><time>2026-05-03T09:20:34.002Z</time></trkpt><trkpt lat="44.287968365127114" lon="10.10400939374754"><ele>363.0</ele><time>2026-05-03T09:20:35.002Z</time></trkpt><trkpt lat="44.28802739731225" lon="10.103806308263653"><ele>363.0</ele><time>2026-05-03T09:20:36.002Z</time></trkpt><trkpt lat="44.288090564156455" lon="10.103606082878517"><ele>363.0</ele><time>2026-05-03T09:20:37.002Z</time></trkpt><trkpt lat="44.28815048367573" lon="10.103415788641076"><ele>363.0</ele><time>2026-05-03T09:20:38.002Z</time></trkpt><trkpt lat="44.288207684759016" lon="10.103229848015225"><ele>360.75</ele><time>2026-05-03T09:20:39.003Z</time></trkpt><trkpt lat="44.28825099952889" lon="10.103040345661414"><ele>358.5</ele><time>2026-05-03T09:20:40.003Z</time></trkpt><trkpt lat="44.28827437358282" lon="10.10285030092718"><ele>356.25</ele><time>2026-05-03T09:20:41.003Z</time></trkpt><trkpt lat="44.28827482181951" lon="10.102660614579788"><ele>354.0</ele><time>2026-05-03T09:20:42.003Z</time></trkpt><trkpt lat="44.288257025493074" lon="10.102472322563077"><ele>354.25</ele><time>2026-05-03T09:20:43.003Z</time></trkpt><trkpt lat="44.28821328804939" lon="10.1022780881079"><ele>354.5</ele><time>2026-05-03T09:20:44.003Z</time></trkpt><trkpt lat="44.28814945037705" lon="10.10209084663638"><ele>354.75</ele><time>2026-05-03T09:20:45.003Z</time></trkpt><trkpt lat="44.28808831108785" lon="10.101905785862316"><ele>355.0</ele><time>2026-05-03T09:20:46.003Z</time></trkpt><trkpt lat="44.28802662314701" lon="10.101722079748422"><ele>353.75</ele><time>2026-05-03T09:20:47.003Z</time></trkpt><trkpt lat="44.28797430115242" lon="10.1015527829401"><ele>352.5</ele><time>2026-05-03T09:20:48.003Z</time></trkpt><trkpt lat="44.287940969802776" lon="10.101393143342268"><ele>351.25</ele><time>2026-05-03T09:20:49.003Z</time></trkpt><trkpt lat="44.287938796593686" lon="10.10122837525266"><ele>350.0</ele><time>2026-05-03T09:20:50.003Z</time></trkpt><trkpt lat="44.28796698385407" lon="10.101055121363474"><ele>350.0</ele><time>2026-05-03T09:20:51.003Z</time></trkpt><trkpt lat="44.288029527117686" lon="10.10088990504836"><ele>350.0</ele><time>2026-05-03T09:20:52.003Z</time></trkpt><trkpt lat="44.28811713955619" lon="10.100721849181834"><ele>350.0</ele><time>2026-05-03T09:20:53.003Z</time></trkpt><trkpt lat="44.28820885329824" lon="10.100540945521924"><ele>350.0</ele><time>2026-05-03T09:20:54.003Z</time></trkpt><trkpt lat="44.288291511082974" lon="10.100357655230008"><ele>349.0</ele><time>2026-05-03T09:20:55.003Z</time></trkpt><trkpt lat="44.28836040658519" lon="10.10018948581143"><ele>348.0</ele><time>2026-05-03T09:20:56.003Z</time></trkpt><trkpt lat="44.28843248120257" lon="10.10003170639431"><ele>347.0</ele><time>2026-05-03T09:20:57.003Z</time></trkpt><trkpt lat="44.288499064263526" lon="10.099886409592521"><ele>346.0</ele><time>2026-05-03T09:20:58.003Z</time></trkpt><trkpt lat="44.28854727985459" lon="10.099741454756959"><ele>346.0</ele><time>2026-05-03T09:20:59.003Z</time></trkpt><trkpt lat="44.28855663883895" lon="10.099581719521073"><ele>346.0</ele><time>2026-05-03T09:21:00.003Z</time></trkpt><trkpt lat="44.28853824052706" lon="10.099402237666121"><ele>346.0</ele><time>2026-05-03T09:21:01.001Z</time></trkpt><trkpt lat="44.288503598666274" lon="10.099196658432588"><ele>346.0</ele><time>2026-05-03T09:21:02.001Z</time></trkpt><trkpt lat="44.28846662694206" lon="10.09898204518005"><ele>347.25</ele><time>2026-05-03T09:21:03.001Z</time></trkpt><trkpt lat="44.28843359171736" lon="10.098775191011738"><ele>348.5</ele><time>2026-05-03T09:21:04.001Z</time></trkpt><trkpt lat="44.288402172938596" lon="10.098573760253046"><ele>349.75</ele><time>2026-05-03T09:21:05.001Z</time></trkpt><trkpt lat="44.28837275098984" lon="10.098384864984371"><ele>351.0</ele><time>2026-05-03T09:21:06.001Z</time></trkpt><trkpt lat="44.28835085818476" lon="10.098211553826976"><ele>352.0</ele><time>2026-05-03T09:21:07.001Z</time></trkpt><trkpt lat="44.28832177899572" lon="10.098055857268873"><ele>353.0</ele><time>2026-05-03T09:21:08.001Z</time></trkpt><trkpt lat="44.28827855344616" lon="10.097916404462422"><ele>354.0</ele><time>2026-05-03T09:21:09.001Z</time></trkpt><trkpt lat="44.288199569138364" lon="10.097768689483194"><ele>355.0</ele><time>2026-05-03T09:21:10.001Z</time></trkpt><trkpt lat="44.288104892243155" lon="10.097607000167354"><ele>352.0</ele><time>2026-05-03T09:21:11.001Z</time></trkpt><trkpt lat="44.28800750953826" lon="10.097440488857954"><ele>349.0</ele><time>2026-05-03T09:21:12.001Z</time></trkpt><trkpt lat="44.28791653742113" lon="10.097275557391148"><ele>346.0</ele><time>2026-05-03T09:21:13.001Z</time></trkpt><trkpt lat="44.28782264537963" lon="10.09710836176011"><ele>346.0</ele><time>2026-05-03T09:21:14.001Z</time></trkpt><trkpt lat="44.287736505780636" lon="10.096937854432172"><ele>346.0</ele><time>2026-05-03T09:21:15.001Z</time></trkpt><trkpt lat="44.28764906507308" lon="10.096762777859842"><ele>346.0</ele><time>2026-05-03T09:21:16.001Z</time></trkpt><trkpt lat="44.287553612122416" lon="10.096532720119239"><ele>346.0</ele><time>2026-05-03T09:21:17.001Z</time></trkpt><trkpt lat="44.28745362165742" lon="10.096256372815738"><ele>346.0</ele><time>2026-05-03T09:21:18.001Z</time></trkpt><trkpt lat="44.28737035427555" lon="10.095976217525067"><ele>346.0</ele><time>2026-05-03T09:21:19.001Z</time></trkpt><trkpt lat="44.287295152370355" lon="10.095733883320767"><ele>341.66666666666663</ele><time>2026-05-03T09:21:20.001Z</time></trkpt><trkpt lat="44.287238370241646" lon="10.095516586881478"><ele>337.3333333333333</ele><time>2026-05-03T09:21:21.001Z</time></trkpt><trkpt lat="44.28720060201089" lon="10.095306471758509"><ele>333.0</ele><time>2026-05-03T09:21:22.001Z</time></trkpt><trkpt lat="44.287190875979455" lon="10.095105382309793"><ele>332.75</ele><time>2026-05-03T09:21:23.001Z</time></trkpt><trkpt lat="44.28717751186749" lon="10.094901254362817"><ele>332.5</ele><time>2026-05-03T09:21:24.001Z</time></trkpt><trkpt lat="44.28715628846232" lon="10.09469992142663"><ele>332.25</ele><time>2026-05-03T09:21:25.001Z</time></trkpt><trkpt lat="44.28712108408939" lon="10.094505590223623"><ele>332.0</ele><time>2026-05-03T09:21:26.001Z</time></trkpt><trkpt lat="44.287055897621755" lon="10.094315143161108"><ele>332.0</ele><time>2026-05-03T09:21:27.001Z</time></trkpt><trkpt lat="44.286974457701334" lon="10.09412750817547"><ele>332.0</ele><time>2026-05-03T09:21:28.001Z</time></trkpt><trkpt lat="44.286881551150245" lon="10.093919263712818"><ele>332.0</ele><time>2026-05-03T09:21:29.001Z</time></trkpt><trkpt lat="44.28679437200318" lon="10.09371175942725"><ele>332.0</ele><time>2026-05-03T09:21:30.001Z</time></trkpt><trkpt lat="44.286717641686195" lon="10.093524546939419"><ele>332.0</ele><time>2026-05-03T09:21:31.001Z</time></trkpt><trkpt lat="44.28664918071283" lon="10.093350608088768"><ele>332.0</ele><time>2026-05-03T09:21:32.001Z</time></trkpt><trkpt lat="44.28658664986167" lon="10.093174321695061"><ele>332.0</ele><time>2026-05-03T09:21:33.001Z</time></trkpt><trkpt lat="44.28654005060215" lon="10.093000742175942"><ele>332.25</ele><time>2026-05-03T09:21:34.001Z</time></trkpt><trkpt lat="44.286499987017805" lon="10.092822476705786"><ele>332.5</ele><time>2026-05-03T09:21:35.001Z</time></trkpt><trkpt lat="44.2864695753939" lon="10.092620802984355"><ele>332.75</ele><time>2026-05-03T09:21:36.001Z</time></trkpt><trkpt lat="44.28646633075643" lon="10.0923947752257"><ele>333.0</ele><time>2026-05-03T09:21:37.001Z</time></trkpt><trkpt lat="44.286481369764594" lon="10.092189571075513"><ele>332.25</ele><time>2026-05-03T09:21:38.001Z</time></trkpt><trkpt lat="44.28652167286676" lon="10.092007451129563"><ele>331.5</ele><time>2026-05-03T09:21:39.001Z</time></trkpt><trkpt lat="44.286596553059354" lon="10.091852447318734"><ele>330.75</ele><time>2026-05-03T09:21:40.001Z</time></trkpt><trkpt lat="44.28669837730333" lon="10.0917134470059"><ele>330.0</ele><time>2026-05-03T09:21:41.001Z</time></trkpt><trkpt lat="44.28680074981417" lon="10.091594250118636"><ele>328.5</ele><time>2026-05-03T09:21:42.001Z</time></trkpt><trkpt lat="44.286876013722335" lon="10.091486617789341"><ele>327.0</ele><time>2026-05-03T09:21:43.001Z</time></trkpt><trkpt lat="44.2869320445323" lon="10.0913220609686"><ele>325.5</ele><time>2026-05-03T09:21:44.001Z</time></trkpt><trkpt lat="44.28695907226859" lon="10.09112789991559"><ele>324.0</ele><time>2026-05-03T09:21:45.001Z</time></trkpt><trkpt lat="44.28696268249573" lon="10.090895298732393"><ele>323.0</ele><time>2026-05-03T09:21:46.001Z</time></trkpt><trkpt lat="44.28697662237965" lon="10.090648942555841"><ele>322.0</ele><time>2026-05-03T09:21:47.001Z</time></trkpt><trkpt lat="44.28699279866719" lon="10.090423200566937"><ele>321.0</ele><time>2026-05-03T09:21:48.001Z</time></trkpt><trkpt lat="44.287022949831204" lon="10.090198811755066"><ele>321.0</ele><time>2026-05-03T09:21:49.001Z</time></trkpt><trkpt lat="44.28704581672548" lon="10.089976784960815"><ele>321.0</ele><time>2026-05-03T09:21:50.001Z</time></trkpt><trkpt lat="44.28706227463626" lon="10.089754353370314"><ele>321.0</ele><time>2026-05-03T09:21:51.001Z</time></trkpt><trkpt lat="44.28705882982401" lon="10.089527132820495"><ele>321.6666666666667</ele><time>2026-05-03T09:21:52.001Z</time></trkpt><trkpt lat="44.287024502864845" lon="10.089291202856971"><ele>322.33333333333337</ele><time>2026-05-03T09:21:53.001Z</time></trkpt><trkpt lat="44.28698540842964" lon="10.089050314580284"><ele>323.0</ele><time>2026-05-03T09:21:54.001Z</time></trkpt><trkpt lat="44.28692675596314" lon="10.088801783415557"><ele>324.33333333333337</ele><time>2026-05-03T09:21:55.001Z</time></trkpt><trkpt lat="44.286883194333406" lon="10.088557474328708"><ele>325.6666666666667</ele><time>2026-05-03T09:21:56.001Z</time></trkpt><trkpt lat="44.28685887940171" lon="10.088317747268555"><ele>327.0</ele><time>2026-05-03T09:21:57.001Z</time></trkpt><trkpt lat="44.286832597830994" lon="10.088081905411885"><ele>327.0</ele><time>2026-05-03T09:21:58.002Z</time></trkpt><trkpt lat="44.28681135768678" lon="10.087845198156927"><ele>327.0</ele><time>2026-05-03T09:21:59.002Z</time></trkpt><trkpt lat="44.28677928923025" lon="10.08762037919997"><ele>327.0</ele><time>2026-05-03T09:22:00.002Z</time></trkpt><trkpt lat="44.28675361430884" lon="10.087426820569581"><ele>327.0</ele><time>2026-05-03T09:22:01.002Z</time></trkpt><trkpt lat="44.28673190454102" lon="10.087249327693591"><ele>327.0</ele><time>2026-05-03T09:22:02.002Z</time></trkpt><trkpt lat="44.28671228477746" lon="10.087085184547693"><ele>327.0</ele><time>2026-05-03T09:22:03.002Z</time></trkpt><trkpt lat="44.28670181857305" lon="10.08693537074366"><ele>327.0</ele><time>2026-05-03T09:22:04.002Z</time></trkpt><trkpt lat="44.28670204976998" lon="10.08680478277793"><ele>327.0</ele><time>2026-05-03T09:22:05.002Z</time></trkpt><trkpt lat="44.28671715246126" lon="10.086683229185905"><ele>327.40000000000003</ele><time>2026-05-03T09:22:06.002Z</time></trkpt><trkpt lat="44.28674372689554" lon="10.086555610949567"><ele>327.8</ele><time>2026-05-03T09:22:07.002Z</time></trkpt><trkpt lat="44.28676415555357" lon="10.086411804236626"><ele>328.2</ele><time>2026-05-03T09:22:08.002Z</time></trkpt><trkpt lat="44.286781354302896" lon="10.086246634220322"><ele>328.6</ele><time>2026-05-03T09:22:09.002Z</time></trkpt><trkpt lat="44.28679240637685" lon="10.0860698691922"><ele>329.0</ele><time>2026-05-03T09:22:10.002Z</time></trkpt><trkpt lat="44.286801673241875" lon="10.085893372201127"><ele>329.6</ele><time>2026-05-03T09:22:11.002Z</time></trkpt><trkpt lat="44.28682156999814" lon="10.085705902500104"><ele>330.2</ele><time>2026-05-03T09:22:12.002Z</time></trkpt><trkpt lat="44.28683200009908" lon="10.085532367971652"><ele>330.8</ele><time>2026-05-03T09:22:13.002Z</time></trkpt><trkpt lat="44.286838722501166" lon="10.08539172740089"><ele>331.40000000000003</ele><time>2026-05-03T09:22:14.002Z</time></trkpt><trkpt lat="44.286844034358964" lon="10.085271697539705"><ele>332.0</ele><time>2026-05-03T09:22:15.002Z</time></trkpt><trkpt lat="44.28683140570259" lon="10.085151955470854"><ele>332.0</ele><time>2026-05-03T09:22:16.002Z</time></trkpt><trkpt lat="44.28678835781399" lon="10.085018601979217"><ele>332.0</ele><time>2026-05-03T09:22:17.002Z</time></trkpt><trkpt lat="44.28671882413458" lon="10.084862552697565"><ele>332.0</ele><time>2026-05-03T09:22:18.002Z</time></trkpt><trkpt lat="44.28664854041245" lon="10.084718857415778"><ele>332.0</ele><time>2026-05-03T09:22:19.002Z</time></trkpt><trkpt lat="44.28660463146965" lon="10.084579789327151"><ele>333.0</ele><time>2026-05-03T09:22:20.002Z</time></trkpt><trkpt lat="44.28657990220114" lon="10.084445580809449"><ele>334.0</ele><time>2026-05-03T09:22:21.002Z</time></trkpt><trkpt lat="44.28658437008649" lon="10.084279827033376"><ele>335.0</ele><time>2026-05-03T09:22:22.002Z</time></trkpt><trkpt lat="44.28661064329534" lon="10.084126408957282"><ele>336.0</ele><time>2026-05-03T09:22:23.002Z</time></trkpt><trkpt lat="44.28663993558317" lon="10.084004494384684"><ele>337.0</ele><time>2026-05-03T09:22:24.002Z</time></trkpt><trkpt lat="44.28668251575628" lon="10.083893438322955"><ele>337.0</ele><time>2026-05-03T09:22:25.002Z</time></trkpt><trkpt lat="44.286756192377325" lon="10.083781103848404"><ele>337.0</ele><time>2026-05-03T09:22:26.002Z</time></trkpt><trkpt lat="44.286853463159325" lon="10.083674801242697"><ele>337.0</ele><time>2026-05-03T09:22:27.002Z</time></trkpt><trkpt lat="44.28695172587248" lon="10.083586656112349"><ele>337.0</ele><time>2026-05-03T09:22:28.002Z</time></trkpt><trkpt lat="44.28705013468869" lon="10.083516784488587"><ele>337.0</ele><time>2026-05-03T09:22:29.002Z</time></trkpt><trkpt lat="44.28715537363967" lon="10.083480540799187"><ele>337.0</ele><time>2026-05-03T09:22:30.002Z</time></trkpt><trkpt lat="44.28726281976878" lon="10.083447410302236"><ele>337.0</ele><time>2026-05-03T09:22:31.002Z</time></trkpt><trkpt lat="44.287381837594225" lon="10.083424395895948"><ele>337.0</ele><time>2026-05-03T09:22:32.002Z</time></trkpt><trkpt lat="44.28750699043509" lon="10.08338400931805"><ele>339.0</ele><time>2026-05-03T09:22:33.002Z</time></trkpt><trkpt lat="44.287639665958" lon="10.083367081317663"><ele>341.0</ele><time>2026-05-03T09:22:34.002Z</time></trkpt><trkpt lat="44.28779033049115" lon="10.083376170958898"><ele>343.0</ele><time>2026-05-03T09:22:35.002Z</time></trkpt><trkpt lat="44.287927982849155" lon="10.083372086412364"><ele>345.0</ele><time>2026-05-03T09:22:36.002Z</time></trkpt><trkpt lat="44.28807267140442" lon="10.083365981872445"><ele>345.5</ele><time>2026-05-03T09:22:37.002Z</time></trkpt><trkpt lat="44.28820823906038" lon="10.083351843618322"><ele>346.0</ele><time>2026-05-03T09:22:38.002Z</time></trkpt><trkpt lat="44.28832680702282" lon="10.083322782259224"><ele>346.5</ele><time>2026-05-03T09:22:39.002Z</time></trkpt><trkpt lat="44.2884294757547" lon="10.083255590684574"><ele>347.0</ele><time>2026-05-03T09:22:40.002Z</time></trkpt><trkpt lat="44.28852031000071" lon="10.083176657442252"><ele>347.0</ele><time>2026-05-03T09:22:41.002Z</time></trkpt><trkpt lat="44.28860848256816" lon="10.08303635211523"><ele>347.0</ele><time>2026-05-03T09:22:42.002Z</time></trkpt><trkpt lat="44.28871832621953" lon="10.082905814076758"><ele>347.0</ele><time>2026-05-03T09:22:43.002Z</time></trkpt><trkpt lat="44.28884855409919" lon="10.082787743568755"><ele>347.0</ele><time>2026-05-03T09:22:44.002Z</time></trkpt><trkpt lat="44.288975627148346" lon="10.08267955992401"><ele>348.25</ele><time>2026-05-03T09:22:45.002Z</time></trkpt><trkpt lat="44.289103183017154" lon="10.082594511741428"><ele>349.5</ele><time>2026-05-03T09:22:46.002Z</time></trkpt><trkpt lat="44.28922044720248" lon="10.082517437841478"><ele>350.75</ele><time>2026-05-03T09:22:47.002Z</time></trkpt><trkpt lat="44.2893272099388" lon="10.08244784170526"><ele>352.0</ele><time>2026-05-03T09:22:48.002Z</time></trkpt><trkpt lat="44.289443063562054" lon="10.082394293456787"><ele>350.5</ele><time>2026-05-03T09:22:49.002Z</time></trkpt><trkpt lat="44.289573140865436" lon="10.082354606825591"><ele>349.0</ele><time>2026-05-03T09:22:50.003Z</time></trkpt><trkpt lat="44.2897211226039" lon="10.082314520778143"><ele>347.5</ele><time>2026-05-03T09:22:51.003Z</time></trkpt><trkpt lat="44.28987423573173" lon="10.082252845023683"><ele>346.0</ele><time>2026-05-03T09:22:52.003Z</time></trkpt><trkpt lat="44.29002232322413" lon="10.082177008821105"><ele>346.0</ele><time>2026-05-03T09:22:53.003Z</time></trkpt><trkpt lat="44.290171073242576" lon="10.08211389875968"><ele>346.0</ele><time>2026-05-03T09:22:54.003Z</time></trkpt><trkpt lat="44.29032346767014" lon="10.082044189508661"><ele>346.0</ele><time>2026-05-03T09:22:55.003Z</time></trkpt><trkpt lat="44.290472315559086" lon="10.081979048524582"><ele>346.0</ele><time>2026-05-03T09:22:56.003Z</time></trkpt><trkpt lat="44.29059101146738" lon="10.081935075300056"><ele>346.0</ele><time>2026-05-03T09:22:57.003Z</time></trkpt><trkpt lat="44.29066218259057" lon="10.081915273831262"><ele>346.0</ele><time>2026-05-03T09:22:58.003Z</time></trkpt><trkpt lat="44.290737706313195" lon="10.081893654289127"><ele>346.0</ele><time>2026-05-03T09:23:00.003Z</time></trkpt><trkpt lat="44.29081742608963" lon="10.081773345843716"><ele>346.0</ele><time>2026-05-03T09:23:02.003Z</time></trkpt><trkpt lat="44.29088796260182" lon="10.081694586434178"><ele>345.20000000000005</ele><time>2026-05-03T09:23:03.003Z</time></trkpt><trkpt lat="44.29096690667237" lon="10.08162014264936"><ele>344.40000000000003</ele><time>2026-05-03T09:23:04.003Z</time></trkpt><trkpt lat="44.2910508804028" lon="10.081519249873763"><ele>343.6</ele><time>2026-05-03T09:23:05.003Z</time></trkpt><trkpt lat="44.29114029476259" lon="10.081408911178839"><ele>342.8</ele><time>2026-05-03T09:23:06.003Z</time></trkpt><trkpt lat="44.291221685326725" lon="10.081304004945673"><ele>342.0</ele><time>2026-05-03T09:23:07.003Z</time></trkpt><trkpt lat="44.291302823649936" lon="10.081215113640397"><ele>342.0</ele><time>2026-05-03T09:23:08.003Z</time></trkpt><trkpt lat="44.2913702381565" lon="10.081118985777522"><ele>342.0</ele><time>2026-05-03T09:23:09.003Z</time></trkpt><trkpt lat="44.29141491996584" lon="10.080989780714898"><ele>342.0</ele><time>2026-05-03T09:23:10.003Z</time></trkpt><trkpt lat="44.29143500371029" lon="10.080835985522228"><ele>342.0</ele><time>2026-05-03T09:23:11.003Z</time></trkpt><trkpt lat="44.291445309331074" lon="10.080682506488541"><ele>342.0</ele><time>2026-05-03T09:23:12.003Z</time></trkpt><trkpt lat="44.29145122030616" lon="10.08054211028497"><ele>342.1666666666667</ele><time>2026-05-03T09:23:13.003Z</time></trkpt><trkpt lat="44.291473739952856" lon="10.080442414880494"><ele>342.3333333333333</ele><time>2026-05-03T09:23:14.003Z</time></trkpt><trkpt lat="44.291522277999185" lon="10.080375665689537"><ele>342.5</ele><time>2026-05-03T09:23:15.003Z</time></trkpt><trkpt lat="44.2915977540622" lon="10.080318877285947"><ele>342.66666666666663</ele><time>2026-05-03T09:23:16.003Z</time></trkpt><trkpt lat="44.291681714978836" lon="10.080244983325793"><ele>342.8333333333333</ele><time>2026-05-03T09:23:17.003Z</time></trkpt><trkpt lat="44.29174413095914" lon="10.080173028303808"><ele>343.0</ele><time>2026-05-03T09:23:18.003Z</time></trkpt><trkpt lat="44.29177218539808" lon="10.08009306967417"><ele>343.0</ele><time>2026-05-03T09:23:20.003Z</time></trkpt><trkpt lat="44.291732444848925" lon="10.080016481451777"><ele>343.0</ele><time>2026-05-03T09:23:22.003Z</time></trkpt><trkpt lat="44.29167268310079" lon="10.07998681736248"><ele>343.0</ele><time>2026-05-03T09:23:23.003Z</time></trkpt><trkpt lat="44.29159299345084" lon="10.079981649034789"><ele>343.0</ele><time>2026-05-03T09:23:24.003Z</time></trkpt><trkpt lat="44.29149625389521" lon="10.079982764485132"><ele>343.0</ele><time>2026-05-03T09:23:25.003Z</time></trkpt><trkpt lat="44.2913839402737" lon="10.07997566767987"><ele>343.0</ele><time>2026-05-03T09:23:26.003Z</time></trkpt><trkpt lat="44.29125518627306" lon="10.079956920617938"><ele>341.75</ele><time>2026-05-03T09:23:27.003Z</time></trkpt><trkpt lat="44.29112366986138" lon="10.079941719344673"><ele>340.5</ele><time>2026-05-03T09:23:28.003Z</time></trkpt><trkpt lat="44.29099991513445" lon="10.079927790899713"><ele>339.25</ele><time>2026-05-03T09:23:29.003Z</time></trkpt><trkpt lat="44.29088902911872" lon="10.079917335028133"><ele>338.0</ele><time>2026-05-03T09:23:30.003Z</time></trkpt><trkpt lat="44.29079835114397" lon="10.079900481066279"><ele>336.4</ele><time>2026-05-03T09:23:31.003Z</time></trkpt><trkpt lat="44.29069993059729" lon="10.079843164981618"><ele>334.79999999999995</ele><time>2026-05-03T09:23:33.003Z</time></trkpt><trkpt lat="44.290707598417384" lon="10.079666751280934"><ele>333.2</ele><time>2026-05-03T09:23:35.003Z</time></trkpt><trkpt lat="44.29074612965229" lon="10.079558829010038"><ele>331.6</ele><time>2026-05-03T09:23:36.003Z</time></trkpt><trkpt lat="44.29080128803761" lon="10.079477122943207"><ele>330.0</ele><time>2026-05-03T09:23:37.003Z</time></trkpt><trkpt lat="44.29087304480736" lon="10.079427922769858"><ele>330.0</ele><time>2026-05-03T09:23:38.003Z</time></trkpt><trkpt lat="44.2909674993495" lon="10.079379196850821"><ele>330.0</ele><time>2026-05-03T09:23:39.003Z</time></trkpt><trkpt lat="44.291071493788266" lon="10.07932559679917"><ele>330.0</ele><time>2026-05-03T09:23:40.003Z</time></trkpt><trkpt lat="44.29117971300733" lon="10.079257934248185"><ele>330.0</ele><time>2026-05-03T09:23:41.004Z</time></trkpt><trkpt lat="44.29129609126362" lon="10.079186346888731"><ele>330.0</ele><time>2026-05-03T09:23:42.004Z</time></trkpt><trkpt lat="44.291421318743794" lon="10.079119519007993"><ele>330.0</ele><time>2026-05-03T09:23:43.004Z</time></trkpt><trkpt lat="44.29154336184827" lon="10.079057554876014"><ele>330.0</ele><time>2026-05-03T09:23:44.004Z</time></trkpt><trkpt lat="44.29166747297896" lon="10.078999024983485"><ele>330.0</ele><time>2026-05-03T09:23:45.004Z</time></trkpt><trkpt lat="44.29178172405464" lon="10.07892849720075"><ele>328.1666666666667</ele><time>2026-05-03T09:23:46.004Z</time></trkpt><trkpt lat="44.29188424279869" lon="10.078841307239347"><ele>326.3333333333333</ele><time>2026-05-03T09:23:47.004Z</time></trkpt><trkpt lat="44.291969656485485" lon="10.078778893274295"><ele>324.5</ele><time>2026-05-03T09:23:48.004Z</time></trkpt><trkpt lat="44.29204788501619" lon="10.078737319931733"><ele>322.66666666666663</ele><time>2026-05-03T09:23:49.004Z</time></trkpt><trkpt lat="44.29211430758771" lon="10.07869175584104"><ele>320.8333333333333</ele><time>2026-05-03T09:23:50.004Z</time></trkpt><trkpt lat="44.29217196145831" lon="10.078649453465868"><ele>319.0</ele><time>2026-05-03T09:23:51.004Z</time></trkpt><trkpt lat="44.29218900525468" lon="10.078516167971237"><ele>319.0</ele><time>2026-05-03T09:23:53.004Z</time></trkpt><trkpt lat="44.29215124111599" lon="10.078444603845163"><ele>319.0</ele><time>2026-05-03T09:23:54.004Z</time></trkpt><trkpt lat="44.292105354262524" lon="10.078361703834375"><ele>319.0</ele><time>2026-05-03T09:23:55.004Z</time></trkpt><trkpt lat="44.292055989627436" lon="10.078268497086347"><ele>319.0</ele><time>2026-05-03T09:23:56.004Z</time></trkpt><trkpt lat="44.29200351833905" lon="10.078180762287156"><ele>319.0</ele><time>2026-05-03T09:23:57.004Z</time></trkpt><trkpt lat="44.29190378505737" lon="10.078087429251747"><ele>319.0</ele><time>2026-05-03T09:23:59.004Z</time></trkpt><trkpt lat="44.29183488482099" lon="10.07808805963115"><ele>320.8333333333333</ele><time>2026-05-03T09:24:00.004Z</time></trkpt><trkpt lat="44.29175640798654" lon="10.078128916042166"><ele>322.66666666666663</ele><time>2026-05-03T09:24:01.004Z</time></trkpt><trkpt lat="44.29167791984409" lon="10.078148799029975"><ele>324.5</ele><time>2026-05-03T09:24:02.004Z</time></trkpt><trkpt lat="44.29161459506746" lon="10.078170999877871"><ele>326.3333333333333</ele><time>2026-05-03T09:24:03.004Z</time></trkpt><trkpt lat="44.29152466377201" lon="10.07814882564723"><ele>328.1666666666667</ele><time>2026-05-03T09:24:05.004Z</time></trkpt><trkpt lat="44.291534812261354" lon="10.078058542134366"><ele>330.0</ele><time>2026-05-03T09:24:08.004Z</time></trkpt><trkpt lat="44.291609623484554" lon="10.078039641180922"><ele>330.0</ele><time>2026-05-03T09:24:10.004Z</time></trkpt><trkpt lat="44.291721069171906" lon="10.078071983143783"><ele>330.0</ele><time>2026-05-03T09:24:12.004Z</time></trkpt><trkpt lat="44.2917838089225" lon="10.078056465483613"><ele>330.0</ele><time>2026-05-03T09:24:13.004Z</time></trkpt><trkpt lat="44.29184527927578" lon="10.078008140463112"><ele>330.0</ele><time>2026-05-03T09:24:14.004Z</time></trkpt><trkpt lat="44.291931084833216" lon="10.077938036445783"><ele>330.0</ele><time>2026-05-03T09:24:15.004Z</time></trkpt><trkpt lat="44.29200794501472" lon="10.0778794854589"><ele>330.0</ele><time>2026-05-03T09:24:16.004Z</time></trkpt><trkpt lat="44.29208556693579" lon="10.077807890442427"><ele>330.0</ele><time>2026-05-03T09:24:17.004Z</time></trkpt><trkpt lat="44.29217312821157" lon="10.077741618807416"><ele>330.0</ele><time>2026-05-03T09:24:18.004Z</time></trkpt><trkpt lat="44.29225190795821" lon="10.077682135098827"><ele>330.0</ele><time>2026-05-03T09:24:19.004Z</time></trkpt><trkpt lat="44.29232951456915" lon="10.077594216767276"><ele>330.0</ele><time>2026-05-03T09:24:20.004Z</time></trkpt><trkpt lat="44.292400561308796" lon="10.077498714841466"><ele>330.0</ele><time>2026-05-03T09:24:21.004Z</time></trkpt><trkpt lat="44.29245738219707" lon="10.077393546657214"><ele>331.3333333333333</ele><time>2026-05-03T09:24:22.004Z</time></trkpt><trkpt lat="44.29250681673923" lon="10.077315450799974"><ele>332.6666666666667</ele><time>2026-05-03T09:24:23.004Z</time></trkpt><trkpt lat="44.29256708533614" lon="10.07720087815449"><ele>334.0</ele><time>2026-05-03T09:24:25.004Z</time></trkpt><trkpt lat="44.2925485937884" lon="10.07710058803565"><ele>335.33333333333337</ele><time>2026-05-03T09:24:27.004Z</time></trkpt><trkpt lat="44.292470913842116" lon="10.077091831347191"><ele>336.6666666666667</ele><time>2026-05-03T09:24:29.004Z</time></trkpt><trkpt lat="44.29239142651243" lon="10.077149454527184"><ele>338.0</ele><time>2026-05-03T09:24:31.004Z</time></trkpt><trkpt lat="44.29226916118371" lon="10.077220671060743"><ele>338.5</ele><time>2026-05-03T09:24:33.005Z</time></trkpt><trkpt lat="44.292176239906105" lon="10.077273631079409"><ele>339.0</ele><time>2026-05-03T09:24:34.005Z</time></trkpt><trkpt lat="44.292108187898435" lon="10.077298472166534"><ele>339.5</ele><time>2026-05-03T09:24:35.005Z</time></trkpt><trkpt lat="44.29203714880329" lon="10.077326758837202"><ele>340.0</ele><time>2026-05-03T09:24:36.005Z</time></trkpt><trkpt lat="44.29196200545584" lon="10.077362115679856"><ele>340.5</ele><time>2026-05-03T09:24:37.005Z</time></trkpt><trkpt lat="44.2918937825209" lon="10.077402289813078"><ele>341.0</ele><time>2026-05-03T09:24:38.005Z</time></trkpt><trkpt lat="44.291789735625954" lon="10.077466986469634"><ele>341.0</ele><time>2026-05-03T09:24:40.005Z</time></trkpt><trkpt lat="44.29171681638695" lon="10.077531480567073"><ele>341.0</ele><time>2026-05-03T09:24:42.005Z</time></trkpt><trkpt lat="44.29163858444363" lon="10.077526345652274"><ele>341.0</ele><time>2026-05-03T09:24:45.005Z</time></trkpt><trkpt lat="44.29166479233057" lon="10.077413140470947"><ele>341.0</ele><time>2026-05-03T09:24:55.005Z</time></trkpt><trkpt lat="44.29177165241392" lon="10.07736355209349"><ele>341.0</ele><time>2026-05-03T09:24:57.005Z</time></trkpt><trkpt lat="44.29185107781577" lon="10.077316077940552"><ele>341.0</ele><time>2026-05-03T09:24:58.005Z</time></trkpt><trkpt lat="44.29193695365918" lon="10.077266195120568"><ele>341.0</ele><time>2026-05-03T09:24:59.005Z</time></trkpt><trkpt lat="44.29205026840189" lon="10.077202283035742"><ele>341.0</ele><time>2026-05-03T09:25:00.005Z</time></trkpt><trkpt lat="44.29216508423817" lon="10.077127804900474"><ele>341.0</ele><time>2026-05-03T09:25:01.005Z</time></trkpt><trkpt lat="44.292290228057105" lon="10.077046164671707"><ele>341.0</ele><time>2026-05-03T09:25:02.005Z</time></trkpt><trkpt lat="44.29240831527082" lon="10.076941010548508"><ele>340.25</ele><time>2026-05-03T09:25:03.005Z</time></trkpt><trkpt lat="44.29252187153303" lon="10.07682827469856"><ele>339.5</ele><time>2026-05-03T09:25:04.005Z</time></trkpt><trkpt lat="44.2926349709021" lon="10.076709765622509"><ele>338.75</ele><time>2026-05-03T09:25:05.005Z</time></trkpt><trkpt lat="44.29273718051344" lon="10.076568496021276"><ele>338.0</ele><time>2026-05-03T09:25:06.005Z</time></trkpt><trkpt lat="44.292818462671036" lon="10.076399640410049"><ele>339.25</ele><time>2026-05-03T09:25:07.005Z</time></trkpt><trkpt lat="44.29289249283306" lon="10.07623026267292"><ele>340.5</ele><time>2026-05-03T09:25:08.005Z</time></trkpt><trkpt lat="44.292959015313116" lon="10.076064394376333"><ele>341.75</ele><time>2026-05-03T09:25:09.005Z</time></trkpt><trkpt lat="44.29302587085118" lon="10.075914069860863"><ele>343.0</ele><time>2026-05-03T09:25:10.005Z</time></trkpt><trkpt lat="44.293119151469924" lon="10.075793523868505"><ele>347.25</ele><time>2026-05-03T09:25:11.005Z</time></trkpt><trkpt lat="44.29323408860283" lon="10.075697497856556"><ele>351.5</ele><time>2026-05-03T09:25:12.005Z</time></trkpt><trkpt lat="44.293368218726464" lon="10.07563852182299"><ele>355.75</ele><time>2026-05-03T09:25:13.005Z</time></trkpt><trkpt lat="44.29351282955201" lon="10.075604032605595"><ele>360.0</ele><time>2026-05-03T09:25:14.005Z</time></trkpt><trkpt lat="44.29366939500223" lon="10.075585050128208"><ele>360.0</ele><time>2026-05-03T09:25:15.005Z</time></trkpt><trkpt lat="44.29383385250526" lon="10.075569668853472"><ele>360.0</ele><time>2026-05-03T09:25:16.005Z</time></trkpt><trkpt lat="44.29401142719808" lon="10.075576697192046"><ele>360.0</ele><time>2026-05-03T09:25:17.005Z</time></trkpt><trkpt lat="44.294190865154874" lon="10.075593893690128"><ele>362.0</ele><time>2026-05-03T09:25:18.005Z</time></trkpt><trkpt lat="44.29434945452205" lon="10.075605421043628"><ele>364.0</ele><time>2026-05-03T09:25:19.005Z</time></trkpt><trkpt lat="44.294493494021395" lon="10.075592797348557"><ele>366.0</ele><time>2026-05-03T09:25:20.005Z</time></trkpt><trkpt lat="44.29463747568304" lon="10.075545267548112"><ele>367.25</ele><time>2026-05-03T09:25:21.005Z</time></trkpt><trkpt lat="44.29478140515416" lon="10.075478925777922"><ele>368.5</ele><time>2026-05-03T09:25:22.005Z</time></trkpt><trkpt lat="44.29491602366818" lon="10.075407406221371"><ele>369.75</ele><time>2026-05-03T09:25:23.006Z</time></trkpt><trkpt lat="44.29504849120242" lon="10.075329561447798"><ele>371.0</ele><time>2026-05-03T09:25:24.006Z</time></trkpt><trkpt lat="44.29518366470159" lon="10.075240839658345"><ele>371.0</ele><time>2026-05-03T09:25:25.006Z</time></trkpt><trkpt lat="44.29532124594427" lon="10.07515809015624"><ele>371.0</ele><time>2026-05-03T09:25:26.006Z</time></trkpt><trkpt lat="44.29545792895887" lon="10.07507932487462"><ele>371.0</ele><time>2026-05-03T09:25:27.006Z</time></trkpt><trkpt lat="44.295585241874925" lon="10.075003483093402"><ele>371.0</ele><time>2026-05-03T09:25:28.006Z</time></trkpt><trkpt lat="44.29571996841401" lon="10.074925854821705"><ele>375.25</ele><time>2026-05-03T09:25:29.006Z</time></trkpt><trkpt lat="44.29585166941199" lon="10.074858277522782"><ele>379.5</ele><time>2026-05-03T09:25:30.006Z</time></trkpt><trkpt lat="44.295980782656905" lon="10.074774210984662"><ele>383.75</ele><time>2026-05-03T09:25:31.006Z</time></trkpt><trkpt lat="44.29611028961377" lon="10.074667047108875"><ele>388.0</ele><time>2026-05-03T09:25:32.006Z</time></trkpt><trkpt lat="44.29623580787307" lon="10.074539784086575"><ele>388.0</ele><time>2026-05-03T09:25:33.006Z</time></trkpt><trkpt lat="44.296350346424155" lon="10.074406002262018"><ele>388.0</ele><time>2026-05-03T09:25:34.006Z</time></trkpt><trkpt lat="44.29645735863106" lon="10.074261274361664"><ele>388.0</ele><time>2026-05-03T09:25:35.006Z</time></trkpt><trkpt lat="44.2965620959817" lon="10.074112637240006"><ele>388.0</ele><time>2026-05-03T09:25:36.006Z</time></trkpt><trkpt lat="44.2966618220526" lon="10.073969196002869"><ele>388.75</ele><time>2026-05-03T09:25:37.006Z</time></trkpt><trkpt lat="44.296760365518" lon="10.073841853338415"><ele>389.5</ele><time>2026-05-03T09:25:38.006Z</time></trkpt><trkpt lat="44.29685771149037" lon="10.073733365756036"><ele>390.25</ele><time>2026-05-03T09:25:39.006Z</time></trkpt><trkpt lat="44.29694708597934" lon="10.07365587838767"><ele>391.0</ele><time>2026-05-03T09:25:40.006Z</time></trkpt><trkpt lat="44.297044863182585" lon="10.073612488882786"><ele>391.0</ele><time>2026-05-03T09:25:41.006Z</time></trkpt><trkpt lat="44.29715091652874" lon="10.073614320843202"><ele>391.0</ele><time>2026-05-03T09:25:42.006Z</time></trkpt><trkpt lat="44.297259923259375" lon="10.073654505802383"><ele>391.0</ele><time>2026-05-03T09:25:43.006Z</time></trkpt><trkpt lat="44.29736840146516" lon="10.073696539870916"><ele>391.0</ele><time>2026-05-03T09:25:44.006Z</time></trkpt><trkpt lat="44.29748000433193" lon="10.073718339989309"><ele>391.0</ele><time>2026-05-03T09:25:45.006Z</time></trkpt><trkpt lat="44.297589227581064" lon="10.073724933488545"><ele>387.25</ele><time>2026-05-03T09:25:46.006Z</time></trkpt><trkpt lat="44.297707285914086" lon="10.07373072257983"><ele>383.5</ele><time>2026-05-03T09:25:47.006Z</time></trkpt><trkpt lat="44.297821873768825" lon="10.073734045383851"><ele>379.75</ele><time>2026-05-03T09:25:48.006Z</time></trkpt><trkpt lat="44.29793980649394" lon="10.073731314342158"><ele>376.0</ele><time>2026-05-03T09:25:49.006Z</time></trkpt><trkpt lat="44.29805608359861" lon="10.073700171927728"><ele>376.0</ele><time>2026-05-03T09:25:50.006Z</time></trkpt><trkpt lat="44.298162796338616" lon="10.073625264947312"><ele>376.0</ele><time>2026-05-03T09:25:51.006Z</time></trkpt><trkpt lat="44.298253520782595" lon="10.073539017408335"><ele>376.0</ele><time>2026-05-03T09:25:52.006Z</time></trkpt><trkpt lat="44.29833042873119" lon="10.073475086465509"><ele>376.0</ele><time>2026-05-03T09:25:53.006Z</time></trkpt><trkpt lat="44.29841163875755" lon="10.07343784403852"><ele>376.0</ele><time>2026-05-03T09:25:54.006Z</time></trkpt><trkpt lat="44.298496132291504" lon="10.073421575591338"><ele>376.0</ele><time>2026-05-03T09:25:55.006Z</time></trkpt><trkpt lat="44.29856874772908" lon="10.073391414864377"><ele>376.0</ele><time>2026-05-03T09:25:56.006Z</time></trkpt><trkpt lat="44.29862071748842" lon="10.073329901103293"><ele>376.0</ele><time>2026-05-03T09:25:57.006Z</time></trkpt><trkpt lat="44.298643222307106" lon="10.073239893355014"><ele>376.0</ele><time>2026-05-03T09:25:58.006Z</time></trkpt><trkpt lat="44.298638612916854" lon="10.07314319525035"><ele>376.0</ele><time>2026-05-03T09:25:59.006Z</time></trkpt><trkpt lat="44.29861246500225" lon="10.073059846668937"><ele>376.0</ele><time>2026-05-03T09:26:00.006Z</time></trkpt><trkpt lat="44.29858160641508" lon="10.072957556915757"><ele>376.0</ele><time>2026-05-03T09:26:02.006Z</time></trkpt><trkpt lat="44.29860165777706" lon="10.072820839205262"><ele>377.7142857142857</ele><time>2026-05-03T09:26:04.006Z</time></trkpt><trkpt lat="44.29864583289988" lon="10.07274345814629"><ele>379.42857142857144</ele><time>2026-05-03T09:26:05.006Z</time></trkpt><trkpt lat="44.29870868473561" lon="10.072699774096352"><ele>381.1428571428571</ele><time>2026-05-03T09:26:06.006Z</time></trkpt><trkpt lat="44.29877692857744" lon="10.072703509753541"><ele>382.8571428571429</ele><time>2026-05-03T09:26:07.006Z</time></trkpt><trkpt lat="44.298842214726726" lon="10.072754940495775"><ele>384.5714285714286</ele><time>2026-05-03T09:26:08.006Z</time></trkpt><trkpt lat="44.298906899209555" lon="10.072794806096619"><ele>386.2857142857143</ele><time>2026-05-03T09:26:09.006Z</time></trkpt><trkpt lat="44.29898027161586" lon="10.072789592163174"><ele>388.0</ele><time>2026-05-03T09:26:10.006Z</time></trkpt><trkpt lat="44.2990514713999" lon="10.072759524795938"><ele>388.0</ele><time>2026-05-03T09:26:11.006Z</time></trkpt><trkpt lat="44.299118095307215" lon="10.0726977962486"><ele>388.0</ele><time>2026-05-03T09:26:12.006Z</time></trkpt><trkpt lat="44.29918007630333" lon="10.072614709200844"><ele>388.0</ele><time>2026-05-03T09:26:13.006Z</time></trkpt><trkpt lat="44.29924113124906" lon="10.072512319310498"><ele>388.0</ele><time>2026-05-03T09:26:14.007Z</time></trkpt><trkpt lat="44.29930390830278" lon="10.072399262317735"><ele>388.0</ele><time>2026-05-03T09:26:15.007Z</time></trkpt><trkpt lat="44.29937293264602" lon="10.07228633008018"><ele>392.1666666666667</ele><time>2026-05-03T09:26:16.007Z</time></trkpt><trkpt lat="44.2994341042477" lon="10.072197601911952"><ele>396.33333333333337</ele><time>2026-05-03T09:26:17.007Z</time></trkpt><trkpt lat="44.29948191357372" lon="10.072124147913"><ele>400.5</ele><time>2026-05-03T09:26:18.007Z</time></trkpt><trkpt lat="44.29958207091817" lon="10.072039067850591"><ele>404.66666666666663</ele><time>2026-05-03T09:26:20.007Z</time></trkpt><trkpt lat="44.299648744823486" lon="10.072035497855907"><ele>408.8333333333333</ele><time>2026-05-03T09:26:21.007Z</time></trkpt><trkpt lat="44.299737583499414" lon="10.072057455391539"><ele>413.0</ele><time>2026-05-03T09:26:22.007Z</time></trkpt><trkpt lat="44.29983017491286" lon="10.072084035863881"><ele>413.4</ele><time>2026-05-03T09:26:23.007Z</time></trkpt><trkpt lat="44.299913447746995" lon="10.07211344642854"><ele>413.79999999999995</ele><time>2026-05-03T09:26:24.007Z</time></trkpt><trkpt lat="44.29998903859551" lon="10.072181520955402"><ele>414.2</ele><time>2026-05-03T09:26:25.007Z</time></trkpt><trkpt lat="44.300064608521744" lon="10.07226918312942"><ele>414.6</ele><time>2026-05-03T09:26:26.007Z</time></trkpt><trkpt lat="44.30013099648064" lon="10.072367472242373"><ele>415.0</ele><time>2026-05-03T09:26:27.007Z</time></trkpt><trkpt lat="44.300184944142394" lon="10.072473067840031"><ele>409.8</ele><time>2026-05-03T09:26:28.007Z</time></trkpt><trkpt lat="44.300237223744034" lon="10.072581555135587"><ele>404.6</ele><time>2026-05-03T09:26:29.007Z</time></trkpt><trkpt lat="44.30027280336679" lon="10.072704281705851"><ele>399.4</ele><time>2026-05-03T09:26:30.007Z</time></trkpt><trkpt lat="44.30029762438341" lon="10.072833770190142"><ele>394.2</ele><time>2026-05-03T09:26:31.007Z</time></trkpt><trkpt lat="44.300308475599984" lon="10.072982820060307"><ele>389.0</ele><time>2026-05-03T09:26:32.007Z</time></trkpt><trkpt lat="44.30030900145766" lon="10.07314251245501"><ele>388.4</ele><time>2026-05-03T09:26:33.007Z</time></trkpt><trkpt lat="44.300315639873006" lon="10.073281789248748"><ele>387.79999999999995</ele><time>2026-05-03T09:26:34.007Z</time></trkpt><trkpt lat="44.30032812812779" lon="10.073416079999264"><ele>387.20000000000005</ele><time>2026-05-03T09:26:35.007Z</time></trkpt><trkpt lat="44.300356633974395" lon="10.073541981364286"><ele>386.6</ele><time>2026-05-03T09:26:36.007Z</time></trkpt><trkpt lat="44.30042330927383" lon="10.07365419174827"><ele>386.0</ele><time>2026-05-03T09:26:37.007Z</time></trkpt><trkpt lat="44.300513233037464" lon="10.073748484844256"><ele>387.5</ele><time>2026-05-03T09:26:38.007Z</time></trkpt><trkpt lat="44.3006048447703" lon="10.07383856981378"><ele>389.0</ele><time>2026-05-03T09:26:39.007Z</time></trkpt><trkpt lat="44.300702451199506" lon="10.07392410914594"><ele>390.5</ele><time>2026-05-03T09:26:40.007Z</time></trkpt><trkpt lat="44.30080019735766" lon="10.074018805615497"><ele>392.0</ele><time>2026-05-03T09:26:41.007Z</time></trkpt><trkpt lat="44.30090295346473" lon="10.074117519102723"><ele>392.0</ele><time>2026-05-03T09:26:42.007Z</time></trkpt><trkpt lat="44.301009096725544" lon="10.074219216520094"><ele>392.0</ele><time>2026-05-03T09:26:43.007Z</time></trkpt><trkpt lat="44.301115156183236" lon="10.074316027222254"><ele>392.0</ele><time>2026-05-03T09:26:44.007Z</time></trkpt><trkpt lat="44.301211722521465" lon="10.074404844041792"><ele>392.0</ele><time>2026-05-03T09:26:45.007Z</time></trkpt><trkpt lat="44.30130851190627" lon="10.074501363762105"><ele>392.0</ele><time>2026-05-03T09:26:46.007Z</time></trkpt><trkpt lat="44.30139923229832" lon="10.074586900491186"><ele>392.0</ele><time>2026-05-03T09:26:47.007Z</time></trkpt><trkpt lat="44.301487433834325" lon="10.074671098989297"><ele>392.0</ele><time>2026-05-03T09:26:48.007Z</time></trkpt><trkpt lat="44.30158118798005" lon="10.074760140491577"><ele>392.0</ele><time>2026-05-03T09:26:49.007Z</time></trkpt><trkpt lat="44.301681852955326" lon="10.074859983731045"><ele>395.5</ele><time>2026-05-03T09:26:50.007Z</time></trkpt><trkpt lat="44.30178834932668" lon="10.074962885838865"><ele>399.0</ele><time>2026-05-03T09:26:51.007Z</time></trkpt><trkpt lat="44.30190360865981" lon="10.075069191648828"><ele>402.5</ele><time>2026-05-03T09:26:52.007Z</time></trkpt><trkpt lat="44.30202281652661" lon="10.075184913811492"><ele>406.0</ele><time>2026-05-03T09:26:53.007Z</time></trkpt><trkpt lat="44.30214627203765" lon="10.075304431762582"><ele>406.5</ele><time>2026-05-03T09:26:54.007Z</time></trkpt><trkpt lat="44.302270119249705" lon="10.075428658727065"><ele>407.0</ele><time>2026-05-03T09:26:55.007Z</time></trkpt><trkpt lat="44.302396650943265" lon="10.075541481306445"><ele>407.5</ele><time>2026-05-03T09:26:56.007Z</time></trkpt><trkpt lat="44.30251018001075" lon="10.075656003121386"><ele>408.0</ele><time>2026-05-03T09:26:57.007Z</time></trkpt><trkpt lat="44.302622095970314" lon="10.07577150855709"><ele>408.0</ele><time>2026-05-03T09:26:58.007Z</time></trkpt><trkpt lat="44.30273583913429" lon="10.075888153318536"><ele>408.0</ele><time>2026-05-03T09:26:59.007Z</time></trkpt><trkpt lat="44.30283702627861" lon="10.076003337328254"><ele>408.0</ele><time>2026-05-03T09:27:00.007Z</time></trkpt><trkpt lat="44.302930946852705" lon="10.076105337310862"><ele>408.0</ele><time>2026-05-03T09:27:01.007Z</time></trkpt><trkpt lat="44.30302336754134" lon="10.07620354139728"><ele>410.75</ele><time>2026-05-03T09:27:02.007Z</time></trkpt><trkpt lat="44.303116103958104" lon="10.076308234429554"><ele>413.5</ele><time>2026-05-03T09:27:03.007Z</time></trkpt><trkpt lat="44.30321169210344" lon="10.07641030114076"><ele>416.25</ele><time>2026-05-03T09:27:04.007Z</time></trkpt><trkpt lat="44.30330380890438" lon="10.076507182644137"><ele>419.0</ele><time>2026-05-03T09:27:05.008Z</time></trkpt><trkpt lat="44.30338440478199" lon="10.076593743765613"><ele>419.0</ele><time>2026-05-03T09:27:06.008Z</time></trkpt><trkpt lat="44.303452971759675" lon="10.076664958450886"><ele>419.0</ele><time>2026-05-03T09:27:07.008Z</time></trkpt><trkpt lat="44.30350809095804" lon="10.076724975387805"><ele>419.0</ele><time>2026-05-03T09:27:08.008Z</time></trkpt><trkpt lat="44.30359500882008" lon="10.076805639821629"><ele>419.0</ele><time>2026-05-03T09:27:10.008Z</time></trkpt><trkpt lat="44.30365615845061" lon="10.076756892793806"><ele>419.0</ele><time>2026-05-03T09:27:12.008Z</time></trkpt><trkpt lat="44.303717403146116" lon="10.076591124753415"><ele>419.0</ele><time>2026-05-03T09:27:14.008Z</time></trkpt><trkpt lat="44.303768678229005" lon="10.076478413177922"><ele>419.0</ele><time>2026-05-03T09:27:15.008Z</time></trkpt><trkpt lat="44.30381722105934" lon="10.0763545044943"><ele>419.0</ele><time>2026-05-03T09:27:16.008Z</time></trkpt><trkpt lat="44.30386144752169" lon="10.07622737315426"><ele>419.0</ele><time>2026-05-03T09:27:17.008Z</time></trkpt><trkpt lat="44.30389992487216" lon="10.076121723479984"><ele>419.0</ele><time>2026-05-03T09:27:18.008Z</time></trkpt><trkpt lat="44.30393634730386" lon="10.076042212742001"><ele>421.66666666666663</ele><time>2026-05-03T09:27:19.008Z</time></trkpt><trkpt lat="44.304040019684265" lon="10.07597798246341"><ele>424.3333333333333</ele><time>2026-05-03T09:27:21.008Z</time></trkpt><trkpt lat="44.304118198365025" lon="10.075994233136196"><ele>427.0</ele><time>2026-05-03T09:27:22.008Z</time></trkpt><trkpt lat="44.30419044421562" lon="10.076042047141543"><ele>429.66666666666663</ele><time>2026-05-03T09:27:23.008Z</time></trkpt><trkpt lat="44.304266237005166" lon="10.076102464948109"><ele>432.3333333333333</ele><time>2026-05-03T09:27:24.008Z</time></trkpt><trkpt lat="44.30433644376734" lon="10.076162501274784"><ele>435.0</ele><time>2026-05-03T09:27:25.008Z</time></trkpt><trkpt lat="44.30442237665435" lon="10.076220702028719"><ele>435.0</ele><time>2026-05-03T09:27:26.008Z</time></trkpt><trkpt lat="44.304517140277525" lon="10.076290915142621"><ele>435.0</ele><time>2026-05-03T09:27:27.008Z</time></trkpt><trkpt lat="44.30461389056726" lon="10.076350567494131"><ele>435.0</ele><time>2026-05-03T09:27:28.008Z</time></trkpt><trkpt lat="44.30471037860863" lon="10.076412944003483"><ele>435.0</ele><time>2026-05-03T09:27:29.008Z</time></trkpt><trkpt lat="44.30480320078567" lon="10.076475880571392"><ele>435.0</ele><time>2026-05-03T09:27:30.008Z</time></trkpt><trkpt lat="44.3049039817645" lon="10.076534947750332"><ele>437.2</ele><time>2026-05-03T09:27:31.008Z</time></trkpt><trkpt lat="44.304997632232464" lon="10.076594985752848"><ele>439.4</ele><time>2026-05-03T09:27:32.008Z</time></trkpt><trkpt lat="44.30509548602421" lon="10.07663585362412"><ele>441.6</ele><time>2026-05-03T09:27:33.008Z</time></trkpt><trkpt lat="44.30519859299316" lon="10.076668610795702"><ele>443.8</ele><time>2026-05-03T09:27:34.008Z</time></trkpt><trkpt lat="44.30529831844387" lon="10.076698680326725"><ele>446.0</ele><time>2026-05-03T09:27:35.008Z</time></trkpt><trkpt lat="44.305385342135445" lon="10.076721115966231"><ele>445.99999999999994</ele><time>2026-05-03T09:27:36.008Z</time></trkpt><trkpt lat="44.30546612899527" lon="10.0767350033879"><ele>446.0</ele><time>2026-05-03T09:27:37.008Z</time></trkpt><trkpt lat="44.30553833898286" lon="10.076742682046635"><ele>446.0</ele><time>2026-05-03T09:27:38.008Z</time></trkpt><trkpt lat="44.30562708141606" lon="10.07671175754999"><ele>446.0</ele><time>2026-05-03T09:27:39.008Z</time></trkpt><trkpt lat="44.305721226823124" lon="10.076659068736621"><ele>445.99999999999994</ele><time>2026-05-03T09:27:40.008Z</time></trkpt><trkpt lat="44.30580732974441" lon="10.0766008097293"><ele>446.0</ele><time>2026-05-03T09:27:41.008Z</time></trkpt><trkpt lat="44.30590927050974" lon="10.076499309414265"><ele>446.25</ele><time>2026-05-03T09:27:42.008Z</time></trkpt><trkpt lat="44.30602817664078" lon="10.076448987029359"><ele>446.5</ele><time>2026-05-03T09:27:43.008Z</time></trkpt><trkpt lat="44.3061572993539" lon="10.076447603437089"><ele>446.75</ele><time>2026-05-03T09:27:44.008Z</time></trkpt><trkpt lat="44.306282934017815" lon="10.076422721509335"><ele>447.0</ele><time>2026-05-03T09:27:45.008Z</time></trkpt><trkpt lat="44.30640761018457" lon="10.076389369156338"><ele>448.5</ele><time>2026-05-03T09:27:46.008Z</time></trkpt><trkpt lat="44.30653923082652" lon="10.076328729184834"><ele>450.0</ele><time>2026-05-03T09:27:47.008Z</time></trkpt><trkpt lat="44.306682126185024" lon="10.076227015246992"><ele>451.5</ele><time>2026-05-03T09:27:48.008Z</time></trkpt><trkpt lat="44.30681179926909" lon="10.076161404526063"><ele>453.0</ele><time>2026-05-03T09:27:49.008Z</time></trkpt><trkpt lat="44.30693764754648" lon="10.076093383753314"><ele>453.0</ele><time>2026-05-03T09:27:50.008Z</time></trkpt><trkpt lat="44.30705645302461" lon="10.076038887889297"><ele>452.99999999999994</ele><time>2026-05-03T09:27:51.008Z</time></trkpt><trkpt lat="44.30715699150833" lon="10.075997434983202"><ele>452.99999999999994</ele><time>2026-05-03T09:27:52.008Z</time></trkpt><trkpt lat="44.307246456137364" lon="10.075957790908681"><ele>453.0</ele><time>2026-05-03T09:27:53.008Z</time></trkpt><trkpt lat="44.30733072140001" lon="10.075902277673698"><ele>453.0</ele><time>2026-05-03T09:27:54.008Z</time></trkpt><trkpt lat="44.30740550233657" lon="10.075816565601052"><ele>456.59999999999997</ele><time>2026-05-03T09:27:55.008Z</time></trkpt><trkpt lat="44.307481630960034" lon="10.075714488114865"><ele>460.19999999999993</ele><time>2026-05-03T09:27:56.009Z</time></trkpt><trkpt lat="44.30754816159867" lon="10.075614436656204"><ele>463.8</ele><time>2026-05-03T09:27:57.009Z</time></trkpt><trkpt lat="44.30760198616284" lon="10.075525346903744"><ele>467.4</ele><time>2026-05-03T09:27:58.009Z</time></trkpt><trkpt lat="44.307646482804216" lon="10.075454103855257"><ele>471.0</ele><time>2026-05-03T09:27:59.009Z</time></trkpt><trkpt lat="44.30775507450188" lon="10.075394871996915"><ele>471.0</ele><time>2026-05-03T09:28:01.009Z</time></trkpt><trkpt lat="44.30781653126216" lon="10.075421352442813"><ele>471.0</ele><time>2026-05-03T09:28:02.009Z</time></trkpt><trkpt lat="44.30787042624145" lon="10.075472513813365"><ele>471.0</ele><time>2026-05-03T09:28:03.009Z</time></trkpt><trkpt lat="44.30789238491291" lon="10.075605871579782"><ele>471.0</ele><time>2026-05-03T09:28:05.009Z</time></trkpt><trkpt lat="44.30784360610994" lon="10.075741729087959"><ele>471.0</ele><time>2026-05-03T09:28:07.009Z</time></trkpt><trkpt lat="44.30781132217395" lon="10.075907932636717"><ele>469.6</ele><time>2026-05-03T09:28:09.009Z</time></trkpt><trkpt lat="44.307839656564745" lon="10.076053701587314"><ele>468.20000000000005</ele><time>2026-05-03T09:28:11.009Z</time></trkpt><trkpt lat="44.30792410103619" lon="10.076118213027248"><ele>466.79999999999995</ele><time>2026-05-03T09:28:13.009Z</time></trkpt><trkpt lat="44.30805162180432" lon="10.07615356600298"><ele>465.4</ele><time>2026-05-03T09:28:15.009Z</time></trkpt><trkpt lat="44.308131693598945" lon="10.076163419947362"><ele>464.0</ele><time>2026-05-03T09:28:16.009Z</time></trkpt><trkpt lat="44.308219595632046" lon="10.076140503300474"><ele>463.99999999999994</ele><time>2026-05-03T09:28:17.009Z</time></trkpt><trkpt lat="44.30830240090341" lon="10.076125041132881"><ele>464.0</ele><time>2026-05-03T09:28:18.009Z</time></trkpt><trkpt lat="44.30838816798723" lon="10.076129629246607"><ele>464.0</ele><time>2026-05-03T09:28:19.009Z</time></trkpt><trkpt lat="44.30846097234448" lon="10.076158219663045"><ele>464.0</ele><time>2026-05-03T09:28:20.009Z</time></trkpt><trkpt lat="44.30853877173879" lon="10.076181777156995"><ele>463.99999999999994</ele><time>2026-05-03T09:28:21.009Z</time></trkpt><trkpt lat="44.30863144863427" lon="10.076186738714734"><ele>464.0</ele><time>2026-05-03T09:28:22.009Z</time></trkpt><trkpt lat="44.3087250212867" lon="10.07617409694849"><ele>464.0</ele><time>2026-05-03T09:28:23.009Z</time></trkpt><trkpt lat="44.308820289537124" lon="10.076156424710245"><ele>464.0</ele><time>2026-05-03T09:28:24.009Z</time></trkpt><trkpt lat="44.308914478862135" lon="10.076145648540985"><ele>464.0</ele><time>2026-05-03T09:28:25.009Z</time></trkpt><trkpt lat="44.309006747783855" lon="10.07616469044966"><ele>464.0</ele><time>2026-05-03T09:28:26.009Z</time></trkpt><trkpt lat="44.309108200992405" lon="10.076187406903871"><ele>464.0</ele><time>2026-05-03T09:28:27.009Z</time></trkpt><trkpt lat="44.30919808288652" lon="10.076210419626397"><ele>468.79999999999995</ele><time>2026-05-03T09:28:28.009Z</time></trkpt><trkpt lat="44.30928971538379" lon="10.076205191086007"><ele>473.59999999999997</ele><time>2026-05-03T09:28:29.009Z</time></trkpt><trkpt lat="44.30937041373157" lon="10.076184179623475"><ele>478.4</ele><time>2026-05-03T09:28:30.009Z</time></trkpt><trkpt lat="44.309445866451256" lon="10.076154902166666"><ele>483.2</ele><time>2026-05-03T09:28:31.009Z</time></trkpt><trkpt lat="44.309531317860355" lon="10.07611722800611"><ele>488.0</ele><time>2026-05-03T09:28:32.009Z</time></trkpt><trkpt lat="44.309635559632255" lon="10.076071675620899"><ele>488.0</ele><time>2026-05-03T09:28:33.009Z</time></trkpt><trkpt lat="44.309734445400096" lon="10.07601897121933"><ele>487.99999999999994</ele><time>2026-05-03T09:28:34.009Z</time></trkpt><trkpt lat="44.309831442564125" lon="10.075978410412144"><ele>487.99999999999994</ele><time>2026-05-03T09:28:35.009Z</time></trkpt><trkpt lat="44.30993522791639" lon="10.075956041762048"><ele>488.0</ele><time>2026-05-03T09:28:36.009Z</time></trkpt><trkpt lat="44.31002825830481" lon="10.075936310095878"><ele>488.0</ele><time>2026-05-03T09:28:37.009Z</time></trkpt><trkpt lat="44.310128880332734" lon="10.075941740510034"><ele>489.59999999999997</ele><time>2026-05-03T09:28:38.009Z</time></trkpt><trkpt lat="44.31021474045593" lon="10.075959629380774"><ele>491.19999999999993</ele><time>2026-05-03T09:28:39.009Z</time></trkpt><trkpt lat="44.310316372999445" lon="10.075981859238679"><ele>492.8</ele><time>2026-05-03T09:28:40.009Z</time></trkpt><trkpt lat="44.31042797138201" lon="10.07601227003146"><ele>494.4</ele><time>2026-05-03T09:28:41.009Z</time></trkpt><trkpt lat="44.31054383196415" lon="10.076085755565458"><ele>496.0</ele><time>2026-05-03T09:28:42.009Z</time></trkpt><trkpt lat="44.31069328236105" lon="10.07613814208978"><ele>496.75</ele><time>2026-05-03T09:28:43.009Z</time></trkpt><trkpt lat="44.31086927449739" lon="10.076161641054096"><ele>497.5</ele><time>2026-05-03T09:28:44.009Z</time></trkpt><trkpt lat="44.311013690496715" lon="10.076191410768859"><ele>498.25</ele><time>2026-05-03T09:28:45.009Z</time></trkpt><trkpt lat="44.31112690250536" lon="10.0762216462345"><ele>499.0</ele><time>2026-05-03T09:28:46.009Z</time></trkpt><trkpt lat="44.31121233574658" lon="10.07624828540164"><ele>499.0</ele><time>2026-05-03T09:28:47.01Z</time></trkpt><trkpt lat="44.31129191619861" lon="10.076267506327023"><ele>499.0</ele><time>2026-05-03T09:28:48.01Z</time></trkpt><trkpt lat="44.31140181152711" lon="10.076248087913223"><ele>499.0</ele><time>2026-05-03T09:28:50.01Z</time></trkpt><trkpt lat="44.311440191548535" lon="10.076121911120465"><ele>499.0</ele><time>2026-05-03T09:28:52.01Z</time></trkpt><trkpt lat="44.31135735593818" lon="10.076024858760743"><ele>499.0</ele><time>2026-05-03T09:28:54.01Z</time></trkpt><trkpt lat="44.31128980692414" lon="10.075978618279668"><ele>499.0</ele><time>2026-05-03T09:28:55.01Z</time></trkpt><trkpt lat="44.31118021877467" lon="10.075914928165943"><ele>499.0</ele><time>2026-05-03T09:28:56.01Z</time></trkpt><trkpt lat="44.31108282624523" lon="10.075834522979095"><ele>499.0</ele><time>2026-05-03T09:28:57.01Z</time></trkpt><trkpt lat="44.31099402707725" lon="10.075748292389639"><ele>499.0</ele><time>2026-05-03T09:28:58.01Z</time></trkpt><trkpt lat="44.31090539666108" lon="10.075699372488577"><ele>499.0</ele><time>2026-05-03T09:28:59.01Z</time></trkpt><trkpt lat="44.310803604990305" lon="10.075676809387698"><ele>503.5</ele><time>2026-05-03T09:29:00.01Z</time></trkpt><trkpt lat="44.31069027380186" lon="10.075664292866982"><ele>508.0</ele><time>2026-05-03T09:29:01.01Z</time></trkpt><trkpt lat="44.3105796300535" lon="10.075655688992398"><ele>512.5</ele><time>2026-05-03T09:29:02.01Z</time></trkpt><trkpt lat="44.31045968426759" lon="10.075658449705896"><ele>517.0</ele><time>2026-05-03T09:29:03.01Z</time></trkpt><trkpt lat="44.31033794975619" lon="10.075639493956183"><ele>517.0</ele><time>2026-05-03T09:29:04.01Z</time></trkpt><trkpt lat="44.31021782212053" lon="10.075596428180484"><ele>517.0</ele><time>2026-05-03T09:29:05.01Z</time></trkpt><trkpt lat="44.310095883162305" lon="10.075543363806883"><ele>517.0</ele><time>2026-05-03T09:29:06.01Z</time></trkpt><trkpt lat="44.30997818235044" lon="10.075493995136322"><ele>517.0</ele><time>2026-05-03T09:29:07.01Z</time></trkpt><trkpt lat="44.309846333193626" lon="10.075492350663803"><ele>517.0</ele><time>2026-05-03T09:29:08.01Z</time></trkpt><trkpt lat="44.30974387040526" lon="10.0754753533862"><ele>517.0</ele><time>2026-05-03T09:29:09.01Z</time></trkpt><trkpt lat="44.309658007066446" lon="10.075476179014329"><ele>517.0</ele><time>2026-05-03T09:29:10.01Z</time></trkpt><trkpt lat="44.30958263390272" lon="10.07546955978409"><ele>517.0</ele><time>2026-05-03T09:29:11.01Z</time></trkpt><trkpt lat="44.309505456694446" lon="10.07540952958219"><ele>517.0</ele><time>2026-05-03T09:29:13.01Z</time></trkpt><trkpt lat="44.309498182633185" lon="10.075307432570883"><ele>517.0</ele><time>2026-05-03T09:29:15.01Z</time></trkpt><trkpt lat="44.30954913887973" lon="10.075199411831806"><ele>517.0</ele><time>2026-05-03T09:29:17.01Z</time></trkpt><trkpt lat="44.30967439336334" lon="10.075145994584759"><ele>517.0</ele><time>2026-05-03T09:29:19.01Z</time></trkpt><trkpt lat="44.309743704373744" lon="10.075172094218685"><ele>517.0</ele><time>2026-05-03T09:29:20.01Z</time></trkpt><trkpt lat="44.309821984704875" lon="10.075209825426247"><ele>517.0</ele><time>2026-05-03T09:29:21.01Z</time></trkpt><trkpt lat="44.30990532810666" lon="10.075239168930247"><ele>517.0</ele><time>2026-05-03T09:29:22.01Z</time></trkpt><trkpt lat="44.31000068005099" lon="10.075252628127577"><ele>517.0</ele><time>2026-05-03T09:29:23.01Z</time></trkpt><trkpt lat="44.31010095955903" lon="10.075257608749224"><ele>517.0</ele><time>2026-05-03T09:29:24.01Z</time></trkpt><trkpt lat="44.31022314410965" lon="10.075245621401143"><ele>517.0</ele><time>2026-05-03T09:29:25.01Z</time></trkpt><trkpt lat="44.31034151062244" lon="10.075250710018299"><ele>517.0</ele><time>2026-05-03T09:29:26.01Z</time></trkpt><trkpt lat="44.31045813302024" lon="10.075258935901884"><ele>517.0</ele><time>2026-05-03T09:29:27.01Z</time></trkpt><trkpt lat="44.31057185341498" lon="10.075290027118655"><ele>517.0</ele><time>2026-05-03T09:29:28.01Z</time></trkpt><trkpt lat="44.310680710117715" lon="10.075309228035023"><ele>517.0</ele><time>2026-05-03T09:29:29.01Z</time></trkpt><trkpt lat="44.31078013588085" lon="10.07532758393365"><ele>517.0</ele><time>2026-05-03T09:29:30.01Z</time></trkpt><trkpt lat="44.310868517631064" lon="10.075304990843055"><ele>517.0</ele><time>2026-05-03T09:29:31.01Z</time></trkpt><trkpt lat="44.3109611623911" lon="10.075258503964019"><ele>520.0</ele><time>2026-05-03T09:29:32.01Z</time></trkpt><trkpt lat="44.31105280038694" lon="10.075234540682283"><ele>523.0</ele><time>2026-05-03T09:29:33.01Z</time></trkpt><trkpt lat="44.31113804973709" lon="10.075239301974701"><ele>526.0</ele><time>2026-05-03T09:29:34.01Z</time></trkpt><trkpt lat="44.311229871303155" lon="10.075259936703024"><ele>529.0</ele><time>2026-05-03T09:29:35.01Z</time></trkpt><trkpt lat="44.31134214550666" lon="10.075303518637316"><ele>532.0</ele><time>2026-05-03T09:29:36.01Z</time></trkpt><trkpt lat="44.311445037271874" lon="10.075340116615108"><ele>533.6</ele><time>2026-05-03T09:29:37.01Z</time></trkpt><trkpt lat="44.311539106240545" lon="10.07535983072622"><ele>535.2</ele><time>2026-05-03T09:29:38.011Z</time></trkpt><trkpt lat="44.311627313621" lon="10.075356296986387"><ele>536.8</ele><time>2026-05-03T09:29:39.011Z</time></trkpt><trkpt lat="44.31172797039105" lon="10.075341990701657"><ele>538.4</ele><time>2026-05-03T09:29:40.011Z</time></trkpt><trkpt lat="44.311828053966174" lon="10.075299529917073"><ele>540.0</ele><time>2026-05-03T09:29:41.011Z</time></trkpt><trkpt lat="44.31191790876111" lon="10.07527590701249"><ele>540.0</ele><time>2026-05-03T09:29:42.011Z</time></trkpt><trkpt lat="44.311998601344094" lon="10.075263422807982"><ele>540.0</ele><time>2026-05-03T09:29:43.011Z</time></trkpt><trkpt lat="44.31209524693335" lon="10.075201394774343"><ele>540.0</ele><time>2026-05-03T09:29:45.011Z</time></trkpt><trkpt lat="44.31208766164947" lon="10.075064952592706"><ele>540.0</ele><time>2026-05-03T09:29:47.011Z</time></trkpt><trkpt lat="44.31202328134703" lon="10.075015893980467"><ele>540.0</ele><time>2026-05-03T09:29:48.011Z</time></trkpt><trkpt lat="44.31194552003271" lon="10.07500639829042"><ele>540.0</ele><time>2026-05-03T09:29:49.011Z</time></trkpt><trkpt lat="44.31186830270059" lon="10.075035620919161"><ele>540.0</ele><time>2026-05-03T09:29:50.011Z</time></trkpt><trkpt lat="44.31178181306483" lon="10.075094506723666"><ele>540.0</ele><time>2026-05-03T09:29:51.011Z</time></trkpt><trkpt lat="44.31169484141705" lon="10.075124747838212"><ele>540.0</ele><time>2026-05-03T09:29:52.011Z</time></trkpt><trkpt lat="44.311610188720486" lon="10.075130948714028"><ele>540.0</ele><time>2026-05-03T09:29:53.011Z</time></trkpt><trkpt lat="44.311517648043036" lon="10.075127221462868"><ele>540.0</ele><time>2026-05-03T09:29:54.011Z</time></trkpt><trkpt lat="44.31139966089253" lon="10.075101770366736"><ele>541.5</ele><time>2026-05-03T09:29:55.011Z</time></trkpt><trkpt lat="44.31127724287444" lon="10.075047159222308"><ele>543.0</ele><time>2026-05-03T09:29:56.011Z</time></trkpt><trkpt lat="44.3111459685619" lon="10.074979522878515"><ele>544.5</ele><time>2026-05-03T09:29:57.011Z</time></trkpt><trkpt lat="44.31100197732858" lon="10.074938361595175"><ele>546.0</ele><time>2026-05-03T09:29:58.011Z</time></trkpt><trkpt lat="44.310861764017865" lon="10.074901580845188"><ele>546.0</ele><time>2026-05-03T09:29:59.011Z</time></trkpt><trkpt lat="44.31074411175917" lon="10.074880736776496"><ele>546.0</ele><time>2026-05-03T09:30:00.011Z</time></trkpt><trkpt lat="44.31064705905339" lon="10.074859877195653"><ele>546.0</ele><time>2026-05-03T09:30:01.011Z</time></trkpt><trkpt lat="44.310566704661774" lon="10.074837930439074"><ele>546.0</ele><time>2026-05-03T09:30:02.011Z</time></trkpt><trkpt lat="44.31049486273041" lon="10.074787574398748"><ele>546.0</ele><time>2026-05-03T09:30:03.011Z</time></trkpt><trkpt lat="44.31045870733074" lon="10.074705556313035"><ele>546.0</ele><time>2026-05-03T09:30:04.011Z</time></trkpt><trkpt lat="44.31046782218191" lon="10.074599818039353"><ele>546.0</ele><time>2026-05-03T09:30:05.011Z</time></trkpt><trkpt lat="44.31050637864145" lon="10.07447737574126"><ele>546.0</ele><time>2026-05-03T09:30:06.011Z</time></trkpt><trkpt lat="44.31054485327434" lon="10.074328609423494"><ele>546.0</ele><time>2026-05-03T09:30:07.011Z</time></trkpt><trkpt lat="44.31058785558488" lon="10.074167170629197"><ele>546.0</ele><time>2026-05-03T09:30:08.011Z</time></trkpt><trkpt lat="44.310626320143925" lon="10.073986273028783"><ele>544.75</ele><time>2026-05-03T09:30:09.011Z</time></trkpt><trkpt lat="44.3106637750452" lon="10.073802653969093"><ele>543.5</ele><time>2026-05-03T09:30:10.011Z</time></trkpt><trkpt lat="44.31069713373276" lon="10.073593640184269"><ele>542.25</ele><time>2026-05-03T09:30:11.011Z</time></trkpt><trkpt lat="44.31072649786056" lon="10.073401300453925"><ele>541.0</ele><time>2026-05-03T09:30:12.011Z</time></trkpt><trkpt lat="44.31075486409846" lon="10.073242152723388"><ele>537.4</ele><time>2026-05-03T09:30:13.011Z</time></trkpt><trkpt lat="44.31078080299999" lon="10.073117531055694"><ele>533.8</ele><time>2026-05-03T09:30:14.011Z</time></trkpt><trkpt lat="44.310825839487784" lon="10.07302251352264"><ele>530.1999999999999</ele><time>2026-05-03T09:30:15.011Z</time></trkpt><trkpt lat="44.310897161051976" lon="10.072929740728966"><ele>526.6</ele><time>2026-05-03T09:30:16.011Z</time></trkpt><trkpt lat="44.31098237544574" lon="10.072829977105142"><ele>523.0</ele><time>2026-05-03T09:30:17.011Z</time></trkpt><trkpt lat="44.31106780250535" lon="10.072715542788494"><ele>523.0</ele><time>2026-05-03T09:30:18.011Z</time></trkpt><trkpt lat="44.3111549533627" lon="10.072613200849256"><ele>523.0</ele><time>2026-05-03T09:30:19.011Z</time></trkpt><trkpt lat="44.31122836432059" lon="10.072528004723575"><ele>523.0</ele><time>2026-05-03T09:30:20.011Z</time></trkpt><trkpt lat="44.31129774342979" lon="10.072454397056628"><ele>523.0</ele><time>2026-05-03T09:30:21.011Z</time></trkpt><trkpt lat="44.31137703687639" lon="10.07241898387843"><ele>523.0</ele><time>2026-05-03T09:30:22.011Z</time></trkpt><trkpt lat="44.31149093817423" lon="10.072393652445411"><ele>526.75</ele><time>2026-05-03T09:30:23.011Z</time></trkpt><trkpt lat="44.31160951561931" lon="10.072362354815324"><ele>530.5</ele><time>2026-05-03T09:30:24.011Z</time></trkpt><trkpt lat="44.31173119263915" lon="10.072300048901518"><ele>534.25</ele><time>2026-05-03T09:30:25.011Z</time></trkpt><trkpt lat="44.3118514282498" lon="10.072200163788432"><ele>538.0</ele><time>2026-05-03T09:30:26.011Z</time></trkpt><trkpt lat="44.31197736621822" lon="10.072107105880898"><ele>538.0</ele><time>2026-05-03T09:30:27.011Z</time></trkpt><trkpt lat="44.31209213531178" lon="10.072014998155725"><ele>538.0</ele><time>2026-05-03T09:30:28.011Z</time></trkpt><trkpt lat="44.31219763358177" lon="10.071920405310122"><ele>538.0</ele><time>2026-05-03T09:30:29.012Z</time></trkpt><trkpt lat="44.3122982918622" lon="10.071809772200805"><ele>538.0</ele><time>2026-05-03T09:30:30.012Z</time></trkpt><trkpt lat="44.31238716944224" lon="10.071654585258715"><ele>541.5</ele><time>2026-05-03T09:30:31.012Z</time></trkpt><trkpt lat="44.312471069577335" lon="10.071498809489045"><ele>545.0</ele><time>2026-05-03T09:30:32.012Z</time></trkpt><trkpt lat="44.312575603104506" lon="10.07137111652874"><ele>548.5</ele><time>2026-05-03T09:30:33.012Z</time></trkpt><trkpt lat="44.31268945921503" lon="10.07125988396745"><ele>552.0</ele><time>2026-05-03T09:30:34.012Z</time></trkpt><trkpt lat="44.3128065878969" lon="10.071141126112328"><ele>552.0</ele><time>2026-05-03T09:30:35.012Z</time></trkpt><trkpt lat="44.31292816054149" lon="10.071029775888057"><ele>552.0</ele><time>2026-05-03T09:30:36.012Z</time></trkpt><trkpt lat="44.31305359829358" lon="10.070924220034803"><ele>552.0</ele><time>2026-05-03T09:30:37.012Z</time></trkpt><trkpt lat="44.31316917349027" lon="10.070810082395441"><ele>552.0</ele><time>2026-05-03T09:30:38.012Z</time></trkpt><trkpt lat="44.31326863708732" lon="10.070675944729238"><ele>555.0</ele><time>2026-05-03T09:30:39.012Z</time></trkpt><trkpt lat="44.31335749008173" lon="10.070561073972117"><ele>558.0</ele><time>2026-05-03T09:30:40.012Z</time></trkpt><trkpt lat="44.3134325151217" lon="10.070462208715615"><ele>561.0</ele><time>2026-05-03T09:30:41.012Z</time></trkpt><trkpt lat="44.31351045675386" lon="10.070364824894682"><ele>564.0</ele><time>2026-05-03T09:30:42.012Z</time></trkpt><trkpt lat="44.31358114002603" lon="10.070238854235711"><ele>567.0</ele><time>2026-05-03T09:30:43.012Z</time></trkpt><trkpt lat="44.31364480520711" lon="10.070079781540883"><ele>566.5</ele><time>2026-05-03T09:30:44.012Z</time></trkpt><trkpt lat="44.31371728998284" lon="10.069916371503039"><ele>566.0</ele><time>2026-05-03T09:30:45.012Z</time></trkpt><trkpt lat="44.3137921824092" lon="10.069772089663614"><ele>565.5</ele><time>2026-05-03T09:30:46.012Z</time></trkpt><trkpt lat="44.31385993955775" lon="10.069661037959865"><ele>565.0</ele><time>2026-05-03T09:30:47.012Z</time></trkpt><trkpt lat="44.31391939870385" lon="10.069585809330519"><ele>568.8333333333334</ele><time>2026-05-03T09:30:48.012Z</time></trkpt><trkpt lat="44.31402090196383" lon="10.069547266488724"><ele>572.6666666666667</ele><time>2026-05-03T09:30:50.012Z</time></trkpt><trkpt lat="44.314049867251256" lon="10.069681521096287"><ele>576.5</ele><time>2026-05-03T09:30:52.012Z</time></trkpt><trkpt lat="44.314020615000146" lon="10.06976822219768"><ele>580.3333333333334</ele><time>2026-05-03T09:30:53.012Z</time></trkpt><trkpt lat="44.31397835167499" lon="10.069862766106713"><ele>584.1666666666666</ele><time>2026-05-03T09:30:54.012Z</time></trkpt><trkpt lat="44.31395509211456" lon="10.069978879843042"><ele>588.0</ele><time>2026-05-03T09:30:55.012Z</time></trkpt><trkpt lat="44.31394019970757" lon="10.070122154237927"><ele>589.5</ele><time>2026-05-03T09:30:56.012Z</time></trkpt><trkpt lat="44.31394390356274" lon="10.070296432103616"><ele>591.0</ele><time>2026-05-03T09:30:57.012Z</time></trkpt><trkpt lat="44.313956671337046" lon="10.070474546081527"><ele>592.5</ele><time>2026-05-03T09:30:58.012Z</time></trkpt><trkpt lat="44.31395568302069" lon="10.070649773919824"><ele>594.0</ele><time>2026-05-03T09:30:59.012Z</time></trkpt><trkpt lat="44.31392910560054" lon="10.070823295125242"><ele>589.0</ele><time>2026-05-03T09:31:00.012Z</time></trkpt><trkpt lat="44.31387312466308" lon="10.070989277844888"><ele>584.0</ele><time>2026-05-03T09:31:01.012Z</time></trkpt><trkpt lat="44.313813640151345" lon="10.071129813450298"><ele>579.0</ele><time>2026-05-03T09:31:02.012Z</time></trkpt><trkpt lat="44.31373678790317" lon="10.07124616055813"><ele>574.0</ele><time>2026-05-03T09:31:03.012Z</time></trkpt><trkpt lat="44.313670046691996" lon="10.07136850224659"><ele>574.0</ele><time>2026-05-03T09:31:04.012Z</time></trkpt><trkpt lat="44.31360891472176" lon="10.07149681261798"><ele>574.0</ele><time>2026-05-03T09:31:05.012Z</time></trkpt><trkpt lat="44.31355816393159" lon="10.071606494078495"><ele>574.0</ele><time>2026-05-03T09:31:06.012Z</time></trkpt><trkpt lat="44.31353195836324" lon="10.07169268856966"><ele>574.0</ele><time>2026-05-03T09:31:07.012Z</time></trkpt><trkpt lat="44.31349921326998" lon="10.071863518695983"><ele>574.0</ele><time>2026-05-03T09:31:09.012Z</time></trkpt><trkpt lat="44.31357800592872" lon="10.071966061867844"><ele>576.8</ele><time>2026-05-03T09:31:11.012Z</time></trkpt><trkpt lat="44.31366037474336" lon="10.07193836936557"><ele>579.5999999999999</ele><time>2026-05-03T09:31:12.012Z</time></trkpt><trkpt lat="44.31375398518646" lon="10.071869338865879"><ele>582.4</ele><time>2026-05-03T09:31:13.012Z</time></trkpt><trkpt lat="44.31383712456163" lon="10.071779394977455"><ele>585.1999999999999</ele><time>2026-05-03T09:31:14.012Z</time></trkpt><trkpt lat="44.3139273397095" lon="10.071701569464452"><ele>588.0</ele><time>2026-05-03T09:31:15.012Z</time></trkpt><trkpt lat="44.31399822368827" lon="10.071612642089983"><ele>591.6</ele><time>2026-05-03T09:31:16.012Z</time></trkpt><trkpt lat="44.31404423208488" lon="10.071488776000566"><ele>595.1999999999999</ele><time>2026-05-03T09:31:17.012Z</time></trkpt><trkpt lat="44.31408814268708" lon="10.071349135970706"><ele>598.8</ele><time>2026-05-03T09:31:18.012Z</time></trkpt><trkpt lat="44.314152294323286" lon="10.071239786774035"><ele>602.4</ele><time>2026-05-03T09:31:19.012Z</time></trkpt><trkpt lat="44.31421646889168" lon="10.071120189412767"><ele>606.0</ele><time>2026-05-03T09:31:20.013Z</time></trkpt><trkpt lat="44.314253742096604" lon="10.07098084669125"><ele>606.0</ele><time>2026-05-03T09:31:21.012Z</time></trkpt><trkpt lat="44.3142810883743" lon="10.070835780159602"><ele>606.0</ele><time>2026-05-03T09:31:22.012Z</time></trkpt><trkpt lat="44.314320531651205" lon="10.070700373709466"><ele>606.0</ele><time>2026-05-03T09:31:23.012Z</time></trkpt><trkpt lat="44.31437655709748" lon="10.070576120787806"><ele>606.0</ele><time>2026-05-03T09:31:24.012Z</time></trkpt><trkpt lat="44.31445061661604" lon="10.070465576377455"><ele>606.0</ele><time>2026-05-03T09:31:25.012Z</time></trkpt><trkpt lat="44.314532983782975" lon="10.070379645751052"><ele>603.6</ele><time>2026-05-03T09:31:26.012Z</time></trkpt><trkpt lat="44.3146261779764" lon="10.07028889759784"><ele>601.2</ele><time>2026-05-03T09:31:27.012Z</time></trkpt><trkpt lat="44.314694658620915" lon="10.070174101451142"><ele>598.8</ele><time>2026-05-03T09:31:28.012Z</time></trkpt><trkpt lat="44.31474376824666" lon="10.070038014089478"><ele>596.4</ele><time>2026-05-03T09:31:29.012Z</time></trkpt><trkpt lat="44.3147773959533" lon="10.069900795433906"><ele>594.0</ele><time>2026-05-03T09:31:30.012Z</time></trkpt><trkpt lat="44.314796278253674" lon="10.06977145232742"><ele>593.0</ele><time>2026-05-03T09:31:31.012Z</time></trkpt><trkpt lat="44.31477125872214" lon="10.069636851997917"><ele>592.0</ele><time>2026-05-03T09:31:32.012Z</time></trkpt><trkpt lat="44.31472685297364" lon="10.069537832882082"><ele>591.0</ele><time>2026-05-03T09:31:33.012Z</time></trkpt><trkpt lat="44.3146914833075" lon="10.069448160322539"><ele>590.0</ele><time>2026-05-03T09:31:34.012Z</time></trkpt><trkpt lat="44.31470314364615" lon="10.069345593990436"><ele>589.0</ele><time>2026-05-03T09:31:35.012Z</time></trkpt><trkpt lat="44.314746381488746" lon="10.0692335193842"><ele>588.0</ele><time>2026-05-03T09:31:36.012Z</time></trkpt><trkpt lat="44.31479707929515" lon="10.069113167577783"><ele>596.0</ele><time>2026-05-03T09:31:37.012Z</time></trkpt><trkpt lat="44.3148561355292" lon="10.068986357410754"><ele>604.0</ele><time>2026-05-03T09:31:38.012Z</time></trkpt><trkpt lat="44.31492708011703" lon="10.068847904045024"><ele>612.0</ele><time>2026-05-03T09:31:39.012Z</time></trkpt><trkpt lat="44.31500287959663" lon="10.068703159253774"><ele>620.0</ele><time>2026-05-03T09:31:40.012Z</time></trkpt><trkpt lat="44.3150798940609" lon="10.068544494714574"><ele>620.0</ele><time>2026-05-03T09:31:41.012Z</time></trkpt><trkpt lat="44.31516167556354" lon="10.068381588053349"><ele>620.0</ele><time>2026-05-03T09:31:42.012Z</time></trkpt><trkpt lat="44.31524209481104" lon="10.06821786034495"><ele>620.0</ele><time>2026-05-03T09:31:43.012Z</time></trkpt><trkpt lat="44.31531788003139" lon="10.068067294280558"><ele>620.0</ele><time>2026-05-03T09:31:44.012Z</time></trkpt><trkpt lat="44.3153705177402" lon="10.067899203071029"><ele>619.5</ele><time>2026-05-03T09:31:45.012Z</time></trkpt><trkpt lat="44.315397888480305" lon="10.067698402419714"><ele>619.0</ele><time>2026-05-03T09:31:46.012Z</time></trkpt><trkpt lat="44.315418149060065" lon="10.06750745967692"><ele>618.5</ele><time>2026-05-03T09:31:47.012Z</time></trkpt><trkpt lat="44.315458608484974" lon="10.067341537306405"><ele>618.0</ele><time>2026-05-03T09:31:48.012Z</time></trkpt><trkpt lat="44.315525098062466" lon="10.067195120390002"><ele>622.5</ele><time>2026-05-03T09:31:49.012Z</time></trkpt><trkpt lat="44.315609512452845" lon="10.067053595433618"><ele>627.0</ele><time>2026-05-03T09:31:50.012Z</time></trkpt><trkpt lat="44.31570430735869" lon="10.066926051769947"><ele>631.5</ele><time>2026-05-03T09:31:51.012Z</time></trkpt><trkpt lat="44.315797579918694" lon="10.06681730419425"><ele>636.0</ele><time>2026-05-03T09:31:52.012Z</time></trkpt><trkpt lat="44.3159157532798" lon="10.066738375655486"><ele>636.0</ele><time>2026-05-03T09:31:53.012Z</time></trkpt><trkpt lat="44.31603962375127" lon="10.06667066930776"><ele>636.0</ele><time>2026-05-03T09:31:54.012Z</time></trkpt><trkpt lat="44.316164376884835" lon="10.066601368179843"><ele>636.0</ele><time>2026-05-03T09:31:55.012Z</time></trkpt><trkpt lat="44.31626496163668" lon="10.066524606265776"><ele>636.0</ele><time>2026-05-03T09:31:56.012Z</time></trkpt><trkpt lat="44.31635196667837" lon="10.066432556413478"><ele>639.75</ele><time>2026-05-03T09:31:57.012Z</time></trkpt><trkpt lat="44.316422886407686" lon="10.066307903985367"><ele>643.5</ele><time>2026-05-03T09:31:58.012Z</time></trkpt><trkpt lat="44.316468999224284" lon="10.066111925714159"><ele>647.25</ele><time>2026-05-03T09:31:59.012Z</time></trkpt><trkpt lat="44.31649588363321" lon="10.065963765703735"><ele>651.0</ele><time>2026-05-03T09:32:00.012Z</time></trkpt><trkpt lat="44.316538640150554" lon="10.065844899832669"><ele>647.0</ele><time>2026-05-03T09:32:01.012Z</time></trkpt><trkpt lat="44.316600707445836" lon="10.065740512083412"><ele>643.0</ele><time>2026-05-03T09:32:02.012Z</time></trkpt><trkpt lat="44.31669433596728" lon="10.065647088242724"><ele>639.0</ele><time>2026-05-03T09:32:03.012Z</time></trkpt><trkpt lat="44.316815927098034" lon="10.0655744792827"><ele>635.0</ele><time>2026-05-03T09:32:04.012Z</time></trkpt><trkpt lat="44.31694377638619" lon="10.065495130598586"><ele>635.0</ele><time>2026-05-03T09:32:05.012Z</time></trkpt><trkpt lat="44.31707660097346" lon="10.065390043462909"><ele>635.0</ele><time>2026-05-03T09:32:06.012Z</time></trkpt><trkpt lat="44.31720954949165" lon="10.065301361692825"><ele>635.0</ele><time>2026-05-03T09:32:07.012Z</time></trkpt><trkpt lat="44.317329074542094" lon="10.065222147634373"><ele>635.0</ele><time>2026-05-03T09:32:08.012Z</time></trkpt><trkpt lat="44.317442744982834" lon="10.065150170093792"><ele>639.2</ele><time>2026-05-03T09:32:09.012Z</time></trkpt><trkpt lat="44.317552412721895" lon="10.06508955187376"><ele>643.4</ele><time>2026-05-03T09:32:10.012Z</time></trkpt><trkpt lat="44.317656767721594" lon="10.065047222015481"><ele>647.5999999999999</ele><time>2026-05-03T09:32:11.013Z</time></trkpt><trkpt lat="44.31774083099033" lon="10.06501607272695"><ele>651.8</ele><time>2026-05-03T09:32:12.013Z</time></trkpt><trkpt lat="44.31781045185376" lon="10.064975559847772"><ele>656.0</ele><time>2026-05-03T09:32:13.013Z</time></trkpt><trkpt lat="44.31786487760999" lon="10.06480643806697"><ele>656.0</ele><time>2026-05-03T09:32:15.013Z</time></trkpt><trkpt lat="44.31784825705966" lon="10.064688778781052"><ele>656.0</ele><time>2026-05-03T09:32:16.013Z</time></trkpt><trkpt lat="44.31779386966517" lon="10.06455609094745"><ele>656.0</ele><time>2026-05-03T09:32:17.013Z</time></trkpt><trkpt lat="44.31772845215414" lon="10.06442986284911"><ele>656.0</ele><time>2026-05-03T09:32:18.013Z</time></trkpt><trkpt lat="44.31768770869935" lon="10.064324568464569"><ele>656.0</ele><time>2026-05-03T09:32:19.013Z</time></trkpt><trkpt lat="44.31767907120239" lon="10.064213432348271"><ele>656.8333333333333</ele><time>2026-05-03T09:32:20.013Z</time></trkpt><trkpt lat="44.31769525619093" lon="10.064108280068464"><ele>657.6666666666666</ele><time>2026-05-03T09:32:21.013Z</time></trkpt><trkpt lat="44.31774933078703" lon="10.064025429560015"><ele>658.5</ele><time>2026-05-03T09:32:22.013Z</time></trkpt><trkpt lat="44.317833361279924" lon="10.063969095886387"><ele>659.3333333333334</ele><time>2026-05-03T09:32:23.013Z</time></trkpt><trkpt lat="44.31792640262747" lon="10.06393662955534"><ele>660.1666666666667</ele><time>2026-05-03T09:32:24.013Z</time></trkpt><trkpt lat="44.318027418819845" lon="10.063924294970128"><ele>661.0</ele><time>2026-05-03T09:32:25.013Z</time></trkpt><trkpt lat="44.31812745385616" lon="10.063895361305752"><ele>663.1999999999999</ele><time>2026-05-03T09:32:26.013Z</time></trkpt><trkpt lat="44.31822291047043" lon="10.063849155798719"><ele>665.4</ele><time>2026-05-03T09:32:27.013Z</time></trkpt><trkpt lat="44.3182934874748" lon="10.063784130203787"><ele>667.6</ele><time>2026-05-03T09:32:28.013Z</time></trkpt><trkpt lat="44.318344019997326" lon="10.063684355176084"><ele>669.8</ele><time>2026-05-03T09:32:29.013Z</time></trkpt><trkpt lat="44.31839417729486" lon="10.063558655728066"><ele>672.0</ele><time>2026-05-03T09:32:30.013Z</time></trkpt><trkpt lat="44.318442553184894" lon="10.063434610180805"><ele>672.0</ele><time>2026-05-03T09:32:31.013Z</time></trkpt><trkpt lat="44.318490893927205" lon="10.063322593536448"><ele>672.0</ele><time>2026-05-03T09:32:32.013Z</time></trkpt><trkpt lat="44.31854436455411" lon="10.063232946285378"><ele>672.0</ele><time>2026-05-03T09:32:33.013Z</time></trkpt><trkpt lat="44.318616494997634" lon="10.063167590668417"><ele>672.0</ele><time>2026-05-03T09:32:34.013Z</time></trkpt><trkpt lat="44.318697752352065" lon="10.063128043575867"><ele>672.0</ele><time>2026-05-03T09:32:35.013Z</time></trkpt><trkpt lat="44.31877361256811" lon="10.063093925905449"><ele>672.0</ele><time>2026-05-03T09:32:36.013Z</time></trkpt><trkpt lat="44.31885792740117" lon="10.063048723289377"><ele>675.8333333333334</ele><time>2026-05-03T09:32:37.013Z</time></trkpt><trkpt lat="44.318942270934635" lon="10.06298314640168"><ele>679.6666666666666</ele><time>2026-05-03T09:32:38.013Z</time></trkpt><trkpt lat="44.31902107784126" lon="10.062919367712071"><ele>683.5</ele><time>2026-05-03T09:32:39.013Z</time></trkpt><trkpt lat="44.31907986769433" lon="10.062846262779512"><ele>687.3333333333333</ele><time>2026-05-03T09:32:40.013Z</time></trkpt><trkpt lat="44.31912523961291" lon="10.062750283825284"><ele>691.1666666666666</ele><time>2026-05-03T09:32:41.013Z</time></trkpt><trkpt lat="44.31916634846492" lon="10.062635149670617"><ele>695.0</ele><time>2026-05-03T09:32:42.013Z</time></trkpt><trkpt lat="44.31917856623221" lon="10.062510515041003"><ele>697.6</ele><time>2026-05-03T09:32:43.013Z</time></trkpt><trkpt lat="44.319190138850004" lon="10.062383433772808"><ele>700.2</ele><time>2026-05-03T09:32:44.013Z</time></trkpt><trkpt lat="44.31920044293331" lon="10.062235981034261"><ele>702.8</ele><time>2026-05-03T09:32:45.013Z</time></trkpt><trkpt lat="44.31921617618963" lon="10.062120522200425"><ele>705.4</ele><time>2026-05-03T09:32:46.013Z</time></trkpt><trkpt lat="44.31917577684894" lon="10.061926610248456"><ele>708.0</ele><time>2026-05-03T09:32:48.013Z</time></trkpt><trkpt lat="44.31913284184546" lon="10.061813167004448"><ele>708.0</ele><time>2026-05-03T09:32:49.013Z</time></trkpt><trkpt lat="44.319069255206315" lon="10.061731402359621"><ele>708.0</ele><time>2026-05-03T09:32:50.013Z</time></trkpt><trkpt lat="44.318995849059185" lon="10.061690662053708"><ele>708.0</ele><time>2026-05-03T09:32:51.013Z</time></trkpt><trkpt lat="44.31890724520431" lon="10.061692850754644"><ele>708.0</ele><time>2026-05-03T09:32:52.013Z</time></trkpt><trkpt lat="44.31882049823734" lon="10.061734217458175"><ele>708.0</ele><time>2026-05-03T09:32:53.013Z</time></trkpt><trkpt lat="44.31871813248324" lon="10.061807816350864"><ele>708.75</ele><time>2026-05-03T09:32:54.013Z</time></trkpt><trkpt lat="44.318607940260925" lon="10.061855704622474"><ele>709.5</ele><time>2026-05-03T09:32:55.013Z</time></trkpt><trkpt lat="44.318484247664905" lon="10.061875934349782"><ele>710.25</ele><time>2026-05-03T09:32:56.013Z</time></trkpt><trkpt lat="44.318354318651735" lon="10.0618814557693"><ele>711.0</ele><time>2026-05-03T09:32:57.013Z</time></trkpt><trkpt lat="44.31822979169744" lon="10.061895685603218"><ele>711.0</ele><time>2026-05-03T09:32:58.013Z</time></trkpt><trkpt lat="44.31809168900892" lon="10.061906287035859"><ele>711.0</ele><time>2026-05-03T09:32:59.013Z</time></trkpt><trkpt lat="44.317955950271624" lon="10.061903895874584"><ele>711.0</ele><time>2026-05-03T09:33:00.013Z</time></trkpt><trkpt lat="44.31782819724811" lon="10.061899440430054"><ele>711.0</ele><time>2026-05-03T09:33:01.013Z</time></trkpt><trkpt lat="44.31770774516408" lon="10.06190372266886"><ele>715.25</ele><time>2026-05-03T09:33:02.014Z</time></trkpt><trkpt lat="44.317581572493275" lon="10.06193532808076"><ele>719.5</ele><time>2026-05-03T09:33:03.014Z</time></trkpt><trkpt lat="44.31745498777931" lon="10.061988343689064"><ele>723.75</ele><time>2026-05-03T09:33:04.014Z</time></trkpt><trkpt lat="44.317334063073936" lon="10.06203655811779"><ele>728.0</ele><time>2026-05-03T09:33:05.014Z</time></trkpt><trkpt lat="44.317220035552346" lon="10.062095163704708"><ele>731.0</ele><time>2026-05-03T09:33:06.014Z</time></trkpt><trkpt lat="44.31711679551233" lon="10.062147728899289"><ele>734.0</ele><time>2026-05-03T09:33:07.014Z</time></trkpt><trkpt lat="44.31701906474413" lon="10.062185474380309"><ele>737.0</ele><time>2026-05-03T09:33:08.014Z</time></trkpt><trkpt lat="44.31690959209836" lon="10.062194063867723"><ele>740.0</ele><time>2026-05-03T09:33:09.014Z</time></trkpt><trkpt lat="44.316796687154344" lon="10.06217525985834"><ele>743.0</ele><time>2026-05-03T09:33:10.014Z</time></trkpt><trkpt lat="44.31668851079187" lon="10.062161902339534"><ele>743.0</ele><time>2026-05-03T09:33:11.014Z</time></trkpt><trkpt lat="44.3165828051731" lon="10.062212321861045"><ele>743.0</ele><time>2026-05-03T09:33:12.014Z</time></trkpt><trkpt lat="44.316479882868755" lon="10.062306637355475"><ele>743.0</ele><time>2026-05-03T09:33:13.014Z</time></trkpt><trkpt lat="44.31636333864943" lon="10.062412856645972"><ele>743.0</ele><time>2026-05-03T09:33:14.014Z</time></trkpt><trkpt lat="44.316250238150126" lon="10.062515378395556"><ele>739.8</ele><time>2026-05-03T09:33:15.014Z</time></trkpt><trkpt lat="44.31614047666684" lon="10.06262366673529"><ele>736.5999999999999</ele><time>2026-05-03T09:33:16.014Z</time></trkpt><trkpt lat="44.316042411076175" lon="10.062720338488273"><ele>733.4000000000001</ele><time>2026-05-03T09:33:17.014Z</time></trkpt><trkpt lat="44.31596273115505" lon="10.062785791638163"><ele>730.2</ele><time>2026-05-03T09:33:18.014Z</time></trkpt><trkpt lat="44.31589457802354" lon="10.062827865545554"><ele>727.0</ele><time>2026-05-03T09:33:19.014Z</time></trkpt><trkpt lat="44.31582609309626" lon="10.062849178583697"><ele>727.0</ele><time>2026-05-03T09:33:20.014Z</time></trkpt><trkpt lat="44.31574139288012" lon="10.062834056365782"><ele>727.0</ele><time>2026-05-03T09:33:21.014Z</time></trkpt><trkpt lat="44.31563869476754" lon="10.062800658808396"><ele>727.0</ele><time>2026-05-03T09:33:22.014Z</time></trkpt><trkpt lat="44.31553658538766" lon="10.062745322908002"><ele>727.0</ele><time>2026-05-03T09:33:23.014Z</time></trkpt><trkpt lat="44.31543611660005" lon="10.062701836942146"><ele>727.0</ele><time>2026-05-03T09:33:24.014Z</time></trkpt><trkpt lat="44.31532020027314" lon="10.062679807530344"><ele>727.6</ele><time>2026-05-03T09:33:25.014Z</time></trkpt><trkpt lat="44.31521490048477" lon="10.062665708905056"><ele>728.2</ele><time>2026-05-03T09:33:26.014Z</time></trkpt><trkpt lat="44.31511569898212" lon="10.062682628246417"><ele>728.8</ele><time>2026-05-03T09:33:27.014Z</time></trkpt><trkpt lat="44.31501781397723" lon="10.062737106693572"><ele>729.4</ele><time>2026-05-03T09:33:28.014Z</time></trkpt><trkpt lat="44.3149207665021" lon="10.062773220552673"><ele>730.0</ele><time>2026-05-03T09:33:29.014Z</time></trkpt><trkpt lat="44.3148348943835" lon="10.062759899106414"><ele>730.0</ele><time>2026-05-03T09:33:30.014Z</time></trkpt><trkpt lat="44.314757888031075" lon="10.06271265484"><ele>730.0</ele><time>2026-05-03T09:33:31.014Z</time></trkpt><trkpt lat="44.31468712190583" lon="10.06262578514504"><ele>730.0</ele><time>2026-05-03T09:33:32.014Z</time></trkpt><trkpt lat="44.314643643218744" lon="10.062524512573976"><ele>730.0</ele><time>2026-05-03T09:33:33.014Z</time></trkpt><trkpt lat="44.31460395833585" lon="10.062408798057492"><ele>730.0</ele><time>2026-05-03T09:33:34.014Z</time></trkpt><trkpt lat="44.31456970346538" lon="10.06228155186137"><ele>723.4</ele><time>2026-05-03T09:33:35.014Z</time></trkpt><trkpt lat="44.31455222117763" lon="10.062156214269528"><ele>716.8</ele><time>2026-05-03T09:33:36.014Z</time></trkpt><trkpt lat="44.31457063313939" lon="10.062034101185485"><ele>710.2</ele><time>2026-05-03T09:33:37.014Z</time></trkpt><trkpt lat="44.31461529963237" lon="10.06191077930293"><ele>703.6</ele><time>2026-05-03T09:33:38.014Z</time></trkpt><trkpt lat="44.31466744648171" lon="10.061782241929043"><ele>697.0</ele><time>2026-05-03T09:33:39.014Z</time></trkpt><trkpt lat="44.31471645559937" lon="10.061654739820362"><ele>700.3333333333334</ele><time>2026-05-03T09:33:40.014Z</time></trkpt><trkpt lat="44.3147574196571" lon="10.061532989668125"><ele>703.6666666666667</ele><time>2026-05-03T09:33:41.014Z</time></trkpt><trkpt lat="44.31479697010411" lon="10.061416889258489"><ele>707.0</ele><time>2026-05-03T09:33:42.014Z</time></trkpt><trkpt lat="44.31485545189022" lon="10.061342304533051"><ele>710.3333333333334</ele><time>2026-05-03T09:33:43.014Z</time></trkpt><trkpt lat="44.31493054744619" lon="10.061299609814808"><ele>713.6666666666666</ele><time>2026-05-03T09:33:44.014Z</time></trkpt><trkpt lat="44.315025037566016" lon="10.061263697989894"><ele>717.0</ele><time>2026-05-03T09:33:45.014Z</time></trkpt><trkpt lat="44.315110725425754" lon="10.061228895094743"><ele>717.0</ele><time>2026-05-03T09:33:46.014Z</time></trkpt><trkpt lat="44.31520307729116" lon="10.061150659056281"><ele>717.0</ele><time>2026-05-03T09:33:47.014Z</time></trkpt><trkpt lat="44.315294266555924" lon="10.061073537282704"><ele>717.0</ele><time>2026-05-03T09:33:48.014Z</time></trkpt><trkpt lat="44.31538387509835" lon="10.060993298662709"><ele>717.0</ele><time>2026-05-03T09:33:49.014Z</time></trkpt><trkpt lat="44.31547703060984" lon="10.060907603221416"><ele>717.0</ele><time>2026-05-03T09:33:50.014Z</time></trkpt><trkpt lat="44.31557614529964" lon="10.060818563911493"><ele>721.25</ele><time>2026-05-03T09:33:51.014Z</time></trkpt><trkpt lat="44.31567357638795" lon="10.060723396832772"><ele>725.5</ele><time>2026-05-03T09:33:52.014Z</time></trkpt><trkpt lat="44.31575808745511" lon="10.060633415753644"><ele>729.75</ele><time>2026-05-03T09:33:53.015Z</time></trkpt><trkpt lat="44.315830408069985" lon="10.060515208485139"><ele>734.0</ele><time>2026-05-03T09:33:54.015Z</time></trkpt><trkpt lat="44.31589109267752" lon="10.060373627394856"><ele>734.0</ele><time>2026-05-03T09:33:55.015Z</time></trkpt><trkpt lat="44.31594728892905" lon="10.060211457315463"><ele>734.0</ele><time>2026-05-03T09:33:56.015Z</time></trkpt><trkpt lat="44.316008016608784" lon="10.060056222845706"><ele>734.0</ele><time>2026-05-03T09:33:57.015Z</time></trkpt><trkpt lat="44.316079307123836" lon="10.059907681869984"><ele>734.0</ele><time>2026-05-03T09:33:58.015Z</time></trkpt><trkpt lat="44.31614598691121" lon="10.059750894336156"><ele>730.5</ele><time>2026-05-03T09:33:59.015Z</time></trkpt><trkpt lat="44.3161998956356" lon="10.05959176388323"><ele>727.0</ele><time>2026-05-03T09:34:00.015Z</time></trkpt><trkpt lat="44.31625523795665" lon="10.059448112331923"><ele>723.5</ele><time>2026-05-03T09:34:01.015Z</time></trkpt><trkpt lat="44.31631220277846" lon="10.059313911483233"><ele>720.0</ele><time>2026-05-03T09:34:02.015Z</time></trkpt><trkpt lat="44.31636747154094" lon="10.059201920278143"><ele>721.6</ele><time>2026-05-03T09:34:03.015Z</time></trkpt><trkpt lat="44.31643263819052" lon="10.059110778987026"><ele>723.2</ele><time>2026-05-03T09:34:04.015Z</time></trkpt><trkpt lat="44.31651291475209" lon="10.059038332461304"><ele>724.8</ele><time>2026-05-03T09:34:05.015Z</time></trkpt><trkpt lat="44.316604284812314" lon="10.05900147800491"><ele>726.4</ele><time>2026-05-03T09:34:06.015Z</time></trkpt><trkpt lat="44.31670316037874" lon="10.058988004671827"><ele>728.0</ele><time>2026-05-03T09:34:07.015Z</time></trkpt><trkpt lat="44.316798887568716" lon="10.058962878562022"><ele>728.0</ele><time>2026-05-03T09:34:08.015Z</time></trkpt><trkpt lat="44.31687238367557" lon="10.058915840251649"><ele>728.0</ele><time>2026-05-03T09:34:09.015Z</time></trkpt><trkpt lat="44.31695251782449" lon="10.058816475022658"><ele>728.0</ele><time>2026-05-03T09:34:10.015Z</time></trkpt><trkpt lat="44.317029959276255" lon="10.058681278197072"><ele>728.0</ele><time>2026-05-03T09:34:11.015Z</time></trkpt><trkpt lat="44.317120721470864" lon="10.058537934396945"><ele>728.0</ele><time>2026-05-03T09:34:12.015Z</time></trkpt><trkpt lat="44.317210291327484" lon="10.058397600995463"><ele>733.25</ele><time>2026-05-03T09:34:13.015Z</time></trkpt><trkpt lat="44.317298204150646" lon="10.058248085601177"><ele>738.5</ele><time>2026-05-03T09:34:14.015Z</time></trkpt><trkpt lat="44.317388363847805" lon="10.058091234086255"><ele>743.75</ele><time>2026-05-03T09:34:15.015Z</time></trkpt><trkpt lat="44.31747851363808" lon="10.057930479394663"><ele>749.0</ele><time>2026-05-03T09:34:16.015Z</time></trkpt><trkpt lat="44.317575924921" lon="10.057772633808087"><ele>749.0</ele><time>2026-05-03T09:34:17.015Z</time></trkpt><trkpt lat="44.31767407431172" lon="10.05760468989006"><ele>749.0</ele><time>2026-05-03T09:34:18.015Z</time></trkpt><trkpt lat="44.317774767705885" lon="10.057433111129352"><ele>749.0</ele><time>2026-05-03T09:34:19.015Z</time></trkpt><trkpt lat="44.3178744040022" lon="10.05726260726143"><ele>740.6666666666666</ele><time>2026-05-03T09:34:20.015Z</time></trkpt><trkpt lat="44.317966091499606" lon="10.05708817496502"><ele>732.3333333333334</ele><time>2026-05-03T09:34:21.015Z</time></trkpt><trkpt lat="44.318044317793984" lon="10.056908807721921"><ele>724.0</ele><time>2026-05-03T09:34:22.015Z</time></trkpt><trkpt lat="44.31812087794167" lon="10.056723390953614"><ele>732.75</ele><time>2026-05-03T09:34:23.015Z</time></trkpt><trkpt lat="44.31818555499357" lon="10.056539233046914"><ele>741.5</ele><time>2026-05-03T09:34:24.015Z</time></trkpt><trkpt lat="44.318256521644194" lon="10.056373354166258"><ele>750.25</ele><time>2026-05-03T09:34:25.015Z</time></trkpt><trkpt lat="44.31832673306494" lon="10.056225428305662"><ele>759.0</ele><time>2026-05-03T09:34:26.015Z</time></trkpt><trkpt lat="44.31841393114142" lon="10.056118239759526"><ele>759.0</ele><time>2026-05-03T09:34:27.015Z</time></trkpt><trkpt lat="44.318498650778295" lon="10.056024313725787"><ele>759.0</ele><time>2026-05-03T09:34:28.015Z</time></trkpt><trkpt lat="44.31857864193511" lon="10.05593838291089"><ele>759.0</ele><time>2026-05-03T09:34:29.015Z</time></trkpt><trkpt lat="44.31864594950974" lon="10.055858734997269"><ele>759.0</ele><time>2026-05-03T09:34:30.015Z</time></trkpt><trkpt lat="44.318680908165554" lon="10.055770951373349"><ele>759.0</ele><time>2026-05-03T09:34:31.015Z</time></trkpt><trkpt lat="44.318696056667676" lon="10.055653018488897"><ele>759.0</ele><time>2026-05-03T09:34:32.015Z</time></trkpt><trkpt lat="44.31868542908166" lon="10.055503074868492"><ele>759.0</ele><time>2026-05-03T09:34:33.015Z</time></trkpt><trkpt lat="44.31866708789925" lon="10.055327930194405"><ele>759.0</ele><time>2026-05-03T09:34:34.015Z</time></trkpt><trkpt lat="44.318659173648875" lon="10.055134791808578"><ele>759.0</ele><time>2026-05-03T09:34:35.015Z</time></trkpt><trkpt lat="44.31865822380043" lon="10.05495586763536"><ele>765.0</ele><time>2026-05-03T09:34:36.015Z</time></trkpt><trkpt lat="44.318632755371695" lon="10.054809700456005"><ele>771.0</ele><time>2026-05-03T09:34:37.015Z</time></trkpt><trkpt lat="44.31860128340524" lon="10.054694979251025"><ele>777.0</ele><time>2026-05-03T09:34:38.015Z</time></trkpt><trkpt lat="44.31856059347768" lon="10.054578951119108"><ele>783.0</ele><time>2026-05-03T09:34:39.015Z</time></trkpt><trkpt lat="44.31850263295981" lon="10.054503325961779"><ele>789.0</ele><time>2026-05-03T09:34:40.015Z</time></trkpt><trkpt lat="44.31842009465212" lon="10.054441418224739"><ele>789.0</ele><time>2026-05-03T09:34:41.015Z</time></trkpt><trkpt lat="44.31832197019992" lon="10.05440736809936"><ele>789.0</ele><time>2026-05-03T09:34:42.015Z</time></trkpt><trkpt lat="44.318225808682406" lon="10.054373603253882"><ele>789.0</ele><time>2026-05-03T09:34:43.015Z</time></trkpt><trkpt lat="44.31813065007878" lon="10.054321628391564"><ele>789.0</ele><time>2026-05-03T09:34:44.016Z</time></trkpt><trkpt lat="44.31804420109035" lon="10.054251868809231"><ele>789.0</ele><time>2026-05-03T09:34:45.016Z</time></trkpt><trkpt lat="44.3179789579013" lon="10.054146487995986"><ele>793.2</ele><time>2026-05-03T09:34:46.016Z</time></trkpt><trkpt lat="44.31792607167464" lon="10.054019363326969"><ele>797.4000000000001</ele><time>2026-05-03T09:34:47.016Z</time></trkpt><trkpt lat="44.317867242454575" lon="10.053916278374205"><ele>801.6</ele><time>2026-05-03T09:34:48.016Z</time></trkpt><trkpt lat="44.31778866814819" lon="10.053857520133983"><ele>805.8</ele><time>2026-05-03T09:34:49.016Z</time></trkpt><trkpt lat="44.31767406523896" lon="10.053845175543287"><ele>810.0</ele><time>2026-05-03T09:34:50.016Z</time></trkpt><trkpt lat="44.31755404065765" lon="10.053850281873055"><ele>810.0</ele><time>2026-05-03T09:34:51.016Z</time></trkpt><trkpt lat="44.31742495403967" lon="10.05385358594618"><ele>810.0</ele><time>2026-05-03T09:34:52.016Z</time></trkpt><trkpt lat="44.317291207194806" lon="10.053858082472367"><ele>810.0</ele><time>2026-05-03T09:34:53.016Z</time></trkpt><trkpt lat="44.317164681987386" lon="10.053835770648211"><ele>810.0</ele><time>2026-05-03T09:34:54.016Z</time></trkpt><trkpt lat="44.317049018439384" lon="10.05380813627102"><ele>806.0</ele><time>2026-05-03T09:34:55.016Z</time></trkpt><trkpt lat="44.316933510148715" lon="10.053760415394125"><ele>802.0</ele><time>2026-05-03T09:34:56.016Z</time></trkpt><trkpt lat="44.31681203954294" lon="10.053705969393768"><ele>798.0</ele><time>2026-05-03T09:34:57.016Z</time></trkpt><trkpt lat="44.31668296970184" lon="10.053666499124416"><ele>794.0</ele><time>2026-05-03T09:34:58.016Z</time></trkpt><trkpt lat="44.316564463830765" lon="10.053621611056291"><ele>794.0</ele><time>2026-05-03T09:34:59.016Z</time></trkpt><trkpt lat="44.3164436317781" lon="10.053581814737278"><ele>794.0</ele><time>2026-05-03T09:35:00.016Z</time></trkpt><trkpt lat="44.31631878803804" lon="10.05356021217806"><ele>794.0</ele><time>2026-05-03T09:35:01.016Z</time></trkpt><trkpt lat="44.31618936782915" lon="10.05354967454875"><ele>794.0</ele><time>2026-05-03T09:35:02.016Z</time></trkpt><trkpt lat="44.31605814079848" lon="10.05353349352185"><ele>790.8000000000001</ele><time>2026-05-03T09:35:03.016Z</time></trkpt><trkpt lat="44.31592638544655" lon="10.053528220161473"><ele>787.6</ele><time>2026-05-03T09:35:04.016Z</time></trkpt><trkpt lat="44.31581320512884" lon="10.05351147875603"><ele>784.4</ele><time>2026-05-03T09:35:05.016Z</time></trkpt><trkpt lat="44.31572413208702" lon="10.05347983298054"><ele>781.2</ele><time>2026-05-03T09:35:06.016Z</time></trkpt><trkpt lat="44.31565568076293" lon="10.053425524680902"><ele>778.0</ele><time>2026-05-03T09:35:07.016Z</time></trkpt><trkpt lat="44.315612983286" lon="10.053341226890895"><ele>777.0</ele><time>2026-05-03T09:35:08.016Z</time></trkpt><trkpt lat="44.31560722982414" lon="10.053232847702954"><ele>776.0</ele><time>2026-05-03T09:35:09.016Z</time></trkpt><trkpt lat="44.31564066004365" lon="10.053104183077766"><ele>775.0</ele><time>2026-05-03T09:35:10.016Z</time></trkpt><trkpt lat="44.315701774139015" lon="10.05298452765002"><ele>774.0</ele><time>2026-05-03T09:35:11.016Z</time></trkpt><trkpt lat="44.31578594053071" lon="10.052849389434193"><ele>773.0</ele><time>2026-05-03T09:35:12.016Z</time></trkpt><trkpt lat="44.31589303244465" lon="10.052694064148456"><ele>773.0</ele><time>2026-05-03T09:35:13.016Z</time></trkpt><trkpt lat="44.31599207510194" lon="10.052544018370336"><ele>773.0</ele><time>2026-05-03T09:35:14.016Z</time></trkpt><trkpt lat="44.31607848679566" lon="10.05241069856085"><ele>773.0</ele><time>2026-05-03T09:35:15.016Z</time></trkpt><trkpt lat="44.31618517045363" lon="10.052303160930313"><ele>773.0</ele><time>2026-05-03T09:35:16.016Z</time></trkpt><trkpt lat="44.3163093055934" lon="10.052209381900106"><ele>772.75</ele><time>2026-05-03T09:35:17.016Z</time></trkpt><trkpt lat="44.31643007832365" lon="10.052104751511088"><ele>772.5</ele><time>2026-05-03T09:35:18.016Z</time></trkpt><trkpt lat="44.3165469634186" lon="10.052007450356571"><ele>772.25</ele><time>2026-05-03T09:35:19.016Z</time></trkpt><trkpt lat="44.31667052320403" lon="10.051913136187927"><ele>772.0</ele><time>2026-05-03T09:35:20.016Z</time></trkpt><trkpt lat="44.316794588398096" lon="10.051822383492981"><ele>772.0</ele><time>2026-05-03T09:35:21.016Z</time></trkpt><trkpt lat="44.316916091059404" lon="10.051736666235529"><ele>772.0</ele><time>2026-05-03T09:35:22.016Z</time></trkpt><trkpt lat="44.31702636879769" lon="10.051653115722154"><ele>772.0</ele><time>2026-05-03T09:35:23.016Z</time></trkpt><trkpt lat="44.31712463690853" lon="10.051553605995569"><ele>772.0</ele><time>2026-05-03T09:35:24.016Z</time></trkpt><trkpt lat="44.31720947100405" lon="10.051429847030269"><ele>771.4000000000001</ele><time>2026-05-03T09:35:25.016Z</time></trkpt><trkpt lat="44.317282758399" lon="10.051282043733579"><ele>770.8000000000001</ele><time>2026-05-03T09:35:26.016Z</time></trkpt><trkpt lat="44.31734007532054" lon="10.051158013543422"><ele>770.2</ele><time>2026-05-03T09:35:27.016Z</time></trkpt><trkpt lat="44.317388902297076" lon="10.051044953765835"><ele>769.6</ele><time>2026-05-03T09:35:28.016Z</time></trkpt><trkpt lat="44.31743825426727" lon="10.050971492191433"><ele>769.0</ele><time>2026-05-03T09:35:29.016Z</time></trkpt><trkpt lat="44.317515185741" lon="10.050926817335258"><ele>769.0</ele><time>2026-05-03T09:35:30.016Z</time></trkpt><trkpt lat="44.31761662423856" lon="10.050899102471861"><ele>769.0</ele><time>2026-05-03T09:35:31.016Z</time></trkpt><trkpt lat="44.31772618935033" lon="10.05087109620933"><ele>769.0</ele><time>2026-05-03T09:35:32.016Z</time></trkpt><trkpt lat="44.31784926886494" lon="10.050854866658877"><ele>769.0</ele><time>2026-05-03T09:35:33.016Z</time></trkpt><trkpt lat="44.317972129869005" lon="10.050839607724555"><ele>772.0</ele><time>2026-05-03T09:35:34.016Z</time></trkpt><trkpt lat="44.31809173455975" lon="10.050824119695639"><ele>775.0</ele><time>2026-05-03T09:35:35.017Z</time></trkpt><trkpt lat="44.31821579543071" lon="10.050805863815107"><ele>778.0</ele><time>2026-05-03T09:35:36.017Z</time></trkpt><trkpt lat="44.31833575926871" lon="10.050786487394634"><ele>781.0</ele><time>2026-05-03T09:35:37.017Z</time></trkpt><trkpt lat="44.31843830117518" lon="10.050771434959616"><ele>779.1666666666666</ele><time>2026-05-03T09:35:38.017Z</time></trkpt><trkpt lat="44.318540388106236" lon="10.050782328129953"><ele>777.3333333333333</ele><time>2026-05-03T09:35:39.017Z</time></trkpt><trkpt lat="44.318637131412274" lon="10.050784393886765"><ele>775.5</ele><time>2026-05-03T09:35:40.017Z</time></trkpt><trkpt lat="44.31871712307893" lon="10.050776736778884"><ele>773.6666666666667</ele><time>2026-05-03T09:35:41.017Z</time></trkpt><trkpt lat="44.31879234019565" lon="10.050733771510428"><ele>771.8333333333334</ele><time>2026-05-03T09:35:42.017Z</time></trkpt><trkpt lat="44.31886276589126" lon="10.050669985689142"><ele>770.0</ele><time>2026-05-03T09:35:43.017Z</time></trkpt><trkpt lat="44.31892889171795" lon="10.050561491478001"><ele>770.0</ele><time>2026-05-03T09:35:44.017Z</time></trkpt><trkpt lat="44.31897465451317" lon="10.050422387908663"><ele>770.0</ele><time>2026-05-03T09:35:45.017Z</time></trkpt><trkpt lat="44.319005102107646" lon="10.050284178066338"><ele>770.0</ele><time>2026-05-03T09:35:46.017Z</time></trkpt><trkpt lat="44.3190387391336" lon="10.050145031296966"><ele>770.0</ele><time>2026-05-03T09:35:47.017Z</time></trkpt><trkpt lat="44.31910650613853" lon="10.050034328799953"><ele>770.0</ele><time>2026-05-03T09:35:48.017Z</time></trkpt><trkpt lat="44.31919260640896" lon="10.04994415488811"><ele>766.4</ele><time>2026-05-03T09:35:49.017Z</time></trkpt><trkpt lat="44.319283931964144" lon="10.0498561559755"><ele>762.8</ele><time>2026-05-03T09:35:50.017Z</time></trkpt><trkpt lat="44.31936321619165" lon="10.049757300062849"><ele>759.2</ele><time>2026-05-03T09:35:51.017Z</time></trkpt><trkpt lat="44.319428333551414" lon="10.049653548757625"><ele>755.6</ele><time>2026-05-03T09:35:52.017Z</time></trkpt><trkpt lat="44.319477021335864" lon="10.049539455733322"><ele>752.0</ele><time>2026-05-03T09:35:53.017Z</time></trkpt><trkpt lat="44.31949263703237" lon="10.049411077480706"><ele>752.0</ele><time>2026-05-03T09:35:54.017Z</time></trkpt><trkpt lat="44.3194882005542" lon="10.049258446210171"><ele>752.0</ele><time>2026-05-03T09:35:55.017Z</time></trkpt><trkpt lat="44.319474156730045" lon="10.049087377501152"><ele>752.0</ele><time>2026-05-03T09:35:56.017Z</time></trkpt><trkpt lat="44.31944238016414" lon="10.048906700961238"><ele>752.0</ele><time>2026-05-03T09:35:57.017Z</time></trkpt><trkpt lat="44.31939465493832" lon="10.048732846115378"><ele>752.0</ele><time>2026-05-03T09:35:58.017Z</time></trkpt><trkpt lat="44.31933578757625" lon="10.048579341085853"><ele>752.0</ele><time>2026-05-03T09:35:59.017Z</time></trkpt><trkpt lat="44.319288662473994" lon="10.04843983439007"><ele>752.0</ele><time>2026-05-03T09:36:00.017Z</time></trkpt><trkpt lat="44.319251496251766" lon="10.04831598027687"><ele>752.0</ele><time>2026-05-03T09:36:01.017Z</time></trkpt><trkpt lat="44.31923468026792" lon="10.048193419224633"><ele>752.0</ele><time>2026-05-03T09:36:02.017Z</time></trkpt><trkpt lat="44.319246595821085" lon="10.048078599432085"><ele>749.75</ele><time>2026-05-03T09:36:03.017Z</time></trkpt><trkpt lat="44.319301911632635" lon="10.047969644636225"><ele>747.5</ele><time>2026-05-03T09:36:04.017Z</time></trkpt><trkpt lat="44.319385635795534" lon="10.047873316116156"><ele>745.25</ele><time>2026-05-03T09:36:05.017Z</time></trkpt><trkpt lat="44.31948530956154" lon="10.047778961494192"><ele>743.0</ele><time>2026-05-03T09:36:06.017Z</time></trkpt><trkpt lat="44.31959933306155" lon="10.047694812454676"><ele>743.0</ele><time>2026-05-03T09:36:07.017Z</time></trkpt><trkpt lat="44.31970602409761" lon="10.047621010707092"><ele>743.0</ele><time>2026-05-03T09:36:08.017Z</time></trkpt><trkpt lat="44.319792387167844" lon="10.047538214601465"><ele>743.0</ele><time>2026-05-03T09:36:09.017Z</time></trkpt><trkpt lat="44.319854035645605" lon="10.047445660747137"><ele>743.0</ele><time>2026-05-03T09:36:10.017Z</time></trkpt><trkpt lat="44.319897777073066" lon="10.047346810193957"><ele>743.0</ele><time>2026-05-03T09:36:11.017Z</time></trkpt><trkpt lat="44.31992330811741" lon="10.047239411163163"><ele>748.5999999999999</ele><time>2026-05-03T09:36:12.017Z</time></trkpt><trkpt lat="44.31993090856045" lon="10.047112904024806"><ele>754.1999999999999</ele><time>2026-05-03T09:36:13.017Z</time></trkpt><trkpt lat="44.31991722078399" lon="10.046967057710082"><ele>759.8</ele><time>2026-05-03T09:36:14.017Z</time></trkpt><trkpt lat="44.3198874048062" lon="10.04680864271905"><ele>765.4</ele><time>2026-05-03T09:36:15.017Z</time></trkpt><trkpt lat="44.31985985174407" lon="10.046667659917551"><ele>771.0</ele><time>2026-05-03T09:36:16.017Z</time></trkpt><trkpt lat="44.31984940417151" lon="10.04652208939128"><ele>773.0</ele><time>2026-05-03T09:36:17.017Z</time></trkpt><trkpt lat="44.319861241984995" lon="10.0463751486171"><ele>775.0</ele><time>2026-05-03T09:36:18.017Z</time></trkpt><trkpt lat="44.3198777230412" lon="10.046231379469225"><ele>777.0</ele><time>2026-05-03T09:36:19.017Z</time></trkpt><trkpt lat="44.3198819084305" lon="10.046095931346203"><ele>779.0</ele><time>2026-05-03T09:36:20.017Z</time></trkpt><trkpt lat="44.319838346172986" lon="10.045947696199727"><ele>781.0</ele><time>2026-05-03T09:36:21.017Z</time></trkpt><trkpt lat="44.319757825757584" lon="10.045803596847028"><ele>775.75</ele><time>2026-05-03T09:36:22.017Z</time></trkpt><trkpt lat="44.3196558955734" lon="10.0456686756685"><ele>770.5</ele><time>2026-05-03T09:36:23.017Z</time></trkpt><trkpt lat="44.31958032974315" lon="10.045528516822548"><ele>765.25</ele><time>2026-05-03T09:36:24.017Z</time></trkpt><trkpt lat="44.31951319190758" lon="10.045403931255601"><ele>760.0</ele><time>2026-05-03T09:36:25.017Z</time></trkpt><trkpt lat="44.31944227046809" lon="10.045281955065562"><ele>760.0</ele><time>2026-05-03T09:36:26.018Z</time></trkpt><trkpt lat="44.31933085233112" lon="10.045178170814019"><ele>760.0</ele><time>2026-05-03T09:36:27.018Z</time></trkpt><trkpt lat="44.31919650706146" lon="10.045083131814058"><ele>760.0</ele><time>2026-05-03T09:36:28.018Z</time></trkpt><trkpt lat="44.31907106271641" lon="10.044995813092676"><ele>760.0</ele><time>2026-05-03T09:36:29.018Z</time></trkpt><trkpt lat="44.31895782750708" lon="10.044902456975676"><ele>756.6</ele><time>2026-05-03T09:36:30.018Z</time></trkpt><trkpt lat="44.31885128138523" lon="10.044822314131176"><ele>753.2</ele><time>2026-05-03T09:36:31.018Z</time></trkpt><trkpt lat="44.31875728396293" lon="10.04474494882215"><ele>749.8</ele><time>2026-05-03T09:36:32.018Z</time></trkpt><trkpt lat="44.318673944883045" lon="10.044654942079646"><ele>746.4</ele><time>2026-05-03T09:36:33.018Z</time></trkpt><trkpt lat="44.31860134944266" lon="10.044555679206525"><ele>743.0</ele><time>2026-05-03T09:36:34.018Z</time></trkpt><trkpt lat="44.31854124513536" lon="10.044433295721825"><ele>743.0</ele><time>2026-05-03T09:36:35.018Z</time></trkpt><trkpt lat="44.318500619116215" lon="10.044288765683417"><ele>743.0</ele><time>2026-05-03T09:36:36.018Z</time></trkpt><trkpt lat="44.31848819433439" lon="10.044121025350492"><ele>743.0</ele><time>2026-05-03T09:36:37.018Z</time></trkpt><trkpt lat="44.31849186916966" lon="10.043959765385855"><ele>743.0</ele><time>2026-05-03T09:36:38.018Z</time></trkpt><trkpt lat="44.318499617024486" lon="10.043820321187884"><ele>743.0</ele><time>2026-05-03T09:36:39.018Z</time></trkpt><trkpt lat="44.318489059652805" lon="10.043703437763549"><ele>743.5999999999999</ele><time>2026-05-03T09:36:40.018Z</time></trkpt><trkpt lat="44.31843798373635" lon="10.043602829509732"><ele>744.1999999999999</ele><time>2026-05-03T09:36:41.018Z</time></trkpt><trkpt lat="44.31835409092693" lon="10.043507932221564"><ele>744.8</ele><time>2026-05-03T09:36:42.018Z</time></trkpt><trkpt lat="44.31829454374756" lon="10.043409313278064"><ele>745.4</ele><time>2026-05-03T09:36:43.018Z</time></trkpt><trkpt lat="44.31825549482127" lon="10.043302982628703"><ele>746.0</ele><time>2026-05-03T09:36:44.018Z</time></trkpt><trkpt lat="44.31824328809502" lon="10.043170553875507"><ele>746.8</ele><time>2026-05-03T09:36:45.018Z</time></trkpt><trkpt lat="44.3182569846995" lon="10.043025528397942"><ele>747.5999999999999</ele><time>2026-05-03T09:36:46.018Z</time></trkpt><trkpt lat="44.31828176769918" lon="10.042884205378837"><ele>748.4</ele><time>2026-05-03T09:36:47.018Z</time></trkpt><trkpt lat="44.31829262470538" lon="10.04272625395146"><ele>749.2</ele><time>2026-05-03T09:36:48.018Z</time></trkpt><trkpt lat="44.318291369255455" lon="10.042571335842668"><ele>750.0</ele><time>2026-05-03T09:36:49.018Z</time></trkpt><trkpt lat="44.31829180713447" lon="10.042412441015937"><ele>752.0</ele><time>2026-05-03T09:36:50.018Z</time></trkpt><trkpt lat="44.31829202375011" lon="10.042266024613655"><ele>754.0</ele><time>2026-05-03T09:36:51.018Z</time></trkpt><trkpt lat="44.318280359959424" lon="10.042140654696485"><ele>756.0</ele><time>2026-05-03T09:36:52.018Z</time></trkpt><trkpt lat="44.318244200096856" lon="10.042020868869159"><ele>758.0</ele><time>2026-05-03T09:36:53.018Z</time></trkpt><trkpt lat="44.31818538249327" lon="10.041906392606982"><ele>760.0</ele><time>2026-05-03T09:36:54.018Z</time></trkpt><trkpt lat="44.31810904773904" lon="10.041818076722851"><ele>755.8</ele><time>2026-05-03T09:36:55.018Z</time></trkpt><trkpt lat="44.31801291083326" lon="10.041714634327773"><ele>751.6</ele><time>2026-05-03T09:36:56.018Z</time></trkpt><trkpt lat="44.31792004714779" lon="10.041619007304147"><ele>747.4000000000001</ele><time>2026-05-03T09:36:57.018Z</time></trkpt><trkpt lat="44.31784446465153" lon="10.041510092402415"><ele>743.2</ele><time>2026-05-03T09:36:58.018Z</time></trkpt><trkpt lat="44.317770934753675" lon="10.041418256190509"><ele>739.0</ele><time>2026-05-03T09:36:59.018Z</time></trkpt><trkpt lat="44.317671253615025" lon="10.041378998206518"><ele>739.0</ele><time>2026-05-03T09:37:00.018Z</time></trkpt><trkpt lat="44.31757049471371" lon="10.04135950829133"><ele>739.0</ele><time>2026-05-03T09:37:01.018Z</time></trkpt><trkpt lat="44.31745320044815" lon="10.041350558182527"><ele>739.0</ele><time>2026-05-03T09:37:02.018Z</time></trkpt><trkpt lat="44.317323597122076" lon="10.041341399060611"><ele>739.0</ele><time>2026-05-03T09:37:03.018Z</time></trkpt><trkpt lat="44.31720416455347" lon="10.041321977418475"><ele>734.0</ele><time>2026-05-03T09:37:04.018Z</time></trkpt><trkpt lat="44.31710641253472" lon="10.041299701945452"><ele>729.0</ele><time>2026-05-03T09:37:05.018Z</time></trkpt><trkpt lat="44.31703213918922" lon="10.041263744705695"><ele>724.0</ele><time>2026-05-03T09:37:06.018Z</time></trkpt><trkpt lat="44.316973298407916" lon="10.041194497525856"><ele>719.0</ele><time>2026-05-03T09:37:07.018Z</time></trkpt><trkpt lat="44.31694553535013" lon="10.041069311671592"><ele>714.0</ele><time>2026-05-03T09:37:08.018Z</time></trkpt><trkpt lat="44.31693267472624" lon="10.04091048518806"><ele>713.75</ele><time>2026-05-03T09:37:09.018Z</time></trkpt><trkpt lat="44.31692704981784" lon="10.040732482442046"><ele>713.5</ele><time>2026-05-03T09:37:10.018Z</time></trkpt><trkpt lat="44.31692981396412" lon="10.040542632421985"><ele>713.25</ele><time>2026-05-03T09:37:11.018Z</time></trkpt><trkpt lat="44.31693691202537" lon="10.040321567503552"><ele>713.0</ele><time>2026-05-03T09:37:12.018Z</time></trkpt><trkpt lat="44.31693680521363" lon="10.040093399972193"><ele>711.5</ele><time>2026-05-03T09:37:13.018Z</time></trkpt><trkpt lat="44.316919093496075" lon="10.039870042244571"><ele>710.0</ele><time>2026-05-03T09:37:14.018Z</time></trkpt><trkpt lat="44.31689525215175" lon="10.039671256110335"><ele>708.5</ele><time>2026-05-03T09:37:15.018Z</time></trkpt><trkpt lat="44.31688706463799" lon="10.039479816228038"><ele>707.0</ele><time>2026-05-03T09:37:16.018Z</time></trkpt><trkpt lat="44.31689150739154" lon="10.03929448489838"><ele>704.25</ele><time>2026-05-03T09:37:17.019Z</time></trkpt><trkpt lat="44.316916706760004" lon="10.0391151986821"><ele>701.5</ele><time>2026-05-03T09:37:18.019Z</time></trkpt><trkpt lat="44.31694533505224" lon="10.038931980548602"><ele>698.75</ele><time>2026-05-03T09:37:19.019Z</time></trkpt><trkpt lat="44.316982921102955" lon="10.038736264217038"><ele>696.0</ele><time>2026-05-03T09:37:20.019Z</time></trkpt><trkpt lat="44.317013032411325" lon="10.038546546650608"><ele>696.0</ele><time>2026-05-03T09:37:21.019Z</time></trkpt><trkpt lat="44.31702693447434" lon="10.038362210605646"><ele>696.0</ele><time>2026-05-03T09:37:22.019Z</time></trkpt><trkpt lat="44.31704061924867" lon="10.038180667045816"><ele>696.0</ele><time>2026-05-03T09:37:23.019Z</time></trkpt><trkpt lat="44.317056778061094" lon="10.03799706590333"><ele>696.0</ele><time>2026-05-03T09:37:24.019Z</time></trkpt><trkpt lat="44.31709593130856" lon="10.037816307963569"><ele>692.3333333333334</ele><time>2026-05-03T09:37:25.019Z</time></trkpt><trkpt lat="44.3171470073689" lon="10.037625022276492"><ele>688.6666666666667</ele><time>2026-05-03T09:37:26.019Z</time></trkpt><trkpt lat="44.31721273332188" lon="10.037419176088715"><ele>685.0</ele><time>2026-05-03T09:37:27.019Z</time></trkpt><trkpt lat="44.31727428596488" lon="10.037203199036483"><ele>688.0</ele><time>2026-05-03T09:37:28.019Z</time></trkpt><trkpt lat="44.31732473459048" lon="10.03698755162568"><ele>691.0</ele><time>2026-05-03T09:37:29.019Z</time></trkpt><trkpt lat="44.31736919346996" lon="10.036756485469516"><ele>694.0</ele><time>2026-05-03T09:37:30.019Z</time></trkpt><trkpt lat="44.317436375506034" lon="10.036536437591955"><ele>694.0</ele><time>2026-05-03T09:37:31.019Z</time></trkpt><trkpt lat="44.31750688004388" lon="10.036318454925555"><ele>694.0</ele><time>2026-05-03T09:37:32.019Z</time></trkpt><trkpt lat="44.31758174480844" lon="10.036105357020025"><ele>694.0</ele><time>2026-05-03T09:37:33.019Z</time></trkpt><trkpt lat="44.31764835176931" lon="10.035903453697125"><ele>688.6666666666667</ele><time>2026-05-03T09:37:34.019Z</time></trkpt><trkpt lat="44.317708123938644" lon="10.035702174300972"><ele>683.3333333333334</ele><time>2026-05-03T09:37:35.019Z</time></trkpt><trkpt lat="44.31775754217627" lon="10.0354975302268"><ele>678.0</ele><time>2026-05-03T09:37:36.019Z</time></trkpt><trkpt lat="44.31781218635018" lon="10.035303193488936"><ele>678.0</ele><time>2026-05-03T09:37:37.019Z</time></trkpt><trkpt lat="44.31786778152356" lon="10.035121178891284"><ele>678.0</ele><time>2026-05-03T09:37:38.019Z</time></trkpt><trkpt lat="44.3179293506085" lon="10.034962570762263"><ele>678.0</ele><time>2026-05-03T09:37:39.019Z</time></trkpt><trkpt lat="44.317987369707815" lon="10.03480713988451"><ele>678.0</ele><time>2026-05-03T09:37:40.019Z</time></trkpt><trkpt lat="44.31802061771587" lon="10.034651871743076"><ele>675.5999999999999</ele><time>2026-05-03T09:37:41.019Z</time></trkpt><trkpt lat="44.318035056817784" lon="10.034498751524591"><ele>673.1999999999999</ele><time>2026-05-03T09:37:42.019Z</time></trkpt><trkpt lat="44.31802443308599" lon="10.034357299367146"><ele>670.8</ele><time>2026-05-03T09:37:43.019Z</time></trkpt><trkpt lat="44.317984470474855" lon="10.034231194493586"><ele>668.4</ele><time>2026-05-03T09:37:44.019Z</time></trkpt><trkpt lat="44.31792699303089" lon="10.034104202792758"><ele>666.0</ele><time>2026-05-03T09:37:45.019Z</time></trkpt><trkpt lat="44.31789131175369" lon="10.03398939517982"><ele>665.25</ele><time>2026-05-03T09:37:46.019Z</time></trkpt><trkpt lat="44.31787604081426" lon="10.033853450524589"><ele>664.5</ele><time>2026-05-03T09:37:47.019Z</time></trkpt><trkpt lat="44.3178854314557" lon="10.03369601155889"><ele>663.75</ele><time>2026-05-03T09:37:48.019Z</time></trkpt><trkpt lat="44.31790491103526" lon="10.03353156222954"><ele>663.0</ele><time>2026-05-03T09:37:49.019Z</time></trkpt><trkpt lat="44.317939445437325" lon="10.033360029535398"><ele>663.25</ele><time>2026-05-03T09:37:50.019Z</time></trkpt><trkpt lat="44.31796085106705" lon="10.033187684626583"><ele>663.5</ele><time>2026-05-03T09:37:51.019Z</time></trkpt><trkpt lat="44.31796536052241" lon="10.033028401169819"><ele>663.75</ele><time>2026-05-03T09:37:52.019Z</time></trkpt><trkpt lat="44.31794608558235" lon="10.032878297707022"><ele>664.0</ele><time>2026-05-03T09:37:53.019Z</time></trkpt><trkpt lat="44.31790882104481" lon="10.032731771911692"><ele>664.0</ele><time>2026-05-03T09:37:54.019Z</time></trkpt><trkpt lat="44.31786654223576" lon="10.03258847586023"><ele>664.0</ele><time>2026-05-03T09:37:55.019Z</time></trkpt><trkpt lat="44.31783258603712" lon="10.032461453767528"><ele>664.0</ele><time>2026-05-03T09:37:56.019Z</time></trkpt><trkpt lat="44.31781014340222" lon="10.0323577526834"><ele>664.0</ele><time>2026-05-03T09:37:57.019Z</time></trkpt><trkpt lat="44.31785171955594" lon="10.032204669602981"><ele>664.0</ele><time>2026-05-03T09:37:59.019Z</time></trkpt><trkpt lat="44.31791847348229" lon="10.032155690358183"><ele>666.2</ele><time>2026-05-03T09:38:00.019Z</time></trkpt><trkpt lat="44.31799844482076" lon="10.032124853030743"><ele>668.4000000000001</ele><time>2026-05-03T09:38:01.019Z</time></trkpt><trkpt lat="44.31809319510059" lon="10.032108574508046"><ele>670.6</ele><time>2026-05-03T09:38:02.019Z</time></trkpt><trkpt lat="44.31820265939585" lon="10.032102722217392"><ele>672.8</ele><time>2026-05-03T09:38:03.019Z</time></trkpt><trkpt lat="44.31830338555157" lon="10.032069398391126"><ele>675.0</ele><time>2026-05-03T09:38:04.019Z</time></trkpt><trkpt lat="44.31839276852964" lon="10.03202627629811"><ele>675.0</ele><time>2026-05-03T09:38:05.019Z</time></trkpt><trkpt lat="44.318464658916206" lon="10.031958911164793"><ele>675.0</ele><time>2026-05-03T09:38:06.019Z</time></trkpt><trkpt lat="44.31851991778112" lon="10.031842929259616"><ele>675.0</ele><time>2026-05-03T09:38:07.019Z</time></trkpt><trkpt lat="44.31857225470816" lon="10.031711010692629"><ele>675.0</ele><time>2026-05-03T09:38:08.02Z</time></trkpt><trkpt lat="44.31861880092435" lon="10.031591284756935"><ele>675.0</ele><time>2026-05-03T09:38:09.02Z</time></trkpt><trkpt lat="44.31867005653632" lon="10.031515978308313"><ele>670.0</ele><time>2026-05-03T09:38:10.02Z</time></trkpt><trkpt lat="44.318738915883046" lon="10.031480601276552"><ele>665.0</ele><time>2026-05-03T09:38:11.02Z</time></trkpt><trkpt lat="44.31882248981585" lon="10.031458107837903"><ele>660.0</ele><time>2026-05-03T09:38:12.02Z</time></trkpt><trkpt lat="44.318898220774486" lon="10.031449317507999"><ele>655.0</ele><time>2026-05-03T09:38:13.02Z</time></trkpt><trkpt lat="44.31897831680024" lon="10.031488567049703"><ele>650.0</ele><time>2026-05-03T09:38:15.02Z</time></trkpt><trkpt lat="44.318968689942" lon="10.03137146310986"><ele>645.0</ele><time>2026-05-03T09:38:50.02Z</time></trkpt><trkpt lat="44.31907737618714" lon="10.03134508757084"><ele>645.0</ele><time>2026-05-03T09:38:53.02Z</time></trkpt><trkpt lat="44.31914172713892" lon="10.031353808385104"><ele>645.0</ele><time>2026-05-03T09:38:54.02Z</time></trkpt><trkpt lat="44.319207259005026" lon="10.031369916901602"><ele>645.0</ele><time>2026-05-03T09:38:55.02Z</time></trkpt><trkpt lat="44.31927443362958" lon="10.031413640244034"><ele>645.0</ele><time>2026-05-03T09:38:56.02Z</time></trkpt><trkpt lat="44.319340838199835" lon="10.031473268846208"><ele>645.0</ele><time>2026-05-03T09:38:57.02Z</time></trkpt><trkpt lat="44.31940653222695" lon="10.031513645847816"><ele>645.0</ele><time>2026-05-03T09:38:58.02Z</time></trkpt><trkpt lat="44.319482748507475" lon="10.031527406656291"><ele>645.0</ele><time>2026-05-03T09:38:59.021Z</time></trkpt><trkpt lat="44.319555817419776" lon="10.031511595916415"><ele>645.0</ele><time>2026-05-03T09:39:00.021Z</time></trkpt><trkpt lat="44.3196267590438" lon="10.0314859686776"><ele>645.0</ele><time>2026-05-03T09:39:01.021Z</time></trkpt><trkpt lat="44.31970486628967" lon="10.031424700392767"><ele>645.0</ele><time>2026-05-03T09:39:02.021Z</time></trkpt><trkpt lat="44.31977907121782" lon="10.031344451348094"><ele>645.0</ele><time>2026-05-03T09:39:03.021Z</time></trkpt><trkpt lat="44.31983722246933" lon="10.031241964329746"><ele>645.0</ele><time>2026-05-03T09:39:04.021Z</time></trkpt><trkpt lat="44.31989674858433" lon="10.031139583717424"><ele>645.0</ele><time>2026-05-03T09:39:05.021Z</time></trkpt><trkpt lat="44.31996543763858" lon="10.03103875462137"><ele>642.8</ele><time>2026-05-03T09:39:06.021Z</time></trkpt><trkpt lat="44.320045422070635" lon="10.030975831532226"><ele>640.6</ele><time>2026-05-03T09:39:07.021Z</time></trkpt><trkpt lat="44.320126947469674" lon="10.03091713900981"><ele>638.4</ele><time>2026-05-03T09:39:08.021Z</time></trkpt><trkpt lat="44.3201951517222" lon="10.030832205480388"><ele>636.2</ele><time>2026-05-03T09:39:09.021Z</time></trkpt><trkpt lat="44.320256807048466" lon="10.03072362580256"><ele>634.0</ele><time>2026-05-03T09:39:10.021Z</time></trkpt><trkpt lat="44.3203096059051" lon="10.030612805380994"><ele>634.0</ele><time>2026-05-03T09:39:11.021Z</time></trkpt><trkpt lat="44.320355448162175" lon="10.030506208769724"><ele>634.0</ele><time>2026-05-03T09:39:12.021Z</time></trkpt><trkpt lat="44.32038334839414" lon="10.030401332523917"><ele>634.0</ele><time>2026-05-03T09:39:13.021Z</time></trkpt><trkpt lat="44.32041598005708" lon="10.030322382823867"><ele>634.0</ele><time>2026-05-03T09:39:14.021Z</time></trkpt><trkpt lat="44.32046633701871" lon="10.030267543042864"><ele>634.0</ele><time>2026-05-03T09:39:15.021Z</time></trkpt><trkpt lat="44.32054113120686" lon="10.030240578209016"><ele>634.0</ele><time>2026-05-03T09:39:16.021Z</time></trkpt><trkpt lat="44.32063676002691" lon="10.0302483134209"><ele>639.6</ele><time>2026-05-03T09:39:17.021Z</time></trkpt><trkpt lat="44.320728849728106" lon="10.030260678927727"><ele>645.2</ele><time>2026-05-03T09:39:18.021Z</time></trkpt><trkpt lat="44.32080165077292" lon="10.03024990075651"><ele>650.8000000000001</ele><time>2026-05-03T09:39:19.021Z</time></trkpt><trkpt lat="44.32091228716287" lon="10.030163002462013"><ele>656.4</ele><time>2026-05-03T09:39:21.021Z</time></trkpt><trkpt lat="44.320953975435515" lon="10.030028617385913"><ele>662.0</ele><time>2026-05-03T09:39:22.021Z</time></trkpt><trkpt lat="44.32102271711722" lon="10.029797075575734"><ele>662.0</ele><time>2026-05-03T09:39:23.021Z</time></trkpt><trkpt lat="44.32107956941667" lon="10.029587697356076"><ele>662.0</ele><time>2026-05-03T09:39:24.021Z</time></trkpt><trkpt lat="44.32112577609456" lon="10.029403777945193"><ele>662.0</ele><time>2026-05-03T09:39:25.021Z</time></trkpt><trkpt lat="44.32116363998679" lon="10.029242259536742"><ele>662.0</ele><time>2026-05-03T09:39:26.021Z</time></trkpt><trkpt lat="44.321189670491115" lon="10.029089611869251"><ele>659.2</ele><time>2026-05-03T09:39:27.021Z</time></trkpt><trkpt lat="44.32120107019977" lon="10.028942494149282"><ele>656.4000000000001</ele><time>2026-05-03T09:39:28.021Z</time></trkpt><trkpt lat="44.321198108571515" lon="10.028819944835421"><ele>653.5999999999999</ele><time>2026-05-03T09:39:29.021Z</time></trkpt><trkpt lat="44.3211617276229" lon="10.028686987258018"><ele>650.8</ele><time>2026-05-03T09:39:30.021Z</time></trkpt><trkpt lat="44.32112181968353" lon="10.02856521522833"><ele>648.0</ele><time>2026-05-03T09:39:31.021Z</time></trkpt><trkpt lat="44.32110988689659" lon="10.02846030930914"><ele>648.0</ele><time>2026-05-03T09:39:32.021Z</time></trkpt><trkpt lat="44.321123838538384" lon="10.028372870083844"><ele>648.0</ele><time>2026-05-03T09:39:33.021Z</time></trkpt><trkpt lat="44.32117433199995" lon="10.028280328392169"><ele>648.0</ele><time>2026-05-03T09:39:34.021Z</time></trkpt><trkpt lat="44.32124658417306" lon="10.028206226894177"><ele>648.0</ele><time>2026-05-03T09:39:35.021Z</time></trkpt><trkpt lat="44.32132099210372" lon="10.02815169214993"><ele>648.0</ele><time>2026-05-03T09:39:36.021Z</time></trkpt><trkpt lat="44.32138826383168" lon="10.028092237412386"><ele>648.0</ele><time>2026-05-03T09:39:37.021Z</time></trkpt><trkpt lat="44.32145613074273" lon="10.028006486221027"><ele>652.8</ele><time>2026-05-03T09:39:38.021Z</time></trkpt><trkpt lat="44.321501384034796" lon="10.027899568908152"><ele>657.5999999999999</ele><time>2026-05-03T09:39:39.021Z</time></trkpt><trkpt lat="44.32152645305724" lon="10.027783876486268"><ele>662.4000000000001</ele><time>2026-05-03T09:39:40.021Z</time></trkpt><trkpt lat="44.32157382705904" lon="10.027676553264007"><ele>667.2</ele><time>2026-05-03T09:39:41.021Z</time></trkpt><trkpt lat="44.32164881438832" lon="10.027579993515285"><ele>672.0</ele><time>2026-05-03T09:39:42.021Z</time></trkpt><trkpt lat="44.321730744936936" lon="10.027498058038521"><ele>668.8</ele><time>2026-05-03T09:39:43.021Z</time></trkpt><trkpt lat="44.32180580186089" lon="10.027426659250501"><ele>665.6</ele><time>2026-05-03T09:39:44.021Z</time></trkpt><trkpt lat="44.3218733049353" lon="10.027356126906765"><ele>662.4</ele><time>2026-05-03T09:39:45.021Z</time></trkpt><trkpt lat="44.321929997196484" lon="10.027247252038634"><ele>659.1999999999999</ele><time>2026-05-03T09:39:46.021Z</time></trkpt><trkpt lat="44.32195318460424" lon="10.027110604888152"><ele>656.0</ele><time>2026-05-03T09:39:47.021Z</time></trkpt><trkpt lat="44.321954255279806" lon="10.02697276138576"><ele>656.0</ele><time>2026-05-03T09:39:48.021Z</time></trkpt><trkpt lat="44.321929475593606" lon="10.026844142855051"><ele>656.0</ele><time>2026-05-03T09:39:49.021Z</time></trkpt><trkpt lat="44.32188352014857" lon="10.026707361489278"><ele>656.0</ele><time>2026-05-03T09:39:50.022Z</time></trkpt><trkpt lat="44.32180886368028" lon="10.026558094961691"><ele>656.0</ele><time>2026-05-03T09:39:51.022Z</time></trkpt><trkpt lat="44.32172883086017" lon="10.026390012351062"><ele>656.25</ele><time>2026-05-03T09:39:52.022Z</time></trkpt><trkpt lat="44.321670768680626" lon="10.026218399804966"><ele>656.5</ele><time>2026-05-03T09:39:53.022Z</time></trkpt><trkpt lat="44.321608366435996" lon="10.02604087022225"><ele>656.75</ele><time>2026-05-03T09:39:54.022Z</time></trkpt><trkpt lat="44.3215563502029" lon="10.025869400231503"><ele>657.0</ele><time>2026-05-03T09:39:55.022Z</time></trkpt><trkpt lat="44.32150362680996" lon="10.025717458582006"><ele>655.8</ele><time>2026-05-03T09:39:56.022Z</time></trkpt><trkpt lat="44.321457269911235" lon="10.025590895003617"><ele>654.6</ele><time>2026-05-03T09:39:57.022Z</time></trkpt><trkpt lat="44.32139672612893" lon="10.02545839276769"><ele>653.4</ele><time>2026-05-03T09:39:58.022Z</time></trkpt><trkpt lat="44.32138152060864" lon="10.025304833295746"><ele>652.1999999999999</ele><time>2026-05-03T09:40:00.022Z</time></trkpt><trkpt lat="44.321415427883906" lon="10.025229132487468"><ele>651.0</ele><time>2026-05-03T09:40:01.022Z</time></trkpt><trkpt lat="44.321485333121075" lon="10.025166514433046"><ele>651.0</ele><time>2026-05-03T09:40:02.022Z</time></trkpt><trkpt lat="44.32157541527717" lon="10.025108656953975"><ele>651.0</ele><time>2026-05-03T09:40:03.022Z</time></trkpt><trkpt lat="44.32167871044851" lon="10.025063241912871"><ele>651.0</ele><time>2026-05-03T09:40:04.022Z</time></trkpt><trkpt lat="44.32178226682663" lon="10.025011450135706"><ele>651.0</ele><time>2026-05-03T09:40:05.022Z</time></trkpt><trkpt lat="44.321872396030585" lon="10.024949921074102"><ele>651.0</ele><time>2026-05-03T09:40:06.022Z</time></trkpt><trkpt lat="44.32195304399751" lon="10.024886957581062"><ele>645.5999999999999</ele><time>2026-05-03T09:40:07.022Z</time></trkpt><trkpt lat="44.32202167505083" lon="10.024791783329734"><ele>640.1999999999999</ele><time>2026-05-03T09:40:08.022Z</time></trkpt><trkpt lat="44.32208584768654" lon="10.024676359285815"><ele>634.8</ele><time>2026-05-03T09:40:09.022Z</time></trkpt><trkpt lat="44.32213880295609" lon="10.024538637226307"><ele>629.4</ele><time>2026-05-03T09:40:10.022Z</time></trkpt><trkpt lat="44.32217478474835" lon="10.024405328487395"><ele>624.0</ele><time>2026-05-03T09:40:11.022Z</time></trkpt><trkpt lat="44.32220823414529" lon="10.02428244457117"><ele>626.1666666666666</ele><time>2026-05-03T09:40:12.022Z</time></trkpt><trkpt lat="44.32225018537922" lon="10.024199349698609"><ele>628.3333333333334</ele><time>2026-05-03T09:40:13.022Z</time></trkpt><trkpt lat="44.32232308523477" lon="10.024155797731057"><ele>630.5</ele><time>2026-05-03T09:40:14.022Z</time></trkpt><trkpt lat="44.322396869372106" lon="10.024148682964912"><ele>632.6666666666667</ele><time>2026-05-03T09:40:15.022Z</time></trkpt><trkpt lat="44.322470023288034" lon="10.024195095750041"><ele>634.8333333333334</ele><time>2026-05-03T09:40:16.022Z</time></trkpt><trkpt lat="44.322551966849744" lon="10.024271035872408"><ele>637.0</ele><time>2026-05-03T09:40:17.022Z</time></trkpt><trkpt lat="44.322640464106954" lon="10.024346098810387"><ele>637.0</ele><time>2026-05-03T09:40:18.022Z</time></trkpt><trkpt lat="44.32272546582595" lon="10.024422176535356"><ele>637.0</ele><time>2026-05-03T09:40:19.022Z</time></trkpt><trkpt lat="44.32282508808861" lon="10.024486904501245"><ele>637.0</ele><time>2026-05-03T09:40:20.022Z</time></trkpt><trkpt lat="44.32291630752008" lon="10.024567615154952"><ele>637.0</ele><time>2026-05-03T09:40:21.022Z</time></trkpt><trkpt lat="44.32301114898552" lon="10.024641568238689"><ele>637.0</ele><time>2026-05-03T09:40:22.022Z</time></trkpt><trkpt lat="44.32310915331749" lon="10.024711461675617"><ele>633.4</ele><time>2026-05-03T09:40:23.022Z</time></trkpt><trkpt lat="44.3232030588314" lon="10.024789453048015"><ele>629.8000000000001</ele><time>2026-05-03T09:40:24.022Z</time></trkpt><trkpt lat="44.323291712948034" lon="10.024842005173436"><ele>626.2</ele><time>2026-05-03T09:40:25.022Z</time></trkpt><trkpt lat="44.32338192821325" lon="10.024869540129396"><ele>622.6</ele><time>2026-05-03T09:40:26.022Z</time></trkpt><trkpt lat="44.32346863460982" lon="10.024859186927161"><ele>619.0</ele><time>2026-05-03T09:40:27.022Z</time></trkpt><trkpt lat="44.32355995091054" lon="10.024802375568315"><ele>619.0</ele><time>2026-05-03T09:40:28.022Z</time></trkpt><trkpt lat="44.32365763355853" lon="10.024714866112529"><ele>619.0</ele><time>2026-05-03T09:40:29.022Z</time></trkpt><trkpt lat="44.323755416822316" lon="10.02459886091956"><ele>619.0</ele><time>2026-05-03T09:40:30.022Z</time></trkpt><trkpt lat="44.32383911242209" lon="10.02446746894394"><ele>619.0</ele><time>2026-05-03T09:40:31.022Z</time></trkpt><trkpt lat="44.32389501454978" lon="10.024332488375608"><ele>621.2</ele><time>2026-05-03T09:40:32.022Z</time></trkpt><trkpt lat="44.323944775755294" lon="10.02420943180036"><ele>623.4</ele><time>2026-05-03T09:40:33.022Z</time></trkpt><trkpt lat="44.32401055207736" lon="10.024110538552648"><ele>625.6</ele><time>2026-05-03T09:40:34.022Z</time></trkpt><trkpt lat="44.32409911963845" lon="10.024039292457912"><ele>627.8</ele><time>2026-05-03T09:40:35.022Z</time></trkpt><trkpt lat="44.32419864717609" lon="10.023970465885514"><ele>630.0</ele><time>2026-05-03T09:40:36.022Z</time></trkpt><trkpt lat="44.32429006078742" lon="10.023898696682268"><ele>622.8</ele><time>2026-05-03T09:40:37.022Z</time></trkpt><trkpt lat="44.324382781396665" lon="10.023837304858684"><ele>615.6</ele><time>2026-05-03T09:40:38.022Z</time></trkpt><trkpt lat="44.324465314838136" lon="10.023785772906864"><ele>608.4</ele><time>2026-05-03T09:40:39.022Z</time></trkpt><trkpt lat="44.32455274540553" lon="10.023765856367273"><ele>601.2</ele><time>2026-05-03T09:40:40.022Z</time></trkpt><trkpt lat="44.324639452131066" lon="10.023758374899264"><ele>594.0</ele><time>2026-05-03T09:40:41.023Z</time></trkpt><trkpt lat="44.32472174969512" lon="10.02374437081097"><ele>596.1666666666666</ele><time>2026-05-03T09:40:42.023Z</time></trkpt><trkpt lat="44.32479493081542" lon="10.023703672778199"><ele>598.3333333333334</ele><time>2026-05-03T09:40:43.023Z</time></trkpt><trkpt lat="44.32485880621183" lon="10.023638989670351"><ele>600.5</ele><time>2026-05-03T09:40:44.023Z</time></trkpt><trkpt lat="44.32490662278299" lon="10.023551702800152"><ele>602.6666666666667</ele><time>2026-05-03T09:40:45.023Z</time></trkpt><trkpt lat="44.324939807804434" lon="10.023447322607689"><ele>604.8333333333334</ele><time>2026-05-03T09:40:46.023Z</time></trkpt><trkpt lat="44.324951393183966" lon="10.023325747880039"><ele>607.0</ele><time>2026-05-03T09:40:47.023Z</time></trkpt><trkpt lat="44.3249545114332" lon="10.023208115634782"><ele>607.0</ele><time>2026-05-03T09:40:48.023Z</time></trkpt><trkpt lat="44.32495567038217" lon="10.023076771973308"><ele>607.0</ele><time>2026-05-03T09:40:49.023Z</time></trkpt><trkpt lat="44.32497391512677" lon="10.022957907869248"><ele>607.0</ele><time>2026-05-03T09:40:50.023Z</time></trkpt><trkpt lat="44.32499986705621" lon="10.02284499948398"><ele>607.0</ele><time>2026-05-03T09:40:51.023Z</time></trkpt><trkpt lat="44.32505026623719" lon="10.022749264923917"><ele>607.0</ele><time>2026-05-03T09:40:52.023Z</time></trkpt><trkpt lat="44.32510469044351" lon="10.022652317773705"><ele>607.0</ele><time>2026-05-03T09:40:53.023Z</time></trkpt><trkpt lat="44.325163990229846" lon="10.022544682182634"><ele>602.8000000000001</ele><time>2026-05-03T09:40:54.023Z</time></trkpt><trkpt lat="44.32521110535463" lon="10.022428405271745"><ele>598.6</ele><time>2026-05-03T09:40:55.023Z</time></trkpt><trkpt lat="44.32524522486684" lon="10.022302289334451"><ele>594.4000000000001</ele><time>2026-05-03T09:40:56.023Z</time></trkpt><trkpt lat="44.32526352712312" lon="10.022168412086902"><ele>590.2</ele><time>2026-05-03T09:40:57.023Z</time></trkpt><trkpt lat="44.32527714528289" lon="10.022046400137475"><ele>586.0</ele><time>2026-05-03T09:40:58.023Z</time></trkpt><trkpt lat="44.32530573494723" lon="10.021931677503527"><ele>586.0</ele><time>2026-05-03T09:40:59.023Z</time></trkpt><trkpt lat="44.325350689172836" lon="10.021826664182608"><ele>586.0</ele><time>2026-05-03T09:41:00.023Z</time></trkpt><trkpt lat="44.32541310249011" lon="10.021702444555881"><ele>586.0</ele><time>2026-05-03T09:41:01.023Z</time></trkpt><trkpt lat="44.32547389705062" lon="10.021577617763974"><ele>586.0</ele><time>2026-05-03T09:41:02.023Z</time></trkpt><trkpt lat="44.32554603717523" lon="10.02145016431957"><ele>586.0</ele><time>2026-05-03T09:41:03.023Z</time></trkpt><trkpt lat="44.32562570627865" lon="10.021329960057784"><ele>588.4</ele><time>2026-05-03T09:41:04.023Z</time></trkpt><trkpt lat="44.325692308385044" lon="10.02120473739684"><ele>590.8</ele><time>2026-05-03T09:41:05.023Z</time></trkpt><trkpt lat="44.32576563507567" lon="10.021089962920286"><ele>593.1999999999999</ele><time>2026-05-03T09:41:06.023Z</time></trkpt><trkpt lat="44.32583972728536" lon="10.020974905672839"><ele>595.6</ele><time>2026-05-03T09:41:07.023Z</time></trkpt><trkpt lat="44.32591749511639" lon="10.020868804612823"><ele>598.0</ele><time>2026-05-03T09:41:08.023Z</time></trkpt><trkpt lat="44.32599233972849" lon="10.020753380203567"><ele>590.5</ele><time>2026-05-03T09:41:09.023Z</time></trkpt><trkpt lat="44.32608750417661" lon="10.02063842931215"><ele>583.0</ele><time>2026-05-03T09:41:10.023Z</time></trkpt><trkpt lat="44.32617143424672" lon="10.020535000322804"><ele>575.5</ele><time>2026-05-03T09:41:11.023Z</time></trkpt><trkpt lat="44.32625365187988" lon="10.020435759993788"><ele>568.0</ele><time>2026-05-03T09:41:12.023Z</time></trkpt><trkpt lat="44.3263210825648" lon="10.020316006791562"><ele>568.0</ele><time>2026-05-03T09:41:13.023Z</time></trkpt><trkpt lat="44.326361456528325" lon="10.020189305304186"><ele>568.0</ele><time>2026-05-03T09:41:14.008Z</time></trkpt><trkpt lat="44.3263947861961" lon="10.020048435236841"><ele>568.0</ele><time>2026-05-03T09:41:15.008Z</time></trkpt><trkpt lat="44.326410346281186" lon="10.0199006100425"><ele>568.0</ele><time>2026-05-03T09:41:16.008Z</time></trkpt><trkpt lat="44.326416026035886" lon="10.01975327387737"><ele>568.0</ele><time>2026-05-03T09:41:17.008Z</time></trkpt><trkpt lat="44.32640132685068" lon="10.01958854407973"><ele>570.0</ele><time>2026-05-03T09:41:18.008Z</time></trkpt><trkpt lat="44.32632993068495" lon="10.019425459576174"><ele>572.0</ele><time>2026-05-03T09:41:19.008Z</time></trkpt><trkpt lat="44.32625956923351" lon="10.019269672830402"><ele>574.0</ele><time>2026-05-03T09:41:20.008Z</time></trkpt><trkpt lat="44.32621603736955" lon="10.019099596575082"><ele>576.0</ele><time>2026-05-03T09:41:21.008Z</time></trkpt><trkpt lat="44.32617667359408" lon="10.018924831369212"><ele>576.0</ele><time>2026-05-03T09:41:22.008Z</time></trkpt><trkpt lat="44.32612637119013" lon="10.018769788960915"><ele>576.0</ele><time>2026-05-03T09:41:23.008Z</time></trkpt><trkpt lat="44.326041175012925" lon="10.018621589079357"><ele>576.0</ele><time>2026-05-03T09:41:24.008Z</time></trkpt><trkpt lat="44.32594688898233" lon="10.018470452501075"><ele>576.0</ele><time>2026-05-03T09:41:25.008Z</time></trkpt><trkpt lat="44.32586574443134" lon="10.018306288932674"><ele>579.0</ele><time>2026-05-03T09:41:26.008Z</time></trkpt><trkpt lat="44.32581125674117" lon="10.018119074965856"><ele>582.0</ele><time>2026-05-03T09:41:27.008Z</time></trkpt><trkpt lat="44.32574789399887" lon="10.017914907380337"><ele>585.0</ele><time>2026-05-03T09:41:28.008Z</time></trkpt><trkpt lat="44.32567800697776" lon="10.017696525479742"><ele>582.3333333333334</ele><time>2026-05-03T09:41:29.008Z</time></trkpt><trkpt lat="44.3256015894391" lon="10.017483192877329"><ele>579.6666666666667</ele><time>2026-05-03T09:41:30.008Z</time></trkpt><trkpt lat="44.325542637238165" lon="10.017281087415602"><ele>577.0</ele><time>2026-05-03T09:41:31.008Z</time></trkpt><trkpt lat="44.325485453962635" lon="10.017089431502784"><ele>570.2</ele><time>2026-05-03T09:41:32.009Z</time></trkpt><trkpt lat="44.32541708585213" lon="10.016924110354442"><ele>563.4000000000001</ele><time>2026-05-03T09:41:33.009Z</time></trkpt><trkpt lat="44.32534138278836" lon="10.016787578463966"><ele>556.5999999999999</ele><time>2026-05-03T09:41:34.009Z</time></trkpt><trkpt lat="44.325274639807915" lon="10.016685176611828"><ele>549.8</ele><time>2026-05-03T09:41:35.009Z</time></trkpt><trkpt lat="44.32522121254811" lon="10.01659673297654"><ele>543.0</ele><time>2026-05-03T09:41:36.009Z</time></trkpt><trkpt lat="44.32520816551944" lon="10.016507673152912"><ele>543.0</ele><time>2026-05-03T09:41:37.009Z</time></trkpt><trkpt lat="44.325246661266476" lon="10.016420394694117"><ele>543.0</ele><time>2026-05-03T09:41:38.009Z</time></trkpt><trkpt lat="44.32530127552102" lon="10.016373534877244"><ele>543.0</ele><time>2026-05-03T09:41:39.009Z</time></trkpt><trkpt lat="44.325374144082225" lon="10.016342562509301"><ele>543.0</ele><time>2026-05-03T09:41:40.009Z</time></trkpt><trkpt lat="44.3254637636742" lon="10.016352117373899"><ele>543.0</ele><time>2026-05-03T09:41:41.009Z</time></trkpt><trkpt lat="44.32555673870532" lon="10.01637742379381"><ele>543.0</ele><time>2026-05-03T09:41:42.009Z</time></trkpt><trkpt lat="44.325655684437244" lon="10.016420818712758"><ele>543.0</ele><time>2026-05-03T09:41:43.009Z</time></trkpt><trkpt lat="44.32575401208751" lon="10.016435715888495"><ele>543.0</ele><time>2026-05-03T09:41:44.009Z</time></trkpt><trkpt lat="44.32584426256123" lon="10.016407151584465"><ele>543.0</ele><time>2026-05-03T09:41:45.009Z</time></trkpt><trkpt lat="44.32594237737002" lon="10.016340193555537"><ele>543.0</ele><time>2026-05-03T09:41:46.009Z</time></trkpt><trkpt lat="44.326042719028486" lon="10.016246921711511"><ele>543.0</ele><time>2026-05-03T09:41:47.009Z</time></trkpt><trkpt lat="44.32612611878569" lon="10.01616638079568"><ele>543.0</ele><time>2026-05-03T09:41:48.009Z</time></trkpt><trkpt lat="44.32620761552666" lon="10.01611251000728"><ele>543.0</ele><time>2026-05-03T09:41:49.009Z</time></trkpt><trkpt lat="44.32628235580641" lon="10.016096498011294"><ele>543.0</ele><time>2026-05-03T09:41:50.009Z</time></trkpt><trkpt lat="44.326363217864895" lon="10.016138061809325"><ele>543.0</ele><time>2026-05-03T09:41:51.009Z</time></trkpt><trkpt lat="44.32643738987564" lon="10.016201211887658"><ele>543.0</ele><time>2026-05-03T09:41:52.009Z</time></trkpt><trkpt lat="44.326520721771175" lon="10.016299259648775"><ele>543.0</ele><time>2026-05-03T09:41:53.009Z</time></trkpt><trkpt lat="44.326621259365155" lon="10.016393012118087"><ele>541.1999999999999</ele><time>2026-05-03T09:41:54.009Z</time></trkpt><trkpt lat="44.32672290859974" lon="10.01648448814082"><ele>539.4</ele><time>2026-05-03T09:41:55.009Z</time></trkpt><trkpt lat="44.32681214165891" lon="10.016568728260006"><ele>537.5999999999999</ele><time>2026-05-03T09:41:56.009Z</time></trkpt><trkpt lat="44.32689379095408" lon="10.016635485008267"><ele>535.8</ele><time>2026-05-03T09:41:57.009Z</time></trkpt><trkpt lat="44.32697671657129" lon="10.016681624377966"><ele>534.0</ele><time>2026-05-03T09:41:58.009Z</time></trkpt><trkpt lat="44.32705080060082" lon="10.016659104280848"><ele>534.0</ele><time>2026-05-03T09:41:59.009Z</time></trkpt><trkpt lat="44.327134614161054" lon="10.016587535944748"><ele>534.0</ele><time>2026-05-03T09:42:00.009Z</time></trkpt><trkpt lat="44.32721583823308" lon="10.016510952857345"><ele>534.0</ele><time>2026-05-03T09:42:01.008Z</time></trkpt><trkpt lat="44.32729321331998" lon="10.016413421537045"><ele>534.0</ele><time>2026-05-03T09:42:02.007Z</time></trkpt><trkpt lat="44.32738194961116" lon="10.016330834942599"><ele>534.0</ele><time>2026-05-03T09:42:03.007Z</time></trkpt><trkpt lat="44.32745423992909" lon="10.016230401731612"><ele>535.8</ele><time>2026-05-03T09:42:04.007Z</time></trkpt><trkpt lat="44.327500586580975" lon="10.016129218115314"><ele>537.5999999999999</ele><time>2026-05-03T09:42:05.008Z</time></trkpt><trkpt lat="44.327524170726655" lon="10.016009931609222"><ele>539.4</ele><time>2026-05-03T09:42:06.008Z</time></trkpt><trkpt lat="44.32754550835391" lon="10.015870192104124"><ele>541.1999999999999</ele><time>2026-05-03T09:42:07.007Z</time></trkpt><trkpt lat="44.32755314152002" lon="10.015722747087281"><ele>543.0</ele><time>2026-05-03T09:42:08.007Z</time></trkpt><trkpt lat="44.32757898358521" lon="10.015606411404464"><ele>537.4</ele><time>2026-05-03T09:42:09.007Z</time></trkpt><trkpt lat="44.32761602205916" lon="10.015510977084421"><ele>531.8</ele><time>2026-05-03T09:42:10.007Z</time></trkpt><trkpt lat="44.32772140530691" lon="10.015425561435508"><ele>526.2</ele><time>2026-05-03T09:42:12.008Z</time></trkpt><trkpt lat="44.32785410134173" lon="10.015413925434228"><ele>520.6</ele><time>2026-05-03T09:42:14.007Z</time></trkpt><trkpt lat="44.32792221589817" lon="10.01538484871362"><ele>515.0</ele><time>2026-05-03T09:42:15.007Z</time></trkpt><trkpt lat="44.32797584658994" lon="10.015311813046887"><ele>515.0</ele><time>2026-05-03T09:42:16.007Z</time></trkpt><trkpt lat="44.328023003973385" lon="10.015215010389364"><ele>515.0</ele><time>2026-05-03T09:42:17.007Z</time></trkpt><trkpt lat="44.32805224160539" lon="10.015101058266637"><ele>515.0</ele><time>2026-05-03T09:42:18.007Z</time></trkpt><trkpt lat="44.32805474531187" lon="10.014964200512"><ele>515.0</ele><time>2026-05-03T09:42:19.007Z</time></trkpt><trkpt lat="44.328039743006016" lon="10.014816016439555"><ele>515.0</ele><time>2026-05-03T09:42:20.007Z</time></trkpt><trkpt lat="44.32801820390083" lon="10.014668938622794"><ele>514.0</ele><time>2026-05-03T09:42:21.007Z</time></trkpt><trkpt lat="44.32795983863458" lon="10.014515862791212"><ele>513.0</ele><time>2026-05-03T09:42:22.007Z</time></trkpt><trkpt lat="44.327882150417814" lon="10.014377792068977"><ele>512.0</ele><time>2026-05-03T09:42:23.007Z</time></trkpt><trkpt lat="44.32780603589004" lon="10.014250924129138"><ele>511.0</ele><time>2026-05-03T09:42:24.007Z</time></trkpt><trkpt lat="44.32773596923647" lon="10.014131528807455"><ele>511.0</ele><time>2026-05-03T09:42:25.007Z</time></trkpt><trkpt lat="44.32768511801493" lon="10.014023750801519"><ele>511.0</ele><time>2026-05-03T09:42:26.007Z</time></trkpt><trkpt lat="44.32765759869787" lon="10.013921740631663"><ele>511.0</ele><time>2026-05-03T09:42:27.007Z</time></trkpt><trkpt lat="44.32765298328566" lon="10.013802278084304"><ele>511.0</ele><time>2026-05-03T09:42:28.007Z</time></trkpt><trkpt lat="44.32765841864316" lon="10.013651303135228"><ele>511.0</ele><time>2026-05-03T09:42:29.008Z</time></trkpt><trkpt lat="44.32765827594934" lon="10.013492321441792"><ele>511.00000000000006</ele><time>2026-05-03T09:42:30.008Z</time></trkpt><trkpt lat="44.32765241893623" lon="10.013351746011583"><ele>511.0</ele><time>2026-05-03T09:42:31.008Z</time></trkpt><trkpt lat="44.32766125110923" lon="10.013253772191145"><ele>511.0</ele><time>2026-05-03T09:42:32.008Z</time></trkpt><trkpt lat="44.32768489154374" lon="10.013171916136708"><ele>511.0</ele><time>2026-05-03T09:42:33.008Z</time></trkpt><trkpt lat="44.327748014961685" lon="10.013104107847136"><ele>511.00000000000006</ele><time>2026-05-03T09:42:34.008Z</time></trkpt><trkpt lat="44.327808908766464" lon="10.013013820630736"><ele>511.0</ele><time>2026-05-03T09:42:35.008Z</time></trkpt><trkpt lat="44.32785437900744" lon="10.012891193984604"><ele>509.4</ele><time>2026-05-03T09:42:36.008Z</time></trkpt><trkpt lat="44.32787882376181" lon="10.012726399416472"><ele>507.8</ele><time>2026-05-03T09:42:37.008Z</time></trkpt><trkpt lat="44.32789218084077" lon="10.012569107249767"><ele>506.19999999999993</ele><time>2026-05-03T09:42:38.008Z</time></trkpt><trkpt lat="44.32791220534028" lon="10.01243361135205"><ele>504.59999999999997</ele><time>2026-05-03T09:42:39.008Z</time></trkpt><trkpt lat="44.32792193560564" lon="10.012317984822028"><ele>503.0</ele><time>2026-05-03T09:42:40.008Z</time></trkpt><trkpt lat="44.32791154958967" lon="10.012209724396557"><ele>507.25</ele><time>2026-05-03T09:42:41.008Z</time></trkpt><trkpt lat="44.32787332203399" lon="10.012115277614068"><ele>511.5</ele><time>2026-05-03T09:42:42.008Z</time></trkpt><trkpt lat="44.32778358444876" lon="10.012021117460147"><ele>515.75</ele><time>2026-05-03T09:42:43.008Z</time></trkpt><trkpt lat="44.32768672325125" lon="10.011915058074273"><ele>520.0</ele><time>2026-05-03T09:42:44.008Z</time></trkpt><trkpt lat="44.32757132612998" lon="10.011808394570108"><ele>520.0</ele><time>2026-05-03T09:42:45.008Z</time></trkpt><trkpt lat="44.32746245808608" lon="10.011698911978579"><ele>520.0</ele><time>2026-05-03T09:42:46.008Z</time></trkpt><trkpt lat="44.32736519233776" lon="10.011598993900714"><ele>520.0</ele><time>2026-05-03T09:42:47.008Z</time></trkpt><trkpt lat="44.327257958326406" lon="10.011519989828255"><ele>520.0</ele><time>2026-05-03T09:42:48.008Z</time></trkpt><trkpt lat="44.32713246976593" lon="10.011467735690017"><ele>518.0</ele><time>2026-05-03T09:42:49.008Z</time></trkpt><trkpt lat="44.327024781035675" lon="10.011412513181398"><ele>516.0</ele><time>2026-05-03T09:42:50.008Z</time></trkpt><trkpt lat="44.3269131631935" lon="10.011340795144191"><ele>514.0</ele><time>2026-05-03T09:42:51.008Z</time></trkpt><trkpt lat="44.32679587287022" lon="10.011230010996247"><ele>512.0</ele><time>2026-05-03T09:42:52.008Z</time></trkpt><trkpt lat="44.3266529828073" lon="10.011085763325276"><ele>512.0</ele><time>2026-05-03T09:42:53.008Z</time></trkpt><trkpt lat="44.3265062614124" lon="10.010915225902036"><ele>512.0</ele><time>2026-05-03T09:42:54.008Z</time></trkpt><trkpt lat="44.326376813625714" lon="10.010761430023294"><ele>512.0</ele><time>2026-05-03T09:42:55.008Z</time></trkpt><trkpt lat="44.32628251840543" lon="10.010655805579413"><ele>507.6</ele><time>2026-05-03T09:42:56.008Z</time></trkpt><trkpt lat="44.32619674377257" lon="10.010561880942841"><ele>503.20000000000005</ele><time>2026-05-03T09:42:57.008Z</time></trkpt><trkpt lat="44.3261168607869" lon="10.010467862256936"><ele>498.8</ele><time>2026-05-03T09:42:58.008Z</time></trkpt><trkpt lat="44.3260383249973" lon="10.010362141245944"><ele>494.4</ele><time>2026-05-03T09:42:59.008Z</time></trkpt><trkpt lat="44.32596254839623" lon="10.010270038509738"><ele>490.0</ele><time>2026-05-03T09:43:00.008Z</time></trkpt><trkpt lat="44.3259111564703" lon="10.010172458051892"><ele>490.00000000000006</ele><time>2026-05-03T09:43:01.008Z</time></trkpt><trkpt lat="44.32589486181982" lon="10.010072813814851"><ele>490.0</ele><time>2026-05-03T09:43:02.008Z</time></trkpt><trkpt lat="44.32588028967534" lon="10.009947468259961"><ele>490.0</ele><time>2026-05-03T09:43:03.008Z</time></trkpt><trkpt lat="44.325861088219774" lon="10.009823953630953"><ele>490.0</ele><time>2026-05-03T09:43:04.008Z</time></trkpt><trkpt lat="44.32582593228127" lon="10.00970536318926"><ele>490.00000000000006</ele><time>2026-05-03T09:43:05.008Z</time></trkpt><trkpt lat="44.32578545865475" lon="10.009575329764804"><ele>490.0</ele><time>2026-05-03T09:43:06.008Z</time></trkpt><trkpt lat="44.325700766264426" lon="10.009448071654912"><ele>492.0</ele><time>2026-05-03T09:43:07.008Z</time></trkpt><trkpt lat="44.325641820214564" lon="10.009336997264665"><ele>494.0</ele><time>2026-05-03T09:43:08.008Z</time></trkpt><trkpt lat="44.3255867324306" lon="10.009229508789659"><ele>496.0</ele><time>2026-05-03T09:43:09.008Z</time></trkpt><trkpt lat="44.3255612667324" lon="10.009118326424275"><ele>498.0</ele><time>2026-05-03T09:43:10.008Z</time></trkpt><trkpt lat="44.32562449397375" lon="10.008925355591938"><ele>500.0</ele><time>2026-05-03T09:43:12.008Z</time></trkpt><trkpt lat="44.325701962954085" lon="10.00880405110157"><ele>495.0</ele><time>2026-05-03T09:43:13.008Z</time></trkpt><trkpt lat="44.32579435378539" lon="10.008669425255196"><ele>490.0</ele><time>2026-05-03T09:43:14.008Z</time></trkpt><trkpt lat="44.3259001443789" lon="10.00851599112172"><ele>485.0</ele><time>2026-05-03T09:43:15.008Z</time></trkpt><trkpt lat="44.32599902106333" lon="10.008370233612654"><ele>480.0</ele><time>2026-05-03T09:43:16.008Z</time></trkpt><trkpt lat="44.32607913010263" lon="10.008227811008258"><ele>481.8</ele><time>2026-05-03T09:43:17.008Z</time></trkpt><trkpt lat="44.32615678228536" lon="10.00810198099863"><ele>483.6</ele><time>2026-05-03T09:43:18.008Z</time></trkpt><trkpt lat="44.3262354286106" lon="10.008009865924018"><ele>485.4</ele><time>2026-05-03T09:43:19.008Z</time></trkpt><trkpt lat="44.32631423709729" lon="10.007951865668064"><ele>487.2</ele><time>2026-05-03T09:43:20.009Z</time></trkpt><trkpt lat="44.32639043090685" lon="10.007927178268075"><ele>489.0</ele><time>2026-05-03T09:43:21.009Z</time></trkpt><trkpt lat="44.32645679744682" lon="10.007903057105322"><ele>489.0</ele><time>2026-05-03T09:43:22.009Z</time></trkpt><trkpt lat="44.32649959659048" lon="10.007837958826174"><ele>489.0</ele><time>2026-05-03T09:43:23.009Z</time></trkpt><trkpt lat="44.326530323055536" lon="10.007683162053878"><ele>489.0</ele><time>2026-05-03T09:43:25.009Z</time></trkpt><trkpt lat="44.326498819385904" lon="10.007589479718087"><ele>489.0</ele><time>2026-05-03T09:43:26.009Z</time></trkpt><trkpt lat="44.32644124140311" lon="10.007528024512474"><ele>489.0</ele><time>2026-05-03T09:43:27.009Z</time></trkpt><trkpt lat="44.32636691560899" lon="10.007538966931808"><ele>489.0</ele><time>2026-05-03T09:43:28.009Z</time></trkpt><trkpt lat="44.32627905890954" lon="10.007577906775412"><ele>481.2</ele><time>2026-05-03T09:43:29.009Z</time></trkpt><trkpt lat="44.326211173601266" lon="10.007639722649541"><ele>473.4</ele><time>2026-05-03T09:43:30.009Z</time></trkpt><trkpt lat="44.326150164420575" lon="10.007730552131386"><ele>465.6</ele><time>2026-05-03T09:43:31.009Z</time></trkpt><trkpt lat="44.326086268033606" lon="10.007851427258696"><ele>457.8</ele><time>2026-05-03T09:43:32.009Z</time></trkpt><trkpt lat="44.326020789907155" lon="10.00798114002148"><ele>450.0</ele><time>2026-05-03T09:43:33.009Z</time></trkpt><trkpt lat="44.32594846608886" lon="10.008095108111668"><ele>450.0</ele><time>2026-05-03T09:43:34.009Z</time></trkpt><trkpt lat="44.325876614425184" lon="10.008192009833103"><ele>450.0</ele><time>2026-05-03T09:43:35.009Z</time></trkpt><trkpt lat="44.325799274567146" lon="10.008274132697874"><ele>450.0</ele><time>2026-05-03T09:43:36.009Z</time></trkpt><trkpt lat="44.32570720502777" lon="10.008373294393115"><ele>450.0</ele><time>2026-05-03T09:43:37.009Z</time></trkpt><trkpt lat="44.32560479694028" lon="10.00846438352198"><ele>450.0</ele><time>2026-05-03T09:43:38.009Z</time></trkpt><trkpt lat="44.32550084077909" lon="10.008550596958504"><ele>448.8</ele><time>2026-05-03T09:43:39.009Z</time></trkpt><trkpt lat="44.32539599511963" lon="10.008633762820466"><ele>447.6</ele><time>2026-05-03T09:43:40.009Z</time></trkpt><trkpt lat="44.3252932764894" lon="10.008700148605914"><ele>446.4</ele><time>2026-05-03T09:43:41.009Z</time></trkpt><trkpt lat="44.32519378463037" lon="10.008758655677607"><ele>445.2</ele><time>2026-05-03T09:43:42.009Z</time></trkpt><trkpt lat="44.32511529449756" lon="10.008823506010682"><ele>444.0</ele><time>2026-05-03T09:43:43.009Z</time></trkpt><trkpt lat="44.325039586949124" lon="10.008868103698779"><ele>444.0</ele><time>2026-05-03T09:43:44.009Z</time></trkpt><trkpt lat="44.32497819726636" lon="10.008919155248941"><ele>444.0</ele><time>2026-05-03T09:43:45.009Z</time></trkpt><trkpt lat="44.32492327483306" lon="10.008973030526464"><ele>444.0</ele><time>2026-05-03T09:43:46.009Z</time></trkpt><trkpt lat="44.3248686574399" lon="10.009121735533153"><ele>444.0</ele><time>2026-05-03T09:43:48.009Z</time></trkpt><trkpt lat="44.32487365635579" lon="10.009213509913756"><ele>444.0</ele><time>2026-05-03T09:43:49.009Z</time></trkpt><trkpt lat="44.32490028246388" lon="10.009326976857576"><ele>444.0</ele><time>2026-05-03T09:43:50.009Z</time></trkpt><trkpt lat="44.32496643267377" lon="10.009450016570879"><ele>445.4</ele><time>2026-05-03T09:43:51.009Z</time></trkpt><trkpt lat="44.325043417851056" lon="10.009573813113342"><ele>446.79999999999995</ele><time>2026-05-03T09:43:52.009Z</time></trkpt><trkpt lat="44.325122081255145" lon="10.009687299061019"><ele>448.20000000000005</ele><time>2026-05-03T09:43:53.009Z</time></trkpt><trkpt lat="44.325180175017636" lon="10.009799718526951"><ele>449.6</ele><time>2026-05-03T09:43:54.009Z</time></trkpt><trkpt lat="44.32523552861884" lon="10.009918180586892"><ele>451.0</ele><time>2026-05-03T09:43:55.009Z</time></trkpt><trkpt lat="44.325281110154904" lon="10.010032127811694"><ele>451.0</ele><time>2026-05-03T09:43:56.009Z</time></trkpt><trkpt lat="44.32531754468211" lon="10.010156929609835"><ele>451.0</ele><time>2026-05-03T09:43:57.009Z</time></trkpt><trkpt lat="44.32534712269371" lon="10.010342170981902"><ele>451.0</ele><time>2026-05-03T09:43:58.009Z</time></trkpt><trkpt lat="44.3253714786102" lon="10.01051982018566"><ele>451.0</ele><time>2026-05-03T09:43:59.009Z</time></trkpt><trkpt lat="44.32539912650161" lon="10.010687047802218"><ele>446.75</ele><time>2026-05-03T09:44:00.009Z</time></trkpt><trkpt lat="44.32543425521871" lon="10.010854616520763"><ele>442.5</ele><time>2026-05-03T09:44:01.009Z</time></trkpt><trkpt lat="44.32547074941046" lon="10.011021671946814"><ele>438.25</ele><time>2026-05-03T09:44:02.009Z</time></trkpt><trkpt lat="44.32550857382094" lon="10.011170112610344"><ele>434.0</ele><time>2026-05-03T09:44:03.009Z</time></trkpt><trkpt lat="44.325544184161046" lon="10.01132042948564"><ele>437.6</ele><time>2026-05-03T09:44:04.009Z</time></trkpt><trkpt lat="44.32557499895882" lon="10.011474133162865"><ele>441.2</ele><time>2026-05-03T09:44:05.009Z</time></trkpt><trkpt lat="44.325601910943035" lon="10.01159326807004"><ele>444.80000000000007</ele><time>2026-05-03T09:44:06.009Z</time></trkpt><trkpt lat="44.32565718872358" lon="10.011682953992993"><ele>448.40000000000003</ele><time>2026-05-03T09:44:07.008Z</time></trkpt><trkpt lat="44.32574312301077" lon="10.011750056723065"><ele>452.0</ele><time>2026-05-03T09:44:08.008Z</time></trkpt><trkpt lat="44.3258490025406" lon="10.01181924984599"><ele>452.0</ele><time>2026-05-03T09:44:09.008Z</time></trkpt><trkpt lat="44.32594986902916" lon="10.01188596654321"><ele>452.00000000000006</ele><time>2026-05-03T09:44:10.009Z</time></trkpt><trkpt lat="44.32606065502333" lon="10.01193176103955"><ele>452.00000000000006</ele><time>2026-05-03T09:44:11.009Z</time></trkpt><trkpt lat="44.326156867076854" lon="10.011985484853486"><ele>452.0</ele><time>2026-05-03T09:44:12.009Z</time></trkpt><trkpt lat="44.32622236331113" lon="10.012031470708498"><ele>452.0</ele><time>2026-05-03T09:44:13.009Z</time></trkpt><trkpt lat="44.326275397308876" lon="10.012160795010008"><ele>452.0</ele><time>2026-05-03T09:44:15.008Z</time></trkpt><trkpt lat="44.32621258644005" lon="10.012288651374577"><ele>452.00000000000006</ele><time>2026-05-03T09:44:17.008Z</time></trkpt><trkpt lat="44.32613100341476" lon="10.012297460422804"><ele>452.00000000000006</ele><time>2026-05-03T09:44:18.008Z</time></trkpt><trkpt lat="44.32604779833854" lon="10.012272492884167"><ele>452.0</ele><time>2026-05-03T09:44:19.008Z</time></trkpt><trkpt lat="44.32595405787513" lon="10.012226517443342"><ele>452.0</ele><time>2026-05-03T09:44:20.008Z</time></trkpt><trkpt lat="44.32585164207285" lon="10.012169110149035"><ele>452.0</ele><time>2026-05-03T09:44:21.008Z</time></trkpt><trkpt lat="44.325750792957514" lon="10.012103382206359"><ele>452.00000000000006</ele><time>2026-05-03T09:44:22.008Z</time></trkpt><trkpt lat="44.32565554456723" lon="10.012041815662807"><ele>452.00000000000006</ele><time>2026-05-03T09:44:23.008Z</time></trkpt><trkpt lat="44.325581979666495" lon="10.011967293755797"><ele>452.0</ele><time>2026-05-03T09:44:24.008Z</time></trkpt><trkpt lat="44.32551535067645" lon="10.011876192411028"><ele>452.0</ele><time>2026-05-03T09:44:25.008Z</time></trkpt><trkpt lat="44.32544400576974" lon="10.011766854350448"><ele>447.5</ele><time>2026-05-03T09:44:26.008Z</time></trkpt><trkpt lat="44.325380032036826" lon="10.011633954623251"><ele>443.0</ele><time>2026-05-03T09:44:27.008Z</time></trkpt><trkpt lat="44.32531991977454" lon="10.011492332387515"><ele>438.5</ele><time>2026-05-03T09:44:28.008Z</time></trkpt><trkpt lat="44.325251392013705" lon="10.011365567788562"><ele>434.0</ele><time>2026-05-03T09:44:29.008Z</time></trkpt><trkpt lat="44.325203905500274" lon="10.011236003367538"><ele>434.0</ele><time>2026-05-03T09:44:30.009Z</time></trkpt><trkpt lat="44.325169270075136" lon="10.011102141786342"><ele>434.0</ele><time>2026-05-03T09:44:31.009Z</time></trkpt><trkpt lat="44.32514260706506" lon="10.010960890564167"><ele>434.0</ele><time>2026-05-03T09:44:32.009Z</time></trkpt><trkpt lat="44.32511455708524" lon="10.010828986824746"><ele>434.0</ele><time>2026-05-03T09:44:33.009Z</time></trkpt><trkpt lat="44.325082439564056" lon="10.010712614029291"><ele>434.0</ele><time>2026-05-03T09:44:34.009Z</time></trkpt><trkpt lat="44.32502961723439" lon="10.01061312674916"><ele>437.4</ele><time>2026-05-03T09:44:35.009Z</time></trkpt><trkpt lat="44.32495451878008" lon="10.010533028623046"><ele>440.79999999999995</ele><time>2026-05-03T09:44:36.009Z</time></trkpt><trkpt lat="44.32485403878238" lon="10.010491546251673"><ele>444.20000000000005</ele><time>2026-05-03T09:44:37.009Z</time></trkpt><trkpt lat="44.32474873597515" lon="10.010443852765711"><ele>447.6</ele><time>2026-05-03T09:44:38.009Z</time></trkpt><trkpt lat="44.32467302196941" lon="10.01040159464915"><ele>451.0</ele><time>2026-05-03T09:44:39.009Z</time></trkpt><trkpt lat="44.324603989066446" lon="10.010340629962505"><ele>444.20000000000005</ele><time>2026-05-03T09:44:40.009Z</time></trkpt><trkpt lat="44.32455131538569" lon="10.010244017789963"><ele>437.40000000000003</ele><time>2026-05-03T09:44:41.009Z</time></trkpt><trkpt lat="44.32450644328782" lon="10.010116302093365"><ele>430.6</ele><time>2026-05-03T09:44:42.009Z</time></trkpt><trkpt lat="44.324475448625094" lon="10.00997535486283"><ele>423.8</ele><time>2026-05-03T09:44:43.009Z</time></trkpt><trkpt lat="44.32443386782304" lon="10.009825624180918"><ele>417.0</ele><time>2026-05-03T09:44:44.009Z</time></trkpt><trkpt lat="44.32437397173474" lon="10.009701295902802"><ele>417.0</ele><time>2026-05-03T09:44:45.009Z</time></trkpt><trkpt lat="44.32428085089224" lon="10.009581025631832"><ele>417.0</ele><time>2026-05-03T09:44:46.009Z</time></trkpt><trkpt lat="44.324186772044094" lon="10.009481757942366"><ele>417.0</ele><time>2026-05-03T09:44:47.009Z</time></trkpt><trkpt lat="44.32411508684679" lon="10.009406407314302"><ele>417.0</ele><time>2026-05-03T09:44:48.009Z</time></trkpt><trkpt lat="44.32406696542635" lon="10.009318302332812"><ele>417.0</ele><time>2026-05-03T09:44:49.009Z</time></trkpt><trkpt lat="44.32405463398847" lon="10.009231473956342"><ele>414.40000000000003</ele><time>2026-05-03T09:44:50.009Z</time></trkpt><trkpt lat="44.3240686395246" lon="10.009130910867958"><ele>411.8</ele><time>2026-05-03T09:44:51.009Z</time></trkpt><trkpt lat="44.324086099834624" lon="10.008989678368957"><ele>409.2</ele><time>2026-05-03T09:44:52.009Z</time></trkpt><trkpt lat="44.324118340891914" lon="10.008852414230642"><ele>406.6</ele><time>2026-05-03T09:44:53.009Z</time></trkpt><trkpt lat="44.3241470590118" lon="10.0087200856246"><ele>404.0</ele><time>2026-05-03T09:44:54.009Z</time></trkpt><trkpt lat="44.32419077758086" lon="10.008595938489696"><ele>404.0</ele><time>2026-05-03T09:44:55.009Z</time></trkpt><trkpt lat="44.32423688176855" lon="10.008498530340345"><ele>404.0</ele><time>2026-05-03T09:44:56.009Z</time></trkpt><trkpt lat="44.32429531998384" lon="10.008410566987965"><ele>404.0</ele><time>2026-05-03T09:44:57.009Z</time></trkpt><trkpt lat="44.32437714873352" lon="10.008325119408852"><ele>404.0</ele><time>2026-05-03T09:44:58.009Z</time></trkpt><trkpt lat="44.32446220390425" lon="10.008242109997324"><ele>404.0</ele><time>2026-05-03T09:44:59.009Z</time></trkpt><trkpt lat="44.324555692139086" lon="10.008183134983932"><ele>405.79999999999995</ele><time>2026-05-03T09:45:00.009Z</time></trkpt><trkpt lat="44.32464166749348" lon="10.008127839576852"><ele>407.59999999999997</ele><time>2026-05-03T09:45:01.009Z</time></trkpt><trkpt lat="44.32472557285355" lon="10.00806310474455"><ele>409.4</ele><time>2026-05-03T09:45:02.009Z</time></trkpt><trkpt lat="44.324799062042274" lon="10.007971583200725"><ele>411.2</ele><time>2026-05-03T09:45:03.009Z</time></trkpt><trkpt lat="44.324866116386765" lon="10.007864580519623"><ele>413.0</ele><time>2026-05-03T09:45:04.009Z</time></trkpt><trkpt lat="44.32491445399476" lon="10.00773799774295"><ele>413.0</ele><time>2026-05-03T09:45:05.009Z</time></trkpt><trkpt lat="44.324946958288784" lon="10.007604925991325"><ele>413.0</ele><time>2026-05-03T09:45:06.009Z</time></trkpt><trkpt lat="44.324962405484385" lon="10.007454782302082"><ele>413.0</ele><time>2026-05-03T09:45:07.009Z</time></trkpt><trkpt lat="44.32496242928559" lon="10.007296611860538"><ele>413.0</ele><time>2026-05-03T09:45:08.009Z</time></trkpt><trkpt lat="44.32496182887295" lon="10.00714103779268"><ele>413.0</ele><time>2026-05-03T09:45:09.009Z</time></trkpt><trkpt lat="44.32496310274458" lon="10.00699836866615"><ele>410.0</ele><time>2026-05-03T09:45:10.009Z</time></trkpt><trkpt lat="44.32498444224645" lon="10.006876903663496"><ele>407.0</ele><time>2026-05-03T09:45:11.009Z</time></trkpt><trkpt lat="44.32503257354146" lon="10.006776214168916"><ele>404.0</ele><time>2026-05-03T09:45:12.009Z</time></trkpt><trkpt lat="44.32509197435728" lon="10.006677575024282"><ele>401.0</ele><time>2026-05-03T09:45:13.009Z</time></trkpt><trkpt lat="44.32515703613417" lon="10.006571745941157"><ele>398.0</ele><time>2026-05-03T09:45:14.009Z</time></trkpt><trkpt lat="44.32521122121487" lon="10.00646404340065"><ele>395.2</ele><time>2026-05-03T09:45:15.009Z</time></trkpt><trkpt lat="44.325250921093144" lon="10.006356121991278"><ele>392.4</ele><time>2026-05-03T09:45:16.009Z</time></trkpt><trkpt lat="44.32528672935193" lon="10.006217339273617"><ele>389.59999999999997</ele><time>2026-05-03T09:45:17.009Z</time></trkpt><trkpt lat="44.32531681571059" lon="10.006060185937672"><ele>386.79999999999995</ele><time>2026-05-03T09:45:18.009Z</time></trkpt><trkpt lat="44.3253516337971" lon="10.005895767712156"><ele>384.0</ele><time>2026-05-03T09:45:19.009Z</time></trkpt><trkpt lat="44.325388809673704" lon="10.005739966767898"><ele>383.0</ele><time>2026-05-03T09:45:20.009Z</time></trkpt><trkpt lat="44.32542709249604" lon="10.005598374564954"><ele>382.0</ele><time>2026-05-03T09:45:21.01Z</time></trkpt><trkpt lat="44.325452717526154" lon="10.00545979854209"><ele>381.0</ele><time>2026-05-03T09:45:22.01Z</time></trkpt><trkpt lat="44.325472319598774" lon="10.005301194682554"><ele>380.0</ele><time>2026-05-03T09:45:23.01Z</time></trkpt><trkpt lat="44.32547788455726" lon="10.005120107203247"><ele>380.75</ele><time>2026-05-03T09:45:24.01Z</time></trkpt><trkpt lat="44.32548339202836" lon="10.004934468416534"><ele>381.5</ele><time>2026-05-03T09:45:25.01Z</time></trkpt><trkpt lat="44.3254843622913" lon="10.004754220416824"><ele>382.25</ele><time>2026-05-03T09:45:26.01Z</time></trkpt><trkpt lat="44.32548876994644" lon="10.004583338090384"><ele>383.0</ele><time>2026-05-03T09:45:27.01Z</time></trkpt><trkpt lat="44.325486054834634" lon="10.004417434263658"><ele>383.0</ele><time>2026-05-03T09:45:28.01Z</time></trkpt><trkpt lat="44.32547010748814" lon="10.00426417347351"><ele>383.0</ele><time>2026-05-03T09:45:29.01Z</time></trkpt><trkpt lat="44.325452778446056" lon="10.004111389082796"><ele>383.0</ele><time>2026-05-03T09:45:30.01Z</time></trkpt><trkpt lat="44.32542989499245" lon="10.003963745256197"><ele>383.0</ele><time>2026-05-03T09:45:31.01Z</time></trkpt><trkpt lat="44.3253977206729" lon="10.00384776622686"><ele>383.0</ele><time>2026-05-03T09:45:32.01Z</time></trkpt><trkpt lat="44.32536191901342" lon="10.003761540740037"><ele>384.79999999999995</ele><time>2026-05-03T09:45:33.01Z</time></trkpt><trkpt lat="44.32530844096198" lon="10.003709235834878"><ele>386.6</ele><time>2026-05-03T09:45:34.01Z</time></trkpt><trkpt lat="44.325227327612026" lon="10.003669964428425"><ele>388.4</ele><time>2026-05-03T09:45:35.01Z</time></trkpt><trkpt lat="44.32512760047563" lon="10.003647578151577"><ele>390.20000000000005</ele><time>2026-05-03T09:45:36.01Z</time></trkpt><trkpt lat="44.325022264934994" lon="10.003635130313745"><ele>392.0</ele><time>2026-05-03T09:45:37.01Z</time></trkpt><trkpt lat="44.32491995599121" lon="10.003626921214096"><ele>391.99999999999994</ele><time>2026-05-03T09:45:38.01Z</time></trkpt><trkpt lat="44.32482552086591" lon="10.00361505095162"><ele>392.0</ele><time>2026-05-03T09:45:39.01Z</time></trkpt><trkpt lat="44.32474727756812" lon="10.003598640856216"><ele>392.0</ele><time>2026-05-03T09:45:40.01Z</time></trkpt><trkpt lat="44.32466721379271" lon="10.003558888853565"><ele>392.0</ele><time>2026-05-03T09:45:41.01Z</time></trkpt><trkpt lat="44.32459695379529" lon="10.003475367400037"><ele>391.99999999999994</ele><time>2026-05-03T09:45:42.01Z</time></trkpt><trkpt lat="44.32455125572701" lon="10.003371466966936"><ele>392.0</ele><time>2026-05-03T09:45:43.01Z</time></trkpt><trkpt lat="44.32451115273979" lon="10.003268742419891"><ele>390.16666666666663</ele><time>2026-05-03T09:45:44.01Z</time></trkpt><trkpt lat="44.324489810469004" lon="10.003159218945116"><ele>388.3333333333333</ele><time>2026-05-03T09:45:45.01Z</time></trkpt><trkpt lat="44.32447218139438" lon="10.003058423206792"><ele>386.5</ele><time>2026-05-03T09:45:46.01Z</time></trkpt><trkpt lat="44.32443633450764" lon="10.002946902334841"><ele>384.66666666666663</ele><time>2026-05-03T09:45:47.01Z</time></trkpt><trkpt lat="44.324386684695234" lon="10.00284153275988"><ele>382.8333333333333</ele><time>2026-05-03T09:45:48.01Z</time></trkpt><trkpt lat="44.324327266780294" lon="10.00273468901175"><ele>381.0</ele><time>2026-05-03T09:45:49.01Z</time></trkpt><trkpt lat="44.32426803080557" lon="10.002634490021492"><ele>381.0</ele><time>2026-05-03T09:45:50.01Z</time></trkpt><trkpt lat="44.324208419596246" lon="10.002542150621009"><ele>381.0</ele><time>2026-05-03T09:45:51.01Z</time></trkpt><trkpt lat="44.32415965149579" lon="10.002455297819424"><ele>381.0</ele><time>2026-05-03T09:45:52.01Z</time></trkpt><trkpt lat="44.324130449706075" lon="10.002369199550937"><ele>381.0</ele><time>2026-05-03T09:45:53.01Z</time></trkpt><trkpt lat="44.324151366888664" lon="10.002227516068569"><ele>381.0</ele><time>2026-05-03T09:45:55.01Z</time></trkpt><trkpt lat="44.32425879555647" lon="10.002148190075177"><ele>379.6</ele><time>2026-05-03T09:45:57.01Z</time></trkpt><trkpt lat="44.324331942156974" lon="10.002102168491467"><ele>378.20000000000005</ele><time>2026-05-03T09:45:58.01Z</time></trkpt><trkpt lat="44.324430854413876" lon="10.002088194509502"><ele>376.79999999999995</ele><time>2026-05-03T09:45:59.01Z</time></trkpt><trkpt lat="44.32455075064305" lon="10.002080836732958"><ele>375.4</ele><time>2026-05-03T09:46:00.01Z</time></trkpt><trkpt lat="44.32468399645217" lon="10.002047630435655"><ele>374.0</ele><time>2026-05-03T09:46:01.01Z</time></trkpt><trkpt lat="44.32482475160253" lon="10.002015228577184"><ele>374.0</ele><time>2026-05-03T09:46:02.01Z</time></trkpt><trkpt lat="44.32496479536907" lon="10.001969066010638"><ele>374.0</ele><time>2026-05-03T09:46:03.01Z</time></trkpt><trkpt lat="44.3250980196053" lon="10.001924476560404"><ele>374.0</ele><time>2026-05-03T09:46:04.01Z</time></trkpt><trkpt lat="44.32521971342966" lon="10.001899921012418"><ele>374.0</ele><time>2026-05-03T09:46:05.01Z</time></trkpt><trkpt lat="44.32532935048722" lon="10.001869357674154"><ele>374.0</ele><time>2026-05-03T09:46:06.01Z</time></trkpt><trkpt lat="44.32541922486251" lon="10.001840297926105"><ele>374.0</ele><time>2026-05-03T09:46:07.01Z</time></trkpt><trkpt lat="44.32549616250956" lon="10.00182578678619"><ele>374.0</ele><time>2026-05-03T09:46:08.01Z</time></trkpt><trkpt lat="44.32558332893875" lon="10.001842406306046"><ele>374.0</ele><time>2026-05-03T09:46:09.01Z</time></trkpt><trkpt lat="44.325650732797854" lon="10.001874901735617"><ele>374.0</ele><time>2026-05-03T09:46:10.01Z</time></trkpt><trkpt lat="44.32574462091298" lon="10.00183953351082"><ele>374.0</ele><time>2026-05-03T09:46:12.011Z</time></trkpt><trkpt lat="44.325723532536756" lon="10.001686636309193"><ele>370.4</ele><time>2026-05-03T09:46:14.01Z</time></trkpt><trkpt lat="44.325660351438216" lon="10.001652107352756"><ele>366.79999999999995</ele><time>2026-05-03T09:46:15.01Z</time></trkpt><trkpt lat="44.32557796583974" lon="10.001647035861605"><ele>363.20000000000005</ele><time>2026-05-03T09:46:16.009Z</time></trkpt><trkpt lat="44.32548506832171" lon="10.001622598551938"><ele>359.6</ele><time>2026-05-03T09:46:17.009Z</time></trkpt><trkpt lat="44.325380456118474" lon="10.001587455026018"><ele>356.0</ele><time>2026-05-03T09:46:18.009Z</time></trkpt><trkpt lat="44.32527933350155" lon="10.001563323851885"><ele>356.0</ele><time>2026-05-03T09:46:19.01Z</time></trkpt><trkpt lat="44.32521146753808" lon="10.00155395584741"><ele>356.0</ele><time>2026-05-03T09:46:20.009Z</time></trkpt><trkpt lat="44.325132559884345" lon="10.001485019267154"><ele>356.0</ele><time>2026-05-03T09:46:22.009Z</time></trkpt><trkpt lat="44.325185939415455" lon="10.001353812630736"><ele>356.0</ele><time>2026-05-03T09:46:24.01Z</time></trkpt><trkpt lat="44.325268917254" lon="10.001313629015831"><ele>356.0</ele><time>2026-05-03T09:46:25.01Z</time></trkpt><trkpt lat="44.32535693839627" lon="10.001287502016085"><ele>356.0</ele><time>2026-05-03T09:46:26.009Z</time></trkpt><trkpt lat="44.3254735659737" lon="10.001239074033466"><ele>356.0</ele><time>2026-05-03T09:46:27.009Z</time></trkpt><trkpt lat="44.32561102231123" lon="10.001179697474932"><ele>356.0</ele><time>2026-05-03T09:46:28.009Z</time></trkpt><trkpt lat="44.32573792842738" lon="10.001133512382768"><ele>356.0</ele><time>2026-05-03T09:46:29.009Z</time></trkpt><trkpt lat="44.32585251263852" lon="10.001092643016765"><ele>356.0</ele><time>2026-05-03T09:46:30.009Z</time></trkpt><trkpt lat="44.325957294818814" lon="10.001046224743105"><ele>356.0</ele><time>2026-05-03T09:46:31.009Z</time></trkpt><trkpt lat="44.32603508264967" lon="10.001002014892196"><ele>356.0</ele><time>2026-05-03T09:46:32.009Z</time></trkpt><trkpt lat="44.32608600549482" lon="10.000932478469878"><ele>356.0</ele><time>2026-05-03T09:46:33.009Z</time></trkpt><trkpt lat="44.32612336776526" lon="10.000860288455959"><ele>356.0</ele><time>2026-05-03T09:46:34.01Z</time></trkpt><trkpt lat="44.326139256640154" lon="10.00077455653457"><ele>356.0</ele><time>2026-05-03T09:46:35.01Z</time></trkpt><trkpt lat="44.32612011223279" lon="10.00066897645979"><ele>356.0</ele><time>2026-05-03T09:46:36.01Z</time></trkpt><trkpt lat="44.326090178579754" lon="10.000543977292828"><ele>354.4</ele><time>2026-05-03T09:46:37.01Z</time></trkpt><trkpt lat="44.326043398385515" lon="10.000392088377241"><ele>352.8</ele><time>2026-05-03T09:46:38.01Z</time></trkpt><trkpt lat="44.32600793148417" lon="10.000253726129179"><ele>351.2</ele><time>2026-05-03T09:46:39.01Z</time></trkpt><trkpt lat="44.325976517205895" lon="10.000131561699694"><ele>349.59999999999997</ele><time>2026-05-03T09:46:40.01Z</time></trkpt><trkpt lat="44.3259377247416" lon="10.000024968634417"><ele>348.0</ele><time>2026-05-03T09:46:41.01Z</time></trkpt><trkpt lat="44.32586876602971" lon="9.999935515399667"><ele>348.0</ele><time>2026-05-03T09:46:42.01Z</time></trkpt><trkpt lat="44.32577082583054" lon="9.999861815528169"><ele>348.0</ele><time>2026-05-03T09:46:43.01Z</time></trkpt><trkpt lat="44.32565619463891" lon="9.99979070769652"><ele>348.0</ele><time>2026-05-03T09:46:44.01Z</time></trkpt><trkpt lat="44.32551649442618" lon="9.999726075798199"><ele>348.0</ele><time>2026-05-03T09:46:45.01Z</time></trkpt><trkpt lat="44.32536260596323" lon="9.999649645603338"><ele>347.0</ele><time>2026-05-03T09:46:46.01Z</time></trkpt><trkpt lat="44.325206968676774" lon="9.99957688544787"><ele>346.0</ele><time>2026-05-03T09:46:47.01Z</time></trkpt><trkpt lat="44.325061772196236" lon="9.99950834956768"><ele>345.0</ele><time>2026-05-03T09:46:48.01Z</time></trkpt><trkpt lat="44.32492921628847" lon="9.999437522323998"><ele>345.0</ele><time>2026-05-03T09:46:49.01Z</time></trkpt><trkpt lat="44.3248008340324" lon="9.999384521864142"><ele>345.0</ele><time>2026-05-03T09:46:50.01Z</time></trkpt><trkpt lat="44.324657152350376" lon="9.999329279818722"><ele>345.0</ele><time>2026-05-03T09:46:51.01Z</time></trkpt><trkpt lat="44.324519318867814" lon="9.999269987847164"><ele>345.0</ele><time>2026-05-03T09:46:52.01Z</time></trkpt><trkpt lat="44.324387460548415" lon="9.999215498688368"><ele>342.0</ele><time>2026-05-03T09:46:53.01Z</time></trkpt><trkpt lat="44.324266476673536" lon="9.999160124295823"><ele>339.0</ele><time>2026-05-03T09:46:54.01Z</time></trkpt><trkpt lat="44.32414394921315" lon="9.999111269718039"><ele>336.0</ele><time>2026-05-03T09:46:55.01Z</time></trkpt><trkpt lat="44.32403426238535" lon="9.999066052988166"><ele>333.0</ele><time>2026-05-03T09:46:56.01Z</time></trkpt><trkpt lat="44.32392754995241" lon="9.99902225426273"><ele>332.2</ele><time>2026-05-03T09:46:57.01Z</time></trkpt><trkpt lat="44.32382110903264" lon="9.998999525987733"><ele>331.4</ele><time>2026-05-03T09:46:58.01Z</time></trkpt><trkpt lat="44.32371796396865" lon="9.998989144554205"><ele>330.59999999999997</ele><time>2026-05-03T09:46:59.01Z</time></trkpt><trkpt lat="44.32362065367022" lon="9.998978046378573"><ele>329.79999999999995</ele><time>2026-05-03T09:47:00.01Z</time></trkpt><trkpt lat="44.32354234567834" lon="9.99893531165939"><ele>329.0</ele><time>2026-05-03T09:47:01.01Z</time></trkpt><trkpt lat="44.32349486811867" lon="9.998856248600696"><ele>329.0</ele><time>2026-05-03T09:47:02.01Z</time></trkpt><trkpt lat="44.32347949839561" lon="9.998740685136438"><ele>329.0</ele><time>2026-05-03T09:47:03.01Z</time></trkpt><trkpt lat="44.32347713312816" lon="9.998613118685254"><ele>329.0</ele><time>2026-05-03T09:47:04.01Z</time></trkpt><trkpt lat="44.32344174769062" lon="9.998458687194498"><ele>329.0</ele><time>2026-05-03T09:47:06.01Z</time></trkpt><trkpt lat="44.32337544447955" lon="9.998378736329117"><ele>329.0</ele><time>2026-05-03T09:47:07.01Z</time></trkpt><trkpt lat="44.323276860430276" lon="9.998298628652195"><ele>327.6666666666667</ele><time>2026-05-03T09:47:08.01Z</time></trkpt><trkpt lat="44.32314401961125" lon="9.998183168497851"><ele>326.3333333333333</ele><time>2026-05-03T09:47:09.01Z</time></trkpt><trkpt lat="44.322992041363406" lon="9.998053277142722"><ele>325.0</ele><time>2026-05-03T09:47:10.01Z</time></trkpt><trkpt lat="44.322820134895295" lon="9.997933219823748"><ele>325.0</ele><time>2026-05-03T09:47:11.01Z</time></trkpt><trkpt lat="44.322678172270884" lon="9.997847883151335"><ele>325.0</ele><time>2026-05-03T09:47:12.01Z</time></trkpt><trkpt lat="44.32255771087744" lon="9.997769692804345"><ele>325.0</ele><time>2026-05-03T09:47:13.01Z</time></trkpt><trkpt lat="44.322461214741885" lon="9.997712700665248"><ele>325.0</ele><time>2026-05-03T09:47:14.01Z</time></trkpt><trkpt lat="44.32237678677128" lon="9.997674312851158"><ele>325.0</ele><time>2026-05-03T09:47:15.01Z</time></trkpt><trkpt lat="44.32230458029013" lon="9.997639380495846"><ele>325.0</ele><time>2026-05-03T09:47:16.01Z</time></trkpt><trkpt lat="44.32222937377538" lon="9.997582128005392"><ele>325.0</ele><time>2026-05-03T09:47:18.01Z</time></trkpt><trkpt lat="44.322284931649214" lon="9.997488026743243"><ele>325.0</ele><time>2026-05-03T09:47:20.01Z</time></trkpt><trkpt lat="44.32240758700484" lon="9.997504591665708"><ele>325.0</ele><time>2026-05-03T09:47:22.01Z</time></trkpt><trkpt lat="44.32249177746872" lon="9.99757619459703"><ele>325.0</ele><time>2026-05-03T09:47:23.01Z</time></trkpt><trkpt lat="44.32258132511535" lon="9.997637592322427"><ele>325.0</ele><time>2026-05-03T09:47:24.01Z</time></trkpt><trkpt lat="44.32267221355363" lon="9.997684973368935"><ele>325.0</ele><time>2026-05-03T09:47:25.011Z</time></trkpt><trkpt lat="44.32273445216265" lon="9.997717902246976"><ele>325.0</ele><time>2026-05-03T09:47:26.011Z</time></trkpt><trkpt lat="44.32278620204525" lon="9.99763814263945"><ele>325.0</ele><time>2026-05-03T09:47:29.011Z</time></trkpt><trkpt lat="44.32274994421011" lon="9.997555068377736"><ele>325.0</ele><time>2026-05-03T09:47:30.011Z</time></trkpt><trkpt lat="44.32268867454711" lon="9.9975062723232"><ele>322.8</ele><time>2026-05-03T09:47:31.011Z</time></trkpt><trkpt lat="44.3226057631297" lon="9.997464410444337"><ele>320.6</ele><time>2026-05-03T09:47:32.011Z</time></trkpt><trkpt lat="44.32251918244634" lon="9.997397621727945"><ele>318.4</ele><time>2026-05-03T09:47:33.011Z</time></trkpt><trkpt lat="44.322428533159545" lon="9.99731603848545"><ele>316.2</ele><time>2026-05-03T09:47:34.011Z</time></trkpt><trkpt lat="44.32234807875157" lon="9.997254315404723"><ele>314.0</ele><time>2026-05-03T09:47:35.011Z</time></trkpt><trkpt lat="44.32224838198459" lon="9.997236302574139"><ele>313.5</ele><time>2026-05-03T09:47:36.011Z</time></trkpt><trkpt lat="44.32213358181243" lon="9.99726083694578"><ele>313.0</ele><time>2026-05-03T09:47:37.011Z</time></trkpt><trkpt lat="44.322019124502994" lon="9.997323663276374"><ele>312.5</ele><time>2026-05-03T09:47:38.011Z</time></trkpt><trkpt lat="44.32189418531604" lon="9.997375028271193"><ele>312.0</ele><time>2026-05-03T09:47:39.011Z</time></trkpt><trkpt lat="44.321769381987096" lon="9.99741191987443"><ele>312.0</ele><time>2026-05-03T09:47:40.011Z</time></trkpt><trkpt lat="44.32165616293328" lon="9.9974318466076"><ele>312.0</ele><time>2026-05-03T09:47:41.011Z</time></trkpt><trkpt lat="44.321533597012895" lon="9.997438485662675"><ele>312.0</ele><time>2026-05-03T09:47:42.011Z</time></trkpt><trkpt lat="44.321408664204924" lon="9.997413810320058"><ele>312.0</ele><time>2026-05-03T09:47:43.011Z</time></trkpt><trkpt lat="44.321271633955355" lon="9.997365819566685"><ele>312.25</ele><time>2026-05-03T09:47:44.011Z</time></trkpt><trkpt lat="44.32112196227168" lon="9.997300818130414"><ele>312.5</ele><time>2026-05-03T09:47:45.011Z</time></trkpt><trkpt lat="44.320984784698275" lon="9.997245166069384"><ele>312.75</ele><time>2026-05-03T09:47:46.011Z</time></trkpt><trkpt lat="44.320857457543795" lon="9.997196629835287"><ele>313.0</ele><time>2026-05-03T09:47:47.011Z</time></trkpt><trkpt lat="44.32073033224199" lon="9.99712792900375"><ele>313.0</ele><time>2026-05-03T09:47:48.011Z</time></trkpt><trkpt lat="44.320599977082416" lon="9.997038582725835"><ele>313.0</ele><time>2026-05-03T09:47:49.011Z</time></trkpt><trkpt lat="44.320464020344154" lon="9.996948834846192"><ele>313.0</ele><time>2026-05-03T09:47:50.011Z</time></trkpt><trkpt lat="44.32032469728389" lon="9.996839869839002"><ele>312.3333333333333</ele><time>2026-05-03T09:47:51.011Z</time></trkpt><trkpt lat="44.32018633609114" lon="9.996732416113401"><ele>311.6666666666667</ele><time>2026-05-03T09:47:52.011Z</time></trkpt><trkpt lat="44.32004995811239" lon="9.996624638352262"><ele>311.0</ele><time>2026-05-03T09:47:53.011Z</time></trkpt><trkpt lat="44.31991181961399" lon="9.996521293278468"><ele>306.5</ele><time>2026-05-03T09:47:54.011Z</time></trkpt><trkpt lat="44.319780451790436" lon="9.99642522299901"><ele>302.0</ele><time>2026-05-03T09:47:55.011Z</time></trkpt><trkpt lat="44.319658602016574" lon="9.996333211859893"><ele>297.5</ele><time>2026-05-03T09:47:56.011Z</time></trkpt><trkpt lat="44.31954185771789" lon="9.996235183753475"><ele>293.0</ele><time>2026-05-03T09:47:57.011Z</time></trkpt><trkpt lat="44.319437680224226" lon="9.996118332617188"><ele>292.75</ele><time>2026-05-03T09:47:58.011Z</time></trkpt><trkpt lat="44.319330893430376" lon="9.995985461653017"><ele>292.5</ele><time>2026-05-03T09:47:59.011Z</time></trkpt><trkpt lat="44.31922449321403" lon="9.995844367049191"><ele>292.25</ele><time>2026-05-03T09:48:00.011Z</time></trkpt><trkpt lat="44.319117426482364" lon="9.995700908073605"><ele>292.0</ele><time>2026-05-03T09:48:01.011Z</time></trkpt><trkpt lat="44.319014271020826" lon="9.995554105768935"><ele>292.0</ele><time>2026-05-03T09:48:02.011Z</time></trkpt><trkpt lat="44.31892062254904" lon="9.995401500005189"><ele>292.0</ele><time>2026-05-03T09:48:03.011Z</time></trkpt><trkpt lat="44.31882551135209" lon="9.995260614619603"><ele>292.0</ele><time>2026-05-03T09:48:04.011Z</time></trkpt><trkpt lat="44.31872908126906" lon="9.995124914053312"><ele>292.0</ele><time>2026-05-03T09:48:05.011Z</time></trkpt><trkpt lat="44.31864483307439" lon="9.9949890395343"><ele>286.75</ele><time>2026-05-03T09:48:06.011Z</time></trkpt><trkpt lat="44.31856637482041" lon="9.99485830307976"><ele>281.5</ele><time>2026-05-03T09:48:07.011Z</time></trkpt><trkpt lat="44.31849748766504" lon="9.994732748233172"><ele>276.25</ele><time>2026-05-03T09:48:08.011Z</time></trkpt><trkpt lat="44.318412756709264" lon="9.994625712786862"><ele>271.0</ele><time>2026-05-03T09:48:09.011Z</time></trkpt><trkpt lat="44.3183176462038" lon="9.994538310909599"><ele>271.0</ele><time>2026-05-03T09:48:10.011Z</time></trkpt><trkpt lat="44.31820891498258" lon="9.994453496063752"><ele>271.0</ele><time>2026-05-03T09:48:11.011Z</time></trkpt><trkpt lat="44.31809715345809" lon="9.994377871660035"><ele>271.0</ele><time>2026-05-03T09:48:12.011Z</time></trkpt><trkpt lat="44.31799257578828" lon="9.994311209911148"><ele>271.0</ele><time>2026-05-03T09:48:13.011Z</time></trkpt><trkpt lat="44.31789265155887" lon="9.994263280313348"><ele>269.75</ele><time>2026-05-03T09:48:14.011Z</time></trkpt><trkpt lat="44.31777748108863" lon="9.994261389266274"><ele>268.5</ele><time>2026-05-03T09:48:15.011Z</time></trkpt><trkpt lat="44.31767061756747" lon="9.994289461548046"><ele>267.25</ele><time>2026-05-03T09:48:16.011Z</time></trkpt><trkpt lat="44.317555221007964" lon="9.994344178476604"><ele>266.0</ele><time>2026-05-03T09:48:17.012Z</time></trkpt><trkpt lat="44.31743819262587" lon="9.994422036120111"><ele>266.0</ele><time>2026-05-03T09:48:18.012Z</time></trkpt><trkpt lat="44.31733002237643" lon="9.994503151997861"><ele>266.0</ele><time>2026-05-03T09:48:19.011Z</time></trkpt><trkpt lat="44.31723050802843" lon="9.994551595685762"><ele>266.0</ele><time>2026-05-03T09:48:20.01Z</time></trkpt><trkpt lat="44.31714410307761" lon="9.994592893021048"><ele>266.0</ele><time>2026-05-03T09:48:21.011Z</time></trkpt><trkpt lat="44.31706854318388" lon="9.994629233494726"><ele>266.0</ele><time>2026-05-03T09:48:22.011Z</time></trkpt><trkpt lat="44.31698748472943" lon="9.994672033349278"><ele>264.40000000000003</ele><time>2026-05-03T09:48:23.011Z</time></trkpt><trkpt lat="44.3169015453265" lon="9.99471698745584"><ele>262.8</ele><time>2026-05-03T09:48:24.011Z</time></trkpt><trkpt lat="44.31680104866386" lon="9.994762793599774"><ele>261.20000000000005</ele><time>2026-05-03T09:48:25.011Z</time></trkpt><trkpt lat="44.31668727003748" lon="9.994824218269525"><ele>259.6</ele><time>2026-05-03T09:48:26.011Z</time></trkpt><trkpt lat="44.31656952979808" lon="9.994882367074302"><ele>258.0</ele><time>2026-05-03T09:48:27.011Z</time></trkpt><trkpt lat="44.31645356778347" lon="9.994949651564326"><ele>257.5</ele><time>2026-05-03T09:48:28.011Z</time></trkpt><trkpt lat="44.31633311838442" lon="9.995040227727184"><ele>257.0</ele><time>2026-05-03T09:48:29.011Z</time></trkpt><trkpt lat="44.31622407054738" lon="9.995116484991177"><ele>256.5</ele><time>2026-05-03T09:48:30.011Z</time></trkpt><trkpt lat="44.31611709180178" lon="9.995184160929636"><ele>256.0</ele><time>2026-05-03T09:48:31.011Z</time></trkpt><trkpt lat="44.316023594299054" lon="9.995262932235093"><ele>256.0</ele><time>2026-05-03T09:48:32.011Z</time></trkpt><trkpt lat="44.315942360357596" lon="9.995343485447794"><ele>256.0</ele><time>2026-05-03T09:48:33.011Z</time></trkpt><trkpt lat="44.31586134458925" lon="9.99541453722122"><ele>256.0</ele><time>2026-05-03T09:48:34.011Z</time></trkpt><trkpt lat="44.31576701328972" lon="9.995477242684853"><ele>256.0</ele><time>2026-05-03T09:48:35.011Z</time></trkpt><trkpt lat="44.31566651793603" lon="9.995542455172606"><ele>256.0</ele><time>2026-05-03T09:48:36.011Z</time></trkpt><trkpt lat="44.31558155713555" lon="9.995608715112837"><ele>255.66666666666666</ele><time>2026-05-03T09:48:37.011Z</time></trkpt><trkpt lat="44.31550812224519" lon="9.995668016615914"><ele>255.33333333333331</ele><time>2026-05-03T09:48:38.011Z</time></trkpt><trkpt lat="44.31544670469638" lon="9.995718469444093"><ele>255.0</ele><time>2026-05-03T09:48:39.011Z</time></trkpt><trkpt lat="44.3153623303441" lon="9.995737144025304"><ele>254.66666666666669</ele><time>2026-05-03T09:48:41.011Z</time></trkpt><trkpt lat="44.31529312808275" lon="9.995674770197127"><ele>254.33333333333334</ele><time>2026-05-03T09:48:43.011Z</time></trkpt><trkpt lat="44.315274706280725" lon="9.995585754601537"><ele>254.0</ele><time>2026-05-03T09:48:44.011Z</time></trkpt><trkpt lat="44.31525141311766" lon="9.995470020033418"><ele>254.0</ele><time>2026-05-03T09:48:45.011Z</time></trkpt><trkpt lat="44.31522360027824" lon="9.995368887731063"><ele>253.99999999999997</ele><time>2026-05-03T09:48:46.011Z</time></trkpt><trkpt lat="44.3151842420688" lon="9.99528593619825"><ele>253.99999999999997</ele><time>2026-05-03T09:48:47.012Z</time></trkpt><trkpt lat="44.315096011007434" lon="9.995188728438874"><ele>254.0</ele><time>2026-05-03T09:48:49.012Z</time></trkpt><trkpt lat="44.31501624967946" lon="9.99511425879984"><ele>254.0</ele><time>2026-05-03T09:48:51.012Z</time></trkpt><trkpt lat="44.31490641436184" lon="9.995088579423152"><ele>254.00000000000003</ele><time>2026-05-03T09:48:53.012Z</time></trkpt><trkpt lat="44.314791263817476" lon="9.995035513207974"><ele>254.0</ele><time>2026-05-03T09:48:55.012Z</time></trkpt><trkpt lat="44.31473202240723" lon="9.994987408002185"><ele>254.0</ele><time>2026-05-03T09:48:56.012Z</time></trkpt><trkpt lat="44.31465288976061" lon="9.994945939962543"><ele>254.0</ele><time>2026-05-03T09:48:57.012Z</time></trkpt><trkpt lat="44.314603021444704" lon="9.994866190510313"><ele>254.00000000000003</ele><time>2026-05-03T09:48:58.012Z</time></trkpt><trkpt lat="44.31455396720546" lon="9.994780110954911"><ele>254.0</ele><time>2026-05-03T09:48:59.012Z</time></trkpt><trkpt lat="44.31450283101498" lon="9.994702658587526"><ele>253.14285714285717</ele><time>2026-05-03T09:49:00.012Z</time></trkpt><trkpt lat="44.31444761398859" lon="9.994628198744076"><ele>252.28571428571428</ele><time>2026-05-03T09:49:01.012Z</time></trkpt><trkpt lat="44.31442762696323" lon="9.994528613841934"><ele>251.42857142857144</ele><time>2026-05-03T09:49:02.012Z</time></trkpt><trkpt lat="44.31438755413185" lon="9.994442863855536"><ele>250.57142857142858</ele><time>2026-05-03T09:49:03.012Z</time></trkpt><trkpt lat="44.31433541163518" lon="9.99438058382818"><ele>249.71428571428572</ele><time>2026-05-03T09:49:04.012Z</time></trkpt><trkpt lat="44.314277119774154" lon="9.994342702341116"><ele>248.85714285714286</ele><time>2026-05-03T09:49:05.012Z</time></trkpt><trkpt lat="44.31423289995136" lon="9.99425915248112"><ele>248.0</ele><time>2026-05-03T09:49:06.012Z</time></trkpt><trkpt lat="44.31420805945216" lon="9.994155942707613"><ele>247.66666666666669</ele><time>2026-05-03T09:49:07.012Z</time></trkpt><trkpt lat="44.314172933737844" lon="9.994053032653891"><ele>247.33333333333334</ele><time>2026-05-03T09:49:08.012Z</time></trkpt><trkpt lat="44.31413975754622" lon="9.993949810591792"><ele>247.0</ele><time>2026-05-03T09:49:09.012Z</time></trkpt><trkpt lat="44.31410328825743" lon="9.993842676582661"><ele>246.66666666666669</ele><time>2026-05-03T09:49:10.012Z</time></trkpt><trkpt lat="44.314063911111475" lon="9.993752071702493"><ele>246.33333333333334</ele><time>2026-05-03T09:49:11.012Z</time></trkpt><trkpt lat="44.31402145402661" lon="9.993610163127029"><ele>246.0</ele><time>2026-05-03T09:49:13.012Z</time></trkpt><trkpt lat="44.31400166716598" lon="9.99348745749539"><ele>246.0</ele><time>2026-05-03T09:49:15.012Z</time></trkpt><trkpt lat="44.313980506279634" lon="9.993382650142838"><ele>246.0</ele><time>2026-05-03T09:49:17.012Z</time></trkpt><trkpt lat="44.31395197085783" lon="9.993268118842785"><ele>246.0</ele><time>2026-05-03T09:49:19.012Z</time></trkpt><trkpt lat="44.31391398428099" lon="9.99311850825886"><ele>246.0</ele><time>2026-05-03T09:49:21.012Z</time></trkpt><trkpt lat="44.313892945433786" lon="9.99302642135368"><ele>246.0</ele><time>2026-05-03T09:49:22.012Z</time></trkpt><trkpt lat="44.313872674050046" lon="9.992936338870331"><ele>246.0</ele><time>2026-05-03T09:49:23.012Z</time></trkpt><trkpt lat="44.31385226893748" lon="9.992852510928873"><ele>245.0</ele><time>2026-05-03T09:49:24.012Z</time></trkpt><trkpt lat="44.31383722092061" lon="9.992757582638635"><ele>244.0</ele><time>2026-05-03T09:49:25.012Z</time></trkpt><trkpt lat="44.31383023023612" lon="9.992661426390876"><ele>243.0</ele><time>2026-05-03T09:49:26.012Z</time></trkpt><trkpt lat="44.31381509254899" lon="9.992561646011007"><ele>242.0</ele><time>2026-05-03T09:49:27.012Z</time></trkpt><trkpt lat="44.313776189026505" lon="9.99245013997184"><ele>241.0</ele><time>2026-05-03T09:49:28.012Z</time></trkpt><trkpt lat="44.31374921170496" lon="9.992319533428015"><ele>240.0</ele><time>2026-05-03T09:49:29.012Z</time></trkpt><trkpt lat="44.31373252843968" lon="9.992192116978037"><ele>239.0</ele><time>2026-05-03T09:49:30.012Z</time></trkpt><trkpt lat="44.31370737049659" lon="9.9920543603084"><ele>238.0</ele><time>2026-05-03T09:49:31.012Z</time></trkpt><trkpt lat="44.3136929784105" lon="9.991913446528574"><ele>237.0</ele><time>2026-05-03T09:49:32.012Z</time></trkpt><trkpt lat="44.313660115197656" lon="9.991782131535842"><ele>236.0</ele><time>2026-05-03T09:49:33.012Z</time></trkpt><trkpt lat="44.31364011441566" lon="9.991642729020846"><ele>235.0</ele><time>2026-05-03T09:49:34.012Z</time></trkpt><trkpt lat="44.31361876550018" lon="9.991499197272077"><ele>235.0</ele><time>2026-05-03T09:49:35.012Z</time></trkpt><trkpt lat="44.31359865486518" lon="9.991358486429338"><ele>235.0</ele><time>2026-05-03T09:49:36.012Z</time></trkpt><trkpt lat="44.313566680980436" lon="9.991219612776682"><ele>235.0</ele><time>2026-05-03T09:49:37.012Z</time></trkpt><trkpt lat="44.313544373409236" lon="9.991078505888005"><ele>235.0</ele><time>2026-05-03T09:49:38.013Z</time></trkpt><trkpt lat="44.31351622557633" lon="9.99093239734862"><ele>235.0</ele><time>2026-05-03T09:49:39.013Z</time></trkpt><trkpt lat="44.313482276799995" lon="9.990787925465513"><ele>234.75</ele><time>2026-05-03T09:49:40.013Z</time></trkpt><trkpt lat="44.313467612648395" lon="9.990618143378345"><ele>234.5</ele><time>2026-05-03T09:49:41.013Z</time></trkpt><trkpt lat="44.31344019055969" lon="9.990452866279472"><ele>234.25</ele><time>2026-05-03T09:49:42.013Z</time></trkpt><trkpt lat="44.31340271700783" lon="9.990296520655859"><ele>234.0</ele><time>2026-05-03T09:49:43.013Z</time></trkpt><trkpt lat="44.31337111285782" lon="9.990145121856694"><ele>234.2</ele><time>2026-05-03T09:49:44.013Z</time></trkpt><trkpt lat="44.313340971456334" lon="9.989993692580136"><ele>234.39999999999998</ele><time>2026-05-03T09:49:45.013Z</time></trkpt><trkpt lat="44.31330849389761" lon="9.98984567478165"><ele>234.6</ele><time>2026-05-03T09:49:46.013Z</time></trkpt><trkpt lat="44.31327836524817" lon="9.989697909008369"><ele>234.8</ele><time>2026-05-03T09:49:47.013Z</time></trkpt><trkpt lat="44.313262484024406" lon="9.989544131031957"><ele>235.0</ele><time>2026-05-03T09:49:48.013Z</time></trkpt><trkpt lat="44.31324220546415" lon="9.989398463300205"><ele>235.0</ele><time>2026-05-03T09:49:49.013Z</time></trkpt><trkpt lat="44.31318733093108" lon="9.989231393745033"><ele>235.0</ele><time>2026-05-03T09:49:50.013Z</time></trkpt><trkpt lat="44.31313388225671" lon="9.989073233052945"><ele>235.0</ele><time>2026-05-03T09:49:51.013Z</time></trkpt><trkpt lat="44.313063825628944" lon="9.988947971254035"><ele>235.0</ele><time>2026-05-03T09:49:52.013Z</time></trkpt><trkpt lat="44.31299277258475" lon="9.988825270645508"><ele>233.6</ele><time>2026-05-03T09:49:53.013Z</time></trkpt><trkpt lat="44.31292116096446" lon="9.988710953796199"><ele>232.2</ele><time>2026-05-03T09:49:54.013Z</time></trkpt><trkpt lat="44.312850373396245" lon="9.988600129425947"><ele>230.8</ele><time>2026-05-03T09:49:55.013Z</time></trkpt><trkpt lat="44.31277611962508" lon="9.98848721095585"><ele>229.4</ele><time>2026-05-03T09:49:56.013Z</time></trkpt><trkpt lat="44.312708266717216" lon="9.988370001103808"><ele>228.0</ele><time>2026-05-03T09:49:57.013Z</time></trkpt><trkpt lat="44.3126406215319" lon="9.988254135065489"><ele>228.0</ele><time>2026-05-03T09:49:58.013Z</time></trkpt><trkpt lat="44.31256995782841" lon="9.988144215838645"><ele>228.0</ele><time>2026-05-03T09:49:59.013Z</time></trkpt><trkpt lat="44.312504160174825" lon="9.988025868604083"><ele>228.0</ele><time>2026-05-03T09:50:00.013Z</time></trkpt><trkpt lat="44.31244507916522" lon="9.987909050985646"><ele>228.0</ele><time>2026-05-03T09:50:01.013Z</time></trkpt><trkpt lat="44.31238128136988" lon="9.987794966670311"><ele>228.0</ele><time>2026-05-03T09:50:02.013Z</time></trkpt><trkpt lat="44.31230542573873" lon="9.987659320054904"><ele>226.0</ele><time>2026-05-03T09:50:03.013Z</time></trkpt><trkpt lat="44.31222611178321" lon="9.987511771674049"><ele>224.0</ele><time>2026-05-03T09:50:04.013Z</time></trkpt><trkpt lat="44.31214527111124" lon="9.987361158838137"><ele>222.0</ele><time>2026-05-03T09:50:05.013Z</time></trkpt><trkpt lat="44.31207062181514" lon="9.987224390769812"><ele>220.0</ele><time>2026-05-03T09:50:06.013Z</time></trkpt><trkpt lat="44.31200587941459" lon="9.98709062881716"><ele>220.0</ele><time>2026-05-03T09:50:07.013Z</time></trkpt><trkpt lat="44.311946892197646" lon="9.986951109723142"><ele>220.0</ele><time>2026-05-03T09:50:08.013Z</time></trkpt><trkpt lat="44.31189572721754" lon="9.986797777247459"><ele>220.0</ele><time>2026-05-03T09:50:09.013Z</time></trkpt><trkpt lat="44.31184611651009" lon="9.986628032662969"><ele>220.0</ele><time>2026-05-03T09:50:10.013Z</time></trkpt><trkpt lat="44.31179422439075" lon="9.98645945154103"><ele>221.0</ele><time>2026-05-03T09:50:11.013Z</time></trkpt><trkpt lat="44.31174706415136" lon="9.986286943844782"><ele>222.0</ele><time>2026-05-03T09:50:12.013Z</time></trkpt><trkpt lat="44.3116941417164" lon="9.9861242974551"><ele>223.0</ele><time>2026-05-03T09:50:13.013Z</time></trkpt><trkpt lat="44.31164770952734" lon="9.985957724923164"><ele>224.0</ele><time>2026-05-03T09:50:14.013Z</time></trkpt><trkpt lat="44.31160165332886" lon="9.985795354821706"><ele>224.75</ele><time>2026-05-03T09:50:15.013Z</time></trkpt><trkpt lat="44.31156879006769" lon="9.985617417053602"><ele>225.5</ele><time>2026-05-03T09:50:16.013Z</time></trkpt><trkpt lat="44.311537022759175" lon="9.985417705086006"><ele>226.25</ele><time>2026-05-03T09:50:17.013Z</time></trkpt><trkpt lat="44.31150389748892" lon="9.985209679388335"><ele>227.0</ele><time>2026-05-03T09:50:18.013Z</time></trkpt><trkpt lat="44.31146296501097" lon="9.98497967179447"><ele>228.0</ele><time>2026-05-03T09:50:19.013Z</time></trkpt><trkpt lat="44.31141466237461" lon="9.98473321139698"><ele>229.0</ele><time>2026-05-03T09:50:20.013Z</time></trkpt><trkpt lat="44.311370598760654" lon="9.984479402547159"><ele>230.0</ele><time>2026-05-03T09:50:21.013Z</time></trkpt><trkpt lat="44.311333047890095" lon="9.984237019657982"><ele>226.66666666666669</ele><time>2026-05-03T09:50:22.013Z</time></trkpt><trkpt lat="44.311295026995715" lon="9.984014564737837"><ele>223.33333333333331</ele><time>2026-05-03T09:50:23.013Z</time></trkpt><trkpt lat="44.31126359310945" lon="9.983801838965515"><ele>220.0</ele><time>2026-05-03T09:50:24.013Z</time></trkpt><trkpt lat="44.311232780898166" lon="9.983603093459115"><ele>220.0</ele><time>2026-05-03T09:50:25.012Z</time></trkpt><trkpt lat="44.31120359060002" lon="9.983437293379994"><ele>220.0</ele><time>2026-05-03T09:50:26.012Z</time></trkpt><trkpt lat="44.31117962204794" lon="9.983272200964455"><ele>220.0</ele><time>2026-05-03T09:50:27.012Z</time></trkpt><trkpt lat="44.3111534135899" lon="9.983116875605612"><ele>220.0</ele><time>2026-05-03T09:50:28.012Z</time></trkpt><trkpt lat="44.311118398016895" lon="9.982947109595486"><ele>219.66666666666666</ele><time>2026-05-03T09:50:29.012Z</time></trkpt><trkpt lat="44.31107879478106" lon="9.982755724711012"><ele>219.33333333333331</ele><time>2026-05-03T09:50:30.012Z</time></trkpt><trkpt lat="44.31104134769311" lon="9.982525404883418"><ele>219.0</ele><time>2026-05-03T09:50:31.012Z</time></trkpt><trkpt lat="44.31099876042839" lon="9.982238603073538"><ele>219.0</ele><time>2026-05-03T09:50:32.012Z</time></trkpt><trkpt lat="44.31095431792745" lon="9.981936101250467"><ele>219.0</ele><time>2026-05-03T09:50:33.012Z</time></trkpt><trkpt lat="44.3109205456918" lon="9.98167031148332"><ele>219.0</ele><time>2026-05-03T09:50:34.012Z</time></trkpt><trkpt lat="44.31088796778123" lon="9.981418607672145"><ele>219.33333333333331</ele><time>2026-05-03T09:50:35.012Z</time></trkpt><trkpt lat="44.31085424431031" lon="9.981176461693728"><ele>219.66666666666666</ele><time>2026-05-03T09:50:36.012Z</time></trkpt><trkpt lat="44.3108231046341" lon="9.980935803019522"><ele>220.0</ele><time>2026-05-03T09:50:37.012Z</time></trkpt><trkpt lat="44.310796195076584" lon="9.980690117259167"><ele>219.33333333333331</ele><time>2026-05-03T09:50:38.012Z</time></trkpt><trkpt lat="44.31077103116016" lon="9.980444557999657"><ele>218.66666666666669</ele><time>2026-05-03T09:50:39.012Z</time></trkpt><trkpt lat="44.31074721963241" lon="9.980201880721404"><ele>218.0</ele><time>2026-05-03T09:50:40.012Z</time></trkpt><trkpt lat="44.310723261475225" lon="9.979959490465482"><ele>217.33333333333334</ele><time>2026-05-03T09:50:41.012Z</time></trkpt><trkpt lat="44.31069381590874" lon="9.979723114572455"><ele>216.66666666666669</ele><time>2026-05-03T09:50:42.012Z</time></trkpt><trkpt lat="44.31066790531738" lon="9.979513195193032"><ele>216.0</ele><time>2026-05-03T09:50:43.012Z</time></trkpt><trkpt lat="44.31064204546941" lon="9.979310015889007"><ele>215.5</ele><time>2026-05-03T09:50:44.012Z</time></trkpt><trkpt lat="44.3106229840817" lon="9.979120000173202"><ele>215.0</ele><time>2026-05-03T09:50:45.012Z</time></trkpt><trkpt lat="44.31060485382997" lon="9.97893368244121"><ele>214.5</ele><time>2026-05-03T09:50:46.012Z</time></trkpt><trkpt lat="44.310589263831616" lon="9.978762304278417"><ele>214.0</ele><time>2026-05-03T09:50:47.012Z</time></trkpt><trkpt lat="44.31057421693607" lon="9.978587992672423"><ele>212.5</ele><time>2026-05-03T09:50:48.012Z</time></trkpt><trkpt lat="44.31056121130276" lon="9.978422634293542"><ele>211.0</ele><time>2026-05-03T09:50:49.012Z</time></trkpt><trkpt lat="44.31054727989843" lon="9.978258109739288"><ele>209.5</ele><time>2026-05-03T09:50:50.012Z</time></trkpt><trkpt lat="44.310533656164225" lon="9.97810029660757"><ele>208.0</ele><time>2026-05-03T09:50:51.012Z</time></trkpt><trkpt lat="44.31051713069013" lon="9.977944943358594"><ele>208.0</ele><time>2026-05-03T09:50:52.012Z</time></trkpt><trkpt lat="44.31050598964871" lon="9.977797123659228"><ele>208.0</ele><time>2026-05-03T09:50:53.012Z</time></trkpt><trkpt lat="44.31048457958462" lon="9.977655151615862"><ele>208.0</ele><time>2026-05-03T09:50:54.012Z</time></trkpt><trkpt lat="44.31045390918065" lon="9.977509845585693"><ele>208.0</ele><time>2026-05-03T09:50:55.012Z</time></trkpt><trkpt lat="44.31042690682431" lon="9.977362185152119"><ele>208.0</ele><time>2026-05-03T09:50:56.012Z</time></trkpt><trkpt lat="44.310400844930285" lon="9.977207797314307"><ele>207.75</ele><time>2026-05-03T09:50:57.012Z</time></trkpt><trkpt lat="44.31038337455258" lon="9.977053202785603"><ele>207.5</ele><time>2026-05-03T09:50:58.012Z</time></trkpt><trkpt lat="44.310379603812784" lon="9.976890790992073"><ele>207.25</ele><time>2026-05-03T09:50:59.012Z</time></trkpt><trkpt lat="44.3103791622585" lon="9.976719264417849"><ele>207.0</ele><time>2026-05-03T09:51:00.012Z</time></trkpt><trkpt lat="44.31038033889646" lon="9.976501856310186"><ele>206.66666666666669</ele><time>2026-05-03T09:51:01.012Z</time></trkpt><trkpt lat="44.31038391078103" lon="9.97625890866326"><ele>206.33333333333334</ele><time>2026-05-03T09:51:02.012Z</time></trkpt><trkpt lat="44.31040373212562" lon="9.975978812370979"><ele>206.0</ele><time>2026-05-03T09:51:03.012Z</time></trkpt><trkpt lat="44.310430631200894" lon="9.975698844236705"><ele>205.66666666666669</ele><time>2026-05-03T09:51:04.012Z</time></trkpt><trkpt lat="44.31045709001054" lon="9.975399037298676"><ele>205.33333333333331</ele><time>2026-05-03T09:51:05.012Z</time></trkpt><trkpt lat="44.31048198060371" lon="9.97510533195168"><ele>205.0</ele><time>2026-05-03T09:51:06.013Z</time></trkpt><trkpt lat="44.310500783442386" lon="9.974815656589714"><ele>204.33333333333331</ele><time>2026-05-03T09:51:07.013Z</time></trkpt><trkpt lat="44.31052113211197" lon="9.974536621339267"><ele>203.66666666666669</ele><time>2026-05-03T09:51:08.013Z</time></trkpt><trkpt lat="44.31054274950854" lon="9.974272256396208"><ele>203.0</ele><time>2026-05-03T09:51:09.013Z</time></trkpt><trkpt lat="44.31056852600408" lon="9.974017446659913"><ele>203.33333333333334</ele><time>2026-05-03T09:51:10.013Z</time></trkpt><trkpt lat="44.31059273635644" lon="9.973776780578795"><ele>203.66666666666669</ele><time>2026-05-03T09:51:11.013Z</time></trkpt><trkpt lat="44.310618725826004" lon="9.973551911102705"><ele>204.0</ele><time>2026-05-03T09:51:12.013Z</time></trkpt><trkpt lat="44.31064680325374" lon="9.973340783633397"><ele>204.0</ele><time>2026-05-03T09:51:13.013Z</time></trkpt><trkpt lat="44.31067253082605" lon="9.973139857990333"><ele>204.0</ele><time>2026-05-03T09:51:14.013Z</time></trkpt><trkpt lat="44.310695246112786" lon="9.972952010747901"><ele>204.0</ele><time>2026-05-03T09:51:15.013Z</time></trkpt><trkpt lat="44.310720035993185" lon="9.972774562244206"><ele>204.0</ele><time>2026-05-03T09:51:16.013Z</time></trkpt><trkpt lat="44.31077178285732" lon="9.97259898790205"><ele>203.33333333333331</ele><time>2026-05-03T09:51:17.013Z</time></trkpt><trkpt lat="44.31085676170633" lon="9.972421069291052"><ele>202.66666666666666</ele><time>2026-05-03T09:51:18.013Z</time></trkpt><trkpt lat="44.31095895578952" lon="9.972241716226728"><ele>202.0</ele><time>2026-05-03T09:51:19.013Z</time></trkpt><trkpt lat="44.3110652362748" lon="9.97204427679181"><ele>202.0</ele><time>2026-05-03T09:51:20.013Z</time></trkpt><trkpt lat="44.311176359587414" lon="9.97184702244799"><ele>202.0</ele><time>2026-05-03T09:51:21.013Z</time></trkpt><trkpt lat="44.3112897022727" lon="9.971652300876093"><ele>202.0</ele><time>2026-05-03T09:51:22.013Z</time></trkpt><trkpt lat="44.31139352538889" lon="9.971461593206012"><ele>202.66666666666666</ele><time>2026-05-03T09:51:23.013Z</time></trkpt><trkpt lat="44.31149112821632" lon="9.971279432077003"><ele>203.33333333333331</ele><time>2026-05-03T09:51:24.013Z</time></trkpt><trkpt lat="44.3115793702716" lon="9.97109850482173"><ele>204.0</ele><time>2026-05-03T09:51:25.013Z</time></trkpt><trkpt lat="44.31165239157008" lon="9.97088688536426"><ele>202.66666666666669</ele><time>2026-05-03T09:51:26.013Z</time></trkpt><trkpt lat="44.31171825205792" lon="9.97066229198966"><ele>201.33333333333334</ele><time>2026-05-03T09:51:27.013Z</time></trkpt><trkpt lat="44.31178209101715" lon="9.970413670224051"><ele>200.0</ele><time>2026-05-03T09:51:28.013Z</time></trkpt><trkpt lat="44.31185925817179" lon="9.970173817364278"><ele>198.66666666666669</ele><time>2026-05-03T09:51:29.013Z</time></trkpt><trkpt lat="44.31194484931583" lon="9.96993459835881"><ele>197.33333333333331</ele><time>2026-05-03T09:51:30.013Z</time></trkpt><trkpt lat="44.31204064906913" lon="9.96969691021604"><ele>196.0</ele><time>2026-05-03T09:51:31.013Z</time></trkpt><trkpt lat="44.31212729386329" lon="9.9694554940138"><ele>196.0</ele><time>2026-05-03T09:51:32.013Z</time></trkpt><trkpt lat="44.31221510858441" lon="9.969212729684113"><ele>196.0</ele><time>2026-05-03T09:51:33.013Z</time></trkpt><trkpt lat="44.31229730387837" lon="9.968963248366785"><ele>196.0</ele><time>2026-05-03T09:51:34.013Z</time></trkpt><trkpt lat="44.31237218045275" lon="9.968701280006462"><ele>195.66666666666666</ele><time>2026-05-03T09:51:35.013Z</time></trkpt><trkpt lat="44.31243212819632" lon="9.96843862876882"><ele>195.33333333333331</ele><time>2026-05-03T09:51:36.013Z</time></trkpt><trkpt lat="44.31248537881503" lon="9.96817279828179"><ele>195.0</ele><time>2026-05-03T09:51:37.013Z</time></trkpt><trkpt lat="44.31253642141842" lon="9.96791748762908"><ele>194.0</ele><time>2026-05-03T09:51:38.013Z</time></trkpt><trkpt lat="44.312594025442145" lon="9.967673691927217"><ele>193.0</ele><time>2026-05-03T09:51:39.013Z</time></trkpt><trkpt lat="44.312643193252626" lon="9.96743132172979"><ele>192.0</ele><time>2026-05-03T09:51:40.013Z</time></trkpt><trkpt lat="44.312673401229894" lon="9.967180872376408"><ele>191.66666666666666</ele><time>2026-05-03T09:51:41.013Z</time></trkpt><trkpt lat="44.31267808536658" lon="9.96693100890654"><ele>191.33333333333331</ele><time>2026-05-03T09:51:42.013Z</time></trkpt><trkpt lat="44.31267909417175" lon="9.96666182223217"><ele>191.0</ele><time>2026-05-03T09:51:43.013Z</time></trkpt><trkpt lat="44.312689620510845" lon="9.966403669104324"><ele>190.66666666666666</ele><time>2026-05-03T09:51:44.013Z</time></trkpt><trkpt lat="44.31271675478137" lon="9.966143250383698"><ele>190.33333333333334</ele><time>2026-05-03T09:51:45.013Z</time></trkpt><trkpt lat="44.31276247008906" lon="9.965882717414166"><ele>190.0</ele><time>2026-05-03T09:51:46.013Z</time></trkpt><trkpt lat="44.31283766616716" lon="9.96562251822622"><ele>189.33333333333334</ele><time>2026-05-03T09:51:47.013Z</time></trkpt><trkpt lat="44.312913134342224" lon="9.965357228905775"><ele>188.66666666666666</ele><time>2026-05-03T09:51:48.013Z</time></trkpt><trkpt lat="44.31298783835189" lon="9.965093926749997"><ele>188.0</ele><time>2026-05-03T09:51:49.013Z</time></trkpt><trkpt lat="44.31306319818501" lon="9.964826215487957"><ele>187.66666666666666</ele><time>2026-05-03T09:51:50.013Z</time></trkpt><trkpt lat="44.31314378114833" lon="9.964554535206394"><ele>187.33333333333334</ele><time>2026-05-03T09:51:51.013Z</time></trkpt><trkpt lat="44.31322125193989" lon="9.964279556743987"><ele>187.0</ele><time>2026-05-03T09:51:52.013Z</time></trkpt><trkpt lat="44.313296221241956" lon="9.9640050390125"><ele>186.33333333333334</ele><time>2026-05-03T09:51:53.013Z</time></trkpt><trkpt lat="44.31337177167781" lon="9.963727426246491"><ele>185.66666666666666</ele><time>2026-05-03T09:51:54.013Z</time></trkpt><trkpt lat="44.31344107629053" lon="9.96346563668237"><ele>185.0</ele><time>2026-05-03T09:51:55.013Z</time></trkpt><trkpt lat="44.31350768183431" lon="9.963225796886462"><ele>184.0</ele><time>2026-05-03T09:51:56.013Z</time></trkpt><trkpt lat="44.31356959543861" lon="9.963001346743937"><ele>183.0</ele><time>2026-05-03T09:51:57.014Z</time></trkpt><trkpt lat="44.313617559528566" lon="9.96279222716828"><ele>182.0</ele><time>2026-05-03T09:51:58.014Z</time></trkpt><trkpt lat="44.31363178335497" lon="9.962344056982547"><ele>181.0</ele><time>2026-05-03T09:52:00.014Z</time></trkpt><trkpt lat="44.31360739324232" lon="9.962075086294245"><ele>180.0</ele><time>2026-05-03T09:52:01.014Z</time></trkpt><trkpt lat="44.313591335414074" lon="9.961832010266772"><ele>179.0</ele><time>2026-05-03T09:52:02.014Z</time></trkpt><trkpt lat="44.313587003327946" lon="9.961610886907874"><ele>178.66666666666666</ele><time>2026-05-03T09:52:03.014Z</time></trkpt><trkpt lat="44.313601519812714" lon="9.96139187061178"><ele>178.33333333333334</ele><time>2026-05-03T09:52:04.014Z</time></trkpt><trkpt lat="44.31365236842943" lon="9.961170286192791"><ele>178.0</ele><time>2026-05-03T09:52:05.014Z</time></trkpt><trkpt lat="44.313719583340166" lon="9.960938342755737"><ele>177.66666666666669</ele><time>2026-05-03T09:52:06.014Z</time></trkpt><trkpt lat="44.313791720518964" lon="9.960710605910776"><ele>177.33333333333334</ele><time>2026-05-03T09:52:07.014Z</time></trkpt><trkpt lat="44.31385841329872" lon="9.960481683711814"><ele>177.0</ele><time>2026-05-03T09:52:08.014Z</time></trkpt><trkpt lat="44.31391306227644" lon="9.960264122850345"><ele>177.0</ele><time>2026-05-03T09:52:09.014Z</time></trkpt><trkpt lat="44.313964478721424" lon="9.960063791474408"><ele>177.0</ele><time>2026-05-03T09:52:10.014Z</time></trkpt><trkpt lat="44.31401371152674" lon="9.959867370754795"><ele>177.0</ele><time>2026-05-03T09:52:11.014Z</time></trkpt><trkpt lat="44.314040587269375" lon="9.959660627518833"><ele>176.66666666666666</ele><time>2026-05-03T09:52:12.014Z</time></trkpt><trkpt lat="44.314036548756164" lon="9.959425385002326"><ele>176.33333333333331</ele><time>2026-05-03T09:52:13.014Z</time></trkpt><trkpt lat="44.31401980203926" lon="9.959156095183054"><ele>176.0</ele><time>2026-05-03T09:52:14.014Z</time></trkpt><trkpt lat="44.31399586587867" lon="9.958863404412893"><ele>175.33333333333331</ele><time>2026-05-03T09:52:15.014Z</time></trkpt><trkpt lat="44.313975854426666" lon="9.958576727293444"><ele>174.66666666666666</ele><time>2026-05-03T09:52:16.014Z</time></trkpt><trkpt lat="44.31395754003476" lon="9.95829772130733"><ele>174.0</ele><time>2026-05-03T09:52:17.014Z</time></trkpt><trkpt lat="44.31393745650346" lon="9.957991959722948"><ele>173.33333333333334</ele><time>2026-05-03T09:52:18.014Z</time></trkpt><trkpt lat="44.31392195523562" lon="9.957696986283182"><ele>172.66666666666669</ele><time>2026-05-03T09:52:19.014Z</time></trkpt><trkpt lat="44.313901585175806" lon="9.957417495627542"><ele>172.0</ele><time>2026-05-03T09:52:20.014Z</time></trkpt><trkpt lat="44.313881382967274" lon="9.957126742398152"><ele>170.66666666666669</ele><time>2026-05-03T09:52:21.014Z</time></trkpt><trkpt lat="44.313861221321396" lon="9.956829117468416"><ele>169.33333333333334</ele><time>2026-05-03T09:52:22.014Z</time></trkpt><trkpt lat="44.31384580276312" lon="9.956558161019775"><ele>168.0</ele><time>2026-05-03T09:52:23.014Z</time></trkpt><trkpt lat="44.31383545155996" lon="9.956292159611634"><ele>167.33333333333334</ele><time>2026-05-03T09:52:24.014Z</time></trkpt><trkpt lat="44.313819997060484" lon="9.95604389334781"><ele>166.66666666666669</ele><time>2026-05-03T09:52:25.014Z</time></trkpt><trkpt lat="44.3137949239616" lon="9.9558055295379"><ele>166.0</ele><time>2026-05-03T09:52:26.014Z</time></trkpt><trkpt lat="44.313745002739495" lon="9.955557763599067"><ele>165.0</ele><time>2026-05-03T09:52:27.014Z</time></trkpt><trkpt lat="44.313672010715905" lon="9.95530776490174"><ele>164.0</ele><time>2026-05-03T09:52:28.014Z</time></trkpt><trkpt lat="44.31357819531828" lon="9.955063970994752"><ele>163.0</ele><time>2026-05-03T09:52:29.014Z</time></trkpt><trkpt lat="44.313481014666884" lon="9.954818012518219"><ele>162.66666666666669</ele><time>2026-05-03T09:52:30.014Z</time></trkpt><trkpt lat="44.3133853129899" lon="9.954567606338527"><ele>162.33333333333334</ele><time>2026-05-03T09:52:31.013Z</time></trkpt><trkpt lat="44.31329710607374" lon="9.95432892285125"><ele>162.0</ele><time>2026-05-03T09:52:32.012Z</time></trkpt><trkpt lat="44.3132146606064" lon="9.954108598369233"><ele>161.33333333333334</ele><time>2026-05-03T09:52:33.012Z</time></trkpt><trkpt lat="44.313145151950685" lon="9.953914985128952"><ele>160.66666666666669</ele><time>2026-05-03T09:52:34.012Z</time></trkpt><trkpt lat="44.31308912712441" lon="9.953730424988818"><ele>160.0</ele><time>2026-05-03T09:52:35.012Z</time></trkpt><trkpt lat="44.313046017488546" lon="9.953523376940327"><ele>158.0</ele><time>2026-05-03T09:52:36.012Z</time></trkpt><trkpt lat="44.31302949267233" lon="9.953283657187024"><ele>156.0</ele><time>2026-05-03T09:52:37.012Z</time></trkpt><trkpt lat="44.31302352776548" lon="9.953024317372622"><ele>154.0</ele><time>2026-05-03T09:52:38.012Z</time></trkpt><trkpt lat="44.31302863746447" lon="9.952766104776398"><ele>153.66666666666669</ele><time>2026-05-03T09:52:39.012Z</time></trkpt><trkpt lat="44.31302356342773" lon="9.95249220030423"><ele>153.33333333333334</ele><time>2026-05-03T09:52:40.012Z</time></trkpt><trkpt lat="44.31301404485563" lon="9.952215110557061"><ele>153.0</ele><time>2026-05-03T09:52:41.012Z</time></trkpt><trkpt lat="44.313006920879026" lon="9.951958404425742"><ele>153.0</ele><time>2026-05-03T09:52:42.012Z</time></trkpt><trkpt lat="44.31301119471955" lon="9.951712250049985"><ele>153.0</ele><time>2026-05-03T09:52:43.013Z</time></trkpt><trkpt lat="44.313038699514294" lon="9.951472546370436"><ele>153.0</ele><time>2026-05-03T09:52:44.013Z</time></trkpt><trkpt lat="44.31308415020115" lon="9.951218299583964"><ele>152.66666666666666</ele><time>2026-05-03T09:52:45.013Z</time></trkpt><trkpt lat="44.313150782853555" lon="9.95095459164396"><ele>152.33333333333331</ele><time>2026-05-03T09:52:46.013Z</time></trkpt><trkpt lat="44.31320862882811" lon="9.95070101485444"><ele>152.0</ele><time>2026-05-03T09:52:47.013Z</time></trkpt><trkpt lat="44.31327347315673" lon="9.95045713320279"><ele>152.0</ele><time>2026-05-03T09:52:48.013Z</time></trkpt><trkpt lat="44.313344682020436" lon="9.950207370808911"><ele>152.0</ele><time>2026-05-03T09:52:49.013Z</time></trkpt><trkpt lat="44.31342465131148" lon="9.949953346672151"><ele>152.0</ele><time>2026-05-03T09:52:50.013Z</time></trkpt><trkpt lat="44.31350357438346" lon="9.949695059875616"><ele>152.0</ele><time>2026-05-03T09:52:51.013Z</time></trkpt><trkpt lat="44.313591654806515" lon="9.949434779417441"><ele>152.0</ele><time>2026-05-03T09:52:52.013Z</time></trkpt><trkpt lat="44.31367771563556" lon="9.949162314744823"><ele>152.0</ele><time>2026-05-03T09:52:53.013Z</time></trkpt><trkpt lat="44.31376495687443" lon="9.948884927928587"><ele>151.33333333333331</ele><time>2026-05-03T09:52:54.013Z</time></trkpt><trkpt lat="44.3138570442197" lon="9.948608144944467"><ele>150.66666666666666</ele><time>2026-05-03T09:52:55.013Z</time></trkpt><trkpt lat="44.313944404838665" lon="9.948333496107548"><ele>150.0</ele><time>2026-05-03T09:52:56.013Z</time></trkpt><trkpt lat="44.31403133410501" lon="9.948064210449344"><ele>149.33333333333334</ele><time>2026-05-03T09:52:57.013Z</time></trkpt><trkpt lat="44.314108776246144" lon="9.947811912255892"><ele>148.66666666666669</ele><time>2026-05-03T09:52:58.013Z</time></trkpt><trkpt lat="44.314178049501" lon="9.947586424163255"><ele>148.0</ele><time>2026-05-03T09:52:59.013Z</time></trkpt><trkpt lat="44.31424413878571" lon="9.947385100195874"><ele>147.0</ele><time>2026-05-03T09:53:00.013Z</time></trkpt><trkpt lat="44.31430470387755" lon="9.947188805994326"><ele>146.0</ele><time>2026-05-03T09:53:01.013Z</time></trkpt><trkpt lat="44.31433340510395" lon="9.946981992079007"><ele>145.0</ele><time>2026-05-03T09:53:02.013Z</time></trkpt><trkpt lat="44.31432314072623" lon="9.946756098872775"><ele>144.0</ele><time>2026-05-03T09:53:03.013Z</time></trkpt><trkpt lat="44.31428484258526" lon="9.946520510656699"><ele>143.0</ele><time>2026-05-03T09:53:04.013Z</time></trkpt><trkpt lat="44.3142260714425" lon="9.946277819249678"><ele>142.0</ele><time>2026-05-03T09:53:05.013Z</time></trkpt><trkpt lat="44.31416381884144" lon="9.946044269656207"><ele>141.25</ele><time>2026-05-03T09:53:06.013Z</time></trkpt><trkpt lat="44.31411170978631" lon="9.945836356245092"><ele>140.5</ele><time>2026-05-03T09:53:07.013Z</time></trkpt><trkpt lat="44.31406863525248" lon="9.94565492842221"><ele>139.75</ele><time>2026-05-03T09:53:08.013Z</time></trkpt><trkpt lat="44.31403402617173" lon="9.945503390134219"><ele>139.0</ele><time>2026-05-03T09:53:09.013Z</time></trkpt><trkpt lat="44.3140076097316" lon="9.945378649580576"><ele>139.0</ele><time>2026-05-03T09:53:10.013Z</time></trkpt><trkpt lat="44.31398485553279" lon="9.945280521060445"><ele>139.0</ele><time>2026-05-03T09:53:11.013Z</time></trkpt><trkpt lat="44.31401899666369" lon="9.945194311908061"><ele>139.0</ele><time>2026-05-03T09:53:14.013Z</time></trkpt><trkpt lat="44.31413741918338" lon="9.945119040151708"><ele>139.0</ele><time>2026-05-03T09:53:16.013Z</time></trkpt><trkpt lat="44.314245042971194" lon="9.94507084428395"><ele>139.0</ele><time>2026-05-03T09:53:17.013Z</time></trkpt><trkpt lat="44.31437769496423" lon="9.945018715966633"><ele>138.0</ele><time>2026-05-03T09:53:18.013Z</time></trkpt><trkpt lat="44.314527256906445" lon="9.944953194276893"><ele>137.0</ele><time>2026-05-03T09:53:19.013Z</time></trkpt><trkpt lat="44.314862866911305" lon="9.94480572633068"><ele>137.0</ele><time>2026-05-03T09:53:21.013Z</time></trkpt><trkpt lat="44.315044784450166" lon="9.944726235961546"><ele>137.0</ele><time>2026-05-03T09:53:22.013Z</time></trkpt><trkpt lat="44.31523407666423" lon="9.944638217279495"><ele>137.0</ele><time>2026-05-03T09:53:23.013Z</time></trkpt><trkpt lat="44.31542872373187" lon="9.944539361339945"><ele>137.66666666666666</ele><time>2026-05-03T09:53:24.013Z</time></trkpt><trkpt lat="44.31562701161179" lon="9.944445446870285"><ele>138.33333333333334</ele><time>2026-05-03T09:53:25.013Z</time></trkpt><trkpt lat="44.31583004488165" lon="9.94435029895085"><ele>139.0</ele><time>2026-05-03T09:53:26.013Z</time></trkpt><trkpt lat="44.316031084908886" lon="9.944253127640408"><ele>139.0</ele><time>2026-05-03T09:53:27.013Z</time></trkpt><trkpt lat="44.31623407578238" lon="9.944162676462243"><ele>139.0</ele><time>2026-05-03T09:53:28.013Z</time></trkpt><trkpt lat="44.31643905091348" lon="9.94406820411262"><ele>139.0</ele><time>2026-05-03T09:53:29.013Z</time></trkpt><trkpt lat="44.31664133345925" lon="9.943960887270416"><ele>138.66666666666669</ele><time>2026-05-03T09:53:30.013Z</time></trkpt><trkpt lat="44.31684745382441" lon="9.943858246236783"><ele>138.33333333333334</ele><time>2026-05-03T09:53:31.014Z</time></trkpt><trkpt lat="44.31705164176114" lon="9.943754469768786"><ele>138.0</ele><time>2026-05-03T09:53:32.014Z</time></trkpt><trkpt lat="44.31746235443369" lon="9.943556699871602"><ele>138.66666666666666</ele><time>2026-05-03T09:53:34.014Z</time></trkpt><trkpt lat="44.3176692096477" lon="9.943465447626746"><ele>139.33333333333331</ele><time>2026-05-03T09:53:35.014Z</time></trkpt><trkpt lat="44.31787218099434" lon="9.94336460256607"><ele>140.0</ele><time>2026-05-03T09:53:36.014Z</time></trkpt><trkpt lat="44.31807731510675" lon="9.943259205718034"><ele>140.33333333333331</ele><time>2026-05-03T09:53:37.014Z</time></trkpt><trkpt lat="44.31827381401034" lon="9.943145591107369"><ele>140.66666666666666</ele><time>2026-05-03T09:53:38.014Z</time></trkpt><trkpt lat="44.31848079770251" lon="9.943039388963268"><ele>141.0</ele><time>2026-05-03T09:53:39.014Z</time></trkpt><trkpt lat="44.31869162596746" lon="9.94295259961728"><ele>141.0</ele><time>2026-05-03T09:53:40.014Z</time></trkpt><trkpt lat="44.31889727121218" lon="9.942860846724306"><ele>141.0</ele><time>2026-05-03T09:53:41.014Z</time></trkpt><trkpt lat="44.31910022370867" lon="9.942775516152599"><ele>141.0</ele><time>2026-05-03T09:53:42.014Z</time></trkpt><trkpt lat="44.31930453714168" lon="9.942690406449094"><ele>141.0</ele><time>2026-05-03T09:53:43.014Z</time></trkpt><trkpt lat="44.31950812017397" lon="9.94260248956919"><ele>141.0</ele><time>2026-05-03T09:53:44.014Z</time></trkpt><trkpt lat="44.31970686528343" lon="9.942508719227309"><ele>141.0</ele><time>2026-05-03T09:53:45.014Z</time></trkpt><trkpt lat="44.31991151592585" lon="9.94241776748411"><ele>141.5</ele><time>2026-05-03T09:53:46.014Z</time></trkpt><trkpt lat="44.32013149245116" lon="9.942318822973187"><ele>142.0</ele><time>2026-05-03T09:53:47.014Z</time></trkpt><trkpt lat="44.32037885217534" lon="9.9421942922116"><ele>142.0</ele><time>2026-05-03T09:53:48.014Z</time></trkpt><trkpt lat="44.32064259458058" lon="9.942072634189545"><ele>142.0</ele><time>2026-05-03T09:53:49.014Z</time></trkpt><trkpt lat="44.32088261664506" lon="9.941968265669098"><ele>142.0</ele><time>2026-05-03T09:53:50.014Z</time></trkpt><trkpt lat="44.32110013242105" lon="9.941871971749839"><ele>142.0</ele><time>2026-05-03T09:53:51.014Z</time></trkpt><trkpt lat="44.321318255163526" lon="9.941769760369755"><ele>142.5</ele><time>2026-05-03T09:53:52.014Z</time></trkpt><trkpt lat="44.32156496493837" lon="9.9416586312548"><ele>143.0</ele><time>2026-05-03T09:53:53.014Z</time></trkpt><trkpt lat="44.32182243899053" lon="9.941539832951621"><ele>143.0</ele><time>2026-05-03T09:53:54.014Z</time></trkpt><trkpt lat="44.32207644338853" lon="9.9414141325113"><ele>143.0</ele><time>2026-05-03T09:53:55.014Z</time></trkpt><trkpt lat="44.322320151873676" lon="9.941300692042185"><ele>143.33333333333331</ele><time>2026-05-03T09:53:56.014Z</time></trkpt><trkpt lat="44.32253964678374" lon="9.941202481927164"><ele>143.66666666666666</ele><time>2026-05-03T09:53:57.014Z</time></trkpt><trkpt lat="44.32274329440868" lon="9.941101360661087"><ele>144.0</ele><time>2026-05-03T09:53:58.014Z</time></trkpt><trkpt lat="44.32294332353014" lon="9.941009748776445"><ele>144.66666666666666</ele><time>2026-05-03T09:53:59.014Z</time></trkpt><trkpt lat="44.32314003721339" lon="9.940919107094759"><ele>145.33333333333331</ele><time>2026-05-03T09:54:00.014Z</time></trkpt><trkpt lat="44.32333049922659" lon="9.940823241939283"><ele>146.0</ele><time>2026-05-03T09:54:01.014Z</time></trkpt><trkpt lat="44.3235083312565" lon="9.94074141740017"><ele>146.0</ele><time>2026-05-03T09:54:02.014Z</time></trkpt><trkpt lat="44.32368561136944" lon="9.940653361609154"><ele>146.0</ele><time>2026-05-03T09:54:03.014Z</time></trkpt><trkpt lat="44.32387052326692" lon="9.94055927927137"><ele>146.0</ele><time>2026-05-03T09:54:04.014Z</time></trkpt><trkpt lat="44.32406160617791" lon="9.940465990895504"><ele>146.0</ele><time>2026-05-03T09:54:05.014Z</time></trkpt><trkpt lat="44.324251560581935" lon="9.940393349886804"><ele>146.0</ele><time>2026-05-03T09:54:06.014Z</time></trkpt><trkpt lat="44.324461500517046" lon="9.940278647086869"><ele>146.0</ele><time>2026-05-03T09:54:07.014Z</time></trkpt><trkpt lat="44.32471345317419" lon="9.940163098831292"><ele>146.0</ele><time>2026-05-03T09:54:08.014Z</time></trkpt><trkpt lat="44.32497293630506" lon="9.940048033005432"><ele>146.0</ele><time>2026-05-03T09:54:09.014Z</time></trkpt><trkpt lat="44.325222975707995" lon="9.939929121999954"><ele>146.0</ele><time>2026-05-03T09:54:10.014Z</time></trkpt><trkpt lat="44.32547024226121" lon="9.93980487135915"><ele>146.0</ele><time>2026-05-03T09:54:11.014Z</time></trkpt><trkpt lat="44.32571706504228" lon="9.939669015141343"><ele>150.0</ele><time>2026-05-03T09:54:12.014Z</time></trkpt><trkpt lat="44.325943191798714" lon="9.939543241424508"><ele>154.0</ele><time>2026-05-03T09:54:13.014Z</time></trkpt><trkpt lat="44.326142628231196" lon="9.939430463427692"><ele>154.0</ele><time>2026-05-03T09:54:14.014Z</time></trkpt><trkpt lat="44.3263327097884" lon="9.939323107633392"><ele>154.0</ele><time>2026-05-03T09:54:15.014Z</time></trkpt><trkpt lat="44.326509734285864" lon="9.939226438652732"><ele>154.0</ele><time>2026-05-03T09:54:16.014Z</time></trkpt><trkpt lat="44.326683335309" lon="9.939129264568418"><ele>153.0</ele><time>2026-05-03T09:54:17.014Z</time></trkpt><trkpt lat="44.32685429910571" lon="9.939030013236533"><ele>152.0</ele><time>2026-05-03T09:54:18.014Z</time></trkpt><trkpt lat="44.32701574138488" lon="9.938929903304153"><ele>151.0</ele><time>2026-05-03T09:54:19.014Z</time></trkpt><trkpt lat="44.327171759162134" lon="9.938826614557009"><ele>152.0</ele><time>2026-05-03T09:54:20.014Z</time></trkpt><trkpt lat="44.327326586465745" lon="9.93872625987782"><ele>153.0</ele><time>2026-05-03T09:54:21.014Z</time></trkpt><trkpt lat="44.32746891539582" lon="9.938598124747276"><ele>154.0</ele><time>2026-05-03T09:54:22.014Z</time></trkpt><trkpt lat="44.32758840741848" lon="9.938432703432051"><ele>153.33333333333334</ele><time>2026-05-03T09:54:23.015Z</time></trkpt><trkpt lat="44.32769054270508" lon="9.93824454179938"><ele>152.66666666666666</ele><time>2026-05-03T09:54:24.015Z</time></trkpt><trkpt lat="44.32778021241744" lon="9.9380698481127"><ele>152.0</ele><time>2026-05-03T09:54:25.015Z</time></trkpt><trkpt lat="44.32786538302872" lon="9.937907562137097"><ele>152.0</ele><time>2026-05-03T09:54:26.015Z</time></trkpt><trkpt lat="44.32795467912967" lon="9.93775039079356"><ele>152.0</ele><time>2026-05-03T09:54:27.015Z</time></trkpt><trkpt lat="44.32804510547342" lon="9.937591132575"><ele>152.0</ele><time>2026-05-03T09:54:28.015Z</time></trkpt><trkpt lat="44.32813651598939" lon="9.93742636012049"><ele>152.0</ele><time>2026-05-03T09:54:29.015Z</time></trkpt><trkpt lat="44.328234362898996" lon="9.937261665707126"><ele>152.66666666666666</ele><time>2026-05-03T09:54:30.015Z</time></trkpt><trkpt lat="44.32833504998187" lon="9.937097300136408"><ele>153.33333333333334</ele><time>2026-05-03T09:54:31.015Z</time></trkpt><trkpt lat="44.32843280644167" lon="9.936911214670033"><ele>154.0</ele><time>2026-05-03T09:54:32.015Z</time></trkpt><trkpt lat="44.32853064269686" lon="9.936721393442244"><ele>153.5</ele><time>2026-05-03T09:54:33.015Z</time></trkpt><trkpt lat="44.328626677270975" lon="9.93655348416886"><ele>153.0</ele><time>2026-05-03T09:54:34.015Z</time></trkpt><trkpt lat="44.32871913705246" lon="9.936396341458146"><ele>152.5</ele><time>2026-05-03T09:54:35.015Z</time></trkpt><trkpt lat="44.32880812345842" lon="9.93624532283317"><ele>152.0</ele><time>2026-05-03T09:54:36.015Z</time></trkpt><trkpt lat="44.3288967557996" lon="9.936097310438894"><ele>152.25</ele><time>2026-05-03T09:54:37.011Z</time></trkpt><trkpt lat="44.32898788437502" lon="9.935945951621294"><ele>152.5</ele><time>2026-05-03T09:54:38.011Z</time></trkpt><trkpt lat="44.329072406164926" lon="9.935785123841063"><ele>152.75</ele><time>2026-05-03T09:54:39.01Z</time></trkpt><trkpt lat="44.32915816381684" lon="9.935621597191314"><ele>153.0</ele><time>2026-05-03T09:54:40.009Z</time></trkpt><trkpt lat="44.32924922012185" lon="9.93545683174446"><ele>153.0</ele><time>2026-05-03T09:54:41.008Z</time></trkpt><trkpt lat="44.32934167607597" lon="9.935293529910979"><ele>153.0</ele><time>2026-05-03T09:54:42.008Z</time></trkpt><trkpt lat="44.32943513548188" lon="9.935133785202282"><ele>153.0</ele><time>2026-05-03T09:54:43.007Z</time></trkpt><trkpt lat="44.3295303824818" lon="9.934974873000423"><ele>153.0</ele><time>2026-05-03T09:54:44.007Z</time></trkpt><trkpt lat="44.32962265247878" lon="9.934814140915492"><ele>152.75</ele><time>2026-05-03T09:54:45.006Z</time></trkpt><trkpt lat="44.32971260969609" lon="9.934650393759696"><ele>152.5</ele><time>2026-05-03T09:54:46.006Z</time></trkpt><trkpt lat="44.3298007032004" lon="9.934486606876089"><ele>152.25</ele><time>2026-05-03T09:54:47.005Z</time></trkpt><trkpt lat="44.32988526074641" lon="9.934318283959723"><ele>152.0</ele><time>2026-05-03T09:54:48.005Z</time></trkpt><trkpt lat="44.329968311369676" lon="9.934146395151982"><ele>153.0</ele><time>2026-05-03T09:54:49.005Z</time></trkpt><trkpt lat="44.330048117956615" lon="9.933978370392152"><ele>154.0</ele><time>2026-05-03T09:54:50.004Z</time></trkpt><trkpt lat="44.330132015130175" lon="9.933804964318506"><ele>155.0</ele><time>2026-05-03T09:54:51.004Z</time></trkpt><trkpt lat="44.33021912197396" lon="9.933627156435469"><ele>156.0</ele><time>2026-05-03T09:54:52.004Z</time></trkpt><trkpt lat="44.33030844197561" lon="9.933442365307137"><ele>156.33333333333334</ele><time>2026-05-03T09:54:53.003Z</time></trkpt><trkpt lat="44.33040227763111" lon="9.933231929072436"><ele>156.66666666666669</ele><time>2026-05-03T09:54:54.003Z</time></trkpt><trkpt lat="44.330502634513465" lon="9.933007188401199"><ele>157.0</ele><time>2026-05-03T09:54:55.003Z</time></trkpt><trkpt lat="44.33060429851635" lon="9.932787440656105"><ele>157.0</ele><time>2026-05-03T09:54:56.003Z</time></trkpt><trkpt lat="44.330700053308234" lon="9.93258518498965"><ele>157.0</ele><time>2026-05-03T09:54:57.002Z</time></trkpt><trkpt lat="44.33079405450199" lon="9.932397095499722"><ele>157.0</ele><time>2026-05-03T09:54:58.002Z</time></trkpt><trkpt lat="44.33088233862941" lon="9.932223060495746"><ele>156.5</ele><time>2026-05-03T09:54:59.002Z</time></trkpt><trkpt lat="44.330961280977384" lon="9.932044875120916"><ele>156.0</ele><time>2026-05-03T09:55:00.002Z</time></trkpt><trkpt lat="44.33104036833417" lon="9.931886581292597"><ele>155.5</ele><time>2026-05-03T09:55:01.002Z</time></trkpt><trkpt lat="44.3311120392171" lon="9.931734478199292"><ele>155.0</ele><time>2026-05-03T09:55:02.002Z</time></trkpt><trkpt lat="44.331181290298126" lon="9.931593704142854"><ele>154.75</ele><time>2026-05-03T09:55:03.002Z</time></trkpt><trkpt lat="44.331251565067895" lon="9.931446236782952"><ele>154.5</ele><time>2026-05-03T09:55:04.001Z</time></trkpt><trkpt lat="44.3313240325984" lon="9.931296391761839"><ele>154.25</ele><time>2026-05-03T09:55:05.001Z</time></trkpt><trkpt lat="44.33139394625" lon="9.931141860142393"><ele>154.0</ele><time>2026-05-03T09:55:06.001Z</time></trkpt><trkpt lat="44.33146480333964" lon="9.930991071364666"><ele>154.0</ele><time>2026-05-03T09:55:07.001Z</time></trkpt><trkpt lat="44.33153492573656" lon="9.93083925375467"><ele>154.0</ele><time>2026-05-03T09:55:08.001Z</time></trkpt><trkpt lat="44.331598994472365" lon="9.930708198095987"><ele>154.0</ele><time>2026-05-03T09:55:09.001Z</time></trkpt><trkpt lat="44.33165999244416" lon="9.930586406386913"><ele>154.0</ele><time>2026-05-03T09:55:10.001Z</time></trkpt><trkpt lat="44.33171562753202" lon="9.930466670987828"><ele>154.0</ele><time>2026-05-03T09:55:11.001Z</time></trkpt><trkpt lat="44.33176975364388" lon="9.930356057396011"><ele>154.0</ele><time>2026-05-03T09:55:12.001Z</time></trkpt><trkpt lat="44.33183717436194" lon="9.930270135256904"><ele>154.0</ele><time>2026-05-03T09:55:13.001Z</time></trkpt><trkpt lat="44.33190738281374" lon="9.930221775951468"><ele>154.0</ele><time>2026-05-03T09:55:14.001Z</time></trkpt><trkpt lat="44.33199611504996" lon="9.930134199118246"><ele>154.0</ele><time>2026-05-03T09:55:16Z</time></trkpt><trkpt lat="44.33201030687526" lon="9.930045896586456"><ele>154.0</ele><time>2026-05-03T09:55:17Z</time></trkpt><trkpt lat="44.332016825813604" lon="9.929929916358068"><ele>154.0</ele><time>2026-05-03T09:55:18Z</time></trkpt><trkpt lat="44.3320402712509" lon="9.929804748603223"><ele>154.0</ele><time>2026-05-03T09:55:19Z</time></trkpt><trkpt lat="44.332082065005075" lon="9.929675684893958"><ele>154.0</ele><time>2026-05-03T09:55:20Z</time></trkpt><trkpt lat="44.33214486210247" lon="9.929551720427604"><ele>154.0</ele><time>2026-05-03T09:55:21Z</time></trkpt><trkpt lat="44.33220676374085" lon="9.929427300051744"><ele>154.0</ele><time>2026-05-03T09:55:22Z</time></trkpt><trkpt lat="44.332271893838005" lon="9.929276185658617"><ele>155.66666666666669</ele><time>2026-05-03T09:55:23Z</time></trkpt><trkpt lat="44.332356409162855" lon="9.929077706834077"><ele>157.33333333333334</ele><time>2026-05-03T09:55:24Z</time></trkpt><trkpt lat="44.332462247538814" lon="9.928826263954624"><ele>159.0</ele><time>2026-05-03T09:55:25Z</time></trkpt><trkpt lat="44.332581987700706" lon="9.928540638970933"><ele>158.66666666666666</ele><time>2026-05-03T09:55:26Z</time></trkpt><trkpt lat="44.33269973019358" lon="9.928248036667014"><ele>158.33333333333331</ele><time>2026-05-03T09:55:27Z</time></trkpt><trkpt lat="44.332796931172396" lon="9.927996980821622"><ele>158.0</ele><time>2026-05-03T09:55:28Z</time></trkpt><trkpt lat="44.3328719369527" lon="9.927795297474061"><ele>158.0</ele><time>2026-05-03T09:55:29Z</time></trkpt><trkpt lat="44.3329393430323" lon="9.927616111430257"><ele>158.0</ele><time>2026-05-03T09:55:30Z</time></trkpt><trkpt lat="44.332991394214524" lon="9.927444509787898"><ele>158.0</ele><time>2026-05-03T09:55:31Z</time></trkpt><trkpt lat="44.33302156800229" lon="9.927279207828853"><ele>158.0</ele><time>2026-05-03T09:55:32Z</time></trkpt><trkpt lat="44.333033779403" lon="9.927128570579825"><ele>157.6</ele><time>2026-05-03T09:55:33Z</time></trkpt><trkpt lat="44.33304063053692" lon="9.926972208872572"><ele>157.20000000000002</ele><time>2026-05-03T09:55:34Z</time></trkpt><trkpt lat="44.333041524360894" lon="9.926816840618738"><ele>156.8</ele><time>2026-05-03T09:55:35Z</time></trkpt><trkpt lat="44.33304547386125" lon="9.926672160145424"><ele>156.4</ele><time>2026-05-03T09:55:36Z</time></trkpt><trkpt lat="44.33305134472849" lon="9.926532237416573"><ele>156.0</ele><time>2026-05-03T09:55:37Z</time></trkpt><trkpt lat="44.33305656742456" lon="9.92638344619672"><ele>157.0</ele><time>2026-05-03T09:55:38Z</time></trkpt><trkpt lat="44.33306330137842" lon="9.926233487844657"><ele>158.0</ele><time>2026-05-03T09:55:39Z</time></trkpt><trkpt lat="44.33306531356058" lon="9.926075686302699"><ele>159.0</ele><time>2026-05-03T09:55:40Z</time></trkpt><trkpt lat="44.333071313689324" lon="9.92591423023221"><ele>160.0</ele><time>2026-05-03T09:55:41Z</time></trkpt><trkpt lat="44.33307977517789" lon="9.925744322059515"><ele>160.0</ele><time>2026-05-03T09:55:42Z</time></trkpt><trkpt lat="44.33309641672162" lon="9.925575021091591"><ele>160.0</ele><time>2026-05-03T09:55:43Z</time></trkpt><trkpt lat="44.33312624289306" lon="9.925375264175578"><ele>160.0</ele><time>2026-05-03T09:55:44Z</time></trkpt><trkpt lat="44.33317722603469" lon="9.925148078340333"><ele>160.0</ele><time>2026-05-03T09:55:45Z</time></trkpt><trkpt lat="44.33325444590657" lon="9.92491856850227"><ele>159.33333333333334</ele><time>2026-05-03T09:55:46Z</time></trkpt><trkpt lat="44.333353212764536" lon="9.924697244192329"><ele>158.66666666666666</ele><time>2026-05-03T09:55:47Z</time></trkpt><trkpt lat="44.333461682920415" lon="9.924468455041218"><ele>158.0</ele><time>2026-05-03T09:55:48Z</time></trkpt><trkpt lat="44.33355992077057" lon="9.924230541686121"><ele>158.66666666666666</ele><time>2026-05-03T09:55:49Z</time></trkpt><trkpt lat="44.33364334782474" lon="9.924006438789228"><ele>159.33333333333334</ele><time>2026-05-03T09:55:50Z</time></trkpt><trkpt lat="44.33371694834236" lon="9.923806955431795"><ele>160.0</ele><time>2026-05-03T09:55:51Z</time></trkpt><trkpt lat="44.3337881988935" lon="9.923594364387084"><ele>159.66666666666669</ele><time>2026-05-03T09:55:52Z</time></trkpt><trkpt lat="44.333885056657884" lon="9.923381690156019"><ele>159.33333333333334</ele><time>2026-05-03T09:55:53Z</time></trkpt><trkpt lat="44.33403208619265" lon="9.923196905484316"><ele>159.0</ele><time>2026-05-03T09:55:54Z</time></trkpt><trkpt lat="44.33419241996836" lon="9.923013704602445"><ele>160.0</ele><time>2026-05-03T09:55:55Z</time></trkpt><trkpt lat="44.334350493098285" lon="9.922791408656483"><ele>161.0</ele><time>2026-05-03T09:55:56Z</time></trkpt><trkpt lat="44.334505111583255" lon="9.922543193137292"><ele>161.0</ele><time>2026-05-03T09:55:57Z</time></trkpt><trkpt lat="44.334668714093304" lon="9.922281475658215"><ele>161.0</ele><time>2026-05-03T09:55:58Z</time></trkpt><trkpt lat="44.33483230448845" lon="9.92202263757633"><ele>162.5</ele><time>2026-05-03T09:55:59Z</time></trkpt><trkpt lat="44.33498481979809" lon="9.921779119691605"><ele>164.0</ele><time>2026-05-03T09:56:00Z</time></trkpt><trkpt lat="44.335135988797575" lon="9.921539781430237"><ele>164.0</ele><time>2026-05-03T09:56:01Z</time></trkpt><trkpt lat="44.3352792943647" lon="9.921314597141604"><ele>164.0</ele><time>2026-05-03T09:56:02Z</time></trkpt><trkpt lat="44.33541345271798" lon="9.921087540949632"><ele>164.0</ele><time>2026-05-03T09:56:03Z</time></trkpt><trkpt lat="44.335544008875935" lon="9.920852156014815"><ele>164.0</ele><time>2026-05-03T09:56:04Z</time></trkpt><trkpt lat="44.33566297648608" lon="9.920602980574998"><ele>164.0</ele><time>2026-05-03T09:56:05Z</time></trkpt><trkpt lat="44.335773435841595" lon="9.920323402446858"><ele>164.0</ele><time>2026-05-03T09:56:06Z</time></trkpt><trkpt lat="44.33587966853633" lon="9.920021120222037"><ele>163.5</ele><time>2026-05-03T09:56:07Z</time></trkpt><trkpt lat="44.33598131314641" lon="9.919706446939141"><ele>163.0</ele><time>2026-05-03T09:56:08Z</time></trkpt><trkpt lat="44.336085899745825" lon="9.919388233984474"><ele>163.0</ele><time>2026-05-03T09:56:09Z</time></trkpt><trkpt lat="44.3361951561715" lon="9.919060925079819"><ele>163.0</ele><time>2026-05-03T09:56:10Z</time></trkpt><trkpt lat="44.33631287326146" lon="9.918727737317298"><ele>163.5</ele><time>2026-05-03T09:56:11Z</time></trkpt><trkpt lat="44.33642128620886" lon="9.918389842358016"><ele>164.0</ele><time>2026-05-03T09:56:12Z</time></trkpt><trkpt lat="44.33652690120801" lon="9.918078090297957"><ele>164.0</ele><time>2026-05-03T09:56:13Z</time></trkpt><trkpt lat="44.33663144017792" lon="9.917775598064818"><ele>164.0</ele><time>2026-05-03T09:56:14Z</time></trkpt><trkpt lat="44.336731280469756" lon="9.91748045941147"><ele>164.5</ele><time>2026-05-03T09:56:15Z</time></trkpt><trkpt lat="44.33682632101347" lon="9.917187645401748"><ele>165.0</ele><time>2026-05-03T09:56:16Z</time></trkpt><trkpt lat="44.33691631227195" lon="9.916904629282893"><ele>165.33333333333334</ele><time>2026-05-03T09:56:17Z</time></trkpt><trkpt lat="44.33701404245852" lon="9.9166246079812"><ele>165.66666666666669</ele><time>2026-05-03T09:56:18Z</time></trkpt><trkpt lat="44.33711623154792" lon="9.916347983450411"><ele>166.0</ele><time>2026-05-03T09:56:19Z</time></trkpt><trkpt lat="44.33723730673187" lon="9.916067344171426"><ele>167.5</ele><time>2026-05-03T09:56:20Z</time></trkpt><trkpt lat="44.33738146929764" lon="9.915793357480103"><ele>169.0</ele><time>2026-05-03T09:56:21Z</time></trkpt><trkpt lat="44.33753074223887" lon="9.915528854943139"><ele>169.0</ele><time>2026-05-03T09:56:22Z</time></trkpt><trkpt lat="44.33768366910871" lon="9.915261357711385"><ele>169.0</ele><time>2026-05-03T09:56:23Z</time></trkpt><trkpt lat="44.33783425044683" lon="9.914992100543884"><ele>169.5</ele><time>2026-05-03T09:56:24Z</time></trkpt><trkpt lat="44.337985441776105" lon="9.91472032274342"><ele>170.0</ele><time>2026-05-03T09:56:25Z</time></trkpt><trkpt lat="44.33813827064312" lon="9.914449736185475"><ele>172.5</ele><time>2026-05-03T09:56:26Z</time></trkpt><trkpt lat="44.33828872797668" lon="9.914178967045206"><ele>175.0</ele><time>2026-05-03T09:56:27.001Z</time></trkpt><trkpt lat="44.33844240263208" lon="9.91390262152868"><ele>175.0</ele><time>2026-05-03T09:56:28Z</time></trkpt><trkpt lat="44.338593408633905" lon="9.913629668031747"><ele>175.0</ele><time>2026-05-03T09:56:29.001Z</time></trkpt><trkpt lat="44.338741106579064" lon="9.913359138518153"><ele>178.0</ele><time>2026-05-03T09:56:30.001Z</time></trkpt><trkpt lat="44.3388905778665" lon="9.913097483655012"><ele>181.0</ele><time>2026-05-03T09:56:31.001Z</time></trkpt><trkpt lat="44.33903340026543" lon="9.912843798756853"><ele>181.0</ele><time>2026-05-03T09:56:32.001Z</time></trkpt><trkpt lat="44.33917867760774" lon="9.912611949725987"><ele>181.0</ele><time>2026-05-03T09:56:33.001Z</time></trkpt><trkpt lat="44.33934524918027" lon="9.912403119187791"><ele>181.0</ele><time>2026-05-03T09:56:34.001Z</time></trkpt><trkpt lat="44.339531426173075" lon="9.912220411501936"><ele>182.0</ele><time>2026-05-03T09:56:35.001Z</time></trkpt><trkpt lat="44.339733451199045" lon="9.912061505295744"><ele>183.0</ele><time>2026-05-03T09:56:36.001Z</time></trkpt><trkpt lat="44.3399382131014" lon="9.91190858282682"><ele>183.0</ele><time>2026-05-03T09:56:37.001Z</time></trkpt><trkpt lat="44.34014790301227" lon="9.911760027588103"><ele>183.0</ele><time>2026-05-03T09:56:38.001Z</time></trkpt><trkpt lat="44.34036426902613" lon="9.911624314455956"><ele>182.5</ele><time>2026-05-03T09:56:39.001Z</time></trkpt><trkpt lat="44.34058776816928" lon="9.911512372739528"><ele>182.0</ele><time>2026-05-03T09:56:40.001Z</time></trkpt><trkpt lat="44.34080744172582" lon="9.911413673894026"><ele>182.0</ele><time>2026-05-03T09:56:41.001Z</time></trkpt><trkpt lat="44.34100861742293" lon="9.91133269277787"><ele>182.0</ele><time>2026-05-03T09:56:42.001Z</time></trkpt><trkpt lat="44.34120260649204" lon="9.911263867518725"><ele>182.0</ele><time>2026-05-03T09:56:42.998Z</time></trkpt><trkpt lat="44.34138817437929" lon="9.91120962923328"><ele>182.0</ele><time>2026-05-03T09:56:43.998Z</time></trkpt><trkpt lat="44.34156159204781" lon="9.91117234105178"><ele>182.0</ele><time>2026-05-03T09:56:44.998Z</time></trkpt><trkpt lat="44.34171136852005" lon="9.911148279978478"><ele>182.0</ele><time>2026-05-03T09:56:45.998Z</time></trkpt><trkpt lat="44.341854332523745" lon="9.911136743036776"><ele>182.0</ele><time>2026-05-03T09:56:46.998Z</time></trkpt><trkpt lat="44.341984376575894" lon="9.91112162345669"><ele>182.0</ele><time>2026-05-03T09:56:47.998Z</time></trkpt><trkpt lat="44.34211361137121" lon="9.91111087099705"><ele>182.0</ele><time>2026-05-03T09:56:48.998Z</time></trkpt><trkpt lat="44.34223980176637" lon="9.911106534017193"><ele>182.0</ele><time>2026-05-03T09:56:49.998Z</time></trkpt><trkpt lat="44.34236915700542" lon="9.911109087342624"><ele>182.66666666666666</ele><time>2026-05-03T09:56:50.998Z</time></trkpt><trkpt lat="44.342503981753794" lon="9.911122560825676"><ele>183.33333333333334</ele><time>2026-05-03T09:56:51.998Z</time></trkpt><trkpt lat="44.34266078008168" lon="9.911137199014615"><ele>184.0</ele><time>2026-05-03T09:56:52.998Z</time></trkpt><trkpt lat="44.34283630766964" lon="9.911177020319082"><ele>184.0</ele><time>2026-05-03T09:56:53.998Z</time></trkpt><trkpt lat="44.34303323814689" lon="9.911233991205751"><ele>184.0</ele><time>2026-05-03T09:56:54.998Z</time></trkpt><trkpt lat="44.34322902186029" lon="9.911304277053468"><ele>184.0</ele><time>2026-05-03T09:56:55.998Z</time></trkpt><trkpt lat="44.343435724089986" lon="9.911382558655916"><ele>184.0</ele><time>2026-05-03T09:56:56.998Z</time></trkpt><trkpt lat="44.34364940062107" lon="9.91145038291228"><ele>184.0</ele><time>2026-05-03T09:56:57.998Z</time></trkpt><trkpt lat="44.343856623952924" lon="9.911518266978746"><ele>184.0</ele><time>2026-05-03T09:56:58.998Z</time></trkpt><trkpt lat="44.34406307828398" lon="9.911590355441994"><ele>185.0</ele><time>2026-05-03T09:56:59.999Z</time></trkpt><trkpt lat="44.344258417727765" lon="9.911658092823918"><ele>186.0</ele><time>2026-05-03T09:57:00.999Z</time></trkpt><trkpt lat="44.344446984214606" lon="9.911709893860683"><ele>187.0</ele><time>2026-05-03T09:57:01.999Z</time></trkpt><trkpt lat="44.344626566396094" lon="9.911750168310546"><ele>188.0</ele><time>2026-05-03T09:57:02.999Z</time></trkpt><trkpt lat="44.34479373749752" lon="9.911775214743836"><ele>189.0</ele><time>2026-05-03T09:57:03.999Z</time></trkpt><trkpt lat="44.34494167160202" lon="9.91178048382028"><ele>190.0</ele><time>2026-05-03T09:57:04.999Z</time></trkpt><trkpt lat="44.34507689503495" lon="9.911780760950254"><ele>190.0</ele><time>2026-05-03T09:57:05.999Z</time></trkpt><trkpt lat="44.34520102124827" lon="9.911779184276536"><ele>190.0</ele><time>2026-05-03T09:57:06.999Z</time></trkpt><trkpt lat="44.345307658384876" lon="9.911778402732939"><ele>190.0</ele><time>2026-05-03T09:57:07.999Z</time></trkpt><trkpt lat="44.34539066380651" lon="9.911778440369973"><ele>190.0</ele><time>2026-05-03T09:57:08.999Z</time></trkpt><trkpt lat="44.34546836192779" lon="9.911857940884376"><ele>190.0</ele><time>2026-05-03T09:57:10.999Z</time></trkpt><trkpt lat="44.34546651978266" lon="9.911952721501871"><ele>190.0</ele><time>2026-05-03T09:57:11.999Z</time></trkpt><trkpt lat="44.345449805195614" lon="9.912047219393646"><ele>190.0</ele><time>2026-05-03T09:57:12.999Z</time></trkpt><trkpt lat="44.34540188638445" lon="9.91213840007308"><ele>190.0</ele><time>2026-05-03T09:57:13.999Z</time></trkpt><trkpt lat="44.34534485889553" lon="9.912206733173537"><ele>190.0</ele><time>2026-05-03T09:57:14.999Z</time></trkpt><trkpt lat="44.3452884807461" lon="9.912284146325957"><ele>190.0</ele><time>2026-05-03T09:57:15.999Z</time></trkpt><trkpt lat="44.34522954655095" lon="9.912346858712253"><ele>190.0</ele><time>2026-05-03T09:57:16.999Z</time></trkpt><trkpt lat="44.345113487694725" lon="9.912398766176576"><ele>190.0</ele><time>2026-05-03T09:57:18.999Z</time></trkpt><trkpt lat="44.34502759300708" lon="9.91244480531191"><ele>190.0</ele><time>2026-05-03T09:57:20.999Z</time></trkpt></trkseg></trk></gpx>